<?xml version="1.0" encoding="UTF-8" standalone="no" ?>
<gpx xmlns="http://www.topografix.com/GPX/1/1" xmlns:xsi="http://www.w3.org/2001/XMLSchema-instance" xsi:schemaLocation="http://www.topografix.com/GPX/1/1 http://www.topografix.com/GPX/1/1/gpx.xsd" version="1.1" creator="VisuGPX - https://www.visugpx.com">
  <metadata>
    <name>Transvésubienne 2018</name>
    <desc><![CDATA[Tracé de la Transvésubienne 2018.]]></desc>
  </metadata>
  <trk>
    <name><![CDATA[8320818-TRANSVESUBIENNE 2018 OK GPX]]></name>
    <trkseg>
      <trkpt lat="44.07071" lon="7.22355">
        <ele>1504</ele>
        <time>2018-05-07T11:12:59Z</time>
      </trkpt>
      <trkpt lat="44.07067" lon="7.2237">
        <ele>1504</ele>
        <time>2018-05-07T11:13:59Z</time>
      </trkpt>
      <trkpt lat="44.07064" lon="7.22386">
        <ele>1503</ele>
        <time>2018-05-07T11:14:59Z</time>
      </trkpt>
      <trkpt lat="44.07061" lon="7.22406">
        <ele>1501</ele>
        <time>2018-05-07T11:15:59Z</time>
      </trkpt>
      <trkpt lat="44.0706" lon="7.22416">
        <ele>1500</ele>
        <time>2018-05-07T11:16:59Z</time>
      </trkpt>
      <trkpt lat="44.07056" lon="7.22449">
        <ele>1498</ele>
        <time>2018-05-07T11:17:59Z</time>
      </trkpt>
      <trkpt lat="44.07055" lon="7.22455">
        <ele>1497</ele>
        <time>2018-05-07T11:18:59Z</time>
      </trkpt>
      <trkpt lat="44.07053" lon="7.22461">
        <ele>1497</ele>
        <time>2018-05-07T11:19:59Z</time>
      </trkpt>
      <trkpt lat="44.07051" lon="7.22466">
        <ele>1497</ele>
        <time>2018-05-07T11:20:59Z</time>
      </trkpt>
      <trkpt lat="44.07044" lon="7.22473">
        <ele>1497</ele>
        <time>2018-05-07T11:21:59Z</time>
      </trkpt>
      <trkpt lat="44.07037" lon="7.22478">
        <ele>1497</ele>
        <time>2018-05-07T11:22:59Z</time>
      </trkpt>
      <trkpt lat="44.07034" lon="7.22481">
        <ele>1498</ele>
        <time>2018-05-07T11:23:59Z</time>
      </trkpt>
      <trkpt lat="44.07041" lon="7.22518">
        <ele>1491</ele>
        <time>2018-05-07T11:24:59Z</time>
      </trkpt>
      <trkpt lat="44.07039" lon="7.22533">
        <ele>1489</ele>
        <time>2018-05-07T11:25:59Z</time>
      </trkpt>
      <trkpt lat="44.07029" lon="7.22546">
        <ele>1487</ele>
        <time>2018-05-07T11:26:59Z</time>
      </trkpt>
      <trkpt lat="44.07012" lon="7.2256">
        <ele>1485</ele>
        <time>2018-05-07T11:27:59Z</time>
      </trkpt>
      <trkpt lat="44.07011" lon="7.22565">
        <ele>1484</ele>
        <time>2018-05-07T11:28:59Z</time>
      </trkpt>
      <trkpt lat="44.07011" lon="7.2257">
        <ele>1483</ele>
        <time>2018-05-07T11:29:59Z</time>
      </trkpt>
      <trkpt lat="44.07017" lon="7.22583">
        <ele>1480</ele>
        <time>2018-05-07T11:30:59Z</time>
      </trkpt>
      <trkpt lat="44.0702" lon="7.2259">
        <ele>1479</ele>
        <time>2018-05-07T11:31:59Z</time>
      </trkpt>
      <trkpt lat="44.07022" lon="7.22597">
        <ele>1479</ele>
        <time>2018-05-07T11:32:59Z</time>
      </trkpt>
      <trkpt lat="44.07022" lon="7.22603">
        <ele>1478</ele>
        <time>2018-05-07T11:33:59Z</time>
      </trkpt>
      <trkpt lat="44.07018" lon="7.22607">
        <ele>1477</ele>
        <time>2018-05-07T11:34:59Z</time>
      </trkpt>
      <trkpt lat="44.07015" lon="7.2261">
        <ele>1477</ele>
        <time>2018-05-07T11:35:59Z</time>
      </trkpt>
      <trkpt lat="44.07011" lon="7.22612">
        <ele>1476</ele>
        <time>2018-05-07T11:36:59Z</time>
      </trkpt>
      <trkpt lat="44.07008" lon="7.22615">
        <ele>1475</ele>
        <time>2018-05-07T11:37:59Z</time>
      </trkpt>
      <trkpt lat="44.07005" lon="7.2262">
        <ele>1475</ele>
        <time>2018-05-07T11:38:59Z</time>
      </trkpt>
      <trkpt lat="44.06999" lon="7.22635">
        <ele>1472</ele>
        <time>2018-05-07T11:39:59Z</time>
      </trkpt>
      <trkpt lat="44.06995" lon="7.22645">
        <ele>1472</ele>
        <time>2018-05-07T11:40:59Z</time>
      </trkpt>
      <trkpt lat="44.06986" lon="7.22666">
        <ele>1471</ele>
        <time>2018-05-07T11:41:59Z</time>
      </trkpt>
      <trkpt lat="44.06976" lon="7.22689">
        <ele>1470</ele>
        <time>2018-05-07T11:42:59Z</time>
      </trkpt>
      <trkpt lat="44.06964" lon="7.22723">
        <ele>1466</ele>
        <time>2018-05-07T11:43:59Z</time>
      </trkpt>
      <trkpt lat="44.0696" lon="7.22734">
        <ele>1465</ele>
        <time>2018-05-07T11:44:59Z</time>
      </trkpt>
      <trkpt lat="44.0694" lon="7.2278">
        <ele>1456</ele>
        <time>2018-05-07T11:45:59Z</time>
      </trkpt>
      <trkpt lat="44.06936" lon="7.22791">
        <ele>1453</ele>
        <time>2018-05-07T11:46:59Z</time>
      </trkpt>
      <trkpt lat="44.06927" lon="7.2281">
        <ele>1448</ele>
        <time>2018-05-07T11:47:59Z</time>
      </trkpt>
      <trkpt lat="44.06922" lon="7.22819">
        <ele>1445</ele>
        <time>2018-05-07T11:48:59Z</time>
      </trkpt>
      <trkpt lat="44.06917" lon="7.22827">
        <ele>1442</ele>
        <time>2018-05-07T11:49:59Z</time>
      </trkpt>
      <trkpt lat="44.06911" lon="7.22835">
        <ele>1440</ele>
        <time>2018-05-07T11:50:59Z</time>
      </trkpt>
      <trkpt lat="44.06904" lon="7.22842">
        <ele>1440</ele>
        <time>2018-05-07T11:51:59Z</time>
      </trkpt>
      <trkpt lat="44.06895" lon="7.22847">
        <ele>1440</ele>
        <time>2018-05-07T11:52:59Z</time>
      </trkpt>
      <trkpt lat="44.06886" lon="7.2285">
        <ele>1439</ele>
        <time>2018-05-07T11:53:59Z</time>
      </trkpt>
      <trkpt lat="44.06877" lon="7.22852">
        <ele>1440</ele>
        <time>2018-05-07T11:54:59Z</time>
      </trkpt>
      <trkpt lat="44.06861" lon="7.22853">
        <ele>1440</ele>
        <time>2018-05-07T11:55:59Z</time>
      </trkpt>
      <trkpt lat="44.06848" lon="7.22854">
        <ele>1440</ele>
        <time>2018-05-07T11:56:59Z</time>
      </trkpt>
      <trkpt lat="44.06835" lon="7.22855">
        <ele>1440</ele>
        <time>2018-05-07T11:57:59Z</time>
      </trkpt>
      <trkpt lat="44.06814" lon="7.22859">
        <ele>1443</ele>
        <time>2018-05-07T11:58:59Z</time>
      </trkpt>
      <trkpt lat="44.06804" lon="7.22858">
        <ele>1444</ele>
        <time>2018-05-07T11:59:59Z</time>
      </trkpt>
      <trkpt lat="44.06783" lon="7.22855">
        <ele>1447</ele>
        <time>2018-05-07T12:00:59Z</time>
      </trkpt>
      <trkpt lat="44.06779" lon="7.22854">
        <ele>1448</ele>
        <time>2018-05-07T12:01:59Z</time>
      </trkpt>
      <trkpt lat="44.06763" lon="7.22847">
        <ele>1450</ele>
        <time>2018-05-07T12:02:59Z</time>
      </trkpt>
      <trkpt lat="44.06748" lon="7.22839">
        <ele>1451</ele>
        <time>2018-05-07T12:03:59Z</time>
      </trkpt>
      <trkpt lat="44.06724" lon="7.22824">
        <ele>1456</ele>
        <time>2018-05-07T12:04:59Z</time>
      </trkpt>
      <trkpt lat="44.06718" lon="7.22819">
        <ele>1458</ele>
        <time>2018-05-07T12:05:59Z</time>
      </trkpt>
      <trkpt lat="44.06697" lon="7.22808">
        <ele>1462</ele>
        <time>2018-05-07T12:06:59Z</time>
      </trkpt>
      <trkpt lat="44.06683" lon="7.228">
        <ele>1464</ele>
        <time>2018-05-07T12:07:59Z</time>
      </trkpt>
      <trkpt lat="44.06669" lon="7.22794">
        <ele>1465</ele>
        <time>2018-05-07T12:08:59Z</time>
      </trkpt>
      <trkpt lat="44.06647" lon="7.22789">
        <ele>1468</ele>
        <time>2018-05-07T12:09:59Z</time>
      </trkpt>
      <trkpt lat="44.06637" lon="7.22786">
        <ele>1469</ele>
        <time>2018-05-07T12:10:59Z</time>
      </trkpt>
      <trkpt lat="44.06628" lon="7.22779">
        <ele>1470</ele>
        <time>2018-05-07T12:11:59Z</time>
      </trkpt>
      <trkpt lat="44.06622" lon="7.22776">
        <ele>1471</ele>
        <time>2018-05-07T12:12:59Z</time>
      </trkpt>
      <trkpt lat="44.0662" lon="7.22771">
        <ele>1471</ele>
        <time>2018-05-07T12:13:59Z</time>
      </trkpt>
      <trkpt lat="44.06618" lon="7.22769">
        <ele>1471</ele>
        <time>2018-05-07T12:14:59Z</time>
      </trkpt>
      <trkpt lat="44.06609" lon="7.22761">
        <ele>1470</ele>
        <time>2018-05-07T12:15:59Z</time>
      </trkpt>
      <trkpt lat="44.06606" lon="7.22759">
        <ele>1470</ele>
        <time>2018-05-07T12:16:59Z</time>
      </trkpt>
      <trkpt lat="44.06605" lon="7.22758">
        <ele>1470</ele>
        <time>2018-05-07T12:17:59Z</time>
      </trkpt>
      <trkpt lat="44.06598" lon="7.22755">
        <ele>1470</ele>
        <time>2018-05-07T12:18:59Z</time>
      </trkpt>
      <trkpt lat="44.06593" lon="7.22752">
        <ele>1470</ele>
        <time>2018-05-07T12:19:59Z</time>
      </trkpt>
      <trkpt lat="44.0659" lon="7.22749">
        <ele>1469</ele>
        <time>2018-05-07T12:20:59Z</time>
      </trkpt>
      <trkpt lat="44.0658" lon="7.22745">
        <ele>1470</ele>
        <time>2018-05-07T12:21:59Z</time>
      </trkpt>
      <trkpt lat="44.06577" lon="7.22744">
        <ele>1471</ele>
        <time>2018-05-07T12:22:59Z</time>
      </trkpt>
      <trkpt lat="44.06565" lon="7.22738">
        <ele>1474</ele>
        <time>2018-05-07T12:23:59Z</time>
      </trkpt>
      <trkpt lat="44.06563" lon="7.22737">
        <ele>1475</ele>
        <time>2018-05-07T12:24:59Z</time>
      </trkpt>
      <trkpt lat="44.06556" lon="7.22727">
        <ele>1477</ele>
        <time>2018-05-07T12:25:59Z</time>
      </trkpt>
      <trkpt lat="44.06553" lon="7.22722">
        <ele>1477</ele>
        <time>2018-05-07T12:26:59Z</time>
      </trkpt>
      <trkpt lat="44.06547" lon="7.22705">
        <ele>1479</ele>
        <time>2018-05-07T12:27:59Z</time>
      </trkpt>
      <trkpt lat="44.06545" lon="7.22702">
        <ele>1479</ele>
        <time>2018-05-07T12:28:59Z</time>
      </trkpt>
      <trkpt lat="44.06531" lon="7.2268">
        <ele>1479</ele>
        <time>2018-05-07T12:29:59Z</time>
      </trkpt>
      <trkpt lat="44.06526" lon="7.22675">
        <ele>1479</ele>
        <time>2018-05-07T12:30:59Z</time>
      </trkpt>
      <trkpt lat="44.06507" lon="7.22645">
        <ele>1480</ele>
        <time>2018-05-07T12:31:59Z</time>
      </trkpt>
      <trkpt lat="44.06496" lon="7.22621">
        <ele>1483</ele>
        <time>2018-05-07T12:32:59Z</time>
      </trkpt>
      <trkpt lat="44.06491" lon="7.2261">
        <ele>1485</ele>
        <time>2018-05-07T12:33:59Z</time>
      </trkpt>
      <trkpt lat="44.06484" lon="7.22588">
        <ele>1489</ele>
        <time>2018-05-07T12:34:59Z</time>
      </trkpt>
      <trkpt lat="44.06482" lon="7.22585">
        <ele>1490</ele>
        <time>2018-05-07T12:35:59Z</time>
      </trkpt>
      <trkpt lat="44.06477" lon="7.22575">
        <ele>1492</ele>
        <time>2018-05-07T12:36:59Z</time>
      </trkpt>
      <trkpt lat="44.06474" lon="7.2257">
        <ele>1493</ele>
        <time>2018-05-07T12:37:59Z</time>
      </trkpt>
      <trkpt lat="44.06458" lon="7.22536">
        <ele>1501</ele>
        <time>2018-05-07T12:38:59Z</time>
      </trkpt>
      <trkpt lat="44.06455" lon="7.2253">
        <ele>1502</ele>
        <time>2018-05-07T12:39:59Z</time>
      </trkpt>
      <trkpt lat="44.06432" lon="7.22489">
        <ele>1507</ele>
        <time>2018-05-07T12:40:59Z</time>
      </trkpt>
      <trkpt lat="44.06427" lon="7.22479">
        <ele>1508</ele>
        <time>2018-05-07T12:41:59Z</time>
      </trkpt>
      <trkpt lat="44.06412" lon="7.22438">
        <ele>1512</ele>
        <time>2018-05-07T12:42:59Z</time>
      </trkpt>
      <trkpt lat="44.06409" lon="7.2243">
        <ele>1513</ele>
        <time>2018-05-07T12:43:59Z</time>
      </trkpt>
      <trkpt lat="44.06407" lon="7.22419">
        <ele>1515</ele>
        <time>2018-05-07T12:44:59Z</time>
      </trkpt>
      <trkpt lat="44.06402" lon="7.22395">
        <ele>1520</ele>
        <time>2018-05-07T12:45:59Z</time>
      </trkpt>
      <trkpt lat="44.06402" lon="7.22393">
        <ele>1521</ele>
        <time>2018-05-07T12:46:59Z</time>
      </trkpt>
      <trkpt lat="44.06396" lon="7.22353">
        <ele>1529</ele>
        <time>2018-05-07T12:47:59Z</time>
      </trkpt>
      <trkpt lat="44.06395" lon="7.22348">
        <ele>1530</ele>
        <time>2018-05-07T12:48:59Z</time>
      </trkpt>
      <trkpt lat="44.06387" lon="7.22315">
        <ele>1536</ele>
        <time>2018-05-07T12:49:59Z</time>
      </trkpt>
      <trkpt lat="44.06384" lon="7.22305">
        <ele>1538</ele>
        <time>2018-05-07T12:50:59Z</time>
      </trkpt>
      <trkpt lat="44.06382" lon="7.22295">
        <ele>1540</ele>
        <time>2018-05-07T12:51:59Z</time>
      </trkpt>
      <trkpt lat="44.0638" lon="7.22287">
        <ele>1541</ele>
        <time>2018-05-07T12:52:59Z</time>
      </trkpt>
      <trkpt lat="44.06364" lon="7.2222">
        <ele>1547</ele>
        <time>2018-05-07T12:53:59Z</time>
      </trkpt>
      <trkpt lat="44.06363" lon="7.22216">
        <ele>1548</ele>
        <time>2018-05-07T12:54:59Z</time>
      </trkpt>
      <trkpt lat="44.06351" lon="7.22166">
        <ele>1550</ele>
        <time>2018-05-07T12:55:59Z</time>
      </trkpt>
      <trkpt lat="44.06351" lon="7.22163">
        <ele>1551</ele>
        <time>2018-05-07T12:56:59Z</time>
      </trkpt>
      <trkpt lat="44.06347" lon="7.22139">
        <ele>1553</ele>
        <time>2018-05-07T12:57:59Z</time>
      </trkpt>
      <trkpt lat="44.06346" lon="7.22134">
        <ele>1553</ele>
        <time>2018-05-07T12:58:59Z</time>
      </trkpt>
      <trkpt lat="44.06344" lon="7.22114">
        <ele>1555</ele>
        <time>2018-05-07T12:59:59Z</time>
      </trkpt>
      <trkpt lat="44.06344" lon="7.2211">
        <ele>1556</ele>
        <time>2018-05-07T13:00:59Z</time>
      </trkpt>
      <trkpt lat="44.06344" lon="7.221">
        <ele>1557</ele>
        <time>2018-05-07T13:01:59Z</time>
      </trkpt>
      <trkpt lat="44.06344" lon="7.22096">
        <ele>1557</ele>
        <time>2018-05-07T13:02:59Z</time>
      </trkpt>
      <trkpt lat="44.06342" lon="7.22083">
        <ele>1559</ele>
        <time>2018-05-07T13:03:59Z</time>
      </trkpt>
      <trkpt lat="44.0634" lon="7.22079">
        <ele>1559</ele>
        <time>2018-05-07T13:04:59Z</time>
      </trkpt>
      <trkpt lat="44.0634" lon="7.22075">
        <ele>1560</ele>
        <time>2018-05-07T13:05:59Z</time>
      </trkpt>
      <trkpt lat="44.0634" lon="7.22072">
        <ele>1561</ele>
        <time>2018-05-07T13:06:59Z</time>
      </trkpt>
      <trkpt lat="44.06338" lon="7.22068">
        <ele>1562</ele>
        <time>2018-05-07T13:07:59Z</time>
      </trkpt>
      <trkpt lat="44.06337" lon="7.22066">
        <ele>1562</ele>
        <time>2018-05-07T13:08:59Z</time>
      </trkpt>
      <trkpt lat="44.06331" lon="7.22062">
        <ele>1563</ele>
        <time>2018-05-07T13:09:59Z</time>
      </trkpt>
      <trkpt lat="44.06329" lon="7.22062">
        <ele>1564</ele>
        <time>2018-05-07T13:10:59Z</time>
      </trkpt>
      <trkpt lat="44.06326" lon="7.22063">
        <ele>1564</ele>
        <time>2018-05-07T13:11:59Z</time>
      </trkpt>
      <trkpt lat="44.06322" lon="7.2207">
        <ele>1564</ele>
        <time>2018-05-07T13:12:59Z</time>
      </trkpt>
      <trkpt lat="44.06321" lon="7.22071">
        <ele>1564</ele>
        <time>2018-05-07T13:13:59Z</time>
      </trkpt>
      <trkpt lat="44.06318" lon="7.22077">
        <ele>1563</ele>
        <time>2018-05-07T13:14:59Z</time>
      </trkpt>
      <trkpt lat="44.06314" lon="7.22083">
        <ele>1563</ele>
        <time>2018-05-07T13:15:59Z</time>
      </trkpt>
      <trkpt lat="44.06306" lon="7.22096">
        <ele>1564</ele>
        <time>2018-05-07T13:16:59Z</time>
      </trkpt>
      <trkpt lat="44.063" lon="7.22103">
        <ele>1565</ele>
        <time>2018-05-07T13:17:59Z</time>
      </trkpt>
      <trkpt lat="44.06293" lon="7.22114">
        <ele>1566</ele>
        <time>2018-05-07T13:18:59Z</time>
      </trkpt>
      <trkpt lat="44.06292" lon="7.22117">
        <ele>1566</ele>
        <time>2018-05-07T13:19:59Z</time>
      </trkpt>
      <trkpt lat="44.06282" lon="7.2213">
        <ele>1568</ele>
        <time>2018-05-07T13:20:59Z</time>
      </trkpt>
      <trkpt lat="44.06279" lon="7.22135">
        <ele>1569</ele>
        <time>2018-05-07T13:21:59Z</time>
      </trkpt>
      <trkpt lat="44.06271" lon="7.22146">
        <ele>1571</ele>
        <time>2018-05-07T13:22:59Z</time>
      </trkpt>
      <trkpt lat="44.06267" lon="7.22153">
        <ele>1572</ele>
        <time>2018-05-07T13:23:59Z</time>
      </trkpt>
      <trkpt lat="44.06257" lon="7.22172">
        <ele>1574</ele>
        <time>2018-05-07T13:24:59Z</time>
      </trkpt>
      <trkpt lat="44.06253" lon="7.22179">
        <ele>1576</ele>
        <time>2018-05-07T13:25:59Z</time>
      </trkpt>
      <trkpt lat="44.0624" lon="7.22199">
        <ele>1580</ele>
        <time>2018-05-07T13:26:59Z</time>
      </trkpt>
      <trkpt lat="44.06236" lon="7.22205">
        <ele>1581</ele>
        <time>2018-05-07T13:27:59Z</time>
      </trkpt>
      <trkpt lat="44.06231" lon="7.22216">
        <ele>1582</ele>
        <time>2018-05-07T13:28:59Z</time>
      </trkpt>
      <trkpt lat="44.06226" lon="7.22223">
        <ele>1583</ele>
        <time>2018-05-07T13:29:59Z</time>
      </trkpt>
      <trkpt lat="44.06211" lon="7.22239">
        <ele>1586</ele>
        <time>2018-05-07T13:30:59Z</time>
      </trkpt>
      <trkpt lat="44.06206" lon="7.22244">
        <ele>1587</ele>
        <time>2018-05-07T13:31:59Z</time>
      </trkpt>
      <trkpt lat="44.06195" lon="7.22254">
        <ele>1589</ele>
        <time>2018-05-07T13:32:59Z</time>
      </trkpt>
      <trkpt lat="44.06191" lon="7.22257">
        <ele>1590</ele>
        <time>2018-05-07T13:33:59Z</time>
      </trkpt>
      <trkpt lat="44.06182" lon="7.22263">
        <ele>1591</ele>
        <time>2018-05-07T13:34:59Z</time>
      </trkpt>
      <trkpt lat="44.06174" lon="7.22267">
        <ele>1592</ele>
        <time>2018-05-07T13:35:59Z</time>
      </trkpt>
      <trkpt lat="44.06151" lon="7.22274">
        <ele>1597</ele>
        <time>2018-05-07T13:36:59Z</time>
      </trkpt>
      <trkpt lat="44.06136" lon="7.22279">
        <ele>1601</ele>
        <time>2018-05-07T13:37:59Z</time>
      </trkpt>
      <trkpt lat="44.06133" lon="7.22281">
        <ele>1601</ele>
        <time>2018-05-07T13:38:59Z</time>
      </trkpt>
      <trkpt lat="44.06126" lon="7.22285">
        <ele>1602</ele>
        <time>2018-05-07T13:39:59Z</time>
      </trkpt>
      <trkpt lat="44.06118" lon="7.22291">
        <ele>1603</ele>
        <time>2018-05-07T13:40:59Z</time>
      </trkpt>
      <trkpt lat="44.06111" lon="7.22298">
        <ele>1604</ele>
        <time>2018-05-07T13:41:59Z</time>
      </trkpt>
      <trkpt lat="44.06104" lon="7.22305">
        <ele>1604</ele>
        <time>2018-05-07T13:42:59Z</time>
      </trkpt>
      <trkpt lat="44.06094" lon="7.22319">
        <ele>1604</ele>
        <time>2018-05-07T13:43:59Z</time>
      </trkpt>
      <trkpt lat="44.06092" lon="7.22323">
        <ele>1604</ele>
        <time>2018-05-07T13:44:59Z</time>
      </trkpt>
      <trkpt lat="44.06089" lon="7.22331">
        <ele>1603</ele>
        <time>2018-05-07T13:45:59Z</time>
      </trkpt>
      <trkpt lat="44.06085" lon="7.22346">
        <ele>1603</ele>
        <time>2018-05-07T13:46:59Z</time>
      </trkpt>
      <trkpt lat="44.06079" lon="7.22375">
        <ele>1605</ele>
        <time>2018-05-07T13:47:59Z</time>
      </trkpt>
      <trkpt lat="44.06077" lon="7.22387">
        <ele>1606</ele>
        <time>2018-05-07T13:48:59Z</time>
      </trkpt>
      <trkpt lat="44.06058" lon="7.2247">
        <ele>1613</ele>
        <time>2018-05-07T13:49:59Z</time>
      </trkpt>
      <trkpt lat="44.06057" lon="7.22473">
        <ele>1614</ele>
        <time>2018-05-07T13:50:59Z</time>
      </trkpt>
      <trkpt lat="44.06053" lon="7.22504">
        <ele>1615</ele>
        <time>2018-05-07T13:51:59Z</time>
      </trkpt>
      <trkpt lat="44.0605" lon="7.22528">
        <ele>1617</ele>
        <time>2018-05-07T13:52:59Z</time>
      </trkpt>
      <trkpt lat="44.06048" lon="7.22569">
        <ele>1620</ele>
        <time>2018-05-07T13:53:59Z</time>
      </trkpt>
      <trkpt lat="44.06048" lon="7.22587">
        <ele>1621</ele>
        <time>2018-05-07T13:54:59Z</time>
      </trkpt>
      <trkpt lat="44.06046" lon="7.22614">
        <ele>1625</ele>
        <time>2018-05-07T13:55:59Z</time>
      </trkpt>
      <trkpt lat="44.06046" lon="7.22624">
        <ele>1626</ele>
        <time>2018-05-07T13:56:59Z</time>
      </trkpt>
      <trkpt lat="44.06048" lon="7.22689">
        <ele>1632</ele>
        <time>2018-05-07T13:57:59Z</time>
      </trkpt>
      <trkpt lat="44.06048" lon="7.22691">
        <ele>1632</ele>
        <time>2018-05-07T13:58:59Z</time>
      </trkpt>
      <trkpt lat="44.06049" lon="7.22739">
        <ele>1636</ele>
        <time>2018-05-07T13:59:59Z</time>
      </trkpt>
      <trkpt lat="44.06049" lon="7.22751">
        <ele>1636</ele>
        <time>2018-05-07T14:00:59Z</time>
      </trkpt>
      <trkpt lat="44.06051" lon="7.22801">
        <ele>1638</ele>
        <time>2018-05-07T14:01:59Z</time>
      </trkpt>
      <trkpt lat="44.0605" lon="7.22802">
        <ele>1638</ele>
        <time>2018-05-07T14:02:59Z</time>
      </trkpt>
      <trkpt lat="44.06046" lon="7.22806">
        <ele>1639</ele>
        <time>2018-05-07T14:03:59Z</time>
      </trkpt>
      <trkpt lat="44.06045" lon="7.22806">
        <ele>1639</ele>
        <time>2018-05-07T14:04:59Z</time>
      </trkpt>
      <trkpt lat="44.06042" lon="7.22802">
        <ele>1639</ele>
        <time>2018-05-07T14:05:59Z</time>
      </trkpt>
      <trkpt lat="44.06038" lon="7.22799">
        <ele>1639</ele>
        <time>2018-05-07T14:06:59Z</time>
      </trkpt>
      <trkpt lat="44.06036" lon="7.22797">
        <ele>1639</ele>
        <time>2018-05-07T14:07:59Z</time>
      </trkpt>
      <trkpt lat="44.06027" lon="7.22788">
        <ele>1640</ele>
        <time>2018-05-07T14:08:59Z</time>
      </trkpt>
      <trkpt lat="44.06026" lon="7.22787">
        <ele>1640</ele>
        <time>2018-05-07T14:09:59Z</time>
      </trkpt>
      <trkpt lat="44.06014" lon="7.22771">
        <ele>1643</ele>
        <time>2018-05-07T14:10:59Z</time>
      </trkpt>
      <trkpt lat="44.06011" lon="7.22767">
        <ele>1643</ele>
        <time>2018-05-07T14:11:59Z</time>
      </trkpt>
      <trkpt lat="44.06007" lon="7.22762">
        <ele>1644</ele>
        <time>2018-05-07T14:12:59Z</time>
      </trkpt>
      <trkpt lat="44.05992" lon="7.22729">
        <ele>1647</ele>
        <time>2018-05-07T14:13:59Z</time>
      </trkpt>
      <trkpt lat="44.0599" lon="7.22724">
        <ele>1647</ele>
        <time>2018-05-07T14:14:59Z</time>
      </trkpt>
      <trkpt lat="44.05975" lon="7.22696">
        <ele>1650</ele>
        <time>2018-05-07T14:15:59Z</time>
      </trkpt>
      <trkpt lat="44.05974" lon="7.22694">
        <ele>1650</ele>
        <time>2018-05-07T14:16:59Z</time>
      </trkpt>
      <trkpt lat="44.05964" lon="7.22679">
        <ele>1652</ele>
        <time>2018-05-07T14:17:59Z</time>
      </trkpt>
      <trkpt lat="44.05959" lon="7.22671">
        <ele>1654</ele>
        <time>2018-05-07T14:18:59Z</time>
      </trkpt>
      <trkpt lat="44.05951" lon="7.22663">
        <ele>1656</ele>
        <time>2018-05-07T14:19:59Z</time>
      </trkpt>
      <trkpt lat="44.05947" lon="7.22661">
        <ele>1657</ele>
        <time>2018-05-07T14:20:59Z</time>
      </trkpt>
      <trkpt lat="44.05909" lon="7.22639">
        <ele>1662</ele>
        <time>2018-05-07T14:21:59Z</time>
      </trkpt>
      <trkpt lat="44.05904" lon="7.22633">
        <ele>1661</ele>
        <time>2018-05-07T14:22:59Z</time>
      </trkpt>
      <trkpt lat="44.05897" lon="7.22619">
        <ele>1661</ele>
        <time>2018-05-07T14:23:59Z</time>
      </trkpt>
      <trkpt lat="44.05888" lon="7.22599">
        <ele>1663</ele>
        <time>2018-05-07T14:24:59Z</time>
      </trkpt>
      <trkpt lat="44.05877" lon="7.22571">
        <ele>1666</ele>
        <time>2018-05-07T14:25:59Z</time>
      </trkpt>
      <trkpt lat="44.05873" lon="7.22561">
        <ele>1668</ele>
        <time>2018-05-07T14:26:59Z</time>
      </trkpt>
      <trkpt lat="44.05856" lon="7.22521">
        <ele>1676</ele>
        <time>2018-05-07T14:27:59Z</time>
      </trkpt>
      <trkpt lat="44.0585" lon="7.2251">
        <ele>1679</ele>
        <time>2018-05-07T14:28:59Z</time>
      </trkpt>
      <trkpt lat="44.05844" lon="7.22497">
        <ele>1682</ele>
        <time>2018-05-07T14:29:59Z</time>
      </trkpt>
      <trkpt lat="44.05841" lon="7.22489">
        <ele>1683</ele>
        <time>2018-05-07T14:30:59Z</time>
      </trkpt>
      <trkpt lat="44.05839" lon="7.22481">
        <ele>1685</ele>
        <time>2018-05-07T14:31:59Z</time>
      </trkpt>
      <trkpt lat="44.05837" lon="7.22462">
        <ele>1687</ele>
        <time>2018-05-07T14:32:59Z</time>
      </trkpt>
      <trkpt lat="44.05837" lon="7.22459">
        <ele>1688</ele>
        <time>2018-05-07T14:33:59Z</time>
      </trkpt>
      <trkpt lat="44.05837" lon="7.2243">
        <ele>1691</ele>
        <time>2018-05-07T14:34:59Z</time>
      </trkpt>
      <trkpt lat="44.05837" lon="7.22421">
        <ele>1692</ele>
        <time>2018-05-07T14:35:59Z</time>
      </trkpt>
      <trkpt lat="44.05839" lon="7.22413">
        <ele>1692</ele>
        <time>2018-05-07T14:36:59Z</time>
      </trkpt>
      <trkpt lat="44.05841" lon="7.22401">
        <ele>1694</ele>
        <time>2018-05-07T14:37:59Z</time>
      </trkpt>
      <trkpt lat="44.05842" lon="7.22398">
        <ele>1694</ele>
        <time>2018-05-07T14:38:59Z</time>
      </trkpt>
      <trkpt lat="44.05841" lon="7.2239">
        <ele>1696</ele>
        <time>2018-05-07T14:39:59Z</time>
      </trkpt>
      <trkpt lat="44.05844" lon="7.22374">
        <ele>1698</ele>
        <time>2018-05-07T14:40:59Z</time>
      </trkpt>
      <trkpt lat="44.05847" lon="7.22361">
        <ele>1699</ele>
        <time>2018-05-07T14:41:59Z</time>
      </trkpt>
      <trkpt lat="44.0585" lon="7.2233">
        <ele>1703</ele>
        <time>2018-05-07T14:42:59Z</time>
      </trkpt>
      <trkpt lat="44.0585" lon="7.22325">
        <ele>1704</ele>
        <time>2018-05-07T14:43:59Z</time>
      </trkpt>
      <trkpt lat="44.05852" lon="7.2232">
        <ele>1703</ele>
        <time>2018-05-07T14:44:59Z</time>
      </trkpt>
      <trkpt lat="44.05852" lon="7.22318">
        <ele>1704</ele>
        <time>2018-05-07T14:45:59Z</time>
      </trkpt>
      <trkpt lat="44.05855" lon="7.22291">
        <ele>1706</ele>
        <time>2018-05-07T14:46:59Z</time>
      </trkpt>
      <trkpt lat="44.05855" lon="7.22284">
        <ele>1707</ele>
        <time>2018-05-07T14:47:59Z</time>
      </trkpt>
      <trkpt lat="44.05857" lon="7.22274">
        <ele>1707</ele>
        <time>2018-05-07T14:48:59Z</time>
      </trkpt>
      <trkpt lat="44.05858" lon="7.22265">
        <ele>1708</ele>
        <time>2018-05-07T14:49:59Z</time>
      </trkpt>
      <trkpt lat="44.05861" lon="7.22231">
        <ele>1712</ele>
        <time>2018-05-07T14:50:59Z</time>
      </trkpt>
      <trkpt lat="44.05862" lon="7.22217">
        <ele>1714</ele>
        <time>2018-05-07T14:51:59Z</time>
      </trkpt>
      <trkpt lat="44.05864" lon="7.22204">
        <ele>1716</ele>
        <time>2018-05-07T14:52:59Z</time>
      </trkpt>
      <trkpt lat="44.05865" lon="7.22197">
        <ele>1717</ele>
        <time>2018-05-07T14:53:59Z</time>
      </trkpt>
      <trkpt lat="44.05864" lon="7.22189">
        <ele>1719</ele>
        <time>2018-05-07T14:54:59Z</time>
      </trkpt>
      <trkpt lat="44.05865" lon="7.22181">
        <ele>1720</ele>
        <time>2018-05-07T14:55:59Z</time>
      </trkpt>
      <trkpt lat="44.05869" lon="7.22172">
        <ele>1720</ele>
        <time>2018-05-07T14:56:59Z</time>
      </trkpt>
      <trkpt lat="44.05873" lon="7.22152">
        <ele>1723</ele>
        <time>2018-05-07T14:57:59Z</time>
      </trkpt>
      <trkpt lat="44.05876" lon="7.22143">
        <ele>1724</ele>
        <time>2018-05-07T14:58:59Z</time>
      </trkpt>
      <trkpt lat="44.05893" lon="7.22097">
        <ele>1729</ele>
        <time>2018-05-07T14:59:59Z</time>
      </trkpt>
      <trkpt lat="44.05896" lon="7.22087">
        <ele>1730</ele>
        <time>2018-05-07T15:00:59Z</time>
      </trkpt>
      <trkpt lat="44.05898" lon="7.22078">
        <ele>1731</ele>
        <time>2018-05-07T15:01:59Z</time>
      </trkpt>
      <trkpt lat="44.05897" lon="7.22074">
        <ele>1732</ele>
        <time>2018-05-07T15:02:59Z</time>
      </trkpt>
      <trkpt lat="44.05896" lon="7.22072">
        <ele>1732</ele>
        <time>2018-05-07T15:03:59Z</time>
      </trkpt>
      <trkpt lat="44.05895" lon="7.22071">
        <ele>1733</ele>
        <time>2018-05-07T15:04:59Z</time>
      </trkpt>
      <trkpt lat="44.0589" lon="7.2207">
        <ele>1734</ele>
        <time>2018-05-07T15:05:59Z</time>
      </trkpt>
      <trkpt lat="44.05889" lon="7.22071">
        <ele>1734</ele>
        <time>2018-05-07T15:06:59Z</time>
      </trkpt>
      <trkpt lat="44.0588" lon="7.2208">
        <ele>1735</ele>
        <time>2018-05-07T15:07:59Z</time>
      </trkpt>
      <trkpt lat="44.05873" lon="7.22092">
        <ele>1734</ele>
        <time>2018-05-07T15:08:59Z</time>
      </trkpt>
      <trkpt lat="44.05856" lon="7.22107">
        <ele>1735</ele>
        <time>2018-05-07T15:09:59Z</time>
      </trkpt>
      <trkpt lat="44.05853" lon="7.2211">
        <ele>1735</ele>
        <time>2018-05-07T15:10:59Z</time>
      </trkpt>
      <trkpt lat="44.0581" lon="7.22144">
        <ele>1737</ele>
        <time>2018-05-07T15:11:59Z</time>
      </trkpt>
      <trkpt lat="44.05809" lon="7.22145">
        <ele>1737</ele>
        <time>2018-05-07T15:12:59Z</time>
      </trkpt>
      <trkpt lat="44.05798" lon="7.22155">
        <ele>1737</ele>
        <time>2018-05-07T15:13:59Z</time>
      </trkpt>
      <trkpt lat="44.05792" lon="7.22163">
        <ele>1737</ele>
        <time>2018-05-07T15:14:59Z</time>
      </trkpt>
      <trkpt lat="44.05788" lon="7.22166">
        <ele>1738</ele>
        <time>2018-05-07T15:15:59Z</time>
      </trkpt>
      <trkpt lat="44.05783" lon="7.22168">
        <ele>1738</ele>
        <time>2018-05-07T15:16:59Z</time>
      </trkpt>
      <trkpt lat="44.05779" lon="7.22168">
        <ele>1739</ele>
        <time>2018-05-07T15:17:59Z</time>
      </trkpt>
      <trkpt lat="44.05774" lon="7.22163">
        <ele>1740</ele>
        <time>2018-05-07T15:18:59Z</time>
      </trkpt>
      <trkpt lat="44.05772" lon="7.22159">
        <ele>1741</ele>
        <time>2018-05-07T15:19:59Z</time>
      </trkpt>
      <trkpt lat="44.05771" lon="7.22152">
        <ele>1741</ele>
        <time>2018-05-07T15:20:59Z</time>
      </trkpt>
      <trkpt lat="44.05771" lon="7.22122">
        <ele>1744</ele>
        <time>2018-05-07T15:21:59Z</time>
      </trkpt>
      <trkpt lat="44.05771" lon="7.22115">
        <ele>1744</ele>
        <time>2018-05-07T15:22:59Z</time>
      </trkpt>
      <trkpt lat="44.05776" lon="7.2209">
        <ele>1746</ele>
        <time>2018-05-07T15:23:59Z</time>
      </trkpt>
      <trkpt lat="44.05777" lon="7.22089">
        <ele>1746</ele>
        <time>2018-05-07T15:24:59Z</time>
      </trkpt>
      <trkpt lat="44.0579" lon="7.22048">
        <ele>1749</ele>
        <time>2018-05-07T15:25:59Z</time>
      </trkpt>
      <trkpt lat="44.05792" lon="7.22044">
        <ele>1750</ele>
        <time>2018-05-07T15:26:59Z</time>
      </trkpt>
      <trkpt lat="44.05794" lon="7.22033">
        <ele>1751</ele>
        <time>2018-05-07T15:27:59Z</time>
      </trkpt>
      <trkpt lat="44.05795" lon="7.22017">
        <ele>1753</ele>
        <time>2018-05-07T15:28:59Z</time>
      </trkpt>
      <trkpt lat="44.05795" lon="7.22005">
        <ele>1754</ele>
        <time>2018-05-07T15:29:59Z</time>
      </trkpt>
      <trkpt lat="44.05792" lon="7.21957">
        <ele>1756</ele>
        <time>2018-05-07T15:30:59Z</time>
      </trkpt>
      <trkpt lat="44.05787" lon="7.21912">
        <ele>1757</ele>
        <time>2018-05-07T15:31:59Z</time>
      </trkpt>
      <trkpt lat="44.0578" lon="7.2188">
        <ele>1759</ele>
        <time>2018-05-07T15:32:59Z</time>
      </trkpt>
      <trkpt lat="44.05777" lon="7.21869">
        <ele>1760</ele>
        <time>2018-05-07T15:33:59Z</time>
      </trkpt>
      <trkpt lat="44.05768" lon="7.21849">
        <ele>1759</ele>
        <time>2018-05-07T15:34:59Z</time>
      </trkpt>
      <trkpt lat="44.05763" lon="7.2184">
        <ele>1759</ele>
        <time>2018-05-07T15:35:59Z</time>
      </trkpt>
      <trkpt lat="44.05752" lon="7.21821">
        <ele>1757</ele>
        <time>2018-05-07T15:36:59Z</time>
      </trkpt>
      <trkpt lat="44.05746" lon="7.21813">
        <ele>1755</ele>
        <time>2018-05-07T15:37:59Z</time>
      </trkpt>
      <trkpt lat="44.05727" lon="7.21775">
        <ele>1752</ele>
        <time>2018-05-07T15:38:59Z</time>
      </trkpt>
      <trkpt lat="44.05722" lon="7.21766">
        <ele>1751</ele>
        <time>2018-05-07T15:39:59Z</time>
      </trkpt>
      <trkpt lat="44.05715" lon="7.21758">
        <ele>1750</ele>
        <time>2018-05-07T15:40:59Z</time>
      </trkpt>
      <trkpt lat="44.05708" lon="7.2175">
        <ele>1749</ele>
        <time>2018-05-07T15:41:59Z</time>
      </trkpt>
      <trkpt lat="44.05692" lon="7.21736">
        <ele>1745</ele>
        <time>2018-05-07T15:42:59Z</time>
      </trkpt>
      <trkpt lat="44.05684" lon="7.21729">
        <ele>1743</ele>
        <time>2018-05-07T15:43:59Z</time>
      </trkpt>
      <trkpt lat="44.05677" lon="7.21722">
        <ele>1741</ele>
        <time>2018-05-07T15:44:59Z</time>
      </trkpt>
      <trkpt lat="44.05671" lon="7.21713">
        <ele>1740</ele>
        <time>2018-05-07T15:45:59Z</time>
      </trkpt>
      <trkpt lat="44.05661" lon="7.21692">
        <ele>1739</ele>
        <time>2018-05-07T15:46:59Z</time>
      </trkpt>
      <trkpt lat="44.05657" lon="7.2168">
        <ele>1739</ele>
        <time>2018-05-07T15:47:59Z</time>
      </trkpt>
      <trkpt lat="44.05652" lon="7.21668">
        <ele>1739</ele>
        <time>2018-05-07T15:48:59Z</time>
      </trkpt>
      <trkpt lat="44.0564" lon="7.21649">
        <ele>1737</ele>
        <time>2018-05-07T15:49:59Z</time>
      </trkpt>
      <trkpt lat="44.05626" lon="7.21633">
        <ele>1736</ele>
        <time>2018-05-07T15:50:59Z</time>
      </trkpt>
      <trkpt lat="44.05611" lon="7.21625">
        <ele>1737</ele>
        <time>2018-05-07T15:51:59Z</time>
      </trkpt>
      <trkpt lat="44.056" lon="7.21624">
        <ele>1737</ele>
        <time>2018-05-07T15:52:59Z</time>
      </trkpt>
      <trkpt lat="44.05595" lon="7.21622">
        <ele>1737</ele>
        <time>2018-05-07T15:53:59Z</time>
      </trkpt>
      <trkpt lat="44.05585" lon="7.21615">
        <ele>1739</ele>
        <time>2018-05-07T15:54:59Z</time>
      </trkpt>
      <trkpt lat="44.05579" lon="7.21613">
        <ele>1739</ele>
        <time>2018-05-07T15:55:59Z</time>
      </trkpt>
      <trkpt lat="44.05544" lon="7.2161">
        <ele>1736</ele>
        <time>2018-05-07T15:56:59Z</time>
      </trkpt>
      <trkpt lat="44.0551" lon="7.21606">
        <ele>1735</ele>
        <time>2018-05-07T15:57:59Z</time>
      </trkpt>
      <trkpt lat="44.05496" lon="7.21605">
        <ele>1733</ele>
        <time>2018-05-07T15:58:59Z</time>
      </trkpt>
      <trkpt lat="44.0549" lon="7.21605">
        <ele>1733</ele>
        <time>2018-05-07T15:59:59Z</time>
      </trkpt>
      <trkpt lat="44.0544" lon="7.216">
        <ele>1726</ele>
        <time>2018-05-07T16:00:59Z</time>
      </trkpt>
      <trkpt lat="44.05415" lon="7.21597">
        <ele>1723</ele>
        <time>2018-05-07T16:01:59Z</time>
      </trkpt>
      <trkpt lat="44.05409" lon="7.21594">
        <ele>1723</ele>
        <time>2018-05-07T16:02:59Z</time>
      </trkpt>
      <trkpt lat="44.05394" lon="7.21585">
        <ele>1720</ele>
        <time>2018-05-07T16:03:59Z</time>
      </trkpt>
      <trkpt lat="44.05387" lon="7.21578">
        <ele>1720</ele>
        <time>2018-05-07T16:04:59Z</time>
      </trkpt>
      <trkpt lat="44.05383" lon="7.21574">
        <ele>1719</ele>
        <time>2018-05-07T16:05:59Z</time>
      </trkpt>
      <trkpt lat="44.05374" lon="7.21569">
        <ele>1717</ele>
        <time>2018-05-07T16:06:59Z</time>
      </trkpt>
      <trkpt lat="44.0537" lon="7.21567">
        <ele>1716</ele>
        <time>2018-05-07T16:07:59Z</time>
      </trkpt>
      <trkpt lat="44.05359" lon="7.21558">
        <ele>1714</ele>
        <time>2018-05-07T16:08:59Z</time>
      </trkpt>
      <trkpt lat="44.05355" lon="7.21553">
        <ele>1713</ele>
        <time>2018-05-07T16:09:59Z</time>
      </trkpt>
      <trkpt lat="44.05336" lon="7.21513">
        <ele>1710</ele>
        <time>2018-05-07T16:10:59Z</time>
      </trkpt>
      <trkpt lat="44.05334" lon="7.21509">
        <ele>1710</ele>
        <time>2018-05-07T16:11:59Z</time>
      </trkpt>
      <trkpt lat="44.0532" lon="7.21474">
        <ele>1706</ele>
        <time>2018-05-07T16:12:59Z</time>
      </trkpt>
      <trkpt lat="44.05314" lon="7.21461">
        <ele>1705</ele>
        <time>2018-05-07T16:13:59Z</time>
      </trkpt>
      <trkpt lat="44.05314" lon="7.21456">
        <ele>1705</ele>
        <time>2018-05-07T16:14:59Z</time>
      </trkpt>
      <trkpt lat="44.05313" lon="7.21447">
        <ele>1706</ele>
        <time>2018-05-07T16:15:59Z</time>
      </trkpt>
      <trkpt lat="44.05314" lon="7.21441">
        <ele>1706</ele>
        <time>2018-05-07T16:16:59Z</time>
      </trkpt>
      <trkpt lat="44.05316" lon="7.21432">
        <ele>1708</ele>
        <time>2018-05-07T16:17:59Z</time>
      </trkpt>
      <trkpt lat="44.05315" lon="7.2142">
        <ele>1708</ele>
        <time>2018-05-07T16:18:59Z</time>
      </trkpt>
      <trkpt lat="44.05309" lon="7.21404">
        <ele>1708</ele>
        <time>2018-05-07T16:19:59Z</time>
      </trkpt>
      <trkpt lat="44.05306" lon="7.21383">
        <ele>1709</ele>
        <time>2018-05-07T16:20:59Z</time>
      </trkpt>
      <trkpt lat="44.05304" lon="7.21367">
        <ele>1709</ele>
        <time>2018-05-07T16:21:59Z</time>
      </trkpt>
      <trkpt lat="44.05301" lon="7.21352">
        <ele>1710</ele>
        <time>2018-05-07T16:22:59Z</time>
      </trkpt>
      <trkpt lat="44.05301" lon="7.2135">
        <ele>1710</ele>
        <time>2018-05-07T16:23:59Z</time>
      </trkpt>
      <trkpt lat="44.05299" lon="7.21332">
        <ele>1711</ele>
        <time>2018-05-07T16:24:59Z</time>
      </trkpt>
      <trkpt lat="44.05296" lon="7.21315">
        <ele>1711</ele>
        <time>2018-05-07T16:25:59Z</time>
      </trkpt>
      <trkpt lat="44.05295" lon="7.21311">
        <ele>1711</ele>
        <time>2018-05-07T16:26:59Z</time>
      </trkpt>
      <trkpt lat="44.05289" lon="7.21293">
        <ele>1711</ele>
        <time>2018-05-07T16:27:59Z</time>
      </trkpt>
      <trkpt lat="44.0528" lon="7.21279">
        <ele>1710</ele>
        <time>2018-05-07T16:28:59Z</time>
      </trkpt>
      <trkpt lat="44.05279" lon="7.21275">
        <ele>1710</ele>
        <time>2018-05-07T16:29:59Z</time>
      </trkpt>
      <trkpt lat="44.05273" lon="7.21267">
        <ele>1710</ele>
        <time>2018-05-07T16:30:59Z</time>
      </trkpt>
      <trkpt lat="44.05264" lon="7.21251">
        <ele>1712</ele>
        <time>2018-05-07T16:31:59Z</time>
      </trkpt>
      <trkpt lat="44.05245" lon="7.21224">
        <ele>1708</ele>
        <time>2018-05-07T16:32:59Z</time>
      </trkpt>
      <trkpt lat="44.05235" lon="7.21212">
        <ele>1707</ele>
        <time>2018-05-07T16:33:59Z</time>
      </trkpt>
      <trkpt lat="44.05224" lon="7.21202">
        <ele>1707</ele>
        <time>2018-05-07T16:34:59Z</time>
      </trkpt>
      <trkpt lat="44.05222" lon="7.212">
        <ele>1707</ele>
        <time>2018-05-07T16:35:59Z</time>
      </trkpt>
      <trkpt lat="44.05212" lon="7.21184">
        <ele>1709</ele>
        <time>2018-05-07T16:36:59Z</time>
      </trkpt>
      <trkpt lat="44.05209" lon="7.21178">
        <ele>1710</ele>
        <time>2018-05-07T16:37:59Z</time>
      </trkpt>
      <trkpt lat="44.05207" lon="7.2116">
        <ele>1711</ele>
        <time>2018-05-07T16:38:59Z</time>
      </trkpt>
      <trkpt lat="44.05202" lon="7.21132">
        <ele>1713</ele>
        <time>2018-05-07T16:39:59Z</time>
      </trkpt>
      <trkpt lat="44.05194" lon="7.21109">
        <ele>1717</ele>
        <time>2018-05-07T16:40:59Z</time>
      </trkpt>
      <trkpt lat="44.05193" lon="7.21104">
        <ele>1718</ele>
        <time>2018-05-07T16:41:59Z</time>
      </trkpt>
      <trkpt lat="44.05183" lon="7.21084">
        <ele>1723</ele>
        <time>2018-05-07T16:42:59Z</time>
      </trkpt>
      <trkpt lat="44.05179" lon="7.21072">
        <ele>1726</ele>
        <time>2018-05-07T16:43:59Z</time>
      </trkpt>
      <trkpt lat="44.05179" lon="7.21069">
        <ele>1726</ele>
        <time>2018-05-07T16:44:59Z</time>
      </trkpt>
      <trkpt lat="44.05181" lon="7.21061">
        <ele>1726</ele>
        <time>2018-05-07T16:45:59Z</time>
      </trkpt>
      <trkpt lat="44.05184" lon="7.21052">
        <ele>1725</ele>
        <time>2018-05-07T16:46:59Z</time>
      </trkpt>
      <trkpt lat="44.05186" lon="7.21046">
        <ele>1724</ele>
        <time>2018-05-07T16:47:59Z</time>
      </trkpt>
      <trkpt lat="44.05195" lon="7.21035">
        <ele>1720</ele>
        <time>2018-05-07T16:48:59Z</time>
      </trkpt>
      <trkpt lat="44.05199" lon="7.21032">
        <ele>1718</ele>
        <time>2018-05-07T16:49:59Z</time>
      </trkpt>
      <trkpt lat="44.05207" lon="7.21028">
        <ele>1714</ele>
        <time>2018-05-07T16:50:59Z</time>
      </trkpt>
      <trkpt lat="44.05217" lon="7.2102">
        <ele>1709</ele>
        <time>2018-05-07T16:51:59Z</time>
      </trkpt>
      <trkpt lat="44.05218" lon="7.21016">
        <ele>1708</ele>
        <time>2018-05-07T16:52:59Z</time>
      </trkpt>
      <trkpt lat="44.05218" lon="7.21003">
        <ele>1709</ele>
        <time>2018-05-07T16:53:59Z</time>
      </trkpt>
      <trkpt lat="44.05214" lon="7.20981">
        <ele>1713</ele>
        <time>2018-05-07T16:54:59Z</time>
      </trkpt>
      <trkpt lat="44.05209" lon="7.20961">
        <ele>1718</ele>
        <time>2018-05-07T16:55:59Z</time>
      </trkpt>
      <trkpt lat="44.05203" lon="7.20947">
        <ele>1723</ele>
        <time>2018-05-07T16:56:59Z</time>
      </trkpt>
      <trkpt lat="44.05207" lon="7.20932">
        <ele>1722</ele>
        <time>2018-05-07T16:57:59Z</time>
      </trkpt>
      <trkpt lat="44.05216" lon="7.2091">
        <ele>1720</ele>
        <time>2018-05-07T16:58:59Z</time>
      </trkpt>
      <trkpt lat="44.05222" lon="7.20906">
        <ele>1717</ele>
        <time>2018-05-07T16:59:59Z</time>
      </trkpt>
      <trkpt lat="44.05226" lon="7.20906">
        <ele>1715</ele>
        <time>2018-05-07T17:00:59Z</time>
      </trkpt>
      <trkpt lat="44.0524" lon="7.20903">
        <ele>1708</ele>
        <time>2018-05-07T17:01:59Z</time>
      </trkpt>
      <trkpt lat="44.05248" lon="7.20891">
        <ele>1706</ele>
        <time>2018-05-07T17:02:59Z</time>
      </trkpt>
      <trkpt lat="44.05254" lon="7.20886">
        <ele>1703</ele>
        <time>2018-05-07T17:03:59Z</time>
      </trkpt>
      <trkpt lat="44.05257" lon="7.20886">
        <ele>1702</ele>
        <time>2018-05-07T17:04:59Z</time>
      </trkpt>
      <trkpt lat="44.05267" lon="7.20883">
        <ele>1697</ele>
        <time>2018-05-07T17:05:59Z</time>
      </trkpt>
      <trkpt lat="44.05273" lon="7.20883">
        <ele>1693</ele>
        <time>2018-05-07T17:06:59Z</time>
      </trkpt>
      <trkpt lat="44.05278" lon="7.2088">
        <ele>1691</ele>
        <time>2018-05-07T17:07:59Z</time>
      </trkpt>
      <trkpt lat="44.05283" lon="7.20873">
        <ele>1689</ele>
        <time>2018-05-07T17:08:59Z</time>
      </trkpt>
      <trkpt lat="44.05285" lon="7.20868">
        <ele>1689</ele>
        <time>2018-05-07T17:09:59Z</time>
      </trkpt>
      <trkpt lat="44.05288" lon="7.20858">
        <ele>1689</ele>
        <time>2018-05-07T17:10:59Z</time>
      </trkpt>
      <trkpt lat="44.05287" lon="7.20848">
        <ele>1691</ele>
        <time>2018-05-07T17:11:59Z</time>
      </trkpt>
      <trkpt lat="44.05282" lon="7.20782">
        <ele>1700</ele>
        <time>2018-05-07T17:12:59Z</time>
      </trkpt>
      <trkpt lat="44.05286" lon="7.20736">
        <ele>1700</ele>
        <time>2018-05-07T17:13:59Z</time>
      </trkpt>
      <trkpt lat="44.0529" lon="7.2072">
        <ele>1698</ele>
        <time>2018-05-07T17:14:59Z</time>
      </trkpt>
      <trkpt lat="44.05299" lon="7.20704">
        <ele>1693</ele>
        <time>2018-05-07T17:15:59Z</time>
      </trkpt>
      <trkpt lat="44.05308" lon="7.20688">
        <ele>1687</ele>
        <time>2018-05-07T17:16:59Z</time>
      </trkpt>
      <trkpt lat="44.05312" lon="7.2068">
        <ele>1685</ele>
        <time>2018-05-07T17:17:59Z</time>
      </trkpt>
      <trkpt lat="44.05316" lon="7.20664">
        <ele>1683</ele>
        <time>2018-05-07T17:18:59Z</time>
      </trkpt>
      <trkpt lat="44.05317" lon="7.20655">
        <ele>1682</ele>
        <time>2018-05-07T17:19:59Z</time>
      </trkpt>
      <trkpt lat="44.05315" lon="7.20638">
        <ele>1681</ele>
        <time>2018-05-07T17:20:59Z</time>
      </trkpt>
      <trkpt lat="44.05311" lon="7.20622">
        <ele>1682</ele>
        <time>2018-05-07T17:21:59Z</time>
      </trkpt>
      <trkpt lat="44.053" lon="7.20602">
        <ele>1684</ele>
        <time>2018-05-07T17:22:59Z</time>
      </trkpt>
      <trkpt lat="44.05295" lon="7.20596">
        <ele>1686</ele>
        <time>2018-05-07T17:23:59Z</time>
      </trkpt>
      <trkpt lat="44.05291" lon="7.2059">
        <ele>1686</ele>
        <time>2018-05-07T17:24:59Z</time>
      </trkpt>
      <trkpt lat="44.05281" lon="7.2058">
        <ele>1688</ele>
        <time>2018-05-07T17:25:59Z</time>
      </trkpt>
      <trkpt lat="44.05265" lon="7.20566">
        <ele>1690</ele>
        <time>2018-05-07T17:26:59Z</time>
      </trkpt>
      <trkpt lat="44.0525" lon="7.2055">
        <ele>1690</ele>
        <time>2018-05-07T17:27:59Z</time>
      </trkpt>
      <trkpt lat="44.0524" lon="7.20538">
        <ele>1690</ele>
        <time>2018-05-07T17:28:59Z</time>
      </trkpt>
      <trkpt lat="44.05225" lon="7.20518">
        <ele>1689</ele>
        <time>2018-05-07T17:29:59Z</time>
      </trkpt>
      <trkpt lat="44.05207" lon="7.2049">
        <ele>1687</ele>
        <time>2018-05-07T17:30:59Z</time>
      </trkpt>
      <trkpt lat="44.05198" lon="7.20478">
        <ele>1686</ele>
        <time>2018-05-07T17:31:59Z</time>
      </trkpt>
      <trkpt lat="44.05194" lon="7.20473">
        <ele>1686</ele>
        <time>2018-05-07T17:32:59Z</time>
      </trkpt>
      <trkpt lat="44.05188" lon="7.20468">
        <ele>1687</ele>
        <time>2018-05-07T17:33:59Z</time>
      </trkpt>
      <trkpt lat="44.05178" lon="7.2046">
        <ele>1688</ele>
        <time>2018-05-07T17:34:59Z</time>
      </trkpt>
      <trkpt lat="44.05161" lon="7.20449">
        <ele>1692</ele>
        <time>2018-05-07T17:35:59Z</time>
      </trkpt>
      <trkpt lat="44.05158" lon="7.20443">
        <ele>1692</ele>
        <time>2018-05-07T17:36:59Z</time>
      </trkpt>
      <trkpt lat="44.05155" lon="7.2042">
        <ele>1686</ele>
        <time>2018-05-07T17:37:59Z</time>
      </trkpt>
      <trkpt lat="44.05153" lon="7.20413">
        <ele>1685</ele>
        <time>2018-05-07T17:38:59Z</time>
      </trkpt>
      <trkpt lat="44.05147" lon="7.20399">
        <ele>1685</ele>
        <time>2018-05-07T17:39:59Z</time>
      </trkpt>
      <trkpt lat="44.05138" lon="7.20368">
        <ele>1683</ele>
        <time>2018-05-07T17:40:59Z</time>
      </trkpt>
      <trkpt lat="44.05135" lon="7.20359">
        <ele>1682</ele>
        <time>2018-05-07T17:41:59Z</time>
      </trkpt>
      <trkpt lat="44.05124" lon="7.20327">
        <ele>1683</ele>
        <time>2018-05-07T17:42:59Z</time>
      </trkpt>
      <trkpt lat="44.05114" lon="7.20302">
        <ele>1685</ele>
        <time>2018-05-07T17:43:59Z</time>
      </trkpt>
      <trkpt lat="44.05105" lon="7.20276">
        <ele>1686</ele>
        <time>2018-05-07T17:44:59Z</time>
      </trkpt>
      <trkpt lat="44.05085" lon="7.20223">
        <ele>1691</ele>
        <time>2018-05-07T17:45:59Z</time>
      </trkpt>
      <trkpt lat="44.05069" lon="7.20147">
        <ele>1689</ele>
        <time>2018-05-07T17:46:59Z</time>
      </trkpt>
      <trkpt lat="44.05059" lon="7.20109">
        <ele>1689</ele>
        <time>2018-05-07T17:47:59Z</time>
      </trkpt>
      <trkpt lat="44.05058" lon="7.201">
        <ele>1688</ele>
        <time>2018-05-07T17:48:59Z</time>
      </trkpt>
      <trkpt lat="44.05057" lon="7.2009">
        <ele>1687</ele>
        <time>2018-05-07T17:49:59Z</time>
      </trkpt>
      <trkpt lat="44.05055" lon="7.20038">
        <ele>1686</ele>
        <time>2018-05-07T17:50:59Z</time>
      </trkpt>
      <trkpt lat="44.05055" lon="7.20017">
        <ele>1685</ele>
        <time>2018-05-07T17:51:59Z</time>
      </trkpt>
      <trkpt lat="44.05055" lon="7.20006">
        <ele>1685</ele>
        <time>2018-05-07T17:52:59Z</time>
      </trkpt>
      <trkpt lat="44.05057" lon="7.19963">
        <ele>1685</ele>
        <time>2018-05-07T17:53:59Z</time>
      </trkpt>
      <trkpt lat="44.0506" lon="7.19897">
        <ele>1685</ele>
        <time>2018-05-07T17:54:59Z</time>
      </trkpt>
      <trkpt lat="44.05063" lon="7.19866">
        <ele>1684</ele>
        <time>2018-05-07T17:55:59Z</time>
      </trkpt>
      <trkpt lat="44.05074" lon="7.19805">
        <ele>1679</ele>
        <time>2018-05-07T17:56:59Z</time>
      </trkpt>
      <trkpt lat="44.05077" lon="7.19783">
        <ele>1677</ele>
        <time>2018-05-07T17:57:59Z</time>
      </trkpt>
      <trkpt lat="44.05078" lon="7.19771">
        <ele>1677</ele>
        <time>2018-05-07T17:58:59Z</time>
      </trkpt>
      <trkpt lat="44.05077" lon="7.19761">
        <ele>1678</ele>
        <time>2018-05-07T17:59:59Z</time>
      </trkpt>
      <trkpt lat="44.05074" lon="7.19741">
        <ele>1681</ele>
        <time>2018-05-07T18:00:59Z</time>
      </trkpt>
      <trkpt lat="44.05073" lon="7.19731">
        <ele>1682</ele>
        <time>2018-05-07T18:01:59Z</time>
      </trkpt>
      <trkpt lat="44.0508" lon="7.19703">
        <ele>1678</ele>
        <time>2018-05-07T18:02:59Z</time>
      </trkpt>
      <trkpt lat="44.05092" lon="7.19678">
        <ele>1671</ele>
        <time>2018-05-07T18:03:59Z</time>
      </trkpt>
      <trkpt lat="44.05095" lon="7.19668">
        <ele>1669</ele>
        <time>2018-05-07T18:04:59Z</time>
      </trkpt>
      <trkpt lat="44.051" lon="7.19648">
        <ele>1666</ele>
        <time>2018-05-07T18:05:59Z</time>
      </trkpt>
      <trkpt lat="44.05102" lon="7.19637">
        <ele>1665</ele>
        <time>2018-05-07T18:06:59Z</time>
      </trkpt>
      <trkpt lat="44.05102" lon="7.19616">
        <ele>1665</ele>
        <time>2018-05-07T18:07:59Z</time>
      </trkpt>
      <trkpt lat="44.05099" lon="7.19594">
        <ele>1667</ele>
        <time>2018-05-07T18:08:59Z</time>
      </trkpt>
      <trkpt lat="44.05095" lon="7.1956">
        <ele>1667</ele>
        <time>2018-05-07T18:09:59Z</time>
      </trkpt>
      <trkpt lat="44.0509" lon="7.19504">
        <ele>1664</ele>
        <time>2018-05-07T18:10:59Z</time>
      </trkpt>
      <trkpt lat="44.05088" lon="7.19495">
        <ele>1663</ele>
        <time>2018-05-07T18:11:59Z</time>
      </trkpt>
      <trkpt lat="44.0508" lon="7.19479">
        <ele>1665</ele>
        <time>2018-05-07T18:12:59Z</time>
      </trkpt>
      <trkpt lat="44.05073" lon="7.1947">
        <ele>1668</ele>
        <time>2018-05-07T18:13:59Z</time>
      </trkpt>
      <trkpt lat="44.05071" lon="7.19468">
        <ele>1669</ele>
        <time>2018-05-07T18:14:59Z</time>
      </trkpt>
      <trkpt lat="44.0506" lon="7.19452">
        <ele>1673</ele>
        <time>2018-05-07T18:15:59Z</time>
      </trkpt>
      <trkpt lat="44.05058" lon="7.19449">
        <ele>1673</ele>
        <time>2018-05-07T18:16:59Z</time>
      </trkpt>
      <trkpt lat="44.05044" lon="7.1943">
        <ele>1679</ele>
        <time>2018-05-07T18:17:59Z</time>
      </trkpt>
      <trkpt lat="44.05042" lon="7.19427">
        <ele>1680</ele>
        <time>2018-05-07T18:18:59Z</time>
      </trkpt>
      <trkpt lat="44.05037" lon="7.19412">
        <ele>1680</ele>
        <time>2018-05-07T18:19:59Z</time>
      </trkpt>
      <trkpt lat="44.05034" lon="7.19405">
        <ele>1682</ele>
        <time>2018-05-07T18:20:59Z</time>
      </trkpt>
      <trkpt lat="44.05022" lon="7.19379">
        <ele>1688</ele>
        <time>2018-05-07T18:21:59Z</time>
      </trkpt>
      <trkpt lat="44.05018" lon="7.19373">
        <ele>1691</ele>
        <time>2018-05-07T18:22:59Z</time>
      </trkpt>
      <trkpt lat="44.05014" lon="7.19356">
        <ele>1692</ele>
        <time>2018-05-07T18:23:59Z</time>
      </trkpt>
      <trkpt lat="44.05013" lon="7.19342">
        <ele>1692</ele>
        <time>2018-05-07T18:24:59Z</time>
      </trkpt>
      <trkpt lat="44.05011" lon="7.19318">
        <ele>1691</ele>
        <time>2018-05-07T18:25:59Z</time>
      </trkpt>
      <trkpt lat="44.0501" lon="7.19309">
        <ele>1691</ele>
        <time>2018-05-07T18:26:59Z</time>
      </trkpt>
      <trkpt lat="44.05009" lon="7.19287">
        <ele>1690</ele>
        <time>2018-05-07T18:27:59Z</time>
      </trkpt>
      <trkpt lat="44.05007" lon="7.19278">
        <ele>1691</ele>
        <time>2018-05-07T18:28:59Z</time>
      </trkpt>
      <trkpt lat="44.05005" lon="7.19275">
        <ele>1692</ele>
        <time>2018-05-07T18:29:59Z</time>
      </trkpt>
      <trkpt lat="44.05001" lon="7.19267">
        <ele>1695</ele>
        <time>2018-05-07T18:30:59Z</time>
      </trkpt>
      <trkpt lat="44.04992" lon="7.19245">
        <ele>1700</ele>
        <time>2018-05-07T18:31:59Z</time>
      </trkpt>
      <trkpt lat="44.04989" lon="7.19239">
        <ele>1701</ele>
        <time>2018-05-07T18:32:59Z</time>
      </trkpt>
      <trkpt lat="44.04986" lon="7.19226">
        <ele>1702</ele>
        <time>2018-05-07T18:33:59Z</time>
      </trkpt>
      <trkpt lat="44.04984" lon="7.19222">
        <ele>1703</ele>
        <time>2018-05-07T18:34:59Z</time>
      </trkpt>
      <trkpt lat="44.04978" lon="7.19212">
        <ele>1707</ele>
        <time>2018-05-07T18:35:59Z</time>
      </trkpt>
      <trkpt lat="44.04976" lon="7.19209">
        <ele>1708</ele>
        <time>2018-05-07T18:36:59Z</time>
      </trkpt>
      <trkpt lat="44.04976" lon="7.19208">
        <ele>1708</ele>
        <time>2018-05-07T18:37:59Z</time>
      </trkpt>
      <trkpt lat="44.04975" lon="7.19205">
        <ele>1708</ele>
        <time>2018-05-07T18:38:59Z</time>
      </trkpt>
      <trkpt lat="44.04973" lon="7.19201">
        <ele>1709</ele>
        <time>2018-05-07T18:39:59Z</time>
      </trkpt>
      <trkpt lat="44.04971" lon="7.19197">
        <ele>1710</ele>
        <time>2018-05-07T18:40:59Z</time>
      </trkpt>
      <trkpt lat="44.04969" lon="7.1919">
        <ele>1711</ele>
        <time>2018-05-07T18:41:59Z</time>
      </trkpt>
      <trkpt lat="44.04967" lon="7.19179">
        <ele>1711</ele>
        <time>2018-05-07T18:42:59Z</time>
      </trkpt>
      <trkpt lat="44.04964" lon="7.19156">
        <ele>1712</ele>
        <time>2018-05-07T18:43:59Z</time>
      </trkpt>
      <trkpt lat="44.04962" lon="7.19148">
        <ele>1713</ele>
        <time>2018-05-07T18:44:59Z</time>
      </trkpt>
      <trkpt lat="44.04959" lon="7.19142">
        <ele>1715</ele>
        <time>2018-05-07T18:45:59Z</time>
      </trkpt>
      <trkpt lat="44.04957" lon="7.19137">
        <ele>1717</ele>
        <time>2018-05-07T18:46:59Z</time>
      </trkpt>
      <trkpt lat="44.04945" lon="7.19108">
        <ele>1724</ele>
        <time>2018-05-07T18:47:59Z</time>
      </trkpt>
      <trkpt lat="44.04945" lon="7.19103">
        <ele>1723</ele>
        <time>2018-05-07T18:48:59Z</time>
      </trkpt>
      <trkpt lat="44.04932" lon="7.19072">
        <ele>1730</ele>
        <time>2018-05-07T18:49:59Z</time>
      </trkpt>
      <trkpt lat="44.0493" lon="7.19065">
        <ele>1731</ele>
        <time>2018-05-07T18:50:59Z</time>
      </trkpt>
      <trkpt lat="44.04929" lon="7.19053">
        <ele>1731</ele>
        <time>2018-05-07T18:51:59Z</time>
      </trkpt>
      <trkpt lat="44.04928" lon="7.19052">
        <ele>1732</ele>
        <time>2018-05-07T18:52:59Z</time>
      </trkpt>
      <trkpt lat="44.04929" lon="7.1903">
        <ele>1730</ele>
        <time>2018-05-07T18:53:59Z</time>
      </trkpt>
      <trkpt lat="44.04929" lon="7.19017">
        <ele>1729</ele>
        <time>2018-05-07T18:54:59Z</time>
      </trkpt>
      <trkpt lat="44.04927" lon="7.19003">
        <ele>1730</ele>
        <time>2018-05-07T18:55:59Z</time>
      </trkpt>
      <trkpt lat="44.04926" lon="7.18997">
        <ele>1730</ele>
        <time>2018-05-07T18:56:59Z</time>
      </trkpt>
      <trkpt lat="44.04925" lon="7.18989">
        <ele>1731</ele>
        <time>2018-05-07T18:57:59Z</time>
      </trkpt>
      <trkpt lat="44.04925" lon="7.18978">
        <ele>1731</ele>
        <time>2018-05-07T18:58:59Z</time>
      </trkpt>
      <trkpt lat="44.04926" lon="7.18963">
        <ele>1731</ele>
        <time>2018-05-07T18:59:59Z</time>
      </trkpt>
      <trkpt lat="44.04926" lon="7.18958">
        <ele>1731</ele>
        <time>2018-05-07T19:00:59Z</time>
      </trkpt>
      <trkpt lat="44.04924" lon="7.18948">
        <ele>1731</ele>
        <time>2018-05-07T19:01:59Z</time>
      </trkpt>
      <trkpt lat="44.04924" lon="7.18946">
        <ele>1731</ele>
        <time>2018-05-07T19:02:59Z</time>
      </trkpt>
      <trkpt lat="44.04925" lon="7.18936">
        <ele>1731</ele>
        <time>2018-05-07T19:03:59Z</time>
      </trkpt>
      <trkpt lat="44.04925" lon="7.18928">
        <ele>1731</ele>
        <time>2018-05-07T19:04:59Z</time>
      </trkpt>
      <trkpt lat="44.04926" lon="7.18919">
        <ele>1731</ele>
        <time>2018-05-07T19:05:59Z</time>
      </trkpt>
      <trkpt lat="44.04927" lon="7.18908">
        <ele>1731</ele>
        <time>2018-05-07T19:06:59Z</time>
      </trkpt>
      <trkpt lat="44.0493" lon="7.18894">
        <ele>1730</ele>
        <time>2018-05-07T19:07:59Z</time>
      </trkpt>
      <trkpt lat="44.04933" lon="7.18878">
        <ele>1729</ele>
        <time>2018-05-07T19:08:59Z</time>
      </trkpt>
      <trkpt lat="44.04934" lon="7.18864">
        <ele>1729</ele>
        <time>2018-05-07T19:09:59Z</time>
      </trkpt>
      <trkpt lat="44.04932" lon="7.18855">
        <ele>1730</ele>
        <time>2018-05-07T19:10:59Z</time>
      </trkpt>
      <trkpt lat="44.04931" lon="7.18854">
        <ele>1730</ele>
        <time>2018-05-07T19:11:59Z</time>
      </trkpt>
      <trkpt lat="44.04929" lon="7.18855">
        <ele>1730</ele>
        <time>2018-05-07T19:12:59Z</time>
      </trkpt>
      <trkpt lat="44.04926" lon="7.18859">
        <ele>1731</ele>
        <time>2018-05-07T19:13:59Z</time>
      </trkpt>
      <trkpt lat="44.04923" lon="7.18864">
        <ele>1731</ele>
        <time>2018-05-07T19:14:59Z</time>
      </trkpt>
      <trkpt lat="44.04913" lon="7.18881">
        <ele>1733</ele>
        <time>2018-05-07T19:15:59Z</time>
      </trkpt>
      <trkpt lat="44.04908" lon="7.18891">
        <ele>1733</ele>
        <time>2018-05-07T19:16:59Z</time>
      </trkpt>
      <trkpt lat="44.04903" lon="7.18911">
        <ele>1733</ele>
        <time>2018-05-07T19:17:59Z</time>
      </trkpt>
      <trkpt lat="44.049" lon="7.18916">
        <ele>1733</ele>
        <time>2018-05-07T19:18:59Z</time>
      </trkpt>
      <trkpt lat="44.04887" lon="7.18935">
        <ele>1734</ele>
        <time>2018-05-07T19:19:59Z</time>
      </trkpt>
      <trkpt lat="44.04885" lon="7.18937">
        <ele>1734</ele>
        <time>2018-05-07T19:20:59Z</time>
      </trkpt>
      <trkpt lat="44.04877" lon="7.18955">
        <ele>1735</ele>
        <time>2018-05-07T19:21:59Z</time>
      </trkpt>
      <trkpt lat="44.04876" lon="7.18959">
        <ele>1736</ele>
        <time>2018-05-07T19:22:59Z</time>
      </trkpt>
      <trkpt lat="44.04875" lon="7.18961">
        <ele>1736</ele>
        <time>2018-05-07T19:23:59Z</time>
      </trkpt>
      <trkpt lat="44.04876" lon="7.18967">
        <ele>1736</ele>
        <time>2018-05-07T19:24:59Z</time>
      </trkpt>
      <trkpt lat="44.04876" lon="7.18971">
        <ele>1737</ele>
        <time>2018-05-07T19:25:59Z</time>
      </trkpt>
      <trkpt lat="44.04877" lon="7.18978">
        <ele>1737</ele>
        <time>2018-05-07T19:26:59Z</time>
      </trkpt>
      <trkpt lat="44.04875" lon="7.18984">
        <ele>1738</ele>
        <time>2018-05-07T19:27:59Z</time>
      </trkpt>
      <trkpt lat="44.04873" lon="7.1899">
        <ele>1739</ele>
        <time>2018-05-07T19:28:59Z</time>
      </trkpt>
      <trkpt lat="44.04869" lon="7.19017">
        <ele>1742</ele>
        <time>2018-05-07T19:29:59Z</time>
      </trkpt>
      <trkpt lat="44.04867" lon="7.19031">
        <ele>1745</ele>
        <time>2018-05-07T19:30:59Z</time>
      </trkpt>
      <trkpt lat="44.04865" lon="7.19035">
        <ele>1745</ele>
        <time>2018-05-07T19:31:59Z</time>
      </trkpt>
      <trkpt lat="44.04863" lon="7.19036">
        <ele>1746</ele>
        <time>2018-05-07T19:32:59Z</time>
      </trkpt>
      <trkpt lat="44.04862" lon="7.19038">
        <ele>1746</ele>
        <time>2018-05-07T19:33:59Z</time>
      </trkpt>
      <trkpt lat="44.04863" lon="7.19038">
        <ele>1746</ele>
        <time>2018-05-07T19:34:59Z</time>
      </trkpt>
      <trkpt lat="44.04863" lon="7.1904">
        <ele>1746</ele>
        <time>2018-05-07T19:35:59Z</time>
      </trkpt>
      <trkpt lat="44.04865" lon="7.19041">
        <ele>1746</ele>
        <time>2018-05-07T19:36:59Z</time>
      </trkpt>
      <trkpt lat="44.04863" lon="7.19051">
        <ele>1748</ele>
        <time>2018-05-07T19:37:59Z</time>
      </trkpt>
      <trkpt lat="44.04863" lon="7.19053">
        <ele>1748</ele>
        <time>2018-05-07T19:38:59Z</time>
      </trkpt>
      <trkpt lat="44.04863" lon="7.19063">
        <ele>1750</ele>
        <time>2018-05-07T19:39:59Z</time>
      </trkpt>
      <trkpt lat="44.04862" lon="7.19065">
        <ele>1750</ele>
        <time>2018-05-07T19:40:59Z</time>
      </trkpt>
      <trkpt lat="44.0486" lon="7.1907">
        <ele>1751</ele>
        <time>2018-05-07T19:41:59Z</time>
      </trkpt>
      <trkpt lat="44.0486" lon="7.19071">
        <ele>1751</ele>
        <time>2018-05-07T19:42:59Z</time>
      </trkpt>
      <trkpt lat="44.04856" lon="7.19089">
        <ele>1755</ele>
        <time>2018-05-07T19:43:59Z</time>
      </trkpt>
      <trkpt lat="44.04855" lon="7.19093">
        <ele>1756</ele>
        <time>2018-05-07T19:44:59Z</time>
      </trkpt>
      <trkpt lat="44.04851" lon="7.19099">
        <ele>1758</ele>
        <time>2018-05-07T19:45:59Z</time>
      </trkpt>
      <trkpt lat="44.0485" lon="7.19104">
        <ele>1759</ele>
        <time>2018-05-07T19:46:59Z</time>
      </trkpt>
      <trkpt lat="44.04849" lon="7.19109">
        <ele>1761</ele>
        <time>2018-05-07T19:47:59Z</time>
      </trkpt>
      <trkpt lat="44.04849" lon="7.19111">
        <ele>1761</ele>
        <time>2018-05-07T19:48:59Z</time>
      </trkpt>
      <trkpt lat="44.04847" lon="7.19114">
        <ele>1762</ele>
        <time>2018-05-07T19:49:59Z</time>
      </trkpt>
      <trkpt lat="44.04837" lon="7.19129">
        <ele>1767</ele>
        <time>2018-05-07T19:50:59Z</time>
      </trkpt>
      <trkpt lat="44.04836" lon="7.19131">
        <ele>1768</ele>
        <time>2018-05-07T19:51:59Z</time>
      </trkpt>
      <trkpt lat="44.04831" lon="7.19147">
        <ele>1771</ele>
        <time>2018-05-07T19:52:59Z</time>
      </trkpt>
      <trkpt lat="44.04828" lon="7.19151">
        <ele>1772</ele>
        <time>2018-05-07T19:53:59Z</time>
      </trkpt>
      <trkpt lat="44.04828" lon="7.19154">
        <ele>1772</ele>
        <time>2018-05-07T19:54:59Z</time>
      </trkpt>
      <trkpt lat="44.04828" lon="7.19156">
        <ele>1773</ele>
        <time>2018-05-07T19:55:59Z</time>
      </trkpt>
      <trkpt lat="44.04829" lon="7.19163">
        <ele>1774</ele>
        <time>2018-05-07T19:56:59Z</time>
      </trkpt>
      <trkpt lat="44.0483" lon="7.19166">
        <ele>1775</ele>
        <time>2018-05-07T19:57:59Z</time>
      </trkpt>
      <trkpt lat="44.04826" lon="7.19179">
        <ele>1776</ele>
        <time>2018-05-07T19:58:59Z</time>
      </trkpt>
      <trkpt lat="44.04826" lon="7.19181">
        <ele>1776</ele>
        <time>2018-05-07T19:59:59Z</time>
      </trkpt>
      <trkpt lat="44.04826" lon="7.19193">
        <ele>1778</ele>
        <time>2018-05-07T20:00:59Z</time>
      </trkpt>
      <trkpt lat="44.04826" lon="7.19199">
        <ele>1778</ele>
        <time>2018-05-07T20:01:59Z</time>
      </trkpt>
      <trkpt lat="44.04823" lon="7.1921">
        <ele>1779</ele>
        <time>2018-05-07T20:02:59Z</time>
      </trkpt>
      <trkpt lat="44.04821" lon="7.19216">
        <ele>1779</ele>
        <time>2018-05-07T20:03:59Z</time>
      </trkpt>
      <trkpt lat="44.04821" lon="7.19224">
        <ele>1780</ele>
        <time>2018-05-07T20:04:59Z</time>
      </trkpt>
      <trkpt lat="44.04824" lon="7.19234">
        <ele>1782</ele>
        <time>2018-05-07T20:05:59Z</time>
      </trkpt>
      <trkpt lat="44.04824" lon="7.19235">
        <ele>1783</ele>
        <time>2018-05-07T20:06:59Z</time>
      </trkpt>
      <trkpt lat="44.04825" lon="7.19246">
        <ele>1784</ele>
        <time>2018-05-07T20:07:59Z</time>
      </trkpt>
      <trkpt lat="44.04826" lon="7.19247">
        <ele>1785</ele>
        <time>2018-05-07T20:08:59Z</time>
      </trkpt>
      <trkpt lat="44.04826" lon="7.19257">
        <ele>1786</ele>
        <time>2018-05-07T20:09:59Z</time>
      </trkpt>
      <trkpt lat="44.04826" lon="7.1926">
        <ele>1786</ele>
        <time>2018-05-07T20:10:59Z</time>
      </trkpt>
      <trkpt lat="44.04831" lon="7.19273">
        <ele>1789</ele>
        <time>2018-05-07T20:11:59Z</time>
      </trkpt>
      <trkpt lat="44.04833" lon="7.19276">
        <ele>1789</ele>
        <time>2018-05-07T20:12:59Z</time>
      </trkpt>
      <trkpt lat="44.04834" lon="7.19288">
        <ele>1790</ele>
        <time>2018-05-07T20:13:59Z</time>
      </trkpt>
      <trkpt lat="44.04835" lon="7.19293">
        <ele>1791</ele>
        <time>2018-05-07T20:14:59Z</time>
      </trkpt>
      <trkpt lat="44.0484" lon="7.19307">
        <ele>1790</ele>
        <time>2018-05-07T20:15:59Z</time>
      </trkpt>
      <trkpt lat="44.04842" lon="7.19314">
        <ele>1790</ele>
        <time>2018-05-07T20:16:59Z</time>
      </trkpt>
      <trkpt lat="44.04841" lon="7.19319">
        <ele>1791</ele>
        <time>2018-05-07T20:17:59Z</time>
      </trkpt>
      <trkpt lat="44.04838" lon="7.19332">
        <ele>1793</ele>
        <time>2018-05-07T20:18:59Z</time>
      </trkpt>
      <trkpt lat="44.04839" lon="7.1935">
        <ele>1795</ele>
        <time>2018-05-07T20:19:59Z</time>
      </trkpt>
      <trkpt lat="44.04841" lon="7.19361">
        <ele>1795</ele>
        <time>2018-05-07T20:20:59Z</time>
      </trkpt>
      <trkpt lat="44.04842" lon="7.19364">
        <ele>1795</ele>
        <time>2018-05-07T20:21:59Z</time>
      </trkpt>
      <trkpt lat="44.04843" lon="7.19369">
        <ele>1795</ele>
        <time>2018-05-07T20:22:59Z</time>
      </trkpt>
      <trkpt lat="44.04842" lon="7.19377">
        <ele>1796</ele>
        <time>2018-05-07T20:23:59Z</time>
      </trkpt>
      <trkpt lat="44.04842" lon="7.19381">
        <ele>1797</ele>
        <time>2018-05-07T20:24:59Z</time>
      </trkpt>
      <trkpt lat="44.04842" lon="7.19385">
        <ele>1797</ele>
        <time>2018-05-07T20:25:59Z</time>
      </trkpt>
      <trkpt lat="44.04842" lon="7.19389">
        <ele>1798</ele>
        <time>2018-05-07T20:26:59Z</time>
      </trkpt>
      <trkpt lat="44.04845" lon="7.19394">
        <ele>1797</ele>
        <time>2018-05-07T20:27:59Z</time>
      </trkpt>
      <trkpt lat="44.04847" lon="7.19402">
        <ele>1797</ele>
        <time>2018-05-07T20:28:59Z</time>
      </trkpt>
      <trkpt lat="44.04849" lon="7.19406">
        <ele>1797</ele>
        <time>2018-05-07T20:29:59Z</time>
      </trkpt>
      <trkpt lat="44.04853" lon="7.1942">
        <ele>1797</ele>
        <time>2018-05-07T20:30:59Z</time>
      </trkpt>
      <trkpt lat="44.04855" lon="7.19424">
        <ele>1797</ele>
        <time>2018-05-07T20:31:59Z</time>
      </trkpt>
      <trkpt lat="44.04855" lon="7.19428">
        <ele>1797</ele>
        <time>2018-05-07T20:32:59Z</time>
      </trkpt>
      <trkpt lat="44.04856" lon="7.19434">
        <ele>1797</ele>
        <time>2018-05-07T20:33:59Z</time>
      </trkpt>
      <trkpt lat="44.04858" lon="7.19447">
        <ele>1798</ele>
        <time>2018-05-07T20:34:59Z</time>
      </trkpt>
      <trkpt lat="44.04859" lon="7.19452">
        <ele>1798</ele>
        <time>2018-05-07T20:35:59Z</time>
      </trkpt>
      <trkpt lat="44.0486" lon="7.19459">
        <ele>1799</ele>
        <time>2018-05-07T20:36:59Z</time>
      </trkpt>
      <trkpt lat="44.0486" lon="7.19462">
        <ele>1799</ele>
        <time>2018-05-07T20:37:59Z</time>
      </trkpt>
      <trkpt lat="44.04858" lon="7.19489">
        <ele>1802</ele>
        <time>2018-05-07T20:38:59Z</time>
      </trkpt>
      <trkpt lat="44.04858" lon="7.1949">
        <ele>1802</ele>
        <time>2018-05-07T20:39:59Z</time>
      </trkpt>
      <trkpt lat="44.04856" lon="7.19494">
        <ele>1803</ele>
        <time>2018-05-07T20:40:59Z</time>
      </trkpt>
      <trkpt lat="44.04854" lon="7.1951">
        <ele>1805</ele>
        <time>2018-05-07T20:41:59Z</time>
      </trkpt>
      <trkpt lat="44.04853" lon="7.19513">
        <ele>1805</ele>
        <time>2018-05-07T20:42:59Z</time>
      </trkpt>
      <trkpt lat="44.04854" lon="7.19527">
        <ele>1806</ele>
        <time>2018-05-07T20:43:59Z</time>
      </trkpt>
      <trkpt lat="44.04856" lon="7.19534">
        <ele>1807</ele>
        <time>2018-05-07T20:44:59Z</time>
      </trkpt>
      <trkpt lat="44.04856" lon="7.19536">
        <ele>1807</ele>
        <time>2018-05-07T20:45:59Z</time>
      </trkpt>
      <trkpt lat="44.04855" lon="7.19545">
        <ele>1808</ele>
        <time>2018-05-07T20:46:59Z</time>
      </trkpt>
      <trkpt lat="44.04854" lon="7.19547">
        <ele>1808</ele>
        <time>2018-05-07T20:47:59Z</time>
      </trkpt>
      <trkpt lat="44.04853" lon="7.19571">
        <ele>1811</ele>
        <time>2018-05-07T20:48:59Z</time>
      </trkpt>
      <trkpt lat="44.04853" lon="7.19573">
        <ele>1811</ele>
        <time>2018-05-07T20:49:59Z</time>
      </trkpt>
      <trkpt lat="44.04851" lon="7.19585">
        <ele>1813</ele>
        <time>2018-05-07T20:50:59Z</time>
      </trkpt>
      <trkpt lat="44.0485" lon="7.19594">
        <ele>1814</ele>
        <time>2018-05-07T20:51:59Z</time>
      </trkpt>
      <trkpt lat="44.04851" lon="7.19611">
        <ele>1815</ele>
        <time>2018-05-07T20:52:59Z</time>
      </trkpt>
      <trkpt lat="44.04848" lon="7.19631">
        <ele>1818</ele>
        <time>2018-05-07T20:53:59Z</time>
      </trkpt>
      <trkpt lat="44.04835" lon="7.19684">
        <ele>1829</ele>
        <time>2018-05-07T20:54:59Z</time>
      </trkpt>
      <trkpt lat="44.04834" lon="7.1969">
        <ele>1830</ele>
        <time>2018-05-07T20:55:59Z</time>
      </trkpt>
      <trkpt lat="44.04828" lon="7.19701">
        <ele>1830</ele>
        <time>2018-05-07T20:56:59Z</time>
      </trkpt>
      <trkpt lat="44.04825" lon="7.19708">
        <ele>1831</ele>
        <time>2018-05-07T20:57:59Z</time>
      </trkpt>
      <trkpt lat="44.04808" lon="7.19745">
        <ele>1833</ele>
        <time>2018-05-07T20:58:59Z</time>
      </trkpt>
      <trkpt lat="44.04806" lon="7.19749">
        <ele>1833</ele>
        <time>2018-05-07T20:59:59Z</time>
      </trkpt>
      <trkpt lat="44.04802" lon="7.19761">
        <ele>1835</ele>
        <time>2018-05-07T21:00:59Z</time>
      </trkpt>
      <trkpt lat="44.04802" lon="7.19762">
        <ele>1835</ele>
        <time>2018-05-07T21:01:59Z</time>
      </trkpt>
      <trkpt lat="44.04799" lon="7.19766">
        <ele>1836</ele>
        <time>2018-05-07T21:02:59Z</time>
      </trkpt>
      <trkpt lat="44.04796" lon="7.19769">
        <ele>1836</ele>
        <time>2018-05-07T21:03:59Z</time>
      </trkpt>
      <trkpt lat="44.04789" lon="7.19776">
        <ele>1838</ele>
        <time>2018-05-07T21:04:59Z</time>
      </trkpt>
      <trkpt lat="44.04788" lon="7.19776">
        <ele>1838</ele>
        <time>2018-05-07T21:05:59Z</time>
      </trkpt>
      <trkpt lat="44.04784" lon="7.19782">
        <ele>1839</ele>
        <time>2018-05-07T21:06:59Z</time>
      </trkpt>
      <trkpt lat="44.04777" lon="7.19791">
        <ele>1842</ele>
        <time>2018-05-07T21:07:59Z</time>
      </trkpt>
      <trkpt lat="44.04775" lon="7.19793">
        <ele>1842</ele>
        <time>2018-05-07T21:08:59Z</time>
      </trkpt>
      <trkpt lat="44.04766" lon="7.19801">
        <ele>1845</ele>
        <time>2018-05-07T21:09:59Z</time>
      </trkpt>
      <trkpt lat="44.04764" lon="7.19803">
        <ele>1846</ele>
        <time>2018-05-07T21:10:59Z</time>
      </trkpt>
      <trkpt lat="44.04754" lon="7.19814">
        <ele>1851</ele>
        <time>2018-05-07T21:11:59Z</time>
      </trkpt>
      <trkpt lat="44.04754" lon="7.19815">
        <ele>1852</ele>
        <time>2018-05-07T21:12:59Z</time>
      </trkpt>
      <trkpt lat="44.04745" lon="7.19822">
        <ele>1854</ele>
        <time>2018-05-07T21:13:59Z</time>
      </trkpt>
      <trkpt lat="44.04744" lon="7.19822">
        <ele>1853</ele>
        <time>2018-05-07T21:14:59Z</time>
      </trkpt>
      <trkpt lat="44.0474" lon="7.19826">
        <ele>1854</ele>
        <time>2018-05-07T21:15:59Z</time>
      </trkpt>
      <trkpt lat="44.04735" lon="7.1983">
        <ele>1854</ele>
        <time>2018-05-07T21:16:59Z</time>
      </trkpt>
      <trkpt lat="44.04732" lon="7.19835">
        <ele>1855</ele>
        <time>2018-05-07T21:17:59Z</time>
      </trkpt>
      <trkpt lat="44.04728" lon="7.19838">
        <ele>1854</ele>
        <time>2018-05-07T21:18:59Z</time>
      </trkpt>
      <trkpt lat="44.04724" lon="7.19845">
        <ele>1855</ele>
        <time>2018-05-07T21:19:59Z</time>
      </trkpt>
      <trkpt lat="44.04722" lon="7.19851">
        <ele>1857</ele>
        <time>2018-05-07T21:20:59Z</time>
      </trkpt>
      <trkpt lat="44.04719" lon="7.1986">
        <ele>1858</ele>
        <time>2018-05-07T21:21:59Z</time>
      </trkpt>
      <trkpt lat="44.04717" lon="7.19864">
        <ele>1859</ele>
        <time>2018-05-07T21:22:59Z</time>
      </trkpt>
      <trkpt lat="44.04717" lon="7.19865">
        <ele>1859</ele>
        <time>2018-05-07T21:23:59Z</time>
      </trkpt>
      <trkpt lat="44.04712" lon="7.19872">
        <ele>1859</ele>
        <time>2018-05-07T21:24:59Z</time>
      </trkpt>
      <trkpt lat="44.04707" lon="7.19883">
        <ele>1861</ele>
        <time>2018-05-07T21:25:59Z</time>
      </trkpt>
      <trkpt lat="44.04704" lon="7.19891">
        <ele>1862</ele>
        <time>2018-05-07T21:26:59Z</time>
      </trkpt>
      <trkpt lat="44.04699" lon="7.19899">
        <ele>1862</ele>
        <time>2018-05-07T21:27:59Z</time>
      </trkpt>
      <trkpt lat="44.04698" lon="7.19903">
        <ele>1863</ele>
        <time>2018-05-07T21:28:59Z</time>
      </trkpt>
      <trkpt lat="44.04695" lon="7.1991">
        <ele>1864</ele>
        <time>2018-05-07T21:29:59Z</time>
      </trkpt>
      <trkpt lat="44.04692" lon="7.19917">
        <ele>1864</ele>
        <time>2018-05-07T21:30:59Z</time>
      </trkpt>
      <trkpt lat="44.04691" lon="7.19924">
        <ele>1865</ele>
        <time>2018-05-07T21:31:59Z</time>
      </trkpt>
      <trkpt lat="44.04689" lon="7.19933">
        <ele>1866</ele>
        <time>2018-05-07T21:32:59Z</time>
      </trkpt>
      <trkpt lat="44.04685" lon="7.19942">
        <ele>1866</ele>
        <time>2018-05-07T21:33:59Z</time>
      </trkpt>
      <trkpt lat="44.04681" lon="7.19954">
        <ele>1867</ele>
        <time>2018-05-07T21:34:59Z</time>
      </trkpt>
      <trkpt lat="44.04677" lon="7.1996">
        <ele>1867</ele>
        <time>2018-05-07T21:35:59Z</time>
      </trkpt>
      <trkpt lat="44.04675" lon="7.19966">
        <ele>1867</ele>
        <time>2018-05-07T21:36:59Z</time>
      </trkpt>
      <trkpt lat="44.04672" lon="7.19977">
        <ele>1869</ele>
        <time>2018-05-07T21:37:59Z</time>
      </trkpt>
      <trkpt lat="44.04669" lon="7.19986">
        <ele>1870</ele>
        <time>2018-05-07T21:38:59Z</time>
      </trkpt>
      <trkpt lat="44.04665" lon="7.20009">
        <ele>1873</ele>
        <time>2018-05-07T21:39:59Z</time>
      </trkpt>
      <trkpt lat="44.04664" lon="7.2001">
        <ele>1872</ele>
        <time>2018-05-07T21:40:59Z</time>
      </trkpt>
      <trkpt lat="44.04663" lon="7.20028">
        <ele>1875</ele>
        <time>2018-05-07T21:41:59Z</time>
      </trkpt>
      <trkpt lat="44.04662" lon="7.20051">
        <ele>1879</ele>
        <time>2018-05-07T21:42:59Z</time>
      </trkpt>
      <trkpt lat="44.04661" lon="7.20058">
        <ele>1880</ele>
        <time>2018-05-07T21:43:59Z</time>
      </trkpt>
      <trkpt lat="44.04658" lon="7.20074">
        <ele>1881</ele>
        <time>2018-05-07T21:44:59Z</time>
      </trkpt>
      <trkpt lat="44.04653" lon="7.20093">
        <ele>1882</ele>
        <time>2018-05-07T21:45:59Z</time>
      </trkpt>
      <trkpt lat="44.04648" lon="7.20111">
        <ele>1882</ele>
        <time>2018-05-07T21:46:59Z</time>
      </trkpt>
      <trkpt lat="44.04638" lon="7.20129">
        <ele>1881</ele>
        <time>2018-05-07T21:47:59Z</time>
      </trkpt>
      <trkpt lat="44.04633" lon="7.20137">
        <ele>1880</ele>
        <time>2018-05-07T21:48:59Z</time>
      </trkpt>
      <trkpt lat="44.04629" lon="7.20142">
        <ele>1880</ele>
        <time>2018-05-07T21:49:59Z</time>
      </trkpt>
      <trkpt lat="44.04623" lon="7.20153">
        <ele>1880</ele>
        <time>2018-05-07T21:50:59Z</time>
      </trkpt>
      <trkpt lat="44.04613" lon="7.20164">
        <ele>1878</ele>
        <time>2018-05-07T21:51:59Z</time>
      </trkpt>
      <trkpt lat="44.0461" lon="7.20167">
        <ele>1878</ele>
        <time>2018-05-07T21:52:59Z</time>
      </trkpt>
      <trkpt lat="44.04599" lon="7.20185">
        <ele>1882</ele>
        <time>2018-05-07T21:53:59Z</time>
      </trkpt>
      <trkpt lat="44.04596" lon="7.20188">
        <ele>1882</ele>
        <time>2018-05-07T21:54:59Z</time>
      </trkpt>
      <trkpt lat="44.0459" lon="7.20198">
        <ele>1885</ele>
        <time>2018-05-07T21:55:59Z</time>
      </trkpt>
      <trkpt lat="44.04587" lon="7.20203">
        <ele>1886</ele>
        <time>2018-05-07T21:56:59Z</time>
      </trkpt>
      <trkpt lat="44.04585" lon="7.20205">
        <ele>1886</ele>
        <time>2018-05-07T21:57:59Z</time>
      </trkpt>
      <trkpt lat="44.04579" lon="7.20211">
        <ele>1887</ele>
        <time>2018-05-07T21:58:59Z</time>
      </trkpt>
      <trkpt lat="44.04555" lon="7.20228">
        <ele>1885</ele>
        <time>2018-05-07T21:59:59Z</time>
      </trkpt>
      <trkpt lat="44.04532" lon="7.20241">
        <ele>1882</ele>
        <time>2018-05-07T22:00:59Z</time>
      </trkpt>
      <trkpt lat="44.0452" lon="7.20252">
        <ele>1882</ele>
        <time>2018-05-07T22:01:59Z</time>
      </trkpt>
      <trkpt lat="44.04513" lon="7.20259">
        <ele>1881</ele>
        <time>2018-05-07T22:02:59Z</time>
      </trkpt>
      <trkpt lat="44.0449" lon="7.20291">
        <ele>1882</ele>
        <time>2018-05-07T22:03:59Z</time>
      </trkpt>
      <trkpt lat="44.04487" lon="7.20296">
        <ele>1882</ele>
        <time>2018-05-07T22:04:59Z</time>
      </trkpt>
      <trkpt lat="44.04483" lon="7.20307">
        <ele>1884</ele>
        <time>2018-05-07T22:05:59Z</time>
      </trkpt>
      <trkpt lat="44.0448" lon="7.20323">
        <ele>1889</ele>
        <time>2018-05-07T22:06:59Z</time>
      </trkpt>
      <trkpt lat="44.04478" lon="7.20327">
        <ele>1889</ele>
        <time>2018-05-07T22:07:59Z</time>
      </trkpt>
      <trkpt lat="44.04472" lon="7.20335">
        <ele>1889</ele>
        <time>2018-05-07T22:08:59Z</time>
      </trkpt>
      <trkpt lat="44.04462" lon="7.20347">
        <ele>1889</ele>
        <time>2018-05-07T22:09:59Z</time>
      </trkpt>
      <trkpt lat="44.04451" lon="7.20358">
        <ele>1889</ele>
        <time>2018-05-07T22:10:59Z</time>
      </trkpt>
      <trkpt lat="44.04441" lon="7.20369">
        <ele>1889</ele>
        <time>2018-05-07T22:11:59Z</time>
      </trkpt>
      <trkpt lat="44.04432" lon="7.20377">
        <ele>1889</ele>
        <time>2018-05-07T22:12:59Z</time>
      </trkpt>
      <trkpt lat="44.04429" lon="7.2038">
        <ele>1889</ele>
        <time>2018-05-07T22:13:59Z</time>
      </trkpt>
      <trkpt lat="44.04422" lon="7.20389">
        <ele>1890</ele>
        <time>2018-05-07T22:14:59Z</time>
      </trkpt>
      <trkpt lat="44.04414" lon="7.20397">
        <ele>1890</ele>
        <time>2018-05-07T22:15:59Z</time>
      </trkpt>
      <trkpt lat="44.04409" lon="7.204">
        <ele>1890</ele>
        <time>2018-05-07T22:16:59Z</time>
      </trkpt>
      <trkpt lat="44.04392" lon="7.20414">
        <ele>1892</ele>
        <time>2018-05-07T22:17:59Z</time>
      </trkpt>
      <trkpt lat="44.04357" lon="7.20436">
        <ele>1892</ele>
        <time>2018-05-07T22:18:59Z</time>
      </trkpt>
      <trkpt lat="44.04351" lon="7.20441">
        <ele>1892</ele>
        <time>2018-05-07T22:19:59Z</time>
      </trkpt>
      <trkpt lat="44.04343" lon="7.20444">
        <ele>1891</ele>
        <time>2018-05-07T22:20:59Z</time>
      </trkpt>
      <trkpt lat="44.0434" lon="7.20445">
        <ele>1891</ele>
        <time>2018-05-07T22:21:59Z</time>
      </trkpt>
      <trkpt lat="44.04333" lon="7.2045">
        <ele>1891</ele>
        <time>2018-05-07T22:22:59Z</time>
      </trkpt>
      <trkpt lat="44.0432" lon="7.20455">
        <ele>1893</ele>
        <time>2018-05-07T22:23:59Z</time>
      </trkpt>
      <trkpt lat="44.04318" lon="7.20456">
        <ele>1894</ele>
        <time>2018-05-07T22:24:59Z</time>
      </trkpt>
      <trkpt lat="44.04302" lon="7.20467">
        <ele>1899</ele>
        <time>2018-05-07T22:25:59Z</time>
      </trkpt>
      <trkpt lat="44.04295" lon="7.20471">
        <ele>1902</ele>
        <time>2018-05-07T22:26:59Z</time>
      </trkpt>
      <trkpt lat="44.04278" lon="7.20481">
        <ele>1907</ele>
        <time>2018-05-07T22:27:59Z</time>
      </trkpt>
      <trkpt lat="44.04275" lon="7.20482">
        <ele>1908</ele>
        <time>2018-05-07T22:28:59Z</time>
      </trkpt>
      <trkpt lat="44.04267" lon="7.20484">
        <ele>1909</ele>
        <time>2018-05-07T22:29:59Z</time>
      </trkpt>
      <trkpt lat="44.0426" lon="7.20485">
        <ele>1910</ele>
        <time>2018-05-07T22:30:59Z</time>
      </trkpt>
      <trkpt lat="44.04217" lon="7.20474">
        <ele>1908</ele>
        <time>2018-05-07T22:31:59Z</time>
      </trkpt>
      <trkpt lat="44.04204" lon="7.20471">
        <ele>1908</ele>
        <time>2018-05-07T22:32:59Z</time>
      </trkpt>
      <trkpt lat="44.04198" lon="7.20472">
        <ele>1909</ele>
        <time>2018-05-07T22:33:59Z</time>
      </trkpt>
      <trkpt lat="44.0419" lon="7.20473">
        <ele>1910</ele>
        <time>2018-05-07T22:34:59Z</time>
      </trkpt>
      <trkpt lat="44.04173" lon="7.20479">
        <ele>1914</ele>
        <time>2018-05-07T22:35:59Z</time>
      </trkpt>
      <trkpt lat="44.04171" lon="7.20479">
        <ele>1914</ele>
        <time>2018-05-07T22:36:59Z</time>
      </trkpt>
      <trkpt lat="44.04154" lon="7.20487">
        <ele>1920</ele>
        <time>2018-05-07T22:37:59Z</time>
      </trkpt>
      <trkpt lat="44.04146" lon="7.20488">
        <ele>1922</ele>
        <time>2018-05-07T22:38:59Z</time>
      </trkpt>
      <trkpt lat="44.04137" lon="7.20486">
        <ele>1923</ele>
        <time>2018-05-07T22:39:59Z</time>
      </trkpt>
      <trkpt lat="44.0413" lon="7.20482">
        <ele>1923</ele>
        <time>2018-05-07T22:40:59Z</time>
      </trkpt>
      <trkpt lat="44.0412" lon="7.20479">
        <ele>1923</ele>
        <time>2018-05-07T22:41:59Z</time>
      </trkpt>
      <trkpt lat="44.04105" lon="7.20481">
        <ele>1927</ele>
        <time>2018-05-07T22:42:59Z</time>
      </trkpt>
      <trkpt lat="44.0409" lon="7.20486">
        <ele>1932</ele>
        <time>2018-05-07T22:43:59Z</time>
      </trkpt>
      <trkpt lat="44.04088" lon="7.20486">
        <ele>1932</ele>
        <time>2018-05-07T22:44:59Z</time>
      </trkpt>
      <trkpt lat="44.04066" lon="7.20465">
        <ele>1929</ele>
        <time>2018-05-07T22:45:59Z</time>
      </trkpt>
      <trkpt lat="44.04062" lon="7.2046">
        <ele>1928</ele>
        <time>2018-05-07T22:46:59Z</time>
      </trkpt>
      <trkpt lat="44.04058" lon="7.20461">
        <ele>1930</ele>
        <time>2018-05-07T22:47:59Z</time>
      </trkpt>
      <trkpt lat="44.04057" lon="7.20461">
        <ele>1930</ele>
        <time>2018-05-07T22:48:59Z</time>
      </trkpt>
      <trkpt lat="44.04048" lon="7.20458">
        <ele>1932</ele>
        <time>2018-05-07T22:49:59Z</time>
      </trkpt>
      <trkpt lat="44.04045" lon="7.20457">
        <ele>1933</ele>
        <time>2018-05-07T22:50:59Z</time>
      </trkpt>
      <trkpt lat="44.04026" lon="7.20455">
        <ele>1939</ele>
        <time>2018-05-07T22:51:59Z</time>
      </trkpt>
      <trkpt lat="44.04022" lon="7.20455">
        <ele>1940</ele>
        <time>2018-05-07T22:52:59Z</time>
      </trkpt>
      <trkpt lat="44.04012" lon="7.2045">
        <ele>1942</ele>
        <time>2018-05-07T22:53:59Z</time>
      </trkpt>
      <trkpt lat="44.04011" lon="7.2045">
        <ele>1943</ele>
        <time>2018-05-07T22:54:59Z</time>
      </trkpt>
      <trkpt lat="44.04006" lon="7.20446">
        <ele>1943</ele>
        <time>2018-05-07T22:55:59Z</time>
      </trkpt>
      <trkpt lat="44.04003" lon="7.20444">
        <ele>1943</ele>
        <time>2018-05-07T22:56:59Z</time>
      </trkpt>
      <trkpt lat="44.03997" lon="7.20442">
        <ele>1944</ele>
        <time>2018-05-07T22:57:59Z</time>
      </trkpt>
      <trkpt lat="44.03991" lon="7.20439">
        <ele>1943</ele>
        <time>2018-05-07T22:58:59Z</time>
      </trkpt>
      <trkpt lat="44.03989" lon="7.20438">
        <ele>1943</ele>
        <time>2018-05-07T22:59:59Z</time>
      </trkpt>
      <trkpt lat="44.03986" lon="7.20435">
        <ele>1942</ele>
        <time>2018-05-07T23:00:59Z</time>
      </trkpt>
      <trkpt lat="44.03972" lon="7.20431">
        <ele>1941</ele>
        <time>2018-05-07T23:01:59Z</time>
      </trkpt>
      <trkpt lat="44.0397" lon="7.2043">
        <ele>1941</ele>
        <time>2018-05-07T23:02:59Z</time>
      </trkpt>
      <trkpt lat="44.03968" lon="7.20429">
        <ele>1941</ele>
        <time>2018-05-07T23:03:59Z</time>
      </trkpt>
      <trkpt lat="44.03958" lon="7.20421">
        <ele>1940</ele>
        <time>2018-05-07T23:04:59Z</time>
      </trkpt>
      <trkpt lat="44.03953" lon="7.20418">
        <ele>1939</ele>
        <time>2018-05-07T23:05:59Z</time>
      </trkpt>
      <trkpt lat="44.0395" lon="7.20417">
        <ele>1939</ele>
        <time>2018-05-07T23:06:59Z</time>
      </trkpt>
      <trkpt lat="44.03938" lon="7.20417">
        <ele>1940</ele>
        <time>2018-05-07T23:07:59Z</time>
      </trkpt>
      <trkpt lat="44.03937" lon="7.20417">
        <ele>1940</ele>
        <time>2018-05-07T23:08:59Z</time>
      </trkpt>
      <trkpt lat="44.03933" lon="7.20422">
        <ele>1942</ele>
        <time>2018-05-07T23:09:59Z</time>
      </trkpt>
      <trkpt lat="44.03931" lon="7.20428">
        <ele>1943</ele>
        <time>2018-05-07T23:10:59Z</time>
      </trkpt>
      <trkpt lat="44.0393" lon="7.20431">
        <ele>1944</ele>
        <time>2018-05-07T23:11:59Z</time>
      </trkpt>
      <trkpt lat="44.03926" lon="7.20461">
        <ele>1950</ele>
        <time>2018-05-07T23:12:59Z</time>
      </trkpt>
      <trkpt lat="44.03924" lon="7.20479">
        <ele>1953</ele>
        <time>2018-05-07T23:13:59Z</time>
      </trkpt>
      <trkpt lat="44.03924" lon="7.20495">
        <ele>1956</ele>
        <time>2018-05-07T23:14:59Z</time>
      </trkpt>
      <trkpt lat="44.03922" lon="7.20505">
        <ele>1958</ele>
        <time>2018-05-07T23:15:59Z</time>
      </trkpt>
      <trkpt lat="44.0391" lon="7.20529">
        <ele>1958</ele>
        <time>2018-05-07T23:16:59Z</time>
      </trkpt>
      <trkpt lat="44.03902" lon="7.20544">
        <ele>1957</ele>
        <time>2018-05-07T23:17:59Z</time>
      </trkpt>
      <trkpt lat="44.03889" lon="7.20567">
        <ele>1955</ele>
        <time>2018-05-07T23:18:59Z</time>
      </trkpt>
      <trkpt lat="44.03887" lon="7.20571">
        <ele>1955</ele>
        <time>2018-05-07T23:19:59Z</time>
      </trkpt>
      <trkpt lat="44.03881" lon="7.2058">
        <ele>1954</ele>
        <time>2018-05-07T23:20:59Z</time>
      </trkpt>
      <trkpt lat="44.03877" lon="7.20588">
        <ele>1953</ele>
        <time>2018-05-07T23:21:59Z</time>
      </trkpt>
      <trkpt lat="44.03864" lon="7.20626">
        <ele>1955</ele>
        <time>2018-05-07T23:22:59Z</time>
      </trkpt>
      <trkpt lat="44.03862" lon="7.20631">
        <ele>1955</ele>
        <time>2018-05-07T23:23:59Z</time>
      </trkpt>
      <trkpt lat="44.03861" lon="7.20638">
        <ele>1956</ele>
        <time>2018-05-07T23:24:59Z</time>
      </trkpt>
      <trkpt lat="44.0386" lon="7.20641">
        <ele>1956</ele>
        <time>2018-05-07T23:25:59Z</time>
      </trkpt>
      <trkpt lat="44.03856" lon="7.20647">
        <ele>1956</ele>
        <time>2018-05-07T23:26:59Z</time>
      </trkpt>
      <trkpt lat="44.03855" lon="7.2065">
        <ele>1956</ele>
        <time>2018-05-07T23:27:59Z</time>
      </trkpt>
      <trkpt lat="44.03854" lon="7.20652">
        <ele>1956</ele>
        <time>2018-05-07T23:28:59Z</time>
      </trkpt>
      <trkpt lat="44.03853" lon="7.20658">
        <ele>1957</ele>
        <time>2018-05-07T23:29:59Z</time>
      </trkpt>
      <trkpt lat="44.0385" lon="7.20665">
        <ele>1957</ele>
        <time>2018-05-07T23:30:59Z</time>
      </trkpt>
      <trkpt lat="44.03847" lon="7.20669">
        <ele>1957</ele>
        <time>2018-05-07T23:31:59Z</time>
      </trkpt>
      <trkpt lat="44.03837" lon="7.20694">
        <ele>1958</ele>
        <time>2018-05-07T23:32:59Z</time>
      </trkpt>
      <trkpt lat="44.03833" lon="7.20704">
        <ele>1959</ele>
        <time>2018-05-07T23:33:59Z</time>
      </trkpt>
      <trkpt lat="44.03829" lon="7.20721">
        <ele>1961</ele>
        <time>2018-05-07T23:34:59Z</time>
      </trkpt>
      <trkpt lat="44.03826" lon="7.20734">
        <ele>1963</ele>
        <time>2018-05-07T23:35:59Z</time>
      </trkpt>
      <trkpt lat="44.03825" lon="7.20743">
        <ele>1965</ele>
        <time>2018-05-07T23:36:59Z</time>
      </trkpt>
      <trkpt lat="44.03823" lon="7.2075">
        <ele>1966</ele>
        <time>2018-05-07T23:37:59Z</time>
      </trkpt>
      <trkpt lat="44.03811" lon="7.20777">
        <ele>1968</ele>
        <time>2018-05-07T23:38:59Z</time>
      </trkpt>
      <trkpt lat="44.0381" lon="7.2078">
        <ele>1968</ele>
        <time>2018-05-07T23:39:59Z</time>
      </trkpt>
      <trkpt lat="44.03801" lon="7.20798">
        <ele>1970</ele>
        <time>2018-05-07T23:40:59Z</time>
      </trkpt>
      <trkpt lat="44.03789" lon="7.20819">
        <ele>1971</ele>
        <time>2018-05-07T23:41:59Z</time>
      </trkpt>
      <trkpt lat="44.03774" lon="7.20843">
        <ele>1974</ele>
        <time>2018-05-07T23:42:59Z</time>
      </trkpt>
      <trkpt lat="44.03764" lon="7.2086">
        <ele>1978</ele>
        <time>2018-05-07T23:43:59Z</time>
      </trkpt>
      <trkpt lat="44.03763" lon="7.20863">
        <ele>1979</ele>
        <time>2018-05-07T23:44:59Z</time>
      </trkpt>
      <trkpt lat="44.03755" lon="7.20875">
        <ele>1982</ele>
        <time>2018-05-07T23:45:59Z</time>
      </trkpt>
      <trkpt lat="44.03753" lon="7.20877">
        <ele>1982</ele>
        <time>2018-05-07T23:46:59Z</time>
      </trkpt>
      <trkpt lat="44.0374" lon="7.20889">
        <ele>1984</ele>
        <time>2018-05-07T23:47:59Z</time>
      </trkpt>
      <trkpt lat="44.03733" lon="7.20892">
        <ele>1984</ele>
        <time>2018-05-07T23:48:59Z</time>
      </trkpt>
      <trkpt lat="44.03729" lon="7.20893">
        <ele>1984</ele>
        <time>2018-05-07T23:49:59Z</time>
      </trkpt>
      <trkpt lat="44.03722" lon="7.20893">
        <ele>1982</ele>
        <time>2018-05-07T23:50:59Z</time>
      </trkpt>
      <trkpt lat="44.03708" lon="7.20887">
        <ele>1976</ele>
        <time>2018-05-07T23:51:59Z</time>
      </trkpt>
      <trkpt lat="44.03703" lon="7.20887">
        <ele>1974</ele>
        <time>2018-05-07T23:52:59Z</time>
      </trkpt>
      <trkpt lat="44.03694" lon="7.20891">
        <ele>1974</ele>
        <time>2018-05-07T23:53:59Z</time>
      </trkpt>
      <trkpt lat="44.03681" lon="7.209">
        <ele>1976</ele>
        <time>2018-05-07T23:54:59Z</time>
      </trkpt>
      <trkpt lat="44.03677" lon="7.20902">
        <ele>1976</ele>
        <time>2018-05-07T23:55:59Z</time>
      </trkpt>
      <trkpt lat="44.03651" lon="7.20906">
        <ele>1969</ele>
        <time>2018-05-07T23:56:59Z</time>
      </trkpt>
      <trkpt lat="44.03638" lon="7.20909">
        <ele>1965</ele>
        <time>2018-05-07T23:57:59Z</time>
      </trkpt>
      <trkpt lat="44.03635" lon="7.20911">
        <ele>1965</ele>
        <time>2018-05-07T23:58:59Z</time>
      </trkpt>
      <trkpt lat="44.03632" lon="7.20914">
        <ele>1965</ele>
        <time>2018-05-07T23:59:59Z</time>
      </trkpt>
      <trkpt lat="44.03622" lon="7.2092">
        <ele>1965</ele>
        <time>2018-05-08T00:00:59Z</time>
      </trkpt>
      <trkpt lat="44.03613" lon="7.20925">
        <ele>1964</ele>
        <time>2018-05-08T00:01:59Z</time>
      </trkpt>
      <trkpt lat="44.03608" lon="7.20933">
        <ele>1966</ele>
        <time>2018-05-08T00:02:59Z</time>
      </trkpt>
      <trkpt lat="44.03608" lon="7.20941">
        <ele>1970</ele>
        <time>2018-05-08T00:03:59Z</time>
      </trkpt>
      <trkpt lat="44.03607" lon="7.20945">
        <ele>1972</ele>
        <time>2018-05-08T00:04:59Z</time>
      </trkpt>
      <trkpt lat="44.03604" lon="7.20956">
        <ele>1977</ele>
        <time>2018-05-08T00:05:59Z</time>
      </trkpt>
      <trkpt lat="44.03604" lon="7.20969">
        <ele>1984</ele>
        <time>2018-05-08T00:06:59Z</time>
      </trkpt>
      <trkpt lat="44.03602" lon="7.20971">
        <ele>1984</ele>
        <time>2018-05-08T00:07:59Z</time>
      </trkpt>
      <trkpt lat="44.03599" lon="7.20975">
        <ele>1985</ele>
        <time>2018-05-08T00:08:59Z</time>
      </trkpt>
      <trkpt lat="44.03592" lon="7.20981">
        <ele>1985</ele>
        <time>2018-05-08T00:09:59Z</time>
      </trkpt>
      <trkpt lat="44.0359" lon="7.20983">
        <ele>1985</ele>
        <time>2018-05-08T00:10:59Z</time>
      </trkpt>
      <trkpt lat="44.03585" lon="7.2099">
        <ele>1987</ele>
        <time>2018-05-08T00:11:59Z</time>
      </trkpt>
      <trkpt lat="44.03577" lon="7.21">
        <ele>1989</ele>
        <time>2018-05-08T00:12:59Z</time>
      </trkpt>
      <trkpt lat="44.03574" lon="7.21">
        <ele>1988</ele>
        <time>2018-05-08T00:13:59Z</time>
      </trkpt>
      <trkpt lat="44.03571" lon="7.21001">
        <ele>1987</ele>
        <time>2018-05-08T00:14:59Z</time>
      </trkpt>
      <trkpt lat="44.03565" lon="7.21001">
        <ele>1985</ele>
        <time>2018-05-08T00:15:59Z</time>
      </trkpt>
      <trkpt lat="44.03563" lon="7.21001">
        <ele>1984</ele>
        <time>2018-05-08T00:16:59Z</time>
      </trkpt>
      <trkpt lat="44.03552" lon="7.21014">
        <ele>1987</ele>
        <time>2018-05-08T00:17:59Z</time>
      </trkpt>
      <trkpt lat="44.03542" lon="7.21023">
        <ele>1989</ele>
        <time>2018-05-08T00:18:59Z</time>
      </trkpt>
      <trkpt lat="44.03532" lon="7.21026">
        <ele>1987</ele>
        <time>2018-05-08T00:19:59Z</time>
      </trkpt>
      <trkpt lat="44.0352" lon="7.21032">
        <ele>1987</ele>
        <time>2018-05-08T00:20:59Z</time>
      </trkpt>
      <trkpt lat="44.03508" lon="7.21041">
        <ele>1990</ele>
        <time>2018-05-08T00:21:59Z</time>
      </trkpt>
      <trkpt lat="44.03493" lon="7.21049">
        <ele>1991</ele>
        <time>2018-05-08T00:22:59Z</time>
      </trkpt>
      <trkpt lat="44.03483" lon="7.21056">
        <ele>1994</ele>
        <time>2018-05-08T00:23:59Z</time>
      </trkpt>
      <trkpt lat="44.03459" lon="7.21069">
        <ele>1997</ele>
        <time>2018-05-08T00:24:59Z</time>
      </trkpt>
      <trkpt lat="44.03457" lon="7.2107">
        <ele>1998</ele>
        <time>2018-05-08T00:25:59Z</time>
      </trkpt>
      <trkpt lat="44.03452" lon="7.21072">
        <ele>1998</ele>
        <time>2018-05-08T00:26:59Z</time>
      </trkpt>
      <trkpt lat="44.03447" lon="7.21073">
        <ele>1997</ele>
        <time>2018-05-08T00:27:59Z</time>
      </trkpt>
      <trkpt lat="44.03442" lon="7.21077">
        <ele>1999</ele>
        <time>2018-05-08T00:28:59Z</time>
      </trkpt>
      <trkpt lat="44.03439" lon="7.2108">
        <ele>2000</ele>
        <time>2018-05-08T00:29:59Z</time>
      </trkpt>
      <trkpt lat="44.03428" lon="7.21087">
        <ele>2002</ele>
        <time>2018-05-08T00:30:59Z</time>
      </trkpt>
      <trkpt lat="44.03426" lon="7.21089">
        <ele>2003</ele>
        <time>2018-05-08T00:31:59Z</time>
      </trkpt>
      <trkpt lat="44.03417" lon="7.21093">
        <ele>2004</ele>
        <time>2018-05-08T00:32:59Z</time>
      </trkpt>
      <trkpt lat="44.0341" lon="7.21096">
        <ele>2006</ele>
        <time>2018-05-08T00:33:59Z</time>
      </trkpt>
      <trkpt lat="44.034" lon="7.21099">
        <ele>2007</ele>
        <time>2018-05-08T00:34:59Z</time>
      </trkpt>
      <trkpt lat="44.03395" lon="7.21101">
        <ele>2008</ele>
        <time>2018-05-08T00:35:59Z</time>
      </trkpt>
      <trkpt lat="44.0339" lon="7.21104">
        <ele>2010</ele>
        <time>2018-05-08T00:36:59Z</time>
      </trkpt>
      <trkpt lat="44.03373" lon="7.21117">
        <ele>2017</ele>
        <time>2018-05-08T00:37:59Z</time>
      </trkpt>
      <trkpt lat="44.03369" lon="7.21119">
        <ele>2018</ele>
        <time>2018-05-08T00:38:59Z</time>
      </trkpt>
      <trkpt lat="44.03363" lon="7.21121">
        <ele>2018</ele>
        <time>2018-05-08T00:39:59Z</time>
      </trkpt>
      <trkpt lat="44.03348" lon="7.21122">
        <ele>2017</ele>
        <time>2018-05-08T00:40:59Z</time>
      </trkpt>
      <trkpt lat="44.03342" lon="7.2112">
        <ele>2015</ele>
        <time>2018-05-08T00:41:59Z</time>
      </trkpt>
      <trkpt lat="44.03338" lon="7.21119">
        <ele>2014</ele>
        <time>2018-05-08T00:42:59Z</time>
      </trkpt>
      <trkpt lat="44.03331" lon="7.21115">
        <ele>2011</ele>
        <time>2018-05-08T00:43:59Z</time>
      </trkpt>
      <trkpt lat="44.03327" lon="7.21112">
        <ele>2008</ele>
        <time>2018-05-08T00:44:59Z</time>
      </trkpt>
      <trkpt lat="44.0332" lon="7.21105">
        <ele>2003</ele>
        <time>2018-05-08T00:45:59Z</time>
      </trkpt>
      <trkpt lat="44.03316" lon="7.21101">
        <ele>2000</ele>
        <time>2018-05-08T00:46:59Z</time>
      </trkpt>
      <trkpt lat="44.03311" lon="7.211">
        <ele>1998</ele>
        <time>2018-05-08T00:47:59Z</time>
      </trkpt>
      <trkpt lat="44.03298" lon="7.21099">
        <ele>1995</ele>
        <time>2018-05-08T00:48:59Z</time>
      </trkpt>
      <trkpt lat="44.03281" lon="7.21105">
        <ele>1995</ele>
        <time>2018-05-08T00:49:59Z</time>
      </trkpt>
      <trkpt lat="44.03263" lon="7.21117">
        <ele>1997</ele>
        <time>2018-05-08T00:50:59Z</time>
      </trkpt>
      <trkpt lat="44.03255" lon="7.21124">
        <ele>1997</ele>
        <time>2018-05-08T00:51:59Z</time>
      </trkpt>
      <trkpt lat="44.03244" lon="7.21139">
        <ele>1999</ele>
        <time>2018-05-08T00:52:59Z</time>
      </trkpt>
      <trkpt lat="44.03239" lon="7.21148">
        <ele>1999</ele>
        <time>2018-05-08T00:53:59Z</time>
      </trkpt>
      <trkpt lat="44.03231" lon="7.21159">
        <ele>1998</ele>
        <time>2018-05-08T00:54:59Z</time>
      </trkpt>
      <trkpt lat="44.03212" lon="7.21193">
        <ele>1989</ele>
        <time>2018-05-08T00:55:59Z</time>
      </trkpt>
      <trkpt lat="44.03204" lon="7.21214">
        <ele>1985</ele>
        <time>2018-05-08T00:56:59Z</time>
      </trkpt>
      <trkpt lat="44.03203" lon="7.21223">
        <ele>1985</ele>
        <time>2018-05-08T00:57:59Z</time>
      </trkpt>
      <trkpt lat="44.03202" lon="7.21233">
        <ele>1985</ele>
        <time>2018-05-08T00:58:59Z</time>
      </trkpt>
      <trkpt lat="44.03202" lon="7.21242">
        <ele>1986</ele>
        <time>2018-05-08T00:59:59Z</time>
      </trkpt>
      <trkpt lat="44.0321" lon="7.21291">
        <ele>1987</ele>
        <time>2018-05-08T01:00:59Z</time>
      </trkpt>
      <trkpt lat="44.03211" lon="7.21297">
        <ele>1987</ele>
        <time>2018-05-08T01:01:59Z</time>
      </trkpt>
      <trkpt lat="44.0321" lon="7.21309">
        <ele>1985</ele>
        <time>2018-05-08T01:02:59Z</time>
      </trkpt>
      <trkpt lat="44.0321" lon="7.21316">
        <ele>1984</ele>
        <time>2018-05-08T01:03:59Z</time>
      </trkpt>
      <trkpt lat="44.03211" lon="7.21332">
        <ele>1983</ele>
        <time>2018-05-08T01:04:59Z</time>
      </trkpt>
      <trkpt lat="44.03212" lon="7.21341">
        <ele>1982</ele>
        <time>2018-05-08T01:05:59Z</time>
      </trkpt>
      <trkpt lat="44.03213" lon="7.21381">
        <ele>1973</ele>
        <time>2018-05-08T01:06:59Z</time>
      </trkpt>
      <trkpt lat="44.03213" lon="7.21387">
        <ele>1972</ele>
        <time>2018-05-08T01:07:59Z</time>
      </trkpt>
      <trkpt lat="44.03212" lon="7.214">
        <ele>1968</ele>
        <time>2018-05-08T01:08:59Z</time>
      </trkpt>
      <trkpt lat="44.0321" lon="7.21407">
        <ele>1966</ele>
        <time>2018-05-08T01:09:59Z</time>
      </trkpt>
      <trkpt lat="44.03209" lon="7.21432">
        <ele>1960</ele>
        <time>2018-05-08T01:10:59Z</time>
      </trkpt>
      <trkpt lat="44.03208" lon="7.21439">
        <ele>1958</ele>
        <time>2018-05-08T01:11:59Z</time>
      </trkpt>
      <trkpt lat="44.03209" lon="7.21446">
        <ele>1957</ele>
        <time>2018-05-08T01:12:59Z</time>
      </trkpt>
      <trkpt lat="44.03211" lon="7.21461">
        <ele>1954</ele>
        <time>2018-05-08T01:13:59Z</time>
      </trkpt>
      <trkpt lat="44.03212" lon="7.21469">
        <ele>1953</ele>
        <time>2018-05-08T01:14:59Z</time>
      </trkpt>
      <trkpt lat="44.03213" lon="7.21477">
        <ele>1951</ele>
        <time>2018-05-08T01:15:59Z</time>
      </trkpt>
      <trkpt lat="44.03212" lon="7.21483">
        <ele>1950</ele>
        <time>2018-05-08T01:16:59Z</time>
      </trkpt>
      <trkpt lat="44.03209" lon="7.2149">
        <ele>1947</ele>
        <time>2018-05-08T01:17:59Z</time>
      </trkpt>
      <trkpt lat="44.03205" lon="7.21497">
        <ele>1945</ele>
        <time>2018-05-08T01:18:59Z</time>
      </trkpt>
      <trkpt lat="44.03201" lon="7.21503">
        <ele>1943</ele>
        <time>2018-05-08T01:19:59Z</time>
      </trkpt>
      <trkpt lat="44.03193" lon="7.21513">
        <ele>1942</ele>
        <time>2018-05-08T01:20:59Z</time>
      </trkpt>
      <trkpt lat="44.03186" lon="7.21522">
        <ele>1941</ele>
        <time>2018-05-08T01:21:59Z</time>
      </trkpt>
      <trkpt lat="44.03184" lon="7.21534">
        <ele>1942</ele>
        <time>2018-05-08T01:22:59Z</time>
      </trkpt>
      <trkpt lat="44.03183" lon="7.21539">
        <ele>1942</ele>
        <time>2018-05-08T01:23:59Z</time>
      </trkpt>
      <trkpt lat="44.03178" lon="7.21546">
        <ele>1943</ele>
        <time>2018-05-08T01:24:59Z</time>
      </trkpt>
      <trkpt lat="44.03173" lon="7.21551">
        <ele>1944</ele>
        <time>2018-05-08T01:25:59Z</time>
      </trkpt>
      <trkpt lat="44.0316" lon="7.21567">
        <ele>1945</ele>
        <time>2018-05-08T01:26:59Z</time>
      </trkpt>
      <trkpt lat="44.03154" lon="7.21574">
        <ele>1944</ele>
        <time>2018-05-08T01:27:59Z</time>
      </trkpt>
      <trkpt lat="44.03144" lon="7.21581">
        <ele>1942</ele>
        <time>2018-05-08T01:28:59Z</time>
      </trkpt>
      <trkpt lat="44.0313" lon="7.21595">
        <ele>1941</ele>
        <time>2018-05-08T01:29:59Z</time>
      </trkpt>
      <trkpt lat="44.0312" lon="7.21603">
        <ele>1941</ele>
        <time>2018-05-08T01:30:59Z</time>
      </trkpt>
      <trkpt lat="44.03102" lon="7.21621">
        <ele>1943</ele>
        <time>2018-05-08T01:31:59Z</time>
      </trkpt>
      <trkpt lat="44.03094" lon="7.21631">
        <ele>1946</ele>
        <time>2018-05-08T01:32:59Z</time>
      </trkpt>
      <trkpt lat="44.0309" lon="7.21635">
        <ele>1947</ele>
        <time>2018-05-08T01:33:59Z</time>
      </trkpt>
      <trkpt lat="44.03085" lon="7.21639">
        <ele>1949</ele>
        <time>2018-05-08T01:34:59Z</time>
      </trkpt>
      <trkpt lat="44.03079" lon="7.21642">
        <ele>1947</ele>
        <time>2018-05-08T01:35:59Z</time>
      </trkpt>
      <trkpt lat="44.03042" lon="7.21651">
        <ele>1932</ele>
        <time>2018-05-08T01:36:59Z</time>
      </trkpt>
      <trkpt lat="44.03037" lon="7.21654">
        <ele>1931</ele>
        <time>2018-05-08T01:37:59Z</time>
      </trkpt>
      <trkpt lat="44.03029" lon="7.21664">
        <ele>1931</ele>
        <time>2018-05-08T01:38:59Z</time>
      </trkpt>
      <trkpt lat="44.03026" lon="7.21669">
        <ele>1932</ele>
        <time>2018-05-08T01:39:59Z</time>
      </trkpt>
      <trkpt lat="44.03024" lon="7.21674">
        <ele>1934</ele>
        <time>2018-05-08T01:40:59Z</time>
      </trkpt>
      <trkpt lat="44.03022" lon="7.2168">
        <ele>1936</ele>
        <time>2018-05-08T01:41:59Z</time>
      </trkpt>
      <trkpt lat="44.03021" lon="7.21685">
        <ele>1938</ele>
        <time>2018-05-08T01:42:59Z</time>
      </trkpt>
      <trkpt lat="44.03017" lon="7.21698">
        <ele>1943</ele>
        <time>2018-05-08T01:43:59Z</time>
      </trkpt>
      <trkpt lat="44.03015" lon="7.21701">
        <ele>1943</ele>
        <time>2018-05-08T01:44:59Z</time>
      </trkpt>
      <trkpt lat="44.03007" lon="7.2171">
        <ele>1944</ele>
        <time>2018-05-08T01:45:59Z</time>
      </trkpt>
      <trkpt lat="44.03" lon="7.21718">
        <ele>1945</ele>
        <time>2018-05-08T01:46:59Z</time>
      </trkpt>
      <trkpt lat="44.02994" lon="7.21722">
        <ele>1945</ele>
        <time>2018-05-08T01:47:59Z</time>
      </trkpt>
      <trkpt lat="44.02991" lon="7.2172">
        <ele>1943</ele>
        <time>2018-05-08T01:48:59Z</time>
      </trkpt>
      <trkpt lat="44.02986" lon="7.21719">
        <ele>1940</ele>
        <time>2018-05-08T01:49:59Z</time>
      </trkpt>
      <trkpt lat="44.02982" lon="7.21718">
        <ele>1939</ele>
        <time>2018-05-08T01:50:59Z</time>
      </trkpt>
      <trkpt lat="44.0298" lon="7.21718">
        <ele>1938</ele>
        <time>2018-05-08T01:51:59Z</time>
      </trkpt>
      <trkpt lat="44.02971" lon="7.21727">
        <ele>1940</ele>
        <time>2018-05-08T01:52:59Z</time>
      </trkpt>
      <trkpt lat="44.02962" lon="7.21732">
        <ele>1939</ele>
        <time>2018-05-08T01:53:59Z</time>
      </trkpt>
      <trkpt lat="44.02952" lon="7.21744">
        <ele>1942</ele>
        <time>2018-05-08T01:54:59Z</time>
      </trkpt>
      <trkpt lat="44.02945" lon="7.21749">
        <ele>1942</ele>
        <time>2018-05-08T01:55:59Z</time>
      </trkpt>
      <trkpt lat="44.0294" lon="7.21751">
        <ele>1941</ele>
        <time>2018-05-08T01:56:59Z</time>
      </trkpt>
      <trkpt lat="44.02929" lon="7.21753">
        <ele>1938</ele>
        <time>2018-05-08T01:57:59Z</time>
      </trkpt>
      <trkpt lat="44.02921" lon="7.21755">
        <ele>1936</ele>
        <time>2018-05-08T01:58:59Z</time>
      </trkpt>
      <trkpt lat="44.02919" lon="7.21756">
        <ele>1936</ele>
        <time>2018-05-08T01:59:59Z</time>
      </trkpt>
      <trkpt lat="44.02919" lon="7.21757">
        <ele>1936</ele>
        <time>2018-05-08T02:00:59Z</time>
      </trkpt>
      <trkpt lat="44.02905" lon="7.21755">
        <ele>1928</ele>
        <time>2018-05-08T02:01:59Z</time>
      </trkpt>
      <trkpt lat="44.02904" lon="7.21755">
        <ele>1927</ele>
        <time>2018-05-08T02:02:59Z</time>
      </trkpt>
      <trkpt lat="44.029" lon="7.21759">
        <ele>1926</ele>
        <time>2018-05-08T02:03:59Z</time>
      </trkpt>
      <trkpt lat="44.02895" lon="7.21772">
        <ele>1928</ele>
        <time>2018-05-08T02:04:59Z</time>
      </trkpt>
      <trkpt lat="44.02893" lon="7.21779">
        <ele>1929</ele>
        <time>2018-05-08T02:05:59Z</time>
      </trkpt>
      <trkpt lat="44.02891" lon="7.21796">
        <ele>1933</ele>
        <time>2018-05-08T02:06:59Z</time>
      </trkpt>
      <trkpt lat="44.02892" lon="7.21803">
        <ele>1936</ele>
        <time>2018-05-08T02:07:59Z</time>
      </trkpt>
      <trkpt lat="44.02891" lon="7.21808">
        <ele>1937</ele>
        <time>2018-05-08T02:08:59Z</time>
      </trkpt>
      <trkpt lat="44.02885" lon="7.21818">
        <ele>1937</ele>
        <time>2018-05-08T02:09:59Z</time>
      </trkpt>
      <trkpt lat="44.02872" lon="7.21836">
        <ele>1936</ele>
        <time>2018-05-08T02:10:59Z</time>
      </trkpt>
      <trkpt lat="44.02868" lon="7.21839">
        <ele>1935</ele>
        <time>2018-05-08T02:11:59Z</time>
      </trkpt>
      <trkpt lat="44.0286" lon="7.21845">
        <ele>1933</ele>
        <time>2018-05-08T02:12:59Z</time>
      </trkpt>
      <trkpt lat="44.02858" lon="7.21847">
        <ele>1933</ele>
        <time>2018-05-08T02:13:59Z</time>
      </trkpt>
      <trkpt lat="44.02855" lon="7.21848">
        <ele>1931</ele>
        <time>2018-05-08T02:14:59Z</time>
      </trkpt>
      <trkpt lat="44.02849" lon="7.2185">
        <ele>1929</ele>
        <time>2018-05-08T02:15:59Z</time>
      </trkpt>
      <trkpt lat="44.02836" lon="7.21856">
        <ele>1924</ele>
        <time>2018-05-08T02:16:59Z</time>
      </trkpt>
      <trkpt lat="44.02819" lon="7.21869">
        <ele>1919</ele>
        <time>2018-05-08T02:17:59Z</time>
      </trkpt>
      <trkpt lat="44.02809" lon="7.21889">
        <ele>1919</ele>
        <time>2018-05-08T02:18:59Z</time>
      </trkpt>
      <trkpt lat="44.02806" lon="7.219">
        <ele>1921</ele>
        <time>2018-05-08T02:19:59Z</time>
      </trkpt>
      <trkpt lat="44.02801" lon="7.21917">
        <ele>1924</ele>
        <time>2018-05-08T02:20:59Z</time>
      </trkpt>
      <trkpt lat="44.02785" lon="7.21952">
        <ele>1924</ele>
        <time>2018-05-08T02:21:59Z</time>
      </trkpt>
      <trkpt lat="44.02777" lon="7.21967">
        <ele>1924</ele>
        <time>2018-05-08T02:22:59Z</time>
      </trkpt>
      <trkpt lat="44.02761" lon="7.21992">
        <ele>1923</ele>
        <time>2018-05-08T02:23:59Z</time>
      </trkpt>
      <trkpt lat="44.02756" lon="7.21998">
        <ele>1923</ele>
        <time>2018-05-08T02:24:59Z</time>
      </trkpt>
      <trkpt lat="44.02738" lon="7.22016">
        <ele>1921</ele>
        <time>2018-05-08T02:25:59Z</time>
      </trkpt>
      <trkpt lat="44.02705" lon="7.22054">
        <ele>1915</ele>
        <time>2018-05-08T02:26:59Z</time>
      </trkpt>
      <trkpt lat="44.02698" lon="7.22067">
        <ele>1915</ele>
        <time>2018-05-08T02:27:59Z</time>
      </trkpt>
      <trkpt lat="44.02695" lon="7.22075">
        <ele>1915</ele>
        <time>2018-05-08T02:28:59Z</time>
      </trkpt>
      <trkpt lat="44.02692" lon="7.22092">
        <ele>1915</ele>
        <time>2018-05-08T02:29:59Z</time>
      </trkpt>
      <trkpt lat="44.0269" lon="7.22112">
        <ele>1913</ele>
        <time>2018-05-08T02:30:59Z</time>
      </trkpt>
      <trkpt lat="44.02688" lon="7.22132">
        <ele>1912</ele>
        <time>2018-05-08T02:31:59Z</time>
      </trkpt>
      <trkpt lat="44.02683" lon="7.22149">
        <ele>1911</ele>
        <time>2018-05-08T02:32:59Z</time>
      </trkpt>
      <trkpt lat="44.02679" lon="7.22165">
        <ele>1910</ele>
        <time>2018-05-08T02:33:59Z</time>
      </trkpt>
      <trkpt lat="44.02679" lon="7.2218">
        <ele>1909</ele>
        <time>2018-05-08T02:34:59Z</time>
      </trkpt>
      <trkpt lat="44.0268" lon="7.22196">
        <ele>1908</ele>
        <time>2018-05-08T02:35:59Z</time>
      </trkpt>
      <trkpt lat="44.02683" lon="7.22221">
        <ele>1906</ele>
        <time>2018-05-08T02:36:59Z</time>
      </trkpt>
      <trkpt lat="44.02681" lon="7.22238">
        <ele>1905</ele>
        <time>2018-05-08T02:37:59Z</time>
      </trkpt>
      <trkpt lat="44.02679" lon="7.22245">
        <ele>1905</ele>
        <time>2018-05-08T02:38:59Z</time>
      </trkpt>
      <trkpt lat="44.02669" lon="7.22268">
        <ele>1907</ele>
        <time>2018-05-08T02:39:59Z</time>
      </trkpt>
      <trkpt lat="44.02667" lon="7.22273">
        <ele>1908</ele>
        <time>2018-05-08T02:40:59Z</time>
      </trkpt>
      <trkpt lat="44.02659" lon="7.22286">
        <ele>1909</ele>
        <time>2018-05-08T02:41:59Z</time>
      </trkpt>
      <trkpt lat="44.02652" lon="7.22301">
        <ele>1911</ele>
        <time>2018-05-08T02:42:59Z</time>
      </trkpt>
      <trkpt lat="44.0265" lon="7.22306">
        <ele>1912</ele>
        <time>2018-05-08T02:43:59Z</time>
      </trkpt>
      <trkpt lat="44.02647" lon="7.22311">
        <ele>1913</ele>
        <time>2018-05-08T02:44:59Z</time>
      </trkpt>
      <trkpt lat="44.02635" lon="7.22324">
        <ele>1915</ele>
        <time>2018-05-08T02:45:59Z</time>
      </trkpt>
      <trkpt lat="44.02623" lon="7.22333">
        <ele>1917</ele>
        <time>2018-05-08T02:46:59Z</time>
      </trkpt>
      <trkpt lat="44.02615" lon="7.22341">
        <ele>1920</ele>
        <time>2018-05-08T02:47:59Z</time>
      </trkpt>
      <trkpt lat="44.02609" lon="7.22345">
        <ele>1921</ele>
        <time>2018-05-08T02:48:59Z</time>
      </trkpt>
      <trkpt lat="44.02601" lon="7.22351">
        <ele>1923</ele>
        <time>2018-05-08T02:49:59Z</time>
      </trkpt>
      <trkpt lat="44.02594" lon="7.22356">
        <ele>1925</ele>
        <time>2018-05-08T02:50:59Z</time>
      </trkpt>
      <trkpt lat="44.02579" lon="7.2237">
        <ele>1929</ele>
        <time>2018-05-08T02:51:59Z</time>
      </trkpt>
      <trkpt lat="44.02578" lon="7.2237">
        <ele>1928</ele>
        <time>2018-05-08T02:52:59Z</time>
      </trkpt>
      <trkpt lat="44.02578" lon="7.22371">
        <ele>1929</ele>
        <time>2018-05-08T02:53:59Z</time>
      </trkpt>
      <trkpt lat="44.02576" lon="7.22371">
        <ele>1928</ele>
        <time>2018-05-08T02:54:59Z</time>
      </trkpt>
      <trkpt lat="44.02576" lon="7.22371">
        <ele>1928</ele>
        <time>2018-05-08T02:55:59Z</time>
      </trkpt>
      <trkpt lat="44.02561" lon="7.22384">
        <ele>1929</ele>
        <time>2018-05-08T02:56:59Z</time>
      </trkpt>
      <trkpt lat="44.02545" lon="7.22395">
        <ele>1929</ele>
        <time>2018-05-08T02:57:59Z</time>
      </trkpt>
      <trkpt lat="44.02535" lon="7.22403">
        <ele>1928</ele>
        <time>2018-05-08T02:58:59Z</time>
      </trkpt>
      <trkpt lat="44.02519" lon="7.22418">
        <ele>1928</ele>
        <time>2018-05-08T02:59:59Z</time>
      </trkpt>
      <trkpt lat="44.02515" lon="7.22421">
        <ele>1927</ele>
        <time>2018-05-08T03:00:59Z</time>
      </trkpt>
      <trkpt lat="44.02511" lon="7.22425">
        <ele>1927</ele>
        <time>2018-05-08T03:01:59Z</time>
      </trkpt>
      <trkpt lat="44.02505" lon="7.22435">
        <ele>1926</ele>
        <time>2018-05-08T03:02:59Z</time>
      </trkpt>
      <trkpt lat="44.02502" lon="7.22444">
        <ele>1927</ele>
        <time>2018-05-08T03:03:59Z</time>
      </trkpt>
      <trkpt lat="44.02502" lon="7.22476">
        <ele>1931</ele>
        <time>2018-05-08T03:04:59Z</time>
      </trkpt>
      <trkpt lat="44.02502" lon="7.22491">
        <ele>1932</ele>
        <time>2018-05-08T03:05:59Z</time>
      </trkpt>
      <trkpt lat="44.02502" lon="7.22513">
        <ele>1935</ele>
        <time>2018-05-08T03:06:59Z</time>
      </trkpt>
      <trkpt lat="44.02501" lon="7.22524">
        <ele>1936</ele>
        <time>2018-05-08T03:07:59Z</time>
      </trkpt>
      <trkpt lat="44.02497" lon="7.22558">
        <ele>1938</ele>
        <time>2018-05-08T03:08:59Z</time>
      </trkpt>
      <trkpt lat="44.02497" lon="7.22561">
        <ele>1938</ele>
        <time>2018-05-08T03:09:59Z</time>
      </trkpt>
      <trkpt lat="44.02494" lon="7.22573">
        <ele>1938</ele>
        <time>2018-05-08T03:10:59Z</time>
      </trkpt>
      <trkpt lat="44.02494" lon="7.22575">
        <ele>1938</ele>
        <time>2018-05-08T03:11:59Z</time>
      </trkpt>
      <trkpt lat="44.02488" lon="7.22598">
        <ele>1937</ele>
        <time>2018-05-08T03:12:59Z</time>
      </trkpt>
      <trkpt lat="44.02487" lon="7.226">
        <ele>1937</ele>
        <time>2018-05-08T03:13:59Z</time>
      </trkpt>
      <trkpt lat="44.02478" lon="7.22624">
        <ele>1934</ele>
        <time>2018-05-08T03:14:59Z</time>
      </trkpt>
      <trkpt lat="44.02474" lon="7.22639">
        <ele>1933</ele>
        <time>2018-05-08T03:15:59Z</time>
      </trkpt>
      <trkpt lat="44.02467" lon="7.22675">
        <ele>1931</ele>
        <time>2018-05-08T03:16:59Z</time>
      </trkpt>
      <trkpt lat="44.02465" lon="7.22692">
        <ele>1930</ele>
        <time>2018-05-08T03:17:59Z</time>
      </trkpt>
      <trkpt lat="44.02462" lon="7.227">
        <ele>1929</ele>
        <time>2018-05-08T03:18:59Z</time>
      </trkpt>
      <trkpt lat="44.02457" lon="7.22713">
        <ele>1928</ele>
        <time>2018-05-08T03:19:59Z</time>
      </trkpt>
      <trkpt lat="44.02443" lon="7.22739">
        <ele>1930</ele>
        <time>2018-05-08T03:20:59Z</time>
      </trkpt>
      <trkpt lat="44.02429" lon="7.22763">
        <ele>1933</ele>
        <time>2018-05-08T03:21:59Z</time>
      </trkpt>
      <trkpt lat="44.02425" lon="7.22768">
        <ele>1934</ele>
        <time>2018-05-08T03:22:59Z</time>
      </trkpt>
      <trkpt lat="44.02403" lon="7.22793">
        <ele>1933</ele>
        <time>2018-05-08T03:23:59Z</time>
      </trkpt>
      <trkpt lat="44.02399" lon="7.22801">
        <ele>1933</ele>
        <time>2018-05-08T03:24:59Z</time>
      </trkpt>
      <trkpt lat="44.02395" lon="7.22816">
        <ele>1934</ele>
        <time>2018-05-08T03:25:59Z</time>
      </trkpt>
      <trkpt lat="44.02392" lon="7.22835">
        <ele>1936</ele>
        <time>2018-05-08T03:26:59Z</time>
      </trkpt>
      <trkpt lat="44.02391" lon="7.22843">
        <ele>1936</ele>
        <time>2018-05-08T03:27:59Z</time>
      </trkpt>
      <trkpt lat="44.02389" lon="7.22855">
        <ele>1935</ele>
        <time>2018-05-08T03:28:59Z</time>
      </trkpt>
      <trkpt lat="44.02386" lon="7.22864">
        <ele>1935</ele>
        <time>2018-05-08T03:29:59Z</time>
      </trkpt>
      <trkpt lat="44.02384" lon="7.2287">
        <ele>1935</ele>
        <time>2018-05-08T03:30:59Z</time>
      </trkpt>
      <trkpt lat="44.02381" lon="7.22878">
        <ele>1935</ele>
        <time>2018-05-08T03:31:59Z</time>
      </trkpt>
      <trkpt lat="44.02365" lon="7.22901">
        <ele>1936</ele>
        <time>2018-05-08T03:32:59Z</time>
      </trkpt>
      <trkpt lat="44.02358" lon="7.22909">
        <ele>1937</ele>
        <time>2018-05-08T03:33:59Z</time>
      </trkpt>
      <trkpt lat="44.02347" lon="7.2292">
        <ele>1939</ele>
        <time>2018-05-08T03:34:59Z</time>
      </trkpt>
      <trkpt lat="44.02335" lon="7.22937">
        <ele>1940</ele>
        <time>2018-05-08T03:35:59Z</time>
      </trkpt>
      <trkpt lat="44.02316" lon="7.2295">
        <ele>1935</ele>
        <time>2018-05-08T03:36:59Z</time>
      </trkpt>
      <trkpt lat="44.02312" lon="7.22954">
        <ele>1934</ele>
        <time>2018-05-08T03:37:59Z</time>
      </trkpt>
      <trkpt lat="44.02305" lon="7.22972">
        <ele>1934</ele>
        <time>2018-05-08T03:38:59Z</time>
      </trkpt>
      <trkpt lat="44.02294" lon="7.23004">
        <ele>1934</ele>
        <time>2018-05-08T03:39:59Z</time>
      </trkpt>
      <trkpt lat="44.02286" lon="7.23022">
        <ele>1931</ele>
        <time>2018-05-08T03:40:59Z</time>
      </trkpt>
      <trkpt lat="44.02283" lon="7.23028">
        <ele>1930</ele>
        <time>2018-05-08T03:41:59Z</time>
      </trkpt>
      <trkpt lat="44.02267" lon="7.23048">
        <ele>1930</ele>
        <time>2018-05-08T03:42:59Z</time>
      </trkpt>
      <trkpt lat="44.02264" lon="7.23051">
        <ele>1931</ele>
        <time>2018-05-08T03:43:59Z</time>
      </trkpt>
      <trkpt lat="44.0225" lon="7.23058">
        <ele>1935</ele>
        <time>2018-05-08T03:44:59Z</time>
      </trkpt>
      <trkpt lat="44.02242" lon="7.23064">
        <ele>1934</ele>
        <time>2018-05-08T03:45:59Z</time>
      </trkpt>
      <trkpt lat="44.02235" lon="7.2307">
        <ele>1934</ele>
        <time>2018-05-08T03:46:59Z</time>
      </trkpt>
      <trkpt lat="44.0223" lon="7.23072">
        <ele>1933</ele>
        <time>2018-05-08T03:47:59Z</time>
      </trkpt>
      <trkpt lat="44.02225" lon="7.23074">
        <ele>1933</ele>
        <time>2018-05-08T03:48:59Z</time>
      </trkpt>
      <trkpt lat="44.02213" lon="7.2308">
        <ele>1933</ele>
        <time>2018-05-08T03:49:59Z</time>
      </trkpt>
      <trkpt lat="44.02201" lon="7.23086">
        <ele>1932</ele>
        <time>2018-05-08T03:50:59Z</time>
      </trkpt>
      <trkpt lat="44.02195" lon="7.23088">
        <ele>1931</ele>
        <time>2018-05-08T03:51:59Z</time>
      </trkpt>
      <trkpt lat="44.02185" lon="7.23089">
        <ele>1930</ele>
        <time>2018-05-08T03:52:59Z</time>
      </trkpt>
      <trkpt lat="44.0218" lon="7.2309">
        <ele>1930</ele>
        <time>2018-05-08T03:53:59Z</time>
      </trkpt>
      <trkpt lat="44.02176" lon="7.23092">
        <ele>1929</ele>
        <time>2018-05-08T03:54:59Z</time>
      </trkpt>
      <trkpt lat="44.02168" lon="7.23096">
        <ele>1929</ele>
        <time>2018-05-08T03:55:59Z</time>
      </trkpt>
      <trkpt lat="44.02153" lon="7.23105">
        <ele>1927</ele>
        <time>2018-05-08T03:56:59Z</time>
      </trkpt>
      <trkpt lat="44.02147" lon="7.23109">
        <ele>1927</ele>
        <time>2018-05-08T03:57:59Z</time>
      </trkpt>
      <trkpt lat="44.02125" lon="7.23111">
        <ele>1925</ele>
        <time>2018-05-08T03:58:59Z</time>
      </trkpt>
      <trkpt lat="44.02113" lon="7.23113">
        <ele>1925</ele>
        <time>2018-05-08T03:59:59Z</time>
      </trkpt>
      <trkpt lat="44.02087" lon="7.2313">
        <ele>1928</ele>
        <time>2018-05-08T04:00:59Z</time>
      </trkpt>
      <trkpt lat="44.02084" lon="7.23131">
        <ele>1929</ele>
        <time>2018-05-08T04:01:59Z</time>
      </trkpt>
      <trkpt lat="44.02074" lon="7.23133">
        <ele>1928</ele>
        <time>2018-05-08T04:02:59Z</time>
      </trkpt>
      <trkpt lat="44.0207" lon="7.23135">
        <ele>1928</ele>
        <time>2018-05-08T04:03:59Z</time>
      </trkpt>
      <trkpt lat="44.02061" lon="7.23141">
        <ele>1928</ele>
        <time>2018-05-08T04:04:59Z</time>
      </trkpt>
      <trkpt lat="44.02048" lon="7.23152">
        <ele>1931</ele>
        <time>2018-05-08T04:05:59Z</time>
      </trkpt>
      <trkpt lat="44.02039" lon="7.23157">
        <ele>1932</ele>
        <time>2018-05-08T04:06:59Z</time>
      </trkpt>
      <trkpt lat="44.02031" lon="7.23162">
        <ele>1933</ele>
        <time>2018-05-08T04:07:59Z</time>
      </trkpt>
      <trkpt lat="44.02017" lon="7.23173">
        <ele>1934</ele>
        <time>2018-05-08T04:08:59Z</time>
      </trkpt>
      <trkpt lat="44.02009" lon="7.23177">
        <ele>1934</ele>
        <time>2018-05-08T04:09:59Z</time>
      </trkpt>
      <trkpt lat="44.01992" lon="7.23178">
        <ele>1935</ele>
        <time>2018-05-08T04:10:59Z</time>
      </trkpt>
      <trkpt lat="44.01982" lon="7.23177">
        <ele>1935</ele>
        <time>2018-05-08T04:11:59Z</time>
      </trkpt>
      <trkpt lat="44.0198" lon="7.23178">
        <ele>1935</ele>
        <time>2018-05-08T04:12:59Z</time>
      </trkpt>
      <trkpt lat="44.01968" lon="7.2318">
        <ele>1936</ele>
        <time>2018-05-08T04:13:59Z</time>
      </trkpt>
      <trkpt lat="44.01965" lon="7.23182">
        <ele>1937</ele>
        <time>2018-05-08T04:14:59Z</time>
      </trkpt>
      <trkpt lat="44.01954" lon="7.23182">
        <ele>1937</ele>
        <time>2018-05-08T04:15:59Z</time>
      </trkpt>
      <trkpt lat="44.0194" lon="7.23185">
        <ele>1939</ele>
        <time>2018-05-08T04:16:59Z</time>
      </trkpt>
      <trkpt lat="44.01935" lon="7.23185">
        <ele>1939</ele>
        <time>2018-05-08T04:17:59Z</time>
      </trkpt>
      <trkpt lat="44.0193" lon="7.23187">
        <ele>1940</ele>
        <time>2018-05-08T04:18:59Z</time>
      </trkpt>
      <trkpt lat="44.01922" lon="7.23188">
        <ele>1941</ele>
        <time>2018-05-08T04:19:59Z</time>
      </trkpt>
      <trkpt lat="44.01913" lon="7.23189">
        <ele>1942</ele>
        <time>2018-05-08T04:20:59Z</time>
      </trkpt>
      <trkpt lat="44.01908" lon="7.23188">
        <ele>1942</ele>
        <time>2018-05-08T04:21:59Z</time>
      </trkpt>
      <trkpt lat="44.0189" lon="7.23183">
        <ele>1942</ele>
        <time>2018-05-08T04:22:59Z</time>
      </trkpt>
      <trkpt lat="44.01883" lon="7.23179">
        <ele>1941</ele>
        <time>2018-05-08T04:23:59Z</time>
      </trkpt>
      <trkpt lat="44.01877" lon="7.23179">
        <ele>1942</ele>
        <time>2018-05-08T04:24:59Z</time>
      </trkpt>
      <trkpt lat="44.01869" lon="7.2318">
        <ele>1943</ele>
        <time>2018-05-08T04:25:59Z</time>
      </trkpt>
      <trkpt lat="44.01864" lon="7.23181">
        <ele>1944</ele>
        <time>2018-05-08T04:26:59Z</time>
      </trkpt>
      <trkpt lat="44.01852" lon="7.23185">
        <ele>1947</ele>
        <time>2018-05-08T04:27:59Z</time>
      </trkpt>
      <trkpt lat="44.01845" lon="7.23188">
        <ele>1950</ele>
        <time>2018-05-08T04:28:59Z</time>
      </trkpt>
      <trkpt lat="44.01843" lon="7.23189">
        <ele>1951</ele>
        <time>2018-05-08T04:29:59Z</time>
      </trkpt>
      <trkpt lat="44.01839" lon="7.23188">
        <ele>1951</ele>
        <time>2018-05-08T04:30:59Z</time>
      </trkpt>
      <trkpt lat="44.01834" lon="7.23185">
        <ele>1949</ele>
        <time>2018-05-08T04:31:59Z</time>
      </trkpt>
      <trkpt lat="44.01829" lon="7.23185">
        <ele>1950</ele>
        <time>2018-05-08T04:32:59Z</time>
      </trkpt>
      <trkpt lat="44.01821" lon="7.23183">
        <ele>1950</ele>
        <time>2018-05-08T04:33:59Z</time>
      </trkpt>
      <trkpt lat="44.0181" lon="7.23184">
        <ele>1952</ele>
        <time>2018-05-08T04:34:59Z</time>
      </trkpt>
      <trkpt lat="44.01798" lon="7.2318">
        <ele>1951</ele>
        <time>2018-05-08T04:35:59Z</time>
      </trkpt>
      <trkpt lat="44.01791" lon="7.23178">
        <ele>1951</ele>
        <time>2018-05-08T04:36:59Z</time>
      </trkpt>
      <trkpt lat="44.01774" lon="7.23171">
        <ele>1949</ele>
        <time>2018-05-08T04:37:59Z</time>
      </trkpt>
      <trkpt lat="44.0177" lon="7.2317">
        <ele>1949</ele>
        <time>2018-05-08T04:38:59Z</time>
      </trkpt>
      <trkpt lat="44.01763" lon="7.23172">
        <ele>1951</ele>
        <time>2018-05-08T04:39:59Z</time>
      </trkpt>
      <trkpt lat="44.01757" lon="7.23174">
        <ele>1953</ele>
        <time>2018-05-08T04:40:59Z</time>
      </trkpt>
      <trkpt lat="44.01743" lon="7.23172">
        <ele>1953</ele>
        <time>2018-05-08T04:41:59Z</time>
      </trkpt>
      <trkpt lat="44.01728" lon="7.23171">
        <ele>1953</ele>
        <time>2018-05-08T04:42:59Z</time>
      </trkpt>
      <trkpt lat="44.01709" lon="7.23172">
        <ele>1956</ele>
        <time>2018-05-08T04:43:59Z</time>
      </trkpt>
      <trkpt lat="44.017" lon="7.23173">
        <ele>1957</ele>
        <time>2018-05-08T04:44:59Z</time>
      </trkpt>
      <trkpt lat="44.01686" lon="7.23176">
        <ele>1960</ele>
        <time>2018-05-08T04:45:59Z</time>
      </trkpt>
      <trkpt lat="44.01678" lon="7.23175">
        <ele>1960</ele>
        <time>2018-05-08T04:46:59Z</time>
      </trkpt>
      <trkpt lat="44.01667" lon="7.23168">
        <ele>1957</ele>
        <time>2018-05-08T04:47:59Z</time>
      </trkpt>
      <trkpt lat="44.0166" lon="7.23166">
        <ele>1958</ele>
        <time>2018-05-08T04:48:59Z</time>
      </trkpt>
      <trkpt lat="44.0165" lon="7.23166">
        <ele>1961</ele>
        <time>2018-05-08T04:49:59Z</time>
      </trkpt>
      <trkpt lat="44.01642" lon="7.23169">
        <ele>1965</ele>
        <time>2018-05-08T04:50:59Z</time>
      </trkpt>
      <trkpt lat="44.01637" lon="7.23171">
        <ele>1968</ele>
        <time>2018-05-08T04:51:59Z</time>
      </trkpt>
      <trkpt lat="44.01632" lon="7.23172">
        <ele>1970</ele>
        <time>2018-05-08T04:52:59Z</time>
      </trkpt>
      <trkpt lat="44.01631" lon="7.23171">
        <ele>1970</ele>
        <time>2018-05-08T04:53:59Z</time>
      </trkpt>
      <trkpt lat="44.01628" lon="7.23173">
        <ele>1972</ele>
        <time>2018-05-08T04:54:59Z</time>
      </trkpt>
      <trkpt lat="44.01625" lon="7.23174">
        <ele>1973</ele>
        <time>2018-05-08T04:55:59Z</time>
      </trkpt>
      <trkpt lat="44.01624" lon="7.23173">
        <ele>1973</ele>
        <time>2018-05-08T04:56:59Z</time>
      </trkpt>
      <trkpt lat="44.01617" lon="7.23171">
        <ele>1974</ele>
        <time>2018-05-08T04:57:59Z</time>
      </trkpt>
      <trkpt lat="44.016" lon="7.23163">
        <ele>1976</ele>
        <time>2018-05-08T04:58:59Z</time>
      </trkpt>
      <trkpt lat="44.01598" lon="7.23162">
        <ele>1976</ele>
        <time>2018-05-08T04:59:59Z</time>
      </trkpt>
      <trkpt lat="44.0159" lon="7.23152">
        <ele>1975</ele>
        <time>2018-05-08T05:00:59Z</time>
      </trkpt>
      <trkpt lat="44.01578" lon="7.2313">
        <ele>1970</ele>
        <time>2018-05-08T05:01:59Z</time>
      </trkpt>
      <trkpt lat="44.01572" lon="7.23125">
        <ele>1971</ele>
        <time>2018-05-08T05:02:59Z</time>
      </trkpt>
      <trkpt lat="44.01566" lon="7.23123">
        <ele>1973</ele>
        <time>2018-05-08T05:03:59Z</time>
      </trkpt>
      <trkpt lat="44.01561" lon="7.23122">
        <ele>1976</ele>
        <time>2018-05-08T05:04:59Z</time>
      </trkpt>
      <trkpt lat="44.01558" lon="7.23119">
        <ele>1976</ele>
        <time>2018-05-08T05:05:59Z</time>
      </trkpt>
      <trkpt lat="44.01555" lon="7.23117">
        <ele>1977</ele>
        <time>2018-05-08T05:06:59Z</time>
      </trkpt>
      <trkpt lat="44.01548" lon="7.23118">
        <ele>1981</ele>
        <time>2018-05-08T05:07:59Z</time>
      </trkpt>
      <trkpt lat="44.01544" lon="7.23118">
        <ele>1983</ele>
        <time>2018-05-08T05:08:59Z</time>
      </trkpt>
      <trkpt lat="44.01539" lon="7.23116">
        <ele>1985</ele>
        <time>2018-05-08T05:09:59Z</time>
      </trkpt>
      <trkpt lat="44.01533" lon="7.23114">
        <ele>1987</ele>
        <time>2018-05-08T05:10:59Z</time>
      </trkpt>
      <trkpt lat="44.0152" lon="7.23096">
        <ele>1988</ele>
        <time>2018-05-08T05:11:59Z</time>
      </trkpt>
      <trkpt lat="44.01517" lon="7.23094">
        <ele>1989</ele>
        <time>2018-05-08T05:12:59Z</time>
      </trkpt>
      <trkpt lat="44.01514" lon="7.23079">
        <ele>1985</ele>
        <time>2018-05-08T05:13:59Z</time>
      </trkpt>
      <trkpt lat="44.01513" lon="7.23075">
        <ele>1984</ele>
        <time>2018-05-08T05:14:59Z</time>
      </trkpt>
      <trkpt lat="44.0151" lon="7.2307">
        <ele>1984</ele>
        <time>2018-05-08T05:15:59Z</time>
      </trkpt>
      <trkpt lat="44.01505" lon="7.23066">
        <ele>1985</ele>
        <time>2018-05-08T05:16:59Z</time>
      </trkpt>
      <trkpt lat="44.01504" lon="7.23065">
        <ele>1985</ele>
        <time>2018-05-08T05:17:59Z</time>
      </trkpt>
      <trkpt lat="44.01487" lon="7.23063">
        <ele>1990</ele>
        <time>2018-05-08T05:18:59Z</time>
      </trkpt>
      <trkpt lat="44.0148" lon="7.23059">
        <ele>1991</ele>
        <time>2018-05-08T05:19:59Z</time>
      </trkpt>
      <trkpt lat="44.01476" lon="7.23059">
        <ele>1992</ele>
        <time>2018-05-08T05:20:59Z</time>
      </trkpt>
      <trkpt lat="44.01469" lon="7.23056">
        <ele>1993</ele>
        <time>2018-05-08T05:21:59Z</time>
      </trkpt>
      <trkpt lat="44.01447" lon="7.23037">
        <ele>1995</ele>
        <time>2018-05-08T05:22:59Z</time>
      </trkpt>
      <trkpt lat="44.01437" lon="7.23028">
        <ele>1996</ele>
        <time>2018-05-08T05:23:59Z</time>
      </trkpt>
      <trkpt lat="44.01425" lon="7.2301">
        <ele>1997</ele>
        <time>2018-05-08T05:24:59Z</time>
      </trkpt>
      <trkpt lat="44.01418" lon="7.22996">
        <ele>1996</ele>
        <time>2018-05-08T05:25:59Z</time>
      </trkpt>
      <trkpt lat="44.01409" lon="7.22969">
        <ele>1986</ele>
        <time>2018-05-08T05:26:59Z</time>
      </trkpt>
      <trkpt lat="44.01405" lon="7.22958">
        <ele>1982</ele>
        <time>2018-05-08T05:27:59Z</time>
      </trkpt>
      <trkpt lat="44.014" lon="7.22955">
        <ele>1981</ele>
        <time>2018-05-08T05:28:59Z</time>
      </trkpt>
      <trkpt lat="44.01396" lon="7.22953">
        <ele>1981</ele>
        <time>2018-05-08T05:29:59Z</time>
      </trkpt>
      <trkpt lat="44.01369" lon="7.22948">
        <ele>1981</ele>
        <time>2018-05-08T05:30:59Z</time>
      </trkpt>
      <trkpt lat="44.01362" lon="7.22947">
        <ele>1981</ele>
        <time>2018-05-08T05:31:59Z</time>
      </trkpt>
      <trkpt lat="44.01348" lon="7.22957">
        <ele>1985</ele>
        <time>2018-05-08T05:32:59Z</time>
      </trkpt>
      <trkpt lat="44.01342" lon="7.22961">
        <ele>1987</ele>
        <time>2018-05-08T05:33:59Z</time>
      </trkpt>
      <trkpt lat="44.01337" lon="7.22962">
        <ele>1988</ele>
        <time>2018-05-08T05:34:59Z</time>
      </trkpt>
      <trkpt lat="44.01326" lon="7.22962">
        <ele>1987</ele>
        <time>2018-05-08T05:35:59Z</time>
      </trkpt>
      <trkpt lat="44.01312" lon="7.22965">
        <ele>1988</ele>
        <time>2018-05-08T05:36:59Z</time>
      </trkpt>
      <trkpt lat="44.01296" lon="7.22961">
        <ele>1986</ele>
        <time>2018-05-08T05:37:59Z</time>
      </trkpt>
      <trkpt lat="44.01285" lon="7.22956">
        <ele>1984</ele>
        <time>2018-05-08T05:38:59Z</time>
      </trkpt>
      <trkpt lat="44.01279" lon="7.22952">
        <ele>1983</ele>
        <time>2018-05-08T05:39:59Z</time>
      </trkpt>
      <trkpt lat="44.01265" lon="7.22949">
        <ele>1982</ele>
        <time>2018-05-08T05:40:59Z</time>
      </trkpt>
      <trkpt lat="44.01256" lon="7.22947">
        <ele>1981</ele>
        <time>2018-05-08T05:41:59Z</time>
      </trkpt>
      <trkpt lat="44.01247" lon="7.22947">
        <ele>1981</ele>
        <time>2018-05-08T05:42:59Z</time>
      </trkpt>
      <trkpt lat="44.01238" lon="7.22955">
        <ele>1982</ele>
        <time>2018-05-08T05:43:59Z</time>
      </trkpt>
      <trkpt lat="44.01235" lon="7.22956">
        <ele>1981</ele>
        <time>2018-05-08T05:44:59Z</time>
      </trkpt>
      <trkpt lat="44.01232" lon="7.22955">
        <ele>1981</ele>
        <time>2018-05-08T05:45:59Z</time>
      </trkpt>
      <trkpt lat="44.01226" lon="7.22951">
        <ele>1980</ele>
        <time>2018-05-08T05:46:59Z</time>
      </trkpt>
      <trkpt lat="44.01215" lon="7.22944">
        <ele>1979</ele>
        <time>2018-05-08T05:47:59Z</time>
      </trkpt>
      <trkpt lat="44.01198" lon="7.2293">
        <ele>1978</ele>
        <time>2018-05-08T05:48:59Z</time>
      </trkpt>
      <trkpt lat="44.01191" lon="7.22926">
        <ele>1978</ele>
        <time>2018-05-08T05:49:59Z</time>
      </trkpt>
      <trkpt lat="44.01189" lon="7.22925">
        <ele>1978</ele>
        <time>2018-05-08T05:50:59Z</time>
      </trkpt>
      <trkpt lat="44.01186" lon="7.22926">
        <ele>1978</ele>
        <time>2018-05-08T05:51:59Z</time>
      </trkpt>
      <trkpt lat="44.01185" lon="7.22926">
        <ele>1978</ele>
        <time>2018-05-08T05:52:59Z</time>
      </trkpt>
      <trkpt lat="44.01181" lon="7.22926">
        <ele>1978</ele>
        <time>2018-05-08T05:53:59Z</time>
      </trkpt>
      <trkpt lat="44.01178" lon="7.22925">
        <ele>1978</ele>
        <time>2018-05-08T05:54:59Z</time>
      </trkpt>
      <trkpt lat="44.01168" lon="7.22918">
        <ele>1978</ele>
        <time>2018-05-08T05:55:59Z</time>
      </trkpt>
      <trkpt lat="44.01151" lon="7.22907">
        <ele>1976</ele>
        <time>2018-05-08T05:56:59Z</time>
      </trkpt>
      <trkpt lat="44.01138" lon="7.22895">
        <ele>1974</ele>
        <time>2018-05-08T05:57:59Z</time>
      </trkpt>
      <trkpt lat="44.01126" lon="7.22892">
        <ele>1974</ele>
        <time>2018-05-08T05:58:59Z</time>
      </trkpt>
      <trkpt lat="44.01103" lon="7.22893">
        <ele>1975</ele>
        <time>2018-05-08T05:59:59Z</time>
      </trkpt>
      <trkpt lat="44.01084" lon="7.2289">
        <ele>1976</ele>
        <time>2018-05-08T06:00:59Z</time>
      </trkpt>
      <trkpt lat="44.01071" lon="7.2288">
        <ele>1976</ele>
        <time>2018-05-08T06:01:59Z</time>
      </trkpt>
      <trkpt lat="44.01066" lon="7.22878">
        <ele>1976</ele>
        <time>2018-05-08T06:02:59Z</time>
      </trkpt>
      <trkpt lat="44.01045" lon="7.22875">
        <ele>1976</ele>
        <time>2018-05-08T06:03:59Z</time>
      </trkpt>
      <trkpt lat="44.0104" lon="7.22875">
        <ele>1976</ele>
        <time>2018-05-08T06:04:59Z</time>
      </trkpt>
      <trkpt lat="44.01033" lon="7.22879">
        <ele>1976</ele>
        <time>2018-05-08T06:05:59Z</time>
      </trkpt>
      <trkpt lat="44.01031" lon="7.22881">
        <ele>1976</ele>
        <time>2018-05-08T06:06:59Z</time>
      </trkpt>
      <trkpt lat="44.01023" lon="7.22893">
        <ele>1976</ele>
        <time>2018-05-08T06:07:59Z</time>
      </trkpt>
      <trkpt lat="44.01013" lon="7.22896">
        <ele>1976</ele>
        <time>2018-05-08T06:08:59Z</time>
      </trkpt>
      <trkpt lat="44.00998" lon="7.22886">
        <ele>1976</ele>
        <time>2018-05-08T06:09:59Z</time>
      </trkpt>
      <trkpt lat="44.00993" lon="7.22885">
        <ele>1975</ele>
        <time>2018-05-08T06:10:59Z</time>
      </trkpt>
      <trkpt lat="44.00989" lon="7.22887">
        <ele>1974</ele>
        <time>2018-05-08T06:11:59Z</time>
      </trkpt>
      <trkpt lat="44.00976" lon="7.22886">
        <ele>1972</ele>
        <time>2018-05-08T06:12:59Z</time>
      </trkpt>
      <trkpt lat="44.00969" lon="7.22876">
        <ele>1971</ele>
        <time>2018-05-08T06:13:59Z</time>
      </trkpt>
      <trkpt lat="44.00959" lon="7.22863">
        <ele>1971</ele>
        <time>2018-05-08T06:14:59Z</time>
      </trkpt>
      <trkpt lat="44.00944" lon="7.22853">
        <ele>1970</ele>
        <time>2018-05-08T06:15:59Z</time>
      </trkpt>
      <trkpt lat="44.0094" lon="7.22849">
        <ele>1970</ele>
        <time>2018-05-08T06:16:59Z</time>
      </trkpt>
      <trkpt lat="44.00929" lon="7.22834">
        <ele>1971</ele>
        <time>2018-05-08T06:17:59Z</time>
      </trkpt>
      <trkpt lat="44.0092" lon="7.22829">
        <ele>1970</ele>
        <time>2018-05-08T06:18:59Z</time>
      </trkpt>
      <trkpt lat="44.00919" lon="7.22826">
        <ele>1970</ele>
        <time>2018-05-08T06:19:59Z</time>
      </trkpt>
      <trkpt lat="44.0092" lon="7.22822">
        <ele>1970</ele>
        <time>2018-05-08T06:20:59Z</time>
      </trkpt>
      <trkpt lat="44.00921" lon="7.22815">
        <ele>1970</ele>
        <time>2018-05-08T06:21:59Z</time>
      </trkpt>
      <trkpt lat="44.00916" lon="7.22805">
        <ele>1969</ele>
        <time>2018-05-08T06:22:59Z</time>
      </trkpt>
      <trkpt lat="44.00915" lon="7.22801">
        <ele>1969</ele>
        <time>2018-05-08T06:23:59Z</time>
      </trkpt>
      <trkpt lat="44.00912" lon="7.22791">
        <ele>1968</ele>
        <time>2018-05-08T06:24:59Z</time>
      </trkpt>
      <trkpt lat="44.00908" lon="7.22778">
        <ele>1967</ele>
        <time>2018-05-08T06:25:59Z</time>
      </trkpt>
      <trkpt lat="44.00889" lon="7.22745">
        <ele>1963</ele>
        <time>2018-05-08T06:26:59Z</time>
      </trkpt>
      <trkpt lat="44.00882" lon="7.22738">
        <ele>1962</ele>
        <time>2018-05-08T06:27:59Z</time>
      </trkpt>
      <trkpt lat="44.00875" lon="7.22735">
        <ele>1961</ele>
        <time>2018-05-08T06:28:59Z</time>
      </trkpt>
      <trkpt lat="44.0087" lon="7.22727">
        <ele>1959</ele>
        <time>2018-05-08T06:29:59Z</time>
      </trkpt>
      <trkpt lat="44.00867" lon="7.22722">
        <ele>1959</ele>
        <time>2018-05-08T06:30:59Z</time>
      </trkpt>
      <trkpt lat="44.00839" lon="7.22697">
        <ele>1953</ele>
        <time>2018-05-08T06:31:59Z</time>
      </trkpt>
      <trkpt lat="44.00835" lon="7.22692">
        <ele>1952</ele>
        <time>2018-05-08T06:32:59Z</time>
      </trkpt>
      <trkpt lat="44.00826" lon="7.22685">
        <ele>1950</ele>
        <time>2018-05-08T06:33:59Z</time>
      </trkpt>
      <trkpt lat="44.00814" lon="7.22678">
        <ele>1947</ele>
        <time>2018-05-08T06:34:59Z</time>
      </trkpt>
      <trkpt lat="44.00799" lon="7.22672">
        <ele>1943</ele>
        <time>2018-05-08T06:35:59Z</time>
      </trkpt>
      <trkpt lat="44.00795" lon="7.2267">
        <ele>1942</ele>
        <time>2018-05-08T06:36:59Z</time>
      </trkpt>
      <trkpt lat="44.00786" lon="7.22667">
        <ele>1940</ele>
        <time>2018-05-08T06:37:59Z</time>
      </trkpt>
      <trkpt lat="44.00783" lon="7.22666">
        <ele>1939</ele>
        <time>2018-05-08T06:38:59Z</time>
      </trkpt>
      <trkpt lat="44.00771" lon="7.22665">
        <ele>1936</ele>
        <time>2018-05-08T06:39:59Z</time>
      </trkpt>
      <trkpt lat="44.00767" lon="7.22665">
        <ele>1935</ele>
        <time>2018-05-08T06:40:59Z</time>
      </trkpt>
      <trkpt lat="44.00738" lon="7.22649">
        <ele>1925</ele>
        <time>2018-05-08T06:41:59Z</time>
      </trkpt>
      <trkpt lat="44.00735" lon="7.22648">
        <ele>1924</ele>
        <time>2018-05-08T06:42:59Z</time>
      </trkpt>
      <trkpt lat="44.00732" lon="7.22646">
        <ele>1923</ele>
        <time>2018-05-08T06:43:59Z</time>
      </trkpt>
      <trkpt lat="44.00731" lon="7.22645">
        <ele>1923</ele>
        <time>2018-05-08T06:44:59Z</time>
      </trkpt>
      <trkpt lat="44.00731" lon="7.2264">
        <ele>1922</ele>
        <time>2018-05-08T06:45:59Z</time>
      </trkpt>
      <trkpt lat="44.00732" lon="7.22639">
        <ele>1922</ele>
        <time>2018-05-08T06:46:59Z</time>
      </trkpt>
      <trkpt lat="44.00734" lon="7.22637">
        <ele>1922</ele>
        <time>2018-05-08T06:47:59Z</time>
      </trkpt>
      <trkpt lat="44.0074" lon="7.22634">
        <ele>1922</ele>
        <time>2018-05-08T06:48:59Z</time>
      </trkpt>
      <trkpt lat="44.00755" lon="7.22619">
        <ele>1920</ele>
        <time>2018-05-08T06:49:59Z</time>
      </trkpt>
      <trkpt lat="44.00766" lon="7.22604">
        <ele>1918</ele>
        <time>2018-05-08T06:50:59Z</time>
      </trkpt>
      <trkpt lat="44.00769" lon="7.22599">
        <ele>1917</ele>
        <time>2018-05-08T06:51:59Z</time>
      </trkpt>
      <trkpt lat="44.00778" lon="7.22578">
        <ele>1911</ele>
        <time>2018-05-08T06:52:59Z</time>
      </trkpt>
      <trkpt lat="44.00778" lon="7.22577">
        <ele>1910</ele>
        <time>2018-05-08T06:53:59Z</time>
      </trkpt>
      <trkpt lat="44.00778" lon="7.22577">
        <ele>1910</ele>
        <time>2018-05-08T06:54:59Z</time>
      </trkpt>
      <trkpt lat="44.00776" lon="7.22579">
        <ele>1911</ele>
        <time>2018-05-08T06:55:59Z</time>
      </trkpt>
      <trkpt lat="44.00773" lon="7.22578">
        <ele>1910</ele>
        <time>2018-05-08T06:56:59Z</time>
      </trkpt>
      <trkpt lat="44.00768" lon="7.22578">
        <ele>1909</ele>
        <time>2018-05-08T06:57:59Z</time>
      </trkpt>
      <trkpt lat="44.00761" lon="7.22579">
        <ele>1909</ele>
        <time>2018-05-08T06:58:59Z</time>
      </trkpt>
      <trkpt lat="44.0075" lon="7.2258">
        <ele>1908</ele>
        <time>2018-05-08T06:59:59Z</time>
      </trkpt>
      <trkpt lat="44.00737" lon="7.22577">
        <ele>1906</ele>
        <time>2018-05-08T07:00:59Z</time>
      </trkpt>
      <trkpt lat="44.00735" lon="7.22576">
        <ele>1905</ele>
        <time>2018-05-08T07:01:59Z</time>
      </trkpt>
      <trkpt lat="44.00727" lon="7.2257">
        <ele>1902</ele>
        <time>2018-05-08T07:02:59Z</time>
      </trkpt>
      <trkpt lat="44.00725" lon="7.22568">
        <ele>1900</ele>
        <time>2018-05-08T07:03:59Z</time>
      </trkpt>
      <trkpt lat="44.00715" lon="7.22567">
        <ele>1900</ele>
        <time>2018-05-08T07:04:59Z</time>
      </trkpt>
      <trkpt lat="44.00708" lon="7.22567">
        <ele>1900</ele>
        <time>2018-05-08T07:05:59Z</time>
      </trkpt>
      <trkpt lat="44.00698" lon="7.2256">
        <ele>1896</ele>
        <time>2018-05-08T07:06:59Z</time>
      </trkpt>
      <trkpt lat="44.00692" lon="7.22556">
        <ele>1894</ele>
        <time>2018-05-08T07:07:59Z</time>
      </trkpt>
      <trkpt lat="44.00689" lon="7.22555">
        <ele>1893</ele>
        <time>2018-05-08T07:08:59Z</time>
      </trkpt>
      <trkpt lat="44.00682" lon="7.22554">
        <ele>1893</ele>
        <time>2018-05-08T07:09:59Z</time>
      </trkpt>
      <trkpt lat="44.00675" lon="7.2255">
        <ele>1891</ele>
        <time>2018-05-08T07:10:59Z</time>
      </trkpt>
      <trkpt lat="44.00669" lon="7.2254">
        <ele>1887</ele>
        <time>2018-05-08T07:11:59Z</time>
      </trkpt>
      <trkpt lat="44.00667" lon="7.22534">
        <ele>1884</ele>
        <time>2018-05-08T07:12:59Z</time>
      </trkpt>
      <trkpt lat="44.00665" lon="7.22531">
        <ele>1883</ele>
        <time>2018-05-08T07:13:59Z</time>
      </trkpt>
      <trkpt lat="44.00663" lon="7.22529">
        <ele>1882</ele>
        <time>2018-05-08T07:14:59Z</time>
      </trkpt>
      <trkpt lat="44.00654" lon="7.22508">
        <ele>1874</ele>
        <time>2018-05-08T07:15:59Z</time>
      </trkpt>
      <trkpt lat="44.00649" lon="7.22501">
        <ele>1872</ele>
        <time>2018-05-08T07:16:59Z</time>
      </trkpt>
      <trkpt lat="44.00644" lon="7.22501">
        <ele>1872</ele>
        <time>2018-05-08T07:17:59Z</time>
      </trkpt>
      <trkpt lat="44.00627" lon="7.22502">
        <ele>1875</ele>
        <time>2018-05-08T07:18:59Z</time>
      </trkpt>
      <trkpt lat="44.00619" lon="7.22503">
        <ele>1876</ele>
        <time>2018-05-08T07:19:59Z</time>
      </trkpt>
      <trkpt lat="44.00613" lon="7.225">
        <ele>1876</ele>
        <time>2018-05-08T07:20:59Z</time>
      </trkpt>
      <trkpt lat="44.00611" lon="7.22497">
        <ele>1875</ele>
        <time>2018-05-08T07:21:59Z</time>
      </trkpt>
      <trkpt lat="44.00608" lon="7.22491">
        <ele>1873</ele>
        <time>2018-05-08T07:22:59Z</time>
      </trkpt>
      <trkpt lat="44.00606" lon="7.22484">
        <ele>1870</ele>
        <time>2018-05-08T07:23:59Z</time>
      </trkpt>
      <trkpt lat="44.00603" lon="7.22475">
        <ele>1866</ele>
        <time>2018-05-08T07:24:59Z</time>
      </trkpt>
      <trkpt lat="44.00599" lon="7.22468">
        <ele>1864</ele>
        <time>2018-05-08T07:25:59Z</time>
      </trkpt>
      <trkpt lat="44.00595" lon="7.2246">
        <ele>1861</ele>
        <time>2018-05-08T07:26:59Z</time>
      </trkpt>
      <trkpt lat="44.0059" lon="7.22454">
        <ele>1859</ele>
        <time>2018-05-08T07:27:59Z</time>
      </trkpt>
      <trkpt lat="44.00587" lon="7.2245">
        <ele>1858</ele>
        <time>2018-05-08T07:28:59Z</time>
      </trkpt>
      <trkpt lat="44.00574" lon="7.2244">
        <ele>1856</ele>
        <time>2018-05-08T07:29:59Z</time>
      </trkpt>
      <trkpt lat="44.0057" lon="7.22436">
        <ele>1854</ele>
        <time>2018-05-08T07:30:59Z</time>
      </trkpt>
      <trkpt lat="44.00574" lon="7.22432">
        <ele>1852</ele>
        <time>2018-05-08T07:31:59Z</time>
      </trkpt>
      <trkpt lat="44.00576" lon="7.22431">
        <ele>1851</ele>
        <time>2018-05-08T07:32:59Z</time>
      </trkpt>
      <trkpt lat="44.00576" lon="7.22429">
        <ele>1850</ele>
        <time>2018-05-08T07:33:59Z</time>
      </trkpt>
      <trkpt lat="44.00575" lon="7.22425">
        <ele>1849</ele>
        <time>2018-05-08T07:34:59Z</time>
      </trkpt>
      <trkpt lat="44.00572" lon="7.22421">
        <ele>1848</ele>
        <time>2018-05-08T07:35:59Z</time>
      </trkpt>
      <trkpt lat="44.00566" lon="7.22417">
        <ele>1847</ele>
        <time>2018-05-08T07:36:59Z</time>
      </trkpt>
      <trkpt lat="44.00565" lon="7.22417">
        <ele>1847</ele>
        <time>2018-05-08T07:37:59Z</time>
      </trkpt>
      <trkpt lat="44.00556" lon="7.22415">
        <ele>1847</ele>
        <time>2018-05-08T07:38:59Z</time>
      </trkpt>
      <trkpt lat="44.0055" lon="7.22416">
        <ele>1849</ele>
        <time>2018-05-08T07:39:59Z</time>
      </trkpt>
      <trkpt lat="44.00544" lon="7.22416">
        <ele>1850</ele>
        <time>2018-05-08T07:40:59Z</time>
      </trkpt>
      <trkpt lat="44.00541" lon="7.22415">
        <ele>1850</ele>
        <time>2018-05-08T07:41:59Z</time>
      </trkpt>
      <trkpt lat="44.00537" lon="7.22413">
        <ele>1849</ele>
        <time>2018-05-08T07:42:59Z</time>
      </trkpt>
      <trkpt lat="44.00532" lon="7.22404">
        <ele>1846</ele>
        <time>2018-05-08T07:43:59Z</time>
      </trkpt>
      <trkpt lat="44.00531" lon="7.224">
        <ele>1844</ele>
        <time>2018-05-08T07:44:59Z</time>
      </trkpt>
      <trkpt lat="44.00524" lon="7.22392">
        <ele>1842</ele>
        <time>2018-05-08T07:45:59Z</time>
      </trkpt>
      <trkpt lat="44.00522" lon="7.2239">
        <ele>1841</ele>
        <time>2018-05-08T07:46:59Z</time>
      </trkpt>
      <trkpt lat="44.00517" lon="7.22389">
        <ele>1842</ele>
        <time>2018-05-08T07:47:59Z</time>
      </trkpt>
      <trkpt lat="44.00515" lon="7.22389">
        <ele>1842</ele>
        <time>2018-05-08T07:48:59Z</time>
      </trkpt>
      <trkpt lat="44.00515" lon="7.22389">
        <ele>1842</ele>
        <time>2018-05-08T07:49:59Z</time>
      </trkpt>
      <trkpt lat="44.00512" lon="7.22386">
        <ele>1841</ele>
        <time>2018-05-08T07:50:59Z</time>
      </trkpt>
      <trkpt lat="44.00496" lon="7.22381">
        <ele>1842</ele>
        <time>2018-05-08T07:51:59Z</time>
      </trkpt>
      <trkpt lat="44.00487" lon="7.22372">
        <ele>1842</ele>
        <time>2018-05-08T07:52:59Z</time>
      </trkpt>
      <trkpt lat="44.00481" lon="7.22362">
        <ele>1839</ele>
        <time>2018-05-08T07:53:59Z</time>
      </trkpt>
      <trkpt lat="44.00479" lon="7.22358">
        <ele>1838</ele>
        <time>2018-05-08T07:54:59Z</time>
      </trkpt>
      <trkpt lat="44.00478" lon="7.22345">
        <ele>1833</ele>
        <time>2018-05-08T07:55:59Z</time>
      </trkpt>
      <trkpt lat="44.00479" lon="7.22341">
        <ele>1831</ele>
        <time>2018-05-08T07:56:59Z</time>
      </trkpt>
      <trkpt lat="44.00479" lon="7.22331">
        <ele>1827</ele>
        <time>2018-05-08T07:57:59Z</time>
      </trkpt>
      <trkpt lat="44.00478" lon="7.22326">
        <ele>1825</ele>
        <time>2018-05-08T07:58:59Z</time>
      </trkpt>
      <trkpt lat="44.00476" lon="7.22319">
        <ele>1823</ele>
        <time>2018-05-08T07:59:59Z</time>
      </trkpt>
      <trkpt lat="44.00474" lon="7.22314">
        <ele>1822</ele>
        <time>2018-05-08T08:00:59Z</time>
      </trkpt>
      <trkpt lat="44.0047" lon="7.22285">
        <ele>1811</ele>
        <time>2018-05-08T08:01:59Z</time>
      </trkpt>
      <trkpt lat="44.0047" lon="7.22279">
        <ele>1809</ele>
        <time>2018-05-08T08:02:59Z</time>
      </trkpt>
      <trkpt lat="44.00466" lon="7.2227">
        <ele>1807</ele>
        <time>2018-05-08T08:03:59Z</time>
      </trkpt>
      <trkpt lat="44.00452" lon="7.22245">
        <ele>1802</ele>
        <time>2018-05-08T08:04:59Z</time>
      </trkpt>
      <trkpt lat="44.00451" lon="7.22244">
        <ele>1802</ele>
        <time>2018-05-08T08:05:59Z</time>
      </trkpt>
      <trkpt lat="44.00449" lon="7.22241">
        <ele>1801</ele>
        <time>2018-05-08T08:06:59Z</time>
      </trkpt>
      <trkpt lat="44.00441" lon="7.2223">
        <ele>1800</ele>
        <time>2018-05-08T08:07:59Z</time>
      </trkpt>
      <trkpt lat="44.0042" lon="7.2222">
        <ele>1804</ele>
        <time>2018-05-08T08:08:59Z</time>
      </trkpt>
      <trkpt lat="44.00417" lon="7.22219">
        <ele>1805</ele>
        <time>2018-05-08T08:09:59Z</time>
      </trkpt>
      <trkpt lat="44.0041" lon="7.22207">
        <ele>1799</ele>
        <time>2018-05-08T08:10:59Z</time>
      </trkpt>
      <trkpt lat="44.00408" lon="7.22203">
        <ele>1798</ele>
        <time>2018-05-08T08:11:59Z</time>
      </trkpt>
      <trkpt lat="44.00401" lon="7.22198">
        <ele>1795</ele>
        <time>2018-05-08T08:12:59Z</time>
      </trkpt>
      <trkpt lat="44.004" lon="7.22197">
        <ele>1794</ele>
        <time>2018-05-08T08:13:59Z</time>
      </trkpt>
      <trkpt lat="44.00395" lon="7.22192">
        <ele>1792</ele>
        <time>2018-05-08T08:14:59Z</time>
      </trkpt>
      <trkpt lat="44.00393" lon="7.2219">
        <ele>1791</ele>
        <time>2018-05-08T08:15:59Z</time>
      </trkpt>
      <trkpt lat="44.00384" lon="7.22186">
        <ele>1789</ele>
        <time>2018-05-08T08:16:59Z</time>
      </trkpt>
      <trkpt lat="44.00382" lon="7.22186">
        <ele>1789</ele>
        <time>2018-05-08T08:17:59Z</time>
      </trkpt>
      <trkpt lat="44.00381" lon="7.22184">
        <ele>1788</ele>
        <time>2018-05-08T08:18:59Z</time>
      </trkpt>
      <trkpt lat="44.00383" lon="7.22175">
        <ele>1785</ele>
        <time>2018-05-08T08:19:59Z</time>
      </trkpt>
      <trkpt lat="44.00383" lon="7.22165">
        <ele>1781</ele>
        <time>2018-05-08T08:20:59Z</time>
      </trkpt>
      <trkpt lat="44.00379" lon="7.22162">
        <ele>1780</ele>
        <time>2018-05-08T08:21:59Z</time>
      </trkpt>
      <trkpt lat="44.00371" lon="7.22158">
        <ele>1778</ele>
        <time>2018-05-08T08:22:59Z</time>
      </trkpt>
      <trkpt lat="44.00369" lon="7.22155">
        <ele>1777</ele>
        <time>2018-05-08T08:23:59Z</time>
      </trkpt>
      <trkpt lat="44.0037" lon="7.22152">
        <ele>1776</ele>
        <time>2018-05-08T08:24:59Z</time>
      </trkpt>
      <trkpt lat="44.00369" lon="7.22149">
        <ele>1775</ele>
        <time>2018-05-08T08:25:59Z</time>
      </trkpt>
      <trkpt lat="44.00368" lon="7.22146">
        <ele>1774</ele>
        <time>2018-05-08T08:26:59Z</time>
      </trkpt>
      <trkpt lat="44.00369" lon="7.22139">
        <ele>1772</ele>
        <time>2018-05-08T08:27:59Z</time>
      </trkpt>
      <trkpt lat="44.00368" lon="7.22137">
        <ele>1771</ele>
        <time>2018-05-08T08:28:59Z</time>
      </trkpt>
      <trkpt lat="44.00366" lon="7.22133">
        <ele>1770</ele>
        <time>2018-05-08T08:29:59Z</time>
      </trkpt>
      <trkpt lat="44.00363" lon="7.2213">
        <ele>1769</ele>
        <time>2018-05-08T08:30:59Z</time>
      </trkpt>
      <trkpt lat="44.00362" lon="7.22123">
        <ele>1766</ele>
        <time>2018-05-08T08:31:59Z</time>
      </trkpt>
      <trkpt lat="44.00361" lon="7.2212">
        <ele>1765</ele>
        <time>2018-05-08T08:32:59Z</time>
      </trkpt>
      <trkpt lat="44.00357" lon="7.22114">
        <ele>1763</ele>
        <time>2018-05-08T08:33:59Z</time>
      </trkpt>
      <trkpt lat="44.00355" lon="7.22111">
        <ele>1762</ele>
        <time>2018-05-08T08:34:59Z</time>
      </trkpt>
      <trkpt lat="44.00355" lon="7.22108">
        <ele>1761</ele>
        <time>2018-05-08T08:35:59Z</time>
      </trkpt>
      <trkpt lat="44.00355" lon="7.22107">
        <ele>1761</ele>
        <time>2018-05-08T08:36:59Z</time>
      </trkpt>
      <trkpt lat="44.00346" lon="7.22094">
        <ele>1757</ele>
        <time>2018-05-08T08:37:59Z</time>
      </trkpt>
      <trkpt lat="44.00344" lon="7.22092">
        <ele>1756</ele>
        <time>2018-05-08T08:38:59Z</time>
      </trkpt>
      <trkpt lat="44.00341" lon="7.2209">
        <ele>1755</ele>
        <time>2018-05-08T08:39:59Z</time>
      </trkpt>
      <trkpt lat="44.00339" lon="7.22089">
        <ele>1755</ele>
        <time>2018-05-08T08:40:59Z</time>
      </trkpt>
      <trkpt lat="44.00329" lon="7.22088">
        <ele>1753</ele>
        <time>2018-05-08T08:41:59Z</time>
      </trkpt>
      <trkpt lat="44.00327" lon="7.22088">
        <ele>1752</ele>
        <time>2018-05-08T08:42:59Z</time>
      </trkpt>
      <trkpt lat="44.00324" lon="7.22079">
        <ele>1749</ele>
        <time>2018-05-08T08:43:59Z</time>
      </trkpt>
      <trkpt lat="44.00327" lon="7.22073">
        <ele>1748</ele>
        <time>2018-05-08T08:44:59Z</time>
      </trkpt>
      <trkpt lat="44.00328" lon="7.22067">
        <ele>1747</ele>
        <time>2018-05-08T08:45:59Z</time>
      </trkpt>
      <trkpt lat="44.00328" lon="7.22051">
        <ele>1743</ele>
        <time>2018-05-08T08:46:59Z</time>
      </trkpt>
      <trkpt lat="44.00328" lon="7.22045">
        <ele>1741</ele>
        <time>2018-05-08T08:47:59Z</time>
      </trkpt>
      <trkpt lat="44.00329" lon="7.2204">
        <ele>1740</ele>
        <time>2018-05-08T08:48:59Z</time>
      </trkpt>
      <trkpt lat="44.00329" lon="7.22036">
        <ele>1739</ele>
        <time>2018-05-08T08:49:59Z</time>
      </trkpt>
      <trkpt lat="44.00333" lon="7.22023">
        <ele>1737</ele>
        <time>2018-05-08T08:50:59Z</time>
      </trkpt>
      <trkpt lat="44.00333" lon="7.22016">
        <ele>1735</ele>
        <time>2018-05-08T08:51:59Z</time>
      </trkpt>
      <trkpt lat="44.00332" lon="7.22014">
        <ele>1734</ele>
        <time>2018-05-08T08:52:59Z</time>
      </trkpt>
      <trkpt lat="44.00322" lon="7.2201">
        <ele>1731</ele>
        <time>2018-05-08T08:53:59Z</time>
      </trkpt>
      <trkpt lat="44.00311" lon="7.22012">
        <ele>1728</ele>
        <time>2018-05-08T08:54:59Z</time>
      </trkpt>
      <trkpt lat="44.00293" lon="7.22016">
        <ele>1724</ele>
        <time>2018-05-08T08:55:59Z</time>
      </trkpt>
      <trkpt lat="44.00287" lon="7.22018">
        <ele>1723</ele>
        <time>2018-05-08T08:56:59Z</time>
      </trkpt>
      <trkpt lat="44.00259" lon="7.22031">
        <ele>1718</ele>
        <time>2018-05-08T08:57:59Z</time>
      </trkpt>
      <trkpt lat="44.00247" lon="7.22036">
        <ele>1715</ele>
        <time>2018-05-08T08:58:59Z</time>
      </trkpt>
      <trkpt lat="44.00242" lon="7.2204">
        <ele>1713</ele>
        <time>2018-05-08T08:59:59Z</time>
      </trkpt>
      <trkpt lat="44.00234" lon="7.22049">
        <ele>1711</ele>
        <time>2018-05-08T09:00:59Z</time>
      </trkpt>
      <trkpt lat="44.00218" lon="7.22078">
        <ele>1708</ele>
        <time>2018-05-08T09:01:59Z</time>
      </trkpt>
      <trkpt lat="44.00215" lon="7.22084">
        <ele>1707</ele>
        <time>2018-05-08T09:02:59Z</time>
      </trkpt>
      <trkpt lat="44.00211" lon="7.22088">
        <ele>1706</ele>
        <time>2018-05-08T09:03:59Z</time>
      </trkpt>
      <trkpt lat="44.00208" lon="7.22093">
        <ele>1705</ele>
        <time>2018-05-08T09:04:59Z</time>
      </trkpt>
      <trkpt lat="44.00204" lon="7.2211">
        <ele>1706</ele>
        <time>2018-05-08T09:05:59Z</time>
      </trkpt>
      <trkpt lat="44.00201" lon="7.22117">
        <ele>1705</ele>
        <time>2018-05-08T09:06:59Z</time>
      </trkpt>
      <trkpt lat="44.00198" lon="7.22133">
        <ele>1706</ele>
        <time>2018-05-08T09:07:59Z</time>
      </trkpt>
      <trkpt lat="44.00194" lon="7.22148">
        <ele>1706</ele>
        <time>2018-05-08T09:08:59Z</time>
      </trkpt>
      <trkpt lat="44.00192" lon="7.22166">
        <ele>1708</ele>
        <time>2018-05-08T09:09:59Z</time>
      </trkpt>
      <trkpt lat="44.00186" lon="7.22191">
        <ele>1708</ele>
        <time>2018-05-08T09:10:59Z</time>
      </trkpt>
      <trkpt lat="44.00178" lon="7.22211">
        <ele>1706</ele>
        <time>2018-05-08T09:11:59Z</time>
      </trkpt>
      <trkpt lat="44.0017" lon="7.22227">
        <ele>1703</ele>
        <time>2018-05-08T09:12:59Z</time>
      </trkpt>
      <trkpt lat="44.00168" lon="7.22242">
        <ele>1704</ele>
        <time>2018-05-08T09:13:59Z</time>
      </trkpt>
      <trkpt lat="44.00169" lon="7.22251">
        <ele>1706</ele>
        <time>2018-05-08T09:14:59Z</time>
      </trkpt>
      <trkpt lat="44.00168" lon="7.22273">
        <ele>1709</ele>
        <time>2018-05-08T09:15:59Z</time>
      </trkpt>
      <trkpt lat="44.00163" lon="7.22288">
        <ele>1708</ele>
        <time>2018-05-08T09:16:59Z</time>
      </trkpt>
      <trkpt lat="44.00161" lon="7.22305">
        <ele>1709</ele>
        <time>2018-05-08T09:17:59Z</time>
      </trkpt>
      <trkpt lat="44.00153" lon="7.22315">
        <ele>1704</ele>
        <time>2018-05-08T09:18:59Z</time>
      </trkpt>
      <trkpt lat="44.00152" lon="7.22326">
        <ele>1705</ele>
        <time>2018-05-08T09:19:59Z</time>
      </trkpt>
      <trkpt lat="44.00152" lon="7.22329">
        <ele>1705</ele>
        <time>2018-05-08T09:20:59Z</time>
      </trkpt>
      <trkpt lat="44.00155" lon="7.22343">
        <ele>1710</ele>
        <time>2018-05-08T09:21:59Z</time>
      </trkpt>
      <trkpt lat="44.00155" lon="7.22357">
        <ele>1712</ele>
        <time>2018-05-08T09:22:59Z</time>
      </trkpt>
      <trkpt lat="44.00157" lon="7.22371">
        <ele>1715</ele>
        <time>2018-05-08T09:23:59Z</time>
      </trkpt>
      <trkpt lat="44.00158" lon="7.22409">
        <ele>1721</ele>
        <time>2018-05-08T09:24:59Z</time>
      </trkpt>
      <trkpt lat="44.00159" lon="7.22413">
        <ele>1722</ele>
        <time>2018-05-08T09:25:59Z</time>
      </trkpt>
      <trkpt lat="44.00158" lon="7.22422">
        <ele>1723</ele>
        <time>2018-05-08T09:26:59Z</time>
      </trkpt>
      <trkpt lat="44.00158" lon="7.22424">
        <ele>1724</ele>
        <time>2018-05-08T09:27:59Z</time>
      </trkpt>
      <trkpt lat="44.00155" lon="7.22432">
        <ele>1724</ele>
        <time>2018-05-08T09:28:59Z</time>
      </trkpt>
      <trkpt lat="44.00147" lon="7.22451">
        <ele>1722</ele>
        <time>2018-05-08T09:29:59Z</time>
      </trkpt>
      <trkpt lat="44.00146" lon="7.22453">
        <ele>1722</ele>
        <time>2018-05-08T09:30:59Z</time>
      </trkpt>
      <trkpt lat="44.00149" lon="7.22467">
        <ele>1728</ele>
        <time>2018-05-08T09:31:59Z</time>
      </trkpt>
      <trkpt lat="44.00148" lon="7.22474">
        <ele>1729</ele>
        <time>2018-05-08T09:32:59Z</time>
      </trkpt>
      <trkpt lat="44.0014" lon="7.22486">
        <ele>1726</ele>
        <time>2018-05-08T09:33:59Z</time>
      </trkpt>
      <trkpt lat="44.00134" lon="7.22498">
        <ele>1724</ele>
        <time>2018-05-08T09:34:59Z</time>
      </trkpt>
      <trkpt lat="44.00136" lon="7.22521">
        <ele>1728</ele>
        <time>2018-05-08T09:35:59Z</time>
      </trkpt>
      <trkpt lat="44.00136" lon="7.22529">
        <ele>1728</ele>
        <time>2018-05-08T09:36:59Z</time>
      </trkpt>
      <trkpt lat="44.00137" lon="7.22533">
        <ele>1730</ele>
        <time>2018-05-08T09:37:59Z</time>
      </trkpt>
      <trkpt lat="44.00139" lon="7.22548">
        <ele>1732</ele>
        <time>2018-05-08T09:38:59Z</time>
      </trkpt>
      <trkpt lat="44.00135" lon="7.22586">
        <ele>1733</ele>
        <time>2018-05-08T09:39:59Z</time>
      </trkpt>
      <trkpt lat="44.00131" lon="7.2261">
        <ele>1734</ele>
        <time>2018-05-08T09:40:59Z</time>
      </trkpt>
      <trkpt lat="44.00112" lon="7.22641">
        <ele>1728</ele>
        <time>2018-05-08T09:41:59Z</time>
      </trkpt>
      <trkpt lat="44.00105" lon="7.22655">
        <ele>1727</ele>
        <time>2018-05-08T09:42:59Z</time>
      </trkpt>
      <trkpt lat="44.00095" lon="7.22677">
        <ele>1726</ele>
        <time>2018-05-08T09:43:59Z</time>
      </trkpt>
      <trkpt lat="44.0009" lon="7.22691">
        <ele>1726</ele>
        <time>2018-05-08T09:44:59Z</time>
      </trkpt>
      <trkpt lat="44.00084" lon="7.22721">
        <ele>1729</ele>
        <time>2018-05-08T09:45:59Z</time>
      </trkpt>
      <trkpt lat="44.00078" lon="7.22734">
        <ele>1728</ele>
        <time>2018-05-08T09:46:59Z</time>
      </trkpt>
      <trkpt lat="44.0007" lon="7.22743">
        <ele>1726</ele>
        <time>2018-05-08T09:47:59Z</time>
      </trkpt>
      <trkpt lat="44.00054" lon="7.22756">
        <ele>1720</ele>
        <time>2018-05-08T09:48:59Z</time>
      </trkpt>
      <trkpt lat="44.00048" lon="7.22774">
        <ele>1719</ele>
        <time>2018-05-08T09:49:59Z</time>
      </trkpt>
      <trkpt lat="44.00051" lon="7.228">
        <ele>1724</ele>
        <time>2018-05-08T09:50:59Z</time>
      </trkpt>
      <trkpt lat="44.00051" lon="7.22828">
        <ele>1728</ele>
        <time>2018-05-08T09:51:59Z</time>
      </trkpt>
      <trkpt lat="44.00057" lon="7.22854">
        <ele>1732</ele>
        <time>2018-05-08T09:52:59Z</time>
      </trkpt>
      <trkpt lat="44.00059" lon="7.22869">
        <ele>1733</ele>
        <time>2018-05-08T09:53:59Z</time>
      </trkpt>
      <trkpt lat="44.00059" lon="7.22872">
        <ele>1734</ele>
        <time>2018-05-08T09:54:59Z</time>
      </trkpt>
      <trkpt lat="44.00061" lon="7.22887">
        <ele>1735</ele>
        <time>2018-05-08T09:55:59Z</time>
      </trkpt>
      <trkpt lat="44.00062" lon="7.22907">
        <ele>1736</ele>
        <time>2018-05-08T09:56:59Z</time>
      </trkpt>
      <trkpt lat="44.00062" lon="7.22927">
        <ele>1738</ele>
        <time>2018-05-08T09:57:59Z</time>
      </trkpt>
      <trkpt lat="44.00061" lon="7.22931">
        <ele>1738</ele>
        <time>2018-05-08T09:58:59Z</time>
      </trkpt>
      <trkpt lat="44.00047" lon="7.22952">
        <ele>1737</ele>
        <time>2018-05-08T09:59:59Z</time>
      </trkpt>
      <trkpt lat="44.00027" lon="7.22973">
        <ele>1735</ele>
        <time>2018-05-08T10:00:59Z</time>
      </trkpt>
      <trkpt lat="43.99994" lon="7.23012">
        <ele>1734</ele>
        <time>2018-05-08T10:01:59Z</time>
      </trkpt>
      <trkpt lat="43.99957" lon="7.23051">
        <ele>1733</ele>
        <time>2018-05-08T10:02:59Z</time>
      </trkpt>
      <trkpt lat="43.99945" lon="7.23063">
        <ele>1733</ele>
        <time>2018-05-08T10:03:59Z</time>
      </trkpt>
      <trkpt lat="43.9992" lon="7.23092">
        <ele>1731</ele>
        <time>2018-05-08T10:04:59Z</time>
      </trkpt>
      <trkpt lat="43.99907" lon="7.23108">
        <ele>1730</ele>
        <time>2018-05-08T10:05:59Z</time>
      </trkpt>
      <trkpt lat="43.99884" lon="7.23129">
        <ele>1727</ele>
        <time>2018-05-08T10:06:59Z</time>
      </trkpt>
      <trkpt lat="43.99876" lon="7.23135">
        <ele>1725</ele>
        <time>2018-05-08T10:07:59Z</time>
      </trkpt>
      <trkpt lat="43.99852" lon="7.23149">
        <ele>1719</ele>
        <time>2018-05-08T10:08:59Z</time>
      </trkpt>
      <trkpt lat="43.99833" lon="7.23173">
        <ele>1714</ele>
        <time>2018-05-08T10:09:59Z</time>
      </trkpt>
      <trkpt lat="43.99833" lon="7.23197">
        <ele>1712</ele>
        <time>2018-05-08T10:10:59Z</time>
      </trkpt>
      <trkpt lat="43.99848" lon="7.23244">
        <ele>1714</ele>
        <time>2018-05-08T10:11:59Z</time>
      </trkpt>
      <trkpt lat="43.99855" lon="7.23267">
        <ele>1713</ele>
        <time>2018-05-08T10:12:59Z</time>
      </trkpt>
      <trkpt lat="43.99878" lon="7.23352">
        <ele>1710</ele>
        <time>2018-05-08T10:13:59Z</time>
      </trkpt>
      <trkpt lat="43.99882" lon="7.23365">
        <ele>1709</ele>
        <time>2018-05-08T10:14:59Z</time>
      </trkpt>
      <trkpt lat="43.99888" lon="7.23393">
        <ele>1707</ele>
        <time>2018-05-08T10:15:59Z</time>
      </trkpt>
      <trkpt lat="43.99893" lon="7.23423">
        <ele>1705</ele>
        <time>2018-05-08T10:16:59Z</time>
      </trkpt>
      <trkpt lat="43.99894" lon="7.23439">
        <ele>1705</ele>
        <time>2018-05-08T10:17:59Z</time>
      </trkpt>
      <trkpt lat="43.99892" lon="7.23471">
        <ele>1703</ele>
        <time>2018-05-08T10:18:59Z</time>
      </trkpt>
      <trkpt lat="43.9989" lon="7.23486">
        <ele>1702</ele>
        <time>2018-05-08T10:19:59Z</time>
      </trkpt>
      <trkpt lat="43.99887" lon="7.23501">
        <ele>1700</ele>
        <time>2018-05-08T10:20:59Z</time>
      </trkpt>
      <trkpt lat="43.99883" lon="7.23516">
        <ele>1698</ele>
        <time>2018-05-08T10:21:59Z</time>
      </trkpt>
      <trkpt lat="43.99878" lon="7.23531">
        <ele>1695</ele>
        <time>2018-05-08T10:22:59Z</time>
      </trkpt>
      <trkpt lat="43.99875" lon="7.23546">
        <ele>1694</ele>
        <time>2018-05-08T10:23:59Z</time>
      </trkpt>
      <trkpt lat="43.99873" lon="7.23559">
        <ele>1693</ele>
        <time>2018-05-08T10:24:59Z</time>
      </trkpt>
      <trkpt lat="43.99871" lon="7.2357">
        <ele>1693</ele>
        <time>2018-05-08T10:25:59Z</time>
      </trkpt>
      <trkpt lat="43.99868" lon="7.23579">
        <ele>1692</ele>
        <time>2018-05-08T10:26:59Z</time>
      </trkpt>
      <trkpt lat="43.99866" lon="7.23587">
        <ele>1691</ele>
        <time>2018-05-08T10:27:59Z</time>
      </trkpt>
      <trkpt lat="43.99861" lon="7.23599">
        <ele>1688</ele>
        <time>2018-05-08T10:28:59Z</time>
      </trkpt>
      <trkpt lat="43.99858" lon="7.23604">
        <ele>1687</ele>
        <time>2018-05-08T10:29:59Z</time>
      </trkpt>
      <trkpt lat="43.99851" lon="7.23605">
        <ele>1685</ele>
        <time>2018-05-08T10:30:59Z</time>
      </trkpt>
      <trkpt lat="43.99851" lon="7.23597">
        <ele>1686</ele>
        <time>2018-05-08T10:31:59Z</time>
      </trkpt>
      <trkpt lat="43.9985" lon="7.23592">
        <ele>1687</ele>
        <time>2018-05-08T10:32:59Z</time>
      </trkpt>
      <trkpt lat="43.99847" lon="7.23591">
        <ele>1686</ele>
        <time>2018-05-08T10:33:59Z</time>
      </trkpt>
      <trkpt lat="43.99846" lon="7.2359">
        <ele>1686</ele>
        <time>2018-05-08T10:34:59Z</time>
      </trkpt>
      <trkpt lat="43.99843" lon="7.23567">
        <ele>1685</ele>
        <time>2018-05-08T10:35:59Z</time>
      </trkpt>
      <trkpt lat="43.99842" lon="7.23564">
        <ele>1685</ele>
        <time>2018-05-08T10:36:59Z</time>
      </trkpt>
      <trkpt lat="43.99839" lon="7.23563">
        <ele>1684</ele>
        <time>2018-05-08T10:37:59Z</time>
      </trkpt>
      <trkpt lat="43.99832" lon="7.23562">
        <ele>1682</ele>
        <time>2018-05-08T10:38:59Z</time>
      </trkpt>
      <trkpt lat="43.99824" lon="7.23563">
        <ele>1680</ele>
        <time>2018-05-08T10:39:59Z</time>
      </trkpt>
      <trkpt lat="43.998" lon="7.23574">
        <ele>1676</ele>
        <time>2018-05-08T10:40:59Z</time>
      </trkpt>
      <trkpt lat="43.99797" lon="7.23575">
        <ele>1675</ele>
        <time>2018-05-08T10:41:59Z</time>
      </trkpt>
      <trkpt lat="43.99798" lon="7.23569">
        <ele>1675</ele>
        <time>2018-05-08T10:42:59Z</time>
      </trkpt>
      <trkpt lat="43.99799" lon="7.23566">
        <ele>1675</ele>
        <time>2018-05-08T10:43:59Z</time>
      </trkpt>
      <trkpt lat="43.998" lon="7.23554">
        <ele>1673</ele>
        <time>2018-05-08T10:44:59Z</time>
      </trkpt>
      <trkpt lat="43.99799" lon="7.23551">
        <ele>1673</ele>
        <time>2018-05-08T10:45:59Z</time>
      </trkpt>
      <trkpt lat="43.99798" lon="7.2355">
        <ele>1672</ele>
        <time>2018-05-08T10:46:59Z</time>
      </trkpt>
      <trkpt lat="43.99792" lon="7.2355">
        <ele>1671</ele>
        <time>2018-05-08T10:47:59Z</time>
      </trkpt>
      <trkpt lat="43.99783" lon="7.23549">
        <ele>1668</ele>
        <time>2018-05-08T10:48:59Z</time>
      </trkpt>
      <trkpt lat="43.99781" lon="7.23549">
        <ele>1668</ele>
        <time>2018-05-08T10:49:59Z</time>
      </trkpt>
      <trkpt lat="43.99771" lon="7.23551">
        <ele>1665</ele>
        <time>2018-05-08T10:50:59Z</time>
      </trkpt>
      <trkpt lat="43.99767" lon="7.23551">
        <ele>1664</ele>
        <time>2018-05-08T10:51:59Z</time>
      </trkpt>
      <trkpt lat="43.99764" lon="7.23549">
        <ele>1663</ele>
        <time>2018-05-08T10:52:59Z</time>
      </trkpt>
      <trkpt lat="43.99763" lon="7.23547">
        <ele>1663</ele>
        <time>2018-05-08T10:53:59Z</time>
      </trkpt>
      <trkpt lat="43.99762" lon="7.23544">
        <ele>1662</ele>
        <time>2018-05-08T10:54:59Z</time>
      </trkpt>
      <trkpt lat="43.99764" lon="7.23541">
        <ele>1662</ele>
        <time>2018-05-08T10:55:59Z</time>
      </trkpt>
      <trkpt lat="43.99764" lon="7.23539">
        <ele>1661</ele>
        <time>2018-05-08T10:56:59Z</time>
      </trkpt>
      <trkpt lat="43.99761" lon="7.23536">
        <ele>1660</ele>
        <time>2018-05-08T10:57:59Z</time>
      </trkpt>
      <trkpt lat="43.99759" lon="7.23534">
        <ele>1659</ele>
        <time>2018-05-08T10:58:59Z</time>
      </trkpt>
      <trkpt lat="43.99758" lon="7.2353">
        <ele>1658</ele>
        <time>2018-05-08T10:59:59Z</time>
      </trkpt>
      <trkpt lat="43.99755" lon="7.23526">
        <ele>1656</ele>
        <time>2018-05-08T11:00:59Z</time>
      </trkpt>
      <trkpt lat="43.99752" lon="7.23525">
        <ele>1655</ele>
        <time>2018-05-08T11:01:59Z</time>
      </trkpt>
      <trkpt lat="43.99748" lon="7.23524">
        <ele>1654</ele>
        <time>2018-05-08T11:02:59Z</time>
      </trkpt>
      <trkpt lat="43.99746" lon="7.23518">
        <ele>1652</ele>
        <time>2018-05-08T11:03:59Z</time>
      </trkpt>
      <trkpt lat="43.99746" lon="7.23514">
        <ele>1651</ele>
        <time>2018-05-08T11:04:59Z</time>
      </trkpt>
      <trkpt lat="43.99747" lon="7.23512">
        <ele>1651</ele>
        <time>2018-05-08T11:05:59Z</time>
      </trkpt>
      <trkpt lat="43.99746" lon="7.23506">
        <ele>1649</ele>
        <time>2018-05-08T11:06:59Z</time>
      </trkpt>
      <trkpt lat="43.99745" lon="7.23504">
        <ele>1648</ele>
        <time>2018-05-08T11:07:59Z</time>
      </trkpt>
      <trkpt lat="43.99743" lon="7.23504">
        <ele>1648</ele>
        <time>2018-05-08T11:08:59Z</time>
      </trkpt>
      <trkpt lat="43.9974" lon="7.23503">
        <ele>1647</ele>
        <time>2018-05-08T11:09:59Z</time>
      </trkpt>
      <trkpt lat="43.99738" lon="7.23504">
        <ele>1646</ele>
        <time>2018-05-08T11:10:59Z</time>
      </trkpt>
      <trkpt lat="43.9973" lon="7.23504">
        <ele>1644</ele>
        <time>2018-05-08T11:11:59Z</time>
      </trkpt>
      <trkpt lat="43.99726" lon="7.23503">
        <ele>1642</ele>
        <time>2018-05-08T11:12:59Z</time>
      </trkpt>
      <trkpt lat="43.99725" lon="7.23496">
        <ele>1641</ele>
        <time>2018-05-08T11:13:59Z</time>
      </trkpt>
      <trkpt lat="43.99726" lon="7.23489">
        <ele>1641</ele>
        <time>2018-05-08T11:14:59Z</time>
      </trkpt>
      <trkpt lat="43.99722" lon="7.23486">
        <ele>1639</ele>
        <time>2018-05-08T11:15:59Z</time>
      </trkpt>
      <trkpt lat="43.99719" lon="7.23485">
        <ele>1638</ele>
        <time>2018-05-08T11:16:59Z</time>
      </trkpt>
      <trkpt lat="43.99713" lon="7.23485">
        <ele>1636</ele>
        <time>2018-05-08T11:17:59Z</time>
      </trkpt>
      <trkpt lat="43.99709" lon="7.23487">
        <ele>1635</ele>
        <time>2018-05-08T11:18:59Z</time>
      </trkpt>
      <trkpt lat="43.99701" lon="7.23491">
        <ele>1633</ele>
        <time>2018-05-08T11:19:59Z</time>
      </trkpt>
      <trkpt lat="43.99699" lon="7.23491">
        <ele>1632</ele>
        <time>2018-05-08T11:20:59Z</time>
      </trkpt>
      <trkpt lat="43.997" lon="7.23486">
        <ele>1632</ele>
        <time>2018-05-08T11:21:59Z</time>
      </trkpt>
      <trkpt lat="43.99698" lon="7.23483">
        <ele>1631</ele>
        <time>2018-05-08T11:22:59Z</time>
      </trkpt>
      <trkpt lat="43.9969" lon="7.23484">
        <ele>1629</ele>
        <time>2018-05-08T11:23:59Z</time>
      </trkpt>
      <trkpt lat="43.99684" lon="7.2348">
        <ele>1627</ele>
        <time>2018-05-08T11:24:59Z</time>
      </trkpt>
      <trkpt lat="43.99685" lon="7.23468">
        <ele>1626</ele>
        <time>2018-05-08T11:25:59Z</time>
      </trkpt>
      <trkpt lat="43.99684" lon="7.23467">
        <ele>1625</ele>
        <time>2018-05-08T11:26:59Z</time>
      </trkpt>
      <trkpt lat="43.99661" lon="7.23474">
        <ele>1619</ele>
        <time>2018-05-08T11:27:59Z</time>
      </trkpt>
      <trkpt lat="43.99653" lon="7.23475">
        <ele>1617</ele>
        <time>2018-05-08T11:28:59Z</time>
      </trkpt>
      <trkpt lat="43.99654" lon="7.23465">
        <ele>1616</ele>
        <time>2018-05-08T11:29:59Z</time>
      </trkpt>
      <trkpt lat="43.99653" lon="7.23462">
        <ele>1616</ele>
        <time>2018-05-08T11:30:59Z</time>
      </trkpt>
      <trkpt lat="43.9965" lon="7.23461">
        <ele>1615</ele>
        <time>2018-05-08T11:31:59Z</time>
      </trkpt>
      <trkpt lat="43.99648" lon="7.23461">
        <ele>1615</ele>
        <time>2018-05-08T11:32:59Z</time>
      </trkpt>
      <trkpt lat="43.99642" lon="7.23458">
        <ele>1613</ele>
        <time>2018-05-08T11:33:59Z</time>
      </trkpt>
      <trkpt lat="43.99641" lon="7.23456">
        <ele>1612</ele>
        <time>2018-05-08T11:34:59Z</time>
      </trkpt>
      <trkpt lat="43.9964" lon="7.23453">
        <ele>1612</ele>
        <time>2018-05-08T11:35:59Z</time>
      </trkpt>
      <trkpt lat="43.9964" lon="7.23444">
        <ele>1611</ele>
        <time>2018-05-08T11:36:59Z</time>
      </trkpt>
      <trkpt lat="43.99635" lon="7.2343">
        <ele>1608</ele>
        <time>2018-05-08T11:37:59Z</time>
      </trkpt>
      <trkpt lat="43.99633" lon="7.23428">
        <ele>1607</ele>
        <time>2018-05-08T11:38:59Z</time>
      </trkpt>
      <trkpt lat="43.99627" lon="7.23426">
        <ele>1605</ele>
        <time>2018-05-08T11:39:59Z</time>
      </trkpt>
      <trkpt lat="43.99619" lon="7.23425">
        <ele>1603</ele>
        <time>2018-05-08T11:40:59Z</time>
      </trkpt>
      <trkpt lat="43.99615" lon="7.23425">
        <ele>1602</ele>
        <time>2018-05-08T11:41:59Z</time>
      </trkpt>
      <trkpt lat="43.99612" lon="7.23425">
        <ele>1601</ele>
        <time>2018-05-08T11:42:59Z</time>
      </trkpt>
      <trkpt lat="43.99605" lon="7.23426">
        <ele>1599</ele>
        <time>2018-05-08T11:43:59Z</time>
      </trkpt>
      <trkpt lat="43.99592" lon="7.2343">
        <ele>1597</ele>
        <time>2018-05-08T11:44:59Z</time>
      </trkpt>
      <trkpt lat="43.99585" lon="7.23431">
        <ele>1595</ele>
        <time>2018-05-08T11:45:59Z</time>
      </trkpt>
      <trkpt lat="43.99578" lon="7.23431">
        <ele>1594</ele>
        <time>2018-05-08T11:46:59Z</time>
      </trkpt>
      <trkpt lat="43.99572" lon="7.23434">
        <ele>1594</ele>
        <time>2018-05-08T11:47:59Z</time>
      </trkpt>
      <trkpt lat="43.99566" lon="7.23434">
        <ele>1593</ele>
        <time>2018-05-08T11:48:59Z</time>
      </trkpt>
      <trkpt lat="43.99563" lon="7.23434">
        <ele>1593</ele>
        <time>2018-05-08T11:49:59Z</time>
      </trkpt>
      <trkpt lat="43.99562" lon="7.23429">
        <ele>1591</ele>
        <time>2018-05-08T11:50:59Z</time>
      </trkpt>
      <trkpt lat="43.99564" lon="7.23423">
        <ele>1591</ele>
        <time>2018-05-08T11:51:59Z</time>
      </trkpt>
      <trkpt lat="43.9957" lon="7.23411">
        <ele>1590</ele>
        <time>2018-05-08T11:52:59Z</time>
      </trkpt>
      <trkpt lat="43.99569" lon="7.23396">
        <ele>1591</ele>
        <time>2018-05-08T11:53:59Z</time>
      </trkpt>
      <trkpt lat="43.99566" lon="7.2339">
        <ele>1591</ele>
        <time>2018-05-08T11:54:59Z</time>
      </trkpt>
      <trkpt lat="43.99554" lon="7.23377">
        <ele>1590</ele>
        <time>2018-05-08T11:55:59Z</time>
      </trkpt>
      <trkpt lat="43.99547" lon="7.2337">
        <ele>1589</ele>
        <time>2018-05-08T11:56:59Z</time>
      </trkpt>
      <trkpt lat="43.99539" lon="7.23365">
        <ele>1588</ele>
        <time>2018-05-08T11:57:59Z</time>
      </trkpt>
      <trkpt lat="43.9953" lon="7.23359">
        <ele>1587</ele>
        <time>2018-05-08T11:58:59Z</time>
      </trkpt>
      <trkpt lat="43.99513" lon="7.23349">
        <ele>1585</ele>
        <time>2018-05-08T11:59:59Z</time>
      </trkpt>
      <trkpt lat="43.99498" lon="7.2334">
        <ele>1583</ele>
        <time>2018-05-08T12:00:59Z</time>
      </trkpt>
      <trkpt lat="43.99472" lon="7.23329">
        <ele>1577</ele>
        <time>2018-05-08T12:01:59Z</time>
      </trkpt>
      <trkpt lat="43.99464" lon="7.23324">
        <ele>1576</ele>
        <time>2018-05-08T12:02:59Z</time>
      </trkpt>
      <trkpt lat="43.99454" lon="7.23315">
        <ele>1575</ele>
        <time>2018-05-08T12:03:59Z</time>
      </trkpt>
      <trkpt lat="43.99445" lon="7.23307">
        <ele>1573</ele>
        <time>2018-05-08T12:04:59Z</time>
      </trkpt>
      <trkpt lat="43.99436" lon="7.23302">
        <ele>1571</ele>
        <time>2018-05-08T12:05:59Z</time>
      </trkpt>
      <trkpt lat="43.99433" lon="7.23298">
        <ele>1571</ele>
        <time>2018-05-08T12:06:59Z</time>
      </trkpt>
      <trkpt lat="43.99429" lon="7.23296">
        <ele>1569</ele>
        <time>2018-05-08T12:07:59Z</time>
      </trkpt>
      <trkpt lat="43.99425" lon="7.23294">
        <ele>1568</ele>
        <time>2018-05-08T12:08:59Z</time>
      </trkpt>
      <trkpt lat="43.99412" lon="7.23286">
        <ele>1565</ele>
        <time>2018-05-08T12:09:59Z</time>
      </trkpt>
      <trkpt lat="43.99411" lon="7.23285">
        <ele>1564</ele>
        <time>2018-05-08T12:10:59Z</time>
      </trkpt>
      <trkpt lat="43.99397" lon="7.23278">
        <ele>1560</ele>
        <time>2018-05-08T12:11:59Z</time>
      </trkpt>
      <trkpt lat="43.99393" lon="7.23275">
        <ele>1559</ele>
        <time>2018-05-08T12:12:59Z</time>
      </trkpt>
      <trkpt lat="43.99383" lon="7.23272">
        <ele>1556</ele>
        <time>2018-05-08T12:13:59Z</time>
      </trkpt>
      <trkpt lat="43.99381" lon="7.23271">
        <ele>1555</ele>
        <time>2018-05-08T12:14:59Z</time>
      </trkpt>
      <trkpt lat="43.99376" lon="7.23267">
        <ele>1553</ele>
        <time>2018-05-08T12:15:59Z</time>
      </trkpt>
      <trkpt lat="43.99373" lon="7.23266">
        <ele>1552</ele>
        <time>2018-05-08T12:16:59Z</time>
      </trkpt>
      <trkpt lat="43.9937" lon="7.23261">
        <ele>1551</ele>
        <time>2018-05-08T12:17:59Z</time>
      </trkpt>
      <trkpt lat="43.99365" lon="7.23256">
        <ele>1549</ele>
        <time>2018-05-08T12:18:59Z</time>
      </trkpt>
      <trkpt lat="43.99359" lon="7.23246">
        <ele>1546</ele>
        <time>2018-05-08T12:19:59Z</time>
      </trkpt>
      <trkpt lat="43.99349" lon="7.23232">
        <ele>1544</ele>
        <time>2018-05-08T12:20:59Z</time>
      </trkpt>
      <trkpt lat="43.99342" lon="7.23224">
        <ele>1543</ele>
        <time>2018-05-08T12:21:59Z</time>
      </trkpt>
      <trkpt lat="43.99336" lon="7.23218">
        <ele>1541</ele>
        <time>2018-05-08T12:22:59Z</time>
      </trkpt>
      <trkpt lat="43.99329" lon="7.23211">
        <ele>1540</ele>
        <time>2018-05-08T12:23:59Z</time>
      </trkpt>
      <trkpt lat="43.99326" lon="7.2321">
        <ele>1539</ele>
        <time>2018-05-08T12:24:59Z</time>
      </trkpt>
      <trkpt lat="43.99317" lon="7.23203">
        <ele>1537</ele>
        <time>2018-05-08T12:25:59Z</time>
      </trkpt>
      <trkpt lat="43.99311" lon="7.232">
        <ele>1536</ele>
        <time>2018-05-08T12:26:59Z</time>
      </trkpt>
      <trkpt lat="43.99303" lon="7.23198">
        <ele>1533</ele>
        <time>2018-05-08T12:27:59Z</time>
      </trkpt>
      <trkpt lat="43.99297" lon="7.23198">
        <ele>1531</ele>
        <time>2018-05-08T12:28:59Z</time>
      </trkpt>
      <trkpt lat="43.99294" lon="7.23197">
        <ele>1530</ele>
        <time>2018-05-08T12:29:59Z</time>
      </trkpt>
      <trkpt lat="43.99289" lon="7.23196">
        <ele>1529</ele>
        <time>2018-05-08T12:30:59Z</time>
      </trkpt>
      <trkpt lat="43.99287" lon="7.23197">
        <ele>1528</ele>
        <time>2018-05-08T12:31:59Z</time>
      </trkpt>
      <trkpt lat="43.99282" lon="7.23199">
        <ele>1526</ele>
        <time>2018-05-08T12:32:59Z</time>
      </trkpt>
      <trkpt lat="43.99249" lon="7.23187">
        <ele>1516</ele>
        <time>2018-05-08T12:33:59Z</time>
      </trkpt>
      <trkpt lat="43.99242" lon="7.23186">
        <ele>1514</ele>
        <time>2018-05-08T12:34:59Z</time>
      </trkpt>
      <trkpt lat="43.99211" lon="7.23167">
        <ele>1506</ele>
        <time>2018-05-08T12:35:59Z</time>
      </trkpt>
      <trkpt lat="43.99207" lon="7.23165">
        <ele>1505</ele>
        <time>2018-05-08T12:36:59Z</time>
      </trkpt>
      <trkpt lat="43.99203" lon="7.23167">
        <ele>1504</ele>
        <time>2018-05-08T12:37:59Z</time>
      </trkpt>
      <trkpt lat="43.99201" lon="7.23167">
        <ele>1503</ele>
        <time>2018-05-08T12:38:59Z</time>
      </trkpt>
      <trkpt lat="43.99198" lon="7.23169">
        <ele>1502</ele>
        <time>2018-05-08T12:39:59Z</time>
      </trkpt>
      <trkpt lat="43.99198" lon="7.23169">
        <ele>1502</ele>
        <time>2018-05-08T12:40:59Z</time>
      </trkpt>
      <trkpt lat="43.99198" lon="7.23169">
        <ele>1502</ele>
        <time>2018-05-08T12:41:59Z</time>
      </trkpt>
      <trkpt lat="43.99195" lon="7.23168">
        <ele>1501</ele>
        <time>2018-05-08T12:42:59Z</time>
      </trkpt>
      <trkpt lat="43.99192" lon="7.23168">
        <ele>1501</ele>
        <time>2018-05-08T12:43:59Z</time>
      </trkpt>
      <trkpt lat="43.99186" lon="7.23169">
        <ele>1499</ele>
        <time>2018-05-08T12:44:59Z</time>
      </trkpt>
      <trkpt lat="43.99179" lon="7.23171">
        <ele>1496</ele>
        <time>2018-05-08T12:45:59Z</time>
      </trkpt>
      <trkpt lat="43.99172" lon="7.23173">
        <ele>1494</ele>
        <time>2018-05-08T12:46:59Z</time>
      </trkpt>
      <trkpt lat="43.99148" lon="7.23178">
        <ele>1489</ele>
        <time>2018-05-08T12:47:59Z</time>
      </trkpt>
      <trkpt lat="43.99144" lon="7.23179">
        <ele>1488</ele>
        <time>2018-05-08T12:48:59Z</time>
      </trkpt>
      <trkpt lat="43.9913" lon="7.23181">
        <ele>1485</ele>
        <time>2018-05-08T12:49:59Z</time>
      </trkpt>
      <trkpt lat="43.99126" lon="7.23182">
        <ele>1484</ele>
        <time>2018-05-08T12:50:59Z</time>
      </trkpt>
      <trkpt lat="43.9911" lon="7.23185">
        <ele>1480</ele>
        <time>2018-05-08T12:51:59Z</time>
      </trkpt>
      <trkpt lat="43.99105" lon="7.23184">
        <ele>1479</ele>
        <time>2018-05-08T12:52:59Z</time>
      </trkpt>
      <trkpt lat="43.99066" lon="7.23191">
        <ele>1471</ele>
        <time>2018-05-08T12:53:59Z</time>
      </trkpt>
      <trkpt lat="43.99056" lon="7.23189">
        <ele>1470</ele>
        <time>2018-05-08T12:54:59Z</time>
      </trkpt>
      <trkpt lat="43.99053" lon="7.23185">
        <ele>1470</ele>
        <time>2018-05-08T12:55:59Z</time>
      </trkpt>
      <trkpt lat="43.99049" lon="7.23181">
        <ele>1469</ele>
        <time>2018-05-08T12:56:59Z</time>
      </trkpt>
      <trkpt lat="43.99045" lon="7.23178">
        <ele>1469</ele>
        <time>2018-05-08T12:57:59Z</time>
      </trkpt>
      <trkpt lat="43.99043" lon="7.23176">
        <ele>1469</ele>
        <time>2018-05-08T12:58:59Z</time>
      </trkpt>
      <trkpt lat="43.99045" lon="7.23172">
        <ele>1469</ele>
        <time>2018-05-08T12:59:59Z</time>
      </trkpt>
      <trkpt lat="43.99051" lon="7.23165">
        <ele>1470</ele>
        <time>2018-05-08T13:00:59Z</time>
      </trkpt>
      <trkpt lat="43.9905" lon="7.23163">
        <ele>1470</ele>
        <time>2018-05-08T13:01:59Z</time>
      </trkpt>
      <trkpt lat="43.99047" lon="7.23162">
        <ele>1469</ele>
        <time>2018-05-08T13:02:59Z</time>
      </trkpt>
      <trkpt lat="43.99042" lon="7.23162">
        <ele>1468</ele>
        <time>2018-05-08T13:03:59Z</time>
      </trkpt>
      <trkpt lat="43.99036" lon="7.23162">
        <ele>1467</ele>
        <time>2018-05-08T13:04:59Z</time>
      </trkpt>
      <trkpt lat="43.99033" lon="7.2316">
        <ele>1466</ele>
        <time>2018-05-08T13:05:59Z</time>
      </trkpt>
      <trkpt lat="43.99032" lon="7.23156">
        <ele>1464</ele>
        <time>2018-05-08T13:06:59Z</time>
      </trkpt>
      <trkpt lat="43.99027" lon="7.23153">
        <ele>1462</ele>
        <time>2018-05-08T13:07:59Z</time>
      </trkpt>
      <trkpt lat="43.99023" lon="7.23153">
        <ele>1461</ele>
        <time>2018-05-08T13:08:59Z</time>
      </trkpt>
      <trkpt lat="43.99021" lon="7.23151">
        <ele>1460</ele>
        <time>2018-05-08T13:09:59Z</time>
      </trkpt>
      <trkpt lat="43.9902" lon="7.2315">
        <ele>1460</ele>
        <time>2018-05-08T13:10:59Z</time>
      </trkpt>
      <trkpt lat="43.9902" lon="7.23147">
        <ele>1459</ele>
        <time>2018-05-08T13:11:59Z</time>
      </trkpt>
      <trkpt lat="43.99022" lon="7.23143">
        <ele>1458</ele>
        <time>2018-05-08T13:12:59Z</time>
      </trkpt>
      <trkpt lat="43.99021" lon="7.23143">
        <ele>1458</ele>
        <time>2018-05-08T13:13:59Z</time>
      </trkpt>
      <trkpt lat="43.99017" lon="7.2314">
        <ele>1456</ele>
        <time>2018-05-08T13:14:59Z</time>
      </trkpt>
      <trkpt lat="43.99014" lon="7.23139">
        <ele>1455</ele>
        <time>2018-05-08T13:15:59Z</time>
      </trkpt>
      <trkpt lat="43.98997" lon="7.23131">
        <ele>1447</ele>
        <time>2018-05-08T13:16:59Z</time>
      </trkpt>
      <trkpt lat="43.98991" lon="7.23129">
        <ele>1445</ele>
        <time>2018-05-08T13:17:59Z</time>
      </trkpt>
      <trkpt lat="43.98987" lon="7.23129">
        <ele>1443</ele>
        <time>2018-05-08T13:18:59Z</time>
      </trkpt>
      <trkpt lat="43.98981" lon="7.23133">
        <ele>1443</ele>
        <time>2018-05-08T13:19:59Z</time>
      </trkpt>
      <trkpt lat="43.98977" lon="7.23134">
        <ele>1442</ele>
        <time>2018-05-08T13:20:59Z</time>
      </trkpt>
      <trkpt lat="43.98975" lon="7.23136">
        <ele>1442</ele>
        <time>2018-05-08T13:21:59Z</time>
      </trkpt>
      <trkpt lat="43.98973" lon="7.23138">
        <ele>1442</ele>
        <time>2018-05-08T13:22:59Z</time>
      </trkpt>
      <trkpt lat="43.9897" lon="7.23138">
        <ele>1441</ele>
        <time>2018-05-08T13:23:59Z</time>
      </trkpt>
      <trkpt lat="43.98968" lon="7.23139">
        <ele>1441</ele>
        <time>2018-05-08T13:24:59Z</time>
      </trkpt>
      <trkpt lat="43.98966" lon="7.23139">
        <ele>1440</ele>
        <time>2018-05-08T13:25:59Z</time>
      </trkpt>
      <trkpt lat="43.98961" lon="7.23138">
        <ele>1438</ele>
        <time>2018-05-08T13:26:59Z</time>
      </trkpt>
      <trkpt lat="43.9896" lon="7.23137">
        <ele>1438</ele>
        <time>2018-05-08T13:27:59Z</time>
      </trkpt>
      <trkpt lat="43.98955" lon="7.23139">
        <ele>1437</ele>
        <time>2018-05-08T13:28:59Z</time>
      </trkpt>
      <trkpt lat="43.9895" lon="7.23142">
        <ele>1436</ele>
        <time>2018-05-08T13:29:59Z</time>
      </trkpt>
      <trkpt lat="43.98947" lon="7.23143">
        <ele>1436</ele>
        <time>2018-05-08T13:30:59Z</time>
      </trkpt>
      <trkpt lat="43.98946" lon="7.23144">
        <ele>1436</ele>
        <time>2018-05-08T13:31:59Z</time>
      </trkpt>
      <trkpt lat="43.98945" lon="7.23145">
        <ele>1436</ele>
        <time>2018-05-08T13:32:59Z</time>
      </trkpt>
      <trkpt lat="43.98936" lon="7.23153">
        <ele>1435</ele>
        <time>2018-05-08T13:33:59Z</time>
      </trkpt>
      <trkpt lat="43.98928" lon="7.23155">
        <ele>1433</ele>
        <time>2018-05-08T13:34:59Z</time>
      </trkpt>
      <trkpt lat="43.98921" lon="7.23155">
        <ele>1431</ele>
        <time>2018-05-08T13:35:59Z</time>
      </trkpt>
      <trkpt lat="43.98914" lon="7.23155">
        <ele>1429</ele>
        <time>2018-05-08T13:36:59Z</time>
      </trkpt>
      <trkpt lat="43.9891" lon="7.23156">
        <ele>1428</ele>
        <time>2018-05-08T13:37:59Z</time>
      </trkpt>
      <trkpt lat="43.98907" lon="7.23155">
        <ele>1426</ele>
        <time>2018-05-08T13:38:59Z</time>
      </trkpt>
      <trkpt lat="43.98905" lon="7.23154">
        <ele>1425</ele>
        <time>2018-05-08T13:39:59Z</time>
      </trkpt>
      <trkpt lat="43.98899" lon="7.23153">
        <ele>1423</ele>
        <time>2018-05-08T13:40:59Z</time>
      </trkpt>
      <trkpt lat="43.98894" lon="7.23152">
        <ele>1421</ele>
        <time>2018-05-08T13:41:59Z</time>
      </trkpt>
      <trkpt lat="43.98887" lon="7.23154">
        <ele>1420</ele>
        <time>2018-05-08T13:42:59Z</time>
      </trkpt>
      <trkpt lat="43.98876" lon="7.23159">
        <ele>1418</ele>
        <time>2018-05-08T13:43:59Z</time>
      </trkpt>
      <trkpt lat="43.98869" lon="7.23161">
        <ele>1416</ele>
        <time>2018-05-08T13:44:59Z</time>
      </trkpt>
      <trkpt lat="43.98864" lon="7.23162">
        <ele>1415</ele>
        <time>2018-05-08T13:45:59Z</time>
      </trkpt>
      <trkpt lat="43.98854" lon="7.23162">
        <ele>1411</ele>
        <time>2018-05-08T13:46:59Z</time>
      </trkpt>
      <trkpt lat="43.98854" lon="7.23161">
        <ele>1411</ele>
        <time>2018-05-08T13:47:59Z</time>
      </trkpt>
      <trkpt lat="43.98857" lon="7.23158">
        <ele>1411</ele>
        <time>2018-05-08T13:48:59Z</time>
      </trkpt>
      <trkpt lat="43.98857" lon="7.23154">
        <ele>1410</ele>
        <time>2018-05-08T13:49:59Z</time>
      </trkpt>
      <trkpt lat="43.98852" lon="7.2315">
        <ele>1407</ele>
        <time>2018-05-08T13:50:59Z</time>
      </trkpt>
      <trkpt lat="43.98846" lon="7.23149">
        <ele>1405</ele>
        <time>2018-05-08T13:51:59Z</time>
      </trkpt>
      <trkpt lat="43.98842" lon="7.2315">
        <ele>1404</ele>
        <time>2018-05-08T13:52:59Z</time>
      </trkpt>
      <trkpt lat="43.98832" lon="7.23156">
        <ele>1402</ele>
        <time>2018-05-08T13:53:59Z</time>
      </trkpt>
      <trkpt lat="43.98822" lon="7.23161">
        <ele>1400</ele>
        <time>2018-05-08T13:54:59Z</time>
      </trkpt>
      <trkpt lat="43.98817" lon="7.23167">
        <ele>1400</ele>
        <time>2018-05-08T13:55:59Z</time>
      </trkpt>
      <trkpt lat="43.98815" lon="7.23168">
        <ele>1400</ele>
        <time>2018-05-08T13:56:59Z</time>
      </trkpt>
      <trkpt lat="43.98815" lon="7.23167">
        <ele>1400</ele>
        <time>2018-05-08T13:57:59Z</time>
      </trkpt>
      <trkpt lat="43.98815" lon="7.23166">
        <ele>1400</ele>
        <time>2018-05-08T13:58:59Z</time>
      </trkpt>
      <trkpt lat="43.98813" lon="7.23163">
        <ele>1398</ele>
        <time>2018-05-08T13:59:59Z</time>
      </trkpt>
      <trkpt lat="43.98811" lon="7.23162">
        <ele>1397</ele>
        <time>2018-05-08T14:00:59Z</time>
      </trkpt>
      <trkpt lat="43.98811" lon="7.23162">
        <ele>1397</ele>
        <time>2018-05-08T14:01:59Z</time>
      </trkpt>
      <trkpt lat="43.9881" lon="7.23163">
        <ele>1397</ele>
        <time>2018-05-08T14:02:59Z</time>
      </trkpt>
      <trkpt lat="43.9881" lon="7.23163">
        <ele>1397</ele>
        <time>2018-05-08T14:03:59Z</time>
      </trkpt>
      <trkpt lat="43.98811" lon="7.23163">
        <ele>1397</ele>
        <time>2018-05-08T14:04:59Z</time>
      </trkpt>
      <trkpt lat="43.98811" lon="7.23162">
        <ele>1397</ele>
        <time>2018-05-08T14:05:59Z</time>
      </trkpt>
      <trkpt lat="43.98811" lon="7.2316">
        <ele>1396</ele>
        <time>2018-05-08T14:06:59Z</time>
      </trkpt>
      <trkpt lat="43.9881" lon="7.2316">
        <ele>1396</ele>
        <time>2018-05-08T14:07:59Z</time>
      </trkpt>
      <trkpt lat="43.9881" lon="7.23159">
        <ele>1396</ele>
        <time>2018-05-08T14:08:59Z</time>
      </trkpt>
      <trkpt lat="43.9881" lon="7.23158">
        <ele>1395</ele>
        <time>2018-05-08T14:09:59Z</time>
      </trkpt>
      <trkpt lat="43.98814" lon="7.23154">
        <ele>1396</ele>
        <time>2018-05-08T14:10:59Z</time>
      </trkpt>
      <trkpt lat="43.98814" lon="7.23154">
        <ele>1396</ele>
        <time>2018-05-08T14:11:59Z</time>
      </trkpt>
      <trkpt lat="43.98812" lon="7.23152">
        <ele>1394</ele>
        <time>2018-05-08T14:12:59Z</time>
      </trkpt>
      <trkpt lat="43.98808" lon="7.23152">
        <ele>1393</ele>
        <time>2018-05-08T14:13:59Z</time>
      </trkpt>
      <trkpt lat="43.98796" lon="7.23157">
        <ele>1390</ele>
        <time>2018-05-08T14:14:59Z</time>
      </trkpt>
      <trkpt lat="43.98794" lon="7.23158">
        <ele>1390</ele>
        <time>2018-05-08T14:15:59Z</time>
      </trkpt>
      <trkpt lat="43.98785" lon="7.23159">
        <ele>1387</ele>
        <time>2018-05-08T14:16:59Z</time>
      </trkpt>
      <trkpt lat="43.98775" lon="7.2316">
        <ele>1384</ele>
        <time>2018-05-08T14:17:59Z</time>
      </trkpt>
      <trkpt lat="43.98766" lon="7.23162">
        <ele>1382</ele>
        <time>2018-05-08T14:18:59Z</time>
      </trkpt>
      <trkpt lat="43.98758" lon="7.23166">
        <ele>1380</ele>
        <time>2018-05-08T14:19:59Z</time>
      </trkpt>
      <trkpt lat="43.98747" lon="7.23173">
        <ele>1376</ele>
        <time>2018-05-08T14:20:59Z</time>
      </trkpt>
      <trkpt lat="43.98744" lon="7.23175">
        <ele>1375</ele>
        <time>2018-05-08T14:21:59Z</time>
      </trkpt>
      <trkpt lat="43.98738" lon="7.23176">
        <ele>1373</ele>
        <time>2018-05-08T14:22:59Z</time>
      </trkpt>
      <trkpt lat="43.98732" lon="7.23179">
        <ele>1371</ele>
        <time>2018-05-08T14:23:59Z</time>
      </trkpt>
      <trkpt lat="43.98729" lon="7.23182">
        <ele>1370</ele>
        <time>2018-05-08T14:24:59Z</time>
      </trkpt>
      <trkpt lat="43.98724" lon="7.23187">
        <ele>1368</ele>
        <time>2018-05-08T14:25:59Z</time>
      </trkpt>
      <trkpt lat="43.98716" lon="7.23196">
        <ele>1365</ele>
        <time>2018-05-08T14:26:59Z</time>
      </trkpt>
      <trkpt lat="43.98711" lon="7.23201">
        <ele>1364</ele>
        <time>2018-05-08T14:27:59Z</time>
      </trkpt>
      <trkpt lat="43.98701" lon="7.23204">
        <ele>1361</ele>
        <time>2018-05-08T14:28:59Z</time>
      </trkpt>
      <trkpt lat="43.98695" lon="7.23203">
        <ele>1360</ele>
        <time>2018-05-08T14:29:59Z</time>
      </trkpt>
      <trkpt lat="43.98671" lon="7.23207">
        <ele>1354</ele>
        <time>2018-05-08T14:30:59Z</time>
      </trkpt>
      <trkpt lat="43.98658" lon="7.23211">
        <ele>1353</ele>
        <time>2018-05-08T14:31:59Z</time>
      </trkpt>
      <trkpt lat="43.98643" lon="7.23217">
        <ele>1352</ele>
        <time>2018-05-08T14:32:59Z</time>
      </trkpt>
      <trkpt lat="43.98633" lon="7.2322">
        <ele>1351</ele>
        <time>2018-05-08T14:33:59Z</time>
      </trkpt>
      <trkpt lat="43.98629" lon="7.23223">
        <ele>1351</ele>
        <time>2018-05-08T14:34:59Z</time>
      </trkpt>
      <trkpt lat="43.98618" lon="7.23225">
        <ele>1351</ele>
        <time>2018-05-08T14:35:59Z</time>
      </trkpt>
      <trkpt lat="43.98602" lon="7.23233">
        <ele>1351</ele>
        <time>2018-05-08T14:36:59Z</time>
      </trkpt>
      <trkpt lat="43.98594" lon="7.23237">
        <ele>1351</ele>
        <time>2018-05-08T14:37:59Z</time>
      </trkpt>
      <trkpt lat="43.98592" lon="7.23239">
        <ele>1352</ele>
        <time>2018-05-08T14:38:59Z</time>
      </trkpt>
      <trkpt lat="43.98592" lon="7.23241">
        <ele>1352</ele>
        <time>2018-05-08T14:39:59Z</time>
      </trkpt>
      <trkpt lat="43.98591" lon="7.23241">
        <ele>1352</ele>
        <time>2018-05-08T14:40:59Z</time>
      </trkpt>
      <trkpt lat="43.98587" lon="7.23244">
        <ele>1353</ele>
        <time>2018-05-08T14:41:59Z</time>
      </trkpt>
      <trkpt lat="43.98584" lon="7.23248">
        <ele>1354</ele>
        <time>2018-05-08T14:42:59Z</time>
      </trkpt>
      <trkpt lat="43.9858" lon="7.23254">
        <ele>1354</ele>
        <time>2018-05-08T14:43:59Z</time>
      </trkpt>
      <trkpt lat="43.98575" lon="7.23262">
        <ele>1353</ele>
        <time>2018-05-08T14:44:59Z</time>
      </trkpt>
      <trkpt lat="43.98571" lon="7.23269">
        <ele>1353</ele>
        <time>2018-05-08T14:45:59Z</time>
      </trkpt>
      <trkpt lat="43.98553" lon="7.23288">
        <ele>1354</ele>
        <time>2018-05-08T14:46:59Z</time>
      </trkpt>
      <trkpt lat="43.9855" lon="7.23292">
        <ele>1354</ele>
        <time>2018-05-08T14:47:59Z</time>
      </trkpt>
      <trkpt lat="43.98541" lon="7.23307">
        <ele>1355</ele>
        <time>2018-05-08T14:48:59Z</time>
      </trkpt>
      <trkpt lat="43.98539" lon="7.23311">
        <ele>1355</ele>
        <time>2018-05-08T14:49:59Z</time>
      </trkpt>
      <trkpt lat="43.98526" lon="7.23329">
        <ele>1358</ele>
        <time>2018-05-08T14:50:59Z</time>
      </trkpt>
      <trkpt lat="43.98503" lon="7.23344">
        <ele>1364</ele>
        <time>2018-05-08T14:51:59Z</time>
      </trkpt>
      <trkpt lat="43.98491" lon="7.23353">
        <ele>1367</ele>
        <time>2018-05-08T14:52:59Z</time>
      </trkpt>
      <trkpt lat="43.98486" lon="7.23359">
        <ele>1368</ele>
        <time>2018-05-08T14:53:59Z</time>
      </trkpt>
      <trkpt lat="43.98477" lon="7.23371">
        <ele>1370</ele>
        <time>2018-05-08T14:54:59Z</time>
      </trkpt>
      <trkpt lat="43.98468" lon="7.23387">
        <ele>1372</ele>
        <time>2018-05-08T14:55:59Z</time>
      </trkpt>
      <trkpt lat="43.98464" lon="7.23392">
        <ele>1373</ele>
        <time>2018-05-08T14:56:59Z</time>
      </trkpt>
      <trkpt lat="43.98461" lon="7.23395">
        <ele>1373</ele>
        <time>2018-05-08T14:57:59Z</time>
      </trkpt>
      <trkpt lat="43.98459" lon="7.23397">
        <ele>1374</ele>
        <time>2018-05-08T14:58:59Z</time>
      </trkpt>
      <trkpt lat="43.98454" lon="7.23401">
        <ele>1375</ele>
        <time>2018-05-08T14:59:59Z</time>
      </trkpt>
      <trkpt lat="43.98453" lon="7.23401">
        <ele>1376</ele>
        <time>2018-05-08T15:00:59Z</time>
      </trkpt>
      <trkpt lat="43.98449" lon="7.23405">
        <ele>1377</ele>
        <time>2018-05-08T15:01:59Z</time>
      </trkpt>
      <trkpt lat="43.98444" lon="7.23408">
        <ele>1378</ele>
        <time>2018-05-08T15:02:59Z</time>
      </trkpt>
      <trkpt lat="43.98442" lon="7.23412">
        <ele>1378</ele>
        <time>2018-05-08T15:03:59Z</time>
      </trkpt>
      <trkpt lat="43.9844" lon="7.23413">
        <ele>1379</ele>
        <time>2018-05-08T15:04:59Z</time>
      </trkpt>
      <trkpt lat="43.98438" lon="7.2342">
        <ele>1379</ele>
        <time>2018-05-08T15:05:59Z</time>
      </trkpt>
      <trkpt lat="43.98435" lon="7.23433">
        <ele>1378</ele>
        <time>2018-05-08T15:06:59Z</time>
      </trkpt>
      <trkpt lat="43.98429" lon="7.23444">
        <ele>1378</ele>
        <time>2018-05-08T15:07:59Z</time>
      </trkpt>
      <trkpt lat="43.98424" lon="7.23458">
        <ele>1378</ele>
        <time>2018-05-08T15:08:59Z</time>
      </trkpt>
      <trkpt lat="43.98424" lon="7.23464">
        <ele>1377</ele>
        <time>2018-05-08T15:09:59Z</time>
      </trkpt>
      <trkpt lat="43.98421" lon="7.23469">
        <ele>1377</ele>
        <time>2018-05-08T15:10:59Z</time>
      </trkpt>
      <trkpt lat="43.9841" lon="7.23475">
        <ele>1379</ele>
        <time>2018-05-08T15:11:59Z</time>
      </trkpt>
      <trkpt lat="43.98397" lon="7.23481">
        <ele>1381</ele>
        <time>2018-05-08T15:12:59Z</time>
      </trkpt>
      <trkpt lat="43.98379" lon="7.23492">
        <ele>1384</ele>
        <time>2018-05-08T15:13:59Z</time>
      </trkpt>
      <trkpt lat="43.98361" lon="7.23506">
        <ele>1384</ele>
        <time>2018-05-08T15:14:59Z</time>
      </trkpt>
      <trkpt lat="43.98343" lon="7.23521">
        <ele>1384</ele>
        <time>2018-05-08T15:15:59Z</time>
      </trkpt>
      <trkpt lat="43.98316" lon="7.2354">
        <ele>1382</ele>
        <time>2018-05-08T15:16:59Z</time>
      </trkpt>
      <trkpt lat="43.98292" lon="7.2355">
        <ele>1383</ele>
        <time>2018-05-08T15:17:59Z</time>
      </trkpt>
      <trkpt lat="43.98265" lon="7.23563">
        <ele>1383</ele>
        <time>2018-05-08T15:18:59Z</time>
      </trkpt>
      <trkpt lat="43.98244" lon="7.2358">
        <ele>1380</ele>
        <time>2018-05-08T15:19:59Z</time>
      </trkpt>
      <trkpt lat="43.98227" lon="7.23588">
        <ele>1378</ele>
        <time>2018-05-08T15:20:59Z</time>
      </trkpt>
      <trkpt lat="43.98214" lon="7.23598">
        <ele>1375</ele>
        <time>2018-05-08T15:21:59Z</time>
      </trkpt>
      <trkpt lat="43.98191" lon="7.23598">
        <ele>1376</ele>
        <time>2018-05-08T15:22:59Z</time>
      </trkpt>
      <trkpt lat="43.98183" lon="7.23595">
        <ele>1378</ele>
        <time>2018-05-08T15:23:59Z</time>
      </trkpt>
      <trkpt lat="43.9818" lon="7.23593">
        <ele>1379</ele>
        <time>2018-05-08T15:24:59Z</time>
      </trkpt>
      <trkpt lat="43.9817" lon="7.23584">
        <ele>1383</ele>
        <time>2018-05-08T15:25:59Z</time>
      </trkpt>
      <trkpt lat="43.98151" lon="7.23571">
        <ele>1384</ele>
        <time>2018-05-08T15:26:59Z</time>
      </trkpt>
      <trkpt lat="43.98144" lon="7.23571">
        <ele>1383</ele>
        <time>2018-05-08T15:27:59Z</time>
      </trkpt>
      <trkpt lat="43.98133" lon="7.23565">
        <ele>1383</ele>
        <time>2018-05-08T15:28:59Z</time>
      </trkpt>
      <trkpt lat="43.98118" lon="7.23555">
        <ele>1384</ele>
        <time>2018-05-08T15:29:59Z</time>
      </trkpt>
      <trkpt lat="43.98112" lon="7.23551">
        <ele>1384</ele>
        <time>2018-05-08T15:30:59Z</time>
      </trkpt>
      <trkpt lat="43.981" lon="7.23546">
        <ele>1384</ele>
        <time>2018-05-08T15:31:59Z</time>
      </trkpt>
      <trkpt lat="43.98093" lon="7.23542">
        <ele>1384</ele>
        <time>2018-05-08T15:32:59Z</time>
      </trkpt>
      <trkpt lat="43.9808" lon="7.23533">
        <ele>1384</ele>
        <time>2018-05-08T15:33:59Z</time>
      </trkpt>
      <trkpt lat="43.98074" lon="7.23525">
        <ele>1385</ele>
        <time>2018-05-08T15:34:59Z</time>
      </trkpt>
      <trkpt lat="43.98069" lon="7.23516">
        <ele>1387</ele>
        <time>2018-05-08T15:35:59Z</time>
      </trkpt>
      <trkpt lat="43.98055" lon="7.235">
        <ele>1389</ele>
        <time>2018-05-08T15:36:59Z</time>
      </trkpt>
      <trkpt lat="43.98036" lon="7.23484">
        <ele>1389</ele>
        <time>2018-05-08T15:37:59Z</time>
      </trkpt>
      <trkpt lat="43.98019" lon="7.23471">
        <ele>1389</ele>
        <time>2018-05-08T15:38:59Z</time>
      </trkpt>
      <trkpt lat="43.98017" lon="7.23469">
        <ele>1389</ele>
        <time>2018-05-08T15:39:59Z</time>
      </trkpt>
      <trkpt lat="43.98008" lon="7.23461">
        <ele>1390</ele>
        <time>2018-05-08T15:40:59Z</time>
      </trkpt>
      <trkpt lat="43.98003" lon="7.23456">
        <ele>1391</ele>
        <time>2018-05-08T15:41:59Z</time>
      </trkpt>
      <trkpt lat="43.9797" lon="7.23432">
        <ele>1395</ele>
        <time>2018-05-08T15:42:59Z</time>
      </trkpt>
      <trkpt lat="43.9796" lon="7.23425">
        <ele>1396</ele>
        <time>2018-05-08T15:43:59Z</time>
      </trkpt>
      <trkpt lat="43.97949" lon="7.23421">
        <ele>1396</ele>
        <time>2018-05-08T15:44:59Z</time>
      </trkpt>
      <trkpt lat="43.97932" lon="7.23414">
        <ele>1395</ele>
        <time>2018-05-08T15:45:59Z</time>
      </trkpt>
      <trkpt lat="43.97923" lon="7.23413">
        <ele>1393</ele>
        <time>2018-05-08T15:46:59Z</time>
      </trkpt>
      <trkpt lat="43.97903" lon="7.23416">
        <ele>1396</ele>
        <time>2018-05-08T15:47:59Z</time>
      </trkpt>
      <trkpt lat="43.97898" lon="7.23417">
        <ele>1397</ele>
        <time>2018-05-08T15:48:59Z</time>
      </trkpt>
      <trkpt lat="43.97889" lon="7.2342">
        <ele>1398</ele>
        <time>2018-05-08T15:49:59Z</time>
      </trkpt>
      <trkpt lat="43.97862" lon="7.23438">
        <ele>1400</ele>
        <time>2018-05-08T15:50:59Z</time>
      </trkpt>
      <trkpt lat="43.97852" lon="7.23443">
        <ele>1400</ele>
        <time>2018-05-08T15:51:59Z</time>
      </trkpt>
      <trkpt lat="43.97844" lon="7.23449">
        <ele>1401</ele>
        <time>2018-05-08T15:52:59Z</time>
      </trkpt>
      <trkpt lat="43.97839" lon="7.23453">
        <ele>1401</ele>
        <time>2018-05-08T15:53:59Z</time>
      </trkpt>
      <trkpt lat="43.97833" lon="7.23458">
        <ele>1401</ele>
        <time>2018-05-08T15:54:59Z</time>
      </trkpt>
      <trkpt lat="43.97827" lon="7.23462">
        <ele>1401</ele>
        <time>2018-05-08T15:55:59Z</time>
      </trkpt>
      <trkpt lat="43.978" lon="7.23477">
        <ele>1405</ele>
        <time>2018-05-08T15:56:59Z</time>
      </trkpt>
      <trkpt lat="43.97779" lon="7.23486">
        <ele>1408</ele>
        <time>2018-05-08T15:57:59Z</time>
      </trkpt>
      <trkpt lat="43.9776" lon="7.23496">
        <ele>1411</ele>
        <time>2018-05-08T15:58:59Z</time>
      </trkpt>
      <trkpt lat="43.97739" lon="7.23518">
        <ele>1414</ele>
        <time>2018-05-08T15:59:59Z</time>
      </trkpt>
      <trkpt lat="43.97731" lon="7.23537">
        <ele>1414</ele>
        <time>2018-05-08T16:00:59Z</time>
      </trkpt>
      <trkpt lat="43.97726" lon="7.23549">
        <ele>1414</ele>
        <time>2018-05-08T16:01:59Z</time>
      </trkpt>
      <trkpt lat="43.97723" lon="7.23555">
        <ele>1414</ele>
        <time>2018-05-08T16:02:59Z</time>
      </trkpt>
      <trkpt lat="43.9772" lon="7.2356">
        <ele>1414</ele>
        <time>2018-05-08T16:03:59Z</time>
      </trkpt>
      <trkpt lat="43.97716" lon="7.2357">
        <ele>1414</ele>
        <time>2018-05-08T16:04:59Z</time>
      </trkpt>
      <trkpt lat="43.97713" lon="7.23575">
        <ele>1415</ele>
        <time>2018-05-08T16:05:59Z</time>
      </trkpt>
      <trkpt lat="43.97712" lon="7.23583">
        <ele>1414</ele>
        <time>2018-05-08T16:06:59Z</time>
      </trkpt>
      <trkpt lat="43.97701" lon="7.23606">
        <ele>1414</ele>
        <time>2018-05-08T16:07:59Z</time>
      </trkpt>
      <trkpt lat="43.97698" lon="7.23612">
        <ele>1415</ele>
        <time>2018-05-08T16:08:59Z</time>
      </trkpt>
      <trkpt lat="43.97697" lon="7.23618">
        <ele>1414</ele>
        <time>2018-05-08T16:09:59Z</time>
      </trkpt>
      <trkpt lat="43.97694" lon="7.23624">
        <ele>1414</ele>
        <time>2018-05-08T16:10:59Z</time>
      </trkpt>
      <trkpt lat="43.97689" lon="7.23632">
        <ele>1415</ele>
        <time>2018-05-08T16:11:59Z</time>
      </trkpt>
      <trkpt lat="43.97684" lon="7.23641">
        <ele>1415</ele>
        <time>2018-05-08T16:12:59Z</time>
      </trkpt>
      <trkpt lat="43.97679" lon="7.23653">
        <ele>1415</ele>
        <time>2018-05-08T16:13:59Z</time>
      </trkpt>
      <trkpt lat="43.97678" lon="7.23657">
        <ele>1414</ele>
        <time>2018-05-08T16:14:59Z</time>
      </trkpt>
      <trkpt lat="43.97673" lon="7.23665">
        <ele>1415</ele>
        <time>2018-05-08T16:15:59Z</time>
      </trkpt>
      <trkpt lat="43.97672" lon="7.23668">
        <ele>1414</ele>
        <time>2018-05-08T16:16:59Z</time>
      </trkpt>
      <trkpt lat="43.97668" lon="7.23671">
        <ele>1415</ele>
        <time>2018-05-08T16:17:59Z</time>
      </trkpt>
      <trkpt lat="43.97665" lon="7.23674">
        <ele>1414</ele>
        <time>2018-05-08T16:18:59Z</time>
      </trkpt>
      <trkpt lat="43.9766" lon="7.23677">
        <ele>1413</ele>
        <time>2018-05-08T16:19:59Z</time>
      </trkpt>
      <trkpt lat="43.97659" lon="7.23678">
        <ele>1413</ele>
        <time>2018-05-08T16:20:59Z</time>
      </trkpt>
      <trkpt lat="43.97652" lon="7.2368">
        <ele>1412</ele>
        <time>2018-05-08T16:21:59Z</time>
      </trkpt>
      <trkpt lat="43.97649" lon="7.23681">
        <ele>1411</ele>
        <time>2018-05-08T16:22:59Z</time>
      </trkpt>
      <trkpt lat="43.97647" lon="7.2368">
        <ele>1412</ele>
        <time>2018-05-08T16:23:59Z</time>
      </trkpt>
      <trkpt lat="43.97637" lon="7.23676">
        <ele>1413</ele>
        <time>2018-05-08T16:24:59Z</time>
      </trkpt>
      <trkpt lat="43.97633" lon="7.23673">
        <ele>1415</ele>
        <time>2018-05-08T16:25:59Z</time>
      </trkpt>
      <trkpt lat="43.97628" lon="7.23671">
        <ele>1416</ele>
        <time>2018-05-08T16:26:59Z</time>
      </trkpt>
      <trkpt lat="43.97619" lon="7.23667">
        <ele>1417</ele>
        <time>2018-05-08T16:27:59Z</time>
      </trkpt>
      <trkpt lat="43.97601" lon="7.23662">
        <ele>1420</ele>
        <time>2018-05-08T16:28:59Z</time>
      </trkpt>
      <trkpt lat="43.97591" lon="7.2366">
        <ele>1421</ele>
        <time>2018-05-08T16:29:59Z</time>
      </trkpt>
      <trkpt lat="43.97588" lon="7.23662">
        <ele>1420</ele>
        <time>2018-05-08T16:30:59Z</time>
      </trkpt>
      <trkpt lat="43.97571" lon="7.23672">
        <ele>1416</ele>
        <time>2018-05-08T16:31:59Z</time>
      </trkpt>
      <trkpt lat="43.97556" lon="7.23673">
        <ele>1416</ele>
        <time>2018-05-08T16:32:59Z</time>
      </trkpt>
      <trkpt lat="43.97546" lon="7.23672">
        <ele>1417</ele>
        <time>2018-05-08T16:33:59Z</time>
      </trkpt>
      <trkpt lat="43.97539" lon="7.2367">
        <ele>1419</ele>
        <time>2018-05-08T16:34:59Z</time>
      </trkpt>
      <trkpt lat="43.97532" lon="7.23669">
        <ele>1420</ele>
        <time>2018-05-08T16:35:59Z</time>
      </trkpt>
      <trkpt lat="43.97528" lon="7.2367">
        <ele>1420</ele>
        <time>2018-05-08T16:36:59Z</time>
      </trkpt>
      <trkpt lat="43.97508" lon="7.23677">
        <ele>1417</ele>
        <time>2018-05-08T16:37:59Z</time>
      </trkpt>
      <trkpt lat="43.975" lon="7.2368">
        <ele>1416</ele>
        <time>2018-05-08T16:38:59Z</time>
      </trkpt>
      <trkpt lat="43.97497" lon="7.23682">
        <ele>1415</ele>
        <time>2018-05-08T16:39:59Z</time>
      </trkpt>
      <trkpt lat="43.9748" lon="7.23686">
        <ele>1416</ele>
        <time>2018-05-08T16:40:59Z</time>
      </trkpt>
      <trkpt lat="43.97468" lon="7.23692">
        <ele>1414</ele>
        <time>2018-05-08T16:41:59Z</time>
      </trkpt>
      <trkpt lat="43.97464" lon="7.23694">
        <ele>1414</ele>
        <time>2018-05-08T16:42:59Z</time>
      </trkpt>
      <trkpt lat="43.97447" lon="7.23698">
        <ele>1415</ele>
        <time>2018-05-08T16:43:59Z</time>
      </trkpt>
      <trkpt lat="43.97442" lon="7.23701">
        <ele>1414</ele>
        <time>2018-05-08T16:44:59Z</time>
      </trkpt>
      <trkpt lat="43.97431" lon="7.23704">
        <ele>1415</ele>
        <time>2018-05-08T16:45:59Z</time>
      </trkpt>
      <trkpt lat="43.97412" lon="7.23712">
        <ele>1415</ele>
        <time>2018-05-08T16:46:59Z</time>
      </trkpt>
      <trkpt lat="43.97398" lon="7.23715">
        <ele>1416</ele>
        <time>2018-05-08T16:47:59Z</time>
      </trkpt>
      <trkpt lat="43.97377" lon="7.23715">
        <ele>1419</ele>
        <time>2018-05-08T16:48:59Z</time>
      </trkpt>
      <trkpt lat="43.9736" lon="7.23712">
        <ele>1423</ele>
        <time>2018-05-08T16:49:59Z</time>
      </trkpt>
      <trkpt lat="43.9735" lon="7.23722">
        <ele>1421</ele>
        <time>2018-05-08T16:50:59Z</time>
      </trkpt>
      <trkpt lat="43.97339" lon="7.2373">
        <ele>1420</ele>
        <time>2018-05-08T16:51:59Z</time>
      </trkpt>
      <trkpt lat="43.97335" lon="7.23732">
        <ele>1420</ele>
        <time>2018-05-08T16:52:59Z</time>
      </trkpt>
      <trkpt lat="43.97324" lon="7.23736">
        <ele>1424</ele>
        <time>2018-05-08T16:53:59Z</time>
      </trkpt>
      <trkpt lat="43.97318" lon="7.23737">
        <ele>1426</ele>
        <time>2018-05-08T16:54:59Z</time>
      </trkpt>
      <trkpt lat="43.97308" lon="7.23745">
        <ele>1429</ele>
        <time>2018-05-08T16:55:59Z</time>
      </trkpt>
      <trkpt lat="43.97299" lon="7.23749">
        <ele>1432</ele>
        <time>2018-05-08T16:56:59Z</time>
      </trkpt>
      <trkpt lat="43.97295" lon="7.23757">
        <ele>1431</ele>
        <time>2018-05-08T16:57:59Z</time>
      </trkpt>
      <trkpt lat="43.97293" lon="7.23764">
        <ele>1430</ele>
        <time>2018-05-08T16:58:59Z</time>
      </trkpt>
      <trkpt lat="43.9729" lon="7.23786">
        <ele>1424</ele>
        <time>2018-05-08T16:59:59Z</time>
      </trkpt>
      <trkpt lat="43.97287" lon="7.23799">
        <ele>1421</ele>
        <time>2018-05-08T17:00:59Z</time>
      </trkpt>
      <trkpt lat="43.9728" lon="7.23816">
        <ele>1418</ele>
        <time>2018-05-08T17:01:59Z</time>
      </trkpt>
      <trkpt lat="43.97267" lon="7.23841">
        <ele>1415</ele>
        <time>2018-05-08T17:02:59Z</time>
      </trkpt>
      <trkpt lat="43.97263" lon="7.23845">
        <ele>1415</ele>
        <time>2018-05-08T17:03:59Z</time>
      </trkpt>
      <trkpt lat="43.97257" lon="7.2385">
        <ele>1415</ele>
        <time>2018-05-08T17:04:59Z</time>
      </trkpt>
      <trkpt lat="43.97243" lon="7.2386">
        <ele>1416</ele>
        <time>2018-05-08T17:05:59Z</time>
      </trkpt>
      <trkpt lat="43.9719" lon="7.23905">
        <ele>1410</ele>
        <time>2018-05-08T17:06:59Z</time>
      </trkpt>
      <trkpt lat="43.97182" lon="7.23911">
        <ele>1410</ele>
        <time>2018-05-08T17:07:59Z</time>
      </trkpt>
      <trkpt lat="43.97172" lon="7.23914">
        <ele>1412</ele>
        <time>2018-05-08T17:08:59Z</time>
      </trkpt>
      <trkpt lat="43.97168" lon="7.23915">
        <ele>1412</ele>
        <time>2018-05-08T17:09:59Z</time>
      </trkpt>
      <trkpt lat="43.9714" lon="7.23927">
        <ele>1403</ele>
        <time>2018-05-08T17:10:59Z</time>
      </trkpt>
      <trkpt lat="43.9713" lon="7.2393">
        <ele>1400</ele>
        <time>2018-05-08T17:11:59Z</time>
      </trkpt>
      <trkpt lat="43.97121" lon="7.23932">
        <ele>1397</ele>
        <time>2018-05-08T17:12:59Z</time>
      </trkpt>
      <trkpt lat="43.97116" lon="7.23935">
        <ele>1395</ele>
        <time>2018-05-08T17:13:59Z</time>
      </trkpt>
      <trkpt lat="43.97111" lon="7.23935">
        <ele>1394</ele>
        <time>2018-05-08T17:14:59Z</time>
      </trkpt>
      <trkpt lat="43.97109" lon="7.23935">
        <ele>1394</ele>
        <time>2018-05-08T17:15:59Z</time>
      </trkpt>
      <trkpt lat="43.971" lon="7.23931">
        <ele>1394</ele>
        <time>2018-05-08T17:16:59Z</time>
      </trkpt>
      <trkpt lat="43.97094" lon="7.23924">
        <ele>1396</ele>
        <time>2018-05-08T17:17:59Z</time>
      </trkpt>
      <trkpt lat="43.97093" lon="7.23922">
        <ele>1397</ele>
        <time>2018-05-08T17:18:59Z</time>
      </trkpt>
      <trkpt lat="43.97089" lon="7.23911">
        <ele>1401</ele>
        <time>2018-05-08T17:19:59Z</time>
      </trkpt>
      <trkpt lat="43.97086" lon="7.23905">
        <ele>1403</ele>
        <time>2018-05-08T17:20:59Z</time>
      </trkpt>
      <trkpt lat="43.97084" lon="7.23901">
        <ele>1404</ele>
        <time>2018-05-08T17:21:59Z</time>
      </trkpt>
      <trkpt lat="43.97082" lon="7.23895">
        <ele>1405</ele>
        <time>2018-05-08T17:22:59Z</time>
      </trkpt>
      <trkpt lat="43.97079" lon="7.23887">
        <ele>1406</ele>
        <time>2018-05-08T17:23:59Z</time>
      </trkpt>
      <trkpt lat="43.97072" lon="7.23877">
        <ele>1406</ele>
        <time>2018-05-08T17:24:59Z</time>
      </trkpt>
      <trkpt lat="43.97071" lon="7.23875">
        <ele>1407</ele>
        <time>2018-05-08T17:25:59Z</time>
      </trkpt>
      <trkpt lat="43.97068" lon="7.23871">
        <ele>1407</ele>
        <time>2018-05-08T17:26:59Z</time>
      </trkpt>
      <trkpt lat="43.97066" lon="7.23868">
        <ele>1407</ele>
        <time>2018-05-08T17:27:59Z</time>
      </trkpt>
      <trkpt lat="43.97058" lon="7.23851">
        <ele>1409</ele>
        <time>2018-05-08T17:28:59Z</time>
      </trkpt>
      <trkpt lat="43.97051" lon="7.23836">
        <ele>1411</ele>
        <time>2018-05-08T17:29:59Z</time>
      </trkpt>
      <trkpt lat="43.97048" lon="7.23834">
        <ele>1410</ele>
        <time>2018-05-08T17:30:59Z</time>
      </trkpt>
      <trkpt lat="43.97041" lon="7.23837">
        <ele>1406</ele>
        <time>2018-05-08T17:31:59Z</time>
      </trkpt>
      <trkpt lat="43.97038" lon="7.23837">
        <ele>1404</ele>
        <time>2018-05-08T17:32:59Z</time>
      </trkpt>
      <trkpt lat="43.97029" lon="7.23835">
        <ele>1401</ele>
        <time>2018-05-08T17:33:59Z</time>
      </trkpt>
      <trkpt lat="43.97019" lon="7.2383">
        <ele>1398</ele>
        <time>2018-05-08T17:34:59Z</time>
      </trkpt>
      <trkpt lat="43.9701" lon="7.23825">
        <ele>1396</ele>
        <time>2018-05-08T17:35:59Z</time>
      </trkpt>
      <trkpt lat="43.97004" lon="7.2382">
        <ele>1395</ele>
        <time>2018-05-08T17:36:59Z</time>
      </trkpt>
      <trkpt lat="43.96999" lon="7.23815">
        <ele>1396</ele>
        <time>2018-05-08T17:37:59Z</time>
      </trkpt>
      <trkpt lat="43.96996" lon="7.2381">
        <ele>1397</ele>
        <time>2018-05-08T17:38:59Z</time>
      </trkpt>
      <trkpt lat="43.96991" lon="7.23804">
        <ele>1399</ele>
        <time>2018-05-08T17:39:59Z</time>
      </trkpt>
      <trkpt lat="43.96987" lon="7.23796">
        <ele>1402</ele>
        <time>2018-05-08T17:40:59Z</time>
      </trkpt>
      <trkpt lat="43.96981" lon="7.23789">
        <ele>1404</ele>
        <time>2018-05-08T17:41:59Z</time>
      </trkpt>
      <trkpt lat="43.96976" lon="7.23783">
        <ele>1406</ele>
        <time>2018-05-08T17:42:59Z</time>
      </trkpt>
      <trkpt lat="43.96973" lon="7.23782">
        <ele>1406</ele>
        <time>2018-05-08T17:43:59Z</time>
      </trkpt>
      <trkpt lat="43.96963" lon="7.23778">
        <ele>1405</ele>
        <time>2018-05-08T17:44:59Z</time>
      </trkpt>
      <trkpt lat="43.96949" lon="7.23769">
        <ele>1406</ele>
        <time>2018-05-08T17:45:59Z</time>
      </trkpt>
      <trkpt lat="43.96939" lon="7.23759">
        <ele>1409</ele>
        <time>2018-05-08T17:46:59Z</time>
      </trkpt>
      <trkpt lat="43.96933" lon="7.23756">
        <ele>1409</ele>
        <time>2018-05-08T17:47:59Z</time>
      </trkpt>
      <trkpt lat="43.96926" lon="7.23757">
        <ele>1407</ele>
        <time>2018-05-08T17:48:59Z</time>
      </trkpt>
      <trkpt lat="43.96911" lon="7.23754">
        <ele>1406</ele>
        <time>2018-05-08T17:49:59Z</time>
      </trkpt>
      <trkpt lat="43.96885" lon="7.23752">
        <ele>1409</ele>
        <time>2018-05-08T17:50:59Z</time>
      </trkpt>
      <trkpt lat="43.96882" lon="7.23752">
        <ele>1409</ele>
        <time>2018-05-08T17:51:59Z</time>
      </trkpt>
      <trkpt lat="43.96873" lon="7.23749">
        <ele>1411</ele>
        <time>2018-05-08T17:52:59Z</time>
      </trkpt>
      <trkpt lat="43.96863" lon="7.23747">
        <ele>1412</ele>
        <time>2018-05-08T17:53:59Z</time>
      </trkpt>
      <trkpt lat="43.96858" lon="7.23746">
        <ele>1413</ele>
        <time>2018-05-08T17:54:59Z</time>
      </trkpt>
      <trkpt lat="43.9685" lon="7.23745">
        <ele>1414</ele>
        <time>2018-05-08T17:55:59Z</time>
      </trkpt>
      <trkpt lat="43.96842" lon="7.23744">
        <ele>1415</ele>
        <time>2018-05-08T17:56:59Z</time>
      </trkpt>
      <trkpt lat="43.96834" lon="7.23743">
        <ele>1415</ele>
        <time>2018-05-08T17:57:59Z</time>
      </trkpt>
      <trkpt lat="43.96826" lon="7.23745">
        <ele>1415</ele>
        <time>2018-05-08T17:58:59Z</time>
      </trkpt>
      <trkpt lat="43.96808" lon="7.23746">
        <ele>1414</ele>
        <time>2018-05-08T17:59:59Z</time>
      </trkpt>
      <trkpt lat="43.96795" lon="7.23746">
        <ele>1414</ele>
        <time>2018-05-08T18:00:59Z</time>
      </trkpt>
      <trkpt lat="43.96779" lon="7.2375">
        <ele>1413</ele>
        <time>2018-05-08T18:01:59Z</time>
      </trkpt>
      <trkpt lat="43.96773" lon="7.23752">
        <ele>1412</ele>
        <time>2018-05-08T18:02:59Z</time>
      </trkpt>
      <trkpt lat="43.96738" lon="7.23757">
        <ele>1411</ele>
        <time>2018-05-08T18:03:59Z</time>
      </trkpt>
      <trkpt lat="43.96715" lon="7.23763">
        <ele>1409</ele>
        <time>2018-05-08T18:04:59Z</time>
      </trkpt>
      <trkpt lat="43.96694" lon="7.2376">
        <ele>1409</ele>
        <time>2018-05-08T18:05:59Z</time>
      </trkpt>
      <trkpt lat="43.96689" lon="7.23759">
        <ele>1409</ele>
        <time>2018-05-08T18:06:59Z</time>
      </trkpt>
      <trkpt lat="43.96679" lon="7.23761">
        <ele>1409</ele>
        <time>2018-05-08T18:07:59Z</time>
      </trkpt>
      <trkpt lat="43.96671" lon="7.23767">
        <ele>1408</ele>
        <time>2018-05-08T18:08:59Z</time>
      </trkpt>
      <trkpt lat="43.96663" lon="7.23773">
        <ele>1408</ele>
        <time>2018-05-08T18:09:59Z</time>
      </trkpt>
      <trkpt lat="43.9666" lon="7.23773">
        <ele>1408</ele>
        <time>2018-05-08T18:10:59Z</time>
      </trkpt>
      <trkpt lat="43.96643" lon="7.23775">
        <ele>1408</ele>
        <time>2018-05-08T18:11:59Z</time>
      </trkpt>
      <trkpt lat="43.96622" lon="7.23775">
        <ele>1408</ele>
        <time>2018-05-08T18:12:59Z</time>
      </trkpt>
      <trkpt lat="43.96619" lon="7.23776">
        <ele>1408</ele>
        <time>2018-05-08T18:13:59Z</time>
      </trkpt>
      <trkpt lat="43.9661" lon="7.23779">
        <ele>1409</ele>
        <time>2018-05-08T18:14:59Z</time>
      </trkpt>
      <trkpt lat="43.96595" lon="7.23782">
        <ele>1409</ele>
        <time>2018-05-08T18:15:59Z</time>
      </trkpt>
      <trkpt lat="43.96593" lon="7.23782">
        <ele>1409</ele>
        <time>2018-05-08T18:16:59Z</time>
      </trkpt>
      <trkpt lat="43.96584" lon="7.23784">
        <ele>1410</ele>
        <time>2018-05-08T18:17:59Z</time>
      </trkpt>
      <trkpt lat="43.9657" lon="7.23784">
        <ele>1410</ele>
        <time>2018-05-08T18:18:59Z</time>
      </trkpt>
      <trkpt lat="43.96567" lon="7.23783">
        <ele>1410</ele>
        <time>2018-05-08T18:19:59Z</time>
      </trkpt>
      <trkpt lat="43.96558" lon="7.23785">
        <ele>1410</ele>
        <time>2018-05-08T18:20:59Z</time>
      </trkpt>
      <trkpt lat="43.96554" lon="7.23787">
        <ele>1410</ele>
        <time>2018-05-08T18:21:59Z</time>
      </trkpt>
      <trkpt lat="43.96551" lon="7.23789">
        <ele>1410</ele>
        <time>2018-05-08T18:22:59Z</time>
      </trkpt>
      <trkpt lat="43.96525" lon="7.23802">
        <ele>1412</ele>
        <time>2018-05-08T18:23:59Z</time>
      </trkpt>
      <trkpt lat="43.96514" lon="7.23809">
        <ele>1413</ele>
        <time>2018-05-08T18:24:59Z</time>
      </trkpt>
      <trkpt lat="43.96494" lon="7.23827">
        <ele>1415</ele>
        <time>2018-05-08T18:25:59Z</time>
      </trkpt>
      <trkpt lat="43.96486" lon="7.23833">
        <ele>1417</ele>
        <time>2018-05-08T18:26:59Z</time>
      </trkpt>
      <trkpt lat="43.9648" lon="7.2384">
        <ele>1417</ele>
        <time>2018-05-08T18:27:59Z</time>
      </trkpt>
      <trkpt lat="43.96464" lon="7.23855">
        <ele>1415</ele>
        <time>2018-05-08T18:28:59Z</time>
      </trkpt>
      <trkpt lat="43.96435" lon="7.23879">
        <ele>1412</ele>
        <time>2018-05-08T18:29:59Z</time>
      </trkpt>
      <trkpt lat="43.96431" lon="7.23882">
        <ele>1412</ele>
        <time>2018-05-08T18:30:59Z</time>
      </trkpt>
      <trkpt lat="43.96404" lon="7.23893">
        <ele>1411</ele>
        <time>2018-05-08T18:31:59Z</time>
      </trkpt>
      <trkpt lat="43.96399" lon="7.23895">
        <ele>1412</ele>
        <time>2018-05-08T18:32:59Z</time>
      </trkpt>
      <trkpt lat="43.96376" lon="7.23908">
        <ele>1411</ele>
        <time>2018-05-08T18:33:59Z</time>
      </trkpt>
      <trkpt lat="43.96371" lon="7.23912">
        <ele>1410</ele>
        <time>2018-05-08T18:34:59Z</time>
      </trkpt>
      <trkpt lat="43.96359" lon="7.23918">
        <ele>1410</ele>
        <time>2018-05-08T18:35:59Z</time>
      </trkpt>
      <trkpt lat="43.96342" lon="7.23924">
        <ele>1411</ele>
        <time>2018-05-08T18:36:59Z</time>
      </trkpt>
      <trkpt lat="43.96332" lon="7.23929">
        <ele>1411</ele>
        <time>2018-05-08T18:37:59Z</time>
      </trkpt>
      <trkpt lat="43.96322" lon="7.23934">
        <ele>1412</ele>
        <time>2018-05-08T18:38:59Z</time>
      </trkpt>
      <trkpt lat="43.96312" lon="7.23938">
        <ele>1414</ele>
        <time>2018-05-08T18:39:59Z</time>
      </trkpt>
      <trkpt lat="43.96307" lon="7.2394">
        <ele>1414</ele>
        <time>2018-05-08T18:40:59Z</time>
      </trkpt>
      <trkpt lat="43.96303" lon="7.23944">
        <ele>1414</ele>
        <time>2018-05-08T18:41:59Z</time>
      </trkpt>
      <trkpt lat="43.96294" lon="7.23953">
        <ele>1413</ele>
        <time>2018-05-08T18:42:59Z</time>
      </trkpt>
      <trkpt lat="43.96245" lon="7.23994">
        <ele>1412</ele>
        <time>2018-05-08T18:43:59Z</time>
      </trkpt>
      <trkpt lat="43.96241" lon="7.23999">
        <ele>1411</ele>
        <time>2018-05-08T18:44:59Z</time>
      </trkpt>
      <trkpt lat="43.96224" lon="7.24012">
        <ele>1410</ele>
        <time>2018-05-08T18:45:59Z</time>
      </trkpt>
      <trkpt lat="43.96219" lon="7.24015">
        <ele>1411</ele>
        <time>2018-05-08T18:46:59Z</time>
      </trkpt>
      <trkpt lat="43.96214" lon="7.24019">
        <ele>1410</ele>
        <time>2018-05-08T18:47:59Z</time>
      </trkpt>
      <trkpt lat="43.96207" lon="7.24028">
        <ele>1409</ele>
        <time>2018-05-08T18:48:59Z</time>
      </trkpt>
      <trkpt lat="43.96193" lon="7.24049">
        <ele>1406</ele>
        <time>2018-05-08T18:49:59Z</time>
      </trkpt>
      <trkpt lat="43.96143" lon="7.24076">
        <ele>1408</ele>
        <time>2018-05-08T18:50:59Z</time>
      </trkpt>
      <trkpt lat="43.96139" lon="7.24077">
        <ele>1409</ele>
        <time>2018-05-08T18:51:59Z</time>
      </trkpt>
      <trkpt lat="43.96125" lon="7.24086">
        <ele>1408</ele>
        <time>2018-05-08T18:52:59Z</time>
      </trkpt>
      <trkpt lat="43.96121" lon="7.24088">
        <ele>1409</ele>
        <time>2018-05-08T18:53:59Z</time>
      </trkpt>
      <trkpt lat="43.96111" lon="7.24091">
        <ele>1410</ele>
        <time>2018-05-08T18:54:59Z</time>
      </trkpt>
      <trkpt lat="43.96103" lon="7.24096">
        <ele>1410</ele>
        <time>2018-05-08T18:55:59Z</time>
      </trkpt>
      <trkpt lat="43.96093" lon="7.24105">
        <ele>1410</ele>
        <time>2018-05-08T18:56:59Z</time>
      </trkpt>
      <trkpt lat="43.96087" lon="7.24113">
        <ele>1409</ele>
        <time>2018-05-08T18:57:59Z</time>
      </trkpt>
      <trkpt lat="43.96077" lon="7.24126">
        <ele>1408</ele>
        <time>2018-05-08T18:58:59Z</time>
      </trkpt>
      <trkpt lat="43.96069" lon="7.24134">
        <ele>1408</ele>
        <time>2018-05-08T18:59:59Z</time>
      </trkpt>
      <trkpt lat="43.96061" lon="7.24146">
        <ele>1407</ele>
        <time>2018-05-08T19:00:59Z</time>
      </trkpt>
      <trkpt lat="43.96046" lon="7.24176">
        <ele>1405</ele>
        <time>2018-05-08T19:01:59Z</time>
      </trkpt>
      <trkpt lat="43.96028" lon="7.242">
        <ele>1405</ele>
        <time>2018-05-08T19:02:59Z</time>
      </trkpt>
      <trkpt lat="43.95989" lon="7.24242">
        <ele>1406</ele>
        <time>2018-05-08T19:03:59Z</time>
      </trkpt>
      <trkpt lat="43.95971" lon="7.24262">
        <ele>1405</ele>
        <time>2018-05-08T19:04:59Z</time>
      </trkpt>
      <trkpt lat="43.95959" lon="7.24267">
        <ele>1406</ele>
        <time>2018-05-08T19:05:59Z</time>
      </trkpt>
      <trkpt lat="43.95951" lon="7.2427">
        <ele>1407</ele>
        <time>2018-05-08T19:06:59Z</time>
      </trkpt>
      <trkpt lat="43.9594" lon="7.24275">
        <ele>1408</ele>
        <time>2018-05-08T19:07:59Z</time>
      </trkpt>
      <trkpt lat="43.95931" lon="7.24282">
        <ele>1408</ele>
        <time>2018-05-08T19:08:59Z</time>
      </trkpt>
      <trkpt lat="43.9592" lon="7.24286">
        <ele>1409</ele>
        <time>2018-05-08T19:09:59Z</time>
      </trkpt>
      <trkpt lat="43.95918" lon="7.24288">
        <ele>1409</ele>
        <time>2018-05-08T19:10:59Z</time>
      </trkpt>
      <trkpt lat="43.95909" lon="7.24289">
        <ele>1410</ele>
        <time>2018-05-08T19:11:59Z</time>
      </trkpt>
      <trkpt lat="43.95898" lon="7.24289">
        <ele>1411</ele>
        <time>2018-05-08T19:12:59Z</time>
      </trkpt>
      <trkpt lat="43.95896" lon="7.2429">
        <ele>1411</ele>
        <time>2018-05-08T19:13:59Z</time>
      </trkpt>
      <trkpt lat="43.95889" lon="7.24295">
        <ele>1411</ele>
        <time>2018-05-08T19:14:59Z</time>
      </trkpt>
      <trkpt lat="43.9588" lon="7.243">
        <ele>1410</ele>
        <time>2018-05-08T19:15:59Z</time>
      </trkpt>
      <trkpt lat="43.95865" lon="7.24304">
        <ele>1411</ele>
        <time>2018-05-08T19:16:59Z</time>
      </trkpt>
      <trkpt lat="43.9586" lon="7.24306">
        <ele>1411</ele>
        <time>2018-05-08T19:17:59Z</time>
      </trkpt>
      <trkpt lat="43.95848" lon="7.24309">
        <ele>1412</ele>
        <time>2018-05-08T19:18:59Z</time>
      </trkpt>
      <trkpt lat="43.95835" lon="7.24311">
        <ele>1413</ele>
        <time>2018-05-08T19:19:59Z</time>
      </trkpt>
      <trkpt lat="43.95828" lon="7.24309">
        <ele>1414</ele>
        <time>2018-05-08T19:20:59Z</time>
      </trkpt>
      <trkpt lat="43.95822" lon="7.24308">
        <ele>1414</ele>
        <time>2018-05-08T19:21:59Z</time>
      </trkpt>
      <trkpt lat="43.95808" lon="7.2431">
        <ele>1414</ele>
        <time>2018-05-08T19:22:59Z</time>
      </trkpt>
      <trkpt lat="43.958" lon="7.24309">
        <ele>1414</ele>
        <time>2018-05-08T19:23:59Z</time>
      </trkpt>
      <trkpt lat="43.95782" lon="7.24305">
        <ele>1416</ele>
        <time>2018-05-08T19:24:59Z</time>
      </trkpt>
      <trkpt lat="43.9577" lon="7.24302">
        <ele>1417</ele>
        <time>2018-05-08T19:25:59Z</time>
      </trkpt>
      <trkpt lat="43.95766" lon="7.24301">
        <ele>1417</ele>
        <time>2018-05-08T19:26:59Z</time>
      </trkpt>
      <trkpt lat="43.95756" lon="7.24296">
        <ele>1419</ele>
        <time>2018-05-08T19:27:59Z</time>
      </trkpt>
      <trkpt lat="43.95747" lon="7.24294">
        <ele>1419</ele>
        <time>2018-05-08T19:28:59Z</time>
      </trkpt>
      <trkpt lat="43.95744" lon="7.24292">
        <ele>1419</ele>
        <time>2018-05-08T19:29:59Z</time>
      </trkpt>
      <trkpt lat="43.95716" lon="7.24288">
        <ele>1418</ele>
        <time>2018-05-08T19:30:59Z</time>
      </trkpt>
      <trkpt lat="43.95701" lon="7.24284">
        <ele>1417</ele>
        <time>2018-05-08T19:31:59Z</time>
      </trkpt>
      <trkpt lat="43.95694" lon="7.2428">
        <ele>1418</ele>
        <time>2018-05-08T19:32:59Z</time>
      </trkpt>
      <trkpt lat="43.95672" lon="7.2427">
        <ele>1419</ele>
        <time>2018-05-08T19:33:59Z</time>
      </trkpt>
      <trkpt lat="43.95662" lon="7.24264">
        <ele>1420</ele>
        <time>2018-05-08T19:34:59Z</time>
      </trkpt>
      <trkpt lat="43.95659" lon="7.24261">
        <ele>1421</ele>
        <time>2018-05-08T19:35:59Z</time>
      </trkpt>
      <trkpt lat="43.95646" lon="7.24251">
        <ele>1423</ele>
        <time>2018-05-08T19:36:59Z</time>
      </trkpt>
      <trkpt lat="43.95641" lon="7.24248">
        <ele>1424</ele>
        <time>2018-05-08T19:37:59Z</time>
      </trkpt>
      <trkpt lat="43.95638" lon="7.24244">
        <ele>1426</ele>
        <time>2018-05-08T19:38:59Z</time>
      </trkpt>
      <trkpt lat="43.95633" lon="7.2424">
        <ele>1427</ele>
        <time>2018-05-08T19:39:59Z</time>
      </trkpt>
      <trkpt lat="43.95621" lon="7.24232">
        <ele>1430</ele>
        <time>2018-05-08T19:40:59Z</time>
      </trkpt>
      <trkpt lat="43.95614" lon="7.2423">
        <ele>1430</ele>
        <time>2018-05-08T19:41:59Z</time>
      </trkpt>
      <trkpt lat="43.9561" lon="7.24223">
        <ele>1432</ele>
        <time>2018-05-08T19:42:59Z</time>
      </trkpt>
      <trkpt lat="43.95607" lon="7.2422">
        <ele>1433</ele>
        <time>2018-05-08T19:43:59Z</time>
      </trkpt>
      <trkpt lat="43.95601" lon="7.24214">
        <ele>1435</ele>
        <time>2018-05-08T19:44:59Z</time>
      </trkpt>
      <trkpt lat="43.95596" lon="7.24211">
        <ele>1436</ele>
        <time>2018-05-08T19:45:59Z</time>
      </trkpt>
      <trkpt lat="43.95586" lon="7.24209">
        <ele>1436</ele>
        <time>2018-05-08T19:46:59Z</time>
      </trkpt>
      <trkpt lat="43.95583" lon="7.24208">
        <ele>1436</ele>
        <time>2018-05-08T19:47:59Z</time>
      </trkpt>
      <trkpt lat="43.95571" lon="7.24203">
        <ele>1439</ele>
        <time>2018-05-08T19:48:59Z</time>
      </trkpt>
      <trkpt lat="43.95568" lon="7.24201">
        <ele>1440</ele>
        <time>2018-05-08T19:49:59Z</time>
      </trkpt>
      <trkpt lat="43.95556" lon="7.24198">
        <ele>1442</ele>
        <time>2018-05-08T19:50:59Z</time>
      </trkpt>
      <trkpt lat="43.9555" lon="7.24195">
        <ele>1443</ele>
        <time>2018-05-08T19:51:59Z</time>
      </trkpt>
      <trkpt lat="43.95545" lon="7.24192">
        <ele>1444</ele>
        <time>2018-05-08T19:52:59Z</time>
      </trkpt>
      <trkpt lat="43.95523" lon="7.24185">
        <ele>1446</ele>
        <time>2018-05-08T19:53:59Z</time>
      </trkpt>
      <trkpt lat="43.95519" lon="7.24184">
        <ele>1447</ele>
        <time>2018-05-08T19:54:59Z</time>
      </trkpt>
      <trkpt lat="43.95506" lon="7.24182">
        <ele>1447</ele>
        <time>2018-05-08T19:55:59Z</time>
      </trkpt>
      <trkpt lat="43.95502" lon="7.24182">
        <ele>1447</ele>
        <time>2018-05-08T19:56:59Z</time>
      </trkpt>
      <trkpt lat="43.95494" lon="7.24184">
        <ele>1449</ele>
        <time>2018-05-08T19:57:59Z</time>
      </trkpt>
      <trkpt lat="43.9549" lon="7.24184">
        <ele>1450</ele>
        <time>2018-05-08T19:58:59Z</time>
      </trkpt>
      <trkpt lat="43.95489" lon="7.24187">
        <ele>1451</ele>
        <time>2018-05-08T19:59:59Z</time>
      </trkpt>
      <trkpt lat="43.95488" lon="7.24189">
        <ele>1451</ele>
        <time>2018-05-08T20:00:59Z</time>
      </trkpt>
      <trkpt lat="43.95485" lon="7.2419">
        <ele>1452</ele>
        <time>2018-05-08T20:01:59Z</time>
      </trkpt>
      <trkpt lat="43.95481" lon="7.2419">
        <ele>1453</ele>
        <time>2018-05-08T20:02:59Z</time>
      </trkpt>
      <trkpt lat="43.95479" lon="7.2419">
        <ele>1454</ele>
        <time>2018-05-08T20:03:59Z</time>
      </trkpt>
      <trkpt lat="43.95475" lon="7.24192">
        <ele>1455</ele>
        <time>2018-05-08T20:04:59Z</time>
      </trkpt>
      <trkpt lat="43.95476" lon="7.24194">
        <ele>1454</ele>
        <time>2018-05-08T20:05:59Z</time>
      </trkpt>
      <trkpt lat="43.95474" lon="7.24195">
        <ele>1455</ele>
        <time>2018-05-08T20:06:59Z</time>
      </trkpt>
      <trkpt lat="43.95472" lon="7.24194">
        <ele>1456</ele>
        <time>2018-05-08T20:07:59Z</time>
      </trkpt>
      <trkpt lat="43.95468" lon="7.24191">
        <ele>1457</ele>
        <time>2018-05-08T20:08:59Z</time>
      </trkpt>
      <trkpt lat="43.95465" lon="7.24189">
        <ele>1458</ele>
        <time>2018-05-08T20:09:59Z</time>
      </trkpt>
      <trkpt lat="43.95462" lon="7.24189">
        <ele>1459</ele>
        <time>2018-05-08T20:10:59Z</time>
      </trkpt>
      <trkpt lat="43.9546" lon="7.24188">
        <ele>1459</ele>
        <time>2018-05-08T20:11:59Z</time>
      </trkpt>
      <trkpt lat="43.95457" lon="7.2419">
        <ele>1460</ele>
        <time>2018-05-08T20:12:59Z</time>
      </trkpt>
      <trkpt lat="43.95457" lon="7.24191">
        <ele>1460</ele>
        <time>2018-05-08T20:13:59Z</time>
      </trkpt>
      <trkpt lat="43.95456" lon="7.24193">
        <ele>1460</ele>
        <time>2018-05-08T20:14:59Z</time>
      </trkpt>
      <trkpt lat="43.95452" lon="7.24194">
        <ele>1462</ele>
        <time>2018-05-08T20:15:59Z</time>
      </trkpt>
      <trkpt lat="43.95451" lon="7.24195">
        <ele>1462</ele>
        <time>2018-05-08T20:16:59Z</time>
      </trkpt>
      <trkpt lat="43.95449" lon="7.24199">
        <ele>1462</ele>
        <time>2018-05-08T20:17:59Z</time>
      </trkpt>
      <trkpt lat="43.95447" lon="7.24201">
        <ele>1463</ele>
        <time>2018-05-08T20:18:59Z</time>
      </trkpt>
      <trkpt lat="43.95445" lon="7.24203">
        <ele>1463</ele>
        <time>2018-05-08T20:19:59Z</time>
      </trkpt>
      <trkpt lat="43.95444" lon="7.24206">
        <ele>1464</ele>
        <time>2018-05-08T20:20:59Z</time>
      </trkpt>
      <trkpt lat="43.95444" lon="7.24209">
        <ele>1464</ele>
        <time>2018-05-08T20:21:59Z</time>
      </trkpt>
      <trkpt lat="43.95443" lon="7.24212">
        <ele>1464</ele>
        <time>2018-05-08T20:22:59Z</time>
      </trkpt>
      <trkpt lat="43.95436" lon="7.24216">
        <ele>1466</ele>
        <time>2018-05-08T20:23:59Z</time>
      </trkpt>
      <trkpt lat="43.95434" lon="7.24217">
        <ele>1466</ele>
        <time>2018-05-08T20:24:59Z</time>
      </trkpt>
      <trkpt lat="43.95433" lon="7.24221">
        <ele>1467</ele>
        <time>2018-05-08T20:25:59Z</time>
      </trkpt>
      <trkpt lat="43.95433" lon="7.24224">
        <ele>1467</ele>
        <time>2018-05-08T20:26:59Z</time>
      </trkpt>
      <trkpt lat="43.95429" lon="7.24229">
        <ele>1468</ele>
        <time>2018-05-08T20:27:59Z</time>
      </trkpt>
      <trkpt lat="43.95428" lon="7.24231">
        <ele>1468</ele>
        <time>2018-05-08T20:28:59Z</time>
      </trkpt>
      <trkpt lat="43.95423" lon="7.24232">
        <ele>1469</ele>
        <time>2018-05-08T20:29:59Z</time>
      </trkpt>
      <trkpt lat="43.95422" lon="7.24233">
        <ele>1470</ele>
        <time>2018-05-08T20:30:59Z</time>
      </trkpt>
      <trkpt lat="43.95422" lon="7.24235">
        <ele>1470</ele>
        <time>2018-05-08T20:31:59Z</time>
      </trkpt>
      <trkpt lat="43.95422" lon="7.24243">
        <ele>1470</ele>
        <time>2018-05-08T20:32:59Z</time>
      </trkpt>
      <trkpt lat="43.95422" lon="7.24248">
        <ele>1469</ele>
        <time>2018-05-08T20:33:59Z</time>
      </trkpt>
      <trkpt lat="43.95419" lon="7.24251">
        <ele>1470</ele>
        <time>2018-05-08T20:34:59Z</time>
      </trkpt>
      <trkpt lat="43.95419" lon="7.24251">
        <ele>1470</ele>
        <time>2018-05-08T20:35:59Z</time>
      </trkpt>
      <trkpt lat="43.9541" lon="7.24252">
        <ele>1472</ele>
        <time>2018-05-08T20:36:59Z</time>
      </trkpt>
      <trkpt lat="43.95407" lon="7.24253">
        <ele>1472</ele>
        <time>2018-05-08T20:37:59Z</time>
      </trkpt>
      <trkpt lat="43.95405" lon="7.24256">
        <ele>1471</ele>
        <time>2018-05-08T20:38:59Z</time>
      </trkpt>
      <trkpt lat="43.95403" lon="7.24258">
        <ele>1471</ele>
        <time>2018-05-08T20:39:59Z</time>
      </trkpt>
      <trkpt lat="43.954" lon="7.24262">
        <ele>1470</ele>
        <time>2018-05-08T20:40:59Z</time>
      </trkpt>
      <trkpt lat="43.95399" lon="7.24263">
        <ele>1470</ele>
        <time>2018-05-08T20:41:59Z</time>
      </trkpt>
      <trkpt lat="43.95397" lon="7.24263">
        <ele>1470</ele>
        <time>2018-05-08T20:42:59Z</time>
      </trkpt>
      <trkpt lat="43.95386" lon="7.24263">
        <ele>1472</ele>
        <time>2018-05-08T20:43:59Z</time>
      </trkpt>
      <trkpt lat="43.95371" lon="7.24265">
        <ele>1474</ele>
        <time>2018-05-08T20:44:59Z</time>
      </trkpt>
      <trkpt lat="43.9536" lon="7.24266">
        <ele>1476</ele>
        <time>2018-05-08T20:45:59Z</time>
      </trkpt>
      <trkpt lat="43.95345" lon="7.24269">
        <ele>1476</ele>
        <time>2018-05-08T20:46:59Z</time>
      </trkpt>
      <trkpt lat="43.95333" lon="7.24271">
        <ele>1477</ele>
        <time>2018-05-08T20:47:59Z</time>
      </trkpt>
      <trkpt lat="43.95328" lon="7.24271">
        <ele>1478</ele>
        <time>2018-05-08T20:48:59Z</time>
      </trkpt>
      <trkpt lat="43.95319" lon="7.24271">
        <ele>1480</ele>
        <time>2018-05-08T20:49:59Z</time>
      </trkpt>
      <trkpt lat="43.95314" lon="7.2427">
        <ele>1481</ele>
        <time>2018-05-08T20:50:59Z</time>
      </trkpt>
      <trkpt lat="43.9531" lon="7.24267">
        <ele>1483</ele>
        <time>2018-05-08T20:51:59Z</time>
      </trkpt>
      <trkpt lat="43.95307" lon="7.24266">
        <ele>1484</ele>
        <time>2018-05-08T20:52:59Z</time>
      </trkpt>
      <trkpt lat="43.95301" lon="7.24266">
        <ele>1485</ele>
        <time>2018-05-08T20:53:59Z</time>
      </trkpt>
      <trkpt lat="43.95288" lon="7.24268">
        <ele>1487</ele>
        <time>2018-05-08T20:54:59Z</time>
      </trkpt>
      <trkpt lat="43.95283" lon="7.24268">
        <ele>1487</ele>
        <time>2018-05-08T20:55:59Z</time>
      </trkpt>
      <trkpt lat="43.95274" lon="7.24259">
        <ele>1494</ele>
        <time>2018-05-08T20:56:59Z</time>
      </trkpt>
      <trkpt lat="43.95274" lon="7.24259">
        <ele>1494</ele>
        <time>2018-05-08T20:57:59Z</time>
      </trkpt>
      <trkpt lat="43.95272" lon="7.24258">
        <ele>1494</ele>
        <time>2018-05-08T20:58:59Z</time>
      </trkpt>
      <trkpt lat="43.95272" lon="7.24258">
        <ele>1494</ele>
        <time>2018-05-08T20:59:59Z</time>
      </trkpt>
      <trkpt lat="43.95267" lon="7.24262">
        <ele>1493</ele>
        <time>2018-05-08T21:00:59Z</time>
      </trkpt>
      <trkpt lat="43.95261" lon="7.24267">
        <ele>1492</ele>
        <time>2018-05-08T21:01:59Z</time>
      </trkpt>
      <trkpt lat="43.95247" lon="7.24281">
        <ele>1487</ele>
        <time>2018-05-08T21:02:59Z</time>
      </trkpt>
      <trkpt lat="43.95241" lon="7.24285">
        <ele>1485</ele>
        <time>2018-05-08T21:03:59Z</time>
      </trkpt>
      <trkpt lat="43.95231" lon="7.24286">
        <ele>1486</ele>
        <time>2018-05-08T21:04:59Z</time>
      </trkpt>
      <trkpt lat="43.95226" lon="7.24289">
        <ele>1486</ele>
        <time>2018-05-08T21:05:59Z</time>
      </trkpt>
      <trkpt lat="43.95223" lon="7.24289">
        <ele>1486</ele>
        <time>2018-05-08T21:06:59Z</time>
      </trkpt>
      <trkpt lat="43.95217" lon="7.24288">
        <ele>1488</ele>
        <time>2018-05-08T21:07:59Z</time>
      </trkpt>
      <trkpt lat="43.95213" lon="7.24289">
        <ele>1488</ele>
        <time>2018-05-08T21:08:59Z</time>
      </trkpt>
      <trkpt lat="43.95211" lon="7.2429">
        <ele>1488</ele>
        <time>2018-05-08T21:09:59Z</time>
      </trkpt>
      <trkpt lat="43.95208" lon="7.24287">
        <ele>1489</ele>
        <time>2018-05-08T21:10:59Z</time>
      </trkpt>
      <trkpt lat="43.95203" lon="7.24287">
        <ele>1490</ele>
        <time>2018-05-08T21:11:59Z</time>
      </trkpt>
      <trkpt lat="43.95201" lon="7.24287">
        <ele>1490</ele>
        <time>2018-05-08T21:12:59Z</time>
      </trkpt>
      <trkpt lat="43.95197" lon="7.24289">
        <ele>1490</ele>
        <time>2018-05-08T21:13:59Z</time>
      </trkpt>
      <trkpt lat="43.95195" lon="7.24289">
        <ele>1490</ele>
        <time>2018-05-08T21:14:59Z</time>
      </trkpt>
      <trkpt lat="43.9519" lon="7.24292">
        <ele>1491</ele>
        <time>2018-05-08T21:15:59Z</time>
      </trkpt>
      <trkpt lat="43.9519" lon="7.24294">
        <ele>1490</ele>
        <time>2018-05-08T21:16:59Z</time>
      </trkpt>
      <trkpt lat="43.95193" lon="7.24296">
        <ele>1489</ele>
        <time>2018-05-08T21:17:59Z</time>
      </trkpt>
      <trkpt lat="43.95194" lon="7.24298">
        <ele>1489</ele>
        <time>2018-05-08T21:18:59Z</time>
      </trkpt>
      <trkpt lat="43.95192" lon="7.243">
        <ele>1489</ele>
        <time>2018-05-08T21:19:59Z</time>
      </trkpt>
      <trkpt lat="43.95191" lon="7.24299">
        <ele>1489</ele>
        <time>2018-05-08T21:20:59Z</time>
      </trkpt>
      <trkpt lat="43.95193" lon="7.24302">
        <ele>1488</ele>
        <time>2018-05-08T21:21:59Z</time>
      </trkpt>
      <trkpt lat="43.95193" lon="7.24306">
        <ele>1488</ele>
        <time>2018-05-08T21:22:59Z</time>
      </trkpt>
      <trkpt lat="43.95192" lon="7.24308">
        <ele>1487</ele>
        <time>2018-05-08T21:23:59Z</time>
      </trkpt>
      <trkpt lat="43.95191" lon="7.24309">
        <ele>1488</ele>
        <time>2018-05-08T21:24:59Z</time>
      </trkpt>
      <trkpt lat="43.95183" lon="7.24313">
        <ele>1489</ele>
        <time>2018-05-08T21:25:59Z</time>
      </trkpt>
      <trkpt lat="43.9518" lon="7.24315">
        <ele>1490</ele>
        <time>2018-05-08T21:26:59Z</time>
      </trkpt>
      <trkpt lat="43.95174" lon="7.24323">
        <ele>1491</ele>
        <time>2018-05-08T21:27:59Z</time>
      </trkpt>
      <trkpt lat="43.95173" lon="7.24325">
        <ele>1491</ele>
        <time>2018-05-08T21:28:59Z</time>
      </trkpt>
      <trkpt lat="43.95171" lon="7.24325">
        <ele>1492</ele>
        <time>2018-05-08T21:29:59Z</time>
      </trkpt>
      <trkpt lat="43.9517" lon="7.24324">
        <ele>1492</ele>
        <time>2018-05-08T21:30:59Z</time>
      </trkpt>
      <trkpt lat="43.95169" lon="7.24323">
        <ele>1493</ele>
        <time>2018-05-08T21:31:59Z</time>
      </trkpt>
      <trkpt lat="43.9517" lon="7.2432">
        <ele>1492</ele>
        <time>2018-05-08T21:32:59Z</time>
      </trkpt>
      <trkpt lat="43.95169" lon="7.24317">
        <ele>1493</ele>
        <time>2018-05-08T21:33:59Z</time>
      </trkpt>
      <trkpt lat="43.95167" lon="7.24319">
        <ele>1493</ele>
        <time>2018-05-08T21:34:59Z</time>
      </trkpt>
      <trkpt lat="43.95167" lon="7.24319">
        <ele>1493</ele>
        <time>2018-05-08T21:35:59Z</time>
      </trkpt>
      <trkpt lat="43.95167" lon="7.24322">
        <ele>1493</ele>
        <time>2018-05-08T21:36:59Z</time>
      </trkpt>
      <trkpt lat="43.95169" lon="7.24325">
        <ele>1492</ele>
        <time>2018-05-08T21:37:59Z</time>
      </trkpt>
      <trkpt lat="43.95168" lon="7.24326">
        <ele>1493</ele>
        <time>2018-05-08T21:38:59Z</time>
      </trkpt>
      <trkpt lat="43.95167" lon="7.24328">
        <ele>1493</ele>
        <time>2018-05-08T21:39:59Z</time>
      </trkpt>
      <trkpt lat="43.95165" lon="7.24329">
        <ele>1494</ele>
        <time>2018-05-08T21:40:59Z</time>
      </trkpt>
      <trkpt lat="43.95163" lon="7.24329">
        <ele>1494</ele>
        <time>2018-05-08T21:41:59Z</time>
      </trkpt>
      <trkpt lat="43.95161" lon="7.24331">
        <ele>1495</ele>
        <time>2018-05-08T21:42:59Z</time>
      </trkpt>
      <trkpt lat="43.95162" lon="7.24333">
        <ele>1495</ele>
        <time>2018-05-08T21:43:59Z</time>
      </trkpt>
      <trkpt lat="43.95161" lon="7.24334">
        <ele>1495</ele>
        <time>2018-05-08T21:44:59Z</time>
      </trkpt>
      <trkpt lat="43.9516" lon="7.24335">
        <ele>1495</ele>
        <time>2018-05-08T21:45:59Z</time>
      </trkpt>
      <trkpt lat="43.95161" lon="7.24336">
        <ele>1494</ele>
        <time>2018-05-08T21:46:59Z</time>
      </trkpt>
      <trkpt lat="43.9516" lon="7.24337">
        <ele>1494</ele>
        <time>2018-05-08T21:47:59Z</time>
      </trkpt>
      <trkpt lat="43.9516" lon="7.24345">
        <ele>1489</ele>
        <time>2018-05-08T21:48:59Z</time>
      </trkpt>
      <trkpt lat="43.9516" lon="7.24348">
        <ele>1488</ele>
        <time>2018-05-08T21:49:59Z</time>
      </trkpt>
      <trkpt lat="43.95158" lon="7.2435">
        <ele>1488</ele>
        <time>2018-05-08T21:50:59Z</time>
      </trkpt>
      <trkpt lat="43.95157" lon="7.2435">
        <ele>1488</ele>
        <time>2018-05-08T21:51:59Z</time>
      </trkpt>
      <trkpt lat="43.95153" lon="7.24357">
        <ele>1486</ele>
        <time>2018-05-08T21:52:59Z</time>
      </trkpt>
      <trkpt lat="43.95152" lon="7.24358">
        <ele>1486</ele>
        <time>2018-05-08T21:53:59Z</time>
      </trkpt>
      <trkpt lat="43.95145" lon="7.24361">
        <ele>1488</ele>
        <time>2018-05-08T21:54:59Z</time>
      </trkpt>
      <trkpt lat="43.95144" lon="7.24362">
        <ele>1488</ele>
        <time>2018-05-08T21:55:59Z</time>
      </trkpt>
      <trkpt lat="43.95134" lon="7.24369">
        <ele>1489</ele>
        <time>2018-05-08T21:56:59Z</time>
      </trkpt>
      <trkpt lat="43.9513" lon="7.24371">
        <ele>1490</ele>
        <time>2018-05-08T21:57:59Z</time>
      </trkpt>
      <trkpt lat="43.95123" lon="7.24368">
        <ele>1495</ele>
        <time>2018-05-08T21:58:59Z</time>
      </trkpt>
      <trkpt lat="43.95118" lon="7.24364">
        <ele>1499</ele>
        <time>2018-05-08T21:59:59Z</time>
      </trkpt>
      <trkpt lat="43.95113" lon="7.24363">
        <ele>1502</ele>
        <time>2018-05-08T22:00:59Z</time>
      </trkpt>
      <trkpt lat="43.95106" lon="7.24364">
        <ele>1505</ele>
        <time>2018-05-08T22:01:59Z</time>
      </trkpt>
      <trkpt lat="43.95101" lon="7.24367">
        <ele>1506</ele>
        <time>2018-05-08T22:02:59Z</time>
      </trkpt>
      <trkpt lat="43.95095" lon="7.24371">
        <ele>1508</ele>
        <time>2018-05-08T22:03:59Z</time>
      </trkpt>
      <trkpt lat="43.95089" lon="7.24368">
        <ele>1511</ele>
        <time>2018-05-08T22:04:59Z</time>
      </trkpt>
      <trkpt lat="43.95083" lon="7.24365">
        <ele>1515</ele>
        <time>2018-05-08T22:05:59Z</time>
      </trkpt>
      <trkpt lat="43.95079" lon="7.24365">
        <ele>1516</ele>
        <time>2018-05-08T22:06:59Z</time>
      </trkpt>
      <trkpt lat="43.95076" lon="7.24363">
        <ele>1517</ele>
        <time>2018-05-08T22:07:59Z</time>
      </trkpt>
      <trkpt lat="43.95075" lon="7.24358">
        <ele>1519</ele>
        <time>2018-05-08T22:08:59Z</time>
      </trkpt>
      <trkpt lat="43.95072" lon="7.24353">
        <ele>1520</ele>
        <time>2018-05-08T22:09:59Z</time>
      </trkpt>
      <trkpt lat="43.95065" lon="7.24348">
        <ele>1522</ele>
        <time>2018-05-08T22:10:59Z</time>
      </trkpt>
      <trkpt lat="43.95061" lon="7.24339">
        <ele>1524</ele>
        <time>2018-05-08T22:11:59Z</time>
      </trkpt>
      <trkpt lat="43.95058" lon="7.24333">
        <ele>1525</ele>
        <time>2018-05-08T22:12:59Z</time>
      </trkpt>
      <trkpt lat="43.95055" lon="7.24319">
        <ele>1516</ele>
        <time>2018-05-08T22:13:59Z</time>
      </trkpt>
      <trkpt lat="43.95052" lon="7.24311">
        <ele>1512</ele>
        <time>2018-05-08T22:14:59Z</time>
      </trkpt>
      <trkpt lat="43.95049" lon="7.24309">
        <ele>1510</ele>
        <time>2018-05-08T22:15:59Z</time>
      </trkpt>
      <trkpt lat="43.95041" lon="7.24313">
        <ele>1513</ele>
        <time>2018-05-08T22:16:59Z</time>
      </trkpt>
      <trkpt lat="43.95036" lon="7.24317">
        <ele>1515</ele>
        <time>2018-05-08T22:17:59Z</time>
      </trkpt>
      <trkpt lat="43.95034" lon="7.24321">
        <ele>1517</ele>
        <time>2018-05-08T22:18:59Z</time>
      </trkpt>
      <trkpt lat="43.95025" lon="7.24326">
        <ele>1520</ele>
        <time>2018-05-08T22:19:59Z</time>
      </trkpt>
      <trkpt lat="43.95018" lon="7.24331">
        <ele>1524</ele>
        <time>2018-05-08T22:20:59Z</time>
      </trkpt>
      <trkpt lat="43.95015" lon="7.24333">
        <ele>1525</ele>
        <time>2018-05-08T22:21:59Z</time>
      </trkpt>
      <trkpt lat="43.95013" lon="7.24338">
        <ele>1526</ele>
        <time>2018-05-08T22:22:59Z</time>
      </trkpt>
      <trkpt lat="43.95012" lon="7.24339">
        <ele>1526</ele>
        <time>2018-05-08T22:23:59Z</time>
      </trkpt>
      <trkpt lat="43.9501" lon="7.24341">
        <ele>1526</ele>
        <time>2018-05-08T22:24:59Z</time>
      </trkpt>
      <trkpt lat="43.95009" lon="7.24343">
        <ele>1526</ele>
        <time>2018-05-08T22:25:59Z</time>
      </trkpt>
      <trkpt lat="43.95007" lon="7.24343">
        <ele>1527</ele>
        <time>2018-05-08T22:26:59Z</time>
      </trkpt>
      <trkpt lat="43.95006" lon="7.24344">
        <ele>1527</ele>
        <time>2018-05-08T22:27:59Z</time>
      </trkpt>
      <trkpt lat="43.95002" lon="7.24349">
        <ele>1528</ele>
        <time>2018-05-08T22:28:59Z</time>
      </trkpt>
      <trkpt lat="43.95" lon="7.24351">
        <ele>1529</ele>
        <time>2018-05-08T22:29:59Z</time>
      </trkpt>
      <trkpt lat="43.94993" lon="7.24355">
        <ele>1527</ele>
        <time>2018-05-08T22:30:59Z</time>
      </trkpt>
      <trkpt lat="43.94986" lon="7.24358">
        <ele>1526</ele>
        <time>2018-05-08T22:31:59Z</time>
      </trkpt>
      <trkpt lat="43.94979" lon="7.2436">
        <ele>1524</ele>
        <time>2018-05-08T22:32:59Z</time>
      </trkpt>
      <trkpt lat="43.94972" lon="7.24357">
        <ele>1521</ele>
        <time>2018-05-08T22:33:59Z</time>
      </trkpt>
      <trkpt lat="43.94961" lon="7.24349">
        <ele>1516</ele>
        <time>2018-05-08T22:34:59Z</time>
      </trkpt>
      <trkpt lat="43.94958" lon="7.24346">
        <ele>1514</ele>
        <time>2018-05-08T22:35:59Z</time>
      </trkpt>
      <trkpt lat="43.94954" lon="7.24345">
        <ele>1512</ele>
        <time>2018-05-08T22:36:59Z</time>
      </trkpt>
      <trkpt lat="43.94947" lon="7.24343">
        <ele>1509</ele>
        <time>2018-05-08T22:37:59Z</time>
      </trkpt>
      <trkpt lat="43.94941" lon="7.24338">
        <ele>1505</ele>
        <time>2018-05-08T22:38:59Z</time>
      </trkpt>
      <trkpt lat="43.94933" lon="7.24341">
        <ele>1504</ele>
        <time>2018-05-08T22:39:59Z</time>
      </trkpt>
      <trkpt lat="43.94926" lon="7.24352">
        <ele>1505</ele>
        <time>2018-05-08T22:40:59Z</time>
      </trkpt>
      <trkpt lat="43.94917" lon="7.24363">
        <ele>1507</ele>
        <time>2018-05-08T22:41:59Z</time>
      </trkpt>
      <trkpt lat="43.9491" lon="7.24378">
        <ele>1509</ele>
        <time>2018-05-08T22:42:59Z</time>
      </trkpt>
      <trkpt lat="43.94909" lon="7.24379">
        <ele>1509</ele>
        <time>2018-05-08T22:43:59Z</time>
      </trkpt>
      <trkpt lat="43.94906" lon="7.24379">
        <ele>1507</ele>
        <time>2018-05-08T22:44:59Z</time>
      </trkpt>
      <trkpt lat="43.94901" lon="7.24382">
        <ele>1505</ele>
        <time>2018-05-08T22:45:59Z</time>
      </trkpt>
      <trkpt lat="43.94896" lon="7.24389">
        <ele>1505</ele>
        <time>2018-05-08T22:46:59Z</time>
      </trkpt>
      <trkpt lat="43.94892" lon="7.24391">
        <ele>1503</ele>
        <time>2018-05-08T22:47:59Z</time>
      </trkpt>
      <trkpt lat="43.94885" lon="7.24394">
        <ele>1500</ele>
        <time>2018-05-08T22:48:59Z</time>
      </trkpt>
      <trkpt lat="43.94882" lon="7.24396">
        <ele>1499</ele>
        <time>2018-05-08T22:49:59Z</time>
      </trkpt>
      <trkpt lat="43.94878" lon="7.24396">
        <ele>1497</ele>
        <time>2018-05-08T22:50:59Z</time>
      </trkpt>
      <trkpt lat="43.94874" lon="7.24397">
        <ele>1495</ele>
        <time>2018-05-08T22:51:59Z</time>
      </trkpt>
      <trkpt lat="43.94872" lon="7.24397">
        <ele>1493</ele>
        <time>2018-05-08T22:52:59Z</time>
      </trkpt>
      <trkpt lat="43.94871" lon="7.24397">
        <ele>1493</ele>
        <time>2018-05-08T22:53:59Z</time>
      </trkpt>
      <trkpt lat="43.94872" lon="7.24394">
        <ele>1492</ele>
        <time>2018-05-08T22:54:59Z</time>
      </trkpt>
      <trkpt lat="43.94876" lon="7.24389">
        <ele>1493</ele>
        <time>2018-05-08T22:55:59Z</time>
      </trkpt>
      <trkpt lat="43.94877" lon="7.24387">
        <ele>1493</ele>
        <time>2018-05-08T22:56:59Z</time>
      </trkpt>
      <trkpt lat="43.94879" lon="7.2438">
        <ele>1491</ele>
        <time>2018-05-08T22:57:59Z</time>
      </trkpt>
      <trkpt lat="43.9488" lon="7.24378">
        <ele>1491</ele>
        <time>2018-05-08T22:58:59Z</time>
      </trkpt>
      <trkpt lat="43.9488" lon="7.24377">
        <ele>1491</ele>
        <time>2018-05-08T22:59:59Z</time>
      </trkpt>
      <trkpt lat="43.94878" lon="7.24378">
        <ele>1490</ele>
        <time>2018-05-08T23:00:59Z</time>
      </trkpt>
      <trkpt lat="43.94878" lon="7.24374">
        <ele>1488</ele>
        <time>2018-05-08T23:01:59Z</time>
      </trkpt>
      <trkpt lat="43.94881" lon="7.2437">
        <ele>1489</ele>
        <time>2018-05-08T23:02:59Z</time>
      </trkpt>
      <trkpt lat="43.94883" lon="7.24367">
        <ele>1489</ele>
        <time>2018-05-08T23:03:59Z</time>
      </trkpt>
      <trkpt lat="43.94888" lon="7.24348">
        <ele>1484</ele>
        <time>2018-05-08T23:04:59Z</time>
      </trkpt>
      <trkpt lat="43.94889" lon="7.24346">
        <ele>1484</ele>
        <time>2018-05-08T23:05:59Z</time>
      </trkpt>
      <trkpt lat="43.9489" lon="7.24336">
        <ele>1481</ele>
        <time>2018-05-08T23:06:59Z</time>
      </trkpt>
      <trkpt lat="43.94891" lon="7.24333">
        <ele>1480</ele>
        <time>2018-05-08T23:07:59Z</time>
      </trkpt>
      <trkpt lat="43.94888" lon="7.2433">
        <ele>1478</ele>
        <time>2018-05-08T23:08:59Z</time>
      </trkpt>
      <trkpt lat="43.94885" lon="7.24329">
        <ele>1476</ele>
        <time>2018-05-08T23:09:59Z</time>
      </trkpt>
      <trkpt lat="43.94882" lon="7.24331">
        <ele>1475</ele>
        <time>2018-05-08T23:10:59Z</time>
      </trkpt>
      <trkpt lat="43.94879" lon="7.24334">
        <ele>1474</ele>
        <time>2018-05-08T23:11:59Z</time>
      </trkpt>
      <trkpt lat="43.94858" lon="7.24366">
        <ele>1474</ele>
        <time>2018-05-08T23:12:59Z</time>
      </trkpt>
      <trkpt lat="43.94854" lon="7.24371">
        <ele>1473</ele>
        <time>2018-05-08T23:13:59Z</time>
      </trkpt>
      <trkpt lat="43.94827" lon="7.24399">
        <ele>1468</ele>
        <time>2018-05-08T23:14:59Z</time>
      </trkpt>
      <trkpt lat="43.94824" lon="7.24403">
        <ele>1468</ele>
        <time>2018-05-08T23:15:59Z</time>
      </trkpt>
      <trkpt lat="43.94822" lon="7.24405">
        <ele>1467</ele>
        <time>2018-05-08T23:16:59Z</time>
      </trkpt>
      <trkpt lat="43.94816" lon="7.24411">
        <ele>1467</ele>
        <time>2018-05-08T23:17:59Z</time>
      </trkpt>
      <trkpt lat="43.94808" lon="7.24415">
        <ele>1464</ele>
        <time>2018-05-08T23:18:59Z</time>
      </trkpt>
      <trkpt lat="43.94793" lon="7.2442">
        <ele>1459</ele>
        <time>2018-05-08T23:19:59Z</time>
      </trkpt>
      <trkpt lat="43.94791" lon="7.24422">
        <ele>1459</ele>
        <time>2018-05-08T23:20:59Z</time>
      </trkpt>
      <trkpt lat="43.94785" lon="7.24424">
        <ele>1456</ele>
        <time>2018-05-08T23:21:59Z</time>
      </trkpt>
      <trkpt lat="43.94784" lon="7.24422">
        <ele>1455</ele>
        <time>2018-05-08T23:22:59Z</time>
      </trkpt>
      <trkpt lat="43.94786" lon="7.24415">
        <ele>1453</ele>
        <time>2018-05-08T23:23:59Z</time>
      </trkpt>
      <trkpt lat="43.94793" lon="7.244">
        <ele>1452</ele>
        <time>2018-05-08T23:24:59Z</time>
      </trkpt>
      <trkpt lat="43.94794" lon="7.24396">
        <ele>1451</ele>
        <time>2018-05-08T23:25:59Z</time>
      </trkpt>
      <trkpt lat="43.94787" lon="7.24399">
        <ele>1449</ele>
        <time>2018-05-08T23:26:59Z</time>
      </trkpt>
      <trkpt lat="43.94783" lon="7.24401">
        <ele>1448</ele>
        <time>2018-05-08T23:27:59Z</time>
      </trkpt>
      <trkpt lat="43.94778" lon="7.24406">
        <ele>1447</ele>
        <time>2018-05-08T23:28:59Z</time>
      </trkpt>
      <trkpt lat="43.94775" lon="7.24406">
        <ele>1445</ele>
        <time>2018-05-08T23:29:59Z</time>
      </trkpt>
      <trkpt lat="43.94774" lon="7.24404">
        <ele>1444</ele>
        <time>2018-05-08T23:30:59Z</time>
      </trkpt>
      <trkpt lat="43.94776" lon="7.24398">
        <ele>1443</ele>
        <time>2018-05-08T23:31:59Z</time>
      </trkpt>
      <trkpt lat="43.94778" lon="7.2439">
        <ele>1442</ele>
        <time>2018-05-08T23:32:59Z</time>
      </trkpt>
      <trkpt lat="43.94781" lon="7.24382">
        <ele>1441</ele>
        <time>2018-05-08T23:33:59Z</time>
      </trkpt>
      <trkpt lat="43.94784" lon="7.24376">
        <ele>1441</ele>
        <time>2018-05-08T23:34:59Z</time>
      </trkpt>
      <trkpt lat="43.94784" lon="7.24374">
        <ele>1440</ele>
        <time>2018-05-08T23:35:59Z</time>
      </trkpt>
      <trkpt lat="43.94783" lon="7.24373">
        <ele>1439</ele>
        <time>2018-05-08T23:36:59Z</time>
      </trkpt>
      <trkpt lat="43.9478" lon="7.24372">
        <ele>1438</ele>
        <time>2018-05-08T23:37:59Z</time>
      </trkpt>
      <trkpt lat="43.94764" lon="7.24375">
        <ele>1431</ele>
        <time>2018-05-08T23:38:59Z</time>
      </trkpt>
      <trkpt lat="43.94763" lon="7.24375">
        <ele>1431</ele>
        <time>2018-05-08T23:39:59Z</time>
      </trkpt>
      <trkpt lat="43.94757" lon="7.24376">
        <ele>1428</ele>
        <time>2018-05-08T23:40:59Z</time>
      </trkpt>
      <trkpt lat="43.94756" lon="7.24376">
        <ele>1428</ele>
        <time>2018-05-08T23:41:59Z</time>
      </trkpt>
      <trkpt lat="43.94755" lon="7.24375">
        <ele>1427</ele>
        <time>2018-05-08T23:42:59Z</time>
      </trkpt>
      <trkpt lat="43.94755" lon="7.2437">
        <ele>1426</ele>
        <time>2018-05-08T23:43:59Z</time>
      </trkpt>
      <trkpt lat="43.94755" lon="7.24365">
        <ele>1425</ele>
        <time>2018-05-08T23:44:59Z</time>
      </trkpt>
      <trkpt lat="43.94757" lon="7.24362">
        <ele>1425</ele>
        <time>2018-05-08T23:45:59Z</time>
      </trkpt>
      <trkpt lat="43.94757" lon="7.24359">
        <ele>1424</ele>
        <time>2018-05-08T23:46:59Z</time>
      </trkpt>
      <trkpt lat="43.94755" lon="7.24356">
        <ele>1422</ele>
        <time>2018-05-08T23:47:59Z</time>
      </trkpt>
      <trkpt lat="43.94753" lon="7.24353">
        <ele>1420</ele>
        <time>2018-05-08T23:48:59Z</time>
      </trkpt>
      <trkpt lat="43.94746" lon="7.24345">
        <ele>1415</ele>
        <time>2018-05-08T23:49:59Z</time>
      </trkpt>
      <trkpt lat="43.94743" lon="7.24343">
        <ele>1413</ele>
        <time>2018-05-08T23:50:59Z</time>
      </trkpt>
      <trkpt lat="43.94729" lon="7.24333">
        <ele>1403</ele>
        <time>2018-05-08T23:51:59Z</time>
      </trkpt>
      <trkpt lat="43.94727" lon="7.24332">
        <ele>1402</ele>
        <time>2018-05-08T23:52:59Z</time>
      </trkpt>
      <trkpt lat="43.94726" lon="7.2433">
        <ele>1401</ele>
        <time>2018-05-08T23:53:59Z</time>
      </trkpt>
      <trkpt lat="43.94721" lon="7.24326">
        <ele>1398</ele>
        <time>2018-05-08T23:54:59Z</time>
      </trkpt>
      <trkpt lat="43.94709" lon="7.24318">
        <ele>1390</ele>
        <time>2018-05-08T23:55:59Z</time>
      </trkpt>
      <trkpt lat="43.94705" lon="7.24315">
        <ele>1388</ele>
        <time>2018-05-08T23:56:59Z</time>
      </trkpt>
      <trkpt lat="43.947" lon="7.24315">
        <ele>1385</ele>
        <time>2018-05-08T23:57:59Z</time>
      </trkpt>
      <trkpt lat="43.94699" lon="7.24316">
        <ele>1385</ele>
        <time>2018-05-08T23:58:59Z</time>
      </trkpt>
      <trkpt lat="43.94698" lon="7.24315">
        <ele>1384</ele>
        <time>2018-05-08T23:59:59Z</time>
      </trkpt>
      <trkpt lat="43.9469" lon="7.24316">
        <ele>1381</ele>
        <time>2018-05-09T00:00:59Z</time>
      </trkpt>
      <trkpt lat="43.94687" lon="7.24316">
        <ele>1379</ele>
        <time>2018-05-09T00:01:59Z</time>
      </trkpt>
      <trkpt lat="43.94679" lon="7.24307">
        <ele>1374</ele>
        <time>2018-05-09T00:02:59Z</time>
      </trkpt>
      <trkpt lat="43.94678" lon="7.24305">
        <ele>1373</ele>
        <time>2018-05-09T00:03:59Z</time>
      </trkpt>
      <trkpt lat="43.94676" lon="7.24301">
        <ele>1372</ele>
        <time>2018-05-09T00:04:59Z</time>
      </trkpt>
      <trkpt lat="43.94676" lon="7.243">
        <ele>1372</ele>
        <time>2018-05-09T00:05:59Z</time>
      </trkpt>
      <trkpt lat="43.94663" lon="7.24291">
        <ele>1366</ele>
        <time>2018-05-09T00:06:59Z</time>
      </trkpt>
      <trkpt lat="43.94655" lon="7.24285">
        <ele>1363</ele>
        <time>2018-05-09T00:07:59Z</time>
      </trkpt>
      <trkpt lat="43.94639" lon="7.2427">
        <ele>1360</ele>
        <time>2018-05-09T00:08:59Z</time>
      </trkpt>
      <trkpt lat="43.94633" lon="7.24263">
        <ele>1360</ele>
        <time>2018-05-09T00:09:59Z</time>
      </trkpt>
      <trkpt lat="43.94629" lon="7.24256">
        <ele>1360</ele>
        <time>2018-05-09T00:10:59Z</time>
      </trkpt>
      <trkpt lat="43.94623" lon="7.24243">
        <ele>1360</ele>
        <time>2018-05-09T00:11:59Z</time>
      </trkpt>
      <trkpt lat="43.94616" lon="7.24228">
        <ele>1360</ele>
        <time>2018-05-09T00:12:59Z</time>
      </trkpt>
      <trkpt lat="43.94614" lon="7.24224">
        <ele>1360</ele>
        <time>2018-05-09T00:13:59Z</time>
      </trkpt>
      <trkpt lat="43.94609" lon="7.24216">
        <ele>1361</ele>
        <time>2018-05-09T00:14:59Z</time>
      </trkpt>
      <trkpt lat="43.94605" lon="7.2421">
        <ele>1362</ele>
        <time>2018-05-09T00:15:59Z</time>
      </trkpt>
      <trkpt lat="43.94587" lon="7.24176">
        <ele>1369</ele>
        <time>2018-05-09T00:16:59Z</time>
      </trkpt>
      <trkpt lat="43.94582" lon="7.24163">
        <ele>1371</ele>
        <time>2018-05-09T00:17:59Z</time>
      </trkpt>
      <trkpt lat="43.94569" lon="7.24141">
        <ele>1371</ele>
        <time>2018-05-09T00:18:59Z</time>
      </trkpt>
      <trkpt lat="43.94566" lon="7.24134">
        <ele>1371</ele>
        <time>2018-05-09T00:19:59Z</time>
      </trkpt>
      <trkpt lat="43.9456" lon="7.24116">
        <ele>1370</ele>
        <time>2018-05-09T00:20:59Z</time>
      </trkpt>
      <trkpt lat="43.94558" lon="7.24101">
        <ele>1368</ele>
        <time>2018-05-09T00:21:59Z</time>
      </trkpt>
      <trkpt lat="43.94558" lon="7.24099">
        <ele>1368</ele>
        <time>2018-05-09T00:22:59Z</time>
      </trkpt>
      <trkpt lat="43.94558" lon="7.24079">
        <ele>1365</ele>
        <time>2018-05-09T00:23:59Z</time>
      </trkpt>
      <trkpt lat="43.94559" lon="7.24067">
        <ele>1362</ele>
        <time>2018-05-09T00:24:59Z</time>
      </trkpt>
      <trkpt lat="43.94558" lon="7.2404">
        <ele>1358</ele>
        <time>2018-05-09T00:25:59Z</time>
      </trkpt>
      <trkpt lat="43.94558" lon="7.2403">
        <ele>1356</ele>
        <time>2018-05-09T00:26:59Z</time>
      </trkpt>
      <trkpt lat="43.94553" lon="7.24007">
        <ele>1353</ele>
        <time>2018-05-09T00:27:59Z</time>
      </trkpt>
      <trkpt lat="43.94551" lon="7.23997">
        <ele>1351</ele>
        <time>2018-05-09T00:28:59Z</time>
      </trkpt>
      <trkpt lat="43.9455" lon="7.23992">
        <ele>1348</ele>
        <time>2018-05-09T00:29:59Z</time>
      </trkpt>
      <trkpt lat="43.94545" lon="7.23977">
        <ele>1342</ele>
        <time>2018-05-09T00:30:59Z</time>
      </trkpt>
      <trkpt lat="43.94538" lon="7.23978">
        <ele>1343</ele>
        <time>2018-05-09T00:31:59Z</time>
      </trkpt>
      <trkpt lat="43.94524" lon="7.23984">
        <ele>1347</ele>
        <time>2018-05-09T00:32:59Z</time>
      </trkpt>
      <trkpt lat="43.94512" lon="7.23989">
        <ele>1351</ele>
        <time>2018-05-09T00:33:59Z</time>
      </trkpt>
      <trkpt lat="43.94502" lon="7.23995">
        <ele>1355</ele>
        <time>2018-05-09T00:34:59Z</time>
      </trkpt>
      <trkpt lat="43.94493" lon="7.24001">
        <ele>1358</ele>
        <time>2018-05-09T00:35:59Z</time>
      </trkpt>
      <trkpt lat="43.94481" lon="7.24005">
        <ele>1359</ele>
        <time>2018-05-09T00:36:59Z</time>
      </trkpt>
      <trkpt lat="43.94469" lon="7.24009">
        <ele>1360</ele>
        <time>2018-05-09T00:37:59Z</time>
      </trkpt>
      <trkpt lat="43.94455" lon="7.24013">
        <ele>1361</ele>
        <time>2018-05-09T00:38:59Z</time>
      </trkpt>
      <trkpt lat="43.94445" lon="7.24014">
        <ele>1361</ele>
        <time>2018-05-09T00:39:59Z</time>
      </trkpt>
      <trkpt lat="43.94442" lon="7.24015">
        <ele>1361</ele>
        <time>2018-05-09T00:40:59Z</time>
      </trkpt>
      <trkpt lat="43.94427" lon="7.24012">
        <ele>1359</ele>
        <time>2018-05-09T00:41:59Z</time>
      </trkpt>
      <trkpt lat="43.94417" lon="7.24008">
        <ele>1357</ele>
        <time>2018-05-09T00:42:59Z</time>
      </trkpt>
      <trkpt lat="43.94397" lon="7.24009">
        <ele>1358</ele>
        <time>2018-05-09T00:43:59Z</time>
      </trkpt>
      <trkpt lat="43.94366" lon="7.24006">
        <ele>1357</ele>
        <time>2018-05-09T00:44:59Z</time>
      </trkpt>
      <trkpt lat="43.94353" lon="7.24004">
        <ele>1356</ele>
        <time>2018-05-09T00:45:59Z</time>
      </trkpt>
      <trkpt lat="43.94329" lon="7.24005">
        <ele>1358</ele>
        <time>2018-05-09T00:46:59Z</time>
      </trkpt>
      <trkpt lat="43.94313" lon="7.24003">
        <ele>1359</ele>
        <time>2018-05-09T00:47:59Z</time>
      </trkpt>
      <trkpt lat="43.94297" lon="7.23996">
        <ele>1358</ele>
        <time>2018-05-09T00:48:59Z</time>
      </trkpt>
      <trkpt lat="43.94287" lon="7.2399">
        <ele>1358</ele>
        <time>2018-05-09T00:49:59Z</time>
      </trkpt>
      <trkpt lat="43.94282" lon="7.23989">
        <ele>1358</ele>
        <time>2018-05-09T00:50:59Z</time>
      </trkpt>
      <trkpt lat="43.94276" lon="7.23989">
        <ele>1359</ele>
        <time>2018-05-09T00:51:59Z</time>
      </trkpt>
      <trkpt lat="43.94258" lon="7.2399">
        <ele>1362</ele>
        <time>2018-05-09T00:52:59Z</time>
      </trkpt>
      <trkpt lat="43.94252" lon="7.23987">
        <ele>1361</ele>
        <time>2018-05-09T00:53:59Z</time>
      </trkpt>
      <trkpt lat="43.9425" lon="7.23986">
        <ele>1361</ele>
        <time>2018-05-09T00:54:59Z</time>
      </trkpt>
      <trkpt lat="43.94238" lon="7.23967">
        <ele>1356</ele>
        <time>2018-05-09T00:55:59Z</time>
      </trkpt>
      <trkpt lat="43.94236" lon="7.23962">
        <ele>1354</ele>
        <time>2018-05-09T00:56:59Z</time>
      </trkpt>
      <trkpt lat="43.94235" lon="7.23955">
        <ele>1352</ele>
        <time>2018-05-09T00:57:59Z</time>
      </trkpt>
      <trkpt lat="43.94234" lon="7.23906">
        <ele>1336</ele>
        <time>2018-05-09T00:58:59Z</time>
      </trkpt>
      <trkpt lat="43.94235" lon="7.23885">
        <ele>1330</ele>
        <time>2018-05-09T00:59:59Z</time>
      </trkpt>
      <trkpt lat="43.94243" lon="7.23855">
        <ele>1324</ele>
        <time>2018-05-09T01:00:59Z</time>
      </trkpt>
      <trkpt lat="43.94245" lon="7.23844">
        <ele>1322</ele>
        <time>2018-05-09T01:01:59Z</time>
      </trkpt>
      <trkpt lat="43.94246" lon="7.23833">
        <ele>1320</ele>
        <time>2018-05-09T01:02:59Z</time>
      </trkpt>
      <trkpt lat="43.94248" lon="7.23821">
        <ele>1318</ele>
        <time>2018-05-09T01:03:59Z</time>
      </trkpt>
      <trkpt lat="43.94252" lon="7.23797">
        <ele>1314</ele>
        <time>2018-05-09T01:04:59Z</time>
      </trkpt>
      <trkpt lat="43.94255" lon="7.23785">
        <ele>1311</ele>
        <time>2018-05-09T01:05:59Z</time>
      </trkpt>
      <trkpt lat="43.94258" lon="7.23773">
        <ele>1309</ele>
        <time>2018-05-09T01:06:59Z</time>
      </trkpt>
      <trkpt lat="43.94271" lon="7.23743">
        <ele>1302</ele>
        <time>2018-05-09T01:07:59Z</time>
      </trkpt>
      <trkpt lat="43.94275" lon="7.23735">
        <ele>1301</ele>
        <time>2018-05-09T01:08:59Z</time>
      </trkpt>
      <trkpt lat="43.94277" lon="7.23727">
        <ele>1300</ele>
        <time>2018-05-09T01:09:59Z</time>
      </trkpt>
      <trkpt lat="43.94276" lon="7.23721">
        <ele>1299</ele>
        <time>2018-05-09T01:10:59Z</time>
      </trkpt>
      <trkpt lat="43.94274" lon="7.23716">
        <ele>1299</ele>
        <time>2018-05-09T01:11:59Z</time>
      </trkpt>
      <trkpt lat="43.94264" lon="7.23718">
        <ele>1300</ele>
        <time>2018-05-09T01:12:59Z</time>
      </trkpt>
      <trkpt lat="43.94257" lon="7.2373">
        <ele>1302</ele>
        <time>2018-05-09T01:13:59Z</time>
      </trkpt>
      <trkpt lat="43.94254" lon="7.23739">
        <ele>1304</ele>
        <time>2018-05-09T01:14:59Z</time>
      </trkpt>
      <trkpt lat="43.94251" lon="7.23748">
        <ele>1306</ele>
        <time>2018-05-09T01:15:59Z</time>
      </trkpt>
      <trkpt lat="43.94242" lon="7.23767">
        <ele>1305</ele>
        <time>2018-05-09T01:16:59Z</time>
      </trkpt>
      <trkpt lat="43.94237" lon="7.23776">
        <ele>1305</ele>
        <time>2018-05-09T01:17:59Z</time>
      </trkpt>
      <trkpt lat="43.94228" lon="7.23796">
        <ele>1306</ele>
        <time>2018-05-09T01:18:59Z</time>
      </trkpt>
      <trkpt lat="43.94224" lon="7.23806">
        <ele>1307</ele>
        <time>2018-05-09T01:19:59Z</time>
      </trkpt>
      <trkpt lat="43.94221" lon="7.23816">
        <ele>1308</ele>
        <time>2018-05-09T01:20:59Z</time>
      </trkpt>
      <trkpt lat="43.94219" lon="7.23825">
        <ele>1310</ele>
        <time>2018-05-09T01:21:59Z</time>
      </trkpt>
      <trkpt lat="43.94215" lon="7.23835">
        <ele>1311</ele>
        <time>2018-05-09T01:22:59Z</time>
      </trkpt>
      <trkpt lat="43.94205" lon="7.23852">
        <ele>1315</ele>
        <time>2018-05-09T01:23:59Z</time>
      </trkpt>
      <trkpt lat="43.94199" lon="7.2386">
        <ele>1317</ele>
        <time>2018-05-09T01:24:59Z</time>
      </trkpt>
      <trkpt lat="43.94193" lon="7.23863">
        <ele>1317</ele>
        <time>2018-05-09T01:25:59Z</time>
      </trkpt>
      <trkpt lat="43.94186" lon="7.23865">
        <ele>1316</ele>
        <time>2018-05-09T01:26:59Z</time>
      </trkpt>
      <trkpt lat="43.94179" lon="7.23865">
        <ele>1315</ele>
        <time>2018-05-09T01:27:59Z</time>
      </trkpt>
      <trkpt lat="43.94164" lon="7.23869">
        <ele>1314</ele>
        <time>2018-05-09T01:28:59Z</time>
      </trkpt>
      <trkpt lat="43.94148" lon="7.23867">
        <ele>1307</ele>
        <time>2018-05-09T01:29:59Z</time>
      </trkpt>
      <trkpt lat="43.9413" lon="7.23862">
        <ele>1298</ele>
        <time>2018-05-09T01:30:59Z</time>
      </trkpt>
      <trkpt lat="43.94111" lon="7.23854">
        <ele>1288</ele>
        <time>2018-05-09T01:31:59Z</time>
      </trkpt>
      <trkpt lat="43.94095" lon="7.23846">
        <ele>1279</ele>
        <time>2018-05-09T01:32:59Z</time>
      </trkpt>
      <trkpt lat="43.94082" lon="7.23841">
        <ele>1273</ele>
        <time>2018-05-09T01:33:59Z</time>
      </trkpt>
      <trkpt lat="43.94076" lon="7.23853">
        <ele>1273</ele>
        <time>2018-05-09T01:34:59Z</time>
      </trkpt>
      <trkpt lat="43.94074" lon="7.23861">
        <ele>1274</ele>
        <time>2018-05-09T01:35:59Z</time>
      </trkpt>
      <trkpt lat="43.94075" lon="7.23869">
        <ele>1278</ele>
        <time>2018-05-09T01:36:59Z</time>
      </trkpt>
      <trkpt lat="43.94076" lon="7.23878">
        <ele>1282</ele>
        <time>2018-05-09T01:37:59Z</time>
      </trkpt>
      <trkpt lat="43.94074" lon="7.23897">
        <ele>1287</ele>
        <time>2018-05-09T01:38:59Z</time>
      </trkpt>
      <trkpt lat="43.94073" lon="7.23905">
        <ele>1289</ele>
        <time>2018-05-09T01:39:59Z</time>
      </trkpt>
      <trkpt lat="43.94065" lon="7.23919">
        <ele>1290</ele>
        <time>2018-05-09T01:40:59Z</time>
      </trkpt>
      <trkpt lat="43.94054" lon="7.23932">
        <ele>1292</ele>
        <time>2018-05-09T01:41:59Z</time>
      </trkpt>
      <trkpt lat="43.94047" lon="7.23939">
        <ele>1292</ele>
        <time>2018-05-09T01:42:59Z</time>
      </trkpt>
      <trkpt lat="43.94042" lon="7.23946">
        <ele>1294</ele>
        <time>2018-05-09T01:43:59Z</time>
      </trkpt>
      <trkpt lat="43.94037" lon="7.23952">
        <ele>1296</ele>
        <time>2018-05-09T01:44:59Z</time>
      </trkpt>
      <trkpt lat="43.94024" lon="7.23955">
        <ele>1292</ele>
        <time>2018-05-09T01:45:59Z</time>
      </trkpt>
      <trkpt lat="43.93994" lon="7.2395">
        <ele>1278</ele>
        <time>2018-05-09T01:46:59Z</time>
      </trkpt>
      <trkpt lat="43.93988" lon="7.2395">
        <ele>1276</ele>
        <time>2018-05-09T01:47:59Z</time>
      </trkpt>
      <trkpt lat="43.93982" lon="7.23952">
        <ele>1276</ele>
        <time>2018-05-09T01:48:59Z</time>
      </trkpt>
      <trkpt lat="43.93971" lon="7.2396">
        <ele>1280</ele>
        <time>2018-05-09T01:49:59Z</time>
      </trkpt>
      <trkpt lat="43.93965" lon="7.23964">
        <ele>1281</ele>
        <time>2018-05-09T01:50:59Z</time>
      </trkpt>
      <trkpt lat="43.9394" lon="7.23974">
        <ele>1284</ele>
        <time>2018-05-09T01:51:59Z</time>
      </trkpt>
      <trkpt lat="43.93926" lon="7.23979">
        <ele>1285</ele>
        <time>2018-05-09T01:52:59Z</time>
      </trkpt>
      <trkpt lat="43.93908" lon="7.2399">
        <ele>1288</ele>
        <time>2018-05-09T01:53:59Z</time>
      </trkpt>
      <trkpt lat="43.93896" lon="7.23997">
        <ele>1288</ele>
        <time>2018-05-09T01:54:59Z</time>
      </trkpt>
      <trkpt lat="43.93886" lon="7.24002">
        <ele>1286</ele>
        <time>2018-05-09T01:55:59Z</time>
      </trkpt>
      <trkpt lat="43.93869" lon="7.24003">
        <ele>1277</ele>
        <time>2018-05-09T01:56:59Z</time>
      </trkpt>
      <trkpt lat="43.9385" lon="7.23988">
        <ele>1257</ele>
        <time>2018-05-09T01:57:59Z</time>
      </trkpt>
      <trkpt lat="43.93841" lon="7.23994">
        <ele>1256</ele>
        <time>2018-05-09T01:58:59Z</time>
      </trkpt>
      <trkpt lat="43.93836" lon="7.23997">
        <ele>1255</ele>
        <time>2018-05-09T01:59:59Z</time>
      </trkpt>
      <trkpt lat="43.93825" lon="7.23996">
        <ele>1248</ele>
        <time>2018-05-09T02:00:59Z</time>
      </trkpt>
      <trkpt lat="43.93815" lon="7.23989">
        <ele>1237</ele>
        <time>2018-05-09T02:01:59Z</time>
      </trkpt>
      <trkpt lat="43.93809" lon="7.23987">
        <ele>1232</ele>
        <time>2018-05-09T02:02:59Z</time>
      </trkpt>
      <trkpt lat="43.938" lon="7.23994">
        <ele>1230</ele>
        <time>2018-05-09T02:03:59Z</time>
      </trkpt>
      <trkpt lat="43.93795" lon="7.23999">
        <ele>1229</ele>
        <time>2018-05-09T02:04:59Z</time>
      </trkpt>
      <trkpt lat="43.93789" lon="7.24011">
        <ele>1226</ele>
        <time>2018-05-09T02:05:59Z</time>
      </trkpt>
      <trkpt lat="43.93788" lon="7.24023">
        <ele>1226</ele>
        <time>2018-05-09T02:06:59Z</time>
      </trkpt>
      <trkpt lat="43.93789" lon="7.24029">
        <ele>1227</ele>
        <time>2018-05-09T02:07:59Z</time>
      </trkpt>
      <trkpt lat="43.93786" lon="7.24042">
        <ele>1225</ele>
        <time>2018-05-09T02:08:59Z</time>
      </trkpt>
      <trkpt lat="43.93783" lon="7.24049">
        <ele>1222</ele>
        <time>2018-05-09T02:09:59Z</time>
      </trkpt>
      <trkpt lat="43.93781" lon="7.24055">
        <ele>1221</ele>
        <time>2018-05-09T02:10:59Z</time>
      </trkpt>
      <trkpt lat="43.93783" lon="7.24061">
        <ele>1223</ele>
        <time>2018-05-09T02:11:59Z</time>
      </trkpt>
      <trkpt lat="43.93792" lon="7.24072">
        <ele>1232</ele>
        <time>2018-05-09T02:12:59Z</time>
      </trkpt>
      <trkpt lat="43.93795" lon="7.2408">
        <ele>1235</ele>
        <time>2018-05-09T02:13:59Z</time>
      </trkpt>
      <trkpt lat="43.93797" lon="7.24088">
        <ele>1238</ele>
        <time>2018-05-09T02:14:59Z</time>
      </trkpt>
      <trkpt lat="43.93799" lon="7.24122">
        <ele>1244</ele>
        <time>2018-05-09T02:15:59Z</time>
      </trkpt>
      <trkpt lat="43.93801" lon="7.24139">
        <ele>1248</ele>
        <time>2018-05-09T02:16:59Z</time>
      </trkpt>
      <trkpt lat="43.938" lon="7.24147">
        <ele>1248</ele>
        <time>2018-05-09T02:17:59Z</time>
      </trkpt>
      <trkpt lat="43.93796" lon="7.24156">
        <ele>1245</ele>
        <time>2018-05-09T02:18:59Z</time>
      </trkpt>
      <trkpt lat="43.93788" lon="7.24171">
        <ele>1240</ele>
        <time>2018-05-09T02:19:59Z</time>
      </trkpt>
      <trkpt lat="43.93785" lon="7.24178">
        <ele>1240</ele>
        <time>2018-05-09T02:20:59Z</time>
      </trkpt>
      <trkpt lat="43.93783" lon="7.24187">
        <ele>1241</ele>
        <time>2018-05-09T02:21:59Z</time>
      </trkpt>
      <trkpt lat="43.93781" lon="7.24196">
        <ele>1243</ele>
        <time>2018-05-09T02:22:59Z</time>
      </trkpt>
      <trkpt lat="43.93777" lon="7.24204">
        <ele>1243</ele>
        <time>2018-05-09T02:23:59Z</time>
      </trkpt>
      <trkpt lat="43.93768" lon="7.24218">
        <ele>1241</ele>
        <time>2018-05-09T02:24:59Z</time>
      </trkpt>
      <trkpt lat="43.93763" lon="7.24225">
        <ele>1240</ele>
        <time>2018-05-09T02:25:59Z</time>
      </trkpt>
      <trkpt lat="43.93757" lon="7.24232">
        <ele>1238</ele>
        <time>2018-05-09T02:26:59Z</time>
      </trkpt>
      <trkpt lat="43.93745" lon="7.24241">
        <ele>1234</ele>
        <time>2018-05-09T02:27:59Z</time>
      </trkpt>
      <trkpt lat="43.93731" lon="7.24241">
        <ele>1225</ele>
        <time>2018-05-09T02:28:59Z</time>
      </trkpt>
      <trkpt lat="43.93724" lon="7.24243">
        <ele>1222</ele>
        <time>2018-05-09T02:29:59Z</time>
      </trkpt>
      <trkpt lat="43.93712" lon="7.24252">
        <ele>1219</ele>
        <time>2018-05-09T02:30:59Z</time>
      </trkpt>
      <trkpt lat="43.93707" lon="7.24259">
        <ele>1220</ele>
        <time>2018-05-09T02:31:59Z</time>
      </trkpt>
      <trkpt lat="43.93701" lon="7.24274">
        <ele>1227</ele>
        <time>2018-05-09T02:32:59Z</time>
      </trkpt>
      <trkpt lat="43.93696" lon="7.24281">
        <ele>1229</ele>
        <time>2018-05-09T02:33:59Z</time>
      </trkpt>
      <trkpt lat="43.93691" lon="7.24286">
        <ele>1230</ele>
        <time>2018-05-09T02:34:59Z</time>
      </trkpt>
      <trkpt lat="43.93679" lon="7.24291">
        <ele>1227</ele>
        <time>2018-05-09T02:35:59Z</time>
      </trkpt>
      <trkpt lat="43.93674" lon="7.24296">
        <ele>1229</ele>
        <time>2018-05-09T02:36:59Z</time>
      </trkpt>
      <trkpt lat="43.93661" lon="7.24316">
        <ele>1238</ele>
        <time>2018-05-09T02:37:59Z</time>
      </trkpt>
      <trkpt lat="43.93645" lon="7.2433">
        <ele>1241</ele>
        <time>2018-05-09T02:38:59Z</time>
      </trkpt>
      <trkpt lat="43.93627" lon="7.24339">
        <ele>1237</ele>
        <time>2018-05-09T02:39:59Z</time>
      </trkpt>
      <trkpt lat="43.93618" lon="7.24343">
        <ele>1235</ele>
        <time>2018-05-09T02:40:59Z</time>
      </trkpt>
      <trkpt lat="43.93599" lon="7.24344">
        <ele>1225</ele>
        <time>2018-05-09T02:41:59Z</time>
      </trkpt>
      <trkpt lat="43.93582" lon="7.24339">
        <ele>1213</ele>
        <time>2018-05-09T02:42:59Z</time>
      </trkpt>
      <trkpt lat="43.9356" lon="7.24359">
        <ele>1222</ele>
        <time>2018-05-09T02:43:59Z</time>
      </trkpt>
      <trkpt lat="43.93555" lon="7.24359">
        <ele>1221</ele>
        <time>2018-05-09T02:44:59Z</time>
      </trkpt>
      <trkpt lat="43.9355" lon="7.24358">
        <ele>1219</ele>
        <time>2018-05-09T02:45:59Z</time>
      </trkpt>
      <trkpt lat="43.93539" lon="7.24354">
        <ele>1214</ele>
        <time>2018-05-09T02:46:59Z</time>
      </trkpt>
      <trkpt lat="43.93533" lon="7.24352">
        <ele>1212</ele>
        <time>2018-05-09T02:47:59Z</time>
      </trkpt>
      <trkpt lat="43.93509" lon="7.24351">
        <ele>1207</ele>
        <time>2018-05-09T02:48:59Z</time>
      </trkpt>
      <trkpt lat="43.93497" lon="7.24346">
        <ele>1204</ele>
        <time>2018-05-09T02:49:59Z</time>
      </trkpt>
      <trkpt lat="43.93476" lon="7.24331">
        <ele>1201</ele>
        <time>2018-05-09T02:50:59Z</time>
      </trkpt>
      <trkpt lat="43.93441" lon="7.24305">
        <ele>1195</ele>
        <time>2018-05-09T02:51:59Z</time>
      </trkpt>
      <trkpt lat="43.93425" lon="7.24305">
        <ele>1196</ele>
        <time>2018-05-09T02:52:59Z</time>
      </trkpt>
      <trkpt lat="43.93406" lon="7.24324">
        <ele>1199</ele>
        <time>2018-05-09T02:53:59Z</time>
      </trkpt>
      <trkpt lat="43.93399" lon="7.24329">
        <ele>1200</ele>
        <time>2018-05-09T02:54:59Z</time>
      </trkpt>
      <trkpt lat="43.9338" lon="7.24343">
        <ele>1197</ele>
        <time>2018-05-09T02:55:59Z</time>
      </trkpt>
      <trkpt lat="43.93361" lon="7.24361">
        <ele>1191</ele>
        <time>2018-05-09T02:56:59Z</time>
      </trkpt>
      <trkpt lat="43.93353" lon="7.24369">
        <ele>1188</ele>
        <time>2018-05-09T02:57:59Z</time>
      </trkpt>
      <trkpt lat="43.93348" lon="7.24371">
        <ele>1187</ele>
        <time>2018-05-09T02:58:59Z</time>
      </trkpt>
      <trkpt lat="43.93343" lon="7.24373">
        <ele>1186</ele>
        <time>2018-05-09T02:59:59Z</time>
      </trkpt>
      <trkpt lat="43.93338" lon="7.24373">
        <ele>1186</ele>
        <time>2018-05-09T03:00:59Z</time>
      </trkpt>
      <trkpt lat="43.93331" lon="7.24372">
        <ele>1185</ele>
        <time>2018-05-09T03:01:59Z</time>
      </trkpt>
      <trkpt lat="43.93312" lon="7.24385">
        <ele>1181</ele>
        <time>2018-05-09T03:02:59Z</time>
      </trkpt>
      <trkpt lat="43.93309" lon="7.24387">
        <ele>1180</ele>
        <time>2018-05-09T03:03:59Z</time>
      </trkpt>
      <trkpt lat="43.93306" lon="7.24388">
        <ele>1180</ele>
        <time>2018-05-09T03:04:59Z</time>
      </trkpt>
      <trkpt lat="43.93302" lon="7.24389">
        <ele>1179</ele>
        <time>2018-05-09T03:05:59Z</time>
      </trkpt>
      <trkpt lat="43.93291" lon="7.24392">
        <ele>1178</ele>
        <time>2018-05-09T03:06:59Z</time>
      </trkpt>
      <trkpt lat="43.93287" lon="7.24393">
        <ele>1178</ele>
        <time>2018-05-09T03:07:59Z</time>
      </trkpt>
      <trkpt lat="43.9328" lon="7.24396">
        <ele>1178</ele>
        <time>2018-05-09T03:08:59Z</time>
      </trkpt>
      <trkpt lat="43.93274" lon="7.244">
        <ele>1177</ele>
        <time>2018-05-09T03:09:59Z</time>
      </trkpt>
      <trkpt lat="43.93272" lon="7.24403">
        <ele>1177</ele>
        <time>2018-05-09T03:10:59Z</time>
      </trkpt>
      <trkpt lat="43.93268" lon="7.24408">
        <ele>1176</ele>
        <time>2018-05-09T03:11:59Z</time>
      </trkpt>
      <trkpt lat="43.93257" lon="7.24418">
        <ele>1175</ele>
        <time>2018-05-09T03:12:59Z</time>
      </trkpt>
      <trkpt lat="43.93254" lon="7.24421">
        <ele>1174</ele>
        <time>2018-05-09T03:13:59Z</time>
      </trkpt>
      <trkpt lat="43.93244" lon="7.24432">
        <ele>1170</ele>
        <time>2018-05-09T03:14:59Z</time>
      </trkpt>
      <trkpt lat="43.93241" lon="7.24436">
        <ele>1169</ele>
        <time>2018-05-09T03:15:59Z</time>
      </trkpt>
      <trkpt lat="43.93221" lon="7.24452">
        <ele>1166</ele>
        <time>2018-05-09T03:16:59Z</time>
      </trkpt>
      <trkpt lat="43.93217" lon="7.24456">
        <ele>1166</ele>
        <time>2018-05-09T03:17:59Z</time>
      </trkpt>
      <trkpt lat="43.93213" lon="7.24461">
        <ele>1164</ele>
        <time>2018-05-09T03:18:59Z</time>
      </trkpt>
      <trkpt lat="43.93206" lon="7.24475">
        <ele>1160</ele>
        <time>2018-05-09T03:19:59Z</time>
      </trkpt>
      <trkpt lat="43.93201" lon="7.24483">
        <ele>1158</ele>
        <time>2018-05-09T03:20:59Z</time>
      </trkpt>
      <trkpt lat="43.93181" lon="7.24511">
        <ele>1151</ele>
        <time>2018-05-09T03:21:59Z</time>
      </trkpt>
      <trkpt lat="43.93178" lon="7.24515">
        <ele>1149</ele>
        <time>2018-05-09T03:22:59Z</time>
      </trkpt>
      <trkpt lat="43.93169" lon="7.24527">
        <ele>1145</ele>
        <time>2018-05-09T03:23:59Z</time>
      </trkpt>
      <trkpt lat="43.93166" lon="7.24531">
        <ele>1143</ele>
        <time>2018-05-09T03:24:59Z</time>
      </trkpt>
      <trkpt lat="43.93154" lon="7.24542">
        <ele>1136</ele>
        <time>2018-05-09T03:25:59Z</time>
      </trkpt>
      <trkpt lat="43.93152" lon="7.24543">
        <ele>1135</ele>
        <time>2018-05-09T03:26:59Z</time>
      </trkpt>
      <trkpt lat="43.93145" lon="7.24544">
        <ele>1134</ele>
        <time>2018-05-09T03:27:59Z</time>
      </trkpt>
      <trkpt lat="43.9314" lon="7.24542">
        <ele>1134</ele>
        <time>2018-05-09T03:28:59Z</time>
      </trkpt>
      <trkpt lat="43.93127" lon="7.24531">
        <ele>1138</ele>
        <time>2018-05-09T03:29:59Z</time>
      </trkpt>
      <trkpt lat="43.93124" lon="7.24527">
        <ele>1140</ele>
        <time>2018-05-09T03:30:59Z</time>
      </trkpt>
      <trkpt lat="43.9312" lon="7.24522">
        <ele>1142</ele>
        <time>2018-05-09T03:31:59Z</time>
      </trkpt>
      <trkpt lat="43.93119" lon="7.2452">
        <ele>1143</ele>
        <time>2018-05-09T03:32:59Z</time>
      </trkpt>
      <trkpt lat="43.93109" lon="7.24522">
        <ele>1140</ele>
        <time>2018-05-09T03:33:59Z</time>
      </trkpt>
      <trkpt lat="43.93102" lon="7.24521">
        <ele>1140</ele>
        <time>2018-05-09T03:34:59Z</time>
      </trkpt>
      <trkpt lat="43.93091" lon="7.24524">
        <ele>1137</ele>
        <time>2018-05-09T03:35:59Z</time>
      </trkpt>
      <trkpt lat="43.93081" lon="7.24525">
        <ele>1134</ele>
        <time>2018-05-09T03:36:59Z</time>
      </trkpt>
      <trkpt lat="43.93074" lon="7.24527">
        <ele>1131</ele>
        <time>2018-05-09T03:37:59Z</time>
      </trkpt>
      <trkpt lat="43.93071" lon="7.24527">
        <ele>1131</ele>
        <time>2018-05-09T03:38:59Z</time>
      </trkpt>
      <trkpt lat="43.93066" lon="7.24522">
        <ele>1132</ele>
        <time>2018-05-09T03:39:59Z</time>
      </trkpt>
      <trkpt lat="43.93055" lon="7.24507">
        <ele>1136</ele>
        <time>2018-05-09T03:40:59Z</time>
      </trkpt>
      <trkpt lat="43.93051" lon="7.24503">
        <ele>1137</ele>
        <time>2018-05-09T03:41:59Z</time>
      </trkpt>
      <trkpt lat="43.93037" lon="7.24497">
        <ele>1135</ele>
        <time>2018-05-09T03:42:59Z</time>
      </trkpt>
      <trkpt lat="43.93027" lon="7.24494">
        <ele>1134</ele>
        <time>2018-05-09T03:43:59Z</time>
      </trkpt>
      <trkpt lat="43.93022" lon="7.24494">
        <ele>1133</ele>
        <time>2018-05-09T03:44:59Z</time>
      </trkpt>
      <trkpt lat="43.93017" lon="7.24497">
        <ele>1130</ele>
        <time>2018-05-09T03:45:59Z</time>
      </trkpt>
      <trkpt lat="43.93008" lon="7.24504">
        <ele>1124</ele>
        <time>2018-05-09T03:46:59Z</time>
      </trkpt>
      <trkpt lat="43.93001" lon="7.24509">
        <ele>1120</ele>
        <time>2018-05-09T03:47:59Z</time>
      </trkpt>
      <trkpt lat="43.92998" lon="7.24509">
        <ele>1119</ele>
        <time>2018-05-09T03:48:59Z</time>
      </trkpt>
      <trkpt lat="43.92995" lon="7.24509">
        <ele>1119</ele>
        <time>2018-05-09T03:49:59Z</time>
      </trkpt>
      <trkpt lat="43.92993" lon="7.24507">
        <ele>1119</ele>
        <time>2018-05-09T03:50:59Z</time>
      </trkpt>
      <trkpt lat="43.92986" lon="7.24503">
        <ele>1120</ele>
        <time>2018-05-09T03:51:59Z</time>
      </trkpt>
      <trkpt lat="43.92982" lon="7.24501">
        <ele>1120</ele>
        <time>2018-05-09T03:52:59Z</time>
      </trkpt>
      <trkpt lat="43.92966" lon="7.24498">
        <ele>1119</ele>
        <time>2018-05-09T03:53:59Z</time>
      </trkpt>
      <trkpt lat="43.92958" lon="7.24496">
        <ele>1118</ele>
        <time>2018-05-09T03:54:59Z</time>
      </trkpt>
      <trkpt lat="43.92955" lon="7.24494">
        <ele>1118</ele>
        <time>2018-05-09T03:55:59Z</time>
      </trkpt>
      <trkpt lat="43.92948" lon="7.24487">
        <ele>1120</ele>
        <time>2018-05-09T03:56:59Z</time>
      </trkpt>
      <trkpt lat="43.92944" lon="7.24485">
        <ele>1119</ele>
        <time>2018-05-09T03:57:59Z</time>
      </trkpt>
      <trkpt lat="43.92939" lon="7.24487">
        <ele>1118</ele>
        <time>2018-05-09T03:58:59Z</time>
      </trkpt>
      <trkpt lat="43.92935" lon="7.24488">
        <ele>1117</ele>
        <time>2018-05-09T03:59:59Z</time>
      </trkpt>
      <trkpt lat="43.92929" lon="7.24494">
        <ele>1113</ele>
        <time>2018-05-09T04:00:59Z</time>
      </trkpt>
      <trkpt lat="43.92926" lon="7.24496">
        <ele>1112</ele>
        <time>2018-05-09T04:01:59Z</time>
      </trkpt>
      <trkpt lat="43.92906" lon="7.24495">
        <ele>1110</ele>
        <time>2018-05-09T04:02:59Z</time>
      </trkpt>
      <trkpt lat="43.92898" lon="7.24494">
        <ele>1110</ele>
        <time>2018-05-09T04:03:59Z</time>
      </trkpt>
      <trkpt lat="43.92894" lon="7.24493">
        <ele>1110</ele>
        <time>2018-05-09T04:04:59Z</time>
      </trkpt>
      <trkpt lat="43.92892" lon="7.24491">
        <ele>1110</ele>
        <time>2018-05-09T04:05:59Z</time>
      </trkpt>
      <trkpt lat="43.92887" lon="7.24498">
        <ele>1107</ele>
        <time>2018-05-09T04:06:59Z</time>
      </trkpt>
      <trkpt lat="43.92884" lon="7.24503">
        <ele>1105</ele>
        <time>2018-05-09T04:07:59Z</time>
      </trkpt>
      <trkpt lat="43.92871" lon="7.24507">
        <ele>1102</ele>
        <time>2018-05-09T04:08:59Z</time>
      </trkpt>
      <trkpt lat="43.92866" lon="7.24508">
        <ele>1101</ele>
        <time>2018-05-09T04:09:59Z</time>
      </trkpt>
      <trkpt lat="43.92861" lon="7.24513">
        <ele>1098</ele>
        <time>2018-05-09T04:10:59Z</time>
      </trkpt>
      <trkpt lat="43.92851" lon="7.24526">
        <ele>1091</ele>
        <time>2018-05-09T04:11:59Z</time>
      </trkpt>
      <trkpt lat="43.92849" lon="7.24528">
        <ele>1090</ele>
        <time>2018-05-09T04:12:59Z</time>
      </trkpt>
      <trkpt lat="43.92843" lon="7.24527">
        <ele>1090</ele>
        <time>2018-05-09T04:13:59Z</time>
      </trkpt>
      <trkpt lat="43.92841" lon="7.24525">
        <ele>1091</ele>
        <time>2018-05-09T04:14:59Z</time>
      </trkpt>
      <trkpt lat="43.92835" lon="7.24515">
        <ele>1095</ele>
        <time>2018-05-09T04:15:59Z</time>
      </trkpt>
      <trkpt lat="43.92832" lon="7.24511">
        <ele>1097</ele>
        <time>2018-05-09T04:16:59Z</time>
      </trkpt>
      <trkpt lat="43.92828" lon="7.24508">
        <ele>1098</ele>
        <time>2018-05-09T04:17:59Z</time>
      </trkpt>
      <trkpt lat="43.92818" lon="7.2451">
        <ele>1095</ele>
        <time>2018-05-09T04:18:59Z</time>
      </trkpt>
      <trkpt lat="43.92812" lon="7.24512">
        <ele>1093</ele>
        <time>2018-05-09T04:19:59Z</time>
      </trkpt>
      <trkpt lat="43.92785" lon="7.24523">
        <ele>1083</ele>
        <time>2018-05-09T04:20:59Z</time>
      </trkpt>
      <trkpt lat="43.92781" lon="7.24525">
        <ele>1081</ele>
        <time>2018-05-09T04:21:59Z</time>
      </trkpt>
      <trkpt lat="43.92767" lon="7.24523">
        <ele>1079</ele>
        <time>2018-05-09T04:22:59Z</time>
      </trkpt>
      <trkpt lat="43.92762" lon="7.24524">
        <ele>1078</ele>
        <time>2018-05-09T04:23:59Z</time>
      </trkpt>
      <trkpt lat="43.92755" lon="7.24527">
        <ele>1076</ele>
        <time>2018-05-09T04:24:59Z</time>
      </trkpt>
      <trkpt lat="43.92753" lon="7.24529">
        <ele>1074</ele>
        <time>2018-05-09T04:25:59Z</time>
      </trkpt>
      <trkpt lat="43.92752" lon="7.24536">
        <ele>1071</ele>
        <time>2018-05-09T04:26:59Z</time>
      </trkpt>
      <trkpt lat="43.92751" lon="7.24537">
        <ele>1070</ele>
        <time>2018-05-09T04:27:59Z</time>
      </trkpt>
      <trkpt lat="43.92748" lon="7.24534">
        <ele>1071</ele>
        <time>2018-05-09T04:28:59Z</time>
      </trkpt>
      <trkpt lat="43.92745" lon="7.24524">
        <ele>1075</ele>
        <time>2018-05-09T04:29:59Z</time>
      </trkpt>
      <trkpt lat="43.92744" lon="7.2452">
        <ele>1076</ele>
        <time>2018-05-09T04:30:59Z</time>
      </trkpt>
      <trkpt lat="43.92734" lon="7.24502">
        <ele>1082</ele>
        <time>2018-05-09T04:31:59Z</time>
      </trkpt>
      <trkpt lat="43.92729" lon="7.2449">
        <ele>1085</ele>
        <time>2018-05-09T04:32:59Z</time>
      </trkpt>
      <trkpt lat="43.92724" lon="7.24479">
        <ele>1087</ele>
        <time>2018-05-09T04:33:59Z</time>
      </trkpt>
      <trkpt lat="43.92722" lon="7.24463">
        <ele>1092</ele>
        <time>2018-05-09T04:34:59Z</time>
      </trkpt>
      <trkpt lat="43.92721" lon="7.24462">
        <ele>1092</ele>
        <time>2018-05-09T04:35:59Z</time>
      </trkpt>
      <trkpt lat="43.9272" lon="7.24461">
        <ele>1092</ele>
        <time>2018-05-09T04:36:59Z</time>
      </trkpt>
      <trkpt lat="43.92695" lon="7.24457">
        <ele>1090</ele>
        <time>2018-05-09T04:37:59Z</time>
      </trkpt>
      <trkpt lat="43.92693" lon="7.24458">
        <ele>1089</ele>
        <time>2018-05-09T04:38:59Z</time>
      </trkpt>
      <trkpt lat="43.92691" lon="7.24456">
        <ele>1089</ele>
        <time>2018-05-09T04:39:59Z</time>
      </trkpt>
      <trkpt lat="43.92686" lon="7.24454">
        <ele>1090</ele>
        <time>2018-05-09T04:40:59Z</time>
      </trkpt>
      <trkpt lat="43.9268" lon="7.24447">
        <ele>1092</ele>
        <time>2018-05-09T04:41:59Z</time>
      </trkpt>
      <trkpt lat="43.92667" lon="7.24441">
        <ele>1093</ele>
        <time>2018-05-09T04:42:59Z</time>
      </trkpt>
      <trkpt lat="43.92652" lon="7.24447">
        <ele>1084</ele>
        <time>2018-05-09T04:43:59Z</time>
      </trkpt>
      <trkpt lat="43.9263" lon="7.24452">
        <ele>1074</ele>
        <time>2018-05-09T04:44:59Z</time>
      </trkpt>
      <trkpt lat="43.92626" lon="7.24452">
        <ele>1072</ele>
        <time>2018-05-09T04:45:59Z</time>
      </trkpt>
      <trkpt lat="43.92618" lon="7.24454">
        <ele>1068</ele>
        <time>2018-05-09T04:46:59Z</time>
      </trkpt>
      <trkpt lat="43.92613" lon="7.2446">
        <ele>1063</ele>
        <time>2018-05-09T04:47:59Z</time>
      </trkpt>
      <trkpt lat="43.92606" lon="7.24461">
        <ele>1060</ele>
        <time>2018-05-09T04:48:59Z</time>
      </trkpt>
      <trkpt lat="43.92592" lon="7.24446">
        <ele>1061</ele>
        <time>2018-05-09T04:49:59Z</time>
      </trkpt>
      <trkpt lat="43.92591" lon="7.24442">
        <ele>1063</ele>
        <time>2018-05-09T04:50:59Z</time>
      </trkpt>
      <trkpt lat="43.92587" lon="7.24433">
        <ele>1065</ele>
        <time>2018-05-09T04:51:59Z</time>
      </trkpt>
      <trkpt lat="43.92585" lon="7.24424">
        <ele>1068</ele>
        <time>2018-05-09T04:52:59Z</time>
      </trkpt>
      <trkpt lat="43.92575" lon="7.24405">
        <ele>1072</ele>
        <time>2018-05-09T04:53:59Z</time>
      </trkpt>
      <trkpt lat="43.92573" lon="7.24403">
        <ele>1072</ele>
        <time>2018-05-09T04:54:59Z</time>
      </trkpt>
      <trkpt lat="43.9257" lon="7.24403">
        <ele>1072</ele>
        <time>2018-05-09T04:55:59Z</time>
      </trkpt>
      <trkpt lat="43.92566" lon="7.24404">
        <ele>1070</ele>
        <time>2018-05-09T04:56:59Z</time>
      </trkpt>
      <trkpt lat="43.9256" lon="7.24407">
        <ele>1068</ele>
        <time>2018-05-09T04:57:59Z</time>
      </trkpt>
      <trkpt lat="43.92556" lon="7.24409">
        <ele>1066</ele>
        <time>2018-05-09T04:58:59Z</time>
      </trkpt>
      <trkpt lat="43.92552" lon="7.2441">
        <ele>1064</ele>
        <time>2018-05-09T04:59:59Z</time>
      </trkpt>
      <trkpt lat="43.92548" lon="7.24411">
        <ele>1063</ele>
        <time>2018-05-09T05:00:59Z</time>
      </trkpt>
      <trkpt lat="43.92544" lon="7.24413">
        <ele>1061</ele>
        <time>2018-05-09T05:01:59Z</time>
      </trkpt>
      <trkpt lat="43.92536" lon="7.24417">
        <ele>1057</ele>
        <time>2018-05-09T05:02:59Z</time>
      </trkpt>
      <trkpt lat="43.92531" lon="7.24418">
        <ele>1055</ele>
        <time>2018-05-09T05:03:59Z</time>
      </trkpt>
      <trkpt lat="43.92529" lon="7.24419">
        <ele>1054</ele>
        <time>2018-05-09T05:04:59Z</time>
      </trkpt>
      <trkpt lat="43.92528" lon="7.2442">
        <ele>1053</ele>
        <time>2018-05-09T05:05:59Z</time>
      </trkpt>
      <trkpt lat="43.92529" lon="7.24422">
        <ele>1052</ele>
        <time>2018-05-09T05:06:59Z</time>
      </trkpt>
      <trkpt lat="43.92531" lon="7.24423">
        <ele>1052</ele>
        <time>2018-05-09T05:07:59Z</time>
      </trkpt>
      <trkpt lat="43.92537" lon="7.24427">
        <ele>1052</ele>
        <time>2018-05-09T05:08:59Z</time>
      </trkpt>
      <trkpt lat="43.92542" lon="7.24429">
        <ele>1053</ele>
        <time>2018-05-09T05:09:59Z</time>
      </trkpt>
      <trkpt lat="43.92548" lon="7.24437">
        <ele>1051</ele>
        <time>2018-05-09T05:10:59Z</time>
      </trkpt>
      <trkpt lat="43.92548" lon="7.24438">
        <ele>1051</ele>
        <time>2018-05-09T05:11:59Z</time>
      </trkpt>
      <trkpt lat="43.92537" lon="7.24439">
        <ele>1047</ele>
        <time>2018-05-09T05:12:59Z</time>
      </trkpt>
      <trkpt lat="43.92532" lon="7.2444">
        <ele>1045</ele>
        <time>2018-05-09T05:13:59Z</time>
      </trkpt>
      <trkpt lat="43.92525" lon="7.24443">
        <ele>1041</ele>
        <time>2018-05-09T05:14:59Z</time>
      </trkpt>
      <trkpt lat="43.92518" lon="7.24447">
        <ele>1037</ele>
        <time>2018-05-09T05:15:59Z</time>
      </trkpt>
      <trkpt lat="43.92511" lon="7.2445">
        <ele>1033</ele>
        <time>2018-05-09T05:16:59Z</time>
      </trkpt>
      <trkpt lat="43.92498" lon="7.2446">
        <ele>1025</ele>
        <time>2018-05-09T05:17:59Z</time>
      </trkpt>
      <trkpt lat="43.92494" lon="7.24463">
        <ele>1023</ele>
        <time>2018-05-09T05:18:59Z</time>
      </trkpt>
      <trkpt lat="43.92483" lon="7.24474">
        <ele>1017</ele>
        <time>2018-05-09T05:19:59Z</time>
      </trkpt>
      <trkpt lat="43.92481" lon="7.24475">
        <ele>1017</ele>
        <time>2018-05-09T05:20:59Z</time>
      </trkpt>
      <trkpt lat="43.92481" lon="7.24476">
        <ele>1016</ele>
        <time>2018-05-09T05:21:59Z</time>
      </trkpt>
      <trkpt lat="43.9248" lon="7.24478">
        <ele>1015</ele>
        <time>2018-05-09T05:22:59Z</time>
      </trkpt>
      <trkpt lat="43.92484" lon="7.24478">
        <ele>1016</ele>
        <time>2018-05-09T05:23:59Z</time>
      </trkpt>
      <trkpt lat="43.92485" lon="7.24481">
        <ele>1014</ele>
        <time>2018-05-09T05:24:59Z</time>
      </trkpt>
      <trkpt lat="43.9248" lon="7.24487">
        <ele>1011</ele>
        <time>2018-05-09T05:25:59Z</time>
      </trkpt>
      <trkpt lat="43.92476" lon="7.24491">
        <ele>1010</ele>
        <time>2018-05-09T05:26:59Z</time>
      </trkpt>
      <trkpt lat="43.92462" lon="7.24498">
        <ele>1006</ele>
        <time>2018-05-09T05:27:59Z</time>
      </trkpt>
      <trkpt lat="43.9246" lon="7.24499">
        <ele>1006</ele>
        <time>2018-05-09T05:28:59Z</time>
      </trkpt>
      <trkpt lat="43.9245" lon="7.24506">
        <ele>1002</ele>
        <time>2018-05-09T05:29:59Z</time>
      </trkpt>
      <trkpt lat="43.92448" lon="7.24508">
        <ele>1002</ele>
        <time>2018-05-09T05:30:59Z</time>
      </trkpt>
      <trkpt lat="43.9245" lon="7.2451">
        <ele>1001</ele>
        <time>2018-05-09T05:31:59Z</time>
      </trkpt>
      <trkpt lat="43.92455" lon="7.24512">
        <ele>1000</ele>
        <time>2018-05-09T05:32:59Z</time>
      </trkpt>
      <trkpt lat="43.92455" lon="7.24515">
        <ele>998</ele>
        <time>2018-05-09T05:33:59Z</time>
      </trkpt>
      <trkpt lat="43.92446" lon="7.24526">
        <ele>993</ele>
        <time>2018-05-09T05:34:59Z</time>
      </trkpt>
      <trkpt lat="43.92442" lon="7.24533">
        <ele>990</ele>
        <time>2018-05-09T05:35:59Z</time>
      </trkpt>
      <trkpt lat="43.92438" lon="7.24546">
        <ele>984</ele>
        <time>2018-05-09T05:36:59Z</time>
      </trkpt>
      <trkpt lat="43.92436" lon="7.24554">
        <ele>980</ele>
        <time>2018-05-09T05:37:59Z</time>
      </trkpt>
      <trkpt lat="43.92431" lon="7.24563">
        <ele>977</ele>
        <time>2018-05-09T05:38:59Z</time>
      </trkpt>
      <trkpt lat="43.92427" lon="7.24568">
        <ele>975</ele>
        <time>2018-05-09T05:39:59Z</time>
      </trkpt>
      <trkpt lat="43.92422" lon="7.24572">
        <ele>973</ele>
        <time>2018-05-09T05:40:59Z</time>
      </trkpt>
      <trkpt lat="43.92412" lon="7.24577">
        <ele>970</ele>
        <time>2018-05-09T05:41:59Z</time>
      </trkpt>
      <trkpt lat="43.92409" lon="7.24576">
        <ele>969</ele>
        <time>2018-05-09T05:42:59Z</time>
      </trkpt>
      <trkpt lat="43.92406" lon="7.24574">
        <ele>969</ele>
        <time>2018-05-09T05:43:59Z</time>
      </trkpt>
      <trkpt lat="43.92397" lon="7.24565">
        <ele>969</ele>
        <time>2018-05-09T05:44:59Z</time>
      </trkpt>
      <trkpt lat="43.92392" lon="7.24563">
        <ele>968</ele>
        <time>2018-05-09T05:45:59Z</time>
      </trkpt>
      <trkpt lat="43.92387" lon="7.24563">
        <ele>966</ele>
        <time>2018-05-09T05:46:59Z</time>
      </trkpt>
      <trkpt lat="43.92379" lon="7.24564">
        <ele>962</ele>
        <time>2018-05-09T05:47:59Z</time>
      </trkpt>
      <trkpt lat="43.92377" lon="7.24563">
        <ele>962</ele>
        <time>2018-05-09T05:48:59Z</time>
      </trkpt>
      <trkpt lat="43.92357" lon="7.24527">
        <ele>964</ele>
        <time>2018-05-09T05:49:59Z</time>
      </trkpt>
      <trkpt lat="43.92349" lon="7.24516">
        <ele>963</ele>
        <time>2018-05-09T05:50:59Z</time>
      </trkpt>
      <trkpt lat="43.92349" lon="7.24513">
        <ele>964</ele>
        <time>2018-05-09T05:51:59Z</time>
      </trkpt>
      <trkpt lat="43.92348" lon="7.24508">
        <ele>964</ele>
        <time>2018-05-09T05:52:59Z</time>
      </trkpt>
      <trkpt lat="43.92347" lon="7.24507">
        <ele>964</ele>
        <time>2018-05-09T05:53:59Z</time>
      </trkpt>
      <trkpt lat="43.92346" lon="7.24506">
        <ele>964</ele>
        <time>2018-05-09T05:54:59Z</time>
      </trkpt>
      <trkpt lat="43.92345" lon="7.24509">
        <ele>962</ele>
        <time>2018-05-09T05:55:59Z</time>
      </trkpt>
      <trkpt lat="43.92344" lon="7.2451">
        <ele>962</ele>
        <time>2018-05-09T05:56:59Z</time>
      </trkpt>
      <trkpt lat="43.92338" lon="7.24494">
        <ele>962</ele>
        <time>2018-05-09T05:57:59Z</time>
      </trkpt>
      <trkpt lat="43.92335" lon="7.24489">
        <ele>962</ele>
        <time>2018-05-09T05:58:59Z</time>
      </trkpt>
      <trkpt lat="43.92332" lon="7.24491">
        <ele>959</ele>
        <time>2018-05-09T05:59:59Z</time>
      </trkpt>
      <trkpt lat="43.92331" lon="7.24494">
        <ele>958</ele>
        <time>2018-05-09T06:00:59Z</time>
      </trkpt>
      <trkpt lat="43.9233" lon="7.24496">
        <ele>956</ele>
        <time>2018-05-09T06:01:59Z</time>
      </trkpt>
      <trkpt lat="43.92327" lon="7.24493">
        <ele>955</ele>
        <time>2018-05-09T06:02:59Z</time>
      </trkpt>
      <trkpt lat="43.92314" lon="7.24471">
        <ele>950</ele>
        <time>2018-05-09T06:03:59Z</time>
      </trkpt>
      <trkpt lat="43.92313" lon="7.24469">
        <ele>950</ele>
        <time>2018-05-09T06:04:59Z</time>
      </trkpt>
      <trkpt lat="43.92311" lon="7.24462">
        <ele>950</ele>
        <time>2018-05-09T06:05:59Z</time>
      </trkpt>
      <trkpt lat="43.9231" lon="7.24457">
        <ele>950</ele>
        <time>2018-05-09T06:06:59Z</time>
      </trkpt>
      <trkpt lat="43.92306" lon="7.24448">
        <ele>950</ele>
        <time>2018-05-09T06:07:59Z</time>
      </trkpt>
      <trkpt lat="43.92305" lon="7.24444">
        <ele>950</ele>
        <time>2018-05-09T06:08:59Z</time>
      </trkpt>
      <trkpt lat="43.92312" lon="7.24414">
        <ele>963</ele>
        <time>2018-05-09T06:09:59Z</time>
      </trkpt>
      <trkpt lat="43.92312" lon="7.24408">
        <ele>966</ele>
        <time>2018-05-09T06:10:59Z</time>
      </trkpt>
      <trkpt lat="43.92312" lon="7.24403">
        <ele>968</ele>
        <time>2018-05-09T06:11:59Z</time>
      </trkpt>
      <trkpt lat="43.92308" lon="7.24395">
        <ele>968</ele>
        <time>2018-05-09T06:12:59Z</time>
      </trkpt>
      <trkpt lat="43.92303" lon="7.24389">
        <ele>967</ele>
        <time>2018-05-09T06:13:59Z</time>
      </trkpt>
      <trkpt lat="43.92301" lon="7.24389">
        <ele>965</ele>
        <time>2018-05-09T06:14:59Z</time>
      </trkpt>
      <trkpt lat="43.92298" lon="7.24389">
        <ele>963</ele>
        <time>2018-05-09T06:15:59Z</time>
      </trkpt>
      <trkpt lat="43.92289" lon="7.24391">
        <ele>955</ele>
        <time>2018-05-09T06:16:59Z</time>
      </trkpt>
      <trkpt lat="43.92284" lon="7.24391">
        <ele>951</ele>
        <time>2018-05-09T06:17:59Z</time>
      </trkpt>
      <trkpt lat="43.92282" lon="7.2439">
        <ele>950</ele>
        <time>2018-05-09T06:18:59Z</time>
      </trkpt>
      <trkpt lat="43.92279" lon="7.24387">
        <ele>949</ele>
        <time>2018-05-09T06:19:59Z</time>
      </trkpt>
      <trkpt lat="43.92276" lon="7.24384">
        <ele>948</ele>
        <time>2018-05-09T06:20:59Z</time>
      </trkpt>
      <trkpt lat="43.92269" lon="7.24381">
        <ele>944</ele>
        <time>2018-05-09T06:21:59Z</time>
      </trkpt>
      <trkpt lat="43.92268" lon="7.2438">
        <ele>943</ele>
        <time>2018-05-09T06:22:59Z</time>
      </trkpt>
      <trkpt lat="43.92267" lon="7.2438">
        <ele>942</ele>
        <time>2018-05-09T06:23:59Z</time>
      </trkpt>
      <trkpt lat="43.92267" lon="7.24382">
        <ele>942</ele>
        <time>2018-05-09T06:24:59Z</time>
      </trkpt>
      <trkpt lat="43.92269" lon="7.24385">
        <ele>942</ele>
        <time>2018-05-09T06:25:59Z</time>
      </trkpt>
      <trkpt lat="43.92271" lon="7.24389">
        <ele>942</ele>
        <time>2018-05-09T06:26:59Z</time>
      </trkpt>
      <trkpt lat="43.92264" lon="7.24388">
        <ele>937</ele>
        <time>2018-05-09T06:27:59Z</time>
      </trkpt>
      <trkpt lat="43.92253" lon="7.24385">
        <ele>930</ele>
        <time>2018-05-09T06:28:59Z</time>
      </trkpt>
      <trkpt lat="43.92251" lon="7.24375">
        <ele>932</ele>
        <time>2018-05-09T06:29:59Z</time>
      </trkpt>
      <trkpt lat="43.92249" lon="7.24371">
        <ele>932</ele>
        <time>2018-05-09T06:30:59Z</time>
      </trkpt>
      <trkpt lat="43.92244" lon="7.24367">
        <ele>931</ele>
        <time>2018-05-09T06:31:59Z</time>
      </trkpt>
      <trkpt lat="43.92239" lon="7.24366">
        <ele>930</ele>
        <time>2018-05-09T06:32:59Z</time>
      </trkpt>
      <trkpt lat="43.92234" lon="7.24367">
        <ele>927</ele>
        <time>2018-05-09T06:33:59Z</time>
      </trkpt>
      <trkpt lat="43.92222" lon="7.24375">
        <ele>919</ele>
        <time>2018-05-09T06:34:59Z</time>
      </trkpt>
      <trkpt lat="43.92218" lon="7.24374">
        <ele>917</ele>
        <time>2018-05-09T06:35:59Z</time>
      </trkpt>
      <trkpt lat="43.92197" lon="7.24347">
        <ele>923</ele>
        <time>2018-05-09T06:36:59Z</time>
      </trkpt>
      <trkpt lat="43.9219" lon="7.24337">
        <ele>926</ele>
        <time>2018-05-09T06:37:59Z</time>
      </trkpt>
      <trkpt lat="43.92187" lon="7.24334">
        <ele>927</ele>
        <time>2018-05-09T06:38:59Z</time>
      </trkpt>
      <trkpt lat="43.92184" lon="7.24332">
        <ele>927</ele>
        <time>2018-05-09T06:39:59Z</time>
      </trkpt>
      <trkpt lat="43.92177" lon="7.24331">
        <ele>925</ele>
        <time>2018-05-09T06:40:59Z</time>
      </trkpt>
      <trkpt lat="43.92172" lon="7.24331">
        <ele>923</ele>
        <time>2018-05-09T06:41:59Z</time>
      </trkpt>
      <trkpt lat="43.92166" lon="7.24333">
        <ele>921</ele>
        <time>2018-05-09T06:42:59Z</time>
      </trkpt>
      <trkpt lat="43.92159" lon="7.2434">
        <ele>913</ele>
        <time>2018-05-09T06:43:59Z</time>
      </trkpt>
      <trkpt lat="43.92155" lon="7.24346">
        <ele>908</ele>
        <time>2018-05-09T06:44:59Z</time>
      </trkpt>
      <trkpt lat="43.92147" lon="7.24355">
        <ele>899</ele>
        <time>2018-05-09T06:45:59Z</time>
      </trkpt>
      <trkpt lat="43.92144" lon="7.24358">
        <ele>897</ele>
        <time>2018-05-09T06:46:59Z</time>
      </trkpt>
      <trkpt lat="43.92139" lon="7.24362">
        <ele>892</ele>
        <time>2018-05-09T06:47:59Z</time>
      </trkpt>
      <trkpt lat="43.92136" lon="7.24368">
        <ele>888</ele>
        <time>2018-05-09T06:48:59Z</time>
      </trkpt>
      <trkpt lat="43.92135" lon="7.24373">
        <ele>885</ele>
        <time>2018-05-09T06:49:59Z</time>
      </trkpt>
      <trkpt lat="43.92132" lon="7.24377">
        <ele>882</ele>
        <time>2018-05-09T06:50:59Z</time>
      </trkpt>
      <trkpt lat="43.92129" lon="7.2438">
        <ele>879</ele>
        <time>2018-05-09T06:51:59Z</time>
      </trkpt>
      <trkpt lat="43.92126" lon="7.24382">
        <ele>877</ele>
        <time>2018-05-09T06:52:59Z</time>
      </trkpt>
      <trkpt lat="43.92123" lon="7.24382">
        <ele>876</ele>
        <time>2018-05-09T06:53:59Z</time>
      </trkpt>
      <trkpt lat="43.9211" lon="7.24378">
        <ele>874</ele>
        <time>2018-05-09T06:54:59Z</time>
      </trkpt>
      <trkpt lat="43.92106" lon="7.24377">
        <ele>873</ele>
        <time>2018-05-09T06:55:59Z</time>
      </trkpt>
      <trkpt lat="43.92103" lon="7.24378">
        <ele>872</ele>
        <time>2018-05-09T06:56:59Z</time>
      </trkpt>
      <trkpt lat="43.92101" lon="7.24382">
        <ele>869</ele>
        <time>2018-05-09T06:57:59Z</time>
      </trkpt>
      <trkpt lat="43.92099" lon="7.24383">
        <ele>868</ele>
        <time>2018-05-09T06:58:59Z</time>
      </trkpt>
      <trkpt lat="43.92094" lon="7.24384">
        <ele>866</ele>
        <time>2018-05-09T06:59:59Z</time>
      </trkpt>
      <trkpt lat="43.92091" lon="7.24385">
        <ele>865</ele>
        <time>2018-05-09T07:00:59Z</time>
      </trkpt>
      <trkpt lat="43.92087" lon="7.24384">
        <ele>864</ele>
        <time>2018-05-09T07:01:59Z</time>
      </trkpt>
      <trkpt lat="43.92084" lon="7.24382">
        <ele>864</ele>
        <time>2018-05-09T07:02:59Z</time>
      </trkpt>
      <trkpt lat="43.92077" lon="7.24376">
        <ele>864</ele>
        <time>2018-05-09T07:03:59Z</time>
      </trkpt>
      <trkpt lat="43.92073" lon="7.24372">
        <ele>864</ele>
        <time>2018-05-09T07:04:59Z</time>
      </trkpt>
      <trkpt lat="43.92068" lon="7.2437">
        <ele>863</ele>
        <time>2018-05-09T07:05:59Z</time>
      </trkpt>
      <trkpt lat="43.92067" lon="7.24371">
        <ele>862</ele>
        <time>2018-05-09T07:06:59Z</time>
      </trkpt>
      <trkpt lat="43.92065" lon="7.24374">
        <ele>861</ele>
        <time>2018-05-09T07:07:59Z</time>
      </trkpt>
      <trkpt lat="43.92063" lon="7.24376">
        <ele>859</ele>
        <time>2018-05-09T07:08:59Z</time>
      </trkpt>
      <trkpt lat="43.92063" lon="7.24385">
        <ele>856</ele>
        <time>2018-05-09T07:09:59Z</time>
      </trkpt>
      <trkpt lat="43.92063" lon="7.24387">
        <ele>856</ele>
        <time>2018-05-09T07:10:59Z</time>
      </trkpt>
      <trkpt lat="43.92064" lon="7.24389">
        <ele>855</ele>
        <time>2018-05-09T07:11:59Z</time>
      </trkpt>
      <trkpt lat="43.92065" lon="7.24395">
        <ele>853</ele>
        <time>2018-05-09T07:12:59Z</time>
      </trkpt>
      <trkpt lat="43.92069" lon="7.24403">
        <ele>852</ele>
        <time>2018-05-09T07:13:59Z</time>
      </trkpt>
      <trkpt lat="43.92069" lon="7.24406">
        <ele>851</ele>
        <time>2018-05-09T07:14:59Z</time>
      </trkpt>
      <trkpt lat="43.92068" lon="7.24408">
        <ele>850</ele>
        <time>2018-05-09T07:15:59Z</time>
      </trkpt>
      <trkpt lat="43.92064" lon="7.24409">
        <ele>848</ele>
        <time>2018-05-09T07:16:59Z</time>
      </trkpt>
      <trkpt lat="43.92061" lon="7.2441">
        <ele>847</ele>
        <time>2018-05-09T07:17:59Z</time>
      </trkpt>
      <trkpt lat="43.92055" lon="7.24409">
        <ele>846</ele>
        <time>2018-05-09T07:18:59Z</time>
      </trkpt>
      <trkpt lat="43.9205" lon="7.24408">
        <ele>845</ele>
        <time>2018-05-09T07:19:59Z</time>
      </trkpt>
      <trkpt lat="43.92044" lon="7.24409">
        <ele>844</ele>
        <time>2018-05-09T07:20:59Z</time>
      </trkpt>
      <trkpt lat="43.92043" lon="7.2441">
        <ele>843</ele>
        <time>2018-05-09T07:21:59Z</time>
      </trkpt>
      <trkpt lat="43.92041" lon="7.24415">
        <ele>841</ele>
        <time>2018-05-09T07:22:59Z</time>
      </trkpt>
      <trkpt lat="43.92041" lon="7.24416">
        <ele>841</ele>
        <time>2018-05-09T07:23:59Z</time>
      </trkpt>
      <trkpt lat="43.92028" lon="7.24433">
        <ele>834</ele>
        <time>2018-05-09T07:24:59Z</time>
      </trkpt>
      <trkpt lat="43.92022" lon="7.24443">
        <ele>830</ele>
        <time>2018-05-09T07:25:59Z</time>
      </trkpt>
      <trkpt lat="43.92021" lon="7.2445">
        <ele>829</ele>
        <time>2018-05-09T07:26:59Z</time>
      </trkpt>
      <trkpt lat="43.92019" lon="7.24456">
        <ele>827</ele>
        <time>2018-05-09T07:27:59Z</time>
      </trkpt>
      <trkpt lat="43.92016" lon="7.24464">
        <ele>825</ele>
        <time>2018-05-09T07:28:59Z</time>
      </trkpt>
      <trkpt lat="43.92015" lon="7.24466">
        <ele>825</ele>
        <time>2018-05-09T07:29:59Z</time>
      </trkpt>
      <trkpt lat="43.92007" lon="7.24475">
        <ele>823</ele>
        <time>2018-05-09T07:30:59Z</time>
      </trkpt>
      <trkpt lat="43.92003" lon="7.24481">
        <ele>822</ele>
        <time>2018-05-09T07:31:59Z</time>
      </trkpt>
      <trkpt lat="43.92002" lon="7.24482">
        <ele>822</ele>
        <time>2018-05-09T07:32:59Z</time>
      </trkpt>
      <trkpt lat="43.92001" lon="7.24481">
        <ele>822</ele>
        <time>2018-05-09T07:33:59Z</time>
      </trkpt>
      <trkpt lat="43.92" lon="7.2448">
        <ele>822</ele>
        <time>2018-05-09T07:34:59Z</time>
      </trkpt>
      <trkpt lat="43.91996" lon="7.24481">
        <ele>822</ele>
        <time>2018-05-09T07:35:59Z</time>
      </trkpt>
      <trkpt lat="43.91989" lon="7.24473">
        <ele>822</ele>
        <time>2018-05-09T07:36:59Z</time>
      </trkpt>
      <trkpt lat="43.91987" lon="7.24473">
        <ele>822</ele>
        <time>2018-05-09T07:37:59Z</time>
      </trkpt>
      <trkpt lat="43.9198" lon="7.24477">
        <ele>821</ele>
        <time>2018-05-09T07:38:59Z</time>
      </trkpt>
      <trkpt lat="43.91974" lon="7.24492">
        <ele>819</ele>
        <time>2018-05-09T07:39:59Z</time>
      </trkpt>
      <trkpt lat="43.91968" lon="7.24499">
        <ele>819</ele>
        <time>2018-05-09T07:40:59Z</time>
      </trkpt>
      <trkpt lat="43.91965" lon="7.24501">
        <ele>818</ele>
        <time>2018-05-09T07:41:59Z</time>
      </trkpt>
      <trkpt lat="43.9196" lon="7.2451">
        <ele>815</ele>
        <time>2018-05-09T07:42:59Z</time>
      </trkpt>
      <trkpt lat="43.91958" lon="7.24513">
        <ele>814</ele>
        <time>2018-05-09T07:43:59Z</time>
      </trkpt>
      <trkpt lat="43.91947" lon="7.24517">
        <ele>813</ele>
        <time>2018-05-09T07:44:59Z</time>
      </trkpt>
      <trkpt lat="43.91938" lon="7.24519">
        <ele>812</ele>
        <time>2018-05-09T07:45:59Z</time>
      </trkpt>
      <trkpt lat="43.9193" lon="7.24524">
        <ele>811</ele>
        <time>2018-05-09T07:46:59Z</time>
      </trkpt>
      <trkpt lat="43.91924" lon="7.24528">
        <ele>810</ele>
        <time>2018-05-09T07:47:59Z</time>
      </trkpt>
      <trkpt lat="43.91917" lon="7.24529">
        <ele>810</ele>
        <time>2018-05-09T07:48:59Z</time>
      </trkpt>
      <trkpt lat="43.91914" lon="7.24531">
        <ele>810</ele>
        <time>2018-05-09T07:49:59Z</time>
      </trkpt>
      <trkpt lat="43.9191" lon="7.24531">
        <ele>810</ele>
        <time>2018-05-09T07:50:59Z</time>
      </trkpt>
      <trkpt lat="43.919" lon="7.24531">
        <ele>809</ele>
        <time>2018-05-09T07:51:59Z</time>
      </trkpt>
      <trkpt lat="43.91893" lon="7.24534">
        <ele>809</ele>
        <time>2018-05-09T07:52:59Z</time>
      </trkpt>
      <trkpt lat="43.91891" lon="7.24535">
        <ele>808</ele>
        <time>2018-05-09T07:53:59Z</time>
      </trkpt>
      <trkpt lat="43.91896" lon="7.24538">
        <ele>808</ele>
        <time>2018-05-09T07:54:59Z</time>
      </trkpt>
      <trkpt lat="43.91912" lon="7.24539">
        <ele>808</ele>
        <time>2018-05-09T07:55:59Z</time>
      </trkpt>
      <trkpt lat="43.91917" lon="7.2454">
        <ele>807</ele>
        <time>2018-05-09T07:56:59Z</time>
      </trkpt>
      <trkpt lat="43.91927" lon="7.24539">
        <ele>807</ele>
        <time>2018-05-09T07:57:59Z</time>
      </trkpt>
      <trkpt lat="43.91943" lon="7.24531">
        <ele>808</ele>
        <time>2018-05-09T07:58:59Z</time>
      </trkpt>
      <trkpt lat="43.91953" lon="7.24529">
        <ele>808</ele>
        <time>2018-05-09T07:59:59Z</time>
      </trkpt>
      <trkpt lat="43.91958" lon="7.24529">
        <ele>808</ele>
        <time>2018-05-09T08:00:59Z</time>
      </trkpt>
      <trkpt lat="43.9197" lon="7.24533">
        <ele>806</ele>
        <time>2018-05-09T08:01:59Z</time>
      </trkpt>
      <trkpt lat="43.91991" lon="7.24535">
        <ele>804</ele>
        <time>2018-05-09T08:02:59Z</time>
      </trkpt>
      <trkpt lat="43.92013" lon="7.24537">
        <ele>801</ele>
        <time>2018-05-09T08:03:59Z</time>
      </trkpt>
      <trkpt lat="43.92025" lon="7.24537">
        <ele>800</ele>
        <time>2018-05-09T08:04:59Z</time>
      </trkpt>
      <trkpt lat="43.92038" lon="7.24532">
        <ele>801</ele>
        <time>2018-05-09T08:05:59Z</time>
      </trkpt>
      <trkpt lat="43.92054" lon="7.2453">
        <ele>800</ele>
        <time>2018-05-09T08:06:59Z</time>
      </trkpt>
      <trkpt lat="43.92057" lon="7.2453">
        <ele>800</ele>
        <time>2018-05-09T08:07:59Z</time>
      </trkpt>
      <trkpt lat="43.92069" lon="7.24537">
        <ele>796</ele>
        <time>2018-05-09T08:08:59Z</time>
      </trkpt>
      <trkpt lat="43.9207" lon="7.24541">
        <ele>794</ele>
        <time>2018-05-09T08:09:59Z</time>
      </trkpt>
      <trkpt lat="43.92067" lon="7.24542">
        <ele>794</ele>
        <time>2018-05-09T08:10:59Z</time>
      </trkpt>
      <trkpt lat="43.92065" lon="7.24543">
        <ele>794</ele>
        <time>2018-05-09T08:11:59Z</time>
      </trkpt>
      <trkpt lat="43.92061" lon="7.24543">
        <ele>794</ele>
        <time>2018-05-09T08:12:59Z</time>
      </trkpt>
      <trkpt lat="43.92055" lon="7.24543">
        <ele>795</ele>
        <time>2018-05-09T08:13:59Z</time>
      </trkpt>
      <trkpt lat="43.92054" lon="7.24543">
        <ele>795</ele>
        <time>2018-05-09T08:14:59Z</time>
      </trkpt>
      <trkpt lat="43.92053" lon="7.24542">
        <ele>795</ele>
        <time>2018-05-09T08:15:59Z</time>
      </trkpt>
      <trkpt lat="43.92045" lon="7.24544">
        <ele>795</ele>
        <time>2018-05-09T08:16:59Z</time>
      </trkpt>
      <trkpt lat="43.92044" lon="7.24545">
        <ele>795</ele>
        <time>2018-05-09T08:17:59Z</time>
      </trkpt>
      <trkpt lat="43.92038" lon="7.24559">
        <ele>789</ele>
        <time>2018-05-09T08:18:59Z</time>
      </trkpt>
      <trkpt lat="43.92035" lon="7.24563">
        <ele>788</ele>
        <time>2018-05-09T08:19:59Z</time>
      </trkpt>
      <trkpt lat="43.92034" lon="7.24564">
        <ele>787</ele>
        <time>2018-05-09T08:20:59Z</time>
      </trkpt>
      <trkpt lat="43.92032" lon="7.24567">
        <ele>786</ele>
        <time>2018-05-09T08:21:59Z</time>
      </trkpt>
      <trkpt lat="43.92027" lon="7.24577">
        <ele>782</ele>
        <time>2018-05-09T08:22:59Z</time>
      </trkpt>
      <trkpt lat="43.92022" lon="7.24586">
        <ele>779</ele>
        <time>2018-05-09T08:23:59Z</time>
      </trkpt>
      <trkpt lat="43.9202" lon="7.24587">
        <ele>778</ele>
        <time>2018-05-09T08:24:59Z</time>
      </trkpt>
      <trkpt lat="43.92018" lon="7.24588">
        <ele>778</ele>
        <time>2018-05-09T08:25:59Z</time>
      </trkpt>
      <trkpt lat="43.92009" lon="7.24589">
        <ele>778</ele>
        <time>2018-05-09T08:26:59Z</time>
      </trkpt>
      <trkpt lat="43.91997" lon="7.24587">
        <ele>780</ele>
        <time>2018-05-09T08:27:59Z</time>
      </trkpt>
      <trkpt lat="43.9199" lon="7.24587">
        <ele>781</ele>
        <time>2018-05-09T08:28:59Z</time>
      </trkpt>
      <trkpt lat="43.91987" lon="7.24589">
        <ele>781</ele>
        <time>2018-05-09T08:29:59Z</time>
      </trkpt>
      <trkpt lat="43.91977" lon="7.24606">
        <ele>776</ele>
        <time>2018-05-09T08:30:59Z</time>
      </trkpt>
      <trkpt lat="43.91975" lon="7.24608">
        <ele>776</ele>
        <time>2018-05-09T08:31:59Z</time>
      </trkpt>
      <trkpt lat="43.91974" lon="7.24609">
        <ele>776</ele>
        <time>2018-05-09T08:32:59Z</time>
      </trkpt>
      <trkpt lat="43.91959" lon="7.24605">
        <ele>781</ele>
        <time>2018-05-09T08:33:59Z</time>
      </trkpt>
      <trkpt lat="43.91958" lon="7.24604">
        <ele>781</ele>
        <time>2018-05-09T08:34:59Z</time>
      </trkpt>
      <trkpt lat="43.91953" lon="7.24606">
        <ele>782</ele>
        <time>2018-05-09T08:35:59Z</time>
      </trkpt>
      <trkpt lat="43.91944" lon="7.24613">
        <ele>781</ele>
        <time>2018-05-09T08:36:59Z</time>
      </trkpt>
      <trkpt lat="43.9194" lon="7.24614">
        <ele>782</ele>
        <time>2018-05-09T08:37:59Z</time>
      </trkpt>
      <trkpt lat="43.91938" lon="7.24617">
        <ele>781</ele>
        <time>2018-05-09T08:38:59Z</time>
      </trkpt>
      <trkpt lat="43.91935" lon="7.24623">
        <ele>780</ele>
        <time>2018-05-09T08:39:59Z</time>
      </trkpt>
      <trkpt lat="43.91929" lon="7.24635">
        <ele>778</ele>
        <time>2018-05-09T08:40:59Z</time>
      </trkpt>
      <trkpt lat="43.91926" lon="7.24638">
        <ele>778</ele>
        <time>2018-05-09T08:41:59Z</time>
      </trkpt>
      <trkpt lat="43.91923" lon="7.24639">
        <ele>778</ele>
        <time>2018-05-09T08:42:59Z</time>
      </trkpt>
      <trkpt lat="43.91921" lon="7.24641">
        <ele>778</ele>
        <time>2018-05-09T08:43:59Z</time>
      </trkpt>
      <trkpt lat="43.91907" lon="7.24642">
        <ele>782</ele>
        <time>2018-05-09T08:44:59Z</time>
      </trkpt>
      <trkpt lat="43.919" lon="7.24646">
        <ele>783</ele>
        <time>2018-05-09T08:45:59Z</time>
      </trkpt>
      <trkpt lat="43.91892" lon="7.24656">
        <ele>783</ele>
        <time>2018-05-09T08:46:59Z</time>
      </trkpt>
      <trkpt lat="43.91889" lon="7.24661">
        <ele>782</ele>
        <time>2018-05-09T08:47:59Z</time>
      </trkpt>
      <trkpt lat="43.91875" lon="7.24675">
        <ele>783</ele>
        <time>2018-05-09T08:48:59Z</time>
      </trkpt>
      <trkpt lat="43.91866" lon="7.24684">
        <ele>784</ele>
        <time>2018-05-09T08:49:59Z</time>
      </trkpt>
      <trkpt lat="43.91862" lon="7.24688">
        <ele>784</ele>
        <time>2018-05-09T08:50:59Z</time>
      </trkpt>
      <trkpt lat="43.91835" lon="7.24702">
        <ele>789</ele>
        <time>2018-05-09T08:51:59Z</time>
      </trkpt>
      <trkpt lat="43.91831" lon="7.24705">
        <ele>789</ele>
        <time>2018-05-09T08:52:59Z</time>
      </trkpt>
      <trkpt lat="43.918" lon="7.24738">
        <ele>790</ele>
        <time>2018-05-09T08:53:59Z</time>
      </trkpt>
      <trkpt lat="43.91798" lon="7.2474">
        <ele>790</ele>
        <time>2018-05-09T08:54:59Z</time>
      </trkpt>
      <trkpt lat="43.91794" lon="7.24743">
        <ele>791</ele>
        <time>2018-05-09T08:55:59Z</time>
      </trkpt>
      <trkpt lat="43.91793" lon="7.24744">
        <ele>791</ele>
        <time>2018-05-09T08:56:59Z</time>
      </trkpt>
      <trkpt lat="43.91785" lon="7.24748">
        <ele>793</ele>
        <time>2018-05-09T08:57:59Z</time>
      </trkpt>
      <trkpt lat="43.91781" lon="7.2475">
        <ele>794</ele>
        <time>2018-05-09T08:58:59Z</time>
      </trkpt>
      <trkpt lat="43.91779" lon="7.24751">
        <ele>794</ele>
        <time>2018-05-09T08:59:59Z</time>
      </trkpt>
      <trkpt lat="43.91773" lon="7.24753">
        <ele>796</ele>
        <time>2018-05-09T09:00:59Z</time>
      </trkpt>
      <trkpt lat="43.9177" lon="7.24755">
        <ele>796</ele>
        <time>2018-05-09T09:01:59Z</time>
      </trkpt>
      <trkpt lat="43.91767" lon="7.24756">
        <ele>797</ele>
        <time>2018-05-09T09:02:59Z</time>
      </trkpt>
      <trkpt lat="43.91761" lon="7.24761">
        <ele>797</ele>
        <time>2018-05-09T09:03:59Z</time>
      </trkpt>
      <trkpt lat="43.91753" lon="7.24769">
        <ele>798</ele>
        <time>2018-05-09T09:04:59Z</time>
      </trkpt>
      <trkpt lat="43.91752" lon="7.24773">
        <ele>797</ele>
        <time>2018-05-09T09:05:59Z</time>
      </trkpt>
      <trkpt lat="43.91752" lon="7.24773">
        <ele>797</ele>
        <time>2018-05-09T09:06:59Z</time>
      </trkpt>
      <trkpt lat="43.91752" lon="7.24772">
        <ele>798</ele>
        <time>2018-05-09T09:07:59Z</time>
      </trkpt>
      <trkpt lat="43.91747" lon="7.24775">
        <ele>798</ele>
        <time>2018-05-09T09:08:59Z</time>
      </trkpt>
      <trkpt lat="43.91746" lon="7.24776">
        <ele>797</ele>
        <time>2018-05-09T09:09:59Z</time>
      </trkpt>
      <trkpt lat="43.9174" lon="7.24779">
        <ele>797</ele>
        <time>2018-05-09T09:10:59Z</time>
      </trkpt>
      <trkpt lat="43.91736" lon="7.2478">
        <ele>797</ele>
        <time>2018-05-09T09:11:59Z</time>
      </trkpt>
      <trkpt lat="43.91732" lon="7.24781">
        <ele>797</ele>
        <time>2018-05-09T09:12:59Z</time>
      </trkpt>
      <trkpt lat="43.91727" lon="7.24779">
        <ele>798</ele>
        <time>2018-05-09T09:13:59Z</time>
      </trkpt>
      <trkpt lat="43.91721" lon="7.24775">
        <ele>799</ele>
        <time>2018-05-09T09:14:59Z</time>
      </trkpt>
      <trkpt lat="43.91708" lon="7.24761">
        <ele>802</ele>
        <time>2018-05-09T09:15:59Z</time>
      </trkpt>
      <trkpt lat="43.91707" lon="7.24757">
        <ele>802</ele>
        <time>2018-05-09T09:16:59Z</time>
      </trkpt>
      <trkpt lat="43.91709" lon="7.24753">
        <ele>803</ele>
        <time>2018-05-09T09:17:59Z</time>
      </trkpt>
      <trkpt lat="43.91714" lon="7.24751">
        <ele>803</ele>
        <time>2018-05-09T09:18:59Z</time>
      </trkpt>
      <trkpt lat="43.9172" lon="7.24747">
        <ele>804</ele>
        <time>2018-05-09T09:19:59Z</time>
      </trkpt>
      <trkpt lat="43.91725" lon="7.24744">
        <ele>804</ele>
        <time>2018-05-09T09:20:59Z</time>
      </trkpt>
      <trkpt lat="43.9173" lon="7.24739">
        <ele>804</ele>
        <time>2018-05-09T09:21:59Z</time>
      </trkpt>
      <trkpt lat="43.91734" lon="7.24735">
        <ele>804</ele>
        <time>2018-05-09T09:22:59Z</time>
      </trkpt>
      <trkpt lat="43.91744" lon="7.24727">
        <ele>805</ele>
        <time>2018-05-09T09:23:59Z</time>
      </trkpt>
      <trkpt lat="43.91747" lon="7.24725">
        <ele>806</ele>
        <time>2018-05-09T09:24:59Z</time>
      </trkpt>
      <trkpt lat="43.91761" lon="7.24708">
        <ele>805</ele>
        <time>2018-05-09T09:25:59Z</time>
      </trkpt>
      <trkpt lat="43.91769" lon="7.24699">
        <ele>804</ele>
        <time>2018-05-09T09:26:59Z</time>
      </trkpt>
      <trkpt lat="43.91776" lon="7.24682">
        <ele>805</ele>
        <time>2018-05-09T09:27:59Z</time>
      </trkpt>
      <trkpt lat="43.91778" lon="7.24679">
        <ele>805</ele>
        <time>2018-05-09T09:28:59Z</time>
      </trkpt>
      <trkpt lat="43.91787" lon="7.24656">
        <ele>805</ele>
        <time>2018-05-09T09:29:59Z</time>
      </trkpt>
      <trkpt lat="43.91791" lon="7.24649">
        <ele>804</ele>
        <time>2018-05-09T09:30:59Z</time>
      </trkpt>
      <trkpt lat="43.91801" lon="7.24633">
        <ele>804</ele>
        <time>2018-05-09T09:31:59Z</time>
      </trkpt>
      <trkpt lat="43.91824" lon="7.24606">
        <ele>806</ele>
        <time>2018-05-09T09:32:59Z</time>
      </trkpt>
      <trkpt lat="43.91831" lon="7.24596">
        <ele>807</ele>
        <time>2018-05-09T09:33:59Z</time>
      </trkpt>
      <trkpt lat="43.91838" lon="7.2458">
        <ele>808</ele>
        <time>2018-05-09T09:34:59Z</time>
      </trkpt>
      <trkpt lat="43.91846" lon="7.2456">
        <ele>807</ele>
        <time>2018-05-09T09:35:59Z</time>
      </trkpt>
      <trkpt lat="43.9185" lon="7.24553">
        <ele>807</ele>
        <time>2018-05-09T09:36:59Z</time>
      </trkpt>
      <trkpt lat="43.9186" lon="7.2454">
        <ele>807</ele>
        <time>2018-05-09T09:37:59Z</time>
      </trkpt>
      <trkpt lat="43.9187" lon="7.24534">
        <ele>808</ele>
        <time>2018-05-09T09:38:59Z</time>
      </trkpt>
      <trkpt lat="43.91883" lon="7.24531">
        <ele>809</ele>
        <time>2018-05-09T09:39:59Z</time>
      </trkpt>
      <trkpt lat="43.91893" lon="7.24526">
        <ele>810</ele>
        <time>2018-05-09T09:40:59Z</time>
      </trkpt>
      <trkpt lat="43.91895" lon="7.24526">
        <ele>810</ele>
        <time>2018-05-09T09:41:59Z</time>
      </trkpt>
      <trkpt lat="43.91905" lon="7.24523">
        <ele>811</ele>
        <time>2018-05-09T09:42:59Z</time>
      </trkpt>
      <trkpt lat="43.91909" lon="7.24522">
        <ele>812</ele>
        <time>2018-05-09T09:43:59Z</time>
      </trkpt>
      <trkpt lat="43.9192" lon="7.24519">
        <ele>813</ele>
        <time>2018-05-09T09:44:59Z</time>
      </trkpt>
      <trkpt lat="43.91921" lon="7.24518">
        <ele>813</ele>
        <time>2018-05-09T09:45:59Z</time>
      </trkpt>
      <trkpt lat="43.91933" lon="7.2451">
        <ele>815</ele>
        <time>2018-05-09T09:46:59Z</time>
      </trkpt>
      <trkpt lat="43.91938" lon="7.24505">
        <ele>817</ele>
        <time>2018-05-09T09:47:59Z</time>
      </trkpt>
      <trkpt lat="43.9194" lon="7.24498">
        <ele>818</ele>
        <time>2018-05-09T09:48:59Z</time>
      </trkpt>
      <trkpt lat="43.91941" lon="7.24496">
        <ele>818</ele>
        <time>2018-05-09T09:49:59Z</time>
      </trkpt>
      <trkpt lat="43.91946" lon="7.2449">
        <ele>819</ele>
        <time>2018-05-09T09:50:59Z</time>
      </trkpt>
      <trkpt lat="43.91955" lon="7.24481">
        <ele>819</ele>
        <time>2018-05-09T09:51:59Z</time>
      </trkpt>
      <trkpt lat="43.9197" lon="7.24478">
        <ele>820</ele>
        <time>2018-05-09T09:52:59Z</time>
      </trkpt>
      <trkpt lat="43.91974" lon="7.24477">
        <ele>821</ele>
        <time>2018-05-09T09:53:59Z</time>
      </trkpt>
      <trkpt lat="43.91979" lon="7.24474">
        <ele>821</ele>
        <time>2018-05-09T09:54:59Z</time>
      </trkpt>
      <trkpt lat="43.91985" lon="7.24471">
        <ele>822</ele>
        <time>2018-05-09T09:55:59Z</time>
      </trkpt>
      <trkpt lat="43.9199" lon="7.2447">
        <ele>823</ele>
        <time>2018-05-09T09:56:59Z</time>
      </trkpt>
      <trkpt lat="43.91993" lon="7.24468">
        <ele>823</ele>
        <time>2018-05-09T09:57:59Z</time>
      </trkpt>
      <trkpt lat="43.92" lon="7.24462">
        <ele>825</ele>
        <time>2018-05-09T09:58:59Z</time>
      </trkpt>
      <trkpt lat="43.92002" lon="7.24459">
        <ele>825</ele>
        <time>2018-05-09T09:59:59Z</time>
      </trkpt>
      <trkpt lat="43.92014" lon="7.24444">
        <ele>829</ele>
        <time>2018-05-09T10:00:59Z</time>
      </trkpt>
      <trkpt lat="43.92015" lon="7.24441">
        <ele>830</ele>
        <time>2018-05-09T10:01:59Z</time>
      </trkpt>
      <trkpt lat="43.92017" lon="7.24435">
        <ele>832</ele>
        <time>2018-05-09T10:02:59Z</time>
      </trkpt>
      <trkpt lat="43.92024" lon="7.24421">
        <ele>836</ele>
        <time>2018-05-09T10:03:59Z</time>
      </trkpt>
      <trkpt lat="43.9203" lon="7.24414">
        <ele>839</ele>
        <time>2018-05-09T10:04:59Z</time>
      </trkpt>
      <trkpt lat="43.92031" lon="7.24412">
        <ele>840</ele>
        <time>2018-05-09T10:05:59Z</time>
      </trkpt>
      <trkpt lat="43.92031" lon="7.24409">
        <ele>841</ele>
        <time>2018-05-09T10:06:59Z</time>
      </trkpt>
      <trkpt lat="43.92036" lon="7.24399">
        <ele>844</ele>
        <time>2018-05-09T10:07:59Z</time>
      </trkpt>
      <trkpt lat="43.9204" lon="7.24394">
        <ele>847</ele>
        <time>2018-05-09T10:08:59Z</time>
      </trkpt>
      <trkpt lat="43.92045" lon="7.24382">
        <ele>852</ele>
        <time>2018-05-09T10:09:59Z</time>
      </trkpt>
      <trkpt lat="43.92046" lon="7.2438">
        <ele>853</ele>
        <time>2018-05-09T10:10:59Z</time>
      </trkpt>
      <trkpt lat="43.92054" lon="7.24371">
        <ele>858</ele>
        <time>2018-05-09T10:11:59Z</time>
      </trkpt>
      <trkpt lat="43.92055" lon="7.24367">
        <ele>859</ele>
        <time>2018-05-09T10:12:59Z</time>
      </trkpt>
      <trkpt lat="43.92057" lon="7.24363">
        <ele>861</ele>
        <time>2018-05-09T10:13:59Z</time>
      </trkpt>
      <trkpt lat="43.92054" lon="7.24355">
        <ele>863</ele>
        <time>2018-05-09T10:14:59Z</time>
      </trkpt>
      <trkpt lat="43.92052" lon="7.24349">
        <ele>864</ele>
        <time>2018-05-09T10:15:59Z</time>
      </trkpt>
      <trkpt lat="43.92051" lon="7.24334">
        <ele>868</ele>
        <time>2018-05-09T10:16:59Z</time>
      </trkpt>
      <trkpt lat="43.92049" lon="7.24323">
        <ele>869</ele>
        <time>2018-05-09T10:17:59Z</time>
      </trkpt>
      <trkpt lat="43.92048" lon="7.2432">
        <ele>870</ele>
        <time>2018-05-09T10:18:59Z</time>
      </trkpt>
      <trkpt lat="43.92046" lon="7.24315">
        <ele>870</ele>
        <time>2018-05-09T10:19:59Z</time>
      </trkpt>
      <trkpt lat="43.92039" lon="7.24304">
        <ele>869</ele>
        <time>2018-05-09T10:20:59Z</time>
      </trkpt>
      <trkpt lat="43.92037" lon="7.24302">
        <ele>869</ele>
        <time>2018-05-09T10:21:59Z</time>
      </trkpt>
      <trkpt lat="43.92033" lon="7.24293">
        <ele>869</ele>
        <time>2018-05-09T10:22:59Z</time>
      </trkpt>
      <trkpt lat="43.92032" lon="7.24291">
        <ele>869</ele>
        <time>2018-05-09T10:23:59Z</time>
      </trkpt>
      <trkpt lat="43.92022" lon="7.24281">
        <ele>868</ele>
        <time>2018-05-09T10:24:59Z</time>
      </trkpt>
      <trkpt lat="43.92019" lon="7.24278">
        <ele>867</ele>
        <time>2018-05-09T10:25:59Z</time>
      </trkpt>
      <trkpt lat="43.92011" lon="7.24274">
        <ele>865</ele>
        <time>2018-05-09T10:26:59Z</time>
      </trkpt>
      <trkpt lat="43.91999" lon="7.2427">
        <ele>861</ele>
        <time>2018-05-09T10:27:59Z</time>
      </trkpt>
      <trkpt lat="43.91998" lon="7.2427">
        <ele>861</ele>
        <time>2018-05-09T10:28:59Z</time>
      </trkpt>
      <trkpt lat="43.91987" lon="7.2426">
        <ele>860</ele>
        <time>2018-05-09T10:29:59Z</time>
      </trkpt>
      <trkpt lat="43.91984" lon="7.24258">
        <ele>860</ele>
        <time>2018-05-09T10:30:59Z</time>
      </trkpt>
      <trkpt lat="43.91979" lon="7.24251">
        <ele>860</ele>
        <time>2018-05-09T10:31:59Z</time>
      </trkpt>
      <trkpt lat="43.91977" lon="7.24249">
        <ele>860</ele>
        <time>2018-05-09T10:32:59Z</time>
      </trkpt>
      <trkpt lat="43.91966" lon="7.2423">
        <ele>856</ele>
        <time>2018-05-09T10:33:59Z</time>
      </trkpt>
      <trkpt lat="43.91967" lon="7.24228">
        <ele>856</ele>
        <time>2018-05-09T10:34:59Z</time>
      </trkpt>
      <trkpt lat="43.91976" lon="7.24233">
        <ele>859</ele>
        <time>2018-05-09T10:35:59Z</time>
      </trkpt>
      <trkpt lat="43.91978" lon="7.24234">
        <ele>860</ele>
        <time>2018-05-09T10:36:59Z</time>
      </trkpt>
      <trkpt lat="43.91986" lon="7.24239">
        <ele>862</ele>
        <time>2018-05-09T10:37:59Z</time>
      </trkpt>
      <trkpt lat="43.9199" lon="7.24241">
        <ele>863</ele>
        <time>2018-05-09T10:38:59Z</time>
      </trkpt>
      <trkpt lat="43.91996" lon="7.24238">
        <ele>865</ele>
        <time>2018-05-09T10:39:59Z</time>
      </trkpt>
      <trkpt lat="43.92001" lon="7.24233">
        <ele>866</ele>
        <time>2018-05-09T10:40:59Z</time>
      </trkpt>
      <trkpt lat="43.92003" lon="7.24225">
        <ele>867</ele>
        <time>2018-05-09T10:41:59Z</time>
      </trkpt>
      <trkpt lat="43.92004" lon="7.24223">
        <ele>867</ele>
        <time>2018-05-09T10:42:59Z</time>
      </trkpt>
      <trkpt lat="43.92009" lon="7.24216">
        <ele>868</ele>
        <time>2018-05-09T10:43:59Z</time>
      </trkpt>
      <trkpt lat="43.92015" lon="7.24213">
        <ele>870</ele>
        <time>2018-05-09T10:44:59Z</time>
      </trkpt>
      <trkpt lat="43.92053" lon="7.24209">
        <ele>883</ele>
        <time>2018-05-09T10:45:59Z</time>
      </trkpt>
      <trkpt lat="43.92062" lon="7.24203">
        <ele>886</ele>
        <time>2018-05-09T10:46:59Z</time>
      </trkpt>
      <trkpt lat="43.92067" lon="7.24194">
        <ele>887</ele>
        <time>2018-05-09T10:47:59Z</time>
      </trkpt>
      <trkpt lat="43.92069" lon="7.24184">
        <ele>887</ele>
        <time>2018-05-09T10:48:59Z</time>
      </trkpt>
      <trkpt lat="43.92072" lon="7.24162">
        <ele>886</ele>
        <time>2018-05-09T10:49:59Z</time>
      </trkpt>
      <trkpt lat="43.92073" lon="7.24151">
        <ele>884</ele>
        <time>2018-05-09T10:50:59Z</time>
      </trkpt>
      <trkpt lat="43.92073" lon="7.24131">
        <ele>880</ele>
        <time>2018-05-09T10:51:59Z</time>
      </trkpt>
      <trkpt lat="43.92075" lon="7.24112">
        <ele>877</ele>
        <time>2018-05-09T10:52:59Z</time>
      </trkpt>
      <trkpt lat="43.92081" lon="7.24104">
        <ele>877</ele>
        <time>2018-05-09T10:53:59Z</time>
      </trkpt>
      <trkpt lat="43.92099" lon="7.24091">
        <ele>884</ele>
        <time>2018-05-09T10:54:59Z</time>
      </trkpt>
      <trkpt lat="43.92113" lon="7.24083">
        <ele>890</ele>
        <time>2018-05-09T10:55:59Z</time>
      </trkpt>
      <trkpt lat="43.92117" lon="7.24079">
        <ele>892</ele>
        <time>2018-05-09T10:56:59Z</time>
      </trkpt>
      <trkpt lat="43.92123" lon="7.24066">
        <ele>892</ele>
        <time>2018-05-09T10:57:59Z</time>
      </trkpt>
      <trkpt lat="43.92134" lon="7.2404">
        <ele>892</ele>
        <time>2018-05-09T10:58:59Z</time>
      </trkpt>
      <trkpt lat="43.92137" lon="7.2402">
        <ele>888</ele>
        <time>2018-05-09T10:59:59Z</time>
      </trkpt>
      <trkpt lat="43.92135" lon="7.23995">
        <ele>882</ele>
        <time>2018-05-09T11:00:59Z</time>
      </trkpt>
      <trkpt lat="43.92139" lon="7.2397">
        <ele>882</ele>
        <time>2018-05-09T11:01:59Z</time>
      </trkpt>
      <trkpt lat="43.92138" lon="7.23962">
        <ele>881</ele>
        <time>2018-05-09T11:02:59Z</time>
      </trkpt>
      <trkpt lat="43.92136" lon="7.23934">
        <ele>880</ele>
        <time>2018-05-09T11:03:59Z</time>
      </trkpt>
      <trkpt lat="43.92132" lon="7.23918">
        <ele>880</ele>
        <time>2018-05-09T11:04:59Z</time>
      </trkpt>
      <trkpt lat="43.9213" lon="7.23913">
        <ele>880</ele>
        <time>2018-05-09T11:05:59Z</time>
      </trkpt>
      <trkpt lat="43.92123" lon="7.23896">
        <ele>881</ele>
        <time>2018-05-09T11:06:59Z</time>
      </trkpt>
      <trkpt lat="43.9212" lon="7.23894">
        <ele>882</ele>
        <time>2018-05-09T11:07:59Z</time>
      </trkpt>
      <trkpt lat="43.92113" lon="7.23891">
        <ele>884</ele>
        <time>2018-05-09T11:08:59Z</time>
      </trkpt>
      <trkpt lat="43.92105" lon="7.23893">
        <ele>886</ele>
        <time>2018-05-09T11:09:59Z</time>
      </trkpt>
      <trkpt lat="43.92098" lon="7.23899">
        <ele>887</ele>
        <time>2018-05-09T11:10:59Z</time>
      </trkpt>
      <trkpt lat="43.92093" lon="7.23903">
        <ele>887</ele>
        <time>2018-05-09T11:11:59Z</time>
      </trkpt>
      <trkpt lat="43.92087" lon="7.23904">
        <ele>888</ele>
        <time>2018-05-09T11:12:59Z</time>
      </trkpt>
      <trkpt lat="43.92083" lon="7.23904">
        <ele>889</ele>
        <time>2018-05-09T11:13:59Z</time>
      </trkpt>
      <trkpt lat="43.92075" lon="7.23903">
        <ele>888</ele>
        <time>2018-05-09T11:14:59Z</time>
      </trkpt>
      <trkpt lat="43.92067" lon="7.239">
        <ele>888</ele>
        <time>2018-05-09T11:15:59Z</time>
      </trkpt>
      <trkpt lat="43.92061" lon="7.23898">
        <ele>888</ele>
        <time>2018-05-09T11:16:59Z</time>
      </trkpt>
      <trkpt lat="43.92058" lon="7.23896">
        <ele>888</ele>
        <time>2018-05-09T11:17:59Z</time>
      </trkpt>
      <trkpt lat="43.92055" lon="7.23893">
        <ele>888</ele>
        <time>2018-05-09T11:18:59Z</time>
      </trkpt>
      <trkpt lat="43.92053" lon="7.23889">
        <ele>889</ele>
        <time>2018-05-09T11:19:59Z</time>
      </trkpt>
      <trkpt lat="43.92046" lon="7.23874">
        <ele>891</ele>
        <time>2018-05-09T11:20:59Z</time>
      </trkpt>
      <trkpt lat="43.92041" lon="7.23858">
        <ele>894</ele>
        <time>2018-05-09T11:21:59Z</time>
      </trkpt>
      <trkpt lat="43.92037" lon="7.23854">
        <ele>894</ele>
        <time>2018-05-09T11:22:59Z</time>
      </trkpt>
      <trkpt lat="43.92031" lon="7.23851">
        <ele>894</ele>
        <time>2018-05-09T11:23:59Z</time>
      </trkpt>
      <trkpt lat="43.92026" lon="7.23843">
        <ele>895</ele>
        <time>2018-05-09T11:24:59Z</time>
      </trkpt>
      <trkpt lat="43.92025" lon="7.23842">
        <ele>895</ele>
        <time>2018-05-09T11:25:59Z</time>
      </trkpt>
      <trkpt lat="43.92026" lon="7.23824">
        <ele>897</ele>
        <time>2018-05-09T11:26:59Z</time>
      </trkpt>
      <trkpt lat="43.92028" lon="7.23819">
        <ele>897</ele>
        <time>2018-05-09T11:27:59Z</time>
      </trkpt>
      <trkpt lat="43.92038" lon="7.23804">
        <ele>899</ele>
        <time>2018-05-09T11:28:59Z</time>
      </trkpt>
      <trkpt lat="43.9204" lon="7.23799">
        <ele>899</ele>
        <time>2018-05-09T11:29:59Z</time>
      </trkpt>
      <trkpt lat="43.92042" lon="7.2378">
        <ele>899</ele>
        <time>2018-05-09T11:30:59Z</time>
      </trkpt>
      <trkpt lat="43.92042" lon="7.23773">
        <ele>899</ele>
        <time>2018-05-09T11:31:59Z</time>
      </trkpt>
      <trkpt lat="43.92035" lon="7.23746">
        <ele>898</ele>
        <time>2018-05-09T11:32:59Z</time>
      </trkpt>
      <trkpt lat="43.92032" lon="7.23723">
        <ele>898</ele>
        <time>2018-05-09T11:33:59Z</time>
      </trkpt>
      <trkpt lat="43.92035" lon="7.23699">
        <ele>899</ele>
        <time>2018-05-09T11:34:59Z</time>
      </trkpt>
      <trkpt lat="43.92041" lon="7.23676">
        <ele>900</ele>
        <time>2018-05-09T11:35:59Z</time>
      </trkpt>
      <trkpt lat="43.92049" lon="7.2364">
        <ele>900</ele>
        <time>2018-05-09T11:36:59Z</time>
      </trkpt>
      <trkpt lat="43.9205" lon="7.23618">
        <ele>899</ele>
        <time>2018-05-09T11:37:59Z</time>
      </trkpt>
      <trkpt lat="43.92047" lon="7.23591">
        <ele>899</ele>
        <time>2018-05-09T11:38:59Z</time>
      </trkpt>
      <trkpt lat="43.92042" lon="7.23558">
        <ele>900</ele>
        <time>2018-05-09T11:39:59Z</time>
      </trkpt>
      <trkpt lat="43.92043" lon="7.2352">
        <ele>901</ele>
        <time>2018-05-09T11:40:59Z</time>
      </trkpt>
      <trkpt lat="43.92042" lon="7.23514">
        <ele>902</ele>
        <time>2018-05-09T11:41:59Z</time>
      </trkpt>
      <trkpt lat="43.92029" lon="7.23481">
        <ele>912</ele>
        <time>2018-05-09T11:42:59Z</time>
      </trkpt>
      <trkpt lat="43.92027" lon="7.23474">
        <ele>915</ele>
        <time>2018-05-09T11:43:59Z</time>
      </trkpt>
      <trkpt lat="43.92022" lon="7.2345">
        <ele>923</ele>
        <time>2018-05-09T11:44:59Z</time>
      </trkpt>
      <trkpt lat="43.9202" lon="7.23444">
        <ele>926</ele>
        <time>2018-05-09T11:45:59Z</time>
      </trkpt>
      <trkpt lat="43.92021" lon="7.23431">
        <ele>929</ele>
        <time>2018-05-09T11:46:59Z</time>
      </trkpt>
      <trkpt lat="43.92022" lon="7.23428">
        <ele>929</ele>
        <time>2018-05-09T11:47:59Z</time>
      </trkpt>
      <trkpt lat="43.92037" lon="7.23414">
        <ele>928</ele>
        <time>2018-05-09T11:48:59Z</time>
      </trkpt>
      <trkpt lat="43.92045" lon="7.23407">
        <ele>927</ele>
        <time>2018-05-09T11:49:59Z</time>
      </trkpt>
      <trkpt lat="43.92058" lon="7.23409">
        <ele>921</ele>
        <time>2018-05-09T11:50:59Z</time>
      </trkpt>
      <trkpt lat="43.92069" lon="7.23406">
        <ele>918</ele>
        <time>2018-05-09T11:51:59Z</time>
      </trkpt>
      <trkpt lat="43.92082" lon="7.23398">
        <ele>915</ele>
        <time>2018-05-09T11:52:59Z</time>
      </trkpt>
      <trkpt lat="43.92093" lon="7.23387">
        <ele>912</ele>
        <time>2018-05-09T11:53:59Z</time>
      </trkpt>
      <trkpt lat="43.92097" lon="7.23384">
        <ele>911</ele>
        <time>2018-05-09T11:54:59Z</time>
      </trkpt>
      <trkpt lat="43.92098" lon="7.23384">
        <ele>910</ele>
        <time>2018-05-09T11:55:59Z</time>
      </trkpt>
      <trkpt lat="43.921" lon="7.23383">
        <ele>910</ele>
        <time>2018-05-09T11:56:59Z</time>
      </trkpt>
      <trkpt lat="43.92104" lon="7.23381">
        <ele>908</ele>
        <time>2018-05-09T11:57:59Z</time>
      </trkpt>
      <trkpt lat="43.92105" lon="7.23379">
        <ele>908</ele>
        <time>2018-05-09T11:58:59Z</time>
      </trkpt>
      <trkpt lat="43.92105" lon="7.23367">
        <ele>911</ele>
        <time>2018-05-09T11:59:59Z</time>
      </trkpt>
      <trkpt lat="43.92101" lon="7.23358">
        <ele>915</ele>
        <time>2018-05-09T12:00:59Z</time>
      </trkpt>
      <trkpt lat="43.92093" lon="7.23345">
        <ele>923</ele>
        <time>2018-05-09T12:01:59Z</time>
      </trkpt>
      <trkpt lat="43.92093" lon="7.23337">
        <ele>925</ele>
        <time>2018-05-09T12:02:59Z</time>
      </trkpt>
      <trkpt lat="43.92092" lon="7.23321">
        <ele>930</ele>
        <time>2018-05-09T12:03:59Z</time>
      </trkpt>
      <trkpt lat="43.92102" lon="7.23295">
        <ele>930</ele>
        <time>2018-05-09T12:04:59Z</time>
      </trkpt>
      <trkpt lat="43.92114" lon="7.23268">
        <ele>931</ele>
        <time>2018-05-09T12:05:59Z</time>
      </trkpt>
      <trkpt lat="43.92119" lon="7.23255">
        <ele>932</ele>
        <time>2018-05-09T12:06:59Z</time>
      </trkpt>
      <trkpt lat="43.92123" lon="7.23251">
        <ele>931</ele>
        <time>2018-05-09T12:07:59Z</time>
      </trkpt>
      <trkpt lat="43.92127" lon="7.23248">
        <ele>930</ele>
        <time>2018-05-09T12:08:59Z</time>
      </trkpt>
      <trkpt lat="43.92132" lon="7.23235">
        <ele>932</ele>
        <time>2018-05-09T12:09:59Z</time>
      </trkpt>
      <trkpt lat="43.92138" lon="7.23224">
        <ele>933</ele>
        <time>2018-05-09T12:10:59Z</time>
      </trkpt>
      <trkpt lat="43.92148" lon="7.23216">
        <ele>932</ele>
        <time>2018-05-09T12:11:59Z</time>
      </trkpt>
      <trkpt lat="43.92164" lon="7.23203">
        <ele>929</ele>
        <time>2018-05-09T12:12:59Z</time>
      </trkpt>
      <trkpt lat="43.92169" lon="7.23193">
        <ele>930</ele>
        <time>2018-05-09T12:13:59Z</time>
      </trkpt>
      <trkpt lat="43.9217" lon="7.2319">
        <ele>931</ele>
        <time>2018-05-09T12:14:59Z</time>
      </trkpt>
      <trkpt lat="43.92178" lon="7.23177">
        <ele>932</ele>
        <time>2018-05-09T12:15:59Z</time>
      </trkpt>
      <trkpt lat="43.92186" lon="7.23168">
        <ele>931</ele>
        <time>2018-05-09T12:16:59Z</time>
      </trkpt>
      <trkpt lat="43.92203" lon="7.23132">
        <ele>935</ele>
        <time>2018-05-09T12:17:59Z</time>
      </trkpt>
      <trkpt lat="43.92209" lon="7.23117">
        <ele>938</ele>
        <time>2018-05-09T12:18:59Z</time>
      </trkpt>
      <trkpt lat="43.9222" lon="7.23107">
        <ele>937</ele>
        <time>2018-05-09T12:19:59Z</time>
      </trkpt>
      <trkpt lat="43.92222" lon="7.23105">
        <ele>937</ele>
        <time>2018-05-09T12:20:59Z</time>
      </trkpt>
      <trkpt lat="43.92227" lon="7.23102">
        <ele>936</ele>
        <time>2018-05-09T12:21:59Z</time>
      </trkpt>
      <trkpt lat="43.92233" lon="7.23097">
        <ele>935</ele>
        <time>2018-05-09T12:22:59Z</time>
      </trkpt>
      <trkpt lat="43.92236" lon="7.23094">
        <ele>935</ele>
        <time>2018-05-09T12:23:59Z</time>
      </trkpt>
      <trkpt lat="43.92243" lon="7.23084">
        <ele>936</ele>
        <time>2018-05-09T12:24:59Z</time>
      </trkpt>
      <trkpt lat="43.92246" lon="7.23076">
        <ele>937</ele>
        <time>2018-05-09T12:25:59Z</time>
      </trkpt>
      <trkpt lat="43.92247" lon="7.23071">
        <ele>938</ele>
        <time>2018-05-09T12:26:59Z</time>
      </trkpt>
      <trkpt lat="43.92247" lon="7.23069">
        <ele>938</ele>
        <time>2018-05-09T12:27:59Z</time>
      </trkpt>
      <trkpt lat="43.92252" lon="7.23059">
        <ele>938</ele>
        <time>2018-05-09T12:28:59Z</time>
      </trkpt>
      <trkpt lat="43.92254" lon="7.2305">
        <ele>939</ele>
        <time>2018-05-09T12:29:59Z</time>
      </trkpt>
      <trkpt lat="43.92257" lon="7.22996">
        <ele>950</ele>
        <time>2018-05-09T12:30:59Z</time>
      </trkpt>
      <trkpt lat="43.92259" lon="7.22989">
        <ele>951</ele>
        <time>2018-05-09T12:31:59Z</time>
      </trkpt>
      <trkpt lat="43.92265" lon="7.22977">
        <ele>952</ele>
        <time>2018-05-09T12:32:59Z</time>
      </trkpt>
      <trkpt lat="43.9228" lon="7.22957">
        <ele>951</ele>
        <time>2018-05-09T12:33:59Z</time>
      </trkpt>
      <trkpt lat="43.92289" lon="7.22943">
        <ele>951</ele>
        <time>2018-05-09T12:34:59Z</time>
      </trkpt>
      <trkpt lat="43.92298" lon="7.22931">
        <ele>951</ele>
        <time>2018-05-09T12:35:59Z</time>
      </trkpt>
      <trkpt lat="43.92303" lon="7.22917">
        <ele>953</ele>
        <time>2018-05-09T12:36:59Z</time>
      </trkpt>
      <trkpt lat="43.92304" lon="7.22908">
        <ele>956</ele>
        <time>2018-05-09T12:37:59Z</time>
      </trkpt>
      <trkpt lat="43.92304" lon="7.22904">
        <ele>958</ele>
        <time>2018-05-09T12:38:59Z</time>
      </trkpt>
      <trkpt lat="43.92306" lon="7.22898">
        <ele>959</ele>
        <time>2018-05-09T12:39:59Z</time>
      </trkpt>
      <trkpt lat="43.92307" lon="7.22896">
        <ele>960</ele>
        <time>2018-05-09T12:40:59Z</time>
      </trkpt>
      <trkpt lat="43.92308" lon="7.22883">
        <ele>965</ele>
        <time>2018-05-09T12:41:59Z</time>
      </trkpt>
      <trkpt lat="43.9231" lon="7.22879">
        <ele>966</ele>
        <time>2018-05-09T12:42:59Z</time>
      </trkpt>
      <trkpt lat="43.92318" lon="7.22872">
        <ele>965</ele>
        <time>2018-05-09T12:43:59Z</time>
      </trkpt>
      <trkpt lat="43.92323" lon="7.22867">
        <ele>965</ele>
        <time>2018-05-09T12:44:59Z</time>
      </trkpt>
      <trkpt lat="43.92328" lon="7.2286">
        <ele>966</ele>
        <time>2018-05-09T12:45:59Z</time>
      </trkpt>
      <trkpt lat="43.92336" lon="7.22853">
        <ele>966</ele>
        <time>2018-05-09T12:46:59Z</time>
      </trkpt>
      <trkpt lat="43.92344" lon="7.22848">
        <ele>967</ele>
        <time>2018-05-09T12:47:59Z</time>
      </trkpt>
      <trkpt lat="43.92346" lon="7.22846">
        <ele>967</ele>
        <time>2018-05-09T12:48:59Z</time>
      </trkpt>
      <trkpt lat="43.92358" lon="7.22847">
        <ele>965</ele>
        <time>2018-05-09T12:49:59Z</time>
      </trkpt>
      <trkpt lat="43.92361" lon="7.22847">
        <ele>965</ele>
        <time>2018-05-09T12:50:59Z</time>
      </trkpt>
      <trkpt lat="43.92373" lon="7.22842">
        <ele>965</ele>
        <time>2018-05-09T12:51:59Z</time>
      </trkpt>
      <trkpt lat="43.92392" lon="7.22834">
        <ele>967</ele>
        <time>2018-05-09T12:52:59Z</time>
      </trkpt>
      <trkpt lat="43.92407" lon="7.22842">
        <ele>961</ele>
        <time>2018-05-09T12:53:59Z</time>
      </trkpt>
      <trkpt lat="43.92414" lon="7.22848">
        <ele>957</ele>
        <time>2018-05-09T12:54:59Z</time>
      </trkpt>
      <trkpt lat="43.92427" lon="7.22857">
        <ele>952</ele>
        <time>2018-05-09T12:55:59Z</time>
      </trkpt>
      <trkpt lat="43.92451" lon="7.22854">
        <ele>951</ele>
        <time>2018-05-09T12:56:59Z</time>
      </trkpt>
      <trkpt lat="43.92464" lon="7.22849">
        <ele>951</ele>
        <time>2018-05-09T12:57:59Z</time>
      </trkpt>
      <trkpt lat="43.92475" lon="7.2284">
        <ele>954</ele>
        <time>2018-05-09T12:58:59Z</time>
      </trkpt>
      <trkpt lat="43.92486" lon="7.22827">
        <ele>957</ele>
        <time>2018-05-09T12:59:59Z</time>
      </trkpt>
      <trkpt lat="43.925" lon="7.22816">
        <ele>959</ele>
        <time>2018-05-09T13:00:59Z</time>
      </trkpt>
      <trkpt lat="43.9253" lon="7.22798">
        <ele>956</ele>
        <time>2018-05-09T13:01:59Z</time>
      </trkpt>
      <trkpt lat="43.92538" lon="7.22785">
        <ele>958</ele>
        <time>2018-05-09T13:02:59Z</time>
      </trkpt>
      <trkpt lat="43.92541" lon="7.22776">
        <ele>959</ele>
        <time>2018-05-09T13:03:59Z</time>
      </trkpt>
      <trkpt lat="43.92544" lon="7.22763">
        <ele>963</ele>
        <time>2018-05-09T13:04:59Z</time>
      </trkpt>
      <trkpt lat="43.92543" lon="7.22754">
        <ele>966</ele>
        <time>2018-05-09T13:05:59Z</time>
      </trkpt>
      <trkpt lat="43.92542" lon="7.22741">
        <ele>967</ele>
        <time>2018-05-09T13:06:59Z</time>
      </trkpt>
      <trkpt lat="43.92538" lon="7.22715">
        <ele>966</ele>
        <time>2018-05-09T13:07:59Z</time>
      </trkpt>
      <trkpt lat="43.92533" lon="7.22674">
        <ele>965</ele>
        <time>2018-05-09T13:08:59Z</time>
      </trkpt>
      <trkpt lat="43.92531" lon="7.22658">
        <ele>964</ele>
        <time>2018-05-09T13:09:59Z</time>
      </trkpt>
      <trkpt lat="43.92522" lon="7.22633">
        <ele>963</ele>
        <time>2018-05-09T13:10:59Z</time>
      </trkpt>
      <trkpt lat="43.9252" lon="7.22628">
        <ele>962</ele>
        <time>2018-05-09T13:11:59Z</time>
      </trkpt>
      <trkpt lat="43.92518" lon="7.22621">
        <ele>962</ele>
        <time>2018-05-09T13:12:59Z</time>
      </trkpt>
      <trkpt lat="43.92514" lon="7.22606">
        <ele>960</ele>
        <time>2018-05-09T13:13:59Z</time>
      </trkpt>
      <trkpt lat="43.92502" lon="7.22578">
        <ele>958</ele>
        <time>2018-05-09T13:14:59Z</time>
      </trkpt>
      <trkpt lat="43.92496" lon="7.22566">
        <ele>955</ele>
        <time>2018-05-09T13:15:59Z</time>
      </trkpt>
      <trkpt lat="43.92488" lon="7.22557">
        <ele>953</ele>
        <time>2018-05-09T13:16:59Z</time>
      </trkpt>
      <trkpt lat="43.9247" lon="7.22557">
        <ele>953</ele>
        <time>2018-05-09T13:17:59Z</time>
      </trkpt>
      <trkpt lat="43.92458" lon="7.22562">
        <ele>955</ele>
        <time>2018-05-09T13:18:59Z</time>
      </trkpt>
      <trkpt lat="43.92451" lon="7.22566">
        <ele>957</ele>
        <time>2018-05-09T13:19:59Z</time>
      </trkpt>
      <trkpt lat="43.9244" lon="7.22576">
        <ele>961</ele>
        <time>2018-05-09T13:20:59Z</time>
      </trkpt>
      <trkpt lat="43.92431" lon="7.22589">
        <ele>967</ele>
        <time>2018-05-09T13:21:59Z</time>
      </trkpt>
      <trkpt lat="43.92427" lon="7.22593">
        <ele>968</ele>
        <time>2018-05-09T13:22:59Z</time>
      </trkpt>
      <trkpt lat="43.92412" lon="7.22593">
        <ele>970</ele>
        <time>2018-05-09T13:23:59Z</time>
      </trkpt>
      <trkpt lat="43.92393" lon="7.22584">
        <ele>972</ele>
        <time>2018-05-09T13:24:59Z</time>
      </trkpt>
      <trkpt lat="43.92384" lon="7.22583">
        <ele>974</ele>
        <time>2018-05-09T13:25:59Z</time>
      </trkpt>
      <trkpt lat="43.92377" lon="7.22581">
        <ele>975</ele>
        <time>2018-05-09T13:26:59Z</time>
      </trkpt>
      <trkpt lat="43.92364" lon="7.22584">
        <ele>980</ele>
        <time>2018-05-09T13:27:59Z</time>
      </trkpt>
      <trkpt lat="43.92362" lon="7.22584">
        <ele>980</ele>
        <time>2018-05-09T13:28:59Z</time>
      </trkpt>
      <trkpt lat="43.92357" lon="7.22578">
        <ele>980</ele>
        <time>2018-05-09T13:29:59Z</time>
      </trkpt>
      <trkpt lat="43.92354" lon="7.22574">
        <ele>980</ele>
        <time>2018-05-09T13:30:59Z</time>
      </trkpt>
      <trkpt lat="43.92342" lon="7.22538">
        <ele>974</ele>
        <time>2018-05-09T13:31:59Z</time>
      </trkpt>
      <trkpt lat="43.92335" lon="7.22524">
        <ele>973</ele>
        <time>2018-05-09T13:32:59Z</time>
      </trkpt>
      <trkpt lat="43.92341" lon="7.22507">
        <ele>967</ele>
        <time>2018-05-09T13:33:59Z</time>
      </trkpt>
      <trkpt lat="43.92342" lon="7.225">
        <ele>964</ele>
        <time>2018-05-09T13:34:59Z</time>
      </trkpt>
      <trkpt lat="43.92344" lon="7.22477">
        <ele>960</ele>
        <time>2018-05-09T13:35:59Z</time>
      </trkpt>
      <trkpt lat="43.92343" lon="7.22461">
        <ele>958</ele>
        <time>2018-05-09T13:36:59Z</time>
      </trkpt>
      <trkpt lat="43.92337" lon="7.22452">
        <ele>959</ele>
        <time>2018-05-09T13:37:59Z</time>
      </trkpt>
      <trkpt lat="43.92325" lon="7.22445">
        <ele>964</ele>
        <time>2018-05-09T13:38:59Z</time>
      </trkpt>
      <trkpt lat="43.92308" lon="7.2244">
        <ele>972</ele>
        <time>2018-05-09T13:39:59Z</time>
      </trkpt>
      <trkpt lat="43.92302" lon="7.22435">
        <ele>975</ele>
        <time>2018-05-09T13:40:59Z</time>
      </trkpt>
      <trkpt lat="43.92302" lon="7.22431">
        <ele>974</ele>
        <time>2018-05-09T13:41:59Z</time>
      </trkpt>
      <trkpt lat="43.92301" lon="7.2242">
        <ele>973</ele>
        <time>2018-05-09T13:42:59Z</time>
      </trkpt>
      <trkpt lat="43.92301" lon="7.22418">
        <ele>972</ele>
        <time>2018-05-09T13:43:59Z</time>
      </trkpt>
      <trkpt lat="43.92299" lon="7.22413">
        <ele>972</ele>
        <time>2018-05-09T13:44:59Z</time>
      </trkpt>
      <trkpt lat="43.92298" lon="7.22406">
        <ele>971</ele>
        <time>2018-05-09T13:45:59Z</time>
      </trkpt>
      <trkpt lat="43.92295" lon="7.224">
        <ele>971</ele>
        <time>2018-05-09T13:46:59Z</time>
      </trkpt>
      <trkpt lat="43.92292" lon="7.22398">
        <ele>972</ele>
        <time>2018-05-09T13:47:59Z</time>
      </trkpt>
      <trkpt lat="43.92291" lon="7.22397">
        <ele>972</ele>
        <time>2018-05-09T13:48:59Z</time>
      </trkpt>
      <trkpt lat="43.92284" lon="7.22388">
        <ele>973</ele>
        <time>2018-05-09T13:49:59Z</time>
      </trkpt>
      <trkpt lat="43.9228" lon="7.22384">
        <ele>973</ele>
        <time>2018-05-09T13:50:59Z</time>
      </trkpt>
      <trkpt lat="43.9227" lon="7.22361">
        <ele>971</ele>
        <time>2018-05-09T13:51:59Z</time>
      </trkpt>
      <trkpt lat="43.92269" lon="7.22358">
        <ele>971</ele>
        <time>2018-05-09T13:52:59Z</time>
      </trkpt>
      <trkpt lat="43.92264" lon="7.22355">
        <ele>972</ele>
        <time>2018-05-09T13:53:59Z</time>
      </trkpt>
      <trkpt lat="43.9226" lon="7.22349">
        <ele>972</ele>
        <time>2018-05-09T13:54:59Z</time>
      </trkpt>
      <trkpt lat="43.92253" lon="7.22345">
        <ele>974</ele>
        <time>2018-05-09T13:55:59Z</time>
      </trkpt>
      <trkpt lat="43.92246" lon="7.22343">
        <ele>976</ele>
        <time>2018-05-09T13:56:59Z</time>
      </trkpt>
      <trkpt lat="43.92242" lon="7.22341">
        <ele>977</ele>
        <time>2018-05-09T13:57:59Z</time>
      </trkpt>
      <trkpt lat="43.92233" lon="7.22338">
        <ele>979</ele>
        <time>2018-05-09T13:58:59Z</time>
      </trkpt>
      <trkpt lat="43.92229" lon="7.22338">
        <ele>980</ele>
        <time>2018-05-09T13:59:59Z</time>
      </trkpt>
      <trkpt lat="43.92222" lon="7.22336">
        <ele>982</ele>
        <time>2018-05-09T14:00:59Z</time>
      </trkpt>
      <trkpt lat="43.9222" lon="7.22336">
        <ele>983</ele>
        <time>2018-05-09T14:01:59Z</time>
      </trkpt>
      <trkpt lat="43.92215" lon="7.22336">
        <ele>985</ele>
        <time>2018-05-09T14:02:59Z</time>
      </trkpt>
      <trkpt lat="43.92214" lon="7.22335">
        <ele>985</ele>
        <time>2018-05-09T14:03:59Z</time>
      </trkpt>
      <trkpt lat="43.92211" lon="7.22333">
        <ele>985</ele>
        <time>2018-05-09T14:04:59Z</time>
      </trkpt>
      <trkpt lat="43.92209" lon="7.22334">
        <ele>986</ele>
        <time>2018-05-09T14:05:59Z</time>
      </trkpt>
      <trkpt lat="43.92208" lon="7.22333">
        <ele>986</ele>
        <time>2018-05-09T14:06:59Z</time>
      </trkpt>
      <trkpt lat="43.92201" lon="7.22333">
        <ele>988</ele>
        <time>2018-05-09T14:07:59Z</time>
      </trkpt>
      <trkpt lat="43.92188" lon="7.22331">
        <ele>992</ele>
        <time>2018-05-09T14:08:59Z</time>
      </trkpt>
      <trkpt lat="43.92185" lon="7.2233">
        <ele>992</ele>
        <time>2018-05-09T14:09:59Z</time>
      </trkpt>
      <trkpt lat="43.9218" lon="7.22331">
        <ele>994</ele>
        <time>2018-05-09T14:10:59Z</time>
      </trkpt>
      <trkpt lat="43.92178" lon="7.22331">
        <ele>995</ele>
        <time>2018-05-09T14:11:59Z</time>
      </trkpt>
      <trkpt lat="43.92176" lon="7.22329">
        <ele>995</ele>
        <time>2018-05-09T14:12:59Z</time>
      </trkpt>
      <trkpt lat="43.92173" lon="7.22327">
        <ele>995</ele>
        <time>2018-05-09T14:13:59Z</time>
      </trkpt>
      <trkpt lat="43.92167" lon="7.22329">
        <ele>998</ele>
        <time>2018-05-09T14:14:59Z</time>
      </trkpt>
      <trkpt lat="43.9216" lon="7.2233">
        <ele>1001</ele>
        <time>2018-05-09T14:15:59Z</time>
      </trkpt>
      <trkpt lat="43.92157" lon="7.22329">
        <ele>1001</ele>
        <time>2018-05-09T14:16:59Z</time>
      </trkpt>
      <trkpt lat="43.92156" lon="7.22328">
        <ele>1001</ele>
        <time>2018-05-09T14:17:59Z</time>
      </trkpt>
      <trkpt lat="43.92153" lon="7.22328">
        <ele>1002</ele>
        <time>2018-05-09T14:18:59Z</time>
      </trkpt>
      <trkpt lat="43.92149" lon="7.22328">
        <ele>1003</ele>
        <time>2018-05-09T14:19:59Z</time>
      </trkpt>
      <trkpt lat="43.92145" lon="7.22326">
        <ele>1004</ele>
        <time>2018-05-09T14:20:59Z</time>
      </trkpt>
      <trkpt lat="43.92144" lon="7.22326">
        <ele>1004</ele>
        <time>2018-05-09T14:21:59Z</time>
      </trkpt>
      <trkpt lat="43.9214" lon="7.22323">
        <ele>1004</ele>
        <time>2018-05-09T14:22:59Z</time>
      </trkpt>
      <trkpt lat="43.92138" lon="7.2232">
        <ele>1004</ele>
        <time>2018-05-09T14:23:59Z</time>
      </trkpt>
      <trkpt lat="43.92134" lon="7.22318">
        <ele>1004</ele>
        <time>2018-05-09T14:24:59Z</time>
      </trkpt>
      <trkpt lat="43.9213" lon="7.22315">
        <ele>1004</ele>
        <time>2018-05-09T14:25:59Z</time>
      </trkpt>
      <trkpt lat="43.92127" lon="7.2231">
        <ele>1003</ele>
        <time>2018-05-09T14:26:59Z</time>
      </trkpt>
      <trkpt lat="43.92124" lon="7.22309">
        <ele>1004</ele>
        <time>2018-05-09T14:27:59Z</time>
      </trkpt>
      <trkpt lat="43.92114" lon="7.2231">
        <ele>1008</ele>
        <time>2018-05-09T14:28:59Z</time>
      </trkpt>
      <trkpt lat="43.9211" lon="7.22312">
        <ele>1010</ele>
        <time>2018-05-09T14:29:59Z</time>
      </trkpt>
      <trkpt lat="43.92108" lon="7.22312">
        <ele>1011</ele>
        <time>2018-05-09T14:30:59Z</time>
      </trkpt>
      <trkpt lat="43.92105" lon="7.22312">
        <ele>1012</ele>
        <time>2018-05-09T14:31:59Z</time>
      </trkpt>
      <trkpt lat="43.921" lon="7.2231">
        <ele>1013</ele>
        <time>2018-05-09T14:32:59Z</time>
      </trkpt>
      <trkpt lat="43.921" lon="7.22309">
        <ele>1012</ele>
        <time>2018-05-09T14:33:59Z</time>
      </trkpt>
      <trkpt lat="43.92095" lon="7.22308">
        <ele>1014</ele>
        <time>2018-05-09T14:34:59Z</time>
      </trkpt>
      <trkpt lat="43.92088" lon="7.2231">
        <ele>1017</ele>
        <time>2018-05-09T14:35:59Z</time>
      </trkpt>
      <trkpt lat="43.92087" lon="7.2231">
        <ele>1017</ele>
        <time>2018-05-09T14:36:59Z</time>
      </trkpt>
      <trkpt lat="43.92083" lon="7.22309">
        <ele>1018</ele>
        <time>2018-05-09T14:37:59Z</time>
      </trkpt>
      <trkpt lat="43.92082" lon="7.22309">
        <ele>1019</ele>
        <time>2018-05-09T14:38:59Z</time>
      </trkpt>
      <trkpt lat="43.92081" lon="7.2231">
        <ele>1019</ele>
        <time>2018-05-09T14:39:59Z</time>
      </trkpt>
      <trkpt lat="43.92076" lon="7.22309">
        <ele>1020</ele>
        <time>2018-05-09T14:40:59Z</time>
      </trkpt>
      <trkpt lat="43.92074" lon="7.22308">
        <ele>1021</ele>
        <time>2018-05-09T14:41:59Z</time>
      </trkpt>
      <trkpt lat="43.92066" lon="7.22309">
        <ele>1024</ele>
        <time>2018-05-09T14:42:59Z</time>
      </trkpt>
      <trkpt lat="43.92066" lon="7.22309">
        <ele>1024</ele>
        <time>2018-05-09T14:43:59Z</time>
      </trkpt>
      <trkpt lat="43.92063" lon="7.22308">
        <ele>1024</ele>
        <time>2018-05-09T14:44:59Z</time>
      </trkpt>
      <trkpt lat="43.92061" lon="7.22306">
        <ele>1024</ele>
        <time>2018-05-09T14:45:59Z</time>
      </trkpt>
      <trkpt lat="43.92055" lon="7.22307">
        <ele>1027</ele>
        <time>2018-05-09T14:46:59Z</time>
      </trkpt>
      <trkpt lat="43.92052" lon="7.22306">
        <ele>1027</ele>
        <time>2018-05-09T14:47:59Z</time>
      </trkpt>
      <trkpt lat="43.92047" lon="7.22304">
        <ele>1028</ele>
        <time>2018-05-09T14:48:59Z</time>
      </trkpt>
      <trkpt lat="43.92042" lon="7.22301">
        <ele>1029</ele>
        <time>2018-05-09T14:49:59Z</time>
      </trkpt>
      <trkpt lat="43.92038" lon="7.22301">
        <ele>1030</ele>
        <time>2018-05-09T14:50:59Z</time>
      </trkpt>
      <trkpt lat="43.92032" lon="7.223">
        <ele>1032</ele>
        <time>2018-05-09T14:51:59Z</time>
      </trkpt>
      <trkpt lat="43.92025" lon="7.22296">
        <ele>1033</ele>
        <time>2018-05-09T14:52:59Z</time>
      </trkpt>
      <trkpt lat="43.92015" lon="7.22293">
        <ele>1036</ele>
        <time>2018-05-09T14:53:59Z</time>
      </trkpt>
      <trkpt lat="43.92013" lon="7.22291">
        <ele>1036</ele>
        <time>2018-05-09T14:54:59Z</time>
      </trkpt>
      <trkpt lat="43.92013" lon="7.22291">
        <ele>1036</ele>
        <time>2018-05-09T14:55:59Z</time>
      </trkpt>
      <trkpt lat="43.9201" lon="7.22291">
        <ele>1037</ele>
        <time>2018-05-09T14:56:59Z</time>
      </trkpt>
      <trkpt lat="43.92005" lon="7.22291">
        <ele>1039</ele>
        <time>2018-05-09T14:57:59Z</time>
      </trkpt>
      <trkpt lat="43.92001" lon="7.2229">
        <ele>1040</ele>
        <time>2018-05-09T14:58:59Z</time>
      </trkpt>
      <trkpt lat="43.91992" lon="7.22286">
        <ele>1040</ele>
        <time>2018-05-09T14:59:59Z</time>
      </trkpt>
      <trkpt lat="43.91985" lon="7.22286">
        <ele>1042</ele>
        <time>2018-05-09T15:00:59Z</time>
      </trkpt>
      <trkpt lat="43.91978" lon="7.22289">
        <ele>1043</ele>
        <time>2018-05-09T15:01:59Z</time>
      </trkpt>
      <trkpt lat="43.91975" lon="7.22288">
        <ele>1044</ele>
        <time>2018-05-09T15:02:59Z</time>
      </trkpt>
      <trkpt lat="43.91969" lon="7.2228">
        <ele>1043</ele>
        <time>2018-05-09T15:03:59Z</time>
      </trkpt>
      <trkpt lat="43.91968" lon="7.22276">
        <ele>1042</ele>
        <time>2018-05-09T15:04:59Z</time>
      </trkpt>
      <trkpt lat="43.91965" lon="7.22267">
        <ele>1041</ele>
        <time>2018-05-09T15:05:59Z</time>
      </trkpt>
      <trkpt lat="43.91959" lon="7.22257">
        <ele>1041</ele>
        <time>2018-05-09T15:06:59Z</time>
      </trkpt>
      <trkpt lat="43.91958" lon="7.22254">
        <ele>1041</ele>
        <time>2018-05-09T15:07:59Z</time>
      </trkpt>
      <trkpt lat="43.9195" lon="7.22249">
        <ele>1042</ele>
        <time>2018-05-09T15:08:59Z</time>
      </trkpt>
      <trkpt lat="43.91946" lon="7.22246">
        <ele>1041</ele>
        <time>2018-05-09T15:09:59Z</time>
      </trkpt>
      <trkpt lat="43.9194" lon="7.22244">
        <ele>1042</ele>
        <time>2018-05-09T15:10:59Z</time>
      </trkpt>
      <trkpt lat="43.91931" lon="7.22241">
        <ele>1043</ele>
        <time>2018-05-09T15:11:59Z</time>
      </trkpt>
      <trkpt lat="43.91926" lon="7.22247">
        <ele>1047</ele>
        <time>2018-05-09T15:12:59Z</time>
      </trkpt>
      <trkpt lat="43.91922" lon="7.22253">
        <ele>1049</ele>
        <time>2018-05-09T15:13:59Z</time>
      </trkpt>
      <trkpt lat="43.91917" lon="7.22261">
        <ele>1051</ele>
        <time>2018-05-09T15:14:59Z</time>
      </trkpt>
      <trkpt lat="43.91911" lon="7.22267">
        <ele>1050</ele>
        <time>2018-05-09T15:15:59Z</time>
      </trkpt>
      <trkpt lat="43.91909" lon="7.2227">
        <ele>1050</ele>
        <time>2018-05-09T15:16:59Z</time>
      </trkpt>
      <trkpt lat="43.91907" lon="7.22275">
        <ele>1050</ele>
        <time>2018-05-09T15:17:59Z</time>
      </trkpt>
      <trkpt lat="43.91904" lon="7.22293">
        <ele>1050</ele>
        <time>2018-05-09T15:18:59Z</time>
      </trkpt>
      <trkpt lat="43.91899" lon="7.22319">
        <ele>1050</ele>
        <time>2018-05-09T15:19:59Z</time>
      </trkpt>
      <trkpt lat="43.919" lon="7.2234">
        <ele>1051</ele>
        <time>2018-05-09T15:20:59Z</time>
      </trkpt>
      <trkpt lat="43.91903" lon="7.22349">
        <ele>1052</ele>
        <time>2018-05-09T15:21:59Z</time>
      </trkpt>
      <trkpt lat="43.91907" lon="7.22365">
        <ele>1053</ele>
        <time>2018-05-09T15:22:59Z</time>
      </trkpt>
      <trkpt lat="43.91907" lon="7.22387">
        <ele>1053</ele>
        <time>2018-05-09T15:23:59Z</time>
      </trkpt>
      <trkpt lat="43.91906" lon="7.22408">
        <ele>1053</ele>
        <time>2018-05-09T15:24:59Z</time>
      </trkpt>
      <trkpt lat="43.91904" lon="7.22415">
        <ele>1052</ele>
        <time>2018-05-09T15:25:59Z</time>
      </trkpt>
      <trkpt lat="43.91893" lon="7.22445">
        <ele>1054</ele>
        <time>2018-05-09T15:26:59Z</time>
      </trkpt>
      <trkpt lat="43.91889" lon="7.22451">
        <ele>1054</ele>
        <time>2018-05-09T15:27:59Z</time>
      </trkpt>
      <trkpt lat="43.91873" lon="7.22468">
        <ele>1051</ele>
        <time>2018-05-09T15:28:59Z</time>
      </trkpt>
      <trkpt lat="43.9187" lon="7.22471">
        <ele>1051</ele>
        <time>2018-05-09T15:29:59Z</time>
      </trkpt>
      <trkpt lat="43.91843" lon="7.22492">
        <ele>1045</ele>
        <time>2018-05-09T15:30:59Z</time>
      </trkpt>
      <trkpt lat="43.91835" lon="7.22501">
        <ele>1044</ele>
        <time>2018-05-09T15:31:59Z</time>
      </trkpt>
      <trkpt lat="43.9183" lon="7.22506">
        <ele>1044</ele>
        <time>2018-05-09T15:32:59Z</time>
      </trkpt>
      <trkpt lat="43.91808" lon="7.22532">
        <ele>1047</ele>
        <time>2018-05-09T15:33:59Z</time>
      </trkpt>
      <trkpt lat="43.91792" lon="7.22553">
        <ele>1050</ele>
        <time>2018-05-09T15:34:59Z</time>
      </trkpt>
      <trkpt lat="43.91787" lon="7.22559">
        <ele>1051</ele>
        <time>2018-05-09T15:35:59Z</time>
      </trkpt>
      <trkpt lat="43.91783" lon="7.22562">
        <ele>1051</ele>
        <time>2018-05-09T15:36:59Z</time>
      </trkpt>
      <trkpt lat="43.91764" lon="7.2257">
        <ele>1049</ele>
        <time>2018-05-09T15:37:59Z</time>
      </trkpt>
      <trkpt lat="43.91745" lon="7.2258">
        <ele>1047</ele>
        <time>2018-05-09T15:38:59Z</time>
      </trkpt>
      <trkpt lat="43.91734" lon="7.22586">
        <ele>1046</ele>
        <time>2018-05-09T15:39:59Z</time>
      </trkpt>
      <trkpt lat="43.91725" lon="7.22594">
        <ele>1044</ele>
        <time>2018-05-09T15:40:59Z</time>
      </trkpt>
      <trkpt lat="43.91716" lon="7.22606">
        <ele>1043</ele>
        <time>2018-05-09T15:41:59Z</time>
      </trkpt>
      <trkpt lat="43.91706" lon="7.22633">
        <ele>1042</ele>
        <time>2018-05-09T15:42:59Z</time>
      </trkpt>
      <trkpt lat="43.91694" lon="7.22667">
        <ele>1041</ele>
        <time>2018-05-09T15:43:59Z</time>
      </trkpt>
      <trkpt lat="43.91692" lon="7.22679">
        <ele>1039</ele>
        <time>2018-05-09T15:44:59Z</time>
      </trkpt>
      <trkpt lat="43.91686" lon="7.227">
        <ele>1037</ele>
        <time>2018-05-09T15:45:59Z</time>
      </trkpt>
      <trkpt lat="43.91682" lon="7.22709">
        <ele>1035</ele>
        <time>2018-05-09T15:46:59Z</time>
      </trkpt>
      <trkpt lat="43.91679" lon="7.22718">
        <ele>1033</ele>
        <time>2018-05-09T15:47:59Z</time>
      </trkpt>
      <trkpt lat="43.91677" lon="7.22727">
        <ele>1032</ele>
        <time>2018-05-09T15:48:59Z</time>
      </trkpt>
      <trkpt lat="43.91677" lon="7.22736">
        <ele>1031</ele>
        <time>2018-05-09T15:49:59Z</time>
      </trkpt>
      <trkpt lat="43.91677" lon="7.22746">
        <ele>1030</ele>
        <time>2018-05-09T15:50:59Z</time>
      </trkpt>
      <trkpt lat="43.91676" lon="7.22766">
        <ele>1032</ele>
        <time>2018-05-09T15:51:59Z</time>
      </trkpt>
      <trkpt lat="43.91674" lon="7.22775">
        <ele>1032</ele>
        <time>2018-05-09T15:52:59Z</time>
      </trkpt>
      <trkpt lat="43.91671" lon="7.22783">
        <ele>1031</ele>
        <time>2018-05-09T15:53:59Z</time>
      </trkpt>
      <trkpt lat="43.9166" lon="7.22793">
        <ele>1029</ele>
        <time>2018-05-09T15:54:59Z</time>
      </trkpt>
      <trkpt lat="43.91655" lon="7.22799">
        <ele>1028</ele>
        <time>2018-05-09T15:55:59Z</time>
      </trkpt>
      <trkpt lat="43.9165" lon="7.22805">
        <ele>1027</ele>
        <time>2018-05-09T15:56:59Z</time>
      </trkpt>
      <trkpt lat="43.91645" lon="7.22812">
        <ele>1026</ele>
        <time>2018-05-09T15:57:59Z</time>
      </trkpt>
      <trkpt lat="43.91641" lon="7.22819">
        <ele>1026</ele>
        <time>2018-05-09T15:58:59Z</time>
      </trkpt>
      <trkpt lat="43.91638" lon="7.22826">
        <ele>1025</ele>
        <time>2018-05-09T15:59:59Z</time>
      </trkpt>
      <trkpt lat="43.91636" lon="7.22832">
        <ele>1025</ele>
        <time>2018-05-09T16:00:59Z</time>
      </trkpt>
      <trkpt lat="43.91634" lon="7.22843">
        <ele>1026</ele>
        <time>2018-05-09T16:01:59Z</time>
      </trkpt>
      <trkpt lat="43.91633" lon="7.22867">
        <ele>1030</ele>
        <time>2018-05-09T16:02:59Z</time>
      </trkpt>
      <trkpt lat="43.91632" lon="7.2287">
        <ele>1030</ele>
        <time>2018-05-09T16:03:59Z</time>
      </trkpt>
      <trkpt lat="43.91631" lon="7.22875">
        <ele>1030</ele>
        <time>2018-05-09T16:04:59Z</time>
      </trkpt>
      <trkpt lat="43.91628" lon="7.22881">
        <ele>1030</ele>
        <time>2018-05-09T16:05:59Z</time>
      </trkpt>
      <trkpt lat="43.91627" lon="7.22883">
        <ele>1030</ele>
        <time>2018-05-09T16:06:59Z</time>
      </trkpt>
      <trkpt lat="43.91622" lon="7.22892">
        <ele>1030</ele>
        <time>2018-05-09T16:07:59Z</time>
      </trkpt>
      <trkpt lat="43.91617" lon="7.22904">
        <ele>1030</ele>
        <time>2018-05-09T16:08:59Z</time>
      </trkpt>
      <trkpt lat="43.91615" lon="7.2291">
        <ele>1030</ele>
        <time>2018-05-09T16:09:59Z</time>
      </trkpt>
      <trkpt lat="43.91607" lon="7.22927">
        <ele>1029</ele>
        <time>2018-05-09T16:10:59Z</time>
      </trkpt>
      <trkpt lat="43.91603" lon="7.22939">
        <ele>1028</ele>
        <time>2018-05-09T16:11:59Z</time>
      </trkpt>
      <trkpt lat="43.91604" lon="7.2295">
        <ele>1030</ele>
        <time>2018-05-09T16:12:59Z</time>
      </trkpt>
      <trkpt lat="43.91604" lon="7.2296">
        <ele>1030</ele>
        <time>2018-05-09T16:13:59Z</time>
      </trkpt>
      <trkpt lat="43.91604" lon="7.22967">
        <ele>1031</ele>
        <time>2018-05-09T16:14:59Z</time>
      </trkpt>
      <trkpt lat="43.91604" lon="7.22977">
        <ele>1032</ele>
        <time>2018-05-09T16:15:59Z</time>
      </trkpt>
      <trkpt lat="43.91605" lon="7.23">
        <ele>1033</ele>
        <time>2018-05-09T16:16:59Z</time>
      </trkpt>
      <trkpt lat="43.91607" lon="7.23013">
        <ele>1035</ele>
        <time>2018-05-09T16:17:59Z</time>
      </trkpt>
      <trkpt lat="43.91609" lon="7.23023">
        <ele>1035</ele>
        <time>2018-05-09T16:18:59Z</time>
      </trkpt>
      <trkpt lat="43.9161" lon="7.23028">
        <ele>1036</ele>
        <time>2018-05-09T16:19:59Z</time>
      </trkpt>
      <trkpt lat="43.91612" lon="7.23039">
        <ele>1036</ele>
        <time>2018-05-09T16:20:59Z</time>
      </trkpt>
      <trkpt lat="43.91613" lon="7.23045">
        <ele>1037</ele>
        <time>2018-05-09T16:21:59Z</time>
      </trkpt>
      <trkpt lat="43.91617" lon="7.23054">
        <ele>1037</ele>
        <time>2018-05-09T16:22:59Z</time>
      </trkpt>
      <trkpt lat="43.91622" lon="7.23061">
        <ele>1038</ele>
        <time>2018-05-09T16:23:59Z</time>
      </trkpt>
      <trkpt lat="43.91624" lon="7.23066">
        <ele>1038</ele>
        <time>2018-05-09T16:24:59Z</time>
      </trkpt>
      <trkpt lat="43.91626" lon="7.23073">
        <ele>1038</ele>
        <time>2018-05-09T16:25:59Z</time>
      </trkpt>
      <trkpt lat="43.91626" lon="7.23078">
        <ele>1038</ele>
        <time>2018-05-09T16:26:59Z</time>
      </trkpt>
      <trkpt lat="43.91627" lon="7.23085">
        <ele>1037</ele>
        <time>2018-05-09T16:27:59Z</time>
      </trkpt>
      <trkpt lat="43.91627" lon="7.23093">
        <ele>1037</ele>
        <time>2018-05-09T16:28:59Z</time>
      </trkpt>
      <trkpt lat="43.91621" lon="7.23114">
        <ele>1035</ele>
        <time>2018-05-09T16:29:59Z</time>
      </trkpt>
      <trkpt lat="43.91618" lon="7.23118">
        <ele>1035</ele>
        <time>2018-05-09T16:30:59Z</time>
      </trkpt>
      <trkpt lat="43.91617" lon="7.23119">
        <ele>1035</ele>
        <time>2018-05-09T16:31:59Z</time>
      </trkpt>
      <trkpt lat="43.91614" lon="7.23119">
        <ele>1036</ele>
        <time>2018-05-09T16:32:59Z</time>
      </trkpt>
      <trkpt lat="43.9161" lon="7.23118">
        <ele>1036</ele>
        <time>2018-05-09T16:33:59Z</time>
      </trkpt>
      <trkpt lat="43.91604" lon="7.23115">
        <ele>1037</ele>
        <time>2018-05-09T16:34:59Z</time>
      </trkpt>
      <trkpt lat="43.9159" lon="7.23107">
        <ele>1038</ele>
        <time>2018-05-09T16:35:59Z</time>
      </trkpt>
      <trkpt lat="43.91588" lon="7.23107">
        <ele>1038</ele>
        <time>2018-05-09T16:36:59Z</time>
      </trkpt>
      <trkpt lat="43.91576" lon="7.2311">
        <ele>1039</ele>
        <time>2018-05-09T16:37:59Z</time>
      </trkpt>
      <trkpt lat="43.91572" lon="7.23112">
        <ele>1039</ele>
        <time>2018-05-09T16:38:59Z</time>
      </trkpt>
      <trkpt lat="43.9157" lon="7.23113">
        <ele>1039</ele>
        <time>2018-05-09T16:39:59Z</time>
      </trkpt>
      <trkpt lat="43.91552" lon="7.23127">
        <ele>1041</ele>
        <time>2018-05-09T16:40:59Z</time>
      </trkpt>
      <trkpt lat="43.91541" lon="7.23136">
        <ele>1042</ele>
        <time>2018-05-09T16:41:59Z</time>
      </trkpt>
      <trkpt lat="43.91533" lon="7.23141">
        <ele>1043</ele>
        <time>2018-05-09T16:42:59Z</time>
      </trkpt>
      <trkpt lat="43.91521" lon="7.23147">
        <ele>1045</ele>
        <time>2018-05-09T16:43:59Z</time>
      </trkpt>
      <trkpt lat="43.91492" lon="7.23158">
        <ele>1050</ele>
        <time>2018-05-09T16:44:59Z</time>
      </trkpt>
      <trkpt lat="43.9149" lon="7.23159">
        <ele>1050</ele>
        <time>2018-05-09T16:45:59Z</time>
      </trkpt>
      <trkpt lat="43.9148" lon="7.23159">
        <ele>1052</ele>
        <time>2018-05-09T16:46:59Z</time>
      </trkpt>
      <trkpt lat="43.91471" lon="7.23162">
        <ele>1055</ele>
        <time>2018-05-09T16:47:59Z</time>
      </trkpt>
      <trkpt lat="43.91469" lon="7.23163">
        <ele>1055</ele>
        <time>2018-05-09T16:48:59Z</time>
      </trkpt>
      <trkpt lat="43.91461" lon="7.23161">
        <ele>1056</ele>
        <time>2018-05-09T16:49:59Z</time>
      </trkpt>
      <trkpt lat="43.91448" lon="7.23156">
        <ele>1058</ele>
        <time>2018-05-09T16:50:59Z</time>
      </trkpt>
      <trkpt lat="43.91444" lon="7.23154">
        <ele>1059</ele>
        <time>2018-05-09T16:51:59Z</time>
      </trkpt>
      <trkpt lat="43.91437" lon="7.2315">
        <ele>1059</ele>
        <time>2018-05-09T16:52:59Z</time>
      </trkpt>
      <trkpt lat="43.91432" lon="7.23148">
        <ele>1060</ele>
        <time>2018-05-09T16:53:59Z</time>
      </trkpt>
      <trkpt lat="43.91418" lon="7.23134">
        <ele>1062</ele>
        <time>2018-05-09T16:54:59Z</time>
      </trkpt>
      <trkpt lat="43.91415" lon="7.23131">
        <ele>1062</ele>
        <time>2018-05-09T16:55:59Z</time>
      </trkpt>
      <trkpt lat="43.91412" lon="7.23127">
        <ele>1063</ele>
        <time>2018-05-09T16:56:59Z</time>
      </trkpt>
      <trkpt lat="43.91411" lon="7.23126">
        <ele>1064</ele>
        <time>2018-05-09T16:57:59Z</time>
      </trkpt>
      <trkpt lat="43.91409" lon="7.23124">
        <ele>1064</ele>
        <time>2018-05-09T16:58:59Z</time>
      </trkpt>
      <trkpt lat="43.91405" lon="7.23118">
        <ele>1066</ele>
        <time>2018-05-09T16:59:59Z</time>
      </trkpt>
      <trkpt lat="43.91404" lon="7.23118">
        <ele>1066</ele>
        <time>2018-05-09T17:00:59Z</time>
      </trkpt>
      <trkpt lat="43.91404" lon="7.23121">
        <ele>1066</ele>
        <time>2018-05-09T17:01:59Z</time>
      </trkpt>
      <trkpt lat="43.91405" lon="7.23137">
        <ele>1067</ele>
        <time>2018-05-09T17:02:59Z</time>
      </trkpt>
      <trkpt lat="43.91405" lon="7.23138">
        <ele>1067</ele>
        <time>2018-05-09T17:03:59Z</time>
      </trkpt>
      <trkpt lat="43.91404" lon="7.23153">
        <ele>1069</ele>
        <time>2018-05-09T17:04:59Z</time>
      </trkpt>
      <trkpt lat="43.91403" lon="7.23155">
        <ele>1069</ele>
        <time>2018-05-09T17:05:59Z</time>
      </trkpt>
      <trkpt lat="43.91401" lon="7.23153">
        <ele>1070</ele>
        <time>2018-05-09T17:06:59Z</time>
      </trkpt>
      <trkpt lat="43.91393" lon="7.23141">
        <ele>1072</ele>
        <time>2018-05-09T17:07:59Z</time>
      </trkpt>
      <trkpt lat="43.91391" lon="7.23137">
        <ele>1073</ele>
        <time>2018-05-09T17:08:59Z</time>
      </trkpt>
      <trkpt lat="43.91386" lon="7.23127">
        <ele>1075</ele>
        <time>2018-05-09T17:09:59Z</time>
      </trkpt>
      <trkpt lat="43.9138" lon="7.23119">
        <ele>1077</ele>
        <time>2018-05-09T17:10:59Z</time>
      </trkpt>
      <trkpt lat="43.91378" lon="7.23119">
        <ele>1078</ele>
        <time>2018-05-09T17:11:59Z</time>
      </trkpt>
      <trkpt lat="43.91377" lon="7.23119">
        <ele>1079</ele>
        <time>2018-05-09T17:12:59Z</time>
      </trkpt>
      <trkpt lat="43.91377" lon="7.23124">
        <ele>1079</ele>
        <time>2018-05-09T17:13:59Z</time>
      </trkpt>
      <trkpt lat="43.91378" lon="7.23135">
        <ele>1079</ele>
        <time>2018-05-09T17:14:59Z</time>
      </trkpt>
      <trkpt lat="43.91374" lon="7.23153">
        <ele>1081</ele>
        <time>2018-05-09T17:15:59Z</time>
      </trkpt>
      <trkpt lat="43.91373" lon="7.23153">
        <ele>1081</ele>
        <time>2018-05-09T17:16:59Z</time>
      </trkpt>
      <trkpt lat="43.91368" lon="7.23142">
        <ele>1083</ele>
        <time>2018-05-09T17:17:59Z</time>
      </trkpt>
      <trkpt lat="43.91368" lon="7.23139">
        <ele>1083</ele>
        <time>2018-05-09T17:18:59Z</time>
      </trkpt>
      <trkpt lat="43.9136" lon="7.23129">
        <ele>1086</ele>
        <time>2018-05-09T17:19:59Z</time>
      </trkpt>
      <trkpt lat="43.91356" lon="7.23126">
        <ele>1088</ele>
        <time>2018-05-09T17:20:59Z</time>
      </trkpt>
      <trkpt lat="43.91354" lon="7.23127">
        <ele>1089</ele>
        <time>2018-05-09T17:21:59Z</time>
      </trkpt>
      <trkpt lat="43.91356" lon="7.23136">
        <ele>1088</ele>
        <time>2018-05-09T17:22:59Z</time>
      </trkpt>
      <trkpt lat="43.91356" lon="7.23138">
        <ele>1088</ele>
        <time>2018-05-09T17:23:59Z</time>
      </trkpt>
      <trkpt lat="43.91356" lon="7.23146">
        <ele>1088</ele>
        <time>2018-05-09T17:24:59Z</time>
      </trkpt>
      <trkpt lat="43.91355" lon="7.23152">
        <ele>1088</ele>
        <time>2018-05-09T17:25:59Z</time>
      </trkpt>
      <trkpt lat="43.91353" lon="7.2316">
        <ele>1089</ele>
        <time>2018-05-09T17:26:59Z</time>
      </trkpt>
      <trkpt lat="43.91352" lon="7.23158">
        <ele>1089</ele>
        <time>2018-05-09T17:27:59Z</time>
      </trkpt>
      <trkpt lat="43.91349" lon="7.23147">
        <ele>1091</ele>
        <time>2018-05-09T17:28:59Z</time>
      </trkpt>
      <trkpt lat="43.9134" lon="7.23135">
        <ele>1095</ele>
        <time>2018-05-09T17:29:59Z</time>
      </trkpt>
      <trkpt lat="43.91339" lon="7.23135">
        <ele>1095</ele>
        <time>2018-05-09T17:30:59Z</time>
      </trkpt>
      <trkpt lat="43.91337" lon="7.23137">
        <ele>1096</ele>
        <time>2018-05-09T17:31:59Z</time>
      </trkpt>
      <trkpt lat="43.91338" lon="7.23146">
        <ele>1095</ele>
        <time>2018-05-09T17:32:59Z</time>
      </trkpt>
      <trkpt lat="43.91338" lon="7.23151">
        <ele>1095</ele>
        <time>2018-05-09T17:33:59Z</time>
      </trkpt>
      <trkpt lat="43.91335" lon="7.23161">
        <ele>1096</ele>
        <time>2018-05-09T17:34:59Z</time>
      </trkpt>
      <trkpt lat="43.91332" lon="7.23161">
        <ele>1097</ele>
        <time>2018-05-09T17:35:59Z</time>
      </trkpt>
      <trkpt lat="43.9133" lon="7.23153">
        <ele>1098</ele>
        <time>2018-05-09T17:36:59Z</time>
      </trkpt>
      <trkpt lat="43.91324" lon="7.23143">
        <ele>1102</ele>
        <time>2018-05-09T17:37:59Z</time>
      </trkpt>
      <trkpt lat="43.91318" lon="7.23138">
        <ele>1105</ele>
        <time>2018-05-09T17:38:59Z</time>
      </trkpt>
      <trkpt lat="43.91317" lon="7.23138">
        <ele>1106</ele>
        <time>2018-05-09T17:39:59Z</time>
      </trkpt>
      <trkpt lat="43.91311" lon="7.23137">
        <ele>1109</ele>
        <time>2018-05-09T17:40:59Z</time>
      </trkpt>
      <trkpt lat="43.91312" lon="7.23143">
        <ele>1108</ele>
        <time>2018-05-09T17:41:59Z</time>
      </trkpt>
      <trkpt lat="43.91314" lon="7.23147">
        <ele>1107</ele>
        <time>2018-05-09T17:42:59Z</time>
      </trkpt>
      <trkpt lat="43.91313" lon="7.23155">
        <ele>1107</ele>
        <time>2018-05-09T17:43:59Z</time>
      </trkpt>
      <trkpt lat="43.9131" lon="7.23156">
        <ele>1108</ele>
        <time>2018-05-09T17:44:59Z</time>
      </trkpt>
      <trkpt lat="43.91305" lon="7.23155">
        <ele>1111</ele>
        <time>2018-05-09T17:45:59Z</time>
      </trkpt>
      <trkpt lat="43.91302" lon="7.23154">
        <ele>1112</ele>
        <time>2018-05-09T17:46:59Z</time>
      </trkpt>
      <trkpt lat="43.91298" lon="7.23154">
        <ele>1114</ele>
        <time>2018-05-09T17:47:59Z</time>
      </trkpt>
      <trkpt lat="43.91294" lon="7.23152">
        <ele>1116</ele>
        <time>2018-05-09T17:48:59Z</time>
      </trkpt>
      <trkpt lat="43.91292" lon="7.2315">
        <ele>1118</ele>
        <time>2018-05-09T17:49:59Z</time>
      </trkpt>
      <trkpt lat="43.91288" lon="7.23146">
        <ele>1120</ele>
        <time>2018-05-09T17:50:59Z</time>
      </trkpt>
      <trkpt lat="43.91282" lon="7.23135">
        <ele>1123</ele>
        <time>2018-05-09T17:51:59Z</time>
      </trkpt>
      <trkpt lat="43.91282" lon="7.23135">
        <ele>1123</ele>
        <time>2018-05-09T17:52:59Z</time>
      </trkpt>
      <trkpt lat="43.9128" lon="7.23137">
        <ele>1124</ele>
        <time>2018-05-09T17:53:59Z</time>
      </trkpt>
      <trkpt lat="43.91279" lon="7.23138">
        <ele>1124</ele>
        <time>2018-05-09T17:54:59Z</time>
      </trkpt>
      <trkpt lat="43.91276" lon="7.23139">
        <ele>1126</ele>
        <time>2018-05-09T17:55:59Z</time>
      </trkpt>
      <trkpt lat="43.91275" lon="7.2314">
        <ele>1126</ele>
        <time>2018-05-09T17:56:59Z</time>
      </trkpt>
      <trkpt lat="43.91274" lon="7.2316">
        <ele>1126</ele>
        <time>2018-05-09T17:57:59Z</time>
      </trkpt>
      <trkpt lat="43.91274" lon="7.23162">
        <ele>1126</ele>
        <time>2018-05-09T17:58:59Z</time>
      </trkpt>
      <trkpt lat="43.91272" lon="7.2317">
        <ele>1126</ele>
        <time>2018-05-09T17:59:59Z</time>
      </trkpt>
      <trkpt lat="43.9127" lon="7.23175">
        <ele>1126</ele>
        <time>2018-05-09T18:00:59Z</time>
      </trkpt>
      <trkpt lat="43.91268" lon="7.23175">
        <ele>1127</ele>
        <time>2018-05-09T18:01:59Z</time>
      </trkpt>
      <trkpt lat="43.91256" lon="7.23152">
        <ele>1135</ele>
        <time>2018-05-09T18:02:59Z</time>
      </trkpt>
      <trkpt lat="43.91253" lon="7.23146">
        <ele>1137</ele>
        <time>2018-05-09T18:03:59Z</time>
      </trkpt>
      <trkpt lat="43.91252" lon="7.23147">
        <ele>1137</ele>
        <time>2018-05-09T18:04:59Z</time>
      </trkpt>
      <trkpt lat="43.91252" lon="7.23149">
        <ele>1137</ele>
        <time>2018-05-09T18:05:59Z</time>
      </trkpt>
      <trkpt lat="43.91253" lon="7.23164">
        <ele>1137</ele>
        <time>2018-05-09T18:06:59Z</time>
      </trkpt>
      <trkpt lat="43.91254" lon="7.23172">
        <ele>1135</ele>
        <time>2018-05-09T18:07:59Z</time>
      </trkpt>
      <trkpt lat="43.91249" lon="7.23182">
        <ele>1135</ele>
        <time>2018-05-09T18:08:59Z</time>
      </trkpt>
      <trkpt lat="43.91247" lon="7.23185">
        <ele>1135</ele>
        <time>2018-05-09T18:09:59Z</time>
      </trkpt>
      <trkpt lat="43.91245" lon="7.23185">
        <ele>1136</ele>
        <time>2018-05-09T18:10:59Z</time>
      </trkpt>
      <trkpt lat="43.91241" lon="7.23175">
        <ele>1139</ele>
        <time>2018-05-09T18:11:59Z</time>
      </trkpt>
      <trkpt lat="43.91238" lon="7.23171">
        <ele>1141</ele>
        <time>2018-05-09T18:12:59Z</time>
      </trkpt>
      <trkpt lat="43.91232" lon="7.23165">
        <ele>1144</ele>
        <time>2018-05-09T18:13:59Z</time>
      </trkpt>
      <trkpt lat="43.91231" lon="7.23165">
        <ele>1144</ele>
        <time>2018-05-09T18:14:59Z</time>
      </trkpt>
      <trkpt lat="43.91232" lon="7.23176">
        <ele>1142</ele>
        <time>2018-05-09T18:15:59Z</time>
      </trkpt>
      <trkpt lat="43.91232" lon="7.23177">
        <ele>1142</ele>
        <time>2018-05-09T18:16:59Z</time>
      </trkpt>
      <trkpt lat="43.91231" lon="7.2318">
        <ele>1141</ele>
        <time>2018-05-09T18:17:59Z</time>
      </trkpt>
      <trkpt lat="43.9123" lon="7.2319">
        <ele>1139</ele>
        <time>2018-05-09T18:18:59Z</time>
      </trkpt>
      <trkpt lat="43.91228" lon="7.23193">
        <ele>1140</ele>
        <time>2018-05-09T18:19:59Z</time>
      </trkpt>
      <trkpt lat="43.91222" lon="7.232">
        <ele>1140</ele>
        <time>2018-05-09T18:20:59Z</time>
      </trkpt>
      <trkpt lat="43.91213" lon="7.23206">
        <ele>1142</ele>
        <time>2018-05-09T18:21:59Z</time>
      </trkpt>
      <trkpt lat="43.91211" lon="7.23207">
        <ele>1143</ele>
        <time>2018-05-09T18:22:59Z</time>
      </trkpt>
      <trkpt lat="43.91206" lon="7.23211">
        <ele>1144</ele>
        <time>2018-05-09T18:23:59Z</time>
      </trkpt>
      <trkpt lat="43.91204" lon="7.23213">
        <ele>1144</ele>
        <time>2018-05-09T18:24:59Z</time>
      </trkpt>
      <trkpt lat="43.91198" lon="7.23217">
        <ele>1145</ele>
        <time>2018-05-09T18:25:59Z</time>
      </trkpt>
      <trkpt lat="43.91194" lon="7.23218">
        <ele>1147</ele>
        <time>2018-05-09T18:26:59Z</time>
      </trkpt>
      <trkpt lat="43.91192" lon="7.2322">
        <ele>1147</ele>
        <time>2018-05-09T18:27:59Z</time>
      </trkpt>
      <trkpt lat="43.91185" lon="7.23222">
        <ele>1149</ele>
        <time>2018-05-09T18:28:59Z</time>
      </trkpt>
      <trkpt lat="43.9118" lon="7.2322">
        <ele>1151</ele>
        <time>2018-05-09T18:29:59Z</time>
      </trkpt>
      <trkpt lat="43.91178" lon="7.23219">
        <ele>1152</ele>
        <time>2018-05-09T18:30:59Z</time>
      </trkpt>
      <trkpt lat="43.91172" lon="7.23219">
        <ele>1154</ele>
        <time>2018-05-09T18:31:59Z</time>
      </trkpt>
      <trkpt lat="43.91171" lon="7.23219">
        <ele>1155</ele>
        <time>2018-05-09T18:32:59Z</time>
      </trkpt>
      <trkpt lat="43.91167" lon="7.23219">
        <ele>1156</ele>
        <time>2018-05-09T18:33:59Z</time>
      </trkpt>
      <trkpt lat="43.91158" lon="7.23219">
        <ele>1155</ele>
        <time>2018-05-09T18:34:59Z</time>
      </trkpt>
      <trkpt lat="43.91143" lon="7.23212">
        <ele>1153</ele>
        <time>2018-05-09T18:35:59Z</time>
      </trkpt>
      <trkpt lat="43.91132" lon="7.23198">
        <ele>1155</ele>
        <time>2018-05-09T18:36:59Z</time>
      </trkpt>
      <trkpt lat="43.91131" lon="7.23196">
        <ele>1155</ele>
        <time>2018-05-09T18:37:59Z</time>
      </trkpt>
      <trkpt lat="43.91118" lon="7.2317">
        <ele>1159</ele>
        <time>2018-05-09T18:38:59Z</time>
      </trkpt>
      <trkpt lat="43.91115" lon="7.23145">
        <ele>1161</ele>
        <time>2018-05-09T18:39:59Z</time>
      </trkpt>
      <trkpt lat="43.91114" lon="7.23135">
        <ele>1162</ele>
        <time>2018-05-09T18:40:59Z</time>
      </trkpt>
      <trkpt lat="43.91112" lon="7.23117">
        <ele>1164</ele>
        <time>2018-05-09T18:41:59Z</time>
      </trkpt>
      <trkpt lat="43.91108" lon="7.23085">
        <ele>1167</ele>
        <time>2018-05-09T18:42:59Z</time>
      </trkpt>
      <trkpt lat="43.91107" lon="7.23081">
        <ele>1167</ele>
        <time>2018-05-09T18:43:59Z</time>
      </trkpt>
      <trkpt lat="43.91099" lon="7.23059">
        <ele>1167</ele>
        <time>2018-05-09T18:44:59Z</time>
      </trkpt>
      <trkpt lat="43.91088" lon="7.23036">
        <ele>1168</ele>
        <time>2018-05-09T18:45:59Z</time>
      </trkpt>
      <trkpt lat="43.91079" lon="7.23014">
        <ele>1167</ele>
        <time>2018-05-09T18:46:59Z</time>
      </trkpt>
      <trkpt lat="43.91062" lon="7.22964">
        <ele>1166</ele>
        <time>2018-05-09T18:47:59Z</time>
      </trkpt>
      <trkpt lat="43.91057" lon="7.22951">
        <ele>1167</ele>
        <time>2018-05-09T18:48:59Z</time>
      </trkpt>
      <trkpt lat="43.9105" lon="7.22938">
        <ele>1167</ele>
        <time>2018-05-09T18:49:59Z</time>
      </trkpt>
      <trkpt lat="43.91024" lon="7.22904">
        <ele>1168</ele>
        <time>2018-05-09T18:50:59Z</time>
      </trkpt>
      <trkpt lat="43.91003" lon="7.22875">
        <ele>1169</ele>
        <time>2018-05-09T18:51:59Z</time>
      </trkpt>
      <trkpt lat="43.90995" lon="7.22865">
        <ele>1166</ele>
        <time>2018-05-09T18:52:59Z</time>
      </trkpt>
      <trkpt lat="43.90992" lon="7.22861">
        <ele>1165</ele>
        <time>2018-05-09T18:53:59Z</time>
      </trkpt>
      <trkpt lat="43.9098" lon="7.22851">
        <ele>1159</ele>
        <time>2018-05-09T18:54:59Z</time>
      </trkpt>
      <trkpt lat="43.90977" lon="7.22848">
        <ele>1157</ele>
        <time>2018-05-09T18:55:59Z</time>
      </trkpt>
      <trkpt lat="43.90974" lon="7.22839">
        <ele>1157</ele>
        <time>2018-05-09T18:56:59Z</time>
      </trkpt>
      <trkpt lat="43.90973" lon="7.22835">
        <ele>1157</ele>
        <time>2018-05-09T18:57:59Z</time>
      </trkpt>
      <trkpt lat="43.9097" lon="7.22815">
        <ele>1157</ele>
        <time>2018-05-09T18:58:59Z</time>
      </trkpt>
      <trkpt lat="43.90966" lon="7.228">
        <ele>1156</ele>
        <time>2018-05-09T18:59:59Z</time>
      </trkpt>
      <trkpt lat="43.90965" lon="7.22797">
        <ele>1155</ele>
        <time>2018-05-09T19:00:59Z</time>
      </trkpt>
      <trkpt lat="43.90961" lon="7.22788">
        <ele>1154</ele>
        <time>2018-05-09T19:01:59Z</time>
      </trkpt>
      <trkpt lat="43.9096" lon="7.22787">
        <ele>1154</ele>
        <time>2018-05-09T19:02:59Z</time>
      </trkpt>
      <trkpt lat="43.90959" lon="7.22789">
        <ele>1153</ele>
        <time>2018-05-09T19:03:59Z</time>
      </trkpt>
      <trkpt lat="43.90957" lon="7.22786">
        <ele>1153</ele>
        <time>2018-05-09T19:04:59Z</time>
      </trkpt>
      <trkpt lat="43.90957" lon="7.22785">
        <ele>1153</ele>
        <time>2018-05-09T19:05:59Z</time>
      </trkpt>
      <trkpt lat="43.90957" lon="7.22783">
        <ele>1153</ele>
        <time>2018-05-09T19:06:59Z</time>
      </trkpt>
      <trkpt lat="43.90951" lon="7.22751">
        <ele>1153</ele>
        <time>2018-05-09T19:07:59Z</time>
      </trkpt>
      <trkpt lat="43.90949" lon="7.22743">
        <ele>1154</ele>
        <time>2018-05-09T19:08:59Z</time>
      </trkpt>
      <trkpt lat="43.90943" lon="7.2273">
        <ele>1154</ele>
        <time>2018-05-09T19:09:59Z</time>
      </trkpt>
      <trkpt lat="43.90941" lon="7.22721">
        <ele>1154</ele>
        <time>2018-05-09T19:10:59Z</time>
      </trkpt>
      <trkpt lat="43.90939" lon="7.2272">
        <ele>1154</ele>
        <time>2018-05-09T19:11:59Z</time>
      </trkpt>
      <trkpt lat="43.90938" lon="7.22719">
        <ele>1154</ele>
        <time>2018-05-09T19:12:59Z</time>
      </trkpt>
      <trkpt lat="43.90934" lon="7.22716">
        <ele>1153</ele>
        <time>2018-05-09T19:13:59Z</time>
      </trkpt>
      <trkpt lat="43.90927" lon="7.22697">
        <ele>1155</ele>
        <time>2018-05-09T19:14:59Z</time>
      </trkpt>
      <trkpt lat="43.90925" lon="7.22693">
        <ele>1155</ele>
        <time>2018-05-09T19:15:59Z</time>
      </trkpt>
      <trkpt lat="43.90921" lon="7.22686">
        <ele>1156</ele>
        <time>2018-05-09T19:16:59Z</time>
      </trkpt>
      <trkpt lat="43.9092" lon="7.22683">
        <ele>1156</ele>
        <time>2018-05-09T19:17:59Z</time>
      </trkpt>
      <trkpt lat="43.90913" lon="7.22677">
        <ele>1155</ele>
        <time>2018-05-09T19:18:59Z</time>
      </trkpt>
      <trkpt lat="43.90907" lon="7.2267">
        <ele>1153</ele>
        <time>2018-05-09T19:19:59Z</time>
      </trkpt>
      <trkpt lat="43.90895" lon="7.22662">
        <ele>1149</ele>
        <time>2018-05-09T19:20:59Z</time>
      </trkpt>
      <trkpt lat="43.90889" lon="7.22658">
        <ele>1146</ele>
        <time>2018-05-09T19:21:59Z</time>
      </trkpt>
      <trkpt lat="43.90881" lon="7.22657">
        <ele>1143</ele>
        <time>2018-05-09T19:22:59Z</time>
      </trkpt>
      <trkpt lat="43.90877" lon="7.22655">
        <ele>1141</ele>
        <time>2018-05-09T19:23:59Z</time>
      </trkpt>
      <trkpt lat="43.90872" lon="7.22653">
        <ele>1139</ele>
        <time>2018-05-09T19:24:59Z</time>
      </trkpt>
      <trkpt lat="43.90866" lon="7.22647">
        <ele>1137</ele>
        <time>2018-05-09T19:25:59Z</time>
      </trkpt>
      <trkpt lat="43.90864" lon="7.22645">
        <ele>1137</ele>
        <time>2018-05-09T19:26:59Z</time>
      </trkpt>
      <trkpt lat="43.90852" lon="7.22636">
        <ele>1133</ele>
        <time>2018-05-09T19:27:59Z</time>
      </trkpt>
      <trkpt lat="43.9085" lon="7.22635">
        <ele>1132</ele>
        <time>2018-05-09T19:28:59Z</time>
      </trkpt>
      <trkpt lat="43.90848" lon="7.22635">
        <ele>1131</ele>
        <time>2018-05-09T19:29:59Z</time>
      </trkpt>
      <trkpt lat="43.90838" lon="7.2263">
        <ele>1128</ele>
        <time>2018-05-09T19:30:59Z</time>
      </trkpt>
      <trkpt lat="43.90836" lon="7.22629">
        <ele>1127</ele>
        <time>2018-05-09T19:31:59Z</time>
      </trkpt>
      <trkpt lat="43.90819" lon="7.22613">
        <ele>1122</ele>
        <time>2018-05-09T19:32:59Z</time>
      </trkpt>
      <trkpt lat="43.90814" lon="7.22608">
        <ele>1121</ele>
        <time>2018-05-09T19:33:59Z</time>
      </trkpt>
      <trkpt lat="43.908" lon="7.22588">
        <ele>1119</ele>
        <time>2018-05-09T19:34:59Z</time>
      </trkpt>
      <trkpt lat="43.90796" lon="7.22583">
        <ele>1118</ele>
        <time>2018-05-09T19:35:59Z</time>
      </trkpt>
      <trkpt lat="43.90782" lon="7.22568">
        <ele>1115</ele>
        <time>2018-05-09T19:36:59Z</time>
      </trkpt>
      <trkpt lat="43.90778" lon="7.22564">
        <ele>1114</ele>
        <time>2018-05-09T19:37:59Z</time>
      </trkpt>
      <trkpt lat="43.90767" lon="7.22554">
        <ele>1111</ele>
        <time>2018-05-09T19:38:59Z</time>
      </trkpt>
      <trkpt lat="43.90766" lon="7.22554">
        <ele>1111</ele>
        <time>2018-05-09T19:39:59Z</time>
      </trkpt>
      <trkpt lat="43.90763" lon="7.22546">
        <ele>1112</ele>
        <time>2018-05-09T19:40:59Z</time>
      </trkpt>
      <trkpt lat="43.90761" lon="7.22544">
        <ele>1111</ele>
        <time>2018-05-09T19:41:59Z</time>
      </trkpt>
      <trkpt lat="43.90754" lon="7.2254">
        <ele>1109</ele>
        <time>2018-05-09T19:42:59Z</time>
      </trkpt>
      <trkpt lat="43.90749" lon="7.22535">
        <ele>1108</ele>
        <time>2018-05-09T19:43:59Z</time>
      </trkpt>
      <trkpt lat="43.90748" lon="7.22535">
        <ele>1107</ele>
        <time>2018-05-09T19:44:59Z</time>
      </trkpt>
      <trkpt lat="43.90738" lon="7.22528">
        <ele>1104</ele>
        <time>2018-05-09T19:45:59Z</time>
      </trkpt>
      <trkpt lat="43.9073" lon="7.22524">
        <ele>1102</ele>
        <time>2018-05-09T19:46:59Z</time>
      </trkpt>
      <trkpt lat="43.90718" lon="7.22513">
        <ele>1099</ele>
        <time>2018-05-09T19:47:59Z</time>
      </trkpt>
      <trkpt lat="43.90711" lon="7.22505">
        <ele>1097</ele>
        <time>2018-05-09T19:48:59Z</time>
      </trkpt>
      <trkpt lat="43.90697" lon="7.22499">
        <ele>1091</ele>
        <time>2018-05-09T19:49:59Z</time>
      </trkpt>
      <trkpt lat="43.90691" lon="7.22496">
        <ele>1089</ele>
        <time>2018-05-09T19:50:59Z</time>
      </trkpt>
      <trkpt lat="43.90689" lon="7.22494">
        <ele>1088</ele>
        <time>2018-05-09T19:51:59Z</time>
      </trkpt>
      <trkpt lat="43.90687" lon="7.22491">
        <ele>1087</ele>
        <time>2018-05-09T19:52:59Z</time>
      </trkpt>
      <trkpt lat="43.90685" lon="7.22487">
        <ele>1087</ele>
        <time>2018-05-09T19:53:59Z</time>
      </trkpt>
      <trkpt lat="43.90684" lon="7.22485">
        <ele>1086</ele>
        <time>2018-05-09T19:54:59Z</time>
      </trkpt>
      <trkpt lat="43.90684" lon="7.22484">
        <ele>1086</ele>
        <time>2018-05-09T19:55:59Z</time>
      </trkpt>
      <trkpt lat="43.90685" lon="7.22484">
        <ele>1087</ele>
        <time>2018-05-09T19:56:59Z</time>
      </trkpt>
      <trkpt lat="43.90683" lon="7.22482">
        <ele>1086</ele>
        <time>2018-05-09T19:57:59Z</time>
      </trkpt>
      <trkpt lat="43.9068" lon="7.2248">
        <ele>1085</ele>
        <time>2018-05-09T19:58:59Z</time>
      </trkpt>
      <trkpt lat="43.90674" lon="7.22474">
        <ele>1082</ele>
        <time>2018-05-09T19:59:59Z</time>
      </trkpt>
      <trkpt lat="43.90671" lon="7.22471">
        <ele>1081</ele>
        <time>2018-05-09T20:00:59Z</time>
      </trkpt>
      <trkpt lat="43.90669" lon="7.2247">
        <ele>1080</ele>
        <time>2018-05-09T20:01:59Z</time>
      </trkpt>
      <trkpt lat="43.90667" lon="7.22469">
        <ele>1079</ele>
        <time>2018-05-09T20:02:59Z</time>
      </trkpt>
      <trkpt lat="43.90662" lon="7.22461">
        <ele>1077</ele>
        <time>2018-05-09T20:03:59Z</time>
      </trkpt>
      <trkpt lat="43.90659" lon="7.22458">
        <ele>1076</ele>
        <time>2018-05-09T20:04:59Z</time>
      </trkpt>
      <trkpt lat="43.90655" lon="7.22451">
        <ele>1074</ele>
        <time>2018-05-09T20:05:59Z</time>
      </trkpt>
      <trkpt lat="43.90653" lon="7.22446">
        <ele>1074</ele>
        <time>2018-05-09T20:06:59Z</time>
      </trkpt>
      <trkpt lat="43.90647" lon="7.22452">
        <ele>1070</ele>
        <time>2018-05-09T20:07:59Z</time>
      </trkpt>
      <trkpt lat="43.90645" lon="7.22454">
        <ele>1069</ele>
        <time>2018-05-09T20:08:59Z</time>
      </trkpt>
      <trkpt lat="43.90643" lon="7.2246">
        <ele>1068</ele>
        <time>2018-05-09T20:09:59Z</time>
      </trkpt>
      <trkpt lat="43.90641" lon="7.22461">
        <ele>1067</ele>
        <time>2018-05-09T20:10:59Z</time>
      </trkpt>
      <trkpt lat="43.9064" lon="7.22461">
        <ele>1066</ele>
        <time>2018-05-09T20:11:59Z</time>
      </trkpt>
      <trkpt lat="43.90635" lon="7.22456">
        <ele>1064</ele>
        <time>2018-05-09T20:12:59Z</time>
      </trkpt>
      <trkpt lat="43.90633" lon="7.22455">
        <ele>1063</ele>
        <time>2018-05-09T20:13:59Z</time>
      </trkpt>
      <trkpt lat="43.90631" lon="7.22459">
        <ele>1062</ele>
        <time>2018-05-09T20:14:59Z</time>
      </trkpt>
      <trkpt lat="43.9063" lon="7.2246">
        <ele>1062</ele>
        <time>2018-05-09T20:15:59Z</time>
      </trkpt>
      <trkpt lat="43.90629" lon="7.22461">
        <ele>1061</ele>
        <time>2018-05-09T20:16:59Z</time>
      </trkpt>
      <trkpt lat="43.90627" lon="7.22461">
        <ele>1060</ele>
        <time>2018-05-09T20:17:59Z</time>
      </trkpt>
      <trkpt lat="43.90625" lon="7.22453">
        <ele>1060</ele>
        <time>2018-05-09T20:18:59Z</time>
      </trkpt>
      <trkpt lat="43.90622" lon="7.2245">
        <ele>1058</ele>
        <time>2018-05-09T20:19:59Z</time>
      </trkpt>
      <trkpt lat="43.90616" lon="7.22446">
        <ele>1056</ele>
        <time>2018-05-09T20:20:59Z</time>
      </trkpt>
      <trkpt lat="43.90611" lon="7.22443">
        <ele>1053</ele>
        <time>2018-05-09T20:21:59Z</time>
      </trkpt>
      <trkpt lat="43.90604" lon="7.22433">
        <ele>1050</ele>
        <time>2018-05-09T20:22:59Z</time>
      </trkpt>
      <trkpt lat="43.90601" lon="7.22428">
        <ele>1049</ele>
        <time>2018-05-09T20:23:59Z</time>
      </trkpt>
      <trkpt lat="43.90593" lon="7.22422">
        <ele>1046</ele>
        <time>2018-05-09T20:24:59Z</time>
      </trkpt>
      <trkpt lat="43.90589" lon="7.22419">
        <ele>1044</ele>
        <time>2018-05-09T20:25:59Z</time>
      </trkpt>
      <trkpt lat="43.90585" lon="7.22418">
        <ele>1042</ele>
        <time>2018-05-09T20:26:59Z</time>
      </trkpt>
      <trkpt lat="43.90583" lon="7.22419">
        <ele>1041</ele>
        <time>2018-05-09T20:27:59Z</time>
      </trkpt>
      <trkpt lat="43.90582" lon="7.22419">
        <ele>1040</ele>
        <time>2018-05-09T20:28:59Z</time>
      </trkpt>
      <trkpt lat="43.90579" lon="7.22417">
        <ele>1039</ele>
        <time>2018-05-09T20:29:59Z</time>
      </trkpt>
      <trkpt lat="43.90576" lon="7.22416">
        <ele>1038</ele>
        <time>2018-05-09T20:30:59Z</time>
      </trkpt>
      <trkpt lat="43.90566" lon="7.22416">
        <ele>1033</ele>
        <time>2018-05-09T20:31:59Z</time>
      </trkpt>
      <trkpt lat="43.90564" lon="7.22417">
        <ele>1032</ele>
        <time>2018-05-09T20:32:59Z</time>
      </trkpt>
      <trkpt lat="43.90556" lon="7.22419">
        <ele>1029</ele>
        <time>2018-05-09T20:33:59Z</time>
      </trkpt>
      <trkpt lat="43.90553" lon="7.22419">
        <ele>1027</ele>
        <time>2018-05-09T20:34:59Z</time>
      </trkpt>
      <trkpt lat="43.90549" lon="7.22419">
        <ele>1026</ele>
        <time>2018-05-09T20:35:59Z</time>
      </trkpt>
      <trkpt lat="43.90546" lon="7.22416">
        <ele>1024</ele>
        <time>2018-05-09T20:36:59Z</time>
      </trkpt>
      <trkpt lat="43.90544" lon="7.22415">
        <ele>1023</ele>
        <time>2018-05-09T20:37:59Z</time>
      </trkpt>
      <trkpt lat="43.90542" lon="7.22415">
        <ele>1023</ele>
        <time>2018-05-09T20:38:59Z</time>
      </trkpt>
      <trkpt lat="43.9054" lon="7.22416">
        <ele>1022</ele>
        <time>2018-05-09T20:39:59Z</time>
      </trkpt>
      <trkpt lat="43.90536" lon="7.22415">
        <ele>1020</ele>
        <time>2018-05-09T20:40:59Z</time>
      </trkpt>
      <trkpt lat="43.90532" lon="7.22415">
        <ele>1018</ele>
        <time>2018-05-09T20:41:59Z</time>
      </trkpt>
      <trkpt lat="43.90525" lon="7.22411">
        <ele>1015</ele>
        <time>2018-05-09T20:42:59Z</time>
      </trkpt>
      <trkpt lat="43.90523" lon="7.2241">
        <ele>1014</ele>
        <time>2018-05-09T20:43:59Z</time>
      </trkpt>
      <trkpt lat="43.90514" lon="7.22406">
        <ele>1009</ele>
        <time>2018-05-09T20:44:59Z</time>
      </trkpt>
      <trkpt lat="43.9051" lon="7.22404">
        <ele>1008</ele>
        <time>2018-05-09T20:45:59Z</time>
      </trkpt>
      <trkpt lat="43.90503" lon="7.22392">
        <ele>1004</ele>
        <time>2018-05-09T20:46:59Z</time>
      </trkpt>
      <trkpt lat="43.905" lon="7.2239">
        <ele>1002</ele>
        <time>2018-05-09T20:47:59Z</time>
      </trkpt>
      <trkpt lat="43.90492" lon="7.22384">
        <ele>999</ele>
        <time>2018-05-09T20:48:59Z</time>
      </trkpt>
      <trkpt lat="43.9049" lon="7.22382">
        <ele>999</ele>
        <time>2018-05-09T20:49:59Z</time>
      </trkpt>
      <trkpt lat="43.90487" lon="7.22382">
        <ele>998</ele>
        <time>2018-05-09T20:50:59Z</time>
      </trkpt>
      <trkpt lat="43.90477" lon="7.22386">
        <ele>995</ele>
        <time>2018-05-09T20:51:59Z</time>
      </trkpt>
      <trkpt lat="43.90465" lon="7.22387">
        <ele>992</ele>
        <time>2018-05-09T20:52:59Z</time>
      </trkpt>
      <trkpt lat="43.90452" lon="7.22383">
        <ele>988</ele>
        <time>2018-05-09T20:53:59Z</time>
      </trkpt>
      <trkpt lat="43.90447" lon="7.22379">
        <ele>986</ele>
        <time>2018-05-09T20:54:59Z</time>
      </trkpt>
      <trkpt lat="43.90443" lon="7.22374">
        <ele>985</ele>
        <time>2018-05-09T20:55:59Z</time>
      </trkpt>
      <trkpt lat="43.90434" lon="7.22368">
        <ele>982</ele>
        <time>2018-05-09T20:56:59Z</time>
      </trkpt>
      <trkpt lat="43.90428" lon="7.22366">
        <ele>980</ele>
        <time>2018-05-09T20:57:59Z</time>
      </trkpt>
      <trkpt lat="43.90423" lon="7.22365">
        <ele>979</ele>
        <time>2018-05-09T20:58:59Z</time>
      </trkpt>
      <trkpt lat="43.90411" lon="7.22365">
        <ele>976</ele>
        <time>2018-05-09T20:59:59Z</time>
      </trkpt>
      <trkpt lat="43.90404" lon="7.22365">
        <ele>975</ele>
        <time>2018-05-09T21:00:59Z</time>
      </trkpt>
      <trkpt lat="43.90395" lon="7.22359">
        <ele>974</ele>
        <time>2018-05-09T21:01:59Z</time>
      </trkpt>
      <trkpt lat="43.90385" lon="7.22351">
        <ele>973</ele>
        <time>2018-05-09T21:02:59Z</time>
      </trkpt>
      <trkpt lat="43.90379" lon="7.22348">
        <ele>972</ele>
        <time>2018-05-09T21:03:59Z</time>
      </trkpt>
      <trkpt lat="43.90372" lon="7.22347">
        <ele>972</ele>
        <time>2018-05-09T21:04:59Z</time>
      </trkpt>
      <trkpt lat="43.90364" lon="7.22347">
        <ele>971</ele>
        <time>2018-05-09T21:05:59Z</time>
      </trkpt>
      <trkpt lat="43.9032" lon="7.22353">
        <ele>965</ele>
        <time>2018-05-09T21:06:59Z</time>
      </trkpt>
      <trkpt lat="43.90311" lon="7.22356">
        <ele>964</ele>
        <time>2018-05-09T21:07:59Z</time>
      </trkpt>
      <trkpt lat="43.90302" lon="7.22361">
        <ele>963</ele>
        <time>2018-05-09T21:08:59Z</time>
      </trkpt>
      <trkpt lat="43.90294" lon="7.22367">
        <ele>963</ele>
        <time>2018-05-09T21:09:59Z</time>
      </trkpt>
      <trkpt lat="43.90285" lon="7.22373">
        <ele>962</ele>
        <time>2018-05-09T21:10:59Z</time>
      </trkpt>
      <trkpt lat="43.90269" lon="7.22384">
        <ele>961</ele>
        <time>2018-05-09T21:11:59Z</time>
      </trkpt>
      <trkpt lat="43.90253" lon="7.22394">
        <ele>961</ele>
        <time>2018-05-09T21:12:59Z</time>
      </trkpt>
      <trkpt lat="43.90246" lon="7.22399">
        <ele>962</ele>
        <time>2018-05-09T21:13:59Z</time>
      </trkpt>
      <trkpt lat="43.90236" lon="7.2241">
        <ele>964</ele>
        <time>2018-05-09T21:14:59Z</time>
      </trkpt>
      <trkpt lat="43.90227" lon="7.22421">
        <ele>966</ele>
        <time>2018-05-09T21:15:59Z</time>
      </trkpt>
      <trkpt lat="43.90216" lon="7.22439">
        <ele>967</ele>
        <time>2018-05-09T21:16:59Z</time>
      </trkpt>
      <trkpt lat="43.90209" lon="7.22449">
        <ele>968</ele>
        <time>2018-05-09T21:17:59Z</time>
      </trkpt>
      <trkpt lat="43.90194" lon="7.2247">
        <ele>971</ele>
        <time>2018-05-09T21:18:59Z</time>
      </trkpt>
      <trkpt lat="43.90187" lon="7.22495">
        <ele>973</ele>
        <time>2018-05-09T21:19:59Z</time>
      </trkpt>
      <trkpt lat="43.90187" lon="7.22496">
        <ele>973</ele>
        <time>2018-05-09T21:20:59Z</time>
      </trkpt>
      <trkpt lat="43.90186" lon="7.22499">
        <ele>974</ele>
        <time>2018-05-09T21:21:59Z</time>
      </trkpt>
      <trkpt lat="43.90183" lon="7.22502">
        <ele>974</ele>
        <time>2018-05-09T21:22:59Z</time>
      </trkpt>
      <trkpt lat="43.90183" lon="7.22511">
        <ele>974</ele>
        <time>2018-05-09T21:23:59Z</time>
      </trkpt>
      <trkpt lat="43.90183" lon="7.22516">
        <ele>974</ele>
        <time>2018-05-09T21:24:59Z</time>
      </trkpt>
      <trkpt lat="43.90178" lon="7.22525">
        <ele>976</ele>
        <time>2018-05-09T21:25:59Z</time>
      </trkpt>
      <trkpt lat="43.90176" lon="7.22531">
        <ele>976</ele>
        <time>2018-05-09T21:26:59Z</time>
      </trkpt>
      <trkpt lat="43.90168" lon="7.2254">
        <ele>979</ele>
        <time>2018-05-09T21:27:59Z</time>
      </trkpt>
      <trkpt lat="43.90166" lon="7.22542">
        <ele>979</ele>
        <time>2018-05-09T21:28:59Z</time>
      </trkpt>
      <trkpt lat="43.90154" lon="7.22563">
        <ele>983</ele>
        <time>2018-05-09T21:29:59Z</time>
      </trkpt>
      <trkpt lat="43.90152" lon="7.22565">
        <ele>984</ele>
        <time>2018-05-09T21:30:59Z</time>
      </trkpt>
      <trkpt lat="43.90148" lon="7.22565">
        <ele>985</ele>
        <time>2018-05-09T21:31:59Z</time>
      </trkpt>
      <trkpt lat="43.90143" lon="7.22562">
        <ele>986</ele>
        <time>2018-05-09T21:32:59Z</time>
      </trkpt>
      <trkpt lat="43.90141" lon="7.22562">
        <ele>987</ele>
        <time>2018-05-09T21:33:59Z</time>
      </trkpt>
      <trkpt lat="43.90139" lon="7.22561">
        <ele>988</ele>
        <time>2018-05-09T21:34:59Z</time>
      </trkpt>
      <trkpt lat="43.90133" lon="7.22561">
        <ele>989</ele>
        <time>2018-05-09T21:35:59Z</time>
      </trkpt>
      <trkpt lat="43.90132" lon="7.22562">
        <ele>990</ele>
        <time>2018-05-09T21:36:59Z</time>
      </trkpt>
      <trkpt lat="43.9013" lon="7.22563">
        <ele>990</ele>
        <time>2018-05-09T21:37:59Z</time>
      </trkpt>
      <trkpt lat="43.90124" lon="7.22563">
        <ele>992</ele>
        <time>2018-05-09T21:38:59Z</time>
      </trkpt>
      <trkpt lat="43.9012" lon="7.22562">
        <ele>993</ele>
        <time>2018-05-09T21:39:59Z</time>
      </trkpt>
      <trkpt lat="43.90105" lon="7.22558">
        <ele>998</ele>
        <time>2018-05-09T21:40:59Z</time>
      </trkpt>
      <trkpt lat="43.90101" lon="7.22556">
        <ele>999</ele>
        <time>2018-05-09T21:41:59Z</time>
      </trkpt>
      <trkpt lat="43.90089" lon="7.22549">
        <ele>1002</ele>
        <time>2018-05-09T21:42:59Z</time>
      </trkpt>
      <trkpt lat="43.90086" lon="7.22546">
        <ele>1003</ele>
        <time>2018-05-09T21:43:59Z</time>
      </trkpt>
      <trkpt lat="43.90075" lon="7.22545">
        <ele>1006</ele>
        <time>2018-05-09T21:44:59Z</time>
      </trkpt>
      <trkpt lat="43.90071" lon="7.22544">
        <ele>1007</ele>
        <time>2018-05-09T21:45:59Z</time>
      </trkpt>
      <trkpt lat="43.9005" lon="7.22547">
        <ele>1013</ele>
        <time>2018-05-09T21:46:59Z</time>
      </trkpt>
      <trkpt lat="43.90045" lon="7.22547">
        <ele>1014</ele>
        <time>2018-05-09T21:47:59Z</time>
      </trkpt>
      <trkpt lat="43.9004" lon="7.22549">
        <ele>1015</ele>
        <time>2018-05-09T21:48:59Z</time>
      </trkpt>
      <trkpt lat="43.90034" lon="7.22557">
        <ele>1017</ele>
        <time>2018-05-09T21:49:59Z</time>
      </trkpt>
      <trkpt lat="43.90033" lon="7.22558">
        <ele>1017</ele>
        <time>2018-05-09T21:50:59Z</time>
      </trkpt>
      <trkpt lat="43.90029" lon="7.22566">
        <ele>1018</ele>
        <time>2018-05-09T21:51:59Z</time>
      </trkpt>
      <trkpt lat="43.90025" lon="7.22573">
        <ele>1018</ele>
        <time>2018-05-09T21:52:59Z</time>
      </trkpt>
      <trkpt lat="43.90025" lon="7.22574">
        <ele>1018</ele>
        <time>2018-05-09T21:53:59Z</time>
      </trkpt>
      <trkpt lat="43.90013" lon="7.2259">
        <ele>1020</ele>
        <time>2018-05-09T21:54:59Z</time>
      </trkpt>
      <trkpt lat="43.90012" lon="7.22591">
        <ele>1020</ele>
        <time>2018-05-09T21:55:59Z</time>
      </trkpt>
      <trkpt lat="43.90006" lon="7.22595">
        <ele>1021</ele>
        <time>2018-05-09T21:56:59Z</time>
      </trkpt>
      <trkpt lat="43.90005" lon="7.22596">
        <ele>1021</ele>
        <time>2018-05-09T21:57:59Z</time>
      </trkpt>
      <trkpt lat="43.9" lon="7.22597">
        <ele>1022</ele>
        <time>2018-05-09T21:58:59Z</time>
      </trkpt>
      <trkpt lat="43.89999" lon="7.22597">
        <ele>1022</ele>
        <time>2018-05-09T21:59:59Z</time>
      </trkpt>
      <trkpt lat="43.89994" lon="7.22601">
        <ele>1022</ele>
        <time>2018-05-09T22:00:59Z</time>
      </trkpt>
      <trkpt lat="43.89988" lon="7.2261">
        <ele>1022</ele>
        <time>2018-05-09T22:01:59Z</time>
      </trkpt>
      <trkpt lat="43.89973" lon="7.22619">
        <ele>1024</ele>
        <time>2018-05-09T22:02:59Z</time>
      </trkpt>
      <trkpt lat="43.89967" lon="7.22626">
        <ele>1025</ele>
        <time>2018-05-09T22:03:59Z</time>
      </trkpt>
      <trkpt lat="43.89957" lon="7.2263">
        <ele>1026</ele>
        <time>2018-05-09T22:04:59Z</time>
      </trkpt>
      <trkpt lat="43.89951" lon="7.22635">
        <ele>1027</ele>
        <time>2018-05-09T22:05:59Z</time>
      </trkpt>
      <trkpt lat="43.89946" lon="7.22642">
        <ele>1028</ele>
        <time>2018-05-09T22:06:59Z</time>
      </trkpt>
      <trkpt lat="43.89941" lon="7.22647">
        <ele>1028</ele>
        <time>2018-05-09T22:07:59Z</time>
      </trkpt>
      <trkpt lat="43.89931" lon="7.22654">
        <ele>1030</ele>
        <time>2018-05-09T22:08:59Z</time>
      </trkpt>
      <trkpt lat="43.89927" lon="7.22657">
        <ele>1031</ele>
        <time>2018-05-09T22:09:59Z</time>
      </trkpt>
      <trkpt lat="43.89924" lon="7.2266">
        <ele>1032</ele>
        <time>2018-05-09T22:10:59Z</time>
      </trkpt>
      <trkpt lat="43.8992" lon="7.22663">
        <ele>1032</ele>
        <time>2018-05-09T22:11:59Z</time>
      </trkpt>
      <trkpt lat="43.89914" lon="7.22674">
        <ele>1032</ele>
        <time>2018-05-09T22:12:59Z</time>
      </trkpt>
      <trkpt lat="43.89909" lon="7.2268">
        <ele>1031</ele>
        <time>2018-05-09T22:13:59Z</time>
      </trkpt>
      <trkpt lat="43.89907" lon="7.22682">
        <ele>1031</ele>
        <time>2018-05-09T22:14:59Z</time>
      </trkpt>
      <trkpt lat="43.89903" lon="7.22686">
        <ele>1031</ele>
        <time>2018-05-09T22:15:59Z</time>
      </trkpt>
      <trkpt lat="43.89895" lon="7.22694">
        <ele>1030</ele>
        <time>2018-05-09T22:16:59Z</time>
      </trkpt>
      <trkpt lat="43.89892" lon="7.22697">
        <ele>1030</ele>
        <time>2018-05-09T22:17:59Z</time>
      </trkpt>
      <trkpt lat="43.89889" lon="7.22699">
        <ele>1030</ele>
        <time>2018-05-09T22:18:59Z</time>
      </trkpt>
      <trkpt lat="43.89879" lon="7.22702">
        <ele>1031</ele>
        <time>2018-05-09T22:19:59Z</time>
      </trkpt>
      <trkpt lat="43.89875" lon="7.22703">
        <ele>1031</ele>
        <time>2018-05-09T22:20:59Z</time>
      </trkpt>
      <trkpt lat="43.8987" lon="7.22701">
        <ele>1032</ele>
        <time>2018-05-09T22:21:59Z</time>
      </trkpt>
      <trkpt lat="43.89866" lon="7.227">
        <ele>1032</ele>
        <time>2018-05-09T22:22:59Z</time>
      </trkpt>
      <trkpt lat="43.89865" lon="7.22699">
        <ele>1032</ele>
        <time>2018-05-09T22:23:59Z</time>
      </trkpt>
      <trkpt lat="43.89859" lon="7.22693">
        <ele>1034</ele>
        <time>2018-05-09T22:24:59Z</time>
      </trkpt>
      <trkpt lat="43.89853" lon="7.2269">
        <ele>1034</ele>
        <time>2018-05-09T22:25:59Z</time>
      </trkpt>
      <trkpt lat="43.8985" lon="7.22687">
        <ele>1035</ele>
        <time>2018-05-09T22:26:59Z</time>
      </trkpt>
      <trkpt lat="43.89847" lon="7.22683">
        <ele>1036</ele>
        <time>2018-05-09T22:27:59Z</time>
      </trkpt>
      <trkpt lat="43.89842" lon="7.22674">
        <ele>1037</ele>
        <time>2018-05-09T22:28:59Z</time>
      </trkpt>
      <trkpt lat="43.89839" lon="7.22666">
        <ele>1038</ele>
        <time>2018-05-09T22:29:59Z</time>
      </trkpt>
      <trkpt lat="43.89841" lon="7.22662">
        <ele>1037</ele>
        <time>2018-05-09T22:30:59Z</time>
      </trkpt>
      <trkpt lat="43.89852" lon="7.22648">
        <ele>1037</ele>
        <time>2018-05-09T22:31:59Z</time>
      </trkpt>
      <trkpt lat="43.89861" lon="7.22628">
        <ele>1037</ele>
        <time>2018-05-09T22:32:59Z</time>
      </trkpt>
      <trkpt lat="43.89867" lon="7.22601">
        <ele>1037</ele>
        <time>2018-05-09T22:33:59Z</time>
      </trkpt>
      <trkpt lat="43.8987" lon="7.2259">
        <ele>1038</ele>
        <time>2018-05-09T22:34:59Z</time>
      </trkpt>
      <trkpt lat="43.89878" lon="7.22527">
        <ele>1039</ele>
        <time>2018-05-09T22:35:59Z</time>
      </trkpt>
      <trkpt lat="43.89879" lon="7.22518">
        <ele>1039</ele>
        <time>2018-05-09T22:36:59Z</time>
      </trkpt>
      <trkpt lat="43.8988" lon="7.22513">
        <ele>1039</ele>
        <time>2018-05-09T22:37:59Z</time>
      </trkpt>
      <trkpt lat="43.8988" lon="7.2251">
        <ele>1039</ele>
        <time>2018-05-09T22:38:59Z</time>
      </trkpt>
      <trkpt lat="43.89881" lon="7.22497">
        <ele>1040</ele>
        <time>2018-05-09T22:39:59Z</time>
      </trkpt>
      <trkpt lat="43.89878" lon="7.22475">
        <ele>1041</ele>
        <time>2018-05-09T22:40:59Z</time>
      </trkpt>
      <trkpt lat="43.89875" lon="7.22456">
        <ele>1042</ele>
        <time>2018-05-09T22:41:59Z</time>
      </trkpt>
      <trkpt lat="43.8987" lon="7.22411">
        <ele>1045</ele>
        <time>2018-05-09T22:42:59Z</time>
      </trkpt>
      <trkpt lat="43.89866" lon="7.22393">
        <ele>1045</ele>
        <time>2018-05-09T22:43:59Z</time>
      </trkpt>
      <trkpt lat="43.8986" lon="7.22374">
        <ele>1045</ele>
        <time>2018-05-09T22:44:59Z</time>
      </trkpt>
      <trkpt lat="43.89853" lon="7.22351">
        <ele>1046</ele>
        <time>2018-05-09T22:45:59Z</time>
      </trkpt>
      <trkpt lat="43.89841" lon="7.22326">
        <ele>1046</ele>
        <time>2018-05-09T22:46:59Z</time>
      </trkpt>
      <trkpt lat="43.89839" lon="7.22321">
        <ele>1046</ele>
        <time>2018-05-09T22:47:59Z</time>
      </trkpt>
      <trkpt lat="43.89833" lon="7.22298">
        <ele>1045</ele>
        <time>2018-05-09T22:48:59Z</time>
      </trkpt>
      <trkpt lat="43.89827" lon="7.22281">
        <ele>1044</ele>
        <time>2018-05-09T22:49:59Z</time>
      </trkpt>
      <trkpt lat="43.89823" lon="7.22268">
        <ele>1043</ele>
        <time>2018-05-09T22:50:59Z</time>
      </trkpt>
      <trkpt lat="43.89817" lon="7.22228">
        <ele>1042</ele>
        <time>2018-05-09T22:51:59Z</time>
      </trkpt>
      <trkpt lat="43.89816" lon="7.22215">
        <ele>1042</ele>
        <time>2018-05-09T22:52:59Z</time>
      </trkpt>
      <trkpt lat="43.89811" lon="7.22198">
        <ele>1042</ele>
        <time>2018-05-09T22:53:59Z</time>
      </trkpt>
      <trkpt lat="43.89797" lon="7.22163">
        <ele>1042</ele>
        <time>2018-05-09T22:54:59Z</time>
      </trkpt>
      <trkpt lat="43.89787" lon="7.22141">
        <ele>1043</ele>
        <time>2018-05-09T22:55:59Z</time>
      </trkpt>
      <trkpt lat="43.89781" lon="7.2212">
        <ele>1044</ele>
        <time>2018-05-09T22:56:59Z</time>
      </trkpt>
      <trkpt lat="43.89775" lon="7.22088">
        <ele>1047</ele>
        <time>2018-05-09T22:57:59Z</time>
      </trkpt>
      <trkpt lat="43.89768" lon="7.22057">
        <ele>1049</ele>
        <time>2018-05-09T22:58:59Z</time>
      </trkpt>
      <trkpt lat="43.89762" lon="7.22024">
        <ele>1050</ele>
        <time>2018-05-09T22:59:59Z</time>
      </trkpt>
      <trkpt lat="43.8976" lon="7.2202">
        <ele>1051</ele>
        <time>2018-05-09T23:00:59Z</time>
      </trkpt>
      <trkpt lat="43.89751" lon="7.22002">
        <ele>1053</ele>
        <time>2018-05-09T23:01:59Z</time>
      </trkpt>
      <trkpt lat="43.89748" lon="7.21994">
        <ele>1052</ele>
        <time>2018-05-09T23:02:59Z</time>
      </trkpt>
      <trkpt lat="43.89727" lon="7.21944">
        <ele>1044</ele>
        <time>2018-05-09T23:03:59Z</time>
      </trkpt>
      <trkpt lat="43.8972" lon="7.21924">
        <ele>1042</ele>
        <time>2018-05-09T23:04:59Z</time>
      </trkpt>
      <trkpt lat="43.89703" lon="7.21874">
        <ele>1038</ele>
        <time>2018-05-09T23:05:59Z</time>
      </trkpt>
      <trkpt lat="43.897" lon="7.21865">
        <ele>1038</ele>
        <time>2018-05-09T23:06:59Z</time>
      </trkpt>
      <trkpt lat="43.89701" lon="7.21856">
        <ele>1039</ele>
        <time>2018-05-09T23:07:59Z</time>
      </trkpt>
      <trkpt lat="43.89696" lon="7.2184">
        <ele>1039</ele>
        <time>2018-05-09T23:08:59Z</time>
      </trkpt>
      <trkpt lat="43.89693" lon="7.21836">
        <ele>1039</ele>
        <time>2018-05-09T23:09:59Z</time>
      </trkpt>
      <trkpt lat="43.89689" lon="7.21828">
        <ele>1039</ele>
        <time>2018-05-09T23:10:59Z</time>
      </trkpt>
      <trkpt lat="43.89684" lon="7.21821">
        <ele>1038</ele>
        <time>2018-05-09T23:11:59Z</time>
      </trkpt>
      <trkpt lat="43.89679" lon="7.21814">
        <ele>1038</ele>
        <time>2018-05-09T23:12:59Z</time>
      </trkpt>
      <trkpt lat="43.89676" lon="7.21796">
        <ele>1040</ele>
        <time>2018-05-09T23:13:59Z</time>
      </trkpt>
      <trkpt lat="43.89675" lon="7.21789">
        <ele>1041</ele>
        <time>2018-05-09T23:14:59Z</time>
      </trkpt>
      <trkpt lat="43.89677" lon="7.21777">
        <ele>1044</ele>
        <time>2018-05-09T23:15:59Z</time>
      </trkpt>
      <trkpt lat="43.89677" lon="7.21775">
        <ele>1044</ele>
        <time>2018-05-09T23:16:59Z</time>
      </trkpt>
      <trkpt lat="43.89675" lon="7.21773">
        <ele>1044</ele>
        <time>2018-05-09T23:17:59Z</time>
      </trkpt>
      <trkpt lat="43.89673" lon="7.21774">
        <ele>1044</ele>
        <time>2018-05-09T23:18:59Z</time>
      </trkpt>
      <trkpt lat="43.89671" lon="7.21774">
        <ele>1043</ele>
        <time>2018-05-09T23:19:59Z</time>
      </trkpt>
      <trkpt lat="43.89669" lon="7.21772">
        <ele>1043</ele>
        <time>2018-05-09T23:20:59Z</time>
      </trkpt>
      <trkpt lat="43.89665" lon="7.21768">
        <ele>1043</ele>
        <time>2018-05-09T23:21:59Z</time>
      </trkpt>
      <trkpt lat="43.89658" lon="7.21766">
        <ele>1042</ele>
        <time>2018-05-09T23:22:59Z</time>
      </trkpt>
      <trkpt lat="43.89653" lon="7.21763">
        <ele>1042</ele>
        <time>2018-05-09T23:23:59Z</time>
      </trkpt>
      <trkpt lat="43.8965" lon="7.21762">
        <ele>1041</ele>
        <time>2018-05-09T23:24:59Z</time>
      </trkpt>
      <trkpt lat="43.89643" lon="7.21762">
        <ele>1040</ele>
        <time>2018-05-09T23:25:59Z</time>
      </trkpt>
      <trkpt lat="43.89637" lon="7.21759">
        <ele>1039</ele>
        <time>2018-05-09T23:26:59Z</time>
      </trkpt>
      <trkpt lat="43.89635" lon="7.21758">
        <ele>1039</ele>
        <time>2018-05-09T23:27:59Z</time>
      </trkpt>
      <trkpt lat="43.89628" lon="7.21752">
        <ele>1039</ele>
        <time>2018-05-09T23:28:59Z</time>
      </trkpt>
      <trkpt lat="43.89611" lon="7.21743">
        <ele>1036</ele>
        <time>2018-05-09T23:29:59Z</time>
      </trkpt>
      <trkpt lat="43.89594" lon="7.21726">
        <ele>1034</ele>
        <time>2018-05-09T23:30:59Z</time>
      </trkpt>
      <trkpt lat="43.89591" lon="7.2172">
        <ele>1034</ele>
        <time>2018-05-09T23:31:59Z</time>
      </trkpt>
      <trkpt lat="43.89579" lon="7.21706">
        <ele>1033</ele>
        <time>2018-05-09T23:32:59Z</time>
      </trkpt>
      <trkpt lat="43.89563" lon="7.21679">
        <ele>1036</ele>
        <time>2018-05-09T23:33:59Z</time>
      </trkpt>
      <trkpt lat="43.89561" lon="7.21675">
        <ele>1036</ele>
        <time>2018-05-09T23:34:59Z</time>
      </trkpt>
      <trkpt lat="43.89559" lon="7.21659">
        <ele>1036</ele>
        <time>2018-05-09T23:35:59Z</time>
      </trkpt>
      <trkpt lat="43.89558" lon="7.21653">
        <ele>1035</ele>
        <time>2018-05-09T23:36:59Z</time>
      </trkpt>
      <trkpt lat="43.89558" lon="7.21634">
        <ele>1032</ele>
        <time>2018-05-09T23:37:59Z</time>
      </trkpt>
      <trkpt lat="43.89557" lon="7.21629">
        <ele>1031</ele>
        <time>2018-05-09T23:38:59Z</time>
      </trkpt>
      <trkpt lat="43.89547" lon="7.21606">
        <ele>1028</ele>
        <time>2018-05-09T23:39:59Z</time>
      </trkpt>
      <trkpt lat="43.89544" lon="7.21599">
        <ele>1028</ele>
        <time>2018-05-09T23:40:59Z</time>
      </trkpt>
      <trkpt lat="43.89537" lon="7.21576">
        <ele>1024</ele>
        <time>2018-05-09T23:41:59Z</time>
      </trkpt>
      <trkpt lat="43.89536" lon="7.2157">
        <ele>1023</ele>
        <time>2018-05-09T23:42:59Z</time>
      </trkpt>
      <trkpt lat="43.89534" lon="7.21561">
        <ele>1022</ele>
        <time>2018-05-09T23:43:59Z</time>
      </trkpt>
      <trkpt lat="43.89532" lon="7.21552">
        <ele>1020</ele>
        <time>2018-05-09T23:44:59Z</time>
      </trkpt>
      <trkpt lat="43.89529" lon="7.21533">
        <ele>1017</ele>
        <time>2018-05-09T23:45:59Z</time>
      </trkpt>
      <trkpt lat="43.89527" lon="7.21524">
        <ele>1016</ele>
        <time>2018-05-09T23:46:59Z</time>
      </trkpt>
      <trkpt lat="43.89526" lon="7.21516">
        <ele>1014</ele>
        <time>2018-05-09T23:47:59Z</time>
      </trkpt>
      <trkpt lat="43.89525" lon="7.21494">
        <ele>1010</ele>
        <time>2018-05-09T23:48:59Z</time>
      </trkpt>
      <trkpt lat="43.89525" lon="7.21489">
        <ele>1009</ele>
        <time>2018-05-09T23:49:59Z</time>
      </trkpt>
      <trkpt lat="43.89521" lon="7.21469">
        <ele>1005</ele>
        <time>2018-05-09T23:50:59Z</time>
      </trkpt>
      <trkpt lat="43.89518" lon="7.21453">
        <ele>1002</ele>
        <time>2018-05-09T23:51:59Z</time>
      </trkpt>
      <trkpt lat="43.89517" lon="7.21434">
        <ele>999</ele>
        <time>2018-05-09T23:52:59Z</time>
      </trkpt>
      <trkpt lat="43.89517" lon="7.21424">
        <ele>997</ele>
        <time>2018-05-09T23:53:59Z</time>
      </trkpt>
      <trkpt lat="43.89512" lon="7.214">
        <ele>994</ele>
        <time>2018-05-09T23:54:59Z</time>
      </trkpt>
      <trkpt lat="43.89511" lon="7.21395">
        <ele>994</ele>
        <time>2018-05-09T23:55:59Z</time>
      </trkpt>
      <trkpt lat="43.89515" lon="7.2138">
        <ele>991</ele>
        <time>2018-05-09T23:56:59Z</time>
      </trkpt>
      <trkpt lat="43.89513" lon="7.21357">
        <ele>988</ele>
        <time>2018-05-09T23:57:59Z</time>
      </trkpt>
      <trkpt lat="43.89511" lon="7.21336">
        <ele>986</ele>
        <time>2018-05-09T23:58:59Z</time>
      </trkpt>
      <trkpt lat="43.89514" lon="7.21296">
        <ele>974</ele>
        <time>2018-05-09T23:59:59Z</time>
      </trkpt>
      <trkpt lat="43.89514" lon="7.21285">
        <ele>971</ele>
        <time>2018-05-10T00:00:59Z</time>
      </trkpt>
      <trkpt lat="43.89512" lon="7.21281">
        <ele>971</ele>
        <time>2018-05-10T00:01:59Z</time>
      </trkpt>
      <trkpt lat="43.8951" lon="7.2127">
        <ele>969</ele>
        <time>2018-05-10T00:02:59Z</time>
      </trkpt>
      <trkpt lat="43.89509" lon="7.21264">
        <ele>968</ele>
        <time>2018-05-10T00:03:59Z</time>
      </trkpt>
      <trkpt lat="43.89509" lon="7.21261">
        <ele>967</ele>
        <time>2018-05-10T00:04:59Z</time>
      </trkpt>
      <trkpt lat="43.89509" lon="7.21258">
        <ele>966</ele>
        <time>2018-05-10T00:05:59Z</time>
      </trkpt>
      <trkpt lat="43.89508" lon="7.21247">
        <ele>964</ele>
        <time>2018-05-10T00:06:59Z</time>
      </trkpt>
      <trkpt lat="43.89502" lon="7.21235">
        <ele>963</ele>
        <time>2018-05-10T00:07:59Z</time>
      </trkpt>
      <trkpt lat="43.895" lon="7.21228">
        <ele>962</ele>
        <time>2018-05-10T00:08:59Z</time>
      </trkpt>
      <trkpt lat="43.89497" lon="7.21224">
        <ele>962</ele>
        <time>2018-05-10T00:09:59Z</time>
      </trkpt>
      <trkpt lat="43.89492" lon="7.21221">
        <ele>963</ele>
        <time>2018-05-10T00:10:59Z</time>
      </trkpt>
      <trkpt lat="43.8949" lon="7.21216">
        <ele>962</ele>
        <time>2018-05-10T00:11:59Z</time>
      </trkpt>
      <trkpt lat="43.89489" lon="7.21213">
        <ele>962</ele>
        <time>2018-05-10T00:12:59Z</time>
      </trkpt>
      <trkpt lat="43.89484" lon="7.21207">
        <ele>962</ele>
        <time>2018-05-10T00:13:59Z</time>
      </trkpt>
      <trkpt lat="43.89476" lon="7.21197">
        <ele>961</ele>
        <time>2018-05-10T00:14:59Z</time>
      </trkpt>
      <trkpt lat="43.89471" lon="7.2119">
        <ele>960</ele>
        <time>2018-05-10T00:15:59Z</time>
      </trkpt>
      <trkpt lat="43.89468" lon="7.21188">
        <ele>961</ele>
        <time>2018-05-10T00:16:59Z</time>
      </trkpt>
      <trkpt lat="43.89465" lon="7.21187">
        <ele>961</ele>
        <time>2018-05-10T00:17:59Z</time>
      </trkpt>
      <trkpt lat="43.89463" lon="7.21184">
        <ele>961</ele>
        <time>2018-05-10T00:18:59Z</time>
      </trkpt>
      <trkpt lat="43.89458" lon="7.21178">
        <ele>960</ele>
        <time>2018-05-10T00:19:59Z</time>
      </trkpt>
      <trkpt lat="43.8944" lon="7.21167">
        <ele>961</ele>
        <time>2018-05-10T00:20:59Z</time>
      </trkpt>
      <trkpt lat="43.8943" lon="7.2116">
        <ele>961</ele>
        <time>2018-05-10T00:21:59Z</time>
      </trkpt>
      <trkpt lat="43.89422" lon="7.21152">
        <ele>961</ele>
        <time>2018-05-10T00:22:59Z</time>
      </trkpt>
      <trkpt lat="43.89408" lon="7.21134">
        <ele>958</ele>
        <time>2018-05-10T00:23:59Z</time>
      </trkpt>
      <trkpt lat="43.89399" lon="7.21124">
        <ele>957</ele>
        <time>2018-05-10T00:24:59Z</time>
      </trkpt>
      <trkpt lat="43.89396" lon="7.2112">
        <ele>956</ele>
        <time>2018-05-10T00:25:59Z</time>
      </trkpt>
      <trkpt lat="43.89374" lon="7.21099">
        <ele>953</ele>
        <time>2018-05-10T00:26:59Z</time>
      </trkpt>
      <trkpt lat="43.8937" lon="7.21096">
        <ele>953</ele>
        <time>2018-05-10T00:27:59Z</time>
      </trkpt>
      <trkpt lat="43.89352" lon="7.21084">
        <ele>951</ele>
        <time>2018-05-10T00:28:59Z</time>
      </trkpt>
      <trkpt lat="43.89332" lon="7.21071">
        <ele>951</ele>
        <time>2018-05-10T00:29:59Z</time>
      </trkpt>
      <trkpt lat="43.89324" lon="7.21065">
        <ele>950</ele>
        <time>2018-05-10T00:30:59Z</time>
      </trkpt>
      <trkpt lat="43.89314" lon="7.21059">
        <ele>949</ele>
        <time>2018-05-10T00:31:59Z</time>
      </trkpt>
      <trkpt lat="43.89309" lon="7.21053">
        <ele>947</ele>
        <time>2018-05-10T00:32:59Z</time>
      </trkpt>
      <trkpt lat="43.89298" lon="7.21044">
        <ele>945</ele>
        <time>2018-05-10T00:33:59Z</time>
      </trkpt>
      <trkpt lat="43.89277" lon="7.21033">
        <ele>943</ele>
        <time>2018-05-10T00:34:59Z</time>
      </trkpt>
      <trkpt lat="43.89266" lon="7.21028">
        <ele>943</ele>
        <time>2018-05-10T00:35:59Z</time>
      </trkpt>
      <trkpt lat="43.89253" lon="7.21021">
        <ele>941</ele>
        <time>2018-05-10T00:36:59Z</time>
      </trkpt>
      <trkpt lat="43.89247" lon="7.21018">
        <ele>940</ele>
        <time>2018-05-10T00:37:59Z</time>
      </trkpt>
      <trkpt lat="43.89238" lon="7.21015">
        <ele>939</ele>
        <time>2018-05-10T00:38:59Z</time>
      </trkpt>
      <trkpt lat="43.89236" lon="7.21014">
        <ele>939</ele>
        <time>2018-05-10T00:39:59Z</time>
      </trkpt>
      <trkpt lat="43.8923" lon="7.21006">
        <ele>936</ele>
        <time>2018-05-10T00:40:59Z</time>
      </trkpt>
      <trkpt lat="43.89228" lon="7.21003">
        <ele>935</ele>
        <time>2018-05-10T00:41:59Z</time>
      </trkpt>
      <trkpt lat="43.89218" lon="7.20997">
        <ele>933</ele>
        <time>2018-05-10T00:42:59Z</time>
      </trkpt>
      <trkpt lat="43.89214" lon="7.20994">
        <ele>933</ele>
        <time>2018-05-10T00:43:59Z</time>
      </trkpt>
      <trkpt lat="43.89206" lon="7.20984">
        <ele>930</ele>
        <time>2018-05-10T00:44:59Z</time>
      </trkpt>
      <trkpt lat="43.89199" lon="7.20977">
        <ele>929</ele>
        <time>2018-05-10T00:45:59Z</time>
      </trkpt>
      <trkpt lat="43.89191" lon="7.20967">
        <ele>927</ele>
        <time>2018-05-10T00:46:59Z</time>
      </trkpt>
      <trkpt lat="43.89185" lon="7.20963">
        <ele>926</ele>
        <time>2018-05-10T00:47:59Z</time>
      </trkpt>
      <trkpt lat="43.89179" lon="7.20959">
        <ele>925</ele>
        <time>2018-05-10T00:48:59Z</time>
      </trkpt>
      <trkpt lat="43.89172" lon="7.20956">
        <ele>925</ele>
        <time>2018-05-10T00:49:59Z</time>
      </trkpt>
      <trkpt lat="43.89165" lon="7.20954">
        <ele>924</ele>
        <time>2018-05-10T00:50:59Z</time>
      </trkpt>
      <trkpt lat="43.89157" lon="7.20954">
        <ele>925</ele>
        <time>2018-05-10T00:51:59Z</time>
      </trkpt>
      <trkpt lat="43.89149" lon="7.20954">
        <ele>925</ele>
        <time>2018-05-10T00:52:59Z</time>
      </trkpt>
      <trkpt lat="43.89142" lon="7.20952">
        <ele>925</ele>
        <time>2018-05-10T00:53:59Z</time>
      </trkpt>
      <trkpt lat="43.89129" lon="7.20948">
        <ele>924</ele>
        <time>2018-05-10T00:54:59Z</time>
      </trkpt>
      <trkpt lat="43.89122" lon="7.20947">
        <ele>924</ele>
        <time>2018-05-10T00:55:59Z</time>
      </trkpt>
      <trkpt lat="43.89111" lon="7.20947">
        <ele>924</ele>
        <time>2018-05-10T00:56:59Z</time>
      </trkpt>
      <trkpt lat="43.89107" lon="7.20945">
        <ele>924</ele>
        <time>2018-05-10T00:57:59Z</time>
      </trkpt>
      <trkpt lat="43.89087" lon="7.20931">
        <ele>921</ele>
        <time>2018-05-10T00:58:59Z</time>
      </trkpt>
      <trkpt lat="43.89077" lon="7.20922">
        <ele>919</ele>
        <time>2018-05-10T00:59:59Z</time>
      </trkpt>
      <trkpt lat="43.89071" lon="7.20917">
        <ele>917</ele>
        <time>2018-05-10T01:00:59Z</time>
      </trkpt>
      <trkpt lat="43.89067" lon="7.20912">
        <ele>916</ele>
        <time>2018-05-10T01:01:59Z</time>
      </trkpt>
      <trkpt lat="43.89064" lon="7.20906">
        <ele>916</ele>
        <time>2018-05-10T01:02:59Z</time>
      </trkpt>
      <trkpt lat="43.89049" lon="7.20883">
        <ele>914</ele>
        <time>2018-05-10T01:03:59Z</time>
      </trkpt>
      <trkpt lat="43.89045" lon="7.20867">
        <ele>913</ele>
        <time>2018-05-10T01:04:59Z</time>
      </trkpt>
      <trkpt lat="43.89041" lon="7.20846">
        <ele>912</ele>
        <time>2018-05-10T01:05:59Z</time>
      </trkpt>
      <trkpt lat="43.8904" lon="7.20841">
        <ele>911</ele>
        <time>2018-05-10T01:06:59Z</time>
      </trkpt>
      <trkpt lat="43.89029" lon="7.20815">
        <ele>908</ele>
        <time>2018-05-10T01:07:59Z</time>
      </trkpt>
      <trkpt lat="43.89023" lon="7.20804">
        <ele>906</ele>
        <time>2018-05-10T01:08:59Z</time>
      </trkpt>
      <trkpt lat="43.8902" lon="7.20802">
        <ele>905</ele>
        <time>2018-05-10T01:09:59Z</time>
      </trkpt>
      <trkpt lat="43.89003" lon="7.20791">
        <ele>904</ele>
        <time>2018-05-10T01:10:59Z</time>
      </trkpt>
      <trkpt lat="43.88992" lon="7.20787">
        <ele>903</ele>
        <time>2018-05-10T01:11:59Z</time>
      </trkpt>
      <trkpt lat="43.88984" lon="7.20783">
        <ele>902</ele>
        <time>2018-05-10T01:12:59Z</time>
      </trkpt>
      <trkpt lat="43.88973" lon="7.20778">
        <ele>901</ele>
        <time>2018-05-10T01:13:59Z</time>
      </trkpt>
      <trkpt lat="43.88967" lon="7.20773">
        <ele>900</ele>
        <time>2018-05-10T01:14:59Z</time>
      </trkpt>
      <trkpt lat="43.88965" lon="7.20771">
        <ele>900</ele>
        <time>2018-05-10T01:15:59Z</time>
      </trkpt>
      <trkpt lat="43.88954" lon="7.20764">
        <ele>898</ele>
        <time>2018-05-10T01:16:59Z</time>
      </trkpt>
      <trkpt lat="43.8895" lon="7.20762">
        <ele>898</ele>
        <time>2018-05-10T01:17:59Z</time>
      </trkpt>
      <trkpt lat="43.88946" lon="7.20758">
        <ele>897</ele>
        <time>2018-05-10T01:18:59Z</time>
      </trkpt>
      <trkpt lat="43.88933" lon="7.20744">
        <ele>893</ele>
        <time>2018-05-10T01:19:59Z</time>
      </trkpt>
      <trkpt lat="43.88931" lon="7.20742">
        <ele>892</ele>
        <time>2018-05-10T01:20:59Z</time>
      </trkpt>
      <trkpt lat="43.8893" lon="7.20741">
        <ele>892</ele>
        <time>2018-05-10T01:21:59Z</time>
      </trkpt>
      <trkpt lat="43.88929" lon="7.20741">
        <ele>892</ele>
        <time>2018-05-10T01:22:59Z</time>
      </trkpt>
      <trkpt lat="43.88927" lon="7.20741">
        <ele>892</ele>
        <time>2018-05-10T01:23:59Z</time>
      </trkpt>
      <trkpt lat="43.88925" lon="7.2074">
        <ele>891</ele>
        <time>2018-05-10T01:24:59Z</time>
      </trkpt>
      <trkpt lat="43.88923" lon="7.20737">
        <ele>890</ele>
        <time>2018-05-10T01:25:59Z</time>
      </trkpt>
      <trkpt lat="43.88919" lon="7.20733">
        <ele>888</ele>
        <time>2018-05-10T01:26:59Z</time>
      </trkpt>
      <trkpt lat="43.88916" lon="7.20725">
        <ele>885</ele>
        <time>2018-05-10T01:27:59Z</time>
      </trkpt>
      <trkpt lat="43.88914" lon="7.20721">
        <ele>883</ele>
        <time>2018-05-10T01:28:59Z</time>
      </trkpt>
      <trkpt lat="43.88903" lon="7.20711">
        <ele>878</ele>
        <time>2018-05-10T01:29:59Z</time>
      </trkpt>
      <trkpt lat="43.88899" lon="7.20708">
        <ele>876</ele>
        <time>2018-05-10T01:30:59Z</time>
      </trkpt>
      <trkpt lat="43.88879" lon="7.20696">
        <ele>871</ele>
        <time>2018-05-10T01:31:59Z</time>
      </trkpt>
      <trkpt lat="43.88871" lon="7.20691">
        <ele>870</ele>
        <time>2018-05-10T01:32:59Z</time>
      </trkpt>
      <trkpt lat="43.88851" lon="7.20686">
        <ele>869</ele>
        <time>2018-05-10T01:33:59Z</time>
      </trkpt>
      <trkpt lat="43.88847" lon="7.20683">
        <ele>869</ele>
        <time>2018-05-10T01:34:59Z</time>
      </trkpt>
      <trkpt lat="43.88843" lon="7.20679">
        <ele>869</ele>
        <time>2018-05-10T01:35:59Z</time>
      </trkpt>
      <trkpt lat="43.88841" lon="7.20674">
        <ele>869</ele>
        <time>2018-05-10T01:36:59Z</time>
      </trkpt>
      <trkpt lat="43.88843" lon="7.20651">
        <ele>868</ele>
        <time>2018-05-10T01:37:59Z</time>
      </trkpt>
      <trkpt lat="43.88843" lon="7.20645">
        <ele>868</ele>
        <time>2018-05-10T01:38:59Z</time>
      </trkpt>
      <trkpt lat="43.88843" lon="7.20632">
        <ele>868</ele>
        <time>2018-05-10T01:39:59Z</time>
      </trkpt>
      <trkpt lat="43.88843" lon="7.20623">
        <ele>868</ele>
        <time>2018-05-10T01:40:59Z</time>
      </trkpt>
      <trkpt lat="43.88846" lon="7.20606">
        <ele>868</ele>
        <time>2018-05-10T01:41:59Z</time>
      </trkpt>
      <trkpt lat="43.8885" lon="7.20589">
        <ele>866</ele>
        <time>2018-05-10T01:42:59Z</time>
      </trkpt>
      <trkpt lat="43.88855" lon="7.20572">
        <ele>862</ele>
        <time>2018-05-10T01:43:59Z</time>
      </trkpt>
      <trkpt lat="43.88858" lon="7.20557">
        <ele>858</ele>
        <time>2018-05-10T01:44:59Z</time>
      </trkpt>
      <trkpt lat="43.88859" lon="7.20551">
        <ele>856</ele>
        <time>2018-05-10T01:45:59Z</time>
      </trkpt>
      <trkpt lat="43.88858" lon="7.20537">
        <ele>854</ele>
        <time>2018-05-10T01:46:59Z</time>
      </trkpt>
      <trkpt lat="43.88856" lon="7.20531">
        <ele>853</ele>
        <time>2018-05-10T01:47:59Z</time>
      </trkpt>
      <trkpt lat="43.88846" lon="7.20516">
        <ele>853</ele>
        <time>2018-05-10T01:48:59Z</time>
      </trkpt>
      <trkpt lat="43.88842" lon="7.20512">
        <ele>854</ele>
        <time>2018-05-10T01:49:59Z</time>
      </trkpt>
      <trkpt lat="43.88838" lon="7.20508">
        <ele>854</ele>
        <time>2018-05-10T01:50:59Z</time>
      </trkpt>
      <trkpt lat="43.88814" lon="7.20486">
        <ele>851</ele>
        <time>2018-05-10T01:51:59Z</time>
      </trkpt>
      <trkpt lat="43.88809" lon="7.20482">
        <ele>850</ele>
        <time>2018-05-10T01:52:59Z</time>
      </trkpt>
      <trkpt lat="43.888" lon="7.20475">
        <ele>849</ele>
        <time>2018-05-10T01:53:59Z</time>
      </trkpt>
      <trkpt lat="43.88789" lon="7.20469">
        <ele>848</ele>
        <time>2018-05-10T01:54:59Z</time>
      </trkpt>
      <trkpt lat="43.88733" lon="7.2045">
        <ele>847</ele>
        <time>2018-05-10T01:55:59Z</time>
      </trkpt>
      <trkpt lat="43.88727" lon="7.20449">
        <ele>846</ele>
        <time>2018-05-10T01:56:59Z</time>
      </trkpt>
      <trkpt lat="43.88693" lon="7.20452">
        <ele>841</ele>
        <time>2018-05-10T01:57:59Z</time>
      </trkpt>
      <trkpt lat="43.88684" lon="7.20453">
        <ele>840</ele>
        <time>2018-05-10T01:58:59Z</time>
      </trkpt>
      <trkpt lat="43.88658" lon="7.20461">
        <ele>834</ele>
        <time>2018-05-10T01:59:59Z</time>
      </trkpt>
      <trkpt lat="43.88655" lon="7.20463">
        <ele>833</ele>
        <time>2018-05-10T02:00:59Z</time>
      </trkpt>
      <trkpt lat="43.88632" lon="7.20467">
        <ele>828</ele>
        <time>2018-05-10T02:01:59Z</time>
      </trkpt>
      <trkpt lat="43.88626" lon="7.20468">
        <ele>827</ele>
        <time>2018-05-10T02:02:59Z</time>
      </trkpt>
      <trkpt lat="43.88614" lon="7.20468">
        <ele>824</ele>
        <time>2018-05-10T02:03:59Z</time>
      </trkpt>
      <trkpt lat="43.88589" lon="7.20463">
        <ele>822</ele>
        <time>2018-05-10T02:04:59Z</time>
      </trkpt>
      <trkpt lat="43.88586" lon="7.20464">
        <ele>821</ele>
        <time>2018-05-10T02:05:59Z</time>
      </trkpt>
      <trkpt lat="43.88579" lon="7.20462">
        <ele>821</ele>
        <time>2018-05-10T02:06:59Z</time>
      </trkpt>
      <trkpt lat="43.88567" lon="7.20461">
        <ele>822</ele>
        <time>2018-05-10T02:07:59Z</time>
      </trkpt>
      <trkpt lat="43.88556" lon="7.20462">
        <ele>822</ele>
        <time>2018-05-10T02:08:59Z</time>
      </trkpt>
      <trkpt lat="43.8854" lon="7.20466">
        <ele>820</ele>
        <time>2018-05-10T02:09:59Z</time>
      </trkpt>
      <trkpt lat="43.88531" lon="7.20467">
        <ele>820</ele>
        <time>2018-05-10T02:10:59Z</time>
      </trkpt>
      <trkpt lat="43.88524" lon="7.20467">
        <ele>820</ele>
        <time>2018-05-10T02:11:59Z</time>
      </trkpt>
      <trkpt lat="43.88515" lon="7.20469">
        <ele>819</ele>
        <time>2018-05-10T02:12:59Z</time>
      </trkpt>
      <trkpt lat="43.88495" lon="7.20465">
        <ele>822</ele>
        <time>2018-05-10T02:13:59Z</time>
      </trkpt>
      <trkpt lat="43.88486" lon="7.20461">
        <ele>826</ele>
        <time>2018-05-10T02:14:59Z</time>
      </trkpt>
      <trkpt lat="43.88484" lon="7.20461">
        <ele>827</ele>
        <time>2018-05-10T02:15:59Z</time>
      </trkpt>
      <trkpt lat="43.88468" lon="7.20466">
        <ele>829</ele>
        <time>2018-05-10T02:16:59Z</time>
      </trkpt>
      <trkpt lat="43.88457" lon="7.20481">
        <ele>826</ele>
        <time>2018-05-10T02:17:59Z</time>
      </trkpt>
      <trkpt lat="43.88446" lon="7.20496">
        <ele>823</ele>
        <time>2018-05-10T02:18:59Z</time>
      </trkpt>
      <trkpt lat="43.88432" lon="7.2051">
        <ele>823</ele>
        <time>2018-05-10T02:19:59Z</time>
      </trkpt>
      <trkpt lat="43.88421" lon="7.20521">
        <ele>822</ele>
        <time>2018-05-10T02:20:59Z</time>
      </trkpt>
      <trkpt lat="43.8841" lon="7.20531">
        <ele>822</ele>
        <time>2018-05-10T02:21:59Z</time>
      </trkpt>
      <trkpt lat="43.88373" lon="7.20556">
        <ele>822</ele>
        <time>2018-05-10T02:22:59Z</time>
      </trkpt>
      <trkpt lat="43.88354" lon="7.20572">
        <ele>822</ele>
        <time>2018-05-10T02:23:59Z</time>
      </trkpt>
      <trkpt lat="43.88333" lon="7.2058">
        <ele>824</ele>
        <time>2018-05-10T02:24:59Z</time>
      </trkpt>
      <trkpt lat="43.88318" lon="7.20585">
        <ele>822</ele>
        <time>2018-05-10T02:25:59Z</time>
      </trkpt>
      <trkpt lat="43.88304" lon="7.20588">
        <ele>822</ele>
        <time>2018-05-10T02:26:59Z</time>
      </trkpt>
      <trkpt lat="43.88299" lon="7.2059">
        <ele>821</ele>
        <time>2018-05-10T02:27:59Z</time>
      </trkpt>
      <trkpt lat="43.88283" lon="7.20598">
        <ele>819</ele>
        <time>2018-05-10T02:28:59Z</time>
      </trkpt>
      <trkpt lat="43.88264" lon="7.20612">
        <ele>817</ele>
        <time>2018-05-10T02:29:59Z</time>
      </trkpt>
      <trkpt lat="43.88241" lon="7.20619">
        <ele>816</ele>
        <time>2018-05-10T02:30:59Z</time>
      </trkpt>
      <trkpt lat="43.88235" lon="7.20623">
        <ele>815</ele>
        <time>2018-05-10T02:31:59Z</time>
      </trkpt>
      <trkpt lat="43.88218" lon="7.20633">
        <ele>813</ele>
        <time>2018-05-10T02:32:59Z</time>
      </trkpt>
      <trkpt lat="43.88214" lon="7.20638">
        <ele>813</ele>
        <time>2018-05-10T02:33:59Z</time>
      </trkpt>
      <trkpt lat="43.88212" lon="7.20644">
        <ele>812</ele>
        <time>2018-05-10T02:34:59Z</time>
      </trkpt>
      <trkpt lat="43.88207" lon="7.20653">
        <ele>812</ele>
        <time>2018-05-10T02:35:59Z</time>
      </trkpt>
      <trkpt lat="43.88206" lon="7.20653">
        <ele>812</ele>
        <time>2018-05-10T02:36:59Z</time>
      </trkpt>
      <trkpt lat="43.88195" lon="7.20648">
        <ele>812</ele>
        <time>2018-05-10T02:37:59Z</time>
      </trkpt>
      <trkpt lat="43.88191" lon="7.20647">
        <ele>812</ele>
        <time>2018-05-10T02:38:59Z</time>
      </trkpt>
      <trkpt lat="43.88183" lon="7.20649">
        <ele>812</ele>
        <time>2018-05-10T02:39:59Z</time>
      </trkpt>
      <trkpt lat="43.88174" lon="7.20652">
        <ele>812</ele>
        <time>2018-05-10T02:40:59Z</time>
      </trkpt>
      <trkpt lat="43.88161" lon="7.2065">
        <ele>813</ele>
        <time>2018-05-10T02:41:59Z</time>
      </trkpt>
      <trkpt lat="43.88141" lon="7.20651">
        <ele>813</ele>
        <time>2018-05-10T02:42:59Z</time>
      </trkpt>
      <trkpt lat="43.8813" lon="7.2065">
        <ele>813</ele>
        <time>2018-05-10T02:43:59Z</time>
      </trkpt>
      <trkpt lat="43.88091" lon="7.20637">
        <ele>813</ele>
        <time>2018-05-10T02:44:59Z</time>
      </trkpt>
      <trkpt lat="43.88087" lon="7.20636">
        <ele>813</ele>
        <time>2018-05-10T02:45:59Z</time>
      </trkpt>
      <trkpt lat="43.8807" lon="7.20635">
        <ele>814</ele>
        <time>2018-05-10T02:46:59Z</time>
      </trkpt>
      <trkpt lat="43.88066" lon="7.20634">
        <ele>814</ele>
        <time>2018-05-10T02:47:59Z</time>
      </trkpt>
      <trkpt lat="43.88042" lon="7.20635">
        <ele>815</ele>
        <time>2018-05-10T02:48:59Z</time>
      </trkpt>
      <trkpt lat="43.88024" lon="7.20635">
        <ele>816</ele>
        <time>2018-05-10T02:49:59Z</time>
      </trkpt>
      <trkpt lat="43.87999" lon="7.20627">
        <ele>815</ele>
        <time>2018-05-10T02:50:59Z</time>
      </trkpt>
      <trkpt lat="43.87989" lon="7.20621">
        <ele>814</ele>
        <time>2018-05-10T02:51:59Z</time>
      </trkpt>
      <trkpt lat="43.87962" lon="7.20621">
        <ele>812</ele>
        <time>2018-05-10T02:52:59Z</time>
      </trkpt>
      <trkpt lat="43.87949" lon="7.20621">
        <ele>811</ele>
        <time>2018-05-10T02:53:59Z</time>
      </trkpt>
      <trkpt lat="43.87924" lon="7.20625">
        <ele>810</ele>
        <time>2018-05-10T02:54:59Z</time>
      </trkpt>
      <trkpt lat="43.87918" lon="7.20627">
        <ele>809</ele>
        <time>2018-05-10T02:55:59Z</time>
      </trkpt>
      <trkpt lat="43.87901" lon="7.20632">
        <ele>806</ele>
        <time>2018-05-10T02:56:59Z</time>
      </trkpt>
      <trkpt lat="43.87891" lon="7.2064">
        <ele>805</ele>
        <time>2018-05-10T02:57:59Z</time>
      </trkpt>
      <trkpt lat="43.87885" lon="7.20645">
        <ele>804</ele>
        <time>2018-05-10T02:58:59Z</time>
      </trkpt>
      <trkpt lat="43.87871" lon="7.20664">
        <ele>803</ele>
        <time>2018-05-10T02:59:59Z</time>
      </trkpt>
      <trkpt lat="43.87868" lon="7.2067">
        <ele>804</ele>
        <time>2018-05-10T03:00:59Z</time>
      </trkpt>
      <trkpt lat="43.87864" lon="7.20684">
        <ele>804</ele>
        <time>2018-05-10T03:01:59Z</time>
      </trkpt>
      <trkpt lat="43.87857" lon="7.20703">
        <ele>805</ele>
        <time>2018-05-10T03:02:59Z</time>
      </trkpt>
      <trkpt lat="43.87853" lon="7.20709">
        <ele>805</ele>
        <time>2018-05-10T03:03:59Z</time>
      </trkpt>
      <trkpt lat="43.87841" lon="7.20717">
        <ele>803</ele>
        <time>2018-05-10T03:04:59Z</time>
      </trkpt>
      <trkpt lat="43.87834" lon="7.20728">
        <ele>803</ele>
        <time>2018-05-10T03:05:59Z</time>
      </trkpt>
      <trkpt lat="43.87829" lon="7.20733">
        <ele>803</ele>
        <time>2018-05-10T03:06:59Z</time>
      </trkpt>
      <trkpt lat="43.87824" lon="7.20737">
        <ele>802</ele>
        <time>2018-05-10T03:07:59Z</time>
      </trkpt>
      <trkpt lat="43.87806" lon="7.20749">
        <ele>801</ele>
        <time>2018-05-10T03:08:59Z</time>
      </trkpt>
      <trkpt lat="43.87794" lon="7.20756">
        <ele>800</ele>
        <time>2018-05-10T03:09:59Z</time>
      </trkpt>
      <trkpt lat="43.87788" lon="7.20759">
        <ele>799</ele>
        <time>2018-05-10T03:10:59Z</time>
      </trkpt>
      <trkpt lat="43.87782" lon="7.2076">
        <ele>799</ele>
        <time>2018-05-10T03:11:59Z</time>
      </trkpt>
      <trkpt lat="43.87777" lon="7.2076">
        <ele>798</ele>
        <time>2018-05-10T03:12:59Z</time>
      </trkpt>
      <trkpt lat="43.87771" lon="7.20761">
        <ele>797</ele>
        <time>2018-05-10T03:13:59Z</time>
      </trkpt>
      <trkpt lat="43.87754" lon="7.20771">
        <ele>795</ele>
        <time>2018-05-10T03:14:59Z</time>
      </trkpt>
      <trkpt lat="43.87748" lon="7.20775">
        <ele>795</ele>
        <time>2018-05-10T03:15:59Z</time>
      </trkpt>
      <trkpt lat="43.87729" lon="7.20781">
        <ele>789</ele>
        <time>2018-05-10T03:16:59Z</time>
      </trkpt>
      <trkpt lat="43.87722" lon="7.20783">
        <ele>787</ele>
        <time>2018-05-10T03:17:59Z</time>
      </trkpt>
      <trkpt lat="43.877" lon="7.20792">
        <ele>781</ele>
        <time>2018-05-10T03:18:59Z</time>
      </trkpt>
      <trkpt lat="43.87693" lon="7.20795">
        <ele>779</ele>
        <time>2018-05-10T03:19:59Z</time>
      </trkpt>
      <trkpt lat="43.87682" lon="7.20798">
        <ele>776</ele>
        <time>2018-05-10T03:20:59Z</time>
      </trkpt>
      <trkpt lat="43.87677" lon="7.208">
        <ele>775</ele>
        <time>2018-05-10T03:21:59Z</time>
      </trkpt>
      <trkpt lat="43.87669" lon="7.20803">
        <ele>772</ele>
        <time>2018-05-10T03:22:59Z</time>
      </trkpt>
      <trkpt lat="43.87664" lon="7.20805">
        <ele>771</ele>
        <time>2018-05-10T03:23:59Z</time>
      </trkpt>
      <trkpt lat="43.87658" lon="7.20806">
        <ele>770</ele>
        <time>2018-05-10T03:24:59Z</time>
      </trkpt>
      <trkpt lat="43.87641" lon="7.208">
        <ele>765</ele>
        <time>2018-05-10T03:25:59Z</time>
      </trkpt>
      <trkpt lat="43.87635" lon="7.208">
        <ele>764</ele>
        <time>2018-05-10T03:26:59Z</time>
      </trkpt>
      <trkpt lat="43.87628" lon="7.20801">
        <ele>763</ele>
        <time>2018-05-10T03:27:59Z</time>
      </trkpt>
      <trkpt lat="43.87613" lon="7.20802">
        <ele>759</ele>
        <time>2018-05-10T03:28:59Z</time>
      </trkpt>
      <trkpt lat="43.87608" lon="7.20804">
        <ele>758</ele>
        <time>2018-05-10T03:29:59Z</time>
      </trkpt>
      <trkpt lat="43.87597" lon="7.20809">
        <ele>756</ele>
        <time>2018-05-10T03:30:59Z</time>
      </trkpt>
      <trkpt lat="43.87588" lon="7.20812">
        <ele>754</ele>
        <time>2018-05-10T03:31:59Z</time>
      </trkpt>
      <trkpt lat="43.87579" lon="7.20811">
        <ele>752</ele>
        <time>2018-05-10T03:32:59Z</time>
      </trkpt>
      <trkpt lat="43.87574" lon="7.20812">
        <ele>751</ele>
        <time>2018-05-10T03:33:59Z</time>
      </trkpt>
      <trkpt lat="43.8757" lon="7.20813">
        <ele>750</ele>
        <time>2018-05-10T03:34:59Z</time>
      </trkpt>
      <trkpt lat="43.87567" lon="7.20814">
        <ele>750</ele>
        <time>2018-05-10T03:35:59Z</time>
      </trkpt>
      <trkpt lat="43.87564" lon="7.20813">
        <ele>749</ele>
        <time>2018-05-10T03:36:59Z</time>
      </trkpt>
      <trkpt lat="43.87559" lon="7.20811">
        <ele>748</ele>
        <time>2018-05-10T03:37:59Z</time>
      </trkpt>
      <trkpt lat="43.87552" lon="7.20812">
        <ele>746</ele>
        <time>2018-05-10T03:38:59Z</time>
      </trkpt>
      <trkpt lat="43.87547" lon="7.20811">
        <ele>745</ele>
        <time>2018-05-10T03:39:59Z</time>
      </trkpt>
      <trkpt lat="43.87542" lon="7.2081">
        <ele>744</ele>
        <time>2018-05-10T03:40:59Z</time>
      </trkpt>
      <trkpt lat="43.87536" lon="7.20809">
        <ele>742</ele>
        <time>2018-05-10T03:41:59Z</time>
      </trkpt>
      <trkpt lat="43.87514" lon="7.20805">
        <ele>737</ele>
        <time>2018-05-10T03:42:59Z</time>
      </trkpt>
      <trkpt lat="43.87509" lon="7.20804">
        <ele>736</ele>
        <time>2018-05-10T03:43:59Z</time>
      </trkpt>
      <trkpt lat="43.87493" lon="7.20804">
        <ele>732</ele>
        <time>2018-05-10T03:44:59Z</time>
      </trkpt>
      <trkpt lat="43.87489" lon="7.20806">
        <ele>732</ele>
        <time>2018-05-10T03:45:59Z</time>
      </trkpt>
      <trkpt lat="43.87482" lon="7.20805">
        <ele>730</ele>
        <time>2018-05-10T03:46:59Z</time>
      </trkpt>
      <trkpt lat="43.87478" lon="7.20803">
        <ele>729</ele>
        <time>2018-05-10T03:47:59Z</time>
      </trkpt>
      <trkpt lat="43.87474" lon="7.20802">
        <ele>728</ele>
        <time>2018-05-10T03:48:59Z</time>
      </trkpt>
      <trkpt lat="43.87453" lon="7.20801">
        <ele>724</ele>
        <time>2018-05-10T03:49:59Z</time>
      </trkpt>
      <trkpt lat="43.8744" lon="7.20802">
        <ele>722</ele>
        <time>2018-05-10T03:50:59Z</time>
      </trkpt>
      <trkpt lat="43.8741" lon="7.20798">
        <ele>715</ele>
        <time>2018-05-10T03:51:59Z</time>
      </trkpt>
      <trkpt lat="43.87403" lon="7.20797">
        <ele>714</ele>
        <time>2018-05-10T03:52:59Z</time>
      </trkpt>
      <trkpt lat="43.87371" lon="7.20798">
        <ele>707</ele>
        <time>2018-05-10T03:53:59Z</time>
      </trkpt>
      <trkpt lat="43.87366" lon="7.20798">
        <ele>706</ele>
        <time>2018-05-10T03:54:59Z</time>
      </trkpt>
      <trkpt lat="43.87362" lon="7.208">
        <ele>705</ele>
        <time>2018-05-10T03:55:59Z</time>
      </trkpt>
      <trkpt lat="43.87356" lon="7.20807">
        <ele>705</ele>
        <time>2018-05-10T03:56:59Z</time>
      </trkpt>
      <trkpt lat="43.87349" lon="7.20813">
        <ele>705</ele>
        <time>2018-05-10T03:57:59Z</time>
      </trkpt>
      <trkpt lat="43.87344" lon="7.20816">
        <ele>705</ele>
        <time>2018-05-10T03:58:59Z</time>
      </trkpt>
      <trkpt lat="43.87337" lon="7.20819">
        <ele>704</ele>
        <time>2018-05-10T03:59:59Z</time>
      </trkpt>
      <trkpt lat="43.87329" lon="7.20821">
        <ele>703</ele>
        <time>2018-05-10T04:00:59Z</time>
      </trkpt>
      <trkpt lat="43.87324" lon="7.20821">
        <ele>702</ele>
        <time>2018-05-10T04:01:59Z</time>
      </trkpt>
      <trkpt lat="43.87319" lon="7.20821">
        <ele>701</ele>
        <time>2018-05-10T04:02:59Z</time>
      </trkpt>
      <trkpt lat="43.87307" lon="7.20825">
        <ele>700</ele>
        <time>2018-05-10T04:03:59Z</time>
      </trkpt>
      <trkpt lat="43.87302" lon="7.20826">
        <ele>700</ele>
        <time>2018-05-10T04:04:59Z</time>
      </trkpt>
      <trkpt lat="43.87296" lon="7.20829">
        <ele>699</ele>
        <time>2018-05-10T04:05:59Z</time>
      </trkpt>
      <trkpt lat="43.87285" lon="7.20834">
        <ele>699</ele>
        <time>2018-05-10T04:06:59Z</time>
      </trkpt>
      <trkpt lat="43.87275" lon="7.2084">
        <ele>696</ele>
        <time>2018-05-10T04:07:59Z</time>
      </trkpt>
      <trkpt lat="43.87272" lon="7.20841">
        <ele>695</ele>
        <time>2018-05-10T04:08:59Z</time>
      </trkpt>
      <trkpt lat="43.87266" lon="7.20838">
        <ele>695</ele>
        <time>2018-05-10T04:09:59Z</time>
      </trkpt>
      <trkpt lat="43.87262" lon="7.20837">
        <ele>694</ele>
        <time>2018-05-10T04:10:59Z</time>
      </trkpt>
      <trkpt lat="43.87257" lon="7.20836">
        <ele>694</ele>
        <time>2018-05-10T04:11:59Z</time>
      </trkpt>
      <trkpt lat="43.87246" lon="7.20838">
        <ele>691</ele>
        <time>2018-05-10T04:12:59Z</time>
      </trkpt>
      <trkpt lat="43.8724" lon="7.20838">
        <ele>691</ele>
        <time>2018-05-10T04:13:59Z</time>
      </trkpt>
      <trkpt lat="43.87227" lon="7.20836">
        <ele>689</ele>
        <time>2018-05-10T04:14:59Z</time>
      </trkpt>
      <trkpt lat="43.87221" lon="7.20836">
        <ele>688</ele>
        <time>2018-05-10T04:15:59Z</time>
      </trkpt>
      <trkpt lat="43.87211" lon="7.20839">
        <ele>686</ele>
        <time>2018-05-10T04:16:59Z</time>
      </trkpt>
      <trkpt lat="43.87196" lon="7.20829">
        <ele>684</ele>
        <time>2018-05-10T04:17:59Z</time>
      </trkpt>
      <trkpt lat="43.87186" lon="7.20822">
        <ele>680</ele>
        <time>2018-05-10T04:18:59Z</time>
      </trkpt>
      <trkpt lat="43.8718" lon="7.2082">
        <ele>679</ele>
        <time>2018-05-10T04:19:59Z</time>
      </trkpt>
      <trkpt lat="43.8717" lon="7.20818">
        <ele>677</ele>
        <time>2018-05-10T04:20:59Z</time>
      </trkpt>
      <trkpt lat="43.87166" lon="7.2082">
        <ele>677</ele>
        <time>2018-05-10T04:21:59Z</time>
      </trkpt>
      <trkpt lat="43.87164" lon="7.20822">
        <ele>677</ele>
        <time>2018-05-10T04:22:59Z</time>
      </trkpt>
      <trkpt lat="43.87164" lon="7.2083">
        <ele>679</ele>
        <time>2018-05-10T04:23:59Z</time>
      </trkpt>
      <trkpt lat="43.87164" lon="7.20835">
        <ele>680</ele>
        <time>2018-05-10T04:24:59Z</time>
      </trkpt>
      <trkpt lat="43.87164" lon="7.2084">
        <ele>679</ele>
        <time>2018-05-10T04:25:59Z</time>
      </trkpt>
      <trkpt lat="43.87173" lon="7.20859">
        <ele>677</ele>
        <time>2018-05-10T04:26:59Z</time>
      </trkpt>
      <trkpt lat="43.87175" lon="7.20866">
        <ele>676</ele>
        <time>2018-05-10T04:27:59Z</time>
      </trkpt>
      <trkpt lat="43.87177" lon="7.2087">
        <ele>675</ele>
        <time>2018-05-10T04:28:59Z</time>
      </trkpt>
      <trkpt lat="43.87191" lon="7.2088">
        <ele>675</ele>
        <time>2018-05-10T04:29:59Z</time>
      </trkpt>
      <trkpt lat="43.87195" lon="7.20882">
        <ele>676</ele>
        <time>2018-05-10T04:30:59Z</time>
      </trkpt>
      <trkpt lat="43.87209" lon="7.20883">
        <ele>677</ele>
        <time>2018-05-10T04:31:59Z</time>
      </trkpt>
      <trkpt lat="43.87224" lon="7.20885">
        <ele>679</ele>
        <time>2018-05-10T04:32:59Z</time>
      </trkpt>
      <trkpt lat="43.87228" lon="7.20887">
        <ele>679</ele>
        <time>2018-05-10T04:33:59Z</time>
      </trkpt>
      <trkpt lat="43.87253" lon="7.20893">
        <ele>681</ele>
        <time>2018-05-10T04:34:59Z</time>
      </trkpt>
      <trkpt lat="43.87272" lon="7.20898">
        <ele>681</ele>
        <time>2018-05-10T04:35:59Z</time>
      </trkpt>
      <trkpt lat="43.8729" lon="7.20898">
        <ele>683</ele>
        <time>2018-05-10T04:36:59Z</time>
      </trkpt>
      <trkpt lat="43.87295" lon="7.20897">
        <ele>683</ele>
        <time>2018-05-10T04:37:59Z</time>
      </trkpt>
      <trkpt lat="43.87304" lon="7.20898">
        <ele>684</ele>
        <time>2018-05-10T04:38:59Z</time>
      </trkpt>
      <trkpt lat="43.8732" lon="7.209">
        <ele>684</ele>
        <time>2018-05-10T04:39:59Z</time>
      </trkpt>
      <trkpt lat="43.87326" lon="7.20901">
        <ele>685</ele>
        <time>2018-05-10T04:40:59Z</time>
      </trkpt>
      <trkpt lat="43.87344" lon="7.20907">
        <ele>685</ele>
        <time>2018-05-10T04:41:59Z</time>
      </trkpt>
      <trkpt lat="43.87351" lon="7.20909">
        <ele>686</ele>
        <time>2018-05-10T04:42:59Z</time>
      </trkpt>
      <trkpt lat="43.8738" lon="7.20911">
        <ele>690</ele>
        <time>2018-05-10T04:43:59Z</time>
      </trkpt>
      <trkpt lat="43.87396" lon="7.20922">
        <ele>689</ele>
        <time>2018-05-10T04:44:59Z</time>
      </trkpt>
      <trkpt lat="43.87413" lon="7.20946">
        <ele>682</ele>
        <time>2018-05-10T04:45:59Z</time>
      </trkpt>
      <trkpt lat="43.87431" lon="7.20964">
        <ele>680</ele>
        <time>2018-05-10T04:46:59Z</time>
      </trkpt>
      <trkpt lat="43.8744" lon="7.20969">
        <ele>682</ele>
        <time>2018-05-10T04:47:59Z</time>
      </trkpt>
      <trkpt lat="43.87465" lon="7.20981">
        <ele>687</ele>
        <time>2018-05-10T04:48:59Z</time>
      </trkpt>
      <trkpt lat="43.87486" lon="7.20995">
        <ele>691</ele>
        <time>2018-05-10T04:49:59Z</time>
      </trkpt>
      <trkpt lat="43.87515" lon="7.21017">
        <ele>694</ele>
        <time>2018-05-10T04:50:59Z</time>
      </trkpt>
      <trkpt lat="43.87521" lon="7.21029">
        <ele>692</ele>
        <time>2018-05-10T04:51:59Z</time>
      </trkpt>
      <trkpt lat="43.87522" lon="7.21035">
        <ele>690</ele>
        <time>2018-05-10T04:52:59Z</time>
      </trkpt>
      <trkpt lat="43.8753" lon="7.21059">
        <ele>684</ele>
        <time>2018-05-10T04:53:59Z</time>
      </trkpt>
      <trkpt lat="43.87533" lon="7.21063">
        <ele>684</ele>
        <time>2018-05-10T04:54:59Z</time>
      </trkpt>
      <trkpt lat="43.87537" lon="7.21062">
        <ele>685</ele>
        <time>2018-05-10T04:55:59Z</time>
      </trkpt>
      <trkpt lat="43.87545" lon="7.21068">
        <ele>685</ele>
        <time>2018-05-10T04:56:59Z</time>
      </trkpt>
      <trkpt lat="43.87551" lon="7.21071">
        <ele>686</ele>
        <time>2018-05-10T04:57:59Z</time>
      </trkpt>
      <trkpt lat="43.87557" lon="7.21071">
        <ele>688</ele>
        <time>2018-05-10T04:58:59Z</time>
      </trkpt>
      <trkpt lat="43.87574" lon="7.21079">
        <ele>690</ele>
        <time>2018-05-10T04:59:59Z</time>
      </trkpt>
      <trkpt lat="43.87582" lon="7.21084">
        <ele>690</ele>
        <time>2018-05-10T05:00:59Z</time>
      </trkpt>
      <trkpt lat="43.876" lon="7.21091">
        <ele>693</ele>
        <time>2018-05-10T05:01:59Z</time>
      </trkpt>
      <trkpt lat="43.87603" lon="7.21091">
        <ele>694</ele>
        <time>2018-05-10T05:02:59Z</time>
      </trkpt>
      <trkpt lat="43.87625" lon="7.21102">
        <ele>696</ele>
        <time>2018-05-10T05:03:59Z</time>
      </trkpt>
      <trkpt lat="43.87647" lon="7.21112">
        <ele>699</ele>
        <time>2018-05-10T05:04:59Z</time>
      </trkpt>
      <trkpt lat="43.87661" lon="7.21125">
        <ele>699</ele>
        <time>2018-05-10T05:05:59Z</time>
      </trkpt>
      <trkpt lat="43.87669" lon="7.21138">
        <ele>697</ele>
        <time>2018-05-10T05:06:59Z</time>
      </trkpt>
      <trkpt lat="43.8767" lon="7.21143">
        <ele>696</ele>
        <time>2018-05-10T05:07:59Z</time>
      </trkpt>
      <trkpt lat="43.87672" lon="7.2115">
        <ele>695</ele>
        <time>2018-05-10T05:08:59Z</time>
      </trkpt>
      <trkpt lat="43.87676" lon="7.21157">
        <ele>694</ele>
        <time>2018-05-10T05:09:59Z</time>
      </trkpt>
      <trkpt lat="43.87686" lon="7.21169">
        <ele>693</ele>
        <time>2018-05-10T05:10:59Z</time>
      </trkpt>
      <trkpt lat="43.87696" lon="7.21177">
        <ele>693</ele>
        <time>2018-05-10T05:11:59Z</time>
      </trkpt>
      <trkpt lat="43.877" lon="7.21179">
        <ele>694</ele>
        <time>2018-05-10T05:12:59Z</time>
      </trkpt>
      <trkpt lat="43.87715" lon="7.21182">
        <ele>698</ele>
        <time>2018-05-10T05:13:59Z</time>
      </trkpt>
      <trkpt lat="43.87724" lon="7.21192">
        <ele>697</ele>
        <time>2018-05-10T05:14:59Z</time>
      </trkpt>
      <trkpt lat="43.87727" lon="7.21195">
        <ele>697</ele>
        <time>2018-05-10T05:15:59Z</time>
      </trkpt>
      <trkpt lat="43.87736" lon="7.21214">
        <ele>693</ele>
        <time>2018-05-10T05:16:59Z</time>
      </trkpt>
      <trkpt lat="43.87743" lon="7.21231">
        <ele>689</ele>
        <time>2018-05-10T05:17:59Z</time>
      </trkpt>
      <trkpt lat="43.87747" lon="7.2124">
        <ele>688</ele>
        <time>2018-05-10T05:18:59Z</time>
      </trkpt>
      <trkpt lat="43.87749" lon="7.21242">
        <ele>688</ele>
        <time>2018-05-10T05:19:59Z</time>
      </trkpt>
      <trkpt lat="43.87753" lon="7.21247">
        <ele>686</ele>
        <time>2018-05-10T05:20:59Z</time>
      </trkpt>
      <trkpt lat="43.87758" lon="7.21252">
        <ele>685</ele>
        <time>2018-05-10T05:21:59Z</time>
      </trkpt>
      <trkpt lat="43.87758" lon="7.21253">
        <ele>685</ele>
        <time>2018-05-10T05:22:59Z</time>
      </trkpt>
      <trkpt lat="43.87771" lon="7.21259">
        <ele>684</ele>
        <time>2018-05-10T05:23:59Z</time>
      </trkpt>
      <trkpt lat="43.87772" lon="7.2126">
        <ele>684</ele>
        <time>2018-05-10T05:24:59Z</time>
      </trkpt>
      <trkpt lat="43.8778" lon="7.21258">
        <ele>686</ele>
        <time>2018-05-10T05:25:59Z</time>
      </trkpt>
      <trkpt lat="43.87784" lon="7.21257">
        <ele>687</ele>
        <time>2018-05-10T05:26:59Z</time>
      </trkpt>
      <trkpt lat="43.87796" lon="7.21251">
        <ele>690</ele>
        <time>2018-05-10T05:27:59Z</time>
      </trkpt>
      <trkpt lat="43.878" lon="7.21249">
        <ele>691</ele>
        <time>2018-05-10T05:28:59Z</time>
      </trkpt>
      <trkpt lat="43.87806" lon="7.21243">
        <ele>694</ele>
        <time>2018-05-10T05:29:59Z</time>
      </trkpt>
      <trkpt lat="43.87808" lon="7.21242">
        <ele>695</ele>
        <time>2018-05-10T05:30:59Z</time>
      </trkpt>
      <trkpt lat="43.87814" lon="7.21234">
        <ele>698</ele>
        <time>2018-05-10T05:31:59Z</time>
      </trkpt>
      <trkpt lat="43.87828" lon="7.21219">
        <ele>704</ele>
        <time>2018-05-10T05:32:59Z</time>
      </trkpt>
      <trkpt lat="43.87836" lon="7.21212">
        <ele>706</ele>
        <time>2018-05-10T05:33:59Z</time>
      </trkpt>
      <trkpt lat="43.8784" lon="7.21208">
        <ele>706</ele>
        <time>2018-05-10T05:34:59Z</time>
      </trkpt>
      <trkpt lat="43.87847" lon="7.21197">
        <ele>708</ele>
        <time>2018-05-10T05:35:59Z</time>
      </trkpt>
      <trkpt lat="43.87856" lon="7.21185">
        <ele>709</ele>
        <time>2018-05-10T05:36:59Z</time>
      </trkpt>
      <trkpt lat="43.87873" lon="7.21165">
        <ele>712</ele>
        <time>2018-05-10T05:37:59Z</time>
      </trkpt>
      <trkpt lat="43.87877" lon="7.21161">
        <ele>713</ele>
        <time>2018-05-10T05:38:59Z</time>
      </trkpt>
      <trkpt lat="43.87894" lon="7.21151">
        <ele>713</ele>
        <time>2018-05-10T05:39:59Z</time>
      </trkpt>
      <trkpt lat="43.87902" lon="7.21148">
        <ele>712</ele>
        <time>2018-05-10T05:40:59Z</time>
      </trkpt>
      <trkpt lat="43.87915" lon="7.21144">
        <ele>711</ele>
        <time>2018-05-10T05:41:59Z</time>
      </trkpt>
      <trkpt lat="43.87925" lon="7.21142">
        <ele>711</ele>
        <time>2018-05-10T05:42:59Z</time>
      </trkpt>
      <trkpt lat="43.87935" lon="7.21137">
        <ele>712</ele>
        <time>2018-05-10T05:43:59Z</time>
      </trkpt>
      <trkpt lat="43.87939" lon="7.21135">
        <ele>712</ele>
        <time>2018-05-10T05:44:59Z</time>
      </trkpt>
      <trkpt lat="43.87952" lon="7.21134">
        <ele>711</ele>
        <time>2018-05-10T05:45:59Z</time>
      </trkpt>
      <trkpt lat="43.87978" lon="7.21142">
        <ele>705</ele>
        <time>2018-05-10T05:46:59Z</time>
      </trkpt>
      <trkpt lat="43.87984" lon="7.21144">
        <ele>704</ele>
        <time>2018-05-10T05:47:59Z</time>
      </trkpt>
      <trkpt lat="43.87997" lon="7.21143">
        <ele>703</ele>
        <time>2018-05-10T05:48:59Z</time>
      </trkpt>
      <trkpt lat="43.88013" lon="7.21137">
        <ele>701</ele>
        <time>2018-05-10T05:49:59Z</time>
      </trkpt>
      <trkpt lat="43.88018" lon="7.21136">
        <ele>700</ele>
        <time>2018-05-10T05:50:59Z</time>
      </trkpt>
      <trkpt lat="43.88023" lon="7.21134">
        <ele>700</ele>
        <time>2018-05-10T05:51:59Z</time>
      </trkpt>
      <trkpt lat="43.88033" lon="7.21128">
        <ele>700</ele>
        <time>2018-05-10T05:52:59Z</time>
      </trkpt>
      <trkpt lat="43.88049" lon="7.21114">
        <ele>701</ele>
        <time>2018-05-10T05:53:59Z</time>
      </trkpt>
      <trkpt lat="43.88052" lon="7.21111">
        <ele>702</ele>
        <time>2018-05-10T05:54:59Z</time>
      </trkpt>
      <trkpt lat="43.88062" lon="7.211">
        <ele>704</ele>
        <time>2018-05-10T05:55:59Z</time>
      </trkpt>
      <trkpt lat="43.88065" lon="7.21098">
        <ele>704</ele>
        <time>2018-05-10T05:56:59Z</time>
      </trkpt>
      <trkpt lat="43.88068" lon="7.21096">
        <ele>704</ele>
        <time>2018-05-10T05:57:59Z</time>
      </trkpt>
      <trkpt lat="43.88076" lon="7.21096">
        <ele>702</ele>
        <time>2018-05-10T05:58:59Z</time>
      </trkpt>
      <trkpt lat="43.88079" lon="7.21095">
        <ele>702</ele>
        <time>2018-05-10T05:59:59Z</time>
      </trkpt>
      <trkpt lat="43.88097" lon="7.2109">
        <ele>700</ele>
        <time>2018-05-10T06:00:59Z</time>
      </trkpt>
      <trkpt lat="43.88108" lon="7.21083">
        <ele>701</ele>
        <time>2018-05-10T06:01:59Z</time>
      </trkpt>
      <trkpt lat="43.88121" lon="7.21084">
        <ele>698</ele>
        <time>2018-05-10T06:02:59Z</time>
      </trkpt>
      <trkpt lat="43.88133" lon="7.21078">
        <ele>698</ele>
        <time>2018-05-10T06:03:59Z</time>
      </trkpt>
      <trkpt lat="43.8815" lon="7.2107">
        <ele>698</ele>
        <time>2018-05-10T06:04:59Z</time>
      </trkpt>
      <trkpt lat="43.88164" lon="7.21067">
        <ele>696</ele>
        <time>2018-05-10T06:05:59Z</time>
      </trkpt>
      <trkpt lat="43.8818" lon="7.21063">
        <ele>695</ele>
        <time>2018-05-10T06:06:59Z</time>
      </trkpt>
      <trkpt lat="43.88185" lon="7.21061">
        <ele>695</ele>
        <time>2018-05-10T06:07:59Z</time>
      </trkpt>
      <trkpt lat="43.88192" lon="7.21056">
        <ele>696</ele>
        <time>2018-05-10T06:08:59Z</time>
      </trkpt>
      <trkpt lat="43.88194" lon="7.21055">
        <ele>696</ele>
        <time>2018-05-10T06:09:59Z</time>
      </trkpt>
      <trkpt lat="43.88197" lon="7.21052">
        <ele>697</ele>
        <time>2018-05-10T06:10:59Z</time>
      </trkpt>
      <trkpt lat="43.88201" lon="7.21048">
        <ele>698</ele>
        <time>2018-05-10T06:11:59Z</time>
      </trkpt>
      <trkpt lat="43.88211" lon="7.21042">
        <ele>699</ele>
        <time>2018-05-10T06:12:59Z</time>
      </trkpt>
      <trkpt lat="43.88226" lon="7.21035">
        <ele>699</ele>
        <time>2018-05-10T06:13:59Z</time>
      </trkpt>
      <trkpt lat="43.88242" lon="7.21032">
        <ele>697</ele>
        <time>2018-05-10T06:14:59Z</time>
      </trkpt>
      <trkpt lat="43.88259" lon="7.21036">
        <ele>693</ele>
        <time>2018-05-10T06:15:59Z</time>
      </trkpt>
      <trkpt lat="43.88267" lon="7.21037">
        <ele>692</ele>
        <time>2018-05-10T06:16:59Z</time>
      </trkpt>
      <trkpt lat="43.88281" lon="7.21038">
        <ele>690</ele>
        <time>2018-05-10T06:17:59Z</time>
      </trkpt>
      <trkpt lat="43.88286" lon="7.21038">
        <ele>689</ele>
        <time>2018-05-10T06:18:59Z</time>
      </trkpt>
      <trkpt lat="43.88291" lon="7.21037">
        <ele>689</ele>
        <time>2018-05-10T06:19:59Z</time>
      </trkpt>
      <trkpt lat="43.88297" lon="7.21034">
        <ele>689</ele>
        <time>2018-05-10T06:20:59Z</time>
      </trkpt>
      <trkpt lat="43.88307" lon="7.21028">
        <ele>690</ele>
        <time>2018-05-10T06:21:59Z</time>
      </trkpt>
      <trkpt lat="43.88312" lon="7.21023">
        <ele>691</ele>
        <time>2018-05-10T06:22:59Z</time>
      </trkpt>
      <trkpt lat="43.88319" lon="7.21014">
        <ele>693</ele>
        <time>2018-05-10T06:23:59Z</time>
      </trkpt>
      <trkpt lat="43.88323" lon="7.2101">
        <ele>693</ele>
        <time>2018-05-10T06:24:59Z</time>
      </trkpt>
      <trkpt lat="43.88334" lon="7.21001">
        <ele>694</ele>
        <time>2018-05-10T06:25:59Z</time>
      </trkpt>
      <trkpt lat="43.88349" lon="7.20989">
        <ele>698</ele>
        <time>2018-05-10T06:26:59Z</time>
      </trkpt>
      <trkpt lat="43.88353" lon="7.20984">
        <ele>700</ele>
        <time>2018-05-10T06:27:59Z</time>
      </trkpt>
      <trkpt lat="43.88367" lon="7.20971">
        <ele>703</ele>
        <time>2018-05-10T06:28:59Z</time>
      </trkpt>
      <trkpt lat="43.88376" lon="7.20967">
        <ele>704</ele>
        <time>2018-05-10T06:29:59Z</time>
      </trkpt>
      <trkpt lat="43.8838" lon="7.20966">
        <ele>704</ele>
        <time>2018-05-10T06:30:59Z</time>
      </trkpt>
      <trkpt lat="43.88383" lon="7.20967">
        <ele>704</ele>
        <time>2018-05-10T06:31:59Z</time>
      </trkpt>
      <trkpt lat="43.88388" lon="7.20968">
        <ele>704</ele>
        <time>2018-05-10T06:32:59Z</time>
      </trkpt>
      <trkpt lat="43.88389" lon="7.20968">
        <ele>704</ele>
        <time>2018-05-10T06:33:59Z</time>
      </trkpt>
      <trkpt lat="43.88397" lon="7.20975">
        <ele>702</ele>
        <time>2018-05-10T06:34:59Z</time>
      </trkpt>
      <trkpt lat="43.88399" lon="7.2098">
        <ele>702</ele>
        <time>2018-05-10T06:35:59Z</time>
      </trkpt>
      <trkpt lat="43.88399" lon="7.20982">
        <ele>701</ele>
        <time>2018-05-10T06:36:59Z</time>
      </trkpt>
      <trkpt lat="43.88393" lon="7.20984">
        <ele>701</ele>
        <time>2018-05-10T06:37:59Z</time>
      </trkpt>
      <trkpt lat="43.88391" lon="7.20986">
        <ele>701</ele>
        <time>2018-05-10T06:38:59Z</time>
      </trkpt>
      <trkpt lat="43.88385" lon="7.20994">
        <ele>699</ele>
        <time>2018-05-10T06:39:59Z</time>
      </trkpt>
      <trkpt lat="43.88379" lon="7.21008">
        <ele>696</ele>
        <time>2018-05-10T06:40:59Z</time>
      </trkpt>
      <trkpt lat="43.88379" lon="7.21015">
        <ele>695</ele>
        <time>2018-05-10T06:41:59Z</time>
      </trkpt>
      <trkpt lat="43.88382" lon="7.2105">
        <ele>692</ele>
        <time>2018-05-10T06:42:59Z</time>
      </trkpt>
      <trkpt lat="43.88383" lon="7.21057">
        <ele>691</ele>
        <time>2018-05-10T06:43:59Z</time>
      </trkpt>
      <trkpt lat="43.88386" lon="7.21068">
        <ele>691</ele>
        <time>2018-05-10T06:44:59Z</time>
      </trkpt>
      <trkpt lat="43.88391" lon="7.21073">
        <ele>692</ele>
        <time>2018-05-10T06:45:59Z</time>
      </trkpt>
      <trkpt lat="43.88394" lon="7.21073">
        <ele>693</ele>
        <time>2018-05-10T06:46:59Z</time>
      </trkpt>
      <trkpt lat="43.88398" lon="7.21079">
        <ele>694</ele>
        <time>2018-05-10T06:47:59Z</time>
      </trkpt>
      <trkpt lat="43.88392" lon="7.21108">
        <ele>691</ele>
        <time>2018-05-10T06:48:59Z</time>
      </trkpt>
      <trkpt lat="43.8839" lon="7.21121">
        <ele>690</ele>
        <time>2018-05-10T06:49:59Z</time>
      </trkpt>
      <trkpt lat="43.8839" lon="7.21127">
        <ele>690</ele>
        <time>2018-05-10T06:50:59Z</time>
      </trkpt>
      <trkpt lat="43.88391" lon="7.21134">
        <ele>690</ele>
        <time>2018-05-10T06:51:59Z</time>
      </trkpt>
      <trkpt lat="43.88393" lon="7.2114">
        <ele>691</ele>
        <time>2018-05-10T06:52:59Z</time>
      </trkpt>
      <trkpt lat="43.88395" lon="7.21147">
        <ele>692</ele>
        <time>2018-05-10T06:53:59Z</time>
      </trkpt>
      <trkpt lat="43.884" lon="7.21158">
        <ele>694</ele>
        <time>2018-05-10T06:54:59Z</time>
      </trkpt>
      <trkpt lat="43.884" lon="7.21165">
        <ele>694</ele>
        <time>2018-05-10T06:55:59Z</time>
      </trkpt>
      <trkpt lat="43.88387" lon="7.21176">
        <ele>690</ele>
        <time>2018-05-10T06:56:59Z</time>
      </trkpt>
      <trkpt lat="43.88376" lon="7.21185">
        <ele>686</ele>
        <time>2018-05-10T06:57:59Z</time>
      </trkpt>
      <trkpt lat="43.88365" lon="7.21199">
        <ele>683</ele>
        <time>2018-05-10T06:58:59Z</time>
      </trkpt>
      <trkpt lat="43.88356" lon="7.21216">
        <ele>682</ele>
        <time>2018-05-10T06:59:59Z</time>
      </trkpt>
      <trkpt lat="43.88354" lon="7.21236">
        <ele>683</ele>
        <time>2018-05-10T07:00:59Z</time>
      </trkpt>
      <trkpt lat="43.88353" lon="7.21257">
        <ele>685</ele>
        <time>2018-05-10T07:01:59Z</time>
      </trkpt>
      <trkpt lat="43.88348" lon="7.2127">
        <ele>683</ele>
        <time>2018-05-10T07:02:59Z</time>
      </trkpt>
      <trkpt lat="43.8834" lon="7.2129">
        <ele>679</ele>
        <time>2018-05-10T07:03:59Z</time>
      </trkpt>
      <trkpt lat="43.88341" lon="7.21319">
        <ele>680</ele>
        <time>2018-05-10T07:04:59Z</time>
      </trkpt>
      <trkpt lat="43.88342" lon="7.21332">
        <ele>681</ele>
        <time>2018-05-10T07:05:59Z</time>
      </trkpt>
      <trkpt lat="43.8834" lon="7.21349">
        <ele>677</ele>
        <time>2018-05-10T07:06:59Z</time>
      </trkpt>
      <trkpt lat="43.88338" lon="7.21362">
        <ele>674</ele>
        <time>2018-05-10T07:07:59Z</time>
      </trkpt>
      <trkpt lat="43.88339" lon="7.21369">
        <ele>674</ele>
        <time>2018-05-10T07:08:59Z</time>
      </trkpt>
      <trkpt lat="43.88336" lon="7.21376">
        <ele>671</ele>
        <time>2018-05-10T07:09:59Z</time>
      </trkpt>
      <trkpt lat="43.88338" lon="7.21385">
        <ele>671</ele>
        <time>2018-05-10T07:10:59Z</time>
      </trkpt>
      <trkpt lat="43.88356" lon="7.21413">
        <ele>676</ele>
        <time>2018-05-10T07:11:59Z</time>
      </trkpt>
      <trkpt lat="43.88357" lon="7.21414">
        <ele>677</ele>
        <time>2018-05-10T07:12:59Z</time>
      </trkpt>
      <trkpt lat="43.88357" lon="7.21417">
        <ele>676</ele>
        <time>2018-05-10T07:13:59Z</time>
      </trkpt>
      <trkpt lat="43.88356" lon="7.21421">
        <ele>674</ele>
        <time>2018-05-10T07:14:59Z</time>
      </trkpt>
      <trkpt lat="43.88355" lon="7.21426">
        <ele>672</ele>
        <time>2018-05-10T07:15:59Z</time>
      </trkpt>
      <trkpt lat="43.88356" lon="7.21431">
        <ele>670</ele>
        <time>2018-05-10T07:16:59Z</time>
      </trkpt>
      <trkpt lat="43.88361" lon="7.21441">
        <ele>669</ele>
        <time>2018-05-10T07:17:59Z</time>
      </trkpt>
      <trkpt lat="43.88363" lon="7.21448">
        <ele>667</ele>
        <time>2018-05-10T07:18:59Z</time>
      </trkpt>
      <trkpt lat="43.88364" lon="7.21455">
        <ele>665</ele>
        <time>2018-05-10T07:19:59Z</time>
      </trkpt>
      <trkpt lat="43.88365" lon="7.21468">
        <ele>660</ele>
        <time>2018-05-10T07:20:59Z</time>
      </trkpt>
      <trkpt lat="43.88365" lon="7.21474">
        <ele>658</ele>
        <time>2018-05-10T07:21:59Z</time>
      </trkpt>
      <trkpt lat="43.88362" lon="7.21488">
        <ele>651</ele>
        <time>2018-05-10T07:22:59Z</time>
      </trkpt>
      <trkpt lat="43.88362" lon="7.21499">
        <ele>646</ele>
        <time>2018-05-10T07:23:59Z</time>
      </trkpt>
      <trkpt lat="43.88365" lon="7.21514">
        <ele>641</ele>
        <time>2018-05-10T07:24:59Z</time>
      </trkpt>
      <trkpt lat="43.88367" lon="7.21518">
        <ele>641</ele>
        <time>2018-05-10T07:25:59Z</time>
      </trkpt>
      <trkpt lat="43.88368" lon="7.2152">
        <ele>640</ele>
        <time>2018-05-10T07:26:59Z</time>
      </trkpt>
      <trkpt lat="43.88367" lon="7.21526">
        <ele>637</ele>
        <time>2018-05-10T07:27:59Z</time>
      </trkpt>
      <trkpt lat="43.88368" lon="7.21529">
        <ele>636</ele>
        <time>2018-05-10T07:28:59Z</time>
      </trkpt>
      <trkpt lat="43.88374" lon="7.21536">
        <ele>636</ele>
        <time>2018-05-10T07:29:59Z</time>
      </trkpt>
      <trkpt lat="43.88382" lon="7.21549">
        <ele>634</ele>
        <time>2018-05-10T07:30:59Z</time>
      </trkpt>
      <trkpt lat="43.88387" lon="7.21556">
        <ele>634</ele>
        <time>2018-05-10T07:31:59Z</time>
      </trkpt>
      <trkpt lat="43.88408" lon="7.21586">
        <ele>631</ele>
        <time>2018-05-10T07:32:59Z</time>
      </trkpt>
      <trkpt lat="43.88413" lon="7.21592">
        <ele>631</ele>
        <time>2018-05-10T07:33:59Z</time>
      </trkpt>
      <trkpt lat="43.88439" lon="7.2162">
        <ele>631</ele>
        <time>2018-05-10T07:34:59Z</time>
      </trkpt>
      <trkpt lat="43.88442" lon="7.21623">
        <ele>631</ele>
        <time>2018-05-10T07:35:59Z</time>
      </trkpt>
      <trkpt lat="43.88448" lon="7.21636">
        <ele>629</ele>
        <time>2018-05-10T07:36:59Z</time>
      </trkpt>
      <trkpt lat="43.88451" lon="7.21641">
        <ele>629</ele>
        <time>2018-05-10T07:37:59Z</time>
      </trkpt>
      <trkpt lat="43.8846" lon="7.2165">
        <ele>629</ele>
        <time>2018-05-10T07:38:59Z</time>
      </trkpt>
      <trkpt lat="43.88464" lon="7.21655">
        <ele>629</ele>
        <time>2018-05-10T07:39:59Z</time>
      </trkpt>
      <trkpt lat="43.88467" lon="7.2166">
        <ele>629</ele>
        <time>2018-05-10T07:40:59Z</time>
      </trkpt>
      <trkpt lat="43.88477" lon="7.21685">
        <ele>629</ele>
        <time>2018-05-10T07:41:59Z</time>
      </trkpt>
      <trkpt lat="43.88479" lon="7.21691">
        <ele>629</ele>
        <time>2018-05-10T07:42:59Z</time>
      </trkpt>
      <trkpt lat="43.88486" lon="7.21705">
        <ele>630</ele>
        <time>2018-05-10T07:43:59Z</time>
      </trkpt>
      <trkpt lat="43.88493" lon="7.2172">
        <ele>632</ele>
        <time>2018-05-10T07:44:59Z</time>
      </trkpt>
      <trkpt lat="43.88494" lon="7.21728">
        <ele>631</ele>
        <time>2018-05-10T07:45:59Z</time>
      </trkpt>
      <trkpt lat="43.88493" lon="7.21744">
        <ele>629</ele>
        <time>2018-05-10T07:46:59Z</time>
      </trkpt>
      <trkpt lat="43.88492" lon="7.2176">
        <ele>629</ele>
        <time>2018-05-10T07:47:59Z</time>
      </trkpt>
      <trkpt lat="43.88489" lon="7.21775">
        <ele>630</ele>
        <time>2018-05-10T07:48:59Z</time>
      </trkpt>
      <trkpt lat="43.88485" lon="7.21787">
        <ele>630</ele>
        <time>2018-05-10T07:49:59Z</time>
      </trkpt>
      <trkpt lat="43.88477" lon="7.21799">
        <ele>629</ele>
        <time>2018-05-10T07:50:59Z</time>
      </trkpt>
      <trkpt lat="43.88469" lon="7.21854">
        <ele>632</ele>
        <time>2018-05-10T07:51:59Z</time>
      </trkpt>
      <trkpt lat="43.88465" lon="7.2188">
        <ele>633</ele>
        <time>2018-05-10T07:52:59Z</time>
      </trkpt>
      <trkpt lat="43.88462" lon="7.2191">
        <ele>635</ele>
        <time>2018-05-10T07:53:59Z</time>
      </trkpt>
      <trkpt lat="43.8846" lon="7.21935">
        <ele>634</ele>
        <time>2018-05-10T07:54:59Z</time>
      </trkpt>
      <trkpt lat="43.88461" lon="7.21952">
        <ele>634</ele>
        <time>2018-05-10T07:55:59Z</time>
      </trkpt>
      <trkpt lat="43.88463" lon="7.21965">
        <ele>634</ele>
        <time>2018-05-10T07:56:59Z</time>
      </trkpt>
      <trkpt lat="43.88466" lon="7.21973">
        <ele>634</ele>
        <time>2018-05-10T07:57:59Z</time>
      </trkpt>
      <trkpt lat="43.88467" lon="7.21977">
        <ele>634</ele>
        <time>2018-05-10T07:58:59Z</time>
      </trkpt>
      <trkpt lat="43.8847" lon="7.21992">
        <ele>635</ele>
        <time>2018-05-10T07:59:59Z</time>
      </trkpt>
      <trkpt lat="43.88471" lon="7.21996">
        <ele>635</ele>
        <time>2018-05-10T08:00:59Z</time>
      </trkpt>
      <trkpt lat="43.88475" lon="7.22002">
        <ele>636</ele>
        <time>2018-05-10T08:01:59Z</time>
      </trkpt>
      <trkpt lat="43.88478" lon="7.22007">
        <ele>636</ele>
        <time>2018-05-10T08:02:59Z</time>
      </trkpt>
      <trkpt lat="43.88484" lon="7.22012">
        <ele>638</ele>
        <time>2018-05-10T08:03:59Z</time>
      </trkpt>
      <trkpt lat="43.88485" lon="7.22012">
        <ele>638</ele>
        <time>2018-05-10T08:04:59Z</time>
      </trkpt>
      <trkpt lat="43.88487" lon="7.22013">
        <ele>639</ele>
        <time>2018-05-10T08:05:59Z</time>
      </trkpt>
      <trkpt lat="43.88492" lon="7.22018">
        <ele>640</ele>
        <time>2018-05-10T08:06:59Z</time>
      </trkpt>
      <trkpt lat="43.88508" lon="7.22054">
        <ele>642</ele>
        <time>2018-05-10T08:07:59Z</time>
      </trkpt>
      <trkpt lat="43.88512" lon="7.22061">
        <ele>643</ele>
        <time>2018-05-10T08:08:59Z</time>
      </trkpt>
      <trkpt lat="43.88522" lon="7.22078">
        <ele>647</ele>
        <time>2018-05-10T08:09:59Z</time>
      </trkpt>
      <trkpt lat="43.88524" lon="7.2208">
        <ele>647</ele>
        <time>2018-05-10T08:10:59Z</time>
      </trkpt>
      <trkpt lat="43.88528" lon="7.22083">
        <ele>649</ele>
        <time>2018-05-10T08:11:59Z</time>
      </trkpt>
      <trkpt lat="43.88531" lon="7.22086">
        <ele>650</ele>
        <time>2018-05-10T08:12:59Z</time>
      </trkpt>
      <trkpt lat="43.88544" lon="7.22112">
        <ele>651</ele>
        <time>2018-05-10T08:13:59Z</time>
      </trkpt>
      <trkpt lat="43.88549" lon="7.22122">
        <ele>651</ele>
        <time>2018-05-10T08:14:59Z</time>
      </trkpt>
      <trkpt lat="43.88559" lon="7.22134">
        <ele>653</ele>
        <time>2018-05-10T08:15:59Z</time>
      </trkpt>
      <trkpt lat="43.88569" lon="7.22144">
        <ele>656</ele>
        <time>2018-05-10T08:16:59Z</time>
      </trkpt>
      <trkpt lat="43.88576" lon="7.2215">
        <ele>658</ele>
        <time>2018-05-10T08:17:59Z</time>
      </trkpt>
      <trkpt lat="43.88579" lon="7.22153">
        <ele>658</ele>
        <time>2018-05-10T08:18:59Z</time>
      </trkpt>
      <trkpt lat="43.88585" lon="7.2216">
        <ele>659</ele>
        <time>2018-05-10T08:19:59Z</time>
      </trkpt>
      <trkpt lat="43.88591" lon="7.22168">
        <ele>660</ele>
        <time>2018-05-10T08:20:59Z</time>
      </trkpt>
      <trkpt lat="43.88601" lon="7.22185">
        <ele>660</ele>
        <time>2018-05-10T08:21:59Z</time>
      </trkpt>
      <trkpt lat="43.88609" lon="7.22197">
        <ele>660</ele>
        <time>2018-05-10T08:22:59Z</time>
      </trkpt>
      <trkpt lat="43.88617" lon="7.22203">
        <ele>661</ele>
        <time>2018-05-10T08:23:59Z</time>
      </trkpt>
      <trkpt lat="43.88618" lon="7.22204">
        <ele>661</ele>
        <time>2018-05-10T08:24:59Z</time>
      </trkpt>
      <trkpt lat="43.88622" lon="7.2221">
        <ele>661</ele>
        <time>2018-05-10T08:25:59Z</time>
      </trkpt>
      <trkpt lat="43.88624" lon="7.22213">
        <ele>661</ele>
        <time>2018-05-10T08:26:59Z</time>
      </trkpt>
      <trkpt lat="43.88626" lon="7.22217">
        <ele>661</ele>
        <time>2018-05-10T08:27:59Z</time>
      </trkpt>
      <trkpt lat="43.88628" lon="7.22219">
        <ele>661</ele>
        <time>2018-05-10T08:28:59Z</time>
      </trkpt>
      <trkpt lat="43.88641" lon="7.22222">
        <ele>665</ele>
        <time>2018-05-10T08:29:59Z</time>
      </trkpt>
      <trkpt lat="43.88652" lon="7.2223">
        <ele>667</ele>
        <time>2018-05-10T08:30:59Z</time>
      </trkpt>
      <trkpt lat="43.88678" lon="7.22244">
        <ele>673</ele>
        <time>2018-05-10T08:31:59Z</time>
      </trkpt>
      <trkpt lat="43.88682" lon="7.22247">
        <ele>674</ele>
        <time>2018-05-10T08:32:59Z</time>
      </trkpt>
      <trkpt lat="43.88686" lon="7.2225">
        <ele>675</ele>
        <time>2018-05-10T08:33:59Z</time>
      </trkpt>
      <trkpt lat="43.88691" lon="7.22256">
        <ele>676</ele>
        <time>2018-05-10T08:34:59Z</time>
      </trkpt>
      <trkpt lat="43.88692" lon="7.22258">
        <ele>675</ele>
        <time>2018-05-10T08:35:59Z</time>
      </trkpt>
      <trkpt lat="43.88692" lon="7.22262">
        <ele>675</ele>
        <time>2018-05-10T08:36:59Z</time>
      </trkpt>
      <trkpt lat="43.88697" lon="7.22278">
        <ele>673</ele>
        <time>2018-05-10T08:37:59Z</time>
      </trkpt>
      <trkpt lat="43.88701" lon="7.22288">
        <ele>672</ele>
        <time>2018-05-10T08:38:59Z</time>
      </trkpt>
      <trkpt lat="43.88705" lon="7.22304">
        <ele>671</ele>
        <time>2018-05-10T08:39:59Z</time>
      </trkpt>
      <trkpt lat="43.88707" lon="7.22309">
        <ele>671</ele>
        <time>2018-05-10T08:40:59Z</time>
      </trkpt>
      <trkpt lat="43.88715" lon="7.22319">
        <ele>672</ele>
        <time>2018-05-10T08:41:59Z</time>
      </trkpt>
      <trkpt lat="43.88718" lon="7.2232">
        <ele>674</ele>
        <time>2018-05-10T08:42:59Z</time>
      </trkpt>
      <trkpt lat="43.8872" lon="7.22321">
        <ele>674</ele>
        <time>2018-05-10T08:43:59Z</time>
      </trkpt>
      <trkpt lat="43.8872" lon="7.22324">
        <ele>674</ele>
        <time>2018-05-10T08:44:59Z</time>
      </trkpt>
      <trkpt lat="43.88719" lon="7.22328">
        <ele>672</ele>
        <time>2018-05-10T08:45:59Z</time>
      </trkpt>
      <trkpt lat="43.88707" lon="7.22349">
        <ele>662</ele>
        <time>2018-05-10T08:46:59Z</time>
      </trkpt>
      <trkpt lat="43.88703" lon="7.22361">
        <ele>658</ele>
        <time>2018-05-10T08:47:59Z</time>
      </trkpt>
      <trkpt lat="43.88695" lon="7.22366">
        <ele>653</ele>
        <time>2018-05-10T08:48:59Z</time>
      </trkpt>
      <trkpt lat="43.88691" lon="7.22369">
        <ele>650</ele>
        <time>2018-05-10T08:49:59Z</time>
      </trkpt>
      <trkpt lat="43.88689" lon="7.22374">
        <ele>648</ele>
        <time>2018-05-10T08:50:59Z</time>
      </trkpt>
      <trkpt lat="43.88688" lon="7.22379">
        <ele>646</ele>
        <time>2018-05-10T08:51:59Z</time>
      </trkpt>
      <trkpt lat="43.88689" lon="7.22385">
        <ele>646</ele>
        <time>2018-05-10T08:52:59Z</time>
      </trkpt>
      <trkpt lat="43.8869" lon="7.22391">
        <ele>645</ele>
        <time>2018-05-10T08:53:59Z</time>
      </trkpt>
      <trkpt lat="43.88699" lon="7.22425">
        <ele>643</ele>
        <time>2018-05-10T08:54:59Z</time>
      </trkpt>
      <trkpt lat="43.887" lon="7.2243">
        <ele>643</ele>
        <time>2018-05-10T08:55:59Z</time>
      </trkpt>
      <trkpt lat="43.88702" lon="7.22458">
        <ele>639</ele>
        <time>2018-05-10T08:56:59Z</time>
      </trkpt>
      <trkpt lat="43.88703" lon="7.22464">
        <ele>638</ele>
        <time>2018-05-10T08:57:59Z</time>
      </trkpt>
      <trkpt lat="43.88705" lon="7.22477">
        <ele>636</ele>
        <time>2018-05-10T08:58:59Z</time>
      </trkpt>
      <trkpt lat="43.88708" lon="7.2249">
        <ele>635</ele>
        <time>2018-05-10T08:59:59Z</time>
      </trkpt>
      <trkpt lat="43.88708" lon="7.22496">
        <ele>634</ele>
        <time>2018-05-10T09:00:59Z</time>
      </trkpt>
      <trkpt lat="43.88705" lon="7.22519">
        <ele>627</ele>
        <time>2018-05-10T09:01:59Z</time>
      </trkpt>
      <trkpt lat="43.88705" lon="7.22527">
        <ele>625</ele>
        <time>2018-05-10T09:02:59Z</time>
      </trkpt>
      <trkpt lat="43.88705" lon="7.22531">
        <ele>624</ele>
        <time>2018-05-10T09:03:59Z</time>
      </trkpt>
      <trkpt lat="43.88705" lon="7.22536">
        <ele>623</ele>
        <time>2018-05-10T09:04:59Z</time>
      </trkpt>
      <trkpt lat="43.88707" lon="7.2254">
        <ele>623</ele>
        <time>2018-05-10T09:05:59Z</time>
      </trkpt>
      <trkpt lat="43.88707" lon="7.22548">
        <ele>621</ele>
        <time>2018-05-10T09:06:59Z</time>
      </trkpt>
      <trkpt lat="43.88706" lon="7.22556">
        <ele>618</ele>
        <time>2018-05-10T09:07:59Z</time>
      </trkpt>
      <trkpt lat="43.88704" lon="7.22565">
        <ele>615</ele>
        <time>2018-05-10T09:08:59Z</time>
      </trkpt>
      <trkpt lat="43.88705" lon="7.2257">
        <ele>615</ele>
        <time>2018-05-10T09:09:59Z</time>
      </trkpt>
      <trkpt lat="43.88709" lon="7.22579">
        <ele>614</ele>
        <time>2018-05-10T09:10:59Z</time>
      </trkpt>
      <trkpt lat="43.88712" lon="7.22583">
        <ele>614</ele>
        <time>2018-05-10T09:11:59Z</time>
      </trkpt>
      <trkpt lat="43.8872" lon="7.22588">
        <ele>615</ele>
        <time>2018-05-10T09:12:59Z</time>
      </trkpt>
      <trkpt lat="43.88723" lon="7.22593">
        <ele>615</ele>
        <time>2018-05-10T09:13:59Z</time>
      </trkpt>
      <trkpt lat="43.88724" lon="7.22599">
        <ele>614</ele>
        <time>2018-05-10T09:14:59Z</time>
      </trkpt>
      <trkpt lat="43.88729" lon="7.2261">
        <ele>612</ele>
        <time>2018-05-10T09:15:59Z</time>
      </trkpt>
      <trkpt lat="43.88729" lon="7.22613">
        <ele>611</ele>
        <time>2018-05-10T09:16:59Z</time>
      </trkpt>
      <trkpt lat="43.88727" lon="7.22618">
        <ele>609</ele>
        <time>2018-05-10T09:17:59Z</time>
      </trkpt>
      <trkpt lat="43.88727" lon="7.22629">
        <ele>606</ele>
        <time>2018-05-10T09:18:59Z</time>
      </trkpt>
      <trkpt lat="43.88726" lon="7.22632">
        <ele>605</ele>
        <time>2018-05-10T09:19:59Z</time>
      </trkpt>
      <trkpt lat="43.88725" lon="7.22634">
        <ele>604</ele>
        <time>2018-05-10T09:20:59Z</time>
      </trkpt>
      <trkpt lat="43.88724" lon="7.22635">
        <ele>603</ele>
        <time>2018-05-10T09:21:59Z</time>
      </trkpt>
      <trkpt lat="43.88723" lon="7.22636">
        <ele>603</ele>
        <time>2018-05-10T09:22:59Z</time>
      </trkpt>
      <trkpt lat="43.88722" lon="7.22637">
        <ele>602</ele>
        <time>2018-05-10T09:23:59Z</time>
      </trkpt>
      <trkpt lat="43.8872" lon="7.22636">
        <ele>602</ele>
        <time>2018-05-10T09:24:59Z</time>
      </trkpt>
      <trkpt lat="43.88717" lon="7.22635">
        <ele>601</ele>
        <time>2018-05-10T09:25:59Z</time>
      </trkpt>
      <trkpt lat="43.88717" lon="7.22655">
        <ele>595</ele>
        <time>2018-05-10T09:26:59Z</time>
      </trkpt>
      <trkpt lat="43.88717" lon="7.22661">
        <ele>593</ele>
        <time>2018-05-10T09:27:59Z</time>
      </trkpt>
      <trkpt lat="43.88715" lon="7.22667">
        <ele>591</ele>
        <time>2018-05-10T09:28:59Z</time>
      </trkpt>
      <trkpt lat="43.88714" lon="7.22671">
        <ele>590</ele>
        <time>2018-05-10T09:29:59Z</time>
      </trkpt>
      <trkpt lat="43.88712" lon="7.22675">
        <ele>588</ele>
        <time>2018-05-10T09:30:59Z</time>
      </trkpt>
      <trkpt lat="43.88711" lon="7.22679">
        <ele>587</ele>
        <time>2018-05-10T09:31:59Z</time>
      </trkpt>
      <trkpt lat="43.8871" lon="7.22684">
        <ele>585</ele>
        <time>2018-05-10T09:32:59Z</time>
      </trkpt>
      <trkpt lat="43.88709" lon="7.22689">
        <ele>584</ele>
        <time>2018-05-10T09:33:59Z</time>
      </trkpt>
      <trkpt lat="43.88709" lon="7.22707">
        <ele>580</ele>
        <time>2018-05-10T09:34:59Z</time>
      </trkpt>
      <trkpt lat="43.8871" lon="7.22714">
        <ele>579</ele>
        <time>2018-05-10T09:35:59Z</time>
      </trkpt>
      <trkpt lat="43.88711" lon="7.2272">
        <ele>578</ele>
        <time>2018-05-10T09:36:59Z</time>
      </trkpt>
      <trkpt lat="43.88712" lon="7.22744">
        <ele>573</ele>
        <time>2018-05-10T09:37:59Z</time>
      </trkpt>
      <trkpt lat="43.88711" lon="7.22748">
        <ele>572</ele>
        <time>2018-05-10T09:38:59Z</time>
      </trkpt>
      <trkpt lat="43.88709" lon="7.22757">
        <ele>570</ele>
        <time>2018-05-10T09:39:59Z</time>
      </trkpt>
      <trkpt lat="43.88706" lon="7.22761">
        <ele>569</ele>
        <time>2018-05-10T09:40:59Z</time>
      </trkpt>
      <trkpt lat="43.88704" lon="7.22765">
        <ele>568</ele>
        <time>2018-05-10T09:41:59Z</time>
      </trkpt>
      <trkpt lat="43.88702" lon="7.22767">
        <ele>567</ele>
        <time>2018-05-10T09:42:59Z</time>
      </trkpt>
      <trkpt lat="43.88698" lon="7.22772">
        <ele>566</ele>
        <time>2018-05-10T09:43:59Z</time>
      </trkpt>
      <trkpt lat="43.88697" lon="7.2278">
        <ele>565</ele>
        <time>2018-05-10T09:44:59Z</time>
      </trkpt>
      <trkpt lat="43.88694" lon="7.22786">
        <ele>563</ele>
        <time>2018-05-10T09:45:59Z</time>
      </trkpt>
      <trkpt lat="43.88692" lon="7.22787">
        <ele>562</ele>
        <time>2018-05-10T09:46:59Z</time>
      </trkpt>
      <trkpt lat="43.88694" lon="7.22783">
        <ele>563</ele>
        <time>2018-05-10T09:47:59Z</time>
      </trkpt>
      <trkpt lat="43.88694" lon="7.22781">
        <ele>564</ele>
        <time>2018-05-10T09:48:59Z</time>
      </trkpt>
      <trkpt lat="43.88692" lon="7.22776">
        <ele>563</ele>
        <time>2018-05-10T09:49:59Z</time>
      </trkpt>
      <trkpt lat="43.88688" lon="7.22784">
        <ele>562</ele>
        <time>2018-05-10T09:50:59Z</time>
      </trkpt>
      <trkpt lat="43.88675" lon="7.22824">
        <ele>555</ele>
        <time>2018-05-10T09:51:59Z</time>
      </trkpt>
      <trkpt lat="43.88673" lon="7.22829">
        <ele>554</ele>
        <time>2018-05-10T09:52:59Z</time>
      </trkpt>
      <trkpt lat="43.88669" lon="7.22829">
        <ele>553</ele>
        <time>2018-05-10T09:53:59Z</time>
      </trkpt>
      <trkpt lat="43.88666" lon="7.22834">
        <ele>552</ele>
        <time>2018-05-10T09:54:59Z</time>
      </trkpt>
      <trkpt lat="43.88665" lon="7.22838">
        <ele>551</ele>
        <time>2018-05-10T09:55:59Z</time>
      </trkpt>
      <trkpt lat="43.88665" lon="7.22848">
        <ele>549</ele>
        <time>2018-05-10T09:56:59Z</time>
      </trkpt>
      <trkpt lat="43.88663" lon="7.22854">
        <ele>548</ele>
        <time>2018-05-10T09:57:59Z</time>
      </trkpt>
      <trkpt lat="43.88659" lon="7.2286">
        <ele>546</ele>
        <time>2018-05-10T09:58:59Z</time>
      </trkpt>
      <trkpt lat="43.88657" lon="7.22864">
        <ele>545</ele>
        <time>2018-05-10T09:59:59Z</time>
      </trkpt>
      <trkpt lat="43.88654" lon="7.22868">
        <ele>544</ele>
        <time>2018-05-10T10:00:59Z</time>
      </trkpt>
      <trkpt lat="43.88651" lon="7.22871">
        <ele>543</ele>
        <time>2018-05-10T10:01:59Z</time>
      </trkpt>
      <trkpt lat="43.88647" lon="7.22873">
        <ele>542</ele>
        <time>2018-05-10T10:02:59Z</time>
      </trkpt>
      <trkpt lat="43.88641" lon="7.22872">
        <ele>541</ele>
        <time>2018-05-10T10:03:59Z</time>
      </trkpt>
      <trkpt lat="43.88636" lon="7.22873">
        <ele>540</ele>
        <time>2018-05-10T10:04:59Z</time>
      </trkpt>
      <trkpt lat="43.88631" lon="7.22875">
        <ele>539</ele>
        <time>2018-05-10T10:05:59Z</time>
      </trkpt>
      <trkpt lat="43.88622" lon="7.22882">
        <ele>537</ele>
        <time>2018-05-10T10:06:59Z</time>
      </trkpt>
      <trkpt lat="43.8862" lon="7.22884">
        <ele>537</ele>
        <time>2018-05-10T10:07:59Z</time>
      </trkpt>
      <trkpt lat="43.8862" lon="7.22888">
        <ele>536</ele>
        <time>2018-05-10T10:08:59Z</time>
      </trkpt>
      <trkpt lat="43.88621" lon="7.22891">
        <ele>536</ele>
        <time>2018-05-10T10:09:59Z</time>
      </trkpt>
      <trkpt lat="43.88624" lon="7.22896">
        <ele>536</ele>
        <time>2018-05-10T10:10:59Z</time>
      </trkpt>
      <trkpt lat="43.88628" lon="7.229">
        <ele>536</ele>
        <time>2018-05-10T10:11:59Z</time>
      </trkpt>
      <trkpt lat="43.88631" lon="7.22906">
        <ele>536</ele>
        <time>2018-05-10T10:12:59Z</time>
      </trkpt>
      <trkpt lat="43.8863" lon="7.22909">
        <ele>535</ele>
        <time>2018-05-10T10:13:59Z</time>
      </trkpt>
      <trkpt lat="43.8863" lon="7.22913">
        <ele>535</ele>
        <time>2018-05-10T10:14:59Z</time>
      </trkpt>
      <trkpt lat="43.88623" lon="7.22936">
        <ele>529</ele>
        <time>2018-05-10T10:15:59Z</time>
      </trkpt>
      <trkpt lat="43.88621" lon="7.22941">
        <ele>528</ele>
        <time>2018-05-10T10:16:59Z</time>
      </trkpt>
      <trkpt lat="43.8862" lon="7.22951">
        <ele>526</ele>
        <time>2018-05-10T10:17:59Z</time>
      </trkpt>
      <trkpt lat="43.88619" lon="7.22963">
        <ele>523</ele>
        <time>2018-05-10T10:18:59Z</time>
      </trkpt>
      <trkpt lat="43.88618" lon="7.23005">
        <ele>512</ele>
        <time>2018-05-10T10:19:59Z</time>
      </trkpt>
      <trkpt lat="43.88618" lon="7.23011">
        <ele>510</ele>
        <time>2018-05-10T10:20:59Z</time>
      </trkpt>
      <trkpt lat="43.88619" lon="7.23016">
        <ele>508</ele>
        <time>2018-05-10T10:21:59Z</time>
      </trkpt>
      <trkpt lat="43.88625" lon="7.23025">
        <ele>504</ele>
        <time>2018-05-10T10:22:59Z</time>
      </trkpt>
      <trkpt lat="43.88628" lon="7.23033">
        <ele>501</ele>
        <time>2018-05-10T10:23:59Z</time>
      </trkpt>
      <trkpt lat="43.88628" lon="7.23035">
        <ele>500</ele>
        <time>2018-05-10T10:24:59Z</time>
      </trkpt>
      <trkpt lat="43.88626" lon="7.23042">
        <ele>497</ele>
        <time>2018-05-10T10:25:59Z</time>
      </trkpt>
      <trkpt lat="43.88625" lon="7.23046">
        <ele>495</ele>
        <time>2018-05-10T10:26:59Z</time>
      </trkpt>
      <trkpt lat="43.88622" lon="7.23056">
        <ele>491</ele>
        <time>2018-05-10T10:27:59Z</time>
      </trkpt>
      <trkpt lat="43.88618" lon="7.23069">
        <ele>486</ele>
        <time>2018-05-10T10:28:59Z</time>
      </trkpt>
      <trkpt lat="43.88617" lon="7.23079">
        <ele>481</ele>
        <time>2018-05-10T10:29:59Z</time>
      </trkpt>
      <trkpt lat="43.88619" lon="7.23082">
        <ele>480</ele>
        <time>2018-05-10T10:30:59Z</time>
      </trkpt>
      <trkpt lat="43.88621" lon="7.23084">
        <ele>479</ele>
        <time>2018-05-10T10:31:59Z</time>
      </trkpt>
      <trkpt lat="43.88627" lon="7.23084">
        <ele>480</ele>
        <time>2018-05-10T10:32:59Z</time>
      </trkpt>
      <trkpt lat="43.8863" lon="7.23084">
        <ele>480</ele>
        <time>2018-05-10T10:33:59Z</time>
      </trkpt>
      <trkpt lat="43.88641" lon="7.23086">
        <ele>480</ele>
        <time>2018-05-10T10:34:59Z</time>
      </trkpt>
      <trkpt lat="43.88648" lon="7.23088">
        <ele>480</ele>
        <time>2018-05-10T10:35:59Z</time>
      </trkpt>
      <trkpt lat="43.88656" lon="7.23085">
        <ele>482</ele>
        <time>2018-05-10T10:36:59Z</time>
      </trkpt>
      <trkpt lat="43.8866" lon="7.23085">
        <ele>482</ele>
        <time>2018-05-10T10:37:59Z</time>
      </trkpt>
      <trkpt lat="43.88662" lon="7.23087">
        <ele>481</ele>
        <time>2018-05-10T10:38:59Z</time>
      </trkpt>
      <trkpt lat="43.8867" lon="7.23101">
        <ele>477</ele>
        <time>2018-05-10T10:39:59Z</time>
      </trkpt>
      <trkpt lat="43.88672" lon="7.23105">
        <ele>476</ele>
        <time>2018-05-10T10:40:59Z</time>
      </trkpt>
      <trkpt lat="43.88674" lon="7.23111">
        <ele>474</ele>
        <time>2018-05-10T10:41:59Z</time>
      </trkpt>
      <trkpt lat="43.88674" lon="7.23114">
        <ele>473</ele>
        <time>2018-05-10T10:42:59Z</time>
      </trkpt>
      <trkpt lat="43.88674" lon="7.23117">
        <ele>472</ele>
        <time>2018-05-10T10:43:59Z</time>
      </trkpt>
      <trkpt lat="43.88674" lon="7.23118">
        <ele>472</ele>
        <time>2018-05-10T10:44:59Z</time>
      </trkpt>
      <trkpt lat="43.88676" lon="7.2312">
        <ele>471</ele>
        <time>2018-05-10T10:45:59Z</time>
      </trkpt>
      <trkpt lat="43.88678" lon="7.23128">
        <ele>469</ele>
        <time>2018-05-10T10:46:59Z</time>
      </trkpt>
      <trkpt lat="43.88679" lon="7.23131">
        <ele>468</ele>
        <time>2018-05-10T10:47:59Z</time>
      </trkpt>
      <trkpt lat="43.88687" lon="7.23134">
        <ele>469</ele>
        <time>2018-05-10T10:48:59Z</time>
      </trkpt>
      <trkpt lat="43.88694" lon="7.23139">
        <ele>469</ele>
        <time>2018-05-10T10:49:59Z</time>
      </trkpt>
      <trkpt lat="43.887" lon="7.23146">
        <ele>467</ele>
        <time>2018-05-10T10:50:59Z</time>
      </trkpt>
      <trkpt lat="43.88705" lon="7.2315">
        <ele>467</ele>
        <time>2018-05-10T10:51:59Z</time>
      </trkpt>
      <trkpt lat="43.88712" lon="7.2316">
        <ele>465</ele>
        <time>2018-05-10T10:52:59Z</time>
      </trkpt>
      <trkpt lat="43.8872" lon="7.23175">
        <ele>460</ele>
        <time>2018-05-10T10:53:59Z</time>
      </trkpt>
      <trkpt lat="43.88724" lon="7.23184">
        <ele>457</ele>
        <time>2018-05-10T10:54:59Z</time>
      </trkpt>
      <trkpt lat="43.88728" lon="7.23187">
        <ele>457</ele>
        <time>2018-05-10T10:55:59Z</time>
      </trkpt>
      <trkpt lat="43.88737" lon="7.23194">
        <ele>456</ele>
        <time>2018-05-10T10:56:59Z</time>
      </trkpt>
      <trkpt lat="43.88747" lon="7.23203">
        <ele>455</ele>
        <time>2018-05-10T10:57:59Z</time>
      </trkpt>
      <trkpt lat="43.88752" lon="7.23208">
        <ele>454</ele>
        <time>2018-05-10T10:58:59Z</time>
      </trkpt>
      <trkpt lat="43.88757" lon="7.2322">
        <ele>451</ele>
        <time>2018-05-10T10:59:59Z</time>
      </trkpt>
      <trkpt lat="43.8876" lon="7.23236">
        <ele>445</ele>
        <time>2018-05-10T11:00:59Z</time>
      </trkpt>
      <trkpt lat="43.88761" lon="7.23239">
        <ele>444</ele>
        <time>2018-05-10T11:01:59Z</time>
      </trkpt>
      <trkpt lat="43.88772" lon="7.23257">
        <ele>443</ele>
        <time>2018-05-10T11:02:59Z</time>
      </trkpt>
      <trkpt lat="43.88773" lon="7.2326">
        <ele>443</ele>
        <time>2018-05-10T11:03:59Z</time>
      </trkpt>
      <trkpt lat="43.88771" lon="7.23262">
        <ele>442</ele>
        <time>2018-05-10T11:04:59Z</time>
      </trkpt>
      <trkpt lat="43.88768" lon="7.23262">
        <ele>441</ele>
        <time>2018-05-10T11:05:59Z</time>
      </trkpt>
      <trkpt lat="43.88766" lon="7.23262">
        <ele>441</ele>
        <time>2018-05-10T11:06:59Z</time>
      </trkpt>
      <trkpt lat="43.88765" lon="7.23263">
        <ele>440</ele>
        <time>2018-05-10T11:07:59Z</time>
      </trkpt>
      <trkpt lat="43.88765" lon="7.23265">
        <ele>440</ele>
        <time>2018-05-10T11:08:59Z</time>
      </trkpt>
      <trkpt lat="43.8877" lon="7.23271">
        <ele>441</ele>
        <time>2018-05-10T11:09:59Z</time>
      </trkpt>
      <trkpt lat="43.88773" lon="7.23274">
        <ele>442</ele>
        <time>2018-05-10T11:10:59Z</time>
      </trkpt>
      <trkpt lat="43.88781" lon="7.23276">
        <ele>445</ele>
        <time>2018-05-10T11:11:59Z</time>
      </trkpt>
      <trkpt lat="43.88782" lon="7.23278">
        <ele>446</ele>
        <time>2018-05-10T11:12:59Z</time>
      </trkpt>
      <trkpt lat="43.88781" lon="7.23278">
        <ele>445</ele>
        <time>2018-05-10T11:13:59Z</time>
      </trkpt>
      <trkpt lat="43.88778" lon="7.23278">
        <ele>444</ele>
        <time>2018-05-10T11:14:59Z</time>
      </trkpt>
      <trkpt lat="43.88778" lon="7.23278">
        <ele>444</ele>
        <time>2018-05-10T11:15:59Z</time>
      </trkpt>
      <trkpt lat="43.88779" lon="7.23278">
        <ele>444</ele>
        <time>2018-05-10T11:16:59Z</time>
      </trkpt>
      <trkpt lat="43.88776" lon="7.23282">
        <ele>443</ele>
        <time>2018-05-10T11:17:59Z</time>
      </trkpt>
      <trkpt lat="43.88774" lon="7.23284">
        <ele>442</ele>
        <time>2018-05-10T11:18:59Z</time>
      </trkpt>
      <trkpt lat="43.88769" lon="7.23287">
        <ele>440</ele>
        <time>2018-05-10T11:19:59Z</time>
      </trkpt>
      <trkpt lat="43.8876" lon="7.23289">
        <ele>436</ele>
        <time>2018-05-10T11:20:59Z</time>
      </trkpt>
      <trkpt lat="43.88756" lon="7.23291">
        <ele>434</ele>
        <time>2018-05-10T11:21:59Z</time>
      </trkpt>
      <trkpt lat="43.88754" lon="7.23292">
        <ele>434</ele>
        <time>2018-05-10T11:22:59Z</time>
      </trkpt>
      <trkpt lat="43.8875" lon="7.23297">
        <ele>431</ele>
        <time>2018-05-10T11:23:59Z</time>
      </trkpt>
      <trkpt lat="43.88746" lon="7.23303">
        <ele>429</ele>
        <time>2018-05-10T11:24:59Z</time>
      </trkpt>
      <trkpt lat="43.88743" lon="7.23307">
        <ele>428</ele>
        <time>2018-05-10T11:25:59Z</time>
      </trkpt>
      <trkpt lat="43.8874" lon="7.23307">
        <ele>427</ele>
        <time>2018-05-10T11:26:59Z</time>
      </trkpt>
      <trkpt lat="43.88732" lon="7.23304">
        <ele>424</ele>
        <time>2018-05-10T11:27:59Z</time>
      </trkpt>
      <trkpt lat="43.88728" lon="7.23303">
        <ele>423</ele>
        <time>2018-05-10T11:28:59Z</time>
      </trkpt>
      <trkpt lat="43.88722" lon="7.23305">
        <ele>421</ele>
        <time>2018-05-10T11:29:59Z</time>
      </trkpt>
      <trkpt lat="43.88713" lon="7.23303">
        <ele>418</ele>
        <time>2018-05-10T11:30:59Z</time>
      </trkpt>
      <trkpt lat="43.887" lon="7.23294">
        <ele>414</ele>
        <time>2018-05-10T11:31:59Z</time>
      </trkpt>
      <trkpt lat="43.88696" lon="7.23293">
        <ele>413</ele>
        <time>2018-05-10T11:32:59Z</time>
      </trkpt>
      <trkpt lat="43.88689" lon="7.23295">
        <ele>410</ele>
        <time>2018-05-10T11:33:59Z</time>
      </trkpt>
      <trkpt lat="43.88686" lon="7.23297">
        <ele>409</ele>
        <time>2018-05-10T11:34:59Z</time>
      </trkpt>
      <trkpt lat="43.88681" lon="7.23306">
        <ele>405</ele>
        <time>2018-05-10T11:35:59Z</time>
      </trkpt>
      <trkpt lat="43.88673" lon="7.23315">
        <ele>401</ele>
        <time>2018-05-10T11:36:59Z</time>
      </trkpt>
      <trkpt lat="43.88654" lon="7.23327">
        <ele>393</ele>
        <time>2018-05-10T11:37:59Z</time>
      </trkpt>
      <trkpt lat="43.88649" lon="7.23331">
        <ele>391</ele>
        <time>2018-05-10T11:38:59Z</time>
      </trkpt>
      <trkpt lat="43.88627" lon="7.23347">
        <ele>386</ele>
        <time>2018-05-10T11:39:59Z</time>
      </trkpt>
      <trkpt lat="43.88623" lon="7.2335">
        <ele>385</ele>
        <time>2018-05-10T11:40:59Z</time>
      </trkpt>
      <trkpt lat="43.88621" lon="7.23353">
        <ele>385</ele>
        <time>2018-05-10T11:41:59Z</time>
      </trkpt>
      <trkpt lat="43.8862" lon="7.23371">
        <ele>387</ele>
        <time>2018-05-10T11:42:59Z</time>
      </trkpt>
      <trkpt lat="43.88619" lon="7.23377">
        <ele>387</ele>
        <time>2018-05-10T11:43:59Z</time>
      </trkpt>
      <trkpt lat="43.88617" lon="7.23379">
        <ele>387</ele>
        <time>2018-05-10T11:44:59Z</time>
      </trkpt>
      <trkpt lat="43.88615" lon="7.2339">
        <ele>388</ele>
        <time>2018-05-10T11:45:59Z</time>
      </trkpt>
      <trkpt lat="43.88613" lon="7.23397">
        <ele>388</ele>
        <time>2018-05-10T11:46:59Z</time>
      </trkpt>
      <trkpt lat="43.88604" lon="7.23416">
        <ele>387</ele>
        <time>2018-05-10T11:47:59Z</time>
      </trkpt>
      <trkpt lat="43.88576" lon="7.2346">
        <ele>388</ele>
        <time>2018-05-10T11:48:59Z</time>
      </trkpt>
      <trkpt lat="43.88572" lon="7.23466">
        <ele>388</ele>
        <time>2018-05-10T11:49:59Z</time>
      </trkpt>
      <trkpt lat="43.88558" lon="7.23483">
        <ele>387</ele>
        <time>2018-05-10T11:50:59Z</time>
      </trkpt>
      <trkpt lat="43.88542" lon="7.23503">
        <ele>387</ele>
        <time>2018-05-10T11:51:59Z</time>
      </trkpt>
      <trkpt lat="43.88538" lon="7.23506">
        <ele>387</ele>
        <time>2018-05-10T11:52:59Z</time>
      </trkpt>
      <trkpt lat="43.88522" lon="7.23521">
        <ele>387</ele>
        <time>2018-05-10T11:53:59Z</time>
      </trkpt>
      <trkpt lat="43.88502" lon="7.23535">
        <ele>385</ele>
        <time>2018-05-10T11:54:59Z</time>
      </trkpt>
      <trkpt lat="43.88492" lon="7.23543">
        <ele>386</ele>
        <time>2018-05-10T11:55:59Z</time>
      </trkpt>
      <trkpt lat="43.88472" lon="7.23563">
        <ele>388</ele>
        <time>2018-05-10T11:56:59Z</time>
      </trkpt>
      <trkpt lat="43.8847" lon="7.23566">
        <ele>389</ele>
        <time>2018-05-10T11:57:59Z</time>
      </trkpt>
      <trkpt lat="43.88465" lon="7.23575">
        <ele>390</ele>
        <time>2018-05-10T11:58:59Z</time>
      </trkpt>
      <trkpt lat="43.88462" lon="7.23583">
        <ele>392</ele>
        <time>2018-05-10T11:59:59Z</time>
      </trkpt>
      <trkpt lat="43.8846" lon="7.23593">
        <ele>393</ele>
        <time>2018-05-10T12:00:59Z</time>
      </trkpt>
      <trkpt lat="43.88459" lon="7.23605">
        <ele>394</ele>
        <time>2018-05-10T12:01:59Z</time>
      </trkpt>
      <trkpt lat="43.88459" lon="7.2361">
        <ele>395</ele>
        <time>2018-05-10T12:02:59Z</time>
      </trkpt>
      <trkpt lat="43.8846" lon="7.23618">
        <ele>396</ele>
        <time>2018-05-10T12:03:59Z</time>
      </trkpt>
      <trkpt lat="43.88458" lon="7.23635">
        <ele>397</ele>
        <time>2018-05-10T12:04:59Z</time>
      </trkpt>
      <trkpt lat="43.88457" lon="7.23645">
        <ele>398</ele>
        <time>2018-05-10T12:05:59Z</time>
      </trkpt>
      <trkpt lat="43.88459" lon="7.23651">
        <ele>399</ele>
        <time>2018-05-10T12:06:59Z</time>
      </trkpt>
      <trkpt lat="43.88459" lon="7.2365">
        <ele>399</ele>
        <time>2018-05-10T12:07:59Z</time>
      </trkpt>
      <trkpt lat="43.88462" lon="7.23648">
        <ele>400</ele>
        <time>2018-05-10T12:08:59Z</time>
      </trkpt>
      <trkpt lat="43.88461" lon="7.2365">
        <ele>400</ele>
        <time>2018-05-10T12:09:59Z</time>
      </trkpt>
      <trkpt lat="43.88461" lon="7.23655">
        <ele>401</ele>
        <time>2018-05-10T12:10:59Z</time>
      </trkpt>
      <trkpt lat="43.88464" lon="7.23659">
        <ele>402</ele>
        <time>2018-05-10T12:11:59Z</time>
      </trkpt>
      <trkpt lat="43.88469" lon="7.23672">
        <ele>405</ele>
        <time>2018-05-10T12:12:59Z</time>
      </trkpt>
      <trkpt lat="43.88469" lon="7.23674">
        <ele>405</ele>
        <time>2018-05-10T12:13:59Z</time>
      </trkpt>
      <trkpt lat="43.8847" lon="7.23677">
        <ele>405</ele>
        <time>2018-05-10T12:14:59Z</time>
      </trkpt>
      <trkpt lat="43.88475" lon="7.23696">
        <ele>407</ele>
        <time>2018-05-10T12:15:59Z</time>
      </trkpt>
      <trkpt lat="43.8848" lon="7.23712">
        <ele>409</ele>
        <time>2018-05-10T12:16:59Z</time>
      </trkpt>
      <trkpt lat="43.88489" lon="7.2375">
        <ele>414</ele>
        <time>2018-05-10T12:17:59Z</time>
      </trkpt>
      <trkpt lat="43.88489" lon="7.23757">
        <ele>414</ele>
        <time>2018-05-10T12:18:59Z</time>
      </trkpt>
      <trkpt lat="43.88489" lon="7.23762">
        <ele>415</ele>
        <time>2018-05-10T12:19:59Z</time>
      </trkpt>
      <trkpt lat="43.88488" lon="7.23769">
        <ele>415</ele>
        <time>2018-05-10T12:20:59Z</time>
      </trkpt>
      <trkpt lat="43.88488" lon="7.23772">
        <ele>415</ele>
        <time>2018-05-10T12:21:59Z</time>
      </trkpt>
      <trkpt lat="43.88486" lon="7.23785">
        <ele>415</ele>
        <time>2018-05-10T12:22:59Z</time>
      </trkpt>
      <trkpt lat="43.8848" lon="7.23801">
        <ele>412</ele>
        <time>2018-05-10T12:23:59Z</time>
      </trkpt>
      <trkpt lat="43.88476" lon="7.23816">
        <ele>411</ele>
        <time>2018-05-10T12:24:59Z</time>
      </trkpt>
      <trkpt lat="43.88477" lon="7.23823">
        <ele>412</ele>
        <time>2018-05-10T12:25:59Z</time>
      </trkpt>
      <trkpt lat="43.88479" lon="7.23829">
        <ele>413</ele>
        <time>2018-05-10T12:26:59Z</time>
      </trkpt>
      <trkpt lat="43.88481" lon="7.23849">
        <ele>415</ele>
        <time>2018-05-10T12:27:59Z</time>
      </trkpt>
      <trkpt lat="43.88482" lon="7.23856">
        <ele>416</ele>
        <time>2018-05-10T12:28:59Z</time>
      </trkpt>
      <trkpt lat="43.88482" lon="7.2387">
        <ele>417</ele>
        <time>2018-05-10T12:29:59Z</time>
      </trkpt>
      <trkpt lat="43.88482" lon="7.23879">
        <ele>417</ele>
        <time>2018-05-10T12:30:59Z</time>
      </trkpt>
      <trkpt lat="43.88479" lon="7.2391">
        <ele>416</ele>
        <time>2018-05-10T12:31:59Z</time>
      </trkpt>
      <trkpt lat="43.88477" lon="7.23927">
        <ele>413</ele>
        <time>2018-05-10T12:32:59Z</time>
      </trkpt>
      <trkpt lat="43.88478" lon="7.23948">
        <ele>412</ele>
        <time>2018-05-10T12:33:59Z</time>
      </trkpt>
      <trkpt lat="43.8848" lon="7.23962">
        <ele>412</ele>
        <time>2018-05-10T12:34:59Z</time>
      </trkpt>
      <trkpt lat="43.88483" lon="7.23984">
        <ele>411</ele>
        <time>2018-05-10T12:35:59Z</time>
      </trkpt>
      <trkpt lat="43.88483" lon="7.23993">
        <ele>410</ele>
        <time>2018-05-10T12:36:59Z</time>
      </trkpt>
      <trkpt lat="43.88483" lon="7.23998">
        <ele>410</ele>
        <time>2018-05-10T12:37:59Z</time>
      </trkpt>
      <trkpt lat="43.88484" lon="7.24004">
        <ele>409</ele>
        <time>2018-05-10T12:38:59Z</time>
      </trkpt>
      <trkpt lat="43.88488" lon="7.24016">
        <ele>409</ele>
        <time>2018-05-10T12:39:59Z</time>
      </trkpt>
      <trkpt lat="43.88493" lon="7.24027">
        <ele>410</ele>
        <time>2018-05-10T12:40:59Z</time>
      </trkpt>
      <trkpt lat="43.88498" lon="7.2404">
        <ele>410</ele>
        <time>2018-05-10T12:41:59Z</time>
      </trkpt>
      <trkpt lat="43.88505" lon="7.24048">
        <ele>411</ele>
        <time>2018-05-10T12:42:59Z</time>
      </trkpt>
      <trkpt lat="43.88518" lon="7.24059">
        <ele>415</ele>
        <time>2018-05-10T12:43:59Z</time>
      </trkpt>
      <trkpt lat="43.88532" lon="7.24076">
        <ele>416</ele>
        <time>2018-05-10T12:44:59Z</time>
      </trkpt>
      <trkpt lat="43.88538" lon="7.24085">
        <ele>417</ele>
        <time>2018-05-10T12:45:59Z</time>
      </trkpt>
      <trkpt lat="43.88537" lon="7.24085">
        <ele>416</ele>
        <time>2018-05-10T12:46:59Z</time>
      </trkpt>
      <trkpt lat="43.88524" lon="7.24073">
        <ele>414</ele>
        <time>2018-05-10T12:47:59Z</time>
      </trkpt>
      <trkpt lat="43.88519" lon="7.24071">
        <ele>412</ele>
        <time>2018-05-10T12:48:59Z</time>
      </trkpt>
      <trkpt lat="43.88488" lon="7.2407">
        <ele>396</ele>
        <time>2018-05-10T12:49:59Z</time>
      </trkpt>
      <trkpt lat="43.88484" lon="7.24069">
        <ele>394</ele>
        <time>2018-05-10T12:50:59Z</time>
      </trkpt>
      <trkpt lat="43.88477" lon="7.24063">
        <ele>391</ele>
        <time>2018-05-10T12:51:59Z</time>
      </trkpt>
      <trkpt lat="43.88474" lon="7.24059">
        <ele>390</ele>
        <time>2018-05-10T12:52:59Z</time>
      </trkpt>
      <trkpt lat="43.88462" lon="7.24046">
        <ele>386</ele>
        <time>2018-05-10T12:53:59Z</time>
      </trkpt>
      <trkpt lat="43.88457" lon="7.24037">
        <ele>384</ele>
        <time>2018-05-10T12:54:59Z</time>
      </trkpt>
      <trkpt lat="43.88451" lon="7.24026">
        <ele>383</ele>
        <time>2018-05-10T12:55:59Z</time>
      </trkpt>
      <trkpt lat="43.88449" lon="7.2402">
        <ele>382</ele>
        <time>2018-05-10T12:56:59Z</time>
      </trkpt>
      <trkpt lat="43.88442" lon="7.23992">
        <ele>382</ele>
        <time>2018-05-10T12:57:59Z</time>
      </trkpt>
      <trkpt lat="43.88437" lon="7.23978">
        <ele>380</ele>
        <time>2018-05-10T12:58:59Z</time>
      </trkpt>
      <trkpt lat="43.88432" lon="7.23968">
        <ele>378</ele>
        <time>2018-05-10T12:59:59Z</time>
      </trkpt>
      <trkpt lat="43.88429" lon="7.23963">
        <ele>377</ele>
        <time>2018-05-10T13:00:59Z</time>
      </trkpt>
      <trkpt lat="43.88424" lon="7.23949">
        <ele>375</ele>
        <time>2018-05-10T13:01:59Z</time>
      </trkpt>
      <trkpt lat="43.88418" lon="7.23935">
        <ele>373</ele>
        <time>2018-05-10T13:02:59Z</time>
      </trkpt>
      <trkpt lat="43.88412" lon="7.23923">
        <ele>371</ele>
        <time>2018-05-10T13:03:59Z</time>
      </trkpt>
      <trkpt lat="43.88408" lon="7.23913">
        <ele>369</ele>
        <time>2018-05-10T13:04:59Z</time>
      </trkpt>
      <trkpt lat="43.88403" lon="7.23892">
        <ele>366</ele>
        <time>2018-05-10T13:05:59Z</time>
      </trkpt>
      <trkpt lat="43.88401" lon="7.23886">
        <ele>365</ele>
        <time>2018-05-10T13:06:59Z</time>
      </trkpt>
      <trkpt lat="43.884" lon="7.23886">
        <ele>365</ele>
        <time>2018-05-10T13:07:59Z</time>
      </trkpt>
      <trkpt lat="43.88399" lon="7.23887">
        <ele>364</ele>
        <time>2018-05-10T13:08:59Z</time>
      </trkpt>
      <trkpt lat="43.88396" lon="7.23894">
        <ele>363</ele>
        <time>2018-05-10T13:09:59Z</time>
      </trkpt>
      <trkpt lat="43.88395" lon="7.23896">
        <ele>362</ele>
        <time>2018-05-10T13:10:59Z</time>
      </trkpt>
      <trkpt lat="43.88392" lon="7.23904">
        <ele>360</ele>
        <time>2018-05-10T13:11:59Z</time>
      </trkpt>
      <trkpt lat="43.88391" lon="7.23901">
        <ele>360</ele>
        <time>2018-05-10T13:12:59Z</time>
      </trkpt>
      <trkpt lat="43.8839" lon="7.23898">
        <ele>359</ele>
        <time>2018-05-10T13:13:59Z</time>
      </trkpt>
      <trkpt lat="43.88389" lon="7.2389">
        <ele>359</ele>
        <time>2018-05-10T13:14:59Z</time>
      </trkpt>
      <trkpt lat="43.8839" lon="7.23881">
        <ele>359</ele>
        <time>2018-05-10T13:15:59Z</time>
      </trkpt>
      <trkpt lat="43.88389" lon="7.23866">
        <ele>359</ele>
        <time>2018-05-10T13:16:59Z</time>
      </trkpt>
      <trkpt lat="43.88385" lon="7.23855">
        <ele>357</ele>
        <time>2018-05-10T13:17:59Z</time>
      </trkpt>
      <trkpt lat="43.88382" lon="7.23849">
        <ele>356</ele>
        <time>2018-05-10T13:18:59Z</time>
      </trkpt>
      <trkpt lat="43.88373" lon="7.23828">
        <ele>352</ele>
        <time>2018-05-10T13:19:59Z</time>
      </trkpt>
      <trkpt lat="43.8837" lon="7.23821">
        <ele>351</ele>
        <time>2018-05-10T13:20:59Z</time>
      </trkpt>
      <trkpt lat="43.88355" lon="7.23778">
        <ele>346</ele>
        <time>2018-05-10T13:21:59Z</time>
      </trkpt>
      <trkpt lat="43.88352" lon="7.23771">
        <ele>345</ele>
        <time>2018-05-10T13:22:59Z</time>
      </trkpt>
      <trkpt lat="43.88338" lon="7.23744">
        <ele>341</ele>
        <time>2018-05-10T13:23:59Z</time>
      </trkpt>
      <trkpt lat="43.88334" lon="7.23736">
        <ele>340</ele>
        <time>2018-05-10T13:24:59Z</time>
      </trkpt>
      <trkpt lat="43.88332" lon="7.23728">
        <ele>341</ele>
        <time>2018-05-10T13:25:59Z</time>
      </trkpt>
      <trkpt lat="43.8833" lon="7.23721">
        <ele>341</ele>
        <time>2018-05-10T13:26:59Z</time>
      </trkpt>
      <trkpt lat="43.88328" lon="7.23713">
        <ele>341</ele>
        <time>2018-05-10T13:27:59Z</time>
      </trkpt>
      <trkpt lat="43.88326" lon="7.237">
        <ele>342</ele>
        <time>2018-05-10T13:28:59Z</time>
      </trkpt>
      <trkpt lat="43.88322" lon="7.23689">
        <ele>342</ele>
        <time>2018-05-10T13:29:59Z</time>
      </trkpt>
      <trkpt lat="43.88319" lon="7.23683">
        <ele>341</ele>
        <time>2018-05-10T13:30:59Z</time>
      </trkpt>
      <trkpt lat="43.88313" lon="7.23648">
        <ele>343</ele>
        <time>2018-05-10T13:31:59Z</time>
      </trkpt>
      <trkpt lat="43.8831" lon="7.23636">
        <ele>343</ele>
        <time>2018-05-10T13:32:59Z</time>
      </trkpt>
      <trkpt lat="43.88297" lon="7.23612">
        <ele>340</ele>
        <time>2018-05-10T13:33:59Z</time>
      </trkpt>
      <trkpt lat="43.88287" lon="7.23597">
        <ele>338</ele>
        <time>2018-05-10T13:34:59Z</time>
      </trkpt>
      <trkpt lat="43.88279" lon="7.2359">
        <ele>336</ele>
        <time>2018-05-10T13:35:59Z</time>
      </trkpt>
      <trkpt lat="43.88267" lon="7.23582">
        <ele>333</ele>
        <time>2018-05-10T13:36:59Z</time>
      </trkpt>
      <trkpt lat="43.88247" lon="7.23567">
        <ele>326</ele>
        <time>2018-05-10T13:37:59Z</time>
      </trkpt>
      <trkpt lat="43.8824" lon="7.23561">
        <ele>323</ele>
        <time>2018-05-10T13:38:59Z</time>
      </trkpt>
      <trkpt lat="43.88234" lon="7.23554">
        <ele>321</ele>
        <time>2018-05-10T13:39:59Z</time>
      </trkpt>
      <trkpt lat="43.88229" lon="7.23546">
        <ele>319</ele>
        <time>2018-05-10T13:40:59Z</time>
      </trkpt>
      <trkpt lat="43.88226" lon="7.23538">
        <ele>318</ele>
        <time>2018-05-10T13:41:59Z</time>
      </trkpt>
      <trkpt lat="43.88224" lon="7.23532">
        <ele>317</ele>
        <time>2018-05-10T13:42:59Z</time>
      </trkpt>
      <trkpt lat="43.88222" lon="7.23529">
        <ele>317</ele>
        <time>2018-05-10T13:43:59Z</time>
      </trkpt>
      <trkpt lat="43.8822" lon="7.23526">
        <ele>316</ele>
        <time>2018-05-10T13:44:59Z</time>
      </trkpt>
      <trkpt lat="43.88214" lon="7.23521">
        <ele>314</ele>
        <time>2018-05-10T13:45:59Z</time>
      </trkpt>
      <trkpt lat="43.88206" lon="7.23519">
        <ele>312</ele>
        <time>2018-05-10T13:46:59Z</time>
      </trkpt>
      <trkpt lat="43.88196" lon="7.23505">
        <ele>309</ele>
        <time>2018-05-10T13:47:59Z</time>
      </trkpt>
      <trkpt lat="43.88191" lon="7.23489">
        <ele>306</ele>
        <time>2018-05-10T13:48:59Z</time>
      </trkpt>
      <trkpt lat="43.88187" lon="7.23475">
        <ele>301</ele>
        <time>2018-05-10T13:49:59Z</time>
      </trkpt>
      <trkpt lat="43.88186" lon="7.23468">
        <ele>300</ele>
        <time>2018-05-10T13:50:59Z</time>
      </trkpt>
      <trkpt lat="43.88187" lon="7.23462">
        <ele>298</ele>
        <time>2018-05-10T13:51:59Z</time>
      </trkpt>
      <trkpt lat="43.88191" lon="7.23456">
        <ele>298</ele>
        <time>2018-05-10T13:52:59Z</time>
      </trkpt>
      <trkpt lat="43.88192" lon="7.23454">
        <ele>298</ele>
        <time>2018-05-10T13:53:59Z</time>
      </trkpt>
      <trkpt lat="43.8819" lon="7.23454">
        <ele>297</ele>
        <time>2018-05-10T13:54:59Z</time>
      </trkpt>
      <trkpt lat="43.88181" lon="7.23458">
        <ele>296</ele>
        <time>2018-05-10T13:55:59Z</time>
      </trkpt>
      <trkpt lat="43.88177" lon="7.23456">
        <ele>295</ele>
        <time>2018-05-10T13:56:59Z</time>
      </trkpt>
      <trkpt lat="43.88183" lon="7.23448">
        <ele>295</ele>
        <time>2018-05-10T13:57:59Z</time>
      </trkpt>
      <trkpt lat="43.88186" lon="7.23446">
        <ele>295</ele>
        <time>2018-05-10T13:58:59Z</time>
      </trkpt>
      <trkpt lat="43.88186" lon="7.23439">
        <ele>293</ele>
        <time>2018-05-10T13:59:59Z</time>
      </trkpt>
      <trkpt lat="43.88184" lon="7.23437">
        <ele>292</ele>
        <time>2018-05-10T14:00:59Z</time>
      </trkpt>
      <trkpt lat="43.88181" lon="7.23436">
        <ele>291</ele>
        <time>2018-05-10T14:01:59Z</time>
      </trkpt>
      <trkpt lat="43.8817" lon="7.23434">
        <ele>289</ele>
        <time>2018-05-10T14:02:59Z</time>
      </trkpt>
      <trkpt lat="43.88142" lon="7.23422">
        <ele>281</ele>
        <time>2018-05-10T14:03:59Z</time>
      </trkpt>
      <trkpt lat="43.88137" lon="7.23419">
        <ele>279</ele>
        <time>2018-05-10T14:04:59Z</time>
      </trkpt>
      <trkpt lat="43.88122" lon="7.23416">
        <ele>275</ele>
        <time>2018-05-10T14:05:59Z</time>
      </trkpt>
      <trkpt lat="43.88118" lon="7.23415">
        <ele>274</ele>
        <time>2018-05-10T14:06:59Z</time>
      </trkpt>
      <trkpt lat="43.88113" lon="7.23415">
        <ele>273</ele>
        <time>2018-05-10T14:07:59Z</time>
      </trkpt>
      <trkpt lat="43.88108" lon="7.23417">
        <ele>272</ele>
        <time>2018-05-10T14:08:59Z</time>
      </trkpt>
      <trkpt lat="43.88104" lon="7.23421">
        <ele>272</ele>
        <time>2018-05-10T14:09:59Z</time>
      </trkpt>
      <trkpt lat="43.88099" lon="7.2343">
        <ele>272</ele>
        <time>2018-05-10T14:10:59Z</time>
      </trkpt>
      <trkpt lat="43.88097" lon="7.2343">
        <ele>272</ele>
        <time>2018-05-10T14:11:59Z</time>
      </trkpt>
      <trkpt lat="43.88099" lon="7.23422">
        <ele>271</ele>
        <time>2018-05-10T14:12:59Z</time>
      </trkpt>
      <trkpt lat="43.88105" lon="7.23413">
        <ele>271</ele>
        <time>2018-05-10T14:13:59Z</time>
      </trkpt>
      <trkpt lat="43.88112" lon="7.23404">
        <ele>270</ele>
        <time>2018-05-10T14:14:59Z</time>
      </trkpt>
      <trkpt lat="43.8811" lon="7.23401">
        <ele>269</ele>
        <time>2018-05-10T14:15:59Z</time>
      </trkpt>
      <trkpt lat="43.881" lon="7.23402">
        <ele>267</ele>
        <time>2018-05-10T14:16:59Z</time>
      </trkpt>
      <trkpt lat="43.88098" lon="7.234">
        <ele>267</ele>
        <time>2018-05-10T14:17:59Z</time>
      </trkpt>
      <trkpt lat="43.88099" lon="7.23394">
        <ele>265</ele>
        <time>2018-05-10T14:18:59Z</time>
      </trkpt>
      <trkpt lat="43.88101" lon="7.23392">
        <ele>265</ele>
        <time>2018-05-10T14:19:59Z</time>
      </trkpt>
      <trkpt lat="43.88106" lon="7.23394">
        <ele>267</ele>
        <time>2018-05-10T14:20:59Z</time>
      </trkpt>
      <trkpt lat="43.88106" lon="7.23394">
        <ele>267</ele>
        <time>2018-05-10T14:21:59Z</time>
      </trkpt>
      <trkpt lat="43.88103" lon="7.23391">
        <ele>266</ele>
        <time>2018-05-10T14:22:59Z</time>
      </trkpt>
      <trkpt lat="43.88103" lon="7.23388">
        <ele>265</ele>
        <time>2018-05-10T14:23:59Z</time>
      </trkpt>
      <trkpt lat="43.88105" lon="7.23389">
        <ele>266</ele>
        <time>2018-05-10T14:24:59Z</time>
      </trkpt>
      <trkpt lat="43.88107" lon="7.23389">
        <ele>266</ele>
        <time>2018-05-10T14:25:59Z</time>
      </trkpt>
      <trkpt lat="43.88107" lon="7.23386">
        <ele>265</ele>
        <time>2018-05-10T14:26:59Z</time>
      </trkpt>
      <trkpt lat="43.88101" lon="7.23382">
        <ele>263</ele>
        <time>2018-05-10T14:27:59Z</time>
      </trkpt>
      <trkpt lat="43.88092" lon="7.23377">
        <ele>260</ele>
        <time>2018-05-10T14:28:59Z</time>
      </trkpt>
      <trkpt lat="43.88091" lon="7.23373">
        <ele>259</ele>
        <time>2018-05-10T14:29:59Z</time>
      </trkpt>
      <trkpt lat="43.88093" lon="7.23364">
        <ele>258</ele>
        <time>2018-05-10T14:30:59Z</time>
      </trkpt>
      <trkpt lat="43.88107" lon="7.23357">
        <ele>259</ele>
        <time>2018-05-10T14:31:59Z</time>
      </trkpt>
      <trkpt lat="43.8811" lon="7.23355">
        <ele>259</ele>
        <time>2018-05-10T14:32:59Z</time>
      </trkpt>
      <trkpt lat="43.88121" lon="7.23354">
        <ele>262</ele>
        <time>2018-05-10T14:33:59Z</time>
      </trkpt>
      <trkpt lat="43.8814" lon="7.23355">
        <ele>266</ele>
        <time>2018-05-10T14:34:59Z</time>
      </trkpt>
      <trkpt lat="43.88143" lon="7.23354">
        <ele>266</ele>
        <time>2018-05-10T14:35:59Z</time>
      </trkpt>
      <trkpt lat="43.88151" lon="7.23346">
        <ele>266</ele>
        <time>2018-05-10T14:36:59Z</time>
      </trkpt>
      <trkpt lat="43.88154" lon="7.23343">
        <ele>266</ele>
        <time>2018-05-10T14:37:59Z</time>
      </trkpt>
      <trkpt lat="43.88155" lon="7.23341">
        <ele>266</ele>
        <time>2018-05-10T14:38:59Z</time>
      </trkpt>
      <trkpt lat="43.88155" lon="7.23337">
        <ele>265</ele>
        <time>2018-05-10T14:39:59Z</time>
      </trkpt>
      <trkpt lat="43.88154" lon="7.23334">
        <ele>264</ele>
        <time>2018-05-10T14:40:59Z</time>
      </trkpt>
      <trkpt lat="43.88139" lon="7.23323">
        <ele>263</ele>
        <time>2018-05-10T14:41:59Z</time>
      </trkpt>
      <trkpt lat="43.8813" lon="7.23317">
        <ele>262</ele>
        <time>2018-05-10T14:42:59Z</time>
      </trkpt>
      <trkpt lat="43.88125" lon="7.23315">
        <ele>261</ele>
        <time>2018-05-10T14:43:59Z</time>
      </trkpt>
      <trkpt lat="43.8812" lon="7.23312">
        <ele>260</ele>
        <time>2018-05-10T14:44:59Z</time>
      </trkpt>
      <trkpt lat="43.88115" lon="7.23308">
        <ele>260</ele>
        <time>2018-05-10T14:45:59Z</time>
      </trkpt>
      <trkpt lat="43.88107" lon="7.23298">
        <ele>259</ele>
        <time>2018-05-10T14:46:59Z</time>
      </trkpt>
      <trkpt lat="43.88095" lon="7.23283">
        <ele>256</ele>
        <time>2018-05-10T14:47:59Z</time>
      </trkpt>
      <trkpt lat="43.88084" lon="7.2328">
        <ele>252</ele>
        <time>2018-05-10T14:48:59Z</time>
      </trkpt>
      <trkpt lat="43.8808" lon="7.23278">
        <ele>251</ele>
        <time>2018-05-10T14:49:59Z</time>
      </trkpt>
      <trkpt lat="43.88076" lon="7.23278">
        <ele>250</ele>
        <time>2018-05-10T14:50:59Z</time>
      </trkpt>
      <trkpt lat="43.88064" lon="7.23279">
        <ele>246</ele>
        <time>2018-05-10T14:51:59Z</time>
      </trkpt>
      <trkpt lat="43.88046" lon="7.23283">
        <ele>239</ele>
        <time>2018-05-10T14:52:59Z</time>
      </trkpt>
      <trkpt lat="43.88041" lon="7.23285">
        <ele>237</ele>
        <time>2018-05-10T14:53:59Z</time>
      </trkpt>
      <trkpt lat="43.88036" lon="7.23286">
        <ele>235</ele>
        <time>2018-05-10T14:54:59Z</time>
      </trkpt>
      <trkpt lat="43.88026" lon="7.23282">
        <ele>232</ele>
        <time>2018-05-10T14:55:59Z</time>
      </trkpt>
      <trkpt lat="43.88022" lon="7.23271">
        <ele>231</ele>
        <time>2018-05-10T14:56:59Z</time>
      </trkpt>
      <trkpt lat="43.88015" lon="7.23266">
        <ele>229</ele>
        <time>2018-05-10T14:57:59Z</time>
      </trkpt>
      <trkpt lat="43.87998" lon="7.23261">
        <ele>224</ele>
        <time>2018-05-10T14:58:59Z</time>
      </trkpt>
      <trkpt lat="43.87992" lon="7.23259">
        <ele>221</ele>
        <time>2018-05-10T14:59:59Z</time>
      </trkpt>
      <trkpt lat="43.87986" lon="7.2326">
        <ele>219</ele>
        <time>2018-05-10T15:00:59Z</time>
      </trkpt>
      <trkpt lat="43.87976" lon="7.23271">
        <ele>214</ele>
        <time>2018-05-10T15:01:59Z</time>
      </trkpt>
      <trkpt lat="43.87974" lon="7.23274">
        <ele>213</ele>
        <time>2018-05-10T15:02:59Z</time>
      </trkpt>
      <trkpt lat="43.87972" lon="7.23277">
        <ele>212</ele>
        <time>2018-05-10T15:03:59Z</time>
      </trkpt>
      <trkpt lat="43.87971" lon="7.2328">
        <ele>212</ele>
        <time>2018-05-10T15:04:59Z</time>
      </trkpt>
      <trkpt lat="43.8797" lon="7.23281">
        <ele>211</ele>
        <time>2018-05-10T15:05:59Z</time>
      </trkpt>
      <trkpt lat="43.87967" lon="7.23277">
        <ele>210</ele>
        <time>2018-05-10T15:06:59Z</time>
      </trkpt>
      <trkpt lat="43.87965" lon="7.23269">
        <ele>210</ele>
        <time>2018-05-10T15:07:59Z</time>
      </trkpt>
      <trkpt lat="43.87959" lon="7.23227">
        <ele>209</ele>
        <time>2018-05-10T15:08:59Z</time>
      </trkpt>
      <trkpt lat="43.87958" lon="7.23221">
        <ele>209</ele>
        <time>2018-05-10T15:09:59Z</time>
      </trkpt>
      <trkpt lat="43.87957" lon="7.23214">
        <ele>209</ele>
        <time>2018-05-10T15:10:59Z</time>
      </trkpt>
      <trkpt lat="43.87957" lon="7.23208">
        <ele>209</ele>
        <time>2018-05-10T15:11:59Z</time>
      </trkpt>
      <trkpt lat="43.87954" lon="7.23189">
        <ele>208</ele>
        <time>2018-05-10T15:12:59Z</time>
      </trkpt>
      <trkpt lat="43.87953" lon="7.23183">
        <ele>207</ele>
        <time>2018-05-10T15:13:59Z</time>
      </trkpt>
      <trkpt lat="43.87945" lon="7.23131">
        <ele>205</ele>
        <time>2018-05-10T15:14:59Z</time>
      </trkpt>
      <trkpt lat="43.87945" lon="7.23119">
        <ele>205</ele>
        <time>2018-05-10T15:15:59Z</time>
      </trkpt>
      <trkpt lat="43.87946" lon="7.23113">
        <ele>205</ele>
        <time>2018-05-10T15:16:59Z</time>
      </trkpt>
      <trkpt lat="43.87956" lon="7.231">
        <ele>209</ele>
        <time>2018-05-10T15:17:59Z</time>
      </trkpt>
      <trkpt lat="43.8796" lon="7.23098">
        <ele>210</ele>
        <time>2018-05-10T15:18:59Z</time>
      </trkpt>
      <trkpt lat="43.88005" lon="7.23088">
        <ele>224</ele>
        <time>2018-05-10T15:19:59Z</time>
      </trkpt>
      <trkpt lat="43.88009" lon="7.23086">
        <ele>225</ele>
        <time>2018-05-10T15:20:59Z</time>
      </trkpt>
      <trkpt lat="43.88016" lon="7.2308">
        <ele>228</ele>
        <time>2018-05-10T15:21:59Z</time>
      </trkpt>
      <trkpt lat="43.88015" lon="7.23073">
        <ele>228</ele>
        <time>2018-05-10T15:22:59Z</time>
      </trkpt>
      <trkpt lat="43.88014" lon="7.23071">
        <ele>229</ele>
        <time>2018-05-10T15:23:59Z</time>
      </trkpt>
      <trkpt lat="43.88008" lon="7.23066">
        <ele>228</ele>
        <time>2018-05-10T15:24:59Z</time>
      </trkpt>
      <trkpt lat="43.87992" lon="7.2306">
        <ele>224</ele>
        <time>2018-05-10T15:25:59Z</time>
      </trkpt>
      <trkpt lat="43.87973" lon="7.23052">
        <ele>219</ele>
        <time>2018-05-10T15:26:59Z</time>
      </trkpt>
      <trkpt lat="43.87966" lon="7.23051">
        <ele>216</ele>
        <time>2018-05-10T15:27:59Z</time>
      </trkpt>
      <trkpt lat="43.87943" lon="7.2305">
        <ele>209</ele>
        <time>2018-05-10T15:28:59Z</time>
      </trkpt>
      <trkpt lat="43.87941" lon="7.2305">
        <ele>208</ele>
        <time>2018-05-10T15:29:59Z</time>
      </trkpt>
      <trkpt lat="43.87925" lon="7.23066">
        <ele>201</ele>
        <time>2018-05-10T15:30:59Z</time>
      </trkpt>
      <trkpt lat="43.87924" lon="7.23068">
        <ele>201</ele>
        <time>2018-05-10T15:31:59Z</time>
      </trkpt>
      <trkpt lat="43.87924" lon="7.23071">
        <ele>200</ele>
        <time>2018-05-10T15:32:59Z</time>
      </trkpt>
      <trkpt lat="43.87926" lon="7.23074">
        <ele>201</ele>
        <time>2018-05-10T15:33:59Z</time>
      </trkpt>
      <trkpt lat="43.87931" lon="7.23078">
        <ele>202</ele>
        <time>2018-05-10T15:34:59Z</time>
      </trkpt>
      <trkpt lat="43.87932" lon="7.2308">
        <ele>202</ele>
        <time>2018-05-10T15:35:59Z</time>
      </trkpt>
      <trkpt lat="43.87931" lon="7.23083">
        <ele>201</ele>
        <time>2018-05-10T15:36:59Z</time>
      </trkpt>
      <trkpt lat="43.8793" lon="7.23085">
        <ele>201</ele>
        <time>2018-05-10T15:37:59Z</time>
      </trkpt>
      <trkpt lat="43.87929" lon="7.23086">
        <ele>201</ele>
        <time>2018-05-10T15:38:59Z</time>
      </trkpt>
      <trkpt lat="43.87925" lon="7.23097">
        <ele>199</ele>
        <time>2018-05-10T15:39:59Z</time>
      </trkpt>
      <trkpt lat="43.87924" lon="7.23099">
        <ele>199</ele>
        <time>2018-05-10T15:40:59Z</time>
      </trkpt>
      <trkpt lat="43.87919" lon="7.23104">
        <ele>197</ele>
        <time>2018-05-10T15:41:59Z</time>
      </trkpt>
      <trkpt lat="43.87917" lon="7.23106">
        <ele>196</ele>
        <time>2018-05-10T15:42:59Z</time>
      </trkpt>
      <trkpt lat="43.87914" lon="7.23108">
        <ele>196</ele>
        <time>2018-05-10T15:43:59Z</time>
      </trkpt>
      <trkpt lat="43.87907" lon="7.23114">
        <ele>196</ele>
        <time>2018-05-10T15:44:59Z</time>
      </trkpt>
      <trkpt lat="43.87903" lon="7.23118">
        <ele>196</ele>
        <time>2018-05-10T15:45:59Z</time>
      </trkpt>
      <trkpt lat="43.879" lon="7.23124">
        <ele>196</ele>
        <time>2018-05-10T15:46:59Z</time>
      </trkpt>
      <trkpt lat="43.87896" lon="7.23131">
        <ele>196</ele>
        <time>2018-05-10T15:47:59Z</time>
      </trkpt>
      <trkpt lat="43.87893" lon="7.23132">
        <ele>197</ele>
        <time>2018-05-10T15:48:59Z</time>
      </trkpt>
      <trkpt lat="43.87885" lon="7.23133">
        <ele>197</ele>
        <time>2018-05-10T15:49:59Z</time>
      </trkpt>
      <trkpt lat="43.87882" lon="7.23135">
        <ele>198</ele>
        <time>2018-05-10T15:50:59Z</time>
      </trkpt>
      <trkpt lat="43.8787" lon="7.23139">
        <ele>199</ele>
        <time>2018-05-10T15:51:59Z</time>
      </trkpt>
      <trkpt lat="43.87852" lon="7.23141">
        <ele>201</ele>
        <time>2018-05-10T15:52:59Z</time>
      </trkpt>
      <trkpt lat="43.87846" lon="7.23143">
        <ele>201</ele>
        <time>2018-05-10T15:53:59Z</time>
      </trkpt>
      <trkpt lat="43.87846" lon="7.23153">
        <ele>202</ele>
        <time>2018-05-10T15:54:59Z</time>
      </trkpt>
      <trkpt lat="43.87848" lon="7.23164">
        <ele>202</ele>
        <time>2018-05-10T15:55:59Z</time>
      </trkpt>
      <trkpt lat="43.87848" lon="7.23169">
        <ele>202</ele>
        <time>2018-05-10T15:56:59Z</time>
      </trkpt>
      <trkpt lat="43.87847" lon="7.23173">
        <ele>203</ele>
        <time>2018-05-10T15:57:59Z</time>
      </trkpt>
      <trkpt lat="43.87849" lon="7.23174">
        <ele>202</ele>
        <time>2018-05-10T15:58:59Z</time>
      </trkpt>
      <trkpt lat="43.87849" lon="7.23177">
        <ele>202</ele>
        <time>2018-05-10T15:59:59Z</time>
      </trkpt>
      <trkpt lat="43.8785" lon="7.23183">
        <ele>203</ele>
        <time>2018-05-10T16:00:59Z</time>
      </trkpt>
      <trkpt lat="43.87848" lon="7.23187">
        <ele>203</ele>
        <time>2018-05-10T16:01:59Z</time>
      </trkpt>
      <trkpt lat="43.8785" lon="7.23197">
        <ele>203</ele>
        <time>2018-05-10T16:02:59Z</time>
      </trkpt>
      <trkpt lat="43.87848" lon="7.23198">
        <ele>204</ele>
        <time>2018-05-10T16:03:59Z</time>
      </trkpt>
      <trkpt lat="43.87847" lon="7.23193">
        <ele>204</ele>
        <time>2018-05-10T16:04:59Z</time>
      </trkpt>
      <trkpt lat="43.87847" lon="7.23191">
        <ele>203</ele>
        <time>2018-05-10T16:05:59Z</time>
      </trkpt>
      <trkpt lat="43.87842" lon="7.23179">
        <ele>204</ele>
        <time>2018-05-10T16:06:59Z</time>
      </trkpt>
      <trkpt lat="43.87839" lon="7.23172">
        <ele>204</ele>
        <time>2018-05-10T16:07:59Z</time>
      </trkpt>
      <trkpt lat="43.87838" lon="7.23161">
        <ele>203</ele>
        <time>2018-05-10T16:08:59Z</time>
      </trkpt>
      <trkpt lat="43.87836" lon="7.23154">
        <ele>203</ele>
        <time>2018-05-10T16:09:59Z</time>
      </trkpt>
      <trkpt lat="43.87834" lon="7.23149">
        <ele>203</ele>
        <time>2018-05-10T16:10:59Z</time>
      </trkpt>
      <trkpt lat="43.87832" lon="7.23145">
        <ele>204</ele>
        <time>2018-05-10T16:11:59Z</time>
      </trkpt>
      <trkpt lat="43.87832" lon="7.23142">
        <ele>203</ele>
        <time>2018-05-10T16:12:59Z</time>
      </trkpt>
      <trkpt lat="43.8783" lon="7.23138">
        <ele>205</ele>
        <time>2018-05-10T16:13:59Z</time>
      </trkpt>
      <trkpt lat="43.87827" lon="7.23133">
        <ele>206</ele>
        <time>2018-05-10T16:14:59Z</time>
      </trkpt>
      <trkpt lat="43.87826" lon="7.23127">
        <ele>207</ele>
        <time>2018-05-10T16:15:59Z</time>
      </trkpt>
      <trkpt lat="43.87825" lon="7.23123">
        <ele>207</ele>
        <time>2018-05-10T16:16:59Z</time>
      </trkpt>
      <trkpt lat="43.87823" lon="7.23116">
        <ele>208</ele>
        <time>2018-05-10T16:17:59Z</time>
      </trkpt>
      <trkpt lat="43.8781" lon="7.23095">
        <ele>214</ele>
        <time>2018-05-10T16:18:59Z</time>
      </trkpt>
      <trkpt lat="43.87809" lon="7.23093">
        <ele>215</ele>
        <time>2018-05-10T16:19:59Z</time>
      </trkpt>
      <trkpt lat="43.87802" lon="7.23088">
        <ele>218</ele>
        <time>2018-05-10T16:20:59Z</time>
      </trkpt>
      <trkpt lat="43.87798" lon="7.23086">
        <ele>221</ele>
        <time>2018-05-10T16:21:59Z</time>
      </trkpt>
      <trkpt lat="43.87797" lon="7.23087">
        <ele>221</ele>
        <time>2018-05-10T16:22:59Z</time>
      </trkpt>
      <trkpt lat="43.87797" lon="7.23088">
        <ele>221</ele>
        <time>2018-05-10T16:23:59Z</time>
      </trkpt>
      <trkpt lat="43.87798" lon="7.2309">
        <ele>221</ele>
        <time>2018-05-10T16:24:59Z</time>
      </trkpt>
      <trkpt lat="43.87798" lon="7.23091">
        <ele>221</ele>
        <time>2018-05-10T16:25:59Z</time>
      </trkpt>
      <trkpt lat="43.87798" lon="7.23092">
        <ele>221</ele>
        <time>2018-05-10T16:26:59Z</time>
      </trkpt>
      <trkpt lat="43.87796" lon="7.23093">
        <ele>223</ele>
        <time>2018-05-10T16:27:59Z</time>
      </trkpt>
      <trkpt lat="43.87796" lon="7.23092">
        <ele>222</ele>
        <time>2018-05-10T16:28:59Z</time>
      </trkpt>
      <trkpt lat="43.87794" lon="7.23091">
        <ele>224</ele>
        <time>2018-05-10T16:29:59Z</time>
      </trkpt>
      <trkpt lat="43.87786" lon="7.23081">
        <ele>227</ele>
        <time>2018-05-10T16:30:59Z</time>
      </trkpt>
      <trkpt lat="43.8778" lon="7.23073">
        <ele>228</ele>
        <time>2018-05-10T16:31:59Z</time>
      </trkpt>
      <trkpt lat="43.87777" lon="7.2307">
        <ele>229</ele>
        <time>2018-05-10T16:32:59Z</time>
      </trkpt>
      <trkpt lat="43.87773" lon="7.23065">
        <ele>230</ele>
        <time>2018-05-10T16:33:59Z</time>
      </trkpt>
      <trkpt lat="43.87767" lon="7.2306">
        <ele>232</ele>
        <time>2018-05-10T16:34:59Z</time>
      </trkpt>
      <trkpt lat="43.8776" lon="7.23054">
        <ele>234</ele>
        <time>2018-05-10T16:35:59Z</time>
      </trkpt>
      <trkpt lat="43.87756" lon="7.23051">
        <ele>235</ele>
        <time>2018-05-10T16:36:59Z</time>
      </trkpt>
      <trkpt lat="43.87754" lon="7.2305">
        <ele>236</ele>
        <time>2018-05-10T16:37:59Z</time>
      </trkpt>
      <trkpt lat="43.87752" lon="7.2305">
        <ele>237</ele>
        <time>2018-05-10T16:38:59Z</time>
      </trkpt>
      <trkpt lat="43.87741" lon="7.23044">
        <ele>241</ele>
        <time>2018-05-10T16:39:59Z</time>
      </trkpt>
      <trkpt lat="43.87739" lon="7.23043">
        <ele>241</ele>
        <time>2018-05-10T16:40:59Z</time>
      </trkpt>
      <trkpt lat="43.87734" lon="7.23034">
        <ele>241</ele>
        <time>2018-05-10T16:41:59Z</time>
      </trkpt>
      <trkpt lat="43.87727" lon="7.23029">
        <ele>243</ele>
        <time>2018-05-10T16:42:59Z</time>
      </trkpt>
      <trkpt lat="43.87715" lon="7.23022">
        <ele>247</ele>
        <time>2018-05-10T16:43:59Z</time>
      </trkpt>
      <trkpt lat="43.87707" lon="7.2302">
        <ele>250</ele>
        <time>2018-05-10T16:44:59Z</time>
      </trkpt>
      <trkpt lat="43.87706" lon="7.23018">
        <ele>250</ele>
        <time>2018-05-10T16:45:59Z</time>
      </trkpt>
      <trkpt lat="43.87706" lon="7.23017">
        <ele>250</ele>
        <time>2018-05-10T16:46:59Z</time>
      </trkpt>
      <trkpt lat="43.87702" lon="7.23016">
        <ele>252</ele>
        <time>2018-05-10T16:47:59Z</time>
      </trkpt>
      <trkpt lat="43.87697" lon="7.23012">
        <ele>253</ele>
        <time>2018-05-10T16:48:59Z</time>
      </trkpt>
      <trkpt lat="43.87695" lon="7.23012">
        <ele>254</ele>
        <time>2018-05-10T16:49:59Z</time>
      </trkpt>
      <trkpt lat="43.8769" lon="7.2301">
        <ele>256</ele>
        <time>2018-05-10T16:50:59Z</time>
      </trkpt>
      <trkpt lat="43.87684" lon="7.2301">
        <ele>259</ele>
        <time>2018-05-10T16:51:59Z</time>
      </trkpt>
      <trkpt lat="43.87683" lon="7.2301">
        <ele>260</ele>
        <time>2018-05-10T16:52:59Z</time>
      </trkpt>
      <trkpt lat="43.87679" lon="7.23006">
        <ele>261</ele>
        <time>2018-05-10T16:53:59Z</time>
      </trkpt>
      <trkpt lat="43.87678" lon="7.23003">
        <ele>260</ele>
        <time>2018-05-10T16:54:59Z</time>
      </trkpt>
      <trkpt lat="43.87674" lon="7.23">
        <ele>261</ele>
        <time>2018-05-10T16:55:59Z</time>
      </trkpt>
      <trkpt lat="43.87664" lon="7.22992">
        <ele>264</ele>
        <time>2018-05-10T16:56:59Z</time>
      </trkpt>
      <trkpt lat="43.87656" lon="7.22988">
        <ele>268</ele>
        <time>2018-05-10T16:57:59Z</time>
      </trkpt>
      <trkpt lat="43.87655" lon="7.22987">
        <ele>269</ele>
        <time>2018-05-10T16:58:59Z</time>
      </trkpt>
      <trkpt lat="43.8765" lon="7.22978">
        <ele>269</ele>
        <time>2018-05-10T16:59:59Z</time>
      </trkpt>
      <trkpt lat="43.87647" lon="7.22971">
        <ele>269</ele>
        <time>2018-05-10T17:00:59Z</time>
      </trkpt>
      <trkpt lat="43.87645" lon="7.22968">
        <ele>269</ele>
        <time>2018-05-10T17:01:59Z</time>
      </trkpt>
      <trkpt lat="43.87641" lon="7.22957">
        <ele>268</ele>
        <time>2018-05-10T17:02:59Z</time>
      </trkpt>
      <trkpt lat="43.87639" lon="7.22953">
        <ele>267</ele>
        <time>2018-05-10T17:03:59Z</time>
      </trkpt>
      <trkpt lat="43.87637" lon="7.22941">
        <ele>264</ele>
        <time>2018-05-10T17:04:59Z</time>
      </trkpt>
      <trkpt lat="43.87634" lon="7.22931">
        <ele>262</ele>
        <time>2018-05-10T17:05:59Z</time>
      </trkpt>
      <trkpt lat="43.8763" lon="7.22921">
        <ele>261</ele>
        <time>2018-05-10T17:06:59Z</time>
      </trkpt>
      <trkpt lat="43.87619" lon="7.22901">
        <ele>262</ele>
        <time>2018-05-10T17:07:59Z</time>
      </trkpt>
      <trkpt lat="43.87615" lon="7.22895">
        <ele>263</ele>
        <time>2018-05-10T17:08:59Z</time>
      </trkpt>
      <trkpt lat="43.87613" lon="7.22891">
        <ele>263</ele>
        <time>2018-05-10T17:09:59Z</time>
      </trkpt>
      <trkpt lat="43.8761" lon="7.2288">
        <ele>262</ele>
        <time>2018-05-10T17:10:59Z</time>
      </trkpt>
      <trkpt lat="43.87603" lon="7.2287">
        <ele>264</ele>
        <time>2018-05-10T17:11:59Z</time>
      </trkpt>
      <trkpt lat="43.87592" lon="7.22861">
        <ele>269</ele>
        <time>2018-05-10T17:12:59Z</time>
      </trkpt>
      <trkpt lat="43.87581" lon="7.22859">
        <ele>275</ele>
        <time>2018-05-10T17:13:59Z</time>
      </trkpt>
      <trkpt lat="43.87576" lon="7.22859">
        <ele>277</ele>
        <time>2018-05-10T17:14:59Z</time>
      </trkpt>
      <trkpt lat="43.87564" lon="7.22859">
        <ele>283</ele>
        <time>2018-05-10T17:15:59Z</time>
      </trkpt>
      <trkpt lat="43.87559" lon="7.22857">
        <ele>284</ele>
        <time>2018-05-10T17:16:59Z</time>
      </trkpt>
      <trkpt lat="43.87552" lon="7.22851">
        <ele>286</ele>
        <time>2018-05-10T17:17:59Z</time>
      </trkpt>
      <trkpt lat="43.87552" lon="7.22836">
        <ele>283</ele>
        <time>2018-05-10T17:18:59Z</time>
      </trkpt>
      <trkpt lat="43.87557" lon="7.22824">
        <ele>280</ele>
        <time>2018-05-10T17:19:59Z</time>
      </trkpt>
      <trkpt lat="43.87561" lon="7.22816">
        <ele>278</ele>
        <time>2018-05-10T17:20:59Z</time>
      </trkpt>
      <trkpt lat="43.87567" lon="7.22799">
        <ele>275</ele>
        <time>2018-05-10T17:21:59Z</time>
      </trkpt>
      <trkpt lat="43.87568" lon="7.22797">
        <ele>275</ele>
        <time>2018-05-10T17:22:59Z</time>
      </trkpt>
      <trkpt lat="43.87568" lon="7.22793">
        <ele>275</ele>
        <time>2018-05-10T17:23:59Z</time>
      </trkpt>
      <trkpt lat="43.87568" lon="7.22792">
        <ele>275</ele>
        <time>2018-05-10T17:24:59Z</time>
      </trkpt>
      <trkpt lat="43.8757" lon="7.2279">
        <ele>273</ele>
        <time>2018-05-10T17:25:59Z</time>
      </trkpt>
      <trkpt lat="43.87571" lon="7.22786">
        <ele>273</ele>
        <time>2018-05-10T17:26:59Z</time>
      </trkpt>
      <trkpt lat="43.87572" lon="7.22771">
        <ele>272</ele>
        <time>2018-05-10T17:27:59Z</time>
      </trkpt>
      <trkpt lat="43.87572" lon="7.22769">
        <ele>272</ele>
        <time>2018-05-10T17:28:59Z</time>
      </trkpt>
      <trkpt lat="43.87571" lon="7.22762">
        <ele>272</ele>
        <time>2018-05-10T17:29:59Z</time>
      </trkpt>
      <trkpt lat="43.87569" lon="7.22755">
        <ele>274</ele>
        <time>2018-05-10T17:30:59Z</time>
      </trkpt>
      <trkpt lat="43.87565" lon="7.22747">
        <ele>275</ele>
        <time>2018-05-10T17:31:59Z</time>
      </trkpt>
      <trkpt lat="43.87562" lon="7.2274">
        <ele>276</ele>
        <time>2018-05-10T17:32:59Z</time>
      </trkpt>
      <trkpt lat="43.87556" lon="7.22728">
        <ele>277</ele>
        <time>2018-05-10T17:33:59Z</time>
      </trkpt>
      <trkpt lat="43.87554" lon="7.22724">
        <ele>278</ele>
        <time>2018-05-10T17:34:59Z</time>
      </trkpt>
      <trkpt lat="43.87548" lon="7.22717">
        <ele>281</ele>
        <time>2018-05-10T17:35:59Z</time>
      </trkpt>
      <trkpt lat="43.87544" lon="7.22712">
        <ele>283</ele>
        <time>2018-05-10T17:36:59Z</time>
      </trkpt>
      <trkpt lat="43.87542" lon="7.22709">
        <ele>284</ele>
        <time>2018-05-10T17:37:59Z</time>
      </trkpt>
      <trkpt lat="43.87541" lon="7.22707">
        <ele>285</ele>
        <time>2018-05-10T17:38:59Z</time>
      </trkpt>
      <trkpt lat="43.8754" lon="7.22707">
        <ele>286</ele>
        <time>2018-05-10T17:39:59Z</time>
      </trkpt>
      <trkpt lat="43.87541" lon="7.22709">
        <ele>285</ele>
        <time>2018-05-10T17:40:59Z</time>
      </trkpt>
      <trkpt lat="43.87543" lon="7.22716">
        <ele>285</ele>
        <time>2018-05-10T17:41:59Z</time>
      </trkpt>
      <trkpt lat="43.87543" lon="7.22717">
        <ele>285</ele>
        <time>2018-05-10T17:42:59Z</time>
      </trkpt>
      <trkpt lat="43.87544" lon="7.22725">
        <ele>286</ele>
        <time>2018-05-10T17:43:59Z</time>
      </trkpt>
      <trkpt lat="43.87543" lon="7.2273">
        <ele>287</ele>
        <time>2018-05-10T17:44:59Z</time>
      </trkpt>
      <trkpt lat="43.87542" lon="7.22738">
        <ele>289</ele>
        <time>2018-05-10T17:45:59Z</time>
      </trkpt>
      <trkpt lat="43.87541" lon="7.22742">
        <ele>291</ele>
        <time>2018-05-10T17:46:59Z</time>
      </trkpt>
      <trkpt lat="43.8754" lon="7.22745">
        <ele>292</ele>
        <time>2018-05-10T17:47:59Z</time>
      </trkpt>
      <trkpt lat="43.87537" lon="7.22751">
        <ele>295</ele>
        <time>2018-05-10T17:48:59Z</time>
      </trkpt>
      <trkpt lat="43.87535" lon="7.22763">
        <ele>295</ele>
        <time>2018-05-10T17:49:59Z</time>
      </trkpt>
      <trkpt lat="43.87534" lon="7.22764">
        <ele>296</ele>
        <time>2018-05-10T17:50:59Z</time>
      </trkpt>
      <trkpt lat="43.87532" lon="7.22762">
        <ele>297</ele>
        <time>2018-05-10T17:51:59Z</time>
      </trkpt>
      <trkpt lat="43.87533" lon="7.22759">
        <ele>297</ele>
        <time>2018-05-10T17:52:59Z</time>
      </trkpt>
      <trkpt lat="43.87531" lon="7.2275">
        <ele>299</ele>
        <time>2018-05-10T17:53:59Z</time>
      </trkpt>
      <trkpt lat="43.87526" lon="7.2274">
        <ele>301</ele>
        <time>2018-05-10T17:54:59Z</time>
      </trkpt>
      <trkpt lat="43.87525" lon="7.22739">
        <ele>301</ele>
        <time>2018-05-10T17:55:59Z</time>
      </trkpt>
      <trkpt lat="43.87524" lon="7.2273">
        <ele>301</ele>
        <time>2018-05-10T17:56:59Z</time>
      </trkpt>
      <trkpt lat="43.87522" lon="7.22722">
        <ele>302</ele>
        <time>2018-05-10T17:57:59Z</time>
      </trkpt>
      <trkpt lat="43.87521" lon="7.22724">
        <ele>303</ele>
        <time>2018-05-10T17:58:59Z</time>
      </trkpt>
      <trkpt lat="43.87519" lon="7.22739">
        <ele>305</ele>
        <time>2018-05-10T17:59:59Z</time>
      </trkpt>
      <trkpt lat="43.87519" lon="7.22742">
        <ele>306</ele>
        <time>2018-05-10T18:00:59Z</time>
      </trkpt>
      <trkpt lat="43.87518" lon="7.22751">
        <ele>307</ele>
        <time>2018-05-10T18:01:59Z</time>
      </trkpt>
      <trkpt lat="43.87516" lon="7.22752">
        <ele>308</ele>
        <time>2018-05-10T18:02:59Z</time>
      </trkpt>
      <trkpt lat="43.87515" lon="7.22751">
        <ele>309</ele>
        <time>2018-05-10T18:03:59Z</time>
      </trkpt>
      <trkpt lat="43.87514" lon="7.22744">
        <ele>309</ele>
        <time>2018-05-10T18:04:59Z</time>
      </trkpt>
      <trkpt lat="43.87514" lon="7.22741">
        <ele>309</ele>
        <time>2018-05-10T18:05:59Z</time>
      </trkpt>
      <trkpt lat="43.87512" lon="7.22734">
        <ele>310</ele>
        <time>2018-05-10T18:06:59Z</time>
      </trkpt>
      <trkpt lat="43.87506" lon="7.22715">
        <ele>313</ele>
        <time>2018-05-10T18:07:59Z</time>
      </trkpt>
      <trkpt lat="43.87503" lon="7.22709">
        <ele>316</ele>
        <time>2018-05-10T18:08:59Z</time>
      </trkpt>
      <trkpt lat="43.87503" lon="7.22709">
        <ele>316</ele>
        <time>2018-05-10T18:09:59Z</time>
      </trkpt>
      <trkpt lat="43.87502" lon="7.2271">
        <ele>316</ele>
        <time>2018-05-10T18:10:59Z</time>
      </trkpt>
      <trkpt lat="43.87501" lon="7.22729">
        <ele>318</ele>
        <time>2018-05-10T18:11:59Z</time>
      </trkpt>
      <trkpt lat="43.875" lon="7.22736">
        <ele>319</ele>
        <time>2018-05-10T18:12:59Z</time>
      </trkpt>
      <trkpt lat="43.87499" lon="7.22741">
        <ele>319</ele>
        <time>2018-05-10T18:13:59Z</time>
      </trkpt>
      <trkpt lat="43.87498" lon="7.22743">
        <ele>320</ele>
        <time>2018-05-10T18:14:59Z</time>
      </trkpt>
      <trkpt lat="43.87494" lon="7.22749">
        <ele>323</ele>
        <time>2018-05-10T18:15:59Z</time>
      </trkpt>
      <trkpt lat="43.87492" lon="7.22748">
        <ele>324</ele>
        <time>2018-05-10T18:16:59Z</time>
      </trkpt>
      <trkpt lat="43.87492" lon="7.22746">
        <ele>324</ele>
        <time>2018-05-10T18:17:59Z</time>
      </trkpt>
      <trkpt lat="43.87491" lon="7.22744">
        <ele>325</ele>
        <time>2018-05-10T18:18:59Z</time>
      </trkpt>
      <trkpt lat="43.87492" lon="7.22735">
        <ele>324</ele>
        <time>2018-05-10T18:19:59Z</time>
      </trkpt>
      <trkpt lat="43.87492" lon="7.22733">
        <ele>324</ele>
        <time>2018-05-10T18:20:59Z</time>
      </trkpt>
      <trkpt lat="43.87487" lon="7.22708">
        <ele>326</ele>
        <time>2018-05-10T18:21:59Z</time>
      </trkpt>
      <trkpt lat="43.87485" lon="7.22696">
        <ele>327</ele>
        <time>2018-05-10T18:22:59Z</time>
      </trkpt>
      <trkpt lat="43.87482" lon="7.22694">
        <ele>329</ele>
        <time>2018-05-10T18:23:59Z</time>
      </trkpt>
      <trkpt lat="43.8748" lon="7.22697">
        <ele>330</ele>
        <time>2018-05-10T18:24:59Z</time>
      </trkpt>
      <trkpt lat="43.87476" lon="7.22703">
        <ele>333</ele>
        <time>2018-05-10T18:25:59Z</time>
      </trkpt>
      <trkpt lat="43.87475" lon="7.22708">
        <ele>334</ele>
        <time>2018-05-10T18:26:59Z</time>
      </trkpt>
      <trkpt lat="43.87474" lon="7.22712">
        <ele>335</ele>
        <time>2018-05-10T18:27:59Z</time>
      </trkpt>
      <trkpt lat="43.87475" lon="7.22723">
        <ele>335</ele>
        <time>2018-05-10T18:28:59Z</time>
      </trkpt>
      <trkpt lat="43.87475" lon="7.22726">
        <ele>335</ele>
        <time>2018-05-10T18:29:59Z</time>
      </trkpt>
      <trkpt lat="43.87471" lon="7.22726">
        <ele>338</ele>
        <time>2018-05-10T18:30:59Z</time>
      </trkpt>
      <trkpt lat="43.87468" lon="7.22712">
        <ele>339</ele>
        <time>2018-05-10T18:31:59Z</time>
      </trkpt>
      <trkpt lat="43.87463" lon="7.22711">
        <ele>342</ele>
        <time>2018-05-10T18:32:59Z</time>
      </trkpt>
      <trkpt lat="43.87464" lon="7.22712">
        <ele>341</ele>
        <time>2018-05-10T18:33:59Z</time>
      </trkpt>
      <trkpt lat="43.87465" lon="7.22715">
        <ele>341</ele>
        <time>2018-05-10T18:34:59Z</time>
      </trkpt>
      <trkpt lat="43.8746" lon="7.22725">
        <ele>345</ele>
        <time>2018-05-10T18:35:59Z</time>
      </trkpt>
      <trkpt lat="43.87459" lon="7.22725">
        <ele>345</ele>
        <time>2018-05-10T18:36:59Z</time>
      </trkpt>
      <trkpt lat="43.87458" lon="7.22722">
        <ele>346</ele>
        <time>2018-05-10T18:37:59Z</time>
      </trkpt>
      <trkpt lat="43.87458" lon="7.22719">
        <ele>346</ele>
        <time>2018-05-10T18:38:59Z</time>
      </trkpt>
      <trkpt lat="43.87456" lon="7.22711">
        <ele>346</ele>
        <time>2018-05-10T18:39:59Z</time>
      </trkpt>
      <trkpt lat="43.87455" lon="7.227">
        <ele>346</ele>
        <time>2018-05-10T18:40:59Z</time>
      </trkpt>
      <trkpt lat="43.87456" lon="7.22684">
        <ele>344</ele>
        <time>2018-05-10T18:41:59Z</time>
      </trkpt>
      <trkpt lat="43.87456" lon="7.22666">
        <ele>342</ele>
        <time>2018-05-10T18:42:59Z</time>
      </trkpt>
      <trkpt lat="43.87455" lon="7.22659">
        <ele>341</ele>
        <time>2018-05-10T18:43:59Z</time>
      </trkpt>
      <trkpt lat="43.87454" lon="7.22656">
        <ele>341</ele>
        <time>2018-05-10T18:44:59Z</time>
      </trkpt>
      <trkpt lat="43.87453" lon="7.2265">
        <ele>339</ele>
        <time>2018-05-10T18:45:59Z</time>
      </trkpt>
      <trkpt lat="43.87447" lon="7.22637">
        <ele>339</ele>
        <time>2018-05-10T18:46:59Z</time>
      </trkpt>
      <trkpt lat="43.87445" lon="7.22634">
        <ele>339</ele>
        <time>2018-05-10T18:47:59Z</time>
      </trkpt>
      <trkpt lat="43.87443" lon="7.22636">
        <ele>341</ele>
        <time>2018-05-10T18:48:59Z</time>
      </trkpt>
      <trkpt lat="43.87443" lon="7.22638">
        <ele>342</ele>
        <time>2018-05-10T18:49:59Z</time>
      </trkpt>
      <trkpt lat="43.87446" lon="7.22647">
        <ele>342</ele>
        <time>2018-05-10T18:50:59Z</time>
      </trkpt>
      <trkpt lat="43.87444" lon="7.2265">
        <ele>344</ele>
        <time>2018-05-10T18:51:59Z</time>
      </trkpt>
      <trkpt lat="43.8744" lon="7.22642">
        <ele>344</ele>
        <time>2018-05-10T18:52:59Z</time>
      </trkpt>
      <trkpt lat="43.87437" lon="7.22638">
        <ele>345</ele>
        <time>2018-05-10T18:53:59Z</time>
      </trkpt>
      <trkpt lat="43.87436" lon="7.22637">
        <ele>345</ele>
        <time>2018-05-10T18:54:59Z</time>
      </trkpt>
      <trkpt lat="43.87432" lon="7.22635">
        <ele>347</ele>
        <time>2018-05-10T18:55:59Z</time>
      </trkpt>
      <trkpt lat="43.87426" lon="7.22634">
        <ele>349</ele>
        <time>2018-05-10T18:56:59Z</time>
      </trkpt>
      <trkpt lat="43.87421" lon="7.22633">
        <ele>352</ele>
        <time>2018-05-10T18:57:59Z</time>
      </trkpt>
      <trkpt lat="43.87418" lon="7.22634">
        <ele>354</ele>
        <time>2018-05-10T18:58:59Z</time>
      </trkpt>
      <trkpt lat="43.87413" lon="7.22635">
        <ele>356</ele>
        <time>2018-05-10T18:59:59Z</time>
      </trkpt>
      <trkpt lat="43.87408" lon="7.22638">
        <ele>358</ele>
        <time>2018-05-10T19:00:59Z</time>
      </trkpt>
      <trkpt lat="43.87407" lon="7.22638">
        <ele>358</ele>
        <time>2018-05-10T19:01:59Z</time>
      </trkpt>
      <trkpt lat="43.874" lon="7.22646">
        <ele>362</ele>
        <time>2018-05-10T19:02:59Z</time>
      </trkpt>
      <trkpt lat="43.87389" lon="7.22657">
        <ele>368</ele>
        <time>2018-05-10T19:03:59Z</time>
      </trkpt>
      <trkpt lat="43.87382" lon="7.22665">
        <ele>372</ele>
        <time>2018-05-10T19:04:59Z</time>
      </trkpt>
      <trkpt lat="43.87381" lon="7.22668">
        <ele>373</ele>
        <time>2018-05-10T19:05:59Z</time>
      </trkpt>
      <trkpt lat="43.87376" lon="7.22671">
        <ele>375</ele>
        <time>2018-05-10T19:06:59Z</time>
      </trkpt>
      <trkpt lat="43.87372" lon="7.22675">
        <ele>378</ele>
        <time>2018-05-10T19:07:59Z</time>
      </trkpt>
      <trkpt lat="43.87368" lon="7.22676">
        <ele>379</ele>
        <time>2018-05-10T19:08:59Z</time>
      </trkpt>
      <trkpt lat="43.87367" lon="7.22677">
        <ele>380</ele>
        <time>2018-05-10T19:09:59Z</time>
      </trkpt>
      <trkpt lat="43.87365" lon="7.2268">
        <ele>381</ele>
        <time>2018-05-10T19:10:59Z</time>
      </trkpt>
      <trkpt lat="43.87365" lon="7.22681">
        <ele>381</ele>
        <time>2018-05-10T19:11:59Z</time>
      </trkpt>
      <trkpt lat="43.87354" lon="7.22685">
        <ele>386</ele>
        <time>2018-05-10T19:12:59Z</time>
      </trkpt>
      <trkpt lat="43.87351" lon="7.22686">
        <ele>387</ele>
        <time>2018-05-10T19:13:59Z</time>
      </trkpt>
      <trkpt lat="43.87349" lon="7.2269">
        <ele>389</ele>
        <time>2018-05-10T19:14:59Z</time>
      </trkpt>
      <trkpt lat="43.87345" lon="7.22691">
        <ele>391</ele>
        <time>2018-05-10T19:15:59Z</time>
      </trkpt>
      <trkpt lat="43.87338" lon="7.22693">
        <ele>394</ele>
        <time>2018-05-10T19:16:59Z</time>
      </trkpt>
      <trkpt lat="43.87334" lon="7.22694">
        <ele>395</ele>
        <time>2018-05-10T19:17:59Z</time>
      </trkpt>
      <trkpt lat="43.87327" lon="7.22692">
        <ele>398</ele>
        <time>2018-05-10T19:18:59Z</time>
      </trkpt>
      <trkpt lat="43.87326" lon="7.22692">
        <ele>399</ele>
        <time>2018-05-10T19:19:59Z</time>
      </trkpt>
      <trkpt lat="43.87317" lon="7.22685">
        <ele>402</ele>
        <time>2018-05-10T19:20:59Z</time>
      </trkpt>
      <trkpt lat="43.87316" lon="7.22684">
        <ele>402</ele>
        <time>2018-05-10T19:21:59Z</time>
      </trkpt>
      <trkpt lat="43.87308" lon="7.22677">
        <ele>404</ele>
        <time>2018-05-10T19:22:59Z</time>
      </trkpt>
      <trkpt lat="43.87307" lon="7.22676">
        <ele>404</ele>
        <time>2018-05-10T19:23:59Z</time>
      </trkpt>
      <trkpt lat="43.87306" lon="7.22671">
        <ele>403</ele>
        <time>2018-05-10T19:24:59Z</time>
      </trkpt>
      <trkpt lat="43.87303" lon="7.22664">
        <ele>402</ele>
        <time>2018-05-10T19:25:59Z</time>
      </trkpt>
      <trkpt lat="43.87296" lon="7.22652">
        <ele>402</ele>
        <time>2018-05-10T19:26:59Z</time>
      </trkpt>
      <trkpt lat="43.87294" lon="7.22647">
        <ele>402</ele>
        <time>2018-05-10T19:27:59Z</time>
      </trkpt>
      <trkpt lat="43.87282" lon="7.2263">
        <ele>403</ele>
        <time>2018-05-10T19:28:59Z</time>
      </trkpt>
      <trkpt lat="43.87277" lon="7.22625">
        <ele>405</ele>
        <time>2018-05-10T19:29:59Z</time>
      </trkpt>
      <trkpt lat="43.87272" lon="7.22616">
        <ele>405</ele>
        <time>2018-05-10T19:30:59Z</time>
      </trkpt>
      <trkpt lat="43.8727" lon="7.22612">
        <ele>404</ele>
        <time>2018-05-10T19:31:59Z</time>
      </trkpt>
      <trkpt lat="43.87267" lon="7.22605">
        <ele>404</ele>
        <time>2018-05-10T19:32:59Z</time>
      </trkpt>
      <trkpt lat="43.87266" lon="7.22604">
        <ele>404</ele>
        <time>2018-05-10T19:33:59Z</time>
      </trkpt>
      <trkpt lat="43.87263" lon="7.22595">
        <ele>403</ele>
        <time>2018-05-10T19:34:59Z</time>
      </trkpt>
      <trkpt lat="43.87259" lon="7.22587">
        <ele>402</ele>
        <time>2018-05-10T19:35:59Z</time>
      </trkpt>
      <trkpt lat="43.87253" lon="7.22576">
        <ele>402</ele>
        <time>2018-05-10T19:36:59Z</time>
      </trkpt>
      <trkpt lat="43.87247" lon="7.22568">
        <ele>402</ele>
        <time>2018-05-10T19:37:59Z</time>
      </trkpt>
      <trkpt lat="43.87242" lon="7.22566">
        <ele>403</ele>
        <time>2018-05-10T19:38:59Z</time>
      </trkpt>
      <trkpt lat="43.87236" lon="7.22557">
        <ele>402</ele>
        <time>2018-05-10T19:39:59Z</time>
      </trkpt>
      <trkpt lat="43.8723" lon="7.22551">
        <ele>401</ele>
        <time>2018-05-10T19:40:59Z</time>
      </trkpt>
      <trkpt lat="43.87224" lon="7.22546">
        <ele>401</ele>
        <time>2018-05-10T19:41:59Z</time>
      </trkpt>
      <trkpt lat="43.8722" lon="7.22544">
        <ele>401</ele>
        <time>2018-05-10T19:42:59Z</time>
      </trkpt>
      <trkpt lat="43.87212" lon="7.22527">
        <ele>397</ele>
        <time>2018-05-10T19:43:59Z</time>
      </trkpt>
      <trkpt lat="43.87211" lon="7.22525">
        <ele>397</ele>
        <time>2018-05-10T19:44:59Z</time>
      </trkpt>
      <trkpt lat="43.87206" lon="7.22517">
        <ele>395</ele>
        <time>2018-05-10T19:45:59Z</time>
      </trkpt>
      <trkpt lat="43.87205" lon="7.22516">
        <ele>395</ele>
        <time>2018-05-10T19:46:59Z</time>
      </trkpt>
      <trkpt lat="43.87196" lon="7.22505">
        <ele>393</ele>
        <time>2018-05-10T19:47:59Z</time>
      </trkpt>
      <trkpt lat="43.87194" lon="7.22503">
        <ele>393</ele>
        <time>2018-05-10T19:48:59Z</time>
      </trkpt>
      <trkpt lat="43.87192" lon="7.22505">
        <ele>394</ele>
        <time>2018-05-10T19:49:59Z</time>
      </trkpt>
      <trkpt lat="43.8719" lon="7.22508">
        <ele>396</ele>
        <time>2018-05-10T19:50:59Z</time>
      </trkpt>
      <trkpt lat="43.87188" lon="7.22515">
        <ele>399</ele>
        <time>2018-05-10T19:51:59Z</time>
      </trkpt>
      <trkpt lat="43.87188" lon="7.22519">
        <ele>401</ele>
        <time>2018-05-10T19:52:59Z</time>
      </trkpt>
      <trkpt lat="43.87185" lon="7.22525">
        <ele>404</ele>
        <time>2018-05-10T19:53:59Z</time>
      </trkpt>
      <trkpt lat="43.87182" lon="7.22529">
        <ele>406</ele>
        <time>2018-05-10T19:54:59Z</time>
      </trkpt>
      <trkpt lat="43.87179" lon="7.22531">
        <ele>408</ele>
        <time>2018-05-10T19:55:59Z</time>
      </trkpt>
      <trkpt lat="43.87178" lon="7.22532">
        <ele>409</ele>
        <time>2018-05-10T19:56:59Z</time>
      </trkpt>
      <trkpt lat="43.87145" lon="7.22561">
        <ele>422</ele>
        <time>2018-05-10T19:57:59Z</time>
      </trkpt>
      <trkpt lat="43.87139" lon="7.22567">
        <ele>424</ele>
        <time>2018-05-10T19:58:59Z</time>
      </trkpt>
      <trkpt lat="43.87136" lon="7.22572">
        <ele>425</ele>
        <time>2018-05-10T19:59:59Z</time>
      </trkpt>
      <trkpt lat="43.87132" lon="7.22577">
        <ele>427</ele>
        <time>2018-05-10T20:00:59Z</time>
      </trkpt>
      <trkpt lat="43.87125" lon="7.22587">
        <ele>430</ele>
        <time>2018-05-10T20:01:59Z</time>
      </trkpt>
      <trkpt lat="43.87116" lon="7.22598">
        <ele>432</ele>
        <time>2018-05-10T20:02:59Z</time>
      </trkpt>
      <trkpt lat="43.87108" lon="7.22609">
        <ele>434</ele>
        <time>2018-05-10T20:03:59Z</time>
      </trkpt>
      <trkpt lat="43.87106" lon="7.22613">
        <ele>435</ele>
        <time>2018-05-10T20:04:59Z</time>
      </trkpt>
      <trkpt lat="43.87095" lon="7.2264">
        <ele>442</ele>
        <time>2018-05-10T20:05:59Z</time>
      </trkpt>
      <trkpt lat="43.87088" lon="7.22656">
        <ele>445</ele>
        <time>2018-05-10T20:06:59Z</time>
      </trkpt>
      <trkpt lat="43.87079" lon="7.22654">
        <ele>445</ele>
        <time>2018-05-10T20:07:59Z</time>
      </trkpt>
      <trkpt lat="43.87076" lon="7.22648">
        <ele>444</ele>
        <time>2018-05-10T20:08:59Z</time>
      </trkpt>
      <trkpt lat="43.87072" lon="7.22642">
        <ele>444</ele>
        <time>2018-05-10T20:09:59Z</time>
      </trkpt>
      <trkpt lat="43.87063" lon="7.22622">
        <ele>440</ele>
        <time>2018-05-10T20:10:59Z</time>
      </trkpt>
      <trkpt lat="43.8706" lon="7.22612">
        <ele>438</ele>
        <time>2018-05-10T20:11:59Z</time>
      </trkpt>
      <trkpt lat="43.87059" lon="7.2261">
        <ele>438</ele>
        <time>2018-05-10T20:12:59Z</time>
      </trkpt>
      <trkpt lat="43.87053" lon="7.22603">
        <ele>437</ele>
        <time>2018-05-10T20:13:59Z</time>
      </trkpt>
      <trkpt lat="43.8704" lon="7.22589">
        <ele>435</ele>
        <time>2018-05-10T20:14:59Z</time>
      </trkpt>
      <trkpt lat="43.87037" lon="7.22585">
        <ele>434</ele>
        <time>2018-05-10T20:15:59Z</time>
      </trkpt>
      <trkpt lat="43.87034" lon="7.22584">
        <ele>435</ele>
        <time>2018-05-10T20:16:59Z</time>
      </trkpt>
      <trkpt lat="43.87032" lon="7.22582">
        <ele>434</ele>
        <time>2018-05-10T20:17:59Z</time>
      </trkpt>
      <trkpt lat="43.8702" lon="7.2258">
        <ele>436</ele>
        <time>2018-05-10T20:18:59Z</time>
      </trkpt>
      <trkpt lat="43.87018" lon="7.22579">
        <ele>436</ele>
        <time>2018-05-10T20:19:59Z</time>
      </trkpt>
      <trkpt lat="43.87012" lon="7.22579">
        <ele>437</ele>
        <time>2018-05-10T20:20:59Z</time>
      </trkpt>
      <trkpt lat="43.87011" lon="7.22579">
        <ele>437</ele>
        <time>2018-05-10T20:21:59Z</time>
      </trkpt>
      <trkpt lat="43.87003" lon="7.22583">
        <ele>440</ele>
        <time>2018-05-10T20:22:59Z</time>
      </trkpt>
      <trkpt lat="43.86997" lon="7.22584">
        <ele>441</ele>
        <time>2018-05-10T20:23:59Z</time>
      </trkpt>
      <trkpt lat="43.86993" lon="7.22587">
        <ele>442</ele>
        <time>2018-05-10T20:24:59Z</time>
      </trkpt>
      <trkpt lat="43.86995" lon="7.2259">
        <ele>443</ele>
        <time>2018-05-10T20:25:59Z</time>
      </trkpt>
      <trkpt lat="43.86998" lon="7.2259">
        <ele>443</ele>
        <time>2018-05-10T20:26:59Z</time>
      </trkpt>
      <trkpt lat="43.87004" lon="7.22592">
        <ele>444</ele>
        <time>2018-05-10T20:27:59Z</time>
      </trkpt>
      <trkpt lat="43.87011" lon="7.22604">
        <ele>446</ele>
        <time>2018-05-10T20:28:59Z</time>
      </trkpt>
      <trkpt lat="43.87014" lon="7.22606">
        <ele>447</ele>
        <time>2018-05-10T20:29:59Z</time>
      </trkpt>
      <trkpt lat="43.87017" lon="7.22613">
        <ele>448</ele>
        <time>2018-05-10T20:30:59Z</time>
      </trkpt>
      <trkpt lat="43.87019" lon="7.22623">
        <ele>451</ele>
        <time>2018-05-10T20:31:59Z</time>
      </trkpt>
      <trkpt lat="43.87017" lon="7.22624">
        <ele>452</ele>
        <time>2018-05-10T20:32:59Z</time>
      </trkpt>
      <trkpt lat="43.87016" lon="7.22621">
        <ele>452</ele>
        <time>2018-05-10T20:33:59Z</time>
      </trkpt>
      <trkpt lat="43.87011" lon="7.22618">
        <ele>452</ele>
        <time>2018-05-10T20:34:59Z</time>
      </trkpt>
      <trkpt lat="43.8701" lon="7.22617">
        <ele>452</ele>
        <time>2018-05-10T20:35:59Z</time>
      </trkpt>
      <trkpt lat="43.87004" lon="7.22617">
        <ele>453</ele>
        <time>2018-05-10T20:36:59Z</time>
      </trkpt>
      <trkpt lat="43.87003" lon="7.22616">
        <ele>453</ele>
        <time>2018-05-10T20:37:59Z</time>
      </trkpt>
      <trkpt lat="43.86997" lon="7.22613">
        <ele>452</ele>
        <time>2018-05-10T20:38:59Z</time>
      </trkpt>
      <trkpt lat="43.86993" lon="7.22613">
        <ele>452</ele>
        <time>2018-05-10T20:39:59Z</time>
      </trkpt>
      <trkpt lat="43.86983" lon="7.22617">
        <ele>453</ele>
        <time>2018-05-10T20:40:59Z</time>
      </trkpt>
      <trkpt lat="43.86979" lon="7.22619">
        <ele>454</ele>
        <time>2018-05-10T20:41:59Z</time>
      </trkpt>
      <trkpt lat="43.86971" lon="7.22621">
        <ele>454</ele>
        <time>2018-05-10T20:42:59Z</time>
      </trkpt>
      <trkpt lat="43.86968" lon="7.22621">
        <ele>454</ele>
        <time>2018-05-10T20:43:59Z</time>
      </trkpt>
      <trkpt lat="43.86961" lon="7.22623">
        <ele>455</ele>
        <time>2018-05-10T20:44:59Z</time>
      </trkpt>
      <trkpt lat="43.86949" lon="7.22628">
        <ele>456</ele>
        <time>2018-05-10T20:45:59Z</time>
      </trkpt>
      <trkpt lat="43.86948" lon="7.22628">
        <ele>456</ele>
        <time>2018-05-10T20:46:59Z</time>
      </trkpt>
      <trkpt lat="43.86936" lon="7.22632">
        <ele>457</ele>
        <time>2018-05-10T20:47:59Z</time>
      </trkpt>
      <trkpt lat="43.86933" lon="7.22634">
        <ele>458</ele>
        <time>2018-05-10T20:48:59Z</time>
      </trkpt>
      <trkpt lat="43.86928" lon="7.22639">
        <ele>460</ele>
        <time>2018-05-10T20:49:59Z</time>
      </trkpt>
      <trkpt lat="43.86922" lon="7.22646">
        <ele>462</ele>
        <time>2018-05-10T20:50:59Z</time>
      </trkpt>
      <trkpt lat="43.86913" lon="7.22654">
        <ele>466</ele>
        <time>2018-05-10T20:51:59Z</time>
      </trkpt>
      <trkpt lat="43.86906" lon="7.22667">
        <ele>470</ele>
        <time>2018-05-10T20:52:59Z</time>
      </trkpt>
      <trkpt lat="43.86902" lon="7.22675">
        <ele>472</ele>
        <time>2018-05-10T20:53:59Z</time>
      </trkpt>
      <trkpt lat="43.86897" lon="7.22682">
        <ele>474</ele>
        <time>2018-05-10T20:54:59Z</time>
      </trkpt>
      <trkpt lat="43.86896" lon="7.22683">
        <ele>474</ele>
        <time>2018-05-10T20:55:59Z</time>
      </trkpt>
      <trkpt lat="43.86894" lon="7.22685">
        <ele>475</ele>
        <time>2018-05-10T20:56:59Z</time>
      </trkpt>
      <trkpt lat="43.86891" lon="7.22687">
        <ele>475</ele>
        <time>2018-05-10T20:57:59Z</time>
      </trkpt>
      <trkpt lat="43.86886" lon="7.22689">
        <ele>475</ele>
        <time>2018-05-10T20:58:59Z</time>
      </trkpt>
      <trkpt lat="43.86884" lon="7.2269">
        <ele>475</ele>
        <time>2018-05-10T20:59:59Z</time>
      </trkpt>
      <trkpt lat="43.86877" lon="7.22694">
        <ele>475</ele>
        <time>2018-05-10T21:00:59Z</time>
      </trkpt>
      <trkpt lat="43.86871" lon="7.22698">
        <ele>475</ele>
        <time>2018-05-10T21:01:59Z</time>
      </trkpt>
      <trkpt lat="43.86863" lon="7.22704">
        <ele>476</ele>
        <time>2018-05-10T21:02:59Z</time>
      </trkpt>
      <trkpt lat="43.86861" lon="7.22707">
        <ele>476</ele>
        <time>2018-05-10T21:03:59Z</time>
      </trkpt>
      <trkpt lat="43.86856" lon="7.22713">
        <ele>477</ele>
        <time>2018-05-10T21:04:59Z</time>
      </trkpt>
      <trkpt lat="43.86854" lon="7.22722">
        <ele>478</ele>
        <time>2018-05-10T21:05:59Z</time>
      </trkpt>
      <trkpt lat="43.86855" lon="7.2273">
        <ele>481</ele>
        <time>2018-05-10T21:06:59Z</time>
      </trkpt>
      <trkpt lat="43.86856" lon="7.22738">
        <ele>483</ele>
        <time>2018-05-10T21:07:59Z</time>
      </trkpt>
      <trkpt lat="43.86856" lon="7.22743">
        <ele>484</ele>
        <time>2018-05-10T21:08:59Z</time>
      </trkpt>
      <trkpt lat="43.86854" lon="7.22747">
        <ele>484</ele>
        <time>2018-05-10T21:09:59Z</time>
      </trkpt>
      <trkpt lat="43.8685" lon="7.22755">
        <ele>486</ele>
        <time>2018-05-10T21:10:59Z</time>
      </trkpt>
      <trkpt lat="43.86846" lon="7.22757">
        <ele>486</ele>
        <time>2018-05-10T21:11:59Z</time>
      </trkpt>
      <trkpt lat="43.8684" lon="7.22759">
        <ele>485</ele>
        <time>2018-05-10T21:12:59Z</time>
      </trkpt>
      <trkpt lat="43.86829" lon="7.22769">
        <ele>487</ele>
        <time>2018-05-10T21:13:59Z</time>
      </trkpt>
      <trkpt lat="43.86828" lon="7.2277">
        <ele>487</ele>
        <time>2018-05-10T21:14:59Z</time>
      </trkpt>
      <trkpt lat="43.86825" lon="7.22774">
        <ele>489</ele>
        <time>2018-05-10T21:15:59Z</time>
      </trkpt>
      <trkpt lat="43.86824" lon="7.22777">
        <ele>490</ele>
        <time>2018-05-10T21:16:59Z</time>
      </trkpt>
      <trkpt lat="43.86823" lon="7.22785">
        <ele>493</ele>
        <time>2018-05-10T21:17:59Z</time>
      </trkpt>
      <trkpt lat="43.86819" lon="7.22795">
        <ele>496</ele>
        <time>2018-05-10T21:18:59Z</time>
      </trkpt>
      <trkpt lat="43.86817" lon="7.22799">
        <ele>498</ele>
        <time>2018-05-10T21:19:59Z</time>
      </trkpt>
      <trkpt lat="43.86808" lon="7.22811">
        <ele>502</ele>
        <time>2018-05-10T21:20:59Z</time>
      </trkpt>
      <trkpt lat="43.86804" lon="7.22816">
        <ele>503</ele>
        <time>2018-05-10T21:21:59Z</time>
      </trkpt>
      <trkpt lat="43.868" lon="7.2282">
        <ele>505</ele>
        <time>2018-05-10T21:22:59Z</time>
      </trkpt>
      <trkpt lat="43.86797" lon="7.22821">
        <ele>505</ele>
        <time>2018-05-10T21:23:59Z</time>
      </trkpt>
      <trkpt lat="43.86795" lon="7.22823">
        <ele>506</ele>
        <time>2018-05-10T21:24:59Z</time>
      </trkpt>
      <trkpt lat="43.86792" lon="7.22825">
        <ele>506</ele>
        <time>2018-05-10T21:25:59Z</time>
      </trkpt>
      <trkpt lat="43.86786" lon="7.22831">
        <ele>508</ele>
        <time>2018-05-10T21:26:59Z</time>
      </trkpt>
      <trkpt lat="43.86782" lon="7.22832">
        <ele>508</ele>
        <time>2018-05-10T21:27:59Z</time>
      </trkpt>
      <trkpt lat="43.8678" lon="7.22832">
        <ele>508</ele>
        <time>2018-05-10T21:28:59Z</time>
      </trkpt>
      <trkpt lat="43.86777" lon="7.22827">
        <ele>507</ele>
        <time>2018-05-10T21:29:59Z</time>
      </trkpt>
      <trkpt lat="43.86776" lon="7.22828">
        <ele>507</ele>
        <time>2018-05-10T21:30:59Z</time>
      </trkpt>
      <trkpt lat="43.86774" lon="7.22831">
        <ele>508</ele>
        <time>2018-05-10T21:31:59Z</time>
      </trkpt>
      <trkpt lat="43.8675" lon="7.22839">
        <ele>510</ele>
        <time>2018-05-10T21:32:59Z</time>
      </trkpt>
      <trkpt lat="43.86744" lon="7.22841">
        <ele>511</ele>
        <time>2018-05-10T21:33:59Z</time>
      </trkpt>
      <trkpt lat="43.86738" lon="7.22845">
        <ele>513</ele>
        <time>2018-05-10T21:34:59Z</time>
      </trkpt>
      <trkpt lat="43.86731" lon="7.22849">
        <ele>514</ele>
        <time>2018-05-10T21:35:59Z</time>
      </trkpt>
      <trkpt lat="43.86728" lon="7.2285">
        <ele>515</ele>
        <time>2018-05-10T21:36:59Z</time>
      </trkpt>
      <trkpt lat="43.86721" lon="7.22852">
        <ele>516</ele>
        <time>2018-05-10T21:37:59Z</time>
      </trkpt>
      <trkpt lat="43.86712" lon="7.22849">
        <ele>515</ele>
        <time>2018-05-10T21:38:59Z</time>
      </trkpt>
      <trkpt lat="43.86703" lon="7.22835">
        <ele>510</ele>
        <time>2018-05-10T21:39:59Z</time>
      </trkpt>
      <trkpt lat="43.86696" lon="7.22828">
        <ele>510</ele>
        <time>2018-05-10T21:40:59Z</time>
      </trkpt>
      <trkpt lat="43.86686" lon="7.22822">
        <ele>510</ele>
        <time>2018-05-10T21:41:59Z</time>
      </trkpt>
      <trkpt lat="43.86668" lon="7.2282">
        <ele>511</ele>
        <time>2018-05-10T21:42:59Z</time>
      </trkpt>
      <trkpt lat="43.86648" lon="7.22828">
        <ele>515</ele>
        <time>2018-05-10T21:43:59Z</time>
      </trkpt>
      <trkpt lat="43.86645" lon="7.22831">
        <ele>516</ele>
        <time>2018-05-10T21:44:59Z</time>
      </trkpt>
      <trkpt lat="43.86612" lon="7.22859">
        <ele>526</ele>
        <time>2018-05-10T21:45:59Z</time>
      </trkpt>
      <trkpt lat="43.86605" lon="7.22867">
        <ele>528</ele>
        <time>2018-05-10T21:46:59Z</time>
      </trkpt>
      <trkpt lat="43.86604" lon="7.22871">
        <ele>528</ele>
        <time>2018-05-10T21:47:59Z</time>
      </trkpt>
      <trkpt lat="43.866" lon="7.22878">
        <ele>529</ele>
        <time>2018-05-10T21:48:59Z</time>
      </trkpt>
      <trkpt lat="43.86596" lon="7.22889">
        <ele>530</ele>
        <time>2018-05-10T21:49:59Z</time>
      </trkpt>
      <trkpt lat="43.86597" lon="7.22893">
        <ele>531</ele>
        <time>2018-05-10T21:50:59Z</time>
      </trkpt>
      <trkpt lat="43.86593" lon="7.22905">
        <ele>532</ele>
        <time>2018-05-10T21:51:59Z</time>
      </trkpt>
      <trkpt lat="43.86594" lon="7.22906">
        <ele>532</ele>
        <time>2018-05-10T21:52:59Z</time>
      </trkpt>
      <trkpt lat="43.86595" lon="7.22906">
        <ele>532</ele>
        <time>2018-05-10T21:53:59Z</time>
      </trkpt>
      <trkpt lat="43.86596" lon="7.22906">
        <ele>532</ele>
        <time>2018-05-10T21:54:59Z</time>
      </trkpt>
      <trkpt lat="43.86605" lon="7.22896">
        <ele>530</ele>
        <time>2018-05-10T21:55:59Z</time>
      </trkpt>
      <trkpt lat="43.86612" lon="7.22893">
        <ele>530</ele>
        <time>2018-05-10T21:56:59Z</time>
      </trkpt>
      <trkpt lat="43.86616" lon="7.22893">
        <ele>530</ele>
        <time>2018-05-10T21:57:59Z</time>
      </trkpt>
      <trkpt lat="43.8662" lon="7.22892">
        <ele>529</ele>
        <time>2018-05-10T21:58:59Z</time>
      </trkpt>
      <trkpt lat="43.86631" lon="7.22887">
        <ele>528</ele>
        <time>2018-05-10T21:59:59Z</time>
      </trkpt>
      <trkpt lat="43.8664" lon="7.22884">
        <ele>527</ele>
        <time>2018-05-10T22:00:59Z</time>
      </trkpt>
      <trkpt lat="43.86647" lon="7.22884">
        <ele>526</ele>
        <time>2018-05-10T22:01:59Z</time>
      </trkpt>
      <trkpt lat="43.86652" lon="7.22884">
        <ele>526</ele>
        <time>2018-05-10T22:02:59Z</time>
      </trkpt>
      <trkpt lat="43.86656" lon="7.22885">
        <ele>525</ele>
        <time>2018-05-10T22:03:59Z</time>
      </trkpt>
      <trkpt lat="43.86671" lon="7.22895">
        <ele>528</ele>
        <time>2018-05-10T22:04:59Z</time>
      </trkpt>
      <trkpt lat="43.86672" lon="7.22895">
        <ele>528</ele>
        <time>2018-05-10T22:05:59Z</time>
      </trkpt>
      <trkpt lat="43.86679" lon="7.22903">
        <ele>530</ele>
        <time>2018-05-10T22:06:59Z</time>
      </trkpt>
      <trkpt lat="43.86683" lon="7.22912">
        <ele>533</ele>
        <time>2018-05-10T22:07:59Z</time>
      </trkpt>
      <trkpt lat="43.86687" lon="7.2292">
        <ele>536</ele>
        <time>2018-05-10T22:08:59Z</time>
      </trkpt>
      <trkpt lat="43.86693" lon="7.22928">
        <ele>540</ele>
        <time>2018-05-10T22:09:59Z</time>
      </trkpt>
      <trkpt lat="43.86697" lon="7.22936">
        <ele>544</ele>
        <time>2018-05-10T22:10:59Z</time>
      </trkpt>
      <trkpt lat="43.86707" lon="7.22933">
        <ele>544</ele>
        <time>2018-05-10T22:11:59Z</time>
      </trkpt>
      <trkpt lat="43.86715" lon="7.22923">
        <ele>540</ele>
        <time>2018-05-10T22:12:59Z</time>
      </trkpt>
      <trkpt lat="43.8672" lon="7.22918">
        <ele>539</ele>
        <time>2018-05-10T22:13:59Z</time>
      </trkpt>
      <trkpt lat="43.86727" lon="7.22913">
        <ele>537</ele>
        <time>2018-05-10T22:14:59Z</time>
      </trkpt>
      <trkpt lat="43.86732" lon="7.22912">
        <ele>538</ele>
        <time>2018-05-10T22:15:59Z</time>
      </trkpt>
      <trkpt lat="43.86733" lon="7.22912">
        <ele>538</ele>
        <time>2018-05-10T22:16:59Z</time>
      </trkpt>
      <trkpt lat="43.8674" lon="7.22912">
        <ele>538</ele>
        <time>2018-05-10T22:17:59Z</time>
      </trkpt>
      <trkpt lat="43.86741" lon="7.22912">
        <ele>538</ele>
        <time>2018-05-10T22:18:59Z</time>
      </trkpt>
      <trkpt lat="43.86746" lon="7.22914">
        <ele>540</ele>
        <time>2018-05-10T22:19:59Z</time>
      </trkpt>
      <trkpt lat="43.86752" lon="7.22917">
        <ele>541</ele>
        <time>2018-05-10T22:20:59Z</time>
      </trkpt>
      <trkpt lat="43.86766" lon="7.22917">
        <ele>543</ele>
        <time>2018-05-10T22:21:59Z</time>
      </trkpt>
      <trkpt lat="43.86776" lon="7.22915">
        <ele>544</ele>
        <time>2018-05-10T22:22:59Z</time>
      </trkpt>
      <trkpt lat="43.86786" lon="7.22917">
        <ele>546</ele>
        <time>2018-05-10T22:23:59Z</time>
      </trkpt>
      <trkpt lat="43.86787" lon="7.22919">
        <ele>547</ele>
        <time>2018-05-10T22:24:59Z</time>
      </trkpt>
      <trkpt lat="43.86789" lon="7.22922">
        <ele>549</ele>
        <time>2018-05-10T22:25:59Z</time>
      </trkpt>
      <trkpt lat="43.86791" lon="7.22922">
        <ele>549</ele>
        <time>2018-05-10T22:26:59Z</time>
      </trkpt>
      <trkpt lat="43.86795" lon="7.22924">
        <ele>550</ele>
        <time>2018-05-10T22:27:59Z</time>
      </trkpt>
      <trkpt lat="43.86801" lon="7.22926">
        <ele>552</ele>
        <time>2018-05-10T22:28:59Z</time>
      </trkpt>
      <trkpt lat="43.86805" lon="7.22927">
        <ele>553</ele>
        <time>2018-05-10T22:29:59Z</time>
      </trkpt>
      <trkpt lat="43.86808" lon="7.22927">
        <ele>553</ele>
        <time>2018-05-10T22:30:59Z</time>
      </trkpt>
      <trkpt lat="43.86811" lon="7.22928">
        <ele>554</ele>
        <time>2018-05-10T22:31:59Z</time>
      </trkpt>
      <trkpt lat="43.86821" lon="7.22931">
        <ele>557</ele>
        <time>2018-05-10T22:32:59Z</time>
      </trkpt>
      <trkpt lat="43.86823" lon="7.22931">
        <ele>557</ele>
        <time>2018-05-10T22:33:59Z</time>
      </trkpt>
      <trkpt lat="43.8683" lon="7.22931">
        <ele>558</ele>
        <time>2018-05-10T22:34:59Z</time>
      </trkpt>
      <trkpt lat="43.86839" lon="7.22924">
        <ele>556</ele>
        <time>2018-05-10T22:35:59Z</time>
      </trkpt>
      <trkpt lat="43.86841" lon="7.22922">
        <ele>556</ele>
        <time>2018-05-10T22:36:59Z</time>
      </trkpt>
      <trkpt lat="43.86846" lon="7.22917">
        <ele>554</ele>
        <time>2018-05-10T22:37:59Z</time>
      </trkpt>
      <trkpt lat="43.86848" lon="7.22915">
        <ele>553</ele>
        <time>2018-05-10T22:38:59Z</time>
      </trkpt>
      <trkpt lat="43.86851" lon="7.22913">
        <ele>553</ele>
        <time>2018-05-10T22:39:59Z</time>
      </trkpt>
      <trkpt lat="43.86858" lon="7.22912">
        <ele>553</ele>
        <time>2018-05-10T22:40:59Z</time>
      </trkpt>
      <trkpt lat="43.86863" lon="7.22912">
        <ele>553</ele>
        <time>2018-05-10T22:41:59Z</time>
      </trkpt>
      <trkpt lat="43.86885" lon="7.22922">
        <ele>559</ele>
        <time>2018-05-10T22:42:59Z</time>
      </trkpt>
      <trkpt lat="43.8689" lon="7.22925">
        <ele>561</ele>
        <time>2018-05-10T22:43:59Z</time>
      </trkpt>
      <trkpt lat="43.86891" lon="7.22925">
        <ele>561</ele>
        <time>2018-05-10T22:44:59Z</time>
      </trkpt>
      <trkpt lat="43.869" lon="7.22926">
        <ele>562</ele>
        <time>2018-05-10T22:45:59Z</time>
      </trkpt>
      <trkpt lat="43.86911" lon="7.22924">
        <ele>562</ele>
        <time>2018-05-10T22:46:59Z</time>
      </trkpt>
      <trkpt lat="43.86914" lon="7.22922">
        <ele>562</ele>
        <time>2018-05-10T22:47:59Z</time>
      </trkpt>
      <trkpt lat="43.86922" lon="7.22924">
        <ele>563</ele>
        <time>2018-05-10T22:48:59Z</time>
      </trkpt>
      <trkpt lat="43.86926" lon="7.22926">
        <ele>563</ele>
        <time>2018-05-10T22:49:59Z</time>
      </trkpt>
      <trkpt lat="43.86931" lon="7.22924">
        <ele>563</ele>
        <time>2018-05-10T22:50:59Z</time>
      </trkpt>
      <trkpt lat="43.86935" lon="7.22922">
        <ele>562</ele>
        <time>2018-05-10T22:51:59Z</time>
      </trkpt>
      <trkpt lat="43.86944" lon="7.2291">
        <ele>558</ele>
        <time>2018-05-10T22:52:59Z</time>
      </trkpt>
      <trkpt lat="43.86948" lon="7.22904">
        <ele>556</ele>
        <time>2018-05-10T22:53:59Z</time>
      </trkpt>
      <trkpt lat="43.86952" lon="7.22902">
        <ele>556</ele>
        <time>2018-05-10T22:54:59Z</time>
      </trkpt>
      <trkpt lat="43.86956" lon="7.22901">
        <ele>556</ele>
        <time>2018-05-10T22:55:59Z</time>
      </trkpt>
      <trkpt lat="43.86959" lon="7.22903">
        <ele>556</ele>
        <time>2018-05-10T22:56:59Z</time>
      </trkpt>
      <trkpt lat="43.86961" lon="7.22907">
        <ele>557</ele>
        <time>2018-05-10T22:57:59Z</time>
      </trkpt>
      <trkpt lat="43.86961" lon="7.2291">
        <ele>558</ele>
        <time>2018-05-10T22:58:59Z</time>
      </trkpt>
      <trkpt lat="43.86961" lon="7.22913">
        <ele>559</ele>
        <time>2018-05-10T22:59:59Z</time>
      </trkpt>
      <trkpt lat="43.86958" lon="7.22921">
        <ele>562</ele>
        <time>2018-05-10T23:00:59Z</time>
      </trkpt>
      <trkpt lat="43.86957" lon="7.22926">
        <ele>564</ele>
        <time>2018-05-10T23:01:59Z</time>
      </trkpt>
      <trkpt lat="43.86957" lon="7.22935">
        <ele>567</ele>
        <time>2018-05-10T23:02:59Z</time>
      </trkpt>
      <trkpt lat="43.86957" lon="7.22938">
        <ele>568</ele>
        <time>2018-05-10T23:03:59Z</time>
      </trkpt>
      <trkpt lat="43.86954" lon="7.22947">
        <ele>571</ele>
        <time>2018-05-10T23:04:59Z</time>
      </trkpt>
      <trkpt lat="43.86953" lon="7.22954">
        <ele>574</ele>
        <time>2018-05-10T23:05:59Z</time>
      </trkpt>
      <trkpt lat="43.8695" lon="7.22959">
        <ele>576</ele>
        <time>2018-05-10T23:06:59Z</time>
      </trkpt>
      <trkpt lat="43.86946" lon="7.22962">
        <ele>577</ele>
        <time>2018-05-10T23:07:59Z</time>
      </trkpt>
      <trkpt lat="43.86944" lon="7.22962">
        <ele>577</ele>
        <time>2018-05-10T23:08:59Z</time>
      </trkpt>
      <trkpt lat="43.86934" lon="7.22963">
        <ele>577</ele>
        <time>2018-05-10T23:09:59Z</time>
      </trkpt>
      <trkpt lat="43.86921" lon="7.22966">
        <ele>578</ele>
        <time>2018-05-10T23:10:59Z</time>
      </trkpt>
      <trkpt lat="43.86916" lon="7.22967">
        <ele>579</ele>
        <time>2018-05-10T23:11:59Z</time>
      </trkpt>
      <trkpt lat="43.86907" lon="7.22968">
        <ele>578</ele>
        <time>2018-05-10T23:12:59Z</time>
      </trkpt>
      <trkpt lat="43.86893" lon="7.22966">
        <ele>577</ele>
        <time>2018-05-10T23:13:59Z</time>
      </trkpt>
      <trkpt lat="43.86883" lon="7.22969">
        <ele>577</ele>
        <time>2018-05-10T23:14:59Z</time>
      </trkpt>
      <trkpt lat="43.86874" lon="7.22969">
        <ele>576</ele>
        <time>2018-05-10T23:15:59Z</time>
      </trkpt>
      <trkpt lat="43.86867" lon="7.22974">
        <ele>578</ele>
        <time>2018-05-10T23:16:59Z</time>
      </trkpt>
      <trkpt lat="43.86861" lon="7.22978">
        <ele>579</ele>
        <time>2018-05-10T23:17:59Z</time>
      </trkpt>
      <trkpt lat="43.86859" lon="7.22978">
        <ele>578</ele>
        <time>2018-05-10T23:18:59Z</time>
      </trkpt>
      <trkpt lat="43.86857" lon="7.22978">
        <ele>578</ele>
        <time>2018-05-10T23:19:59Z</time>
      </trkpt>
      <trkpt lat="43.8685" lon="7.22983">
        <ele>580</ele>
        <time>2018-05-10T23:20:59Z</time>
      </trkpt>
      <trkpt lat="43.86848" lon="7.22984">
        <ele>580</ele>
        <time>2018-05-10T23:21:59Z</time>
      </trkpt>
      <trkpt lat="43.86842" lon="7.22986">
        <ele>580</ele>
        <time>2018-05-10T23:22:59Z</time>
      </trkpt>
      <trkpt lat="43.86831" lon="7.22993">
        <ele>582</ele>
        <time>2018-05-10T23:23:59Z</time>
      </trkpt>
      <trkpt lat="43.86825" lon="7.22994">
        <ele>582</ele>
        <time>2018-05-10T23:24:59Z</time>
      </trkpt>
      <trkpt lat="43.8682" lon="7.22995">
        <ele>582</ele>
        <time>2018-05-10T23:25:59Z</time>
      </trkpt>
      <trkpt lat="43.86811" lon="7.22997">
        <ele>582</ele>
        <time>2018-05-10T23:26:59Z</time>
      </trkpt>
      <trkpt lat="43.86807" lon="7.22997">
        <ele>581</ele>
        <time>2018-05-10T23:27:59Z</time>
      </trkpt>
      <trkpt lat="43.86801" lon="7.23001">
        <ele>582</ele>
        <time>2018-05-10T23:28:59Z</time>
      </trkpt>
      <trkpt lat="43.86794" lon="7.23004">
        <ele>583</ele>
        <time>2018-05-10T23:29:59Z</time>
      </trkpt>
      <trkpt lat="43.86787" lon="7.23009">
        <ele>584</ele>
        <time>2018-05-10T23:30:59Z</time>
      </trkpt>
      <trkpt lat="43.86787" lon="7.23009">
        <ele>584</ele>
        <time>2018-05-10T23:31:59Z</time>
      </trkpt>
      <trkpt lat="43.86783" lon="7.23012">
        <ele>584</ele>
        <time>2018-05-10T23:32:59Z</time>
      </trkpt>
      <trkpt lat="43.86778" lon="7.23016">
        <ele>585</ele>
        <time>2018-05-10T23:33:59Z</time>
      </trkpt>
      <trkpt lat="43.86777" lon="7.23018">
        <ele>586</ele>
        <time>2018-05-10T23:34:59Z</time>
      </trkpt>
      <trkpt lat="43.86775" lon="7.23023">
        <ele>587</ele>
        <time>2018-05-10T23:35:59Z</time>
      </trkpt>
      <trkpt lat="43.86769" lon="7.23029">
        <ele>588</ele>
        <time>2018-05-10T23:36:59Z</time>
      </trkpt>
      <trkpt lat="43.86763" lon="7.23038">
        <ele>590</ele>
        <time>2018-05-10T23:37:59Z</time>
      </trkpt>
      <trkpt lat="43.86759" lon="7.23041">
        <ele>590</ele>
        <time>2018-05-10T23:38:59Z</time>
      </trkpt>
      <trkpt lat="43.86757" lon="7.23042">
        <ele>590</ele>
        <time>2018-05-10T23:39:59Z</time>
      </trkpt>
      <trkpt lat="43.86753" lon="7.23046">
        <ele>591</ele>
        <time>2018-05-10T23:40:59Z</time>
      </trkpt>
      <trkpt lat="43.86737" lon="7.23068">
        <ele>594</ele>
        <time>2018-05-10T23:41:59Z</time>
      </trkpt>
      <trkpt lat="43.86735" lon="7.23073">
        <ele>595</ele>
        <time>2018-05-10T23:42:59Z</time>
      </trkpt>
      <trkpt lat="43.86729" lon="7.23078">
        <ele>595</ele>
        <time>2018-05-10T23:43:59Z</time>
      </trkpt>
      <trkpt lat="43.8672" lon="7.23084">
        <ele>595</ele>
        <time>2018-05-10T23:44:59Z</time>
      </trkpt>
      <trkpt lat="43.86703" lon="7.23092">
        <ele>593</ele>
        <time>2018-05-10T23:45:59Z</time>
      </trkpt>
      <trkpt lat="43.86694" lon="7.23097">
        <ele>593</ele>
        <time>2018-05-10T23:46:59Z</time>
      </trkpt>
      <trkpt lat="43.86693" lon="7.23097">
        <ele>592</ele>
        <time>2018-05-10T23:47:59Z</time>
      </trkpt>
      <trkpt lat="43.86685" lon="7.23105">
        <ele>592</ele>
        <time>2018-05-10T23:48:59Z</time>
      </trkpt>
      <trkpt lat="43.86679" lon="7.23117">
        <ele>594</ele>
        <time>2018-05-10T23:49:59Z</time>
      </trkpt>
      <trkpt lat="43.86676" lon="7.23121">
        <ele>594</ele>
        <time>2018-05-10T23:50:59Z</time>
      </trkpt>
      <trkpt lat="43.86667" lon="7.23143">
        <ele>596</ele>
        <time>2018-05-10T23:51:59Z</time>
      </trkpt>
      <trkpt lat="43.86666" lon="7.23148">
        <ele>597</ele>
        <time>2018-05-10T23:52:59Z</time>
      </trkpt>
      <trkpt lat="43.8665" lon="7.23175">
        <ele>603</ele>
        <time>2018-05-10T23:53:59Z</time>
      </trkpt>
      <trkpt lat="43.86645" lon="7.23184">
        <ele>605</ele>
        <time>2018-05-10T23:54:59Z</time>
      </trkpt>
      <trkpt lat="43.86636" lon="7.23197">
        <ele>608</ele>
        <time>2018-05-10T23:55:59Z</time>
      </trkpt>
      <trkpt lat="43.86628" lon="7.2321">
        <ele>611</ele>
        <time>2018-05-10T23:56:59Z</time>
      </trkpt>
      <trkpt lat="43.86625" lon="7.23217">
        <ele>612</ele>
        <time>2018-05-10T23:57:59Z</time>
      </trkpt>
      <trkpt lat="43.86625" lon="7.23219">
        <ele>613</ele>
        <time>2018-05-10T23:58:59Z</time>
      </trkpt>
      <trkpt lat="43.8662" lon="7.2322">
        <ele>613</ele>
        <time>2018-05-10T23:59:59Z</time>
      </trkpt>
      <trkpt lat="43.86618" lon="7.23219">
        <ele>612</ele>
        <time>2018-05-11T00:00:59Z</time>
      </trkpt>
      <trkpt lat="43.86616" lon="7.23219">
        <ele>612</ele>
        <time>2018-05-11T00:01:59Z</time>
      </trkpt>
      <trkpt lat="43.86608" lon="7.23214">
        <ele>610</ele>
        <time>2018-05-11T00:02:59Z</time>
      </trkpt>
      <trkpt lat="43.86605" lon="7.23214">
        <ele>609</ele>
        <time>2018-05-11T00:03:59Z</time>
      </trkpt>
      <trkpt lat="43.86601" lon="7.23212">
        <ele>608</ele>
        <time>2018-05-11T00:04:59Z</time>
      </trkpt>
      <trkpt lat="43.86591" lon="7.23214">
        <ele>608</ele>
        <time>2018-05-11T00:05:59Z</time>
      </trkpt>
      <trkpt lat="43.86587" lon="7.23216">
        <ele>608</ele>
        <time>2018-05-11T00:06:59Z</time>
      </trkpt>
      <trkpt lat="43.86584" lon="7.23218">
        <ele>608</ele>
        <time>2018-05-11T00:07:59Z</time>
      </trkpt>
      <trkpt lat="43.86583" lon="7.23218">
        <ele>608</ele>
        <time>2018-05-11T00:08:59Z</time>
      </trkpt>
      <trkpt lat="43.8658" lon="7.23219">
        <ele>608</ele>
        <time>2018-05-11T00:09:59Z</time>
      </trkpt>
      <trkpt lat="43.86566" lon="7.23221">
        <ele>608</ele>
        <time>2018-05-11T00:10:59Z</time>
      </trkpt>
      <trkpt lat="43.86564" lon="7.23221">
        <ele>607</ele>
        <time>2018-05-11T00:11:59Z</time>
      </trkpt>
      <trkpt lat="43.86553" lon="7.23226">
        <ele>608</ele>
        <time>2018-05-11T00:12:59Z</time>
      </trkpt>
      <trkpt lat="43.86552" lon="7.23226">
        <ele>608</ele>
        <time>2018-05-11T00:13:59Z</time>
      </trkpt>
      <trkpt lat="43.86548" lon="7.23229">
        <ele>608</ele>
        <time>2018-05-11T00:14:59Z</time>
      </trkpt>
      <trkpt lat="43.86547" lon="7.2323">
        <ele>608</ele>
        <time>2018-05-11T00:15:59Z</time>
      </trkpt>
      <trkpt lat="43.86547" lon="7.23235">
        <ele>608</ele>
        <time>2018-05-11T00:16:59Z</time>
      </trkpt>
      <trkpt lat="43.86557" lon="7.23242">
        <ele>610</ele>
        <time>2018-05-11T00:17:59Z</time>
      </trkpt>
      <trkpt lat="43.86561" lon="7.23245">
        <ele>611</ele>
        <time>2018-05-11T00:18:59Z</time>
      </trkpt>
      <trkpt lat="43.86564" lon="7.23245">
        <ele>612</ele>
        <time>2018-05-11T00:19:59Z</time>
      </trkpt>
      <trkpt lat="43.86567" lon="7.23246">
        <ele>612</ele>
        <time>2018-05-11T00:20:59Z</time>
      </trkpt>
      <trkpt lat="43.86569" lon="7.2325">
        <ele>613</ele>
        <time>2018-05-11T00:21:59Z</time>
      </trkpt>
      <trkpt lat="43.8657" lon="7.23254">
        <ele>614</ele>
        <time>2018-05-11T00:22:59Z</time>
      </trkpt>
      <trkpt lat="43.86575" lon="7.23262">
        <ele>618</ele>
        <time>2018-05-11T00:23:59Z</time>
      </trkpt>
      <trkpt lat="43.86577" lon="7.23265">
        <ele>619</ele>
        <time>2018-05-11T00:24:59Z</time>
      </trkpt>
      <trkpt lat="43.86578" lon="7.23265">
        <ele>619</ele>
        <time>2018-05-11T00:25:59Z</time>
      </trkpt>
      <trkpt lat="43.8658" lon="7.23267">
        <ele>620</ele>
        <time>2018-05-11T00:26:59Z</time>
      </trkpt>
      <trkpt lat="43.86585" lon="7.23274">
        <ele>623</ele>
        <time>2018-05-11T00:27:59Z</time>
      </trkpt>
      <trkpt lat="43.86587" lon="7.23277">
        <ele>625</ele>
        <time>2018-05-11T00:28:59Z</time>
      </trkpt>
      <trkpt lat="43.86593" lon="7.23281">
        <ele>627</ele>
        <time>2018-05-11T00:29:59Z</time>
      </trkpt>
      <trkpt lat="43.86597" lon="7.23283">
        <ele>628</ele>
        <time>2018-05-11T00:30:59Z</time>
      </trkpt>
      <trkpt lat="43.86606" lon="7.23295">
        <ele>634</ele>
        <time>2018-05-11T00:31:59Z</time>
      </trkpt>
      <trkpt lat="43.86606" lon="7.23295">
        <ele>634</ele>
        <time>2018-05-11T00:32:59Z</time>
      </trkpt>
      <trkpt lat="43.86607" lon="7.23295">
        <ele>634</ele>
        <time>2018-05-11T00:33:59Z</time>
      </trkpt>
      <trkpt lat="43.8661" lon="7.23298">
        <ele>635</ele>
        <time>2018-05-11T00:34:59Z</time>
      </trkpt>
      <trkpt lat="43.86615" lon="7.23299">
        <ele>636</ele>
        <time>2018-05-11T00:35:59Z</time>
      </trkpt>
      <trkpt lat="43.86617" lon="7.233">
        <ele>637</ele>
        <time>2018-05-11T00:36:59Z</time>
      </trkpt>
      <trkpt lat="43.86616" lon="7.23304">
        <ele>638</ele>
        <time>2018-05-11T00:37:59Z</time>
      </trkpt>
      <trkpt lat="43.86613" lon="7.23307">
        <ele>639</ele>
        <time>2018-05-11T00:38:59Z</time>
      </trkpt>
      <trkpt lat="43.86614" lon="7.23309">
        <ele>640</ele>
        <time>2018-05-11T00:39:59Z</time>
      </trkpt>
      <trkpt lat="43.86616" lon="7.23311">
        <ele>641</ele>
        <time>2018-05-11T00:40:59Z</time>
      </trkpt>
      <trkpt lat="43.86623" lon="7.23314">
        <ele>643</ele>
        <time>2018-05-11T00:41:59Z</time>
      </trkpt>
      <trkpt lat="43.86625" lon="7.23315">
        <ele>643</ele>
        <time>2018-05-11T00:42:59Z</time>
      </trkpt>
      <trkpt lat="43.86638" lon="7.23316">
        <ele>646</ele>
        <time>2018-05-11T00:43:59Z</time>
      </trkpt>
      <trkpt lat="43.8664" lon="7.23315">
        <ele>646</ele>
        <time>2018-05-11T00:44:59Z</time>
      </trkpt>
      <trkpt lat="43.86645" lon="7.23311">
        <ele>645</ele>
        <time>2018-05-11T00:45:59Z</time>
      </trkpt>
      <trkpt lat="43.86654" lon="7.23309">
        <ele>646</ele>
        <time>2018-05-11T00:46:59Z</time>
      </trkpt>
      <trkpt lat="43.86656" lon="7.23309">
        <ele>646</ele>
        <time>2018-05-11T00:47:59Z</time>
      </trkpt>
      <trkpt lat="43.86661" lon="7.23306">
        <ele>646</ele>
        <time>2018-05-11T00:48:59Z</time>
      </trkpt>
      <trkpt lat="43.86667" lon="7.23302">
        <ele>646</ele>
        <time>2018-05-11T00:49:59Z</time>
      </trkpt>
      <trkpt lat="43.86672" lon="7.233">
        <ele>646</ele>
        <time>2018-05-11T00:50:59Z</time>
      </trkpt>
      <trkpt lat="43.86675" lon="7.23298">
        <ele>646</ele>
        <time>2018-05-11T00:51:59Z</time>
      </trkpt>
      <trkpt lat="43.8668" lon="7.23295">
        <ele>647</ele>
        <time>2018-05-11T00:52:59Z</time>
      </trkpt>
      <trkpt lat="43.86685" lon="7.23295">
        <ele>648</ele>
        <time>2018-05-11T00:53:59Z</time>
      </trkpt>
      <trkpt lat="43.86686" lon="7.23295">
        <ele>648</ele>
        <time>2018-05-11T00:54:59Z</time>
      </trkpt>
      <trkpt lat="43.86688" lon="7.23294">
        <ele>648</ele>
        <time>2018-05-11T00:55:59Z</time>
      </trkpt>
      <trkpt lat="43.86693" lon="7.23293">
        <ele>649</ele>
        <time>2018-05-11T00:56:59Z</time>
      </trkpt>
      <trkpt lat="43.86693" lon="7.23293">
        <ele>649</ele>
        <time>2018-05-11T00:57:59Z</time>
      </trkpt>
      <trkpt lat="43.86695" lon="7.23291">
        <ele>649</ele>
        <time>2018-05-11T00:58:59Z</time>
      </trkpt>
      <trkpt lat="43.86698" lon="7.23288">
        <ele>649</ele>
        <time>2018-05-11T00:59:59Z</time>
      </trkpt>
      <trkpt lat="43.86702" lon="7.23286">
        <ele>650</ele>
        <time>2018-05-11T01:00:59Z</time>
      </trkpt>
      <trkpt lat="43.86705" lon="7.23285">
        <ele>650</ele>
        <time>2018-05-11T01:01:59Z</time>
      </trkpt>
      <trkpt lat="43.86711" lon="7.23285">
        <ele>652</ele>
        <time>2018-05-11T01:02:59Z</time>
      </trkpt>
      <trkpt lat="43.86713" lon="7.23285">
        <ele>653</ele>
        <time>2018-05-11T01:03:59Z</time>
      </trkpt>
      <trkpt lat="43.86717" lon="7.23283">
        <ele>653</ele>
        <time>2018-05-11T01:04:59Z</time>
      </trkpt>
      <trkpt lat="43.86721" lon="7.23282">
        <ele>654</ele>
        <time>2018-05-11T01:05:59Z</time>
      </trkpt>
      <trkpt lat="43.86729" lon="7.2328">
        <ele>656</ele>
        <time>2018-05-11T01:06:59Z</time>
      </trkpt>
      <trkpt lat="43.86732" lon="7.2328">
        <ele>657</ele>
        <time>2018-05-11T01:07:59Z</time>
      </trkpt>
      <trkpt lat="43.86737" lon="7.23277">
        <ele>658</ele>
        <time>2018-05-11T01:08:59Z</time>
      </trkpt>
      <trkpt lat="43.86738" lon="7.23276">
        <ele>658</ele>
        <time>2018-05-11T01:09:59Z</time>
      </trkpt>
      <trkpt lat="43.86745" lon="7.23275">
        <ele>660</ele>
        <time>2018-05-11T01:10:59Z</time>
      </trkpt>
      <trkpt lat="43.86747" lon="7.23276">
        <ele>661</ele>
        <time>2018-05-11T01:11:59Z</time>
      </trkpt>
      <trkpt lat="43.86746" lon="7.2328">
        <ele>661</ele>
        <time>2018-05-11T01:12:59Z</time>
      </trkpt>
      <trkpt lat="43.86739" lon="7.23286">
        <ele>660</ele>
        <time>2018-05-11T01:13:59Z</time>
      </trkpt>
      <trkpt lat="43.86725" lon="7.23298">
        <ele>659</ele>
        <time>2018-05-11T01:14:59Z</time>
      </trkpt>
      <trkpt lat="43.86699" lon="7.2333">
        <ele>661</ele>
        <time>2018-05-11T01:15:59Z</time>
      </trkpt>
      <trkpt lat="43.86685" lon="7.23347">
        <ele>662</ele>
        <time>2018-05-11T01:16:59Z</time>
      </trkpt>
      <trkpt lat="43.86671" lon="7.23363">
        <ele>665</ele>
        <time>2018-05-11T01:17:59Z</time>
      </trkpt>
      <trkpt lat="43.86668" lon="7.23365">
        <ele>666</ele>
        <time>2018-05-11T01:18:59Z</time>
      </trkpt>
      <trkpt lat="43.86647" lon="7.23376">
        <ele>667</ele>
        <time>2018-05-11T01:19:59Z</time>
      </trkpt>
      <trkpt lat="43.86624" lon="7.23379">
        <ele>665</ele>
        <time>2018-05-11T01:20:59Z</time>
      </trkpt>
      <trkpt lat="43.86608" lon="7.2338">
        <ele>664</ele>
        <time>2018-05-11T01:21:59Z</time>
      </trkpt>
      <trkpt lat="43.86599" lon="7.23379">
        <ele>662</ele>
        <time>2018-05-11T01:22:59Z</time>
      </trkpt>
      <trkpt lat="43.86575" lon="7.23383">
        <ele>659</ele>
        <time>2018-05-11T01:23:59Z</time>
      </trkpt>
      <trkpt lat="43.86571" lon="7.23385">
        <ele>659</ele>
        <time>2018-05-11T01:24:59Z</time>
      </trkpt>
      <trkpt lat="43.86557" lon="7.23394">
        <ele>658</ele>
        <time>2018-05-11T01:25:59Z</time>
      </trkpt>
      <trkpt lat="43.86535" lon="7.23418">
        <ele>658</ele>
        <time>2018-05-11T01:26:59Z</time>
      </trkpt>
      <trkpt lat="43.86524" lon="7.23432">
        <ele>658</ele>
        <time>2018-05-11T01:27:59Z</time>
      </trkpt>
      <trkpt lat="43.86497" lon="7.23479">
        <ele>659</ele>
        <time>2018-05-11T01:28:59Z</time>
      </trkpt>
      <trkpt lat="43.86482" lon="7.2352">
        <ele>658</ele>
        <time>2018-05-11T01:29:59Z</time>
      </trkpt>
      <trkpt lat="43.8648" lon="7.23527">
        <ele>658</ele>
        <time>2018-05-11T01:30:59Z</time>
      </trkpt>
      <trkpt lat="43.8648" lon="7.23548">
        <ele>661</ele>
        <time>2018-05-11T01:31:59Z</time>
      </trkpt>
      <trkpt lat="43.8648" lon="7.23562">
        <ele>663</ele>
        <time>2018-05-11T01:32:59Z</time>
      </trkpt>
      <trkpt lat="43.86478" lon="7.23576">
        <ele>664</ele>
        <time>2018-05-11T01:33:59Z</time>
      </trkpt>
      <trkpt lat="43.86474" lon="7.23596">
        <ele>665</ele>
        <time>2018-05-11T01:34:59Z</time>
      </trkpt>
      <trkpt lat="43.8646" lon="7.23621">
        <ele>663</ele>
        <time>2018-05-11T01:35:59Z</time>
      </trkpt>
      <trkpt lat="43.86455" lon="7.23632">
        <ele>663</ele>
        <time>2018-05-11T01:36:59Z</time>
      </trkpt>
      <trkpt lat="43.86435" lon="7.23673">
        <ele>664</ele>
        <time>2018-05-11T01:37:59Z</time>
      </trkpt>
      <trkpt lat="43.86416" lon="7.23709">
        <ele>664</ele>
        <time>2018-05-11T01:38:59Z</time>
      </trkpt>
      <trkpt lat="43.86408" lon="7.23727">
        <ele>667</ele>
        <time>2018-05-11T01:39:59Z</time>
      </trkpt>
      <trkpt lat="43.86397" lon="7.2376">
        <ele>672</ele>
        <time>2018-05-11T01:40:59Z</time>
      </trkpt>
      <trkpt lat="43.86393" lon="7.23765">
        <ele>673</ele>
        <time>2018-05-11T01:41:59Z</time>
      </trkpt>
      <trkpt lat="43.86379" lon="7.23768">
        <ele>673</ele>
        <time>2018-05-11T01:42:59Z</time>
      </trkpt>
      <trkpt lat="43.86374" lon="7.23765">
        <ele>672</ele>
        <time>2018-05-11T01:43:59Z</time>
      </trkpt>
      <trkpt lat="43.86364" lon="7.23759">
        <ele>670</ele>
        <time>2018-05-11T01:44:59Z</time>
      </trkpt>
      <trkpt lat="43.8636" lon="7.23755">
        <ele>669</ele>
        <time>2018-05-11T01:45:59Z</time>
      </trkpt>
      <trkpt lat="43.86343" lon="7.23731">
        <ele>660</ele>
        <time>2018-05-11T01:46:59Z</time>
      </trkpt>
      <trkpt lat="43.8634" lon="7.23727">
        <ele>659</ele>
        <time>2018-05-11T01:47:59Z</time>
      </trkpt>
      <trkpt lat="43.86326" lon="7.23724">
        <ele>655</ele>
        <time>2018-05-11T01:48:59Z</time>
      </trkpt>
      <trkpt lat="43.86312" lon="7.23729">
        <ele>655</ele>
        <time>2018-05-11T01:49:59Z</time>
      </trkpt>
      <trkpt lat="43.86299" lon="7.23738">
        <ele>656</ele>
        <time>2018-05-11T01:50:59Z</time>
      </trkpt>
      <trkpt lat="43.86277" lon="7.23754">
        <ele>657</ele>
        <time>2018-05-11T01:51:59Z</time>
      </trkpt>
      <trkpt lat="43.86268" lon="7.23761">
        <ele>658</ele>
        <time>2018-05-11T01:52:59Z</time>
      </trkpt>
      <trkpt lat="43.86243" lon="7.23773">
        <ele>660</ele>
        <time>2018-05-11T01:53:59Z</time>
      </trkpt>
      <trkpt lat="43.86238" lon="7.23776">
        <ele>661</ele>
        <time>2018-05-11T01:54:59Z</time>
      </trkpt>
      <trkpt lat="43.86214" lon="7.23787">
        <ele>665</ele>
        <time>2018-05-11T01:55:59Z</time>
      </trkpt>
      <trkpt lat="43.86185" lon="7.23797">
        <ele>668</ele>
        <time>2018-05-11T01:56:59Z</time>
      </trkpt>
      <trkpt lat="43.86175" lon="7.23796">
        <ele>668</ele>
        <time>2018-05-11T01:57:59Z</time>
      </trkpt>
      <trkpt lat="43.86166" lon="7.23786">
        <ele>667</ele>
        <time>2018-05-11T01:58:59Z</time>
      </trkpt>
      <trkpt lat="43.86165" lon="7.23768">
        <ele>665</ele>
        <time>2018-05-11T01:59:59Z</time>
      </trkpt>
      <trkpt lat="43.86166" lon="7.23763">
        <ele>664</ele>
        <time>2018-05-11T02:00:59Z</time>
      </trkpt>
      <trkpt lat="43.86168" lon="7.23737">
        <ele>660</ele>
        <time>2018-05-11T02:01:59Z</time>
      </trkpt>
      <trkpt lat="43.86169" lon="7.23725">
        <ele>659</ele>
        <time>2018-05-11T02:02:59Z</time>
      </trkpt>
      <trkpt lat="43.8617" lon="7.23713">
        <ele>657</ele>
        <time>2018-05-11T02:03:59Z</time>
      </trkpt>
      <trkpt lat="43.8617" lon="7.23695">
        <ele>655</ele>
        <time>2018-05-11T02:04:59Z</time>
      </trkpt>
      <trkpt lat="43.86169" lon="7.23683">
        <ele>653</ele>
        <time>2018-05-11T02:05:59Z</time>
      </trkpt>
      <trkpt lat="43.86166" lon="7.23676">
        <ele>653</ele>
        <time>2018-05-11T02:06:59Z</time>
      </trkpt>
      <trkpt lat="43.86163" lon="7.23671">
        <ele>653</ele>
        <time>2018-05-11T02:07:59Z</time>
      </trkpt>
      <trkpt lat="43.86162" lon="7.23669">
        <ele>653</ele>
        <time>2018-05-11T02:08:59Z</time>
      </trkpt>
      <trkpt lat="43.86158" lon="7.23665">
        <ele>653</ele>
        <time>2018-05-11T02:09:59Z</time>
      </trkpt>
      <trkpt lat="43.86155" lon="7.23663">
        <ele>653</ele>
        <time>2018-05-11T02:10:59Z</time>
      </trkpt>
      <trkpt lat="43.86152" lon="7.23662">
        <ele>653</ele>
        <time>2018-05-11T02:11:59Z</time>
      </trkpt>
      <trkpt lat="43.8615" lon="7.23665">
        <ele>654</ele>
        <time>2018-05-11T02:12:59Z</time>
      </trkpt>
      <trkpt lat="43.8615" lon="7.23668">
        <ele>655</ele>
        <time>2018-05-11T02:13:59Z</time>
      </trkpt>
      <trkpt lat="43.8615" lon="7.23672">
        <ele>655</ele>
        <time>2018-05-11T02:14:59Z</time>
      </trkpt>
      <trkpt lat="43.86151" lon="7.23678">
        <ele>656</ele>
        <time>2018-05-11T02:15:59Z</time>
      </trkpt>
      <trkpt lat="43.86152" lon="7.2368">
        <ele>656</ele>
        <time>2018-05-11T02:16:59Z</time>
      </trkpt>
      <trkpt lat="43.86155" lon="7.23705">
        <ele>659</ele>
        <time>2018-05-11T02:17:59Z</time>
      </trkpt>
      <trkpt lat="43.86156" lon="7.23721">
        <ele>661</ele>
        <time>2018-05-11T02:18:59Z</time>
      </trkpt>
      <trkpt lat="43.86152" lon="7.23745">
        <ele>665</ele>
        <time>2018-05-11T02:19:59Z</time>
      </trkpt>
      <trkpt lat="43.86145" lon="7.23769">
        <ele>669</ele>
        <time>2018-05-11T02:20:59Z</time>
      </trkpt>
      <trkpt lat="43.86142" lon="7.23786">
        <ele>672</ele>
        <time>2018-05-11T02:21:59Z</time>
      </trkpt>
      <trkpt lat="43.86141" lon="7.23789">
        <ele>673</ele>
        <time>2018-05-11T02:22:59Z</time>
      </trkpt>
      <trkpt lat="43.8613" lon="7.23827">
        <ele>679</ele>
        <time>2018-05-11T02:23:59Z</time>
      </trkpt>
      <trkpt lat="43.86127" lon="7.23838">
        <ele>681</ele>
        <time>2018-05-11T02:24:59Z</time>
      </trkpt>
      <trkpt lat="43.86128" lon="7.23858">
        <ele>681</ele>
        <time>2018-05-11T02:25:59Z</time>
      </trkpt>
      <trkpt lat="43.86134" lon="7.23884">
        <ele>681</ele>
        <time>2018-05-11T02:26:59Z</time>
      </trkpt>
      <trkpt lat="43.86135" lon="7.23897">
        <ele>682</ele>
        <time>2018-05-11T02:27:59Z</time>
      </trkpt>
      <trkpt lat="43.86135" lon="7.23906">
        <ele>682</ele>
        <time>2018-05-11T02:28:59Z</time>
      </trkpt>
      <trkpt lat="43.86135" lon="7.2391">
        <ele>682</ele>
        <time>2018-05-11T02:29:59Z</time>
      </trkpt>
      <trkpt lat="43.86132" lon="7.23922">
        <ele>683</ele>
        <time>2018-05-11T02:30:59Z</time>
      </trkpt>
      <trkpt lat="43.86131" lon="7.23923">
        <ele>683</ele>
        <time>2018-05-11T02:31:59Z</time>
      </trkpt>
      <trkpt lat="43.86119" lon="7.23923">
        <ele>683</ele>
        <time>2018-05-11T02:32:59Z</time>
      </trkpt>
      <trkpt lat="43.86132" lon="7.23996">
        <ele>683</ele>
        <time>2018-05-11T02:33:59Z</time>
      </trkpt>
      <trkpt lat="43.86153" lon="7.2407">
        <ele>683</ele>
        <time>2018-05-11T02:34:59Z</time>
      </trkpt>
      <trkpt lat="43.86154" lon="7.24121">
        <ele>679</ele>
        <time>2018-05-11T02:35:59Z</time>
      </trkpt>
      <trkpt lat="43.86194" lon="7.24163">
        <ele>683</ele>
        <time>2018-05-11T02:36:59Z</time>
      </trkpt>
      <trkpt lat="43.86195" lon="7.24227">
        <ele>683</ele>
        <time>2018-05-11T02:37:59Z</time>
      </trkpt>
      <trkpt lat="43.8619" lon="7.24329">
        <ele>687</ele>
        <time>2018-05-11T02:38:59Z</time>
      </trkpt>
      <trkpt lat="43.8619" lon="7.24431">
        <ele>692</ele>
        <time>2018-05-11T02:39:59Z</time>
      </trkpt>
      <trkpt lat="43.86205" lon="7.2454">
        <ele>696</ele>
        <time>2018-05-11T02:40:59Z</time>
      </trkpt>
      <trkpt lat="43.86202" lon="7.24628">
        <ele>698</ele>
        <time>2018-05-11T02:41:59Z</time>
      </trkpt>
      <trkpt lat="43.86153" lon="7.24725">
        <ele>698</ele>
        <time>2018-05-11T02:42:59Z</time>
      </trkpt>
      <trkpt lat="43.86118" lon="7.24829">
        <ele>707</ele>
        <time>2018-05-11T02:43:59Z</time>
      </trkpt>
      <trkpt lat="43.861" lon="7.24905">
        <ele>701</ele>
        <time>2018-05-11T02:44:59Z</time>
      </trkpt>
      <trkpt lat="43.86126" lon="7.25009">
        <ele>698</ele>
        <time>2018-05-11T02:45:59Z</time>
      </trkpt>
      <trkpt lat="43.86155" lon="7.25104">
        <ele>694</ele>
        <time>2018-05-11T02:46:59Z</time>
      </trkpt>
      <trkpt lat="43.86161" lon="7.2518">
        <ele>692</ele>
        <time>2018-05-11T02:47:59Z</time>
      </trkpt>
      <trkpt lat="43.86155" lon="7.25245">
        <ele>696</ele>
        <time>2018-05-11T02:48:59Z</time>
      </trkpt>
      <trkpt lat="43.86122" lon="7.25276">
        <ele>700</ele>
        <time>2018-05-11T02:49:59Z</time>
      </trkpt>
      <trkpt lat="43.86066" lon="7.25254">
        <ele>699</ele>
        <time>2018-05-11T02:50:59Z</time>
      </trkpt>
      <trkpt lat="43.86012" lon="7.25259">
        <ele>711</ele>
        <time>2018-05-11T02:51:59Z</time>
      </trkpt>
      <trkpt lat="43.86026" lon="7.25225">
        <ele>702</ele>
        <time>2018-05-11T02:52:59Z</time>
      </trkpt>
      <trkpt lat="43.85983" lon="7.25155">
        <ele>695</ele>
        <time>2018-05-11T02:53:59Z</time>
      </trkpt>
      <trkpt lat="43.85917" lon="7.25132">
        <ele>698</ele>
        <time>2018-05-11T02:54:59Z</time>
      </trkpt>
      <trkpt lat="43.8586" lon="7.25057">
        <ele>678</ele>
        <time>2018-05-11T02:55:59Z</time>
      </trkpt>
      <trkpt lat="43.85823" lon="7.2503">
        <ele>672</ele>
        <time>2018-05-11T02:56:59Z</time>
      </trkpt>
      <trkpt lat="43.85756" lon="7.25023">
        <ele>675</ele>
        <time>2018-05-11T02:57:59Z</time>
      </trkpt>
      <trkpt lat="43.8566" lon="7.24998">
        <ele>667</ele>
        <time>2018-05-11T02:58:59Z</time>
      </trkpt>
      <trkpt lat="43.85566" lon="7.24984">
        <ele>679</ele>
        <time>2018-05-11T02:59:59Z</time>
      </trkpt>
      <trkpt lat="43.85496" lon="7.24943">
        <ele>673</ele>
        <time>2018-05-11T03:00:59Z</time>
      </trkpt>
      <trkpt lat="43.85445" lon="7.24914">
        <ele>664</ele>
        <time>2018-05-11T03:01:59Z</time>
      </trkpt>
      <trkpt lat="43.85405" lon="7.24879">
        <ele>650</ele>
        <time>2018-05-11T03:02:59Z</time>
      </trkpt>
      <trkpt lat="43.85376" lon="7.24864">
        <ele>638</ele>
        <time>2018-05-11T03:03:59Z</time>
      </trkpt>
      <trkpt lat="43.85344" lon="7.2494">
        <ele>648</ele>
        <time>2018-05-11T03:04:59Z</time>
      </trkpt>
      <trkpt lat="43.8532" lon="7.24985">
        <ele>659</ele>
        <time>2018-05-11T03:05:59Z</time>
      </trkpt>
      <trkpt lat="43.85261" lon="7.24929">
        <ele>645</ele>
        <time>2018-05-11T03:06:59Z</time>
      </trkpt>
      <trkpt lat="43.85219" lon="7.24864">
        <ele>625</ele>
        <time>2018-05-11T03:07:59Z</time>
      </trkpt>
      <trkpt lat="43.8517" lon="7.2484">
        <ele>620</ele>
        <time>2018-05-11T03:08:59Z</time>
      </trkpt>
      <trkpt lat="43.85087" lon="7.24898">
        <ele>627</ele>
        <time>2018-05-11T03:09:59Z</time>
      </trkpt>
      <trkpt lat="43.85026" lon="7.24962">
        <ele>638</ele>
        <time>2018-05-11T03:10:59Z</time>
      </trkpt>
      <trkpt lat="43.84991" lon="7.25014">
        <ele>650</ele>
        <time>2018-05-11T03:11:59Z</time>
      </trkpt>
      <trkpt lat="43.84957" lon="7.24977">
        <ele>639</ele>
        <time>2018-05-11T03:12:59Z</time>
      </trkpt>
      <trkpt lat="43.84933" lon="7.24966">
        <ele>637</ele>
        <time>2018-05-11T03:13:59Z</time>
      </trkpt>
      <trkpt lat="43.84922" lon="7.24935">
        <ele>627</ele>
        <time>2018-05-11T03:14:59Z</time>
      </trkpt>
      <trkpt lat="43.84885" lon="7.24916">
        <ele>625</ele>
        <time>2018-05-11T03:15:59Z</time>
      </trkpt>
      <trkpt lat="43.84882" lon="7.24855">
        <ele>614</ele>
        <time>2018-05-11T03:16:59Z</time>
      </trkpt>
      <trkpt lat="43.8485" lon="7.24831">
        <ele>616</ele>
        <time>2018-05-11T03:17:59Z</time>
      </trkpt>
      <trkpt lat="43.84853" lon="7.24792">
        <ele>615</ele>
        <time>2018-05-11T03:18:59Z</time>
      </trkpt>
      <trkpt lat="43.84854" lon="7.24732">
        <ele>616</ele>
        <time>2018-05-11T03:19:59Z</time>
      </trkpt>
      <trkpt lat="43.84886" lon="7.24681">
        <ele>607</ele>
        <time>2018-05-11T03:20:59Z</time>
      </trkpt>
      <trkpt lat="43.84887" lon="7.24644">
        <ele>608</ele>
        <time>2018-05-11T03:21:59Z</time>
      </trkpt>
      <trkpt lat="43.84917" lon="7.24581">
        <ele>602</ele>
        <time>2018-05-11T03:22:59Z</time>
      </trkpt>
      <trkpt lat="43.84931" lon="7.24539">
        <ele>593</ele>
        <time>2018-05-11T03:23:59Z</time>
      </trkpt>
      <trkpt lat="43.84922" lon="7.24499">
        <ele>592</ele>
        <time>2018-05-11T03:24:59Z</time>
      </trkpt>
      <trkpt lat="43.84924" lon="7.24472">
        <ele>587</ele>
        <time>2018-05-11T03:25:59Z</time>
      </trkpt>
      <trkpt lat="43.84953" lon="7.24481">
        <ele>581</ele>
        <time>2018-05-11T03:26:59Z</time>
      </trkpt>
      <trkpt lat="43.84996" lon="7.24546">
        <ele>573</ele>
        <time>2018-05-11T03:27:59Z</time>
      </trkpt>
      <trkpt lat="43.8503" lon="7.24445">
        <ele>569</ele>
        <time>2018-05-11T03:28:59Z</time>
      </trkpt>
      <trkpt lat="43.85073" lon="7.24327">
        <ele>565</ele>
        <time>2018-05-11T03:29:59Z</time>
      </trkpt>
      <trkpt lat="43.85101" lon="7.24255">
        <ele>564</ele>
        <time>2018-05-11T03:30:59Z</time>
      </trkpt>
      <trkpt lat="43.85127" lon="7.24236">
        <ele>563</ele>
        <time>2018-05-11T03:31:59Z</time>
      </trkpt>
      <trkpt lat="43.85173" lon="7.24096">
        <ele>555</ele>
        <time>2018-05-11T03:32:59Z</time>
      </trkpt>
      <trkpt lat="43.85232" lon="7.23984">
        <ele>549</ele>
        <time>2018-05-11T03:33:59Z</time>
      </trkpt>
      <trkpt lat="43.85208" lon="7.23974">
        <ele>550</ele>
        <time>2018-05-11T03:34:59Z</time>
      </trkpt>
      <trkpt lat="43.85123" lon="7.23721">
        <ele>544</ele>
        <time>2018-05-11T03:35:59Z</time>
      </trkpt>
      <trkpt lat="43.85115" lon="7.23723">
        <ele>544</ele>
        <time>2018-05-11T03:36:59Z</time>
      </trkpt>
      <trkpt lat="43.85087" lon="7.23743">
        <ele>543</ele>
        <time>2018-05-11T03:37:59Z</time>
      </trkpt>
      <trkpt lat="43.85083" lon="7.23746">
        <ele>543</ele>
        <time>2018-05-11T03:38:59Z</time>
      </trkpt>
      <trkpt lat="43.85075" lon="7.23751">
        <ele>543</ele>
        <time>2018-05-11T03:39:59Z</time>
      </trkpt>
      <trkpt lat="43.85068" lon="7.23755">
        <ele>543</ele>
        <time>2018-05-11T03:40:59Z</time>
      </trkpt>
      <trkpt lat="43.85064" lon="7.23756">
        <ele>543</ele>
        <time>2018-05-11T03:41:59Z</time>
      </trkpt>
      <trkpt lat="43.85049" lon="7.23757">
        <ele>543</ele>
        <time>2018-05-11T03:42:59Z</time>
      </trkpt>
      <trkpt lat="43.85039" lon="7.23756">
        <ele>543</ele>
        <time>2018-05-11T03:43:59Z</time>
      </trkpt>
      <trkpt lat="43.85031" lon="7.23753">
        <ele>542</ele>
        <time>2018-05-11T03:44:59Z</time>
      </trkpt>
      <trkpt lat="43.8502" lon="7.23717">
        <ele>542</ele>
        <time>2018-05-11T03:45:59Z</time>
      </trkpt>
      <trkpt lat="43.8501" lon="7.23698">
        <ele>543</ele>
        <time>2018-05-11T03:46:59Z</time>
      </trkpt>
      <trkpt lat="43.84998" lon="7.23705">
        <ele>543</ele>
        <time>2018-05-11T03:47:59Z</time>
      </trkpt>
      <trkpt lat="43.84961" lon="7.23739">
        <ele>543</ele>
        <time>2018-05-11T03:48:59Z</time>
      </trkpt>
      <trkpt lat="43.84946" lon="7.23748">
        <ele>543</ele>
        <time>2018-05-11T03:49:59Z</time>
      </trkpt>
      <trkpt lat="43.84941" lon="7.23747">
        <ele>543</ele>
        <time>2018-05-11T03:50:59Z</time>
      </trkpt>
      <trkpt lat="43.84938" lon="7.23743">
        <ele>543</ele>
        <time>2018-05-11T03:51:59Z</time>
      </trkpt>
      <trkpt lat="43.84929" lon="7.23742">
        <ele>544</ele>
        <time>2018-05-11T03:52:59Z</time>
      </trkpt>
      <trkpt lat="43.84915" lon="7.23746">
        <ele>544</ele>
        <time>2018-05-11T03:53:59Z</time>
      </trkpt>
      <trkpt lat="43.84912" lon="7.23747">
        <ele>544</ele>
        <time>2018-05-11T03:54:59Z</time>
      </trkpt>
      <trkpt lat="43.84907" lon="7.2375">
        <ele>544</ele>
        <time>2018-05-11T03:55:59Z</time>
      </trkpt>
      <trkpt lat="43.84898" lon="7.2376">
        <ele>544</ele>
        <time>2018-05-11T03:56:59Z</time>
      </trkpt>
      <trkpt lat="43.84879" lon="7.23773">
        <ele>544</ele>
        <time>2018-05-11T03:57:59Z</time>
      </trkpt>
      <trkpt lat="43.84867" lon="7.23778">
        <ele>544</ele>
        <time>2018-05-11T03:58:59Z</time>
      </trkpt>
      <trkpt lat="43.84859" lon="7.23783">
        <ele>544</ele>
        <time>2018-05-11T03:59:59Z</time>
      </trkpt>
      <trkpt lat="43.84814" lon="7.23818">
        <ele>545</ele>
        <time>2018-05-11T04:00:59Z</time>
      </trkpt>
      <trkpt lat="43.84803" lon="7.23829">
        <ele>545</ele>
        <time>2018-05-11T04:01:59Z</time>
      </trkpt>
      <trkpt lat="43.84721" lon="7.23892">
        <ele>545</ele>
        <time>2018-05-11T04:02:59Z</time>
      </trkpt>
      <trkpt lat="43.84713" lon="7.23898">
        <ele>545</ele>
        <time>2018-05-11T04:03:59Z</time>
      </trkpt>
      <trkpt lat="43.846" lon="7.23983">
        <ele>541</ele>
        <time>2018-05-11T04:04:59Z</time>
      </trkpt>
      <trkpt lat="43.84588" lon="7.23986">
        <ele>541</ele>
        <time>2018-05-11T04:05:59Z</time>
      </trkpt>
      <trkpt lat="43.84579" lon="7.23984">
        <ele>541</ele>
        <time>2018-05-11T04:06:59Z</time>
      </trkpt>
      <trkpt lat="43.84551" lon="7.23973">
        <ele>540</ele>
        <time>2018-05-11T04:07:59Z</time>
      </trkpt>
      <trkpt lat="43.84514" lon="7.23956">
        <ele>541</ele>
        <time>2018-05-11T04:08:59Z</time>
      </trkpt>
      <trkpt lat="43.84506" lon="7.23952">
        <ele>541</ele>
        <time>2018-05-11T04:09:59Z</time>
      </trkpt>
      <trkpt lat="43.84468" lon="7.23913">
        <ele>545</ele>
        <time>2018-05-11T04:10:59Z</time>
      </trkpt>
      <trkpt lat="43.84461" lon="7.23908">
        <ele>546</ele>
        <time>2018-05-11T04:11:59Z</time>
      </trkpt>
      <trkpt lat="43.84448" lon="7.23904">
        <ele>547</ele>
        <time>2018-05-11T04:12:59Z</time>
      </trkpt>
      <trkpt lat="43.84441" lon="7.23904">
        <ele>548</ele>
        <time>2018-05-11T04:13:59Z</time>
      </trkpt>
      <trkpt lat="43.84434" lon="7.23905">
        <ele>549</ele>
        <time>2018-05-11T04:14:59Z</time>
      </trkpt>
      <trkpt lat="43.84433" lon="7.23905">
        <ele>549</ele>
        <time>2018-05-11T04:15:59Z</time>
      </trkpt>
      <trkpt lat="43.84429" lon="7.23901">
        <ele>549</ele>
        <time>2018-05-11T04:16:59Z</time>
      </trkpt>
      <trkpt lat="43.84427" lon="7.239">
        <ele>550</ele>
        <time>2018-05-11T04:17:59Z</time>
      </trkpt>
      <trkpt lat="43.84425" lon="7.23897">
        <ele>550</ele>
        <time>2018-05-11T04:18:59Z</time>
      </trkpt>
      <trkpt lat="43.84418" lon="7.23889">
        <ele>551</ele>
        <time>2018-05-11T04:19:59Z</time>
      </trkpt>
      <trkpt lat="43.84414" lon="7.23878">
        <ele>552</ele>
        <time>2018-05-11T04:20:59Z</time>
      </trkpt>
      <trkpt lat="43.84413" lon="7.23875">
        <ele>552</ele>
        <time>2018-05-11T04:21:59Z</time>
      </trkpt>
      <trkpt lat="43.84413" lon="7.23866">
        <ele>552</ele>
        <time>2018-05-11T04:22:59Z</time>
      </trkpt>
      <trkpt lat="43.84411" lon="7.23862">
        <ele>553</ele>
        <time>2018-05-11T04:23:59Z</time>
      </trkpt>
      <trkpt lat="43.84401" lon="7.2386">
        <ele>555</ele>
        <time>2018-05-11T04:24:59Z</time>
      </trkpt>
      <trkpt lat="43.84401" lon="7.23861">
        <ele>555</ele>
        <time>2018-05-11T04:25:59Z</time>
      </trkpt>
      <trkpt lat="43.84397" lon="7.23857">
        <ele>555</ele>
        <time>2018-05-11T04:26:59Z</time>
      </trkpt>
      <trkpt lat="43.84394" lon="7.23856">
        <ele>556</ele>
        <time>2018-05-11T04:27:59Z</time>
      </trkpt>
      <trkpt lat="43.84391" lon="7.23854">
        <ele>557</ele>
        <time>2018-05-11T04:28:59Z</time>
      </trkpt>
      <trkpt lat="43.8439" lon="7.23853">
        <ele>557</ele>
        <time>2018-05-11T04:29:59Z</time>
      </trkpt>
      <trkpt lat="43.8439" lon="7.23848">
        <ele>557</ele>
        <time>2018-05-11T04:30:59Z</time>
      </trkpt>
      <trkpt lat="43.84393" lon="7.23833">
        <ele>557</ele>
        <time>2018-05-11T04:31:59Z</time>
      </trkpt>
      <trkpt lat="43.84395" lon="7.2382">
        <ele>558</ele>
        <time>2018-05-11T04:32:59Z</time>
      </trkpt>
      <trkpt lat="43.8439" lon="7.23803">
        <ele>560</ele>
        <time>2018-05-11T04:33:59Z</time>
      </trkpt>
      <trkpt lat="43.84386" lon="7.23792">
        <ele>561</ele>
        <time>2018-05-11T04:34:59Z</time>
      </trkpt>
      <trkpt lat="43.84382" lon="7.23792">
        <ele>562</ele>
        <time>2018-05-11T04:35:59Z</time>
      </trkpt>
      <trkpt lat="43.84379" lon="7.23791">
        <ele>563</ele>
        <time>2018-05-11T04:36:59Z</time>
      </trkpt>
      <trkpt lat="43.8434" lon="7.23795">
        <ele>569</ele>
        <time>2018-05-11T04:37:59Z</time>
      </trkpt>
      <trkpt lat="43.84338" lon="7.23795">
        <ele>570</ele>
        <time>2018-05-11T04:38:59Z</time>
      </trkpt>
      <trkpt lat="43.84322" lon="7.2379">
        <ele>570</ele>
        <time>2018-05-11T04:39:59Z</time>
      </trkpt>
      <trkpt lat="43.8432" lon="7.23789">
        <ele>570</ele>
        <time>2018-05-11T04:40:59Z</time>
      </trkpt>
      <trkpt lat="43.84311" lon="7.23784">
        <ele>570</ele>
        <time>2018-05-11T04:41:59Z</time>
      </trkpt>
      <trkpt lat="43.84305" lon="7.23781">
        <ele>570</ele>
        <time>2018-05-11T04:42:59Z</time>
      </trkpt>
      <trkpt lat="43.84303" lon="7.23783">
        <ele>569</ele>
        <time>2018-05-11T04:43:59Z</time>
      </trkpt>
      <trkpt lat="43.843" lon="7.23788">
        <ele>569</ele>
        <time>2018-05-11T04:44:59Z</time>
      </trkpt>
      <trkpt lat="43.84294" lon="7.23784">
        <ele>569</ele>
        <time>2018-05-11T04:45:59Z</time>
      </trkpt>
      <trkpt lat="43.84277" lon="7.23769">
        <ele>568</ele>
        <time>2018-05-11T04:46:59Z</time>
      </trkpt>
      <trkpt lat="43.84262" lon="7.23759">
        <ele>566</ele>
        <time>2018-05-11T04:47:59Z</time>
      </trkpt>
      <trkpt lat="43.84239" lon="7.23737">
        <ele>564</ele>
        <time>2018-05-11T04:48:59Z</time>
      </trkpt>
      <trkpt lat="43.84233" lon="7.23732">
        <ele>564</ele>
        <time>2018-05-11T04:49:59Z</time>
      </trkpt>
      <trkpt lat="43.8423" lon="7.23727">
        <ele>564</ele>
        <time>2018-05-11T04:50:59Z</time>
      </trkpt>
      <trkpt lat="43.84223" lon="7.23719">
        <ele>563</ele>
        <time>2018-05-11T04:51:59Z</time>
      </trkpt>
      <trkpt lat="43.84219" lon="7.23715">
        <ele>563</ele>
        <time>2018-05-11T04:52:59Z</time>
      </trkpt>
      <trkpt lat="43.84209" lon="7.23705">
        <ele>562</ele>
        <time>2018-05-11T04:53:59Z</time>
      </trkpt>
      <trkpt lat="43.84201" lon="7.23698">
        <ele>562</ele>
        <time>2018-05-11T04:54:59Z</time>
      </trkpt>
      <trkpt lat="43.84191" lon="7.23691">
        <ele>560</ele>
        <time>2018-05-11T04:55:59Z</time>
      </trkpt>
      <trkpt lat="43.84185" lon="7.23686">
        <ele>560</ele>
        <time>2018-05-11T04:56:59Z</time>
      </trkpt>
      <trkpt lat="43.8418" lon="7.23682">
        <ele>559</ele>
        <time>2018-05-11T04:57:59Z</time>
      </trkpt>
      <trkpt lat="43.84141" lon="7.23662">
        <ele>561</ele>
        <time>2018-05-11T04:58:59Z</time>
      </trkpt>
      <trkpt lat="43.84136" lon="7.23659">
        <ele>562</ele>
        <time>2018-05-11T04:59:59Z</time>
      </trkpt>
      <trkpt lat="43.8412" lon="7.23654">
        <ele>564</ele>
        <time>2018-05-11T05:00:59Z</time>
      </trkpt>
      <trkpt lat="43.84114" lon="7.23652">
        <ele>565</ele>
        <time>2018-05-11T05:01:59Z</time>
      </trkpt>
      <trkpt lat="43.84106" lon="7.2365">
        <ele>566</ele>
        <time>2018-05-11T05:02:59Z</time>
      </trkpt>
      <trkpt lat="43.84102" lon="7.23655">
        <ele>566</ele>
        <time>2018-05-11T05:03:59Z</time>
      </trkpt>
      <trkpt lat="43.84098" lon="7.23664">
        <ele>566</ele>
        <time>2018-05-11T05:04:59Z</time>
      </trkpt>
      <trkpt lat="43.84096" lon="7.23671">
        <ele>566</ele>
        <time>2018-05-11T05:05:59Z</time>
      </trkpt>
      <trkpt lat="43.84097" lon="7.23691">
        <ele>566</ele>
        <time>2018-05-11T05:06:59Z</time>
      </trkpt>
      <trkpt lat="43.84097" lon="7.23694">
        <ele>566</ele>
        <time>2018-05-11T05:07:59Z</time>
      </trkpt>
      <trkpt lat="43.84096" lon="7.23719">
        <ele>567</ele>
        <time>2018-05-11T05:08:59Z</time>
      </trkpt>
      <trkpt lat="43.84096" lon="7.2372">
        <ele>567</ele>
        <time>2018-05-11T05:09:59Z</time>
      </trkpt>
      <trkpt lat="43.84093" lon="7.23722">
        <ele>567</ele>
        <time>2018-05-11T05:10:59Z</time>
      </trkpt>
      <trkpt lat="43.84092" lon="7.23723">
        <ele>567</ele>
        <time>2018-05-11T05:11:59Z</time>
      </trkpt>
      <trkpt lat="43.8409" lon="7.23729">
        <ele>568</ele>
        <time>2018-05-11T05:12:59Z</time>
      </trkpt>
      <trkpt lat="43.84089" lon="7.2373">
        <ele>568</ele>
        <time>2018-05-11T05:13:59Z</time>
      </trkpt>
      <trkpt lat="43.84088" lon="7.23731">
        <ele>568</ele>
        <time>2018-05-11T05:14:59Z</time>
      </trkpt>
      <trkpt lat="43.84088" lon="7.23731">
        <ele>568</ele>
        <time>2018-05-11T05:15:59Z</time>
      </trkpt>
      <trkpt lat="43.84087" lon="7.23731">
        <ele>568</ele>
        <time>2018-05-11T05:16:59Z</time>
      </trkpt>
      <trkpt lat="43.84086" lon="7.23731">
        <ele>568</ele>
        <time>2018-05-11T05:17:59Z</time>
      </trkpt>
      <trkpt lat="43.84085" lon="7.23732">
        <ele>569</ele>
        <time>2018-05-11T05:18:59Z</time>
      </trkpt>
      <trkpt lat="43.84068" lon="7.23729">
        <ele>572</ele>
        <time>2018-05-11T05:19:59Z</time>
      </trkpt>
      <trkpt lat="43.84066" lon="7.23728">
        <ele>572</ele>
        <time>2018-05-11T05:20:59Z</time>
      </trkpt>
      <trkpt lat="43.84052" lon="7.23721">
        <ele>575</ele>
        <time>2018-05-11T05:21:59Z</time>
      </trkpt>
      <trkpt lat="43.84048" lon="7.23719">
        <ele>576</ele>
        <time>2018-05-11T05:22:59Z</time>
      </trkpt>
      <trkpt lat="43.84042" lon="7.23719">
        <ele>577</ele>
        <time>2018-05-11T05:23:59Z</time>
      </trkpt>
      <trkpt lat="43.84029" lon="7.23721">
        <ele>580</ele>
        <time>2018-05-11T05:24:59Z</time>
      </trkpt>
      <trkpt lat="43.84026" lon="7.23721">
        <ele>581</ele>
        <time>2018-05-11T05:25:59Z</time>
      </trkpt>
      <trkpt lat="43.84023" lon="7.23722">
        <ele>581</ele>
        <time>2018-05-11T05:26:59Z</time>
      </trkpt>
      <trkpt lat="43.84018" lon="7.23726">
        <ele>582</ele>
        <time>2018-05-11T05:27:59Z</time>
      </trkpt>
      <trkpt lat="43.84015" lon="7.23726">
        <ele>583</ele>
        <time>2018-05-11T05:28:59Z</time>
      </trkpt>
      <trkpt lat="43.8401" lon="7.23726">
        <ele>584</ele>
        <time>2018-05-11T05:29:59Z</time>
      </trkpt>
      <trkpt lat="43.84007" lon="7.23724">
        <ele>585</ele>
        <time>2018-05-11T05:30:59Z</time>
      </trkpt>
      <trkpt lat="43.84005" lon="7.23723">
        <ele>585</ele>
        <time>2018-05-11T05:31:59Z</time>
      </trkpt>
      <trkpt lat="43.83993" lon="7.23717">
        <ele>586</ele>
        <time>2018-05-11T05:32:59Z</time>
      </trkpt>
      <trkpt lat="43.83989" lon="7.23716">
        <ele>586</ele>
        <time>2018-05-11T05:33:59Z</time>
      </trkpt>
      <trkpt lat="43.83981" lon="7.23716">
        <ele>585</ele>
        <time>2018-05-11T05:34:59Z</time>
      </trkpt>
      <trkpt lat="43.83978" lon="7.23716">
        <ele>585</ele>
        <time>2018-05-11T05:35:59Z</time>
      </trkpt>
      <trkpt lat="43.83972" lon="7.23716">
        <ele>585</ele>
        <time>2018-05-11T05:36:59Z</time>
      </trkpt>
      <trkpt lat="43.83959" lon="7.23722">
        <ele>584</ele>
        <time>2018-05-11T05:37:59Z</time>
      </trkpt>
      <trkpt lat="43.83954" lon="7.23723">
        <ele>583</ele>
        <time>2018-05-11T05:38:59Z</time>
      </trkpt>
      <trkpt lat="43.83936" lon="7.23733">
        <ele>582</ele>
        <time>2018-05-11T05:39:59Z</time>
      </trkpt>
      <trkpt lat="43.83925" lon="7.23737">
        <ele>581</ele>
        <time>2018-05-11T05:40:59Z</time>
      </trkpt>
      <trkpt lat="43.83921" lon="7.23738">
        <ele>581</ele>
        <time>2018-05-11T05:41:59Z</time>
      </trkpt>
      <trkpt lat="43.83917" lon="7.23738">
        <ele>581</ele>
        <time>2018-05-11T05:42:59Z</time>
      </trkpt>
      <trkpt lat="43.8391" lon="7.23735">
        <ele>578</ele>
        <time>2018-05-11T05:43:59Z</time>
      </trkpt>
      <trkpt lat="43.83906" lon="7.23726">
        <ele>577</ele>
        <time>2018-05-11T05:44:59Z</time>
      </trkpt>
      <trkpt lat="43.83903" lon="7.23721">
        <ele>576</ele>
        <time>2018-05-11T05:45:59Z</time>
      </trkpt>
      <trkpt lat="43.839" lon="7.23722">
        <ele>575</ele>
        <time>2018-05-11T05:46:59Z</time>
      </trkpt>
      <trkpt lat="43.83894" lon="7.23724">
        <ele>573</ele>
        <time>2018-05-11T05:47:59Z</time>
      </trkpt>
      <trkpt lat="43.83883" lon="7.23729">
        <ele>569</ele>
        <time>2018-05-11T05:48:59Z</time>
      </trkpt>
      <trkpt lat="43.83878" lon="7.23732">
        <ele>567</ele>
        <time>2018-05-11T05:49:59Z</time>
      </trkpt>
      <trkpt lat="43.83871" lon="7.23733">
        <ele>564</ele>
        <time>2018-05-11T05:50:59Z</time>
      </trkpt>
      <trkpt lat="43.83869" lon="7.23733">
        <ele>564</ele>
        <time>2018-05-11T05:51:59Z</time>
      </trkpt>
      <trkpt lat="43.83867" lon="7.23732">
        <ele>563</ele>
        <time>2018-05-11T05:52:59Z</time>
      </trkpt>
      <trkpt lat="43.83863" lon="7.23731">
        <ele>561</ele>
        <time>2018-05-11T05:53:59Z</time>
      </trkpt>
      <trkpt lat="43.83861" lon="7.23733">
        <ele>561</ele>
        <time>2018-05-11T05:54:59Z</time>
      </trkpt>
      <trkpt lat="43.83859" lon="7.23734">
        <ele>560</ele>
        <time>2018-05-11T05:55:59Z</time>
      </trkpt>
      <trkpt lat="43.83849" lon="7.23735">
        <ele>556</ele>
        <time>2018-05-11T05:56:59Z</time>
      </trkpt>
      <trkpt lat="43.83846" lon="7.23736">
        <ele>555</ele>
        <time>2018-05-11T05:57:59Z</time>
      </trkpt>
      <trkpt lat="43.83839" lon="7.23741">
        <ele>553</ele>
        <time>2018-05-11T05:58:59Z</time>
      </trkpt>
      <trkpt lat="43.83832" lon="7.23746">
        <ele>550</ele>
        <time>2018-05-11T05:59:59Z</time>
      </trkpt>
      <trkpt lat="43.83818" lon="7.2376">
        <ele>548</ele>
        <time>2018-05-11T06:00:59Z</time>
      </trkpt>
      <trkpt lat="43.83813" lon="7.23766">
        <ele>547</ele>
        <time>2018-05-11T06:01:59Z</time>
      </trkpt>
      <trkpt lat="43.83804" lon="7.23779">
        <ele>547</ele>
        <time>2018-05-11T06:02:59Z</time>
      </trkpt>
      <trkpt lat="43.83793" lon="7.23801">
        <ele>547</ele>
        <time>2018-05-11T06:03:59Z</time>
      </trkpt>
      <trkpt lat="43.8379" lon="7.23806">
        <ele>548</ele>
        <time>2018-05-11T06:04:59Z</time>
      </trkpt>
      <trkpt lat="43.83781" lon="7.23825">
        <ele>549</ele>
        <time>2018-05-11T06:05:59Z</time>
      </trkpt>
      <trkpt lat="43.83778" lon="7.23832">
        <ele>549</ele>
        <time>2018-05-11T06:06:59Z</time>
      </trkpt>
      <trkpt lat="43.83769" lon="7.23841">
        <ele>549</ele>
        <time>2018-05-11T06:07:59Z</time>
      </trkpt>
      <trkpt lat="43.83764" lon="7.23844">
        <ele>548</ele>
        <time>2018-05-11T06:08:59Z</time>
      </trkpt>
      <trkpt lat="43.8376" lon="7.23846">
        <ele>547</ele>
        <time>2018-05-11T06:09:59Z</time>
      </trkpt>
      <trkpt lat="43.83755" lon="7.23846">
        <ele>546</ele>
        <time>2018-05-11T06:10:59Z</time>
      </trkpt>
      <trkpt lat="43.83747" lon="7.23845">
        <ele>543</ele>
        <time>2018-05-11T06:11:59Z</time>
      </trkpt>
      <trkpt lat="43.83738" lon="7.23844">
        <ele>540</ele>
        <time>2018-05-11T06:12:59Z</time>
      </trkpt>
      <trkpt lat="43.83731" lon="7.23845">
        <ele>539</ele>
        <time>2018-05-11T06:13:59Z</time>
      </trkpt>
      <trkpt lat="43.83722" lon="7.23844">
        <ele>536</ele>
        <time>2018-05-11T06:14:59Z</time>
      </trkpt>
      <trkpt lat="43.83722" lon="7.23843">
        <ele>536</ele>
        <time>2018-05-11T06:15:59Z</time>
      </trkpt>
      <trkpt lat="43.83721" lon="7.23843">
        <ele>535</ele>
        <time>2018-05-11T06:16:59Z</time>
      </trkpt>
      <trkpt lat="43.83718" lon="7.23845">
        <ele>535</ele>
        <time>2018-05-11T06:17:59Z</time>
      </trkpt>
      <trkpt lat="43.83716" lon="7.23845">
        <ele>535</ele>
        <time>2018-05-11T06:18:59Z</time>
      </trkpt>
      <trkpt lat="43.83715" lon="7.23843">
        <ele>534</ele>
        <time>2018-05-11T06:19:59Z</time>
      </trkpt>
      <trkpt lat="43.83713" lon="7.23839">
        <ele>532</ele>
        <time>2018-05-11T06:20:59Z</time>
      </trkpt>
      <trkpt lat="43.83713" lon="7.23833">
        <ele>530</ele>
        <time>2018-05-11T06:21:59Z</time>
      </trkpt>
      <trkpt lat="43.83712" lon="7.23831">
        <ele>529</ele>
        <time>2018-05-11T06:22:59Z</time>
      </trkpt>
      <trkpt lat="43.8371" lon="7.23829">
        <ele>528</ele>
        <time>2018-05-11T06:23:59Z</time>
      </trkpt>
      <trkpt lat="43.83708" lon="7.23829">
        <ele>527</ele>
        <time>2018-05-11T06:24:59Z</time>
      </trkpt>
      <trkpt lat="43.83704" lon="7.2383">
        <ele>527</ele>
        <time>2018-05-11T06:25:59Z</time>
      </trkpt>
      <trkpt lat="43.83703" lon="7.23829">
        <ele>526</ele>
        <time>2018-05-11T06:26:59Z</time>
      </trkpt>
      <trkpt lat="43.83702" lon="7.23826">
        <ele>525</ele>
        <time>2018-05-11T06:27:59Z</time>
      </trkpt>
      <trkpt lat="43.83704" lon="7.23824">
        <ele>525</ele>
        <time>2018-05-11T06:28:59Z</time>
      </trkpt>
      <trkpt lat="43.83706" lon="7.23819">
        <ele>525</ele>
        <time>2018-05-11T06:29:59Z</time>
      </trkpt>
      <trkpt lat="43.83703" lon="7.2382">
        <ele>524</ele>
        <time>2018-05-11T06:30:59Z</time>
      </trkpt>
      <trkpt lat="43.837" lon="7.2382">
        <ele>523</ele>
        <time>2018-05-11T06:31:59Z</time>
      </trkpt>
      <trkpt lat="43.83698" lon="7.23817">
        <ele>522</ele>
        <time>2018-05-11T06:32:59Z</time>
      </trkpt>
      <trkpt lat="43.83697" lon="7.23813">
        <ele>521</ele>
        <time>2018-05-11T06:33:59Z</time>
      </trkpt>
      <trkpt lat="43.83696" lon="7.23807">
        <ele>520</ele>
        <time>2018-05-11T06:34:59Z</time>
      </trkpt>
      <trkpt lat="43.83697" lon="7.23806">
        <ele>520</ele>
        <time>2018-05-11T06:35:59Z</time>
      </trkpt>
      <trkpt lat="43.83702" lon="7.23803">
        <ele>520</ele>
        <time>2018-05-11T06:36:59Z</time>
      </trkpt>
      <trkpt lat="43.83702" lon="7.23802">
        <ele>520</ele>
        <time>2018-05-11T06:37:59Z</time>
      </trkpt>
      <trkpt lat="43.837" lon="7.238">
        <ele>519</ele>
        <time>2018-05-11T06:38:59Z</time>
      </trkpt>
      <trkpt lat="43.83699" lon="7.23796">
        <ele>518</ele>
        <time>2018-05-11T06:39:59Z</time>
      </trkpt>
      <trkpt lat="43.83698" lon="7.23795">
        <ele>517</ele>
        <time>2018-05-11T06:40:59Z</time>
      </trkpt>
      <trkpt lat="43.8369" lon="7.23791">
        <ele>515</ele>
        <time>2018-05-11T06:41:59Z</time>
      </trkpt>
      <trkpt lat="43.83688" lon="7.23791">
        <ele>514</ele>
        <time>2018-05-11T06:42:59Z</time>
      </trkpt>
      <trkpt lat="43.83682" lon="7.23796">
        <ele>513</ele>
        <time>2018-05-11T06:43:59Z</time>
      </trkpt>
      <trkpt lat="43.83679" lon="7.23799">
        <ele>513</ele>
        <time>2018-05-11T06:44:59Z</time>
      </trkpt>
      <trkpt lat="43.83671" lon="7.238">
        <ele>511</ele>
        <time>2018-05-11T06:45:59Z</time>
      </trkpt>
      <trkpt lat="43.83666" lon="7.23797">
        <ele>509</ele>
        <time>2018-05-11T06:46:59Z</time>
      </trkpt>
      <trkpt lat="43.83664" lon="7.23796">
        <ele>509</ele>
        <time>2018-05-11T06:47:59Z</time>
      </trkpt>
      <trkpt lat="43.83664" lon="7.23794">
        <ele>508</ele>
        <time>2018-05-11T06:48:59Z</time>
      </trkpt>
      <trkpt lat="43.8366" lon="7.23788">
        <ele>506</ele>
        <time>2018-05-11T06:49:59Z</time>
      </trkpt>
      <trkpt lat="43.83656" lon="7.23779">
        <ele>502</ele>
        <time>2018-05-11T06:50:59Z</time>
      </trkpt>
      <trkpt lat="43.83652" lon="7.23763">
        <ele>498</ele>
        <time>2018-05-11T06:51:59Z</time>
      </trkpt>
      <trkpt lat="43.83651" lon="7.23762">
        <ele>497</ele>
        <time>2018-05-11T06:52:59Z</time>
      </trkpt>
      <trkpt lat="43.8365" lon="7.23762">
        <ele>497</ele>
        <time>2018-05-11T06:53:59Z</time>
      </trkpt>
      <trkpt lat="43.83647" lon="7.23763">
        <ele>496</ele>
        <time>2018-05-11T06:54:59Z</time>
      </trkpt>
      <trkpt lat="43.83645" lon="7.23765">
        <ele>496</ele>
        <time>2018-05-11T06:55:59Z</time>
      </trkpt>
      <trkpt lat="43.83637" lon="7.23771">
        <ele>494</ele>
        <time>2018-05-11T06:56:59Z</time>
      </trkpt>
      <trkpt lat="43.83625" lon="7.23778">
        <ele>492</ele>
        <time>2018-05-11T06:57:59Z</time>
      </trkpt>
      <trkpt lat="43.83616" lon="7.23781">
        <ele>489</ele>
        <time>2018-05-11T06:58:59Z</time>
      </trkpt>
      <trkpt lat="43.83607" lon="7.23788">
        <ele>488</ele>
        <time>2018-05-11T06:59:59Z</time>
      </trkpt>
      <trkpt lat="43.83603" lon="7.23791">
        <ele>487</ele>
        <time>2018-05-11T07:00:59Z</time>
      </trkpt>
      <trkpt lat="43.83585" lon="7.23817">
        <ele>488</ele>
        <time>2018-05-11T07:01:59Z</time>
      </trkpt>
      <trkpt lat="43.83577" lon="7.2383">
        <ele>487</ele>
        <time>2018-05-11T07:02:59Z</time>
      </trkpt>
      <trkpt lat="43.83567" lon="7.23848">
        <ele>488</ele>
        <time>2018-05-11T07:03:59Z</time>
      </trkpt>
      <trkpt lat="43.83557" lon="7.23875">
        <ele>492</ele>
        <time>2018-05-11T07:04:59Z</time>
      </trkpt>
      <trkpt lat="43.83554" lon="7.23882">
        <ele>493</ele>
        <time>2018-05-11T07:05:59Z</time>
      </trkpt>
      <trkpt lat="43.83551" lon="7.23886">
        <ele>493</ele>
        <time>2018-05-11T07:06:59Z</time>
      </trkpt>
      <trkpt lat="43.83546" lon="7.23892">
        <ele>493</ele>
        <time>2018-05-11T07:07:59Z</time>
      </trkpt>
      <trkpt lat="43.83544" lon="7.23898">
        <ele>494</ele>
        <time>2018-05-11T07:08:59Z</time>
      </trkpt>
      <trkpt lat="43.83533" lon="7.23919">
        <ele>496</ele>
        <time>2018-05-11T07:09:59Z</time>
      </trkpt>
      <trkpt lat="43.83524" lon="7.23945">
        <ele>498</ele>
        <time>2018-05-11T07:10:59Z</time>
      </trkpt>
      <trkpt lat="43.83523" lon="7.23947">
        <ele>498</ele>
        <time>2018-05-11T07:11:59Z</time>
      </trkpt>
      <trkpt lat="43.83519" lon="7.23953">
        <ele>498</ele>
        <time>2018-05-11T07:12:59Z</time>
      </trkpt>
      <trkpt lat="43.83517" lon="7.23958">
        <ele>498</ele>
        <time>2018-05-11T07:13:59Z</time>
      </trkpt>
      <trkpt lat="43.83504" lon="7.23974">
        <ele>497</ele>
        <time>2018-05-11T07:14:59Z</time>
      </trkpt>
      <trkpt lat="43.83495" lon="7.23985">
        <ele>496</ele>
        <time>2018-05-11T07:15:59Z</time>
      </trkpt>
      <trkpt lat="43.83489" lon="7.23991">
        <ele>495</ele>
        <time>2018-05-11T07:16:59Z</time>
      </trkpt>
      <trkpt lat="43.83474" lon="7.24007">
        <ele>491</ele>
        <time>2018-05-11T07:17:59Z</time>
      </trkpt>
      <trkpt lat="43.83465" lon="7.2403">
        <ele>487</ele>
        <time>2018-05-11T07:18:59Z</time>
      </trkpt>
      <trkpt lat="43.83464" lon="7.24035">
        <ele>487</ele>
        <time>2018-05-11T07:19:59Z</time>
      </trkpt>
      <trkpt lat="43.83468" lon="7.24059">
        <ele>490</ele>
        <time>2018-05-11T07:20:59Z</time>
      </trkpt>
      <trkpt lat="43.83472" lon="7.24072">
        <ele>492</ele>
        <time>2018-05-11T07:21:59Z</time>
      </trkpt>
      <trkpt lat="43.83474" lon="7.24078">
        <ele>494</ele>
        <time>2018-05-11T07:22:59Z</time>
      </trkpt>
      <trkpt lat="43.8348" lon="7.24088">
        <ele>496</ele>
        <time>2018-05-11T07:23:59Z</time>
      </trkpt>
      <trkpt lat="43.83487" lon="7.24097">
        <ele>498</ele>
        <time>2018-05-11T07:24:59Z</time>
      </trkpt>
      <trkpt lat="43.8349" lon="7.24102">
        <ele>499</ele>
        <time>2018-05-11T07:25:59Z</time>
      </trkpt>
      <trkpt lat="43.83493" lon="7.24105">
        <ele>500</ele>
        <time>2018-05-11T07:26:59Z</time>
      </trkpt>
      <trkpt lat="43.83495" lon="7.24108">
        <ele>500</ele>
        <time>2018-05-11T07:27:59Z</time>
      </trkpt>
      <trkpt lat="43.8351" lon="7.24128">
        <ele>503</ele>
        <time>2018-05-11T07:28:59Z</time>
      </trkpt>
      <trkpt lat="43.83515" lon="7.24132">
        <ele>505</ele>
        <time>2018-05-11T07:29:59Z</time>
      </trkpt>
      <trkpt lat="43.8352" lon="7.2414">
        <ele>506</ele>
        <time>2018-05-11T07:30:59Z</time>
      </trkpt>
      <trkpt lat="43.83525" lon="7.24146">
        <ele>507</ele>
        <time>2018-05-11T07:31:59Z</time>
      </trkpt>
      <trkpt lat="43.83528" lon="7.24153">
        <ele>507</ele>
        <time>2018-05-11T07:32:59Z</time>
      </trkpt>
      <trkpt lat="43.83529" lon="7.24154">
        <ele>507</ele>
        <time>2018-05-11T07:33:59Z</time>
      </trkpt>
      <trkpt lat="43.83538" lon="7.24164">
        <ele>510</ele>
        <time>2018-05-11T07:34:59Z</time>
      </trkpt>
      <trkpt lat="43.83543" lon="7.24169">
        <ele>511</ele>
        <time>2018-05-11T07:35:59Z</time>
      </trkpt>
      <trkpt lat="43.83545" lon="7.24171">
        <ele>512</ele>
        <time>2018-05-11T07:36:59Z</time>
      </trkpt>
      <trkpt lat="43.83555" lon="7.24175">
        <ele>517</ele>
        <time>2018-05-11T07:37:59Z</time>
      </trkpt>
      <trkpt lat="43.83563" lon="7.24178">
        <ele>520</ele>
        <time>2018-05-11T07:38:59Z</time>
      </trkpt>
      <trkpt lat="43.83566" lon="7.24179">
        <ele>522</ele>
        <time>2018-05-11T07:39:59Z</time>
      </trkpt>
      <trkpt lat="43.83568" lon="7.2418">
        <ele>523</ele>
        <time>2018-05-11T07:40:59Z</time>
      </trkpt>
      <trkpt lat="43.83569" lon="7.24181">
        <ele>523</ele>
        <time>2018-05-11T07:41:59Z</time>
      </trkpt>
      <trkpt lat="43.83578" lon="7.24182">
        <ele>528</ele>
        <time>2018-05-11T07:42:59Z</time>
      </trkpt>
      <trkpt lat="43.83585" lon="7.24179">
        <ele>532</ele>
        <time>2018-05-11T07:43:59Z</time>
      </trkpt>
      <trkpt lat="43.83592" lon="7.24181">
        <ele>535</ele>
        <time>2018-05-11T07:44:59Z</time>
      </trkpt>
      <trkpt lat="43.83594" lon="7.24182">
        <ele>536</ele>
        <time>2018-05-11T07:45:59Z</time>
      </trkpt>
      <trkpt lat="43.836" lon="7.24183">
        <ele>539</ele>
        <time>2018-05-11T07:46:59Z</time>
      </trkpt>
      <trkpt lat="43.83601" lon="7.24183">
        <ele>540</ele>
        <time>2018-05-11T07:47:59Z</time>
      </trkpt>
      <trkpt lat="43.83602" lon="7.24194">
        <ele>539</ele>
        <time>2018-05-11T07:48:59Z</time>
      </trkpt>
      <trkpt lat="43.83601" lon="7.24197">
        <ele>539</ele>
        <time>2018-05-11T07:49:59Z</time>
      </trkpt>
      <trkpt lat="43.83598" lon="7.24201">
        <ele>537</ele>
        <time>2018-05-11T07:50:59Z</time>
      </trkpt>
      <trkpt lat="43.83592" lon="7.24208">
        <ele>533</ele>
        <time>2018-05-11T07:51:59Z</time>
      </trkpt>
      <trkpt lat="43.83583" lon="7.24232">
        <ele>526</ele>
        <time>2018-05-11T07:52:59Z</time>
      </trkpt>
      <trkpt lat="43.83581" lon="7.24251">
        <ele>523</ele>
        <time>2018-05-11T07:53:59Z</time>
      </trkpt>
      <trkpt lat="43.8358" lon="7.24264">
        <ele>523</ele>
        <time>2018-05-11T07:54:59Z</time>
      </trkpt>
      <trkpt lat="43.83581" lon="7.24274">
        <ele>524</ele>
        <time>2018-05-11T07:55:59Z</time>
      </trkpt>
      <trkpt lat="43.83581" lon="7.24277">
        <ele>524</ele>
        <time>2018-05-11T07:56:59Z</time>
      </trkpt>
      <trkpt lat="43.83583" lon="7.24287">
        <ele>526</ele>
        <time>2018-05-11T07:57:59Z</time>
      </trkpt>
      <trkpt lat="43.83586" lon="7.24294">
        <ele>528</ele>
        <time>2018-05-11T07:58:59Z</time>
      </trkpt>
      <trkpt lat="43.83586" lon="7.243">
        <ele>528</ele>
        <time>2018-05-11T07:59:59Z</time>
      </trkpt>
      <trkpt lat="43.83587" lon="7.24307">
        <ele>529</ele>
        <time>2018-05-11T08:00:59Z</time>
      </trkpt>
      <trkpt lat="43.8359" lon="7.24314">
        <ele>531</ele>
        <time>2018-05-11T08:01:59Z</time>
      </trkpt>
      <trkpt lat="43.83594" lon="7.24323">
        <ele>533</ele>
        <time>2018-05-11T08:02:59Z</time>
      </trkpt>
      <trkpt lat="43.83599" lon="7.24333">
        <ele>536</ele>
        <time>2018-05-11T08:03:59Z</time>
      </trkpt>
      <trkpt lat="43.83603" lon="7.24341">
        <ele>539</ele>
        <time>2018-05-11T08:04:59Z</time>
      </trkpt>
      <trkpt lat="43.83601" lon="7.24351">
        <ele>538</ele>
        <time>2018-05-11T08:05:59Z</time>
      </trkpt>
      <trkpt lat="43.83595" lon="7.24363">
        <ele>536</ele>
        <time>2018-05-11T08:06:59Z</time>
      </trkpt>
      <trkpt lat="43.83594" lon="7.24368">
        <ele>535</ele>
        <time>2018-05-11T08:07:59Z</time>
      </trkpt>
      <trkpt lat="43.83595" lon="7.24376">
        <ele>536</ele>
        <time>2018-05-11T08:08:59Z</time>
      </trkpt>
      <trkpt lat="43.83593" lon="7.24384">
        <ele>536</ele>
        <time>2018-05-11T08:09:59Z</time>
      </trkpt>
      <trkpt lat="43.83585" lon="7.24403">
        <ele>534</ele>
        <time>2018-05-11T08:10:59Z</time>
      </trkpt>
      <trkpt lat="43.83582" lon="7.24418">
        <ele>533</ele>
        <time>2018-05-11T08:11:59Z</time>
      </trkpt>
      <trkpt lat="43.83581" lon="7.24435">
        <ele>533</ele>
        <time>2018-05-11T08:12:59Z</time>
      </trkpt>
      <trkpt lat="43.83583" lon="7.24443">
        <ele>534</ele>
        <time>2018-05-11T08:13:59Z</time>
      </trkpt>
      <trkpt lat="43.83588" lon="7.24455">
        <ele>535</ele>
        <time>2018-05-11T08:14:59Z</time>
      </trkpt>
      <trkpt lat="43.83593" lon="7.24477">
        <ele>536</ele>
        <time>2018-05-11T08:15:59Z</time>
      </trkpt>
      <trkpt lat="43.83592" lon="7.24485">
        <ele>536</ele>
        <time>2018-05-11T08:16:59Z</time>
      </trkpt>
      <trkpt lat="43.83587" lon="7.24502">
        <ele>534</ele>
        <time>2018-05-11T08:17:59Z</time>
      </trkpt>
      <trkpt lat="43.83583" lon="7.24536">
        <ele>532</ele>
        <time>2018-05-11T08:18:59Z</time>
      </trkpt>
      <trkpt lat="43.83581" lon="7.24552">
        <ele>531</ele>
        <time>2018-05-11T08:19:59Z</time>
      </trkpt>
      <trkpt lat="43.83577" lon="7.24571">
        <ele>529</ele>
        <time>2018-05-11T08:20:59Z</time>
      </trkpt>
      <trkpt lat="43.83572" lon="7.24599">
        <ele>526</ele>
        <time>2018-05-11T08:21:59Z</time>
      </trkpt>
      <trkpt lat="43.83559" lon="7.2462">
        <ele>523</ele>
        <time>2018-05-11T08:22:59Z</time>
      </trkpt>
      <trkpt lat="43.83556" lon="7.24624">
        <ele>522</ele>
        <time>2018-05-11T08:23:59Z</time>
      </trkpt>
      <trkpt lat="43.83554" lon="7.24629">
        <ele>521</ele>
        <time>2018-05-11T08:24:59Z</time>
      </trkpt>
      <trkpt lat="43.83553" lon="7.2463">
        <ele>521</ele>
        <time>2018-05-11T08:25:59Z</time>
      </trkpt>
      <trkpt lat="43.83552" lon="7.24636">
        <ele>520</ele>
        <time>2018-05-11T08:26:59Z</time>
      </trkpt>
      <trkpt lat="43.8355" lon="7.2464">
        <ele>520</ele>
        <time>2018-05-11T08:27:59Z</time>
      </trkpt>
      <trkpt lat="43.83519" lon="7.24661">
        <ele>517</ele>
        <time>2018-05-11T08:28:59Z</time>
      </trkpt>
      <trkpt lat="43.83514" lon="7.24665">
        <ele>516</ele>
        <time>2018-05-11T08:29:59Z</time>
      </trkpt>
      <trkpt lat="43.83488" lon="7.24678">
        <ele>514</ele>
        <time>2018-05-11T08:30:59Z</time>
      </trkpt>
      <trkpt lat="43.83481" lon="7.24683">
        <ele>514</ele>
        <time>2018-05-11T08:31:59Z</time>
      </trkpt>
      <trkpt lat="43.83468" lon="7.24693">
        <ele>513</ele>
        <time>2018-05-11T08:32:59Z</time>
      </trkpt>
      <trkpt lat="43.83456" lon="7.24702">
        <ele>513</ele>
        <time>2018-05-11T08:33:59Z</time>
      </trkpt>
      <trkpt lat="43.8345" lon="7.24707">
        <ele>514</ele>
        <time>2018-05-11T08:34:59Z</time>
      </trkpt>
      <trkpt lat="43.83438" lon="7.24713">
        <ele>515</ele>
        <time>2018-05-11T08:35:59Z</time>
      </trkpt>
      <trkpt lat="43.83425" lon="7.2472">
        <ele>516</ele>
        <time>2018-05-11T08:36:59Z</time>
      </trkpt>
      <trkpt lat="43.83397" lon="7.24729">
        <ele>515</ele>
        <time>2018-05-11T08:37:59Z</time>
      </trkpt>
      <trkpt lat="43.83382" lon="7.2473">
        <ele>513</ele>
        <time>2018-05-11T08:38:59Z</time>
      </trkpt>
      <trkpt lat="43.83361" lon="7.24729">
        <ele>509</ele>
        <time>2018-05-11T08:39:59Z</time>
      </trkpt>
      <trkpt lat="43.83335" lon="7.24738">
        <ele>508</ele>
        <time>2018-05-11T08:40:59Z</time>
      </trkpt>
      <trkpt lat="43.83309" lon="7.24752">
        <ele>512</ele>
        <time>2018-05-11T08:41:59Z</time>
      </trkpt>
      <trkpt lat="43.83299" lon="7.24755">
        <ele>512</ele>
        <time>2018-05-11T08:42:59Z</time>
      </trkpt>
      <trkpt lat="43.8327" lon="7.24763">
        <ele>514</ele>
        <time>2018-05-11T08:43:59Z</time>
      </trkpt>
      <trkpt lat="43.83255" lon="7.24768">
        <ele>516</ele>
        <time>2018-05-11T08:44:59Z</time>
      </trkpt>
      <trkpt lat="43.83245" lon="7.2477">
        <ele>516</ele>
        <time>2018-05-11T08:45:59Z</time>
      </trkpt>
      <trkpt lat="43.83232" lon="7.24772">
        <ele>516</ele>
        <time>2018-05-11T08:46:59Z</time>
      </trkpt>
      <trkpt lat="43.83224" lon="7.24775">
        <ele>516</ele>
        <time>2018-05-11T08:47:59Z</time>
      </trkpt>
      <trkpt lat="43.83211" lon="7.24778">
        <ele>516</ele>
        <time>2018-05-11T08:48:59Z</time>
      </trkpt>
      <trkpt lat="43.83188" lon="7.24787">
        <ele>518</ele>
        <time>2018-05-11T08:49:59Z</time>
      </trkpt>
      <trkpt lat="43.83182" lon="7.24789">
        <ele>519</ele>
        <time>2018-05-11T08:50:59Z</time>
      </trkpt>
      <trkpt lat="43.8317" lon="7.24798">
        <ele>521</ele>
        <time>2018-05-11T08:51:59Z</time>
      </trkpt>
      <trkpt lat="43.83168" lon="7.248">
        <ele>522</ele>
        <time>2018-05-11T08:52:59Z</time>
      </trkpt>
      <trkpt lat="43.83158" lon="7.24809">
        <ele>525</ele>
        <time>2018-05-11T08:53:59Z</time>
      </trkpt>
      <trkpt lat="43.8315" lon="7.24816">
        <ele>527</ele>
        <time>2018-05-11T08:54:59Z</time>
      </trkpt>
      <trkpt lat="43.83143" lon="7.24822">
        <ele>528</ele>
        <time>2018-05-11T08:55:59Z</time>
      </trkpt>
      <trkpt lat="43.83133" lon="7.2483">
        <ele>530</ele>
        <time>2018-05-11T08:56:59Z</time>
      </trkpt>
      <trkpt lat="43.83124" lon="7.24834">
        <ele>530</ele>
        <time>2018-05-11T08:57:59Z</time>
      </trkpt>
      <trkpt lat="43.83114" lon="7.24837">
        <ele>529</ele>
        <time>2018-05-11T08:58:59Z</time>
      </trkpt>
      <trkpt lat="43.83101" lon="7.24842">
        <ele>529</ele>
        <time>2018-05-11T08:59:59Z</time>
      </trkpt>
      <trkpt lat="43.83077" lon="7.24846">
        <ele>527</ele>
        <time>2018-05-11T09:00:59Z</time>
      </trkpt>
      <trkpt lat="43.83061" lon="7.24852">
        <ele>528</ele>
        <time>2018-05-11T09:01:59Z</time>
      </trkpt>
      <trkpt lat="43.83057" lon="7.24855">
        <ele>528</ele>
        <time>2018-05-11T09:02:59Z</time>
      </trkpt>
      <trkpt lat="43.83039" lon="7.24878">
        <ele>533</ele>
        <time>2018-05-11T09:03:59Z</time>
      </trkpt>
      <trkpt lat="43.83034" lon="7.24884">
        <ele>534</ele>
        <time>2018-05-11T09:04:59Z</time>
      </trkpt>
      <trkpt lat="43.83021" lon="7.24887">
        <ele>533</ele>
        <time>2018-05-11T09:05:59Z</time>
      </trkpt>
      <trkpt lat="43.83005" lon="7.24877">
        <ele>529</ele>
        <time>2018-05-11T09:06:59Z</time>
      </trkpt>
      <trkpt lat="43.82986" lon="7.24865">
        <ele>525</ele>
        <time>2018-05-11T09:07:59Z</time>
      </trkpt>
      <trkpt lat="43.82968" lon="7.24862">
        <ele>523</ele>
        <time>2018-05-11T09:08:59Z</time>
      </trkpt>
      <trkpt lat="43.82944" lon="7.24864">
        <ele>522</ele>
        <time>2018-05-11T09:09:59Z</time>
      </trkpt>
      <trkpt lat="43.82929" lon="7.24869">
        <ele>523</ele>
        <time>2018-05-11T09:10:59Z</time>
      </trkpt>
      <trkpt lat="43.82921" lon="7.24873">
        <ele>523</ele>
        <time>2018-05-11T09:11:59Z</time>
      </trkpt>
      <trkpt lat="43.82913" lon="7.24879">
        <ele>524</ele>
        <time>2018-05-11T09:12:59Z</time>
      </trkpt>
      <trkpt lat="43.82904" lon="7.24886">
        <ele>524</ele>
        <time>2018-05-11T09:13:59Z</time>
      </trkpt>
      <trkpt lat="43.82873" lon="7.24921">
        <ele>527</ele>
        <time>2018-05-11T09:14:59Z</time>
      </trkpt>
      <trkpt lat="43.82866" lon="7.24935">
        <ele>528</ele>
        <time>2018-05-11T09:15:59Z</time>
      </trkpt>
      <trkpt lat="43.8286" lon="7.24951">
        <ele>529</ele>
        <time>2018-05-11T09:16:59Z</time>
      </trkpt>
      <trkpt lat="43.82857" lon="7.24959">
        <ele>530</ele>
        <time>2018-05-11T09:17:59Z</time>
      </trkpt>
      <trkpt lat="43.82853" lon="7.24966">
        <ele>530</ele>
        <time>2018-05-11T09:18:59Z</time>
      </trkpt>
      <trkpt lat="43.82842" lon="7.24976">
        <ele>530</ele>
        <time>2018-05-11T09:19:59Z</time>
      </trkpt>
      <trkpt lat="43.82835" lon="7.24978">
        <ele>529</ele>
        <time>2018-05-11T09:20:59Z</time>
      </trkpt>
      <trkpt lat="43.82822" lon="7.24977">
        <ele>528</ele>
        <time>2018-05-11T09:21:59Z</time>
      </trkpt>
      <trkpt lat="43.82805" lon="7.24968">
        <ele>526</ele>
        <time>2018-05-11T09:22:59Z</time>
      </trkpt>
      <trkpt lat="43.82791" lon="7.24963">
        <ele>525</ele>
        <time>2018-05-11T09:23:59Z</time>
      </trkpt>
      <trkpt lat="43.82768" lon="7.24961">
        <ele>524</ele>
        <time>2018-05-11T09:24:59Z</time>
      </trkpt>
      <trkpt lat="43.8276" lon="7.24963">
        <ele>524</ele>
        <time>2018-05-11T09:25:59Z</time>
      </trkpt>
      <trkpt lat="43.82739" lon="7.24975">
        <ele>526</ele>
        <time>2018-05-11T09:26:59Z</time>
      </trkpt>
      <trkpt lat="43.82722" lon="7.24989">
        <ele>527</ele>
        <time>2018-05-11T09:27:59Z</time>
      </trkpt>
      <trkpt lat="43.82705" lon="7.25005">
        <ele>529</ele>
        <time>2018-05-11T09:28:59Z</time>
      </trkpt>
      <trkpt lat="43.82697" lon="7.25014">
        <ele>530</ele>
        <time>2018-05-11T09:29:59Z</time>
      </trkpt>
      <trkpt lat="43.82691" lon="7.2502">
        <ele>530</ele>
        <time>2018-05-11T09:30:59Z</time>
      </trkpt>
      <trkpt lat="43.82664" lon="7.25043">
        <ele>533</ele>
        <time>2018-05-11T09:31:59Z</time>
      </trkpt>
      <trkpt lat="43.82662" lon="7.25045">
        <ele>534</ele>
        <time>2018-05-11T09:32:59Z</time>
      </trkpt>
      <trkpt lat="43.82636" lon="7.25072">
        <ele>537</ele>
        <time>2018-05-11T09:33:59Z</time>
      </trkpt>
      <trkpt lat="43.82631" lon="7.25076">
        <ele>538</ele>
        <time>2018-05-11T09:34:59Z</time>
      </trkpt>
      <trkpt lat="43.8261" lon="7.25094">
        <ele>540</ele>
        <time>2018-05-11T09:35:59Z</time>
      </trkpt>
      <trkpt lat="43.82607" lon="7.25096">
        <ele>540</ele>
        <time>2018-05-11T09:36:59Z</time>
      </trkpt>
      <trkpt lat="43.82598" lon="7.25105">
        <ele>542</ele>
        <time>2018-05-11T09:37:59Z</time>
      </trkpt>
      <trkpt lat="43.8259" lon="7.25112">
        <ele>543</ele>
        <time>2018-05-11T09:38:59Z</time>
      </trkpt>
      <trkpt lat="43.82575" lon="7.25123">
        <ele>545</ele>
        <time>2018-05-11T09:39:59Z</time>
      </trkpt>
      <trkpt lat="43.82568" lon="7.25128">
        <ele>545</ele>
        <time>2018-05-11T09:40:59Z</time>
      </trkpt>
      <trkpt lat="43.82548" lon="7.25149">
        <ele>550</ele>
        <time>2018-05-11T09:41:59Z</time>
      </trkpt>
      <trkpt lat="43.8254" lon="7.25155">
        <ele>552</ele>
        <time>2018-05-11T09:42:59Z</time>
      </trkpt>
      <trkpt lat="43.82529" lon="7.25162">
        <ele>553</ele>
        <time>2018-05-11T09:43:59Z</time>
      </trkpt>
      <trkpt lat="43.82522" lon="7.25165">
        <ele>553</ele>
        <time>2018-05-11T09:44:59Z</time>
      </trkpt>
      <trkpt lat="43.8251" lon="7.2517">
        <ele>554</ele>
        <time>2018-05-11T09:45:59Z</time>
      </trkpt>
      <trkpt lat="43.82501" lon="7.25175">
        <ele>555</ele>
        <time>2018-05-11T09:46:59Z</time>
      </trkpt>
      <trkpt lat="43.82497" lon="7.25178">
        <ele>555</ele>
        <time>2018-05-11T09:47:59Z</time>
      </trkpt>
      <trkpt lat="43.82494" lon="7.25181">
        <ele>556</ele>
        <time>2018-05-11T09:48:59Z</time>
      </trkpt>
      <trkpt lat="43.82484" lon="7.2519">
        <ele>557</ele>
        <time>2018-05-11T09:49:59Z</time>
      </trkpt>
      <trkpt lat="43.82478" lon="7.25196">
        <ele>558</ele>
        <time>2018-05-11T09:50:59Z</time>
      </trkpt>
      <trkpt lat="43.82471" lon="7.25202">
        <ele>559</ele>
        <time>2018-05-11T09:51:59Z</time>
      </trkpt>
      <trkpt lat="43.82469" lon="7.25203">
        <ele>559</ele>
        <time>2018-05-11T09:52:59Z</time>
      </trkpt>
      <trkpt lat="43.82461" lon="7.25208">
        <ele>560</ele>
        <time>2018-05-11T09:53:59Z</time>
      </trkpt>
      <trkpt lat="43.82439" lon="7.25217">
        <ele>560</ele>
        <time>2018-05-11T09:54:59Z</time>
      </trkpt>
      <trkpt lat="43.82435" lon="7.2522">
        <ele>561</ele>
        <time>2018-05-11T09:55:59Z</time>
      </trkpt>
      <trkpt lat="43.82425" lon="7.25226">
        <ele>561</ele>
        <time>2018-05-11T09:56:59Z</time>
      </trkpt>
      <trkpt lat="43.82423" lon="7.25227">
        <ele>561</ele>
        <time>2018-05-11T09:57:59Z</time>
      </trkpt>
      <trkpt lat="43.82384" lon="7.25255">
        <ele>565</ele>
        <time>2018-05-11T09:58:59Z</time>
      </trkpt>
      <trkpt lat="43.8238" lon="7.25257">
        <ele>565</ele>
        <time>2018-05-11T09:59:59Z</time>
      </trkpt>
      <trkpt lat="43.82327" lon="7.25284">
        <ele>565</ele>
        <time>2018-05-11T10:00:59Z</time>
      </trkpt>
      <trkpt lat="43.82289" lon="7.25312">
        <ele>565</ele>
        <time>2018-05-11T10:01:59Z</time>
      </trkpt>
      <trkpt lat="43.8226" lon="7.25339">
        <ele>564</ele>
        <time>2018-05-11T10:02:59Z</time>
      </trkpt>
      <trkpt lat="43.82256" lon="7.25344">
        <ele>564</ele>
        <time>2018-05-11T10:03:59Z</time>
      </trkpt>
      <trkpt lat="43.82251" lon="7.25349">
        <ele>564</ele>
        <time>2018-05-11T10:04:59Z</time>
      </trkpt>
      <trkpt lat="43.82233" lon="7.25373">
        <ele>565</ele>
        <time>2018-05-11T10:05:59Z</time>
      </trkpt>
      <trkpt lat="43.82218" lon="7.25389">
        <ele>565</ele>
        <time>2018-05-11T10:06:59Z</time>
      </trkpt>
      <trkpt lat="43.82195" lon="7.25405">
        <ele>563</ele>
        <time>2018-05-11T10:07:59Z</time>
      </trkpt>
      <trkpt lat="43.82189" lon="7.25408">
        <ele>563</ele>
        <time>2018-05-11T10:08:59Z</time>
      </trkpt>
      <trkpt lat="43.82177" lon="7.25415">
        <ele>561</ele>
        <time>2018-05-11T10:09:59Z</time>
      </trkpt>
      <trkpt lat="43.82155" lon="7.25435">
        <ele>562</ele>
        <time>2018-05-11T10:10:59Z</time>
      </trkpt>
      <trkpt lat="43.8214" lon="7.25452">
        <ele>564</ele>
        <time>2018-05-11T10:11:59Z</time>
      </trkpt>
      <trkpt lat="43.82118" lon="7.25473">
        <ele>565</ele>
        <time>2018-05-11T10:12:59Z</time>
      </trkpt>
      <trkpt lat="43.8208" lon="7.25497">
        <ele>564</ele>
        <time>2018-05-11T10:13:59Z</time>
      </trkpt>
      <trkpt lat="43.8205" lon="7.25519">
        <ele>564</ele>
        <time>2018-05-11T10:14:59Z</time>
      </trkpt>
      <trkpt lat="43.82024" lon="7.25537">
        <ele>562</ele>
        <time>2018-05-11T10:15:59Z</time>
      </trkpt>
      <trkpt lat="43.8202" lon="7.25541">
        <ele>562</ele>
        <time>2018-05-11T10:16:59Z</time>
      </trkpt>
      <trkpt lat="43.82017" lon="7.25545">
        <ele>562</ele>
        <time>2018-05-11T10:17:59Z</time>
      </trkpt>
      <trkpt lat="43.82002" lon="7.25566">
        <ele>563</ele>
        <time>2018-05-11T10:18:59Z</time>
      </trkpt>
      <trkpt lat="43.81996" lon="7.25574">
        <ele>565</ele>
        <time>2018-05-11T10:19:59Z</time>
      </trkpt>
      <trkpt lat="43.81979" lon="7.25593">
        <ele>569</ele>
        <time>2018-05-11T10:20:59Z</time>
      </trkpt>
      <trkpt lat="43.81964" lon="7.25611">
        <ele>570</ele>
        <time>2018-05-11T10:21:59Z</time>
      </trkpt>
      <trkpt lat="43.8196" lon="7.2562">
        <ele>570</ele>
        <time>2018-05-11T10:22:59Z</time>
      </trkpt>
      <trkpt lat="43.81955" lon="7.25632">
        <ele>571</ele>
        <time>2018-05-11T10:23:59Z</time>
      </trkpt>
      <trkpt lat="43.81941" lon="7.25669">
        <ele>573</ele>
        <time>2018-05-11T10:24:59Z</time>
      </trkpt>
      <trkpt lat="43.8194" lon="7.25671">
        <ele>573</ele>
        <time>2018-05-11T10:25:59Z</time>
      </trkpt>
      <trkpt lat="43.81932" lon="7.25688">
        <ele>572</ele>
        <time>2018-05-11T10:26:59Z</time>
      </trkpt>
      <trkpt lat="43.81931" lon="7.2569">
        <ele>572</ele>
        <time>2018-05-11T10:27:59Z</time>
      </trkpt>
      <trkpt lat="43.81926" lon="7.25698">
        <ele>573</ele>
        <time>2018-05-11T10:28:59Z</time>
      </trkpt>
      <trkpt lat="43.81923" lon="7.25704">
        <ele>573</ele>
        <time>2018-05-11T10:29:59Z</time>
      </trkpt>
      <trkpt lat="43.81904" lon="7.25731">
        <ele>573</ele>
        <time>2018-05-11T10:30:59Z</time>
      </trkpt>
      <trkpt lat="43.81901" lon="7.25734">
        <ele>573</ele>
        <time>2018-05-11T10:31:59Z</time>
      </trkpt>
      <trkpt lat="43.81897" lon="7.25741">
        <ele>572</ele>
        <time>2018-05-11T10:32:59Z</time>
      </trkpt>
      <trkpt lat="43.81892" lon="7.2575">
        <ele>571</ele>
        <time>2018-05-11T10:33:59Z</time>
      </trkpt>
      <trkpt lat="43.81884" lon="7.25758">
        <ele>571</ele>
        <time>2018-05-11T10:34:59Z</time>
      </trkpt>
      <trkpt lat="43.81878" lon="7.25762">
        <ele>571</ele>
        <time>2018-05-11T10:35:59Z</time>
      </trkpt>
      <trkpt lat="43.81864" lon="7.25766">
        <ele>573</ele>
        <time>2018-05-11T10:36:59Z</time>
      </trkpt>
      <trkpt lat="43.81849" lon="7.25767">
        <ele>575</ele>
        <time>2018-05-11T10:37:59Z</time>
      </trkpt>
      <trkpt lat="43.81847" lon="7.25767">
        <ele>575</ele>
        <time>2018-05-11T10:38:59Z</time>
      </trkpt>
      <trkpt lat="43.81835" lon="7.25762">
        <ele>579</ele>
        <time>2018-05-11T10:39:59Z</time>
      </trkpt>
      <trkpt lat="43.8183" lon="7.25759">
        <ele>579</ele>
        <time>2018-05-11T10:40:59Z</time>
      </trkpt>
      <trkpt lat="43.81825" lon="7.25756">
        <ele>578</ele>
        <time>2018-05-11T10:41:59Z</time>
      </trkpt>
      <trkpt lat="43.81822" lon="7.25752">
        <ele>579</ele>
        <time>2018-05-11T10:42:59Z</time>
      </trkpt>
      <trkpt lat="43.81812" lon="7.25738">
        <ele>579</ele>
        <time>2018-05-11T10:43:59Z</time>
      </trkpt>
      <trkpt lat="43.81801" lon="7.25716">
        <ele>581</ele>
        <time>2018-05-11T10:44:59Z</time>
      </trkpt>
      <trkpt lat="43.81799" lon="7.25712">
        <ele>581</ele>
        <time>2018-05-11T10:45:59Z</time>
      </trkpt>
      <trkpt lat="43.8179" lon="7.25686">
        <ele>584</ele>
        <time>2018-05-11T10:46:59Z</time>
      </trkpt>
      <trkpt lat="43.81784" lon="7.25668">
        <ele>586</ele>
        <time>2018-05-11T10:47:59Z</time>
      </trkpt>
      <trkpt lat="43.81781" lon="7.25649">
        <ele>588</ele>
        <time>2018-05-11T10:48:59Z</time>
      </trkpt>
      <trkpt lat="43.81779" lon="7.2564">
        <ele>589</ele>
        <time>2018-05-11T10:49:59Z</time>
      </trkpt>
      <trkpt lat="43.81775" lon="7.25601">
        <ele>593</ele>
        <time>2018-05-11T10:50:59Z</time>
      </trkpt>
      <trkpt lat="43.81774" lon="7.25587">
        <ele>595</ele>
        <time>2018-05-11T10:51:59Z</time>
      </trkpt>
      <trkpt lat="43.81767" lon="7.25553">
        <ele>596</ele>
        <time>2018-05-11T10:52:59Z</time>
      </trkpt>
      <trkpt lat="43.81767" lon="7.25551">
        <ele>597</ele>
        <time>2018-05-11T10:53:59Z</time>
      </trkpt>
      <trkpt lat="43.81754" lon="7.25518">
        <ele>599</ele>
        <time>2018-05-11T10:54:59Z</time>
      </trkpt>
      <trkpt lat="43.81749" lon="7.25508">
        <ele>601</ele>
        <time>2018-05-11T10:55:59Z</time>
      </trkpt>
      <trkpt lat="43.81736" lon="7.25491">
        <ele>599</ele>
        <time>2018-05-11T10:56:59Z</time>
      </trkpt>
      <trkpt lat="43.81733" lon="7.25488">
        <ele>598</ele>
        <time>2018-05-11T10:57:59Z</time>
      </trkpt>
      <trkpt lat="43.8172" lon="7.25476">
        <ele>597</ele>
        <time>2018-05-11T10:58:59Z</time>
      </trkpt>
      <trkpt lat="43.81716" lon="7.25473">
        <ele>596</ele>
        <time>2018-05-11T10:59:59Z</time>
      </trkpt>
      <trkpt lat="43.81704" lon="7.2546">
        <ele>596</ele>
        <time>2018-05-11T11:00:59Z</time>
      </trkpt>
      <trkpt lat="43.81701" lon="7.25458">
        <ele>596</ele>
        <time>2018-05-11T11:01:59Z</time>
      </trkpt>
      <trkpt lat="43.81683" lon="7.25443">
        <ele>598</ele>
        <time>2018-05-11T11:02:59Z</time>
      </trkpt>
      <trkpt lat="43.81677" lon="7.25437">
        <ele>600</ele>
        <time>2018-05-11T11:03:59Z</time>
      </trkpt>
      <trkpt lat="43.81655" lon="7.25414">
        <ele>606</ele>
        <time>2018-05-11T11:04:59Z</time>
      </trkpt>
      <trkpt lat="43.81651" lon="7.2541">
        <ele>606</ele>
        <time>2018-05-11T11:05:59Z</time>
      </trkpt>
      <trkpt lat="43.81643" lon="7.25404">
        <ele>607</ele>
        <time>2018-05-11T11:06:59Z</time>
      </trkpt>
      <trkpt lat="43.81642" lon="7.25403">
        <ele>607</ele>
        <time>2018-05-11T11:07:59Z</time>
      </trkpt>
      <trkpt lat="43.81636" lon="7.25396">
        <ele>608</ele>
        <time>2018-05-11T11:08:59Z</time>
      </trkpt>
      <trkpt lat="43.81634" lon="7.25393">
        <ele>608</ele>
        <time>2018-05-11T11:09:59Z</time>
      </trkpt>
      <trkpt lat="43.8163" lon="7.2539">
        <ele>609</ele>
        <time>2018-05-11T11:10:59Z</time>
      </trkpt>
      <trkpt lat="43.81629" lon="7.25388">
        <ele>609</ele>
        <time>2018-05-11T11:11:59Z</time>
      </trkpt>
      <trkpt lat="43.81623" lon="7.25386">
        <ele>610</ele>
        <time>2018-05-11T11:12:59Z</time>
      </trkpt>
      <trkpt lat="43.81618" lon="7.25382">
        <ele>611</ele>
        <time>2018-05-11T11:13:59Z</time>
      </trkpt>
      <trkpt lat="43.81617" lon="7.25379">
        <ele>612</ele>
        <time>2018-05-11T11:14:59Z</time>
      </trkpt>
      <trkpt lat="43.81616" lon="7.25377">
        <ele>612</ele>
        <time>2018-05-11T11:15:59Z</time>
      </trkpt>
      <trkpt lat="43.81615" lon="7.25377">
        <ele>612</ele>
        <time>2018-05-11T11:16:59Z</time>
      </trkpt>
      <trkpt lat="43.8161" lon="7.25374">
        <ele>613</ele>
        <time>2018-05-11T11:17:59Z</time>
      </trkpt>
      <trkpt lat="43.81608" lon="7.25371">
        <ele>614</ele>
        <time>2018-05-11T11:18:59Z</time>
      </trkpt>
      <trkpt lat="43.81606" lon="7.25369">
        <ele>615</ele>
        <time>2018-05-11T11:19:59Z</time>
      </trkpt>
      <trkpt lat="43.81603" lon="7.25364">
        <ele>616</ele>
        <time>2018-05-11T11:20:59Z</time>
      </trkpt>
      <trkpt lat="43.81602" lon="7.25363">
        <ele>616</ele>
        <time>2018-05-11T11:21:59Z</time>
      </trkpt>
      <trkpt lat="43.81598" lon="7.25361">
        <ele>617</ele>
        <time>2018-05-11T11:22:59Z</time>
      </trkpt>
      <trkpt lat="43.81597" lon="7.2536">
        <ele>618</ele>
        <time>2018-05-11T11:23:59Z</time>
      </trkpt>
      <trkpt lat="43.8159" lon="7.25361">
        <ele>620</ele>
        <time>2018-05-11T11:24:59Z</time>
      </trkpt>
      <trkpt lat="43.81589" lon="7.2536">
        <ele>620</ele>
        <time>2018-05-11T11:25:59Z</time>
      </trkpt>
      <trkpt lat="43.81582" lon="7.25357">
        <ele>623</ele>
        <time>2018-05-11T11:26:59Z</time>
      </trkpt>
      <trkpt lat="43.81581" lon="7.25357">
        <ele>623</ele>
        <time>2018-05-11T11:27:59Z</time>
      </trkpt>
      <trkpt lat="43.8157" lon="7.25348">
        <ele>626</ele>
        <time>2018-05-11T11:28:59Z</time>
      </trkpt>
      <trkpt lat="43.81568" lon="7.25347">
        <ele>627</ele>
        <time>2018-05-11T11:29:59Z</time>
      </trkpt>
      <trkpt lat="43.81566" lon="7.25347">
        <ele>627</ele>
        <time>2018-05-11T11:30:59Z</time>
      </trkpt>
      <trkpt lat="43.8156" lon="7.25345">
        <ele>629</ele>
        <time>2018-05-11T11:31:59Z</time>
      </trkpt>
      <trkpt lat="43.81558" lon="7.25343">
        <ele>629</ele>
        <time>2018-05-11T11:32:59Z</time>
      </trkpt>
      <trkpt lat="43.81554" lon="7.25342">
        <ele>630</ele>
        <time>2018-05-11T11:33:59Z</time>
      </trkpt>
      <trkpt lat="43.81551" lon="7.25342">
        <ele>631</ele>
        <time>2018-05-11T11:34:59Z</time>
      </trkpt>
      <trkpt lat="43.81537" lon="7.25347">
        <ele>634</ele>
        <time>2018-05-11T11:35:59Z</time>
      </trkpt>
      <trkpt lat="43.81534" lon="7.25348">
        <ele>635</ele>
        <time>2018-05-11T11:36:59Z</time>
      </trkpt>
      <trkpt lat="43.81527" lon="7.25352">
        <ele>636</ele>
        <time>2018-05-11T11:37:59Z</time>
      </trkpt>
      <trkpt lat="43.81524" lon="7.25354">
        <ele>637</ele>
        <time>2018-05-11T11:38:59Z</time>
      </trkpt>
      <trkpt lat="43.81508" lon="7.25362">
        <ele>641</ele>
        <time>2018-05-11T11:39:59Z</time>
      </trkpt>
      <trkpt lat="43.81506" lon="7.25362">
        <ele>642</ele>
        <time>2018-05-11T11:40:59Z</time>
      </trkpt>
      <trkpt lat="43.81502" lon="7.25365">
        <ele>643</ele>
        <time>2018-05-11T11:41:59Z</time>
      </trkpt>
      <trkpt lat="43.81499" lon="7.25368">
        <ele>643</ele>
        <time>2018-05-11T11:42:59Z</time>
      </trkpt>
      <trkpt lat="43.81497" lon="7.2537">
        <ele>644</ele>
        <time>2018-05-11T11:43:59Z</time>
      </trkpt>
      <trkpt lat="43.81496" lon="7.25372">
        <ele>644</ele>
        <time>2018-05-11T11:44:59Z</time>
      </trkpt>
      <trkpt lat="43.81491" lon="7.25375">
        <ele>644</ele>
        <time>2018-05-11T11:45:59Z</time>
      </trkpt>
      <trkpt lat="43.81485" lon="7.25378">
        <ele>645</ele>
        <time>2018-05-11T11:46:59Z</time>
      </trkpt>
      <trkpt lat="43.8148" lon="7.25379">
        <ele>646</ele>
        <time>2018-05-11T11:47:59Z</time>
      </trkpt>
      <trkpt lat="43.81479" lon="7.25379">
        <ele>646</ele>
        <time>2018-05-11T11:48:59Z</time>
      </trkpt>
      <trkpt lat="43.81469" lon="7.25383">
        <ele>647</ele>
        <time>2018-05-11T11:49:59Z</time>
      </trkpt>
      <trkpt lat="43.81467" lon="7.25383">
        <ele>648</ele>
        <time>2018-05-11T11:50:59Z</time>
      </trkpt>
      <trkpt lat="43.8144" lon="7.25395">
        <ele>652</ele>
        <time>2018-05-11T11:51:59Z</time>
      </trkpt>
      <trkpt lat="43.81438" lon="7.25395">
        <ele>652</ele>
        <time>2018-05-11T11:52:59Z</time>
      </trkpt>
      <trkpt lat="43.81418" lon="7.25395">
        <ele>655</ele>
        <time>2018-05-11T11:53:59Z</time>
      </trkpt>
      <trkpt lat="43.81393" lon="7.25393">
        <ele>653</ele>
        <time>2018-05-11T11:54:59Z</time>
      </trkpt>
      <trkpt lat="43.81365" lon="7.25389">
        <ele>651</ele>
        <time>2018-05-11T11:55:59Z</time>
      </trkpt>
      <trkpt lat="43.81358" lon="7.25388">
        <ele>650</ele>
        <time>2018-05-11T11:56:59Z</time>
      </trkpt>
      <trkpt lat="43.81344" lon="7.25384">
        <ele>649</ele>
        <time>2018-05-11T11:57:59Z</time>
      </trkpt>
      <trkpt lat="43.8133" lon="7.25379">
        <ele>649</ele>
        <time>2018-05-11T11:58:59Z</time>
      </trkpt>
      <trkpt lat="43.81312" lon="7.25376">
        <ele>650</ele>
        <time>2018-05-11T11:59:59Z</time>
      </trkpt>
      <trkpt lat="43.81306" lon="7.25374">
        <ele>651</ele>
        <time>2018-05-11T12:00:59Z</time>
      </trkpt>
      <trkpt lat="43.81294" lon="7.2537">
        <ele>652</ele>
        <time>2018-05-11T12:01:59Z</time>
      </trkpt>
      <trkpt lat="43.81281" lon="7.25362">
        <ele>654</ele>
        <time>2018-05-11T12:02:59Z</time>
      </trkpt>
      <trkpt lat="43.81278" lon="7.2536">
        <ele>655</ele>
        <time>2018-05-11T12:03:59Z</time>
      </trkpt>
      <trkpt lat="43.81275" lon="7.25359">
        <ele>655</ele>
        <time>2018-05-11T12:04:59Z</time>
      </trkpt>
      <trkpt lat="43.81272" lon="7.2536">
        <ele>655</ele>
        <time>2018-05-11T12:05:59Z</time>
      </trkpt>
      <trkpt lat="43.8127" lon="7.2536">
        <ele>656</ele>
        <time>2018-05-11T12:06:59Z</time>
      </trkpt>
      <trkpt lat="43.81269" lon="7.2536">
        <ele>656</ele>
        <time>2018-05-11T12:07:59Z</time>
      </trkpt>
      <trkpt lat="43.81268" lon="7.25359">
        <ele>656</ele>
        <time>2018-05-11T12:08:59Z</time>
      </trkpt>
      <trkpt lat="43.81267" lon="7.25357">
        <ele>656</ele>
        <time>2018-05-11T12:09:59Z</time>
      </trkpt>
      <trkpt lat="43.81266" lon="7.25356">
        <ele>656</ele>
        <time>2018-05-11T12:10:59Z</time>
      </trkpt>
      <trkpt lat="43.81263" lon="7.25357">
        <ele>657</ele>
        <time>2018-05-11T12:11:59Z</time>
      </trkpt>
      <trkpt lat="43.81262" lon="7.25356">
        <ele>657</ele>
        <time>2018-05-11T12:12:59Z</time>
      </trkpt>
      <trkpt lat="43.81255" lon="7.25352">
        <ele>658</ele>
        <time>2018-05-11T12:13:59Z</time>
      </trkpt>
      <trkpt lat="43.81253" lon="7.25351">
        <ele>659</ele>
        <time>2018-05-11T12:14:59Z</time>
      </trkpt>
      <trkpt lat="43.81214" lon="7.25338">
        <ele>667</ele>
        <time>2018-05-11T12:15:59Z</time>
      </trkpt>
      <trkpt lat="43.81197" lon="7.25333">
        <ele>672</ele>
        <time>2018-05-11T12:16:59Z</time>
      </trkpt>
      <trkpt lat="43.81192" lon="7.25329">
        <ele>672</ele>
        <time>2018-05-11T12:17:59Z</time>
      </trkpt>
      <trkpt lat="43.81166" lon="7.25315">
        <ele>675</ele>
        <time>2018-05-11T12:18:59Z</time>
      </trkpt>
      <trkpt lat="43.81157" lon="7.2531">
        <ele>675</ele>
        <time>2018-05-11T12:19:59Z</time>
      </trkpt>
      <trkpt lat="43.81146" lon="7.25299">
        <ele>676</ele>
        <time>2018-05-11T12:20:59Z</time>
      </trkpt>
      <trkpt lat="43.81139" lon="7.25293">
        <ele>676</ele>
        <time>2018-05-11T12:21:59Z</time>
      </trkpt>
      <trkpt lat="43.81133" lon="7.2529">
        <ele>677</ele>
        <time>2018-05-11T12:22:59Z</time>
      </trkpt>
      <trkpt lat="43.81132" lon="7.2529">
        <ele>678</ele>
        <time>2018-05-11T12:23:59Z</time>
      </trkpt>
      <trkpt lat="43.81125" lon="7.25289">
        <ele>679</ele>
        <time>2018-05-11T12:24:59Z</time>
      </trkpt>
      <trkpt lat="43.8112" lon="7.25288">
        <ele>680</ele>
        <time>2018-05-11T12:25:59Z</time>
      </trkpt>
      <trkpt lat="43.81113" lon="7.25284">
        <ele>682</ele>
        <time>2018-05-11T12:26:59Z</time>
      </trkpt>
      <trkpt lat="43.81111" lon="7.25281">
        <ele>683</ele>
        <time>2018-05-11T12:27:59Z</time>
      </trkpt>
      <trkpt lat="43.8111" lon="7.2528">
        <ele>683</ele>
        <time>2018-05-11T12:28:59Z</time>
      </trkpt>
      <trkpt lat="43.81104" lon="7.25271">
        <ele>686</ele>
        <time>2018-05-11T12:29:59Z</time>
      </trkpt>
      <trkpt lat="43.81099" lon="7.25263">
        <ele>688</ele>
        <time>2018-05-11T12:30:59Z</time>
      </trkpt>
      <trkpt lat="43.81077" lon="7.2525">
        <ele>695</ele>
        <time>2018-05-11T12:31:59Z</time>
      </trkpt>
      <trkpt lat="43.81075" lon="7.25249">
        <ele>695</ele>
        <time>2018-05-11T12:32:59Z</time>
      </trkpt>
      <trkpt lat="43.81065" lon="7.25242">
        <ele>694</ele>
        <time>2018-05-11T12:33:59Z</time>
      </trkpt>
      <trkpt lat="43.81064" lon="7.25242">
        <ele>694</ele>
        <time>2018-05-11T12:34:59Z</time>
      </trkpt>
      <trkpt lat="43.81056" lon="7.25232">
        <ele>695</ele>
        <time>2018-05-11T12:35:59Z</time>
      </trkpt>
      <trkpt lat="43.81055" lon="7.25231">
        <ele>695</ele>
        <time>2018-05-11T12:36:59Z</time>
      </trkpt>
      <trkpt lat="43.8103" lon="7.25191">
        <ele>700</ele>
        <time>2018-05-11T12:37:59Z</time>
      </trkpt>
      <trkpt lat="43.81028" lon="7.25189">
        <ele>701</ele>
        <time>2018-05-11T12:38:59Z</time>
      </trkpt>
      <trkpt lat="43.81017" lon="7.25176">
        <ele>705</ele>
        <time>2018-05-11T12:39:59Z</time>
      </trkpt>
      <trkpt lat="43.81007" lon="7.25165">
        <ele>709</ele>
        <time>2018-05-11T12:40:59Z</time>
      </trkpt>
      <trkpt lat="43.80994" lon="7.25144">
        <ele>714</ele>
        <time>2018-05-11T12:41:59Z</time>
      </trkpt>
      <trkpt lat="43.80983" lon="7.25129">
        <ele>716</ele>
        <time>2018-05-11T12:42:59Z</time>
      </trkpt>
      <trkpt lat="43.8098" lon="7.25126">
        <ele>717</ele>
        <time>2018-05-11T12:43:59Z</time>
      </trkpt>
      <trkpt lat="43.80974" lon="7.25119">
        <ele>718</ele>
        <time>2018-05-11T12:44:59Z</time>
      </trkpt>
      <trkpt lat="43.80963" lon="7.25109">
        <ele>720</ele>
        <time>2018-05-11T12:45:59Z</time>
      </trkpt>
      <trkpt lat="43.80961" lon="7.25106">
        <ele>721</ele>
        <time>2018-05-11T12:46:59Z</time>
      </trkpt>
      <trkpt lat="43.80931" lon="7.25084">
        <ele>728</ele>
        <time>2018-05-11T12:47:59Z</time>
      </trkpt>
      <trkpt lat="43.80925" lon="7.2508">
        <ele>730</ele>
        <time>2018-05-11T12:48:59Z</time>
      </trkpt>
      <trkpt lat="43.80908" lon="7.25075">
        <ele>733</ele>
        <time>2018-05-11T12:49:59Z</time>
      </trkpt>
      <trkpt lat="43.80906" lon="7.25075">
        <ele>734</ele>
        <time>2018-05-11T12:50:59Z</time>
      </trkpt>
      <trkpt lat="43.809" lon="7.25071">
        <ele>736</ele>
        <time>2018-05-11T12:51:59Z</time>
      </trkpt>
      <trkpt lat="43.80898" lon="7.2507">
        <ele>736</ele>
        <time>2018-05-11T12:52:59Z</time>
      </trkpt>
      <trkpt lat="43.80889" lon="7.25071">
        <ele>736</ele>
        <time>2018-05-11T12:53:59Z</time>
      </trkpt>
      <trkpt lat="43.80881" lon="7.25071">
        <ele>737</ele>
        <time>2018-05-11T12:54:59Z</time>
      </trkpt>
      <trkpt lat="43.80871" lon="7.25067">
        <ele>739</ele>
        <time>2018-05-11T12:55:59Z</time>
      </trkpt>
      <trkpt lat="43.80861" lon="7.25062">
        <ele>742</ele>
        <time>2018-05-11T12:56:59Z</time>
      </trkpt>
      <trkpt lat="43.80853" lon="7.25057">
        <ele>744</ele>
        <time>2018-05-11T12:57:59Z</time>
      </trkpt>
      <trkpt lat="43.80851" lon="7.25054">
        <ele>746</ele>
        <time>2018-05-11T12:58:59Z</time>
      </trkpt>
      <trkpt lat="43.80843" lon="7.25042">
        <ele>750</ele>
        <time>2018-05-11T12:59:59Z</time>
      </trkpt>
      <trkpt lat="43.80841" lon="7.2504">
        <ele>751</ele>
        <time>2018-05-11T13:00:59Z</time>
      </trkpt>
      <trkpt lat="43.80839" lon="7.25042">
        <ele>751</ele>
        <time>2018-05-11T13:01:59Z</time>
      </trkpt>
      <trkpt lat="43.80839" lon="7.25043">
        <ele>750</ele>
        <time>2018-05-11T13:02:59Z</time>
      </trkpt>
      <trkpt lat="43.80838" lon="7.25051">
        <ele>747</ele>
        <time>2018-05-11T13:03:59Z</time>
      </trkpt>
      <trkpt lat="43.80835" lon="7.25056">
        <ele>746</ele>
        <time>2018-05-11T13:04:59Z</time>
      </trkpt>
      <trkpt lat="43.80832" lon="7.2506">
        <ele>745</ele>
        <time>2018-05-11T13:05:59Z</time>
      </trkpt>
      <trkpt lat="43.80826" lon="7.25067">
        <ele>743</ele>
        <time>2018-05-11T13:06:59Z</time>
      </trkpt>
      <trkpt lat="43.8082" lon="7.25078">
        <ele>740</ele>
        <time>2018-05-11T13:07:59Z</time>
      </trkpt>
      <trkpt lat="43.80818" lon="7.2508">
        <ele>739</ele>
        <time>2018-05-11T13:08:59Z</time>
      </trkpt>
      <trkpt lat="43.8081" lon="7.25088">
        <ele>738</ele>
        <time>2018-05-11T13:09:59Z</time>
      </trkpt>
      <trkpt lat="43.80809" lon="7.2509">
        <ele>737</ele>
        <time>2018-05-11T13:10:59Z</time>
      </trkpt>
      <trkpt lat="43.80798" lon="7.25097">
        <ele>737</ele>
        <time>2018-05-11T13:11:59Z</time>
      </trkpt>
      <trkpt lat="43.80794" lon="7.251">
        <ele>736</ele>
        <time>2018-05-11T13:12:59Z</time>
      </trkpt>
      <trkpt lat="43.80783" lon="7.25106">
        <ele>736</ele>
        <time>2018-05-11T13:13:59Z</time>
      </trkpt>
      <trkpt lat="43.80768" lon="7.25111">
        <ele>736</ele>
        <time>2018-05-11T13:14:59Z</time>
      </trkpt>
      <trkpt lat="43.80762" lon="7.25112">
        <ele>737</ele>
        <time>2018-05-11T13:15:59Z</time>
      </trkpt>
      <trkpt lat="43.80749" lon="7.25111">
        <ele>738</ele>
        <time>2018-05-11T13:16:59Z</time>
      </trkpt>
      <trkpt lat="43.80735" lon="7.25109">
        <ele>738</ele>
        <time>2018-05-11T13:17:59Z</time>
      </trkpt>
      <trkpt lat="43.80713" lon="7.25103">
        <ele>739</ele>
        <time>2018-05-11T13:18:59Z</time>
      </trkpt>
      <trkpt lat="43.80706" lon="7.25101">
        <ele>739</ele>
        <time>2018-05-11T13:19:59Z</time>
      </trkpt>
      <trkpt lat="43.80699" lon="7.25098">
        <ele>739</ele>
        <time>2018-05-11T13:20:59Z</time>
      </trkpt>
      <trkpt lat="43.80694" lon="7.25097">
        <ele>739</ele>
        <time>2018-05-11T13:21:59Z</time>
      </trkpt>
      <trkpt lat="43.80686" lon="7.251">
        <ele>738</ele>
        <time>2018-05-11T13:22:59Z</time>
      </trkpt>
      <trkpt lat="43.80664" lon="7.25102">
        <ele>736</ele>
        <time>2018-05-11T13:23:59Z</time>
      </trkpt>
      <trkpt lat="43.80655" lon="7.25102">
        <ele>736</ele>
        <time>2018-05-11T13:24:59Z</time>
      </trkpt>
      <trkpt lat="43.80649" lon="7.25103">
        <ele>736</ele>
        <time>2018-05-11T13:25:59Z</time>
      </trkpt>
      <trkpt lat="43.80634" lon="7.25109">
        <ele>735</ele>
        <time>2018-05-11T13:26:59Z</time>
      </trkpt>
      <trkpt lat="43.80631" lon="7.25111">
        <ele>734</ele>
        <time>2018-05-11T13:27:59Z</time>
      </trkpt>
      <trkpt lat="43.8062" lon="7.25115">
        <ele>733</ele>
        <time>2018-05-11T13:28:59Z</time>
      </trkpt>
      <trkpt lat="43.80615" lon="7.25116">
        <ele>733</ele>
        <time>2018-05-11T13:29:59Z</time>
      </trkpt>
      <trkpt lat="43.80595" lon="7.25121">
        <ele>732</ele>
        <time>2018-05-11T13:30:59Z</time>
      </trkpt>
      <trkpt lat="43.80553" lon="7.25123">
        <ele>733</ele>
        <time>2018-05-11T13:31:59Z</time>
      </trkpt>
      <trkpt lat="43.80525" lon="7.25125">
        <ele>734</ele>
        <time>2018-05-11T13:32:59Z</time>
      </trkpt>
      <trkpt lat="43.8051" lon="7.25132">
        <ele>732</ele>
        <time>2018-05-11T13:33:59Z</time>
      </trkpt>
      <trkpt lat="43.80487" lon="7.25137">
        <ele>731</ele>
        <time>2018-05-11T13:34:59Z</time>
      </trkpt>
      <trkpt lat="43.80456" lon="7.25148">
        <ele>730</ele>
        <time>2018-05-11T13:35:59Z</time>
      </trkpt>
      <trkpt lat="43.80439" lon="7.25154">
        <ele>729</ele>
        <time>2018-05-11T13:36:59Z</time>
      </trkpt>
      <trkpt lat="43.80407" lon="7.25164">
        <ele>726</ele>
        <time>2018-05-11T13:37:59Z</time>
      </trkpt>
      <trkpt lat="43.80394" lon="7.25168">
        <ele>723</ele>
        <time>2018-05-11T13:38:59Z</time>
      </trkpt>
      <trkpt lat="43.80382" lon="7.2517">
        <ele>721</ele>
        <time>2018-05-11T13:39:59Z</time>
      </trkpt>
      <trkpt lat="43.8037" lon="7.25172">
        <ele>719</ele>
        <time>2018-05-11T13:40:59Z</time>
      </trkpt>
      <trkpt lat="43.80356" lon="7.25173">
        <ele>718</ele>
        <time>2018-05-11T13:41:59Z</time>
      </trkpt>
      <trkpt lat="43.80348" lon="7.25173">
        <ele>717</ele>
        <time>2018-05-11T13:42:59Z</time>
      </trkpt>
      <trkpt lat="43.8033" lon="7.25171">
        <ele>715</ele>
        <time>2018-05-11T13:43:59Z</time>
      </trkpt>
      <trkpt lat="43.80321" lon="7.25169">
        <ele>714</ele>
        <time>2018-05-11T13:44:59Z</time>
      </trkpt>
      <trkpt lat="43.80312" lon="7.25167">
        <ele>712</ele>
        <time>2018-05-11T13:45:59Z</time>
      </trkpt>
      <trkpt lat="43.80304" lon="7.25163">
        <ele>712</ele>
        <time>2018-05-11T13:46:59Z</time>
      </trkpt>
      <trkpt lat="43.8029" lon="7.25155">
        <ele>712</ele>
        <time>2018-05-11T13:47:59Z</time>
      </trkpt>
      <trkpt lat="43.80282" lon="7.25151">
        <ele>711</ele>
        <time>2018-05-11T13:48:59Z</time>
      </trkpt>
      <trkpt lat="43.80275" lon="7.25146">
        <ele>711</ele>
        <time>2018-05-11T13:49:59Z</time>
      </trkpt>
      <trkpt lat="43.8027" lon="7.2514">
        <ele>712</ele>
        <time>2018-05-11T13:50:59Z</time>
      </trkpt>
      <trkpt lat="43.80266" lon="7.25135">
        <ele>712</ele>
        <time>2018-05-11T13:51:59Z</time>
      </trkpt>
      <trkpt lat="43.8026" lon="7.25126">
        <ele>714</ele>
        <time>2018-05-11T13:52:59Z</time>
      </trkpt>
      <trkpt lat="43.80251" lon="7.25117">
        <ele>714</ele>
        <time>2018-05-11T13:53:59Z</time>
      </trkpt>
      <trkpt lat="43.80234" lon="7.25099">
        <ele>713</ele>
        <time>2018-05-11T13:54:59Z</time>
      </trkpt>
      <trkpt lat="43.80226" lon="7.25088">
        <ele>713</ele>
        <time>2018-05-11T13:55:59Z</time>
      </trkpt>
      <trkpt lat="43.80215" lon="7.25071">
        <ele>713</ele>
        <time>2018-05-11T13:56:59Z</time>
      </trkpt>
      <trkpt lat="43.8021" lon="7.25059">
        <ele>714</ele>
        <time>2018-05-11T13:57:59Z</time>
      </trkpt>
      <trkpt lat="43.80199" lon="7.25029">
        <ele>716</ele>
        <time>2018-05-11T13:58:59Z</time>
      </trkpt>
      <trkpt lat="43.80197" lon="7.25024">
        <ele>716</ele>
        <time>2018-05-11T13:59:59Z</time>
      </trkpt>
      <trkpt lat="43.80184" lon="7.25008">
        <ele>713</ele>
        <time>2018-05-11T14:00:59Z</time>
      </trkpt>
      <trkpt lat="43.80165" lon="7.24988">
        <ele>708</ele>
        <time>2018-05-11T14:01:59Z</time>
      </trkpt>
      <trkpt lat="43.80159" lon="7.24983">
        <ele>708</ele>
        <time>2018-05-11T14:02:59Z</time>
      </trkpt>
      <trkpt lat="43.80155" lon="7.24983">
        <ele>706</ele>
        <time>2018-05-11T14:03:59Z</time>
      </trkpt>
      <trkpt lat="43.80151" lon="7.24981">
        <ele>705</ele>
        <time>2018-05-11T14:04:59Z</time>
      </trkpt>
      <trkpt lat="43.80149" lon="7.2498">
        <ele>705</ele>
        <time>2018-05-11T14:05:59Z</time>
      </trkpt>
      <trkpt lat="43.80137" lon="7.24982">
        <ele>700</ele>
        <time>2018-05-11T14:06:59Z</time>
      </trkpt>
      <trkpt lat="43.80122" lon="7.2497">
        <ele>698</ele>
        <time>2018-05-11T14:07:59Z</time>
      </trkpt>
      <trkpt lat="43.80101" lon="7.2493">
        <ele>698</ele>
        <time>2018-05-11T14:08:59Z</time>
      </trkpt>
      <trkpt lat="43.80092" lon="7.24919">
        <ele>696</ele>
        <time>2018-05-11T14:09:59Z</time>
      </trkpt>
      <trkpt lat="43.80089" lon="7.24913">
        <ele>696</ele>
        <time>2018-05-11T14:10:59Z</time>
      </trkpt>
      <trkpt lat="43.80086" lon="7.249">
        <ele>696</ele>
        <time>2018-05-11T14:11:59Z</time>
      </trkpt>
      <trkpt lat="43.80077" lon="7.24878">
        <ele>693</ele>
        <time>2018-05-11T14:12:59Z</time>
      </trkpt>
      <trkpt lat="43.80072" lon="7.24838">
        <ele>694</ele>
        <time>2018-05-11T14:13:59Z</time>
      </trkpt>
      <trkpt lat="43.80075" lon="7.24821">
        <ele>697</ele>
        <time>2018-05-11T14:14:59Z</time>
      </trkpt>
      <trkpt lat="43.80075" lon="7.24813">
        <ele>697</ele>
        <time>2018-05-11T14:15:59Z</time>
      </trkpt>
      <trkpt lat="43.80071" lon="7.2479">
        <ele>696</ele>
        <time>2018-05-11T14:16:59Z</time>
      </trkpt>
      <trkpt lat="43.80069" lon="7.24783">
        <ele>695</ele>
        <time>2018-05-11T14:17:59Z</time>
      </trkpt>
      <trkpt lat="43.80067" lon="7.24768">
        <ele>695</ele>
        <time>2018-05-11T14:18:59Z</time>
      </trkpt>
      <trkpt lat="43.80067" lon="7.24763">
        <ele>696</ele>
        <time>2018-05-11T14:19:59Z</time>
      </trkpt>
      <trkpt lat="43.80067" lon="7.24758">
        <ele>696</ele>
        <time>2018-05-11T14:20:59Z</time>
      </trkpt>
      <trkpt lat="43.80062" lon="7.2474">
        <ele>696</ele>
        <time>2018-05-11T14:21:59Z</time>
      </trkpt>
      <trkpt lat="43.8006" lon="7.24732">
        <ele>696</ele>
        <time>2018-05-11T14:22:59Z</time>
      </trkpt>
      <trkpt lat="43.80052" lon="7.24709">
        <ele>697</ele>
        <time>2018-05-11T14:23:59Z</time>
      </trkpt>
      <trkpt lat="43.80048" lon="7.24703">
        <ele>696</ele>
        <time>2018-05-11T14:24:59Z</time>
      </trkpt>
      <trkpt lat="43.80039" lon="7.24677">
        <ele>698</ele>
        <time>2018-05-11T14:25:59Z</time>
      </trkpt>
      <trkpt lat="43.80037" lon="7.24673">
        <ele>698</ele>
        <time>2018-05-11T14:26:59Z</time>
      </trkpt>
      <trkpt lat="43.80034" lon="7.24673">
        <ele>697</ele>
        <time>2018-05-11T14:27:59Z</time>
      </trkpt>
      <trkpt lat="43.80027" lon="7.24678">
        <ele>694</ele>
        <time>2018-05-11T14:28:59Z</time>
      </trkpt>
      <trkpt lat="43.80025" lon="7.2468">
        <ele>693</ele>
        <time>2018-05-11T14:29:59Z</time>
      </trkpt>
      <trkpt lat="43.80018" lon="7.24679">
        <ele>691</ele>
        <time>2018-05-11T14:30:59Z</time>
      </trkpt>
      <trkpt lat="43.80017" lon="7.24678">
        <ele>691</ele>
        <time>2018-05-11T14:31:59Z</time>
      </trkpt>
      <trkpt lat="43.80013" lon="7.24677">
        <ele>690</ele>
        <time>2018-05-11T14:32:59Z</time>
      </trkpt>
      <trkpt lat="43.79994" lon="7.24687">
        <ele>684</ele>
        <time>2018-05-11T14:33:59Z</time>
      </trkpt>
      <trkpt lat="43.79993" lon="7.24687">
        <ele>684</ele>
        <time>2018-05-11T14:34:59Z</time>
      </trkpt>
      <trkpt lat="43.79986" lon="7.24686">
        <ele>686</ele>
        <time>2018-05-11T14:35:59Z</time>
      </trkpt>
      <trkpt lat="43.79977" lon="7.24688">
        <ele>687</ele>
        <time>2018-05-11T14:36:59Z</time>
      </trkpt>
      <trkpt lat="43.79972" lon="7.24688">
        <ele>688</ele>
        <time>2018-05-11T14:37:59Z</time>
      </trkpt>
      <trkpt lat="43.79961" lon="7.24691">
        <ele>689</ele>
        <time>2018-05-11T14:38:59Z</time>
      </trkpt>
      <trkpt lat="43.79959" lon="7.24691">
        <ele>689</ele>
        <time>2018-05-11T14:39:59Z</time>
      </trkpt>
      <trkpt lat="43.79949" lon="7.24696">
        <ele>689</ele>
        <time>2018-05-11T14:40:59Z</time>
      </trkpt>
      <trkpt lat="43.79947" lon="7.24697">
        <ele>689</ele>
        <time>2018-05-11T14:41:59Z</time>
      </trkpt>
      <trkpt lat="43.79937" lon="7.24699">
        <ele>690</ele>
        <time>2018-05-11T14:42:59Z</time>
      </trkpt>
      <trkpt lat="43.79935" lon="7.247">
        <ele>690</ele>
        <time>2018-05-11T14:43:59Z</time>
      </trkpt>
      <trkpt lat="43.79915" lon="7.24706">
        <ele>692</ele>
        <time>2018-05-11T14:44:59Z</time>
      </trkpt>
      <trkpt lat="43.79913" lon="7.24707">
        <ele>692</ele>
        <time>2018-05-11T14:45:59Z</time>
      </trkpt>
      <trkpt lat="43.79902" lon="7.2471">
        <ele>694</ele>
        <time>2018-05-11T14:46:59Z</time>
      </trkpt>
      <trkpt lat="43.79894" lon="7.24712">
        <ele>696</ele>
        <time>2018-05-11T14:47:59Z</time>
      </trkpt>
      <trkpt lat="43.79891" lon="7.24714">
        <ele>696</ele>
        <time>2018-05-11T14:48:59Z</time>
      </trkpt>
      <trkpt lat="43.7988" lon="7.24716">
        <ele>698</ele>
        <time>2018-05-11T14:49:59Z</time>
      </trkpt>
      <trkpt lat="43.79879" lon="7.24717">
        <ele>698</ele>
        <time>2018-05-11T14:50:59Z</time>
      </trkpt>
      <trkpt lat="43.79875" lon="7.24719">
        <ele>699</ele>
        <time>2018-05-11T14:51:59Z</time>
      </trkpt>
      <trkpt lat="43.7987" lon="7.2472">
        <ele>700</ele>
        <time>2018-05-11T14:52:59Z</time>
      </trkpt>
      <trkpt lat="43.79867" lon="7.24721">
        <ele>700</ele>
        <time>2018-05-11T14:53:59Z</time>
      </trkpt>
      <trkpt lat="43.79857" lon="7.2473">
        <ele>700</ele>
        <time>2018-05-11T14:54:59Z</time>
      </trkpt>
      <trkpt lat="43.79855" lon="7.24731">
        <ele>700</ele>
        <time>2018-05-11T14:55:59Z</time>
      </trkpt>
      <trkpt lat="43.79845" lon="7.24736">
        <ele>702</ele>
        <time>2018-05-11T14:56:59Z</time>
      </trkpt>
      <trkpt lat="43.79837" lon="7.24742">
        <ele>702</ele>
        <time>2018-05-11T14:57:59Z</time>
      </trkpt>
      <trkpt lat="43.7983" lon="7.24748">
        <ele>702</ele>
        <time>2018-05-11T14:58:59Z</time>
      </trkpt>
      <trkpt lat="43.79825" lon="7.24756">
        <ele>700</ele>
        <time>2018-05-11T14:59:59Z</time>
      </trkpt>
      <trkpt lat="43.79823" lon="7.24757">
        <ele>700</ele>
        <time>2018-05-11T15:00:59Z</time>
      </trkpt>
      <trkpt lat="43.79812" lon="7.24759">
        <ele>702</ele>
        <time>2018-05-11T15:01:59Z</time>
      </trkpt>
      <trkpt lat="43.79806" lon="7.24762">
        <ele>702</ele>
        <time>2018-05-11T15:02:59Z</time>
      </trkpt>
      <trkpt lat="43.79804" lon="7.24763">
        <ele>702</ele>
        <time>2018-05-11T15:03:59Z</time>
      </trkpt>
      <trkpt lat="43.79788" lon="7.24777">
        <ele>700</ele>
        <time>2018-05-11T15:04:59Z</time>
      </trkpt>
      <trkpt lat="43.79735" lon="7.24802">
        <ele>704</ele>
        <time>2018-05-11T15:05:59Z</time>
      </trkpt>
      <trkpt lat="43.79728" lon="7.24807">
        <ele>703</ele>
        <time>2018-05-11T15:06:59Z</time>
      </trkpt>
      <trkpt lat="43.79715" lon="7.24819">
        <ele>702</ele>
        <time>2018-05-11T15:07:59Z</time>
      </trkpt>
      <trkpt lat="43.79708" lon="7.24826">
        <ele>701</ele>
        <time>2018-05-11T15:08:59Z</time>
      </trkpt>
      <trkpt lat="43.79673" lon="7.24867">
        <ele>693</ele>
        <time>2018-05-11T15:09:59Z</time>
      </trkpt>
      <trkpt lat="43.79665" lon="7.24875">
        <ele>692</ele>
        <time>2018-05-11T15:10:59Z</time>
      </trkpt>
      <trkpt lat="43.79656" lon="7.24884">
        <ele>689</ele>
        <time>2018-05-11T15:11:59Z</time>
      </trkpt>
      <trkpt lat="43.79639" lon="7.24898">
        <ele>685</ele>
        <time>2018-05-11T15:12:59Z</time>
      </trkpt>
      <trkpt lat="43.7962" lon="7.24903">
        <ele>684</ele>
        <time>2018-05-11T15:13:59Z</time>
      </trkpt>
      <trkpt lat="43.7959" lon="7.24905">
        <ele>685</ele>
        <time>2018-05-11T15:14:59Z</time>
      </trkpt>
      <trkpt lat="43.7958" lon="7.24904">
        <ele>685</ele>
        <time>2018-05-11T15:15:59Z</time>
      </trkpt>
      <trkpt lat="43.79559" lon="7.24903">
        <ele>682</ele>
        <time>2018-05-11T15:16:59Z</time>
      </trkpt>
      <trkpt lat="43.79538" lon="7.24901">
        <ele>680</ele>
        <time>2018-05-11T15:17:59Z</time>
      </trkpt>
      <trkpt lat="43.79509" lon="7.24897">
        <ele>678</ele>
        <time>2018-05-11T15:18:59Z</time>
      </trkpt>
      <trkpt lat="43.795" lon="7.24895">
        <ele>678</ele>
        <time>2018-05-11T15:19:59Z</time>
      </trkpt>
      <trkpt lat="43.79482" lon="7.24888">
        <ele>677</ele>
        <time>2018-05-11T15:20:59Z</time>
      </trkpt>
      <trkpt lat="43.79464" lon="7.2488">
        <ele>676</ele>
        <time>2018-05-11T15:21:59Z</time>
      </trkpt>
      <trkpt lat="43.79446" lon="7.24872">
        <ele>676</ele>
        <time>2018-05-11T15:22:59Z</time>
      </trkpt>
      <trkpt lat="43.79421" lon="7.24858">
        <ele>676</ele>
        <time>2018-05-11T15:23:59Z</time>
      </trkpt>
      <trkpt lat="43.79405" lon="7.24849">
        <ele>677</ele>
        <time>2018-05-11T15:24:59Z</time>
      </trkpt>
      <trkpt lat="43.79376" lon="7.24839">
        <ele>675</ele>
        <time>2018-05-11T15:25:59Z</time>
      </trkpt>
      <trkpt lat="43.79357" lon="7.24834">
        <ele>673</ele>
        <time>2018-05-11T15:26:59Z</time>
      </trkpt>
      <trkpt lat="43.79342" lon="7.24835">
        <ele>670</ele>
        <time>2018-05-11T15:27:59Z</time>
      </trkpt>
      <trkpt lat="43.79333" lon="7.24829">
        <ele>670</ele>
        <time>2018-05-11T15:28:59Z</time>
      </trkpt>
      <trkpt lat="43.79317" lon="7.2482">
        <ele>669</ele>
        <time>2018-05-11T15:29:59Z</time>
      </trkpt>
      <trkpt lat="43.79304" lon="7.2481">
        <ele>668</ele>
        <time>2018-05-11T15:30:59Z</time>
      </trkpt>
      <trkpt lat="43.79292" lon="7.24793">
        <ele>667</ele>
        <time>2018-05-11T15:31:59Z</time>
      </trkpt>
      <trkpt lat="43.79289" lon="7.24793">
        <ele>666</ele>
        <time>2018-05-11T15:32:59Z</time>
      </trkpt>
      <trkpt lat="43.79274" lon="7.2481">
        <ele>663</ele>
        <time>2018-05-11T15:33:59Z</time>
      </trkpt>
      <trkpt lat="43.79269" lon="7.24815">
        <ele>663</ele>
        <time>2018-05-11T15:34:59Z</time>
      </trkpt>
      <trkpt lat="43.79257" lon="7.24822">
        <ele>661</ele>
        <time>2018-05-11T15:35:59Z</time>
      </trkpt>
      <trkpt lat="43.79242" lon="7.24828">
        <ele>661</ele>
        <time>2018-05-11T15:36:59Z</time>
      </trkpt>
      <trkpt lat="43.79241" lon="7.24829">
        <ele>662</ele>
        <time>2018-05-11T15:37:59Z</time>
      </trkpt>
      <trkpt lat="43.7924" lon="7.24831">
        <ele>662</ele>
        <time>2018-05-11T15:38:59Z</time>
      </trkpt>
      <trkpt lat="43.79239" lon="7.24834">
        <ele>662</ele>
        <time>2018-05-11T15:39:59Z</time>
      </trkpt>
      <trkpt lat="43.79228" lon="7.24848">
        <ele>661</ele>
        <time>2018-05-11T15:40:59Z</time>
      </trkpt>
      <trkpt lat="43.79222" lon="7.24857">
        <ele>660</ele>
        <time>2018-05-11T15:41:59Z</time>
      </trkpt>
      <trkpt lat="43.79203" lon="7.24879">
        <ele>660</ele>
        <time>2018-05-11T15:42:59Z</time>
      </trkpt>
      <trkpt lat="43.79202" lon="7.24882">
        <ele>660</ele>
        <time>2018-05-11T15:43:59Z</time>
      </trkpt>
      <trkpt lat="43.79202" lon="7.24888">
        <ele>659</ele>
        <time>2018-05-11T15:44:59Z</time>
      </trkpt>
      <trkpt lat="43.79204" lon="7.24901">
        <ele>657</ele>
        <time>2018-05-11T15:45:59Z</time>
      </trkpt>
      <trkpt lat="43.79204" lon="7.24905">
        <ele>657</ele>
        <time>2018-05-11T15:46:59Z</time>
      </trkpt>
      <trkpt lat="43.79199" lon="7.24926">
        <ele>654</ele>
        <time>2018-05-11T15:47:59Z</time>
      </trkpt>
      <trkpt lat="43.79199" lon="7.24929">
        <ele>653</ele>
        <time>2018-05-11T15:48:59Z</time>
      </trkpt>
      <trkpt lat="43.79202" lon="7.24931">
        <ele>652</ele>
        <time>2018-05-11T15:49:59Z</time>
      </trkpt>
      <trkpt lat="43.79203" lon="7.24931">
        <ele>652</ele>
        <time>2018-05-11T15:50:59Z</time>
      </trkpt>
      <trkpt lat="43.79205" lon="7.24932">
        <ele>651</ele>
        <time>2018-05-11T15:51:59Z</time>
      </trkpt>
      <trkpt lat="43.79209" lon="7.24932">
        <ele>650</ele>
        <time>2018-05-11T15:52:59Z</time>
      </trkpt>
      <trkpt lat="43.79216" lon="7.2493">
        <ele>649</ele>
        <time>2018-05-11T15:53:59Z</time>
      </trkpt>
      <trkpt lat="43.79218" lon="7.2493">
        <ele>649</ele>
        <time>2018-05-11T15:54:59Z</time>
      </trkpt>
      <trkpt lat="43.79217" lon="7.2493">
        <ele>649</ele>
        <time>2018-05-11T15:55:59Z</time>
      </trkpt>
      <trkpt lat="43.79216" lon="7.24931">
        <ele>649</ele>
        <time>2018-05-11T15:56:59Z</time>
      </trkpt>
      <trkpt lat="43.79216" lon="7.24932">
        <ele>649</ele>
        <time>2018-05-11T15:57:59Z</time>
      </trkpt>
      <trkpt lat="43.79215" lon="7.24934">
        <ele>648</ele>
        <time>2018-05-11T15:58:59Z</time>
      </trkpt>
      <trkpt lat="43.79215" lon="7.24939">
        <ele>647</ele>
        <time>2018-05-11T15:59:59Z</time>
      </trkpt>
      <trkpt lat="43.79215" lon="7.2494">
        <ele>647</ele>
        <time>2018-05-11T16:00:59Z</time>
      </trkpt>
      <trkpt lat="43.79213" lon="7.24944">
        <ele>646</ele>
        <time>2018-05-11T16:01:59Z</time>
      </trkpt>
      <trkpt lat="43.79213" lon="7.24945">
        <ele>646</ele>
        <time>2018-05-11T16:02:59Z</time>
      </trkpt>
      <trkpt lat="43.79216" lon="7.24945">
        <ele>645</ele>
        <time>2018-05-11T16:03:59Z</time>
      </trkpt>
      <trkpt lat="43.79219" lon="7.24944">
        <ele>645</ele>
        <time>2018-05-11T16:04:59Z</time>
      </trkpt>
      <trkpt lat="43.79232" lon="7.24943">
        <ele>642</ele>
        <time>2018-05-11T16:05:59Z</time>
      </trkpt>
      <trkpt lat="43.79234" lon="7.24942">
        <ele>642</ele>
        <time>2018-05-11T16:06:59Z</time>
      </trkpt>
      <trkpt lat="43.79235" lon="7.24943">
        <ele>641</ele>
        <time>2018-05-11T16:07:59Z</time>
      </trkpt>
      <trkpt lat="43.79237" lon="7.24944">
        <ele>640</ele>
        <time>2018-05-11T16:08:59Z</time>
      </trkpt>
      <trkpt lat="43.79238" lon="7.24944">
        <ele>640</ele>
        <time>2018-05-11T16:09:59Z</time>
      </trkpt>
      <trkpt lat="43.7924" lon="7.24945">
        <ele>639</ele>
        <time>2018-05-11T16:10:59Z</time>
      </trkpt>
      <trkpt lat="43.79245" lon="7.24948">
        <ele>637</ele>
        <time>2018-05-11T16:11:59Z</time>
      </trkpt>
      <trkpt lat="43.7925" lon="7.2495">
        <ele>635</ele>
        <time>2018-05-11T16:12:59Z</time>
      </trkpt>
      <trkpt lat="43.79258" lon="7.24963">
        <ele>631</ele>
        <time>2018-05-11T16:13:59Z</time>
      </trkpt>
      <trkpt lat="43.7926" lon="7.24965">
        <ele>630</ele>
        <time>2018-05-11T16:14:59Z</time>
      </trkpt>
      <trkpt lat="43.79261" lon="7.24968">
        <ele>629</ele>
        <time>2018-05-11T16:15:59Z</time>
      </trkpt>
      <trkpt lat="43.79261" lon="7.24976">
        <ele>627</ele>
        <time>2018-05-11T16:16:59Z</time>
      </trkpt>
      <trkpt lat="43.79261" lon="7.24977">
        <ele>626</ele>
        <time>2018-05-11T16:17:59Z</time>
      </trkpt>
      <trkpt lat="43.79262" lon="7.24979">
        <ele>626</ele>
        <time>2018-05-11T16:18:59Z</time>
      </trkpt>
      <trkpt lat="43.79263" lon="7.2498">
        <ele>625</ele>
        <time>2018-05-11T16:19:59Z</time>
      </trkpt>
      <trkpt lat="43.79265" lon="7.24981">
        <ele>625</ele>
        <time>2018-05-11T16:20:59Z</time>
      </trkpt>
      <trkpt lat="43.79269" lon="7.24983">
        <ele>623</ele>
        <time>2018-05-11T16:21:59Z</time>
      </trkpt>
      <trkpt lat="43.79268" lon="7.24994">
        <ele>620</ele>
        <time>2018-05-11T16:22:59Z</time>
      </trkpt>
      <trkpt lat="43.79268" lon="7.24998">
        <ele>619</ele>
        <time>2018-05-11T16:23:59Z</time>
      </trkpt>
      <trkpt lat="43.79267" lon="7.25005">
        <ele>617</ele>
        <time>2018-05-11T16:24:59Z</time>
      </trkpt>
      <trkpt lat="43.79265" lon="7.25012">
        <ele>615</ele>
        <time>2018-05-11T16:25:59Z</time>
      </trkpt>
      <trkpt lat="43.79258" lon="7.25018">
        <ele>614</ele>
        <time>2018-05-11T16:26:59Z</time>
      </trkpt>
      <trkpt lat="43.79255" lon="7.2502">
        <ele>614</ele>
        <time>2018-05-11T16:27:59Z</time>
      </trkpt>
      <trkpt lat="43.79242" lon="7.25027">
        <ele>615</ele>
        <time>2018-05-11T16:28:59Z</time>
      </trkpt>
      <trkpt lat="43.79235" lon="7.25031">
        <ele>616</ele>
        <time>2018-05-11T16:29:59Z</time>
      </trkpt>
      <trkpt lat="43.79212" lon="7.25041">
        <ele>619</ele>
        <time>2018-05-11T16:30:59Z</time>
      </trkpt>
      <trkpt lat="43.79206" lon="7.25044">
        <ele>619</ele>
        <time>2018-05-11T16:31:59Z</time>
      </trkpt>
      <trkpt lat="43.79202" lon="7.25051">
        <ele>618</ele>
        <time>2018-05-11T16:32:59Z</time>
      </trkpt>
      <trkpt lat="43.79199" lon="7.25056">
        <ele>617</ele>
        <time>2018-05-11T16:33:59Z</time>
      </trkpt>
      <trkpt lat="43.7919" lon="7.25064">
        <ele>617</ele>
        <time>2018-05-11T16:34:59Z</time>
      </trkpt>
      <trkpt lat="43.79189" lon="7.25065">
        <ele>617</ele>
        <time>2018-05-11T16:35:59Z</time>
      </trkpt>
      <trkpt lat="43.79184" lon="7.25073">
        <ele>615</ele>
        <time>2018-05-11T16:36:59Z</time>
      </trkpt>
      <trkpt lat="43.79181" lon="7.25082">
        <ele>613</ele>
        <time>2018-05-11T16:37:59Z</time>
      </trkpt>
      <trkpt lat="43.79167" lon="7.25107">
        <ele>607</ele>
        <time>2018-05-11T16:38:59Z</time>
      </trkpt>
      <trkpt lat="43.79164" lon="7.2511">
        <ele>607</ele>
        <time>2018-05-11T16:39:59Z</time>
      </trkpt>
      <trkpt lat="43.79151" lon="7.25143">
        <ele>598</ele>
        <time>2018-05-11T16:40:59Z</time>
      </trkpt>
      <trkpt lat="43.79148" lon="7.2515">
        <ele>596</ele>
        <time>2018-05-11T16:41:59Z</time>
      </trkpt>
      <trkpt lat="43.79148" lon="7.25153">
        <ele>595</ele>
        <time>2018-05-11T16:42:59Z</time>
      </trkpt>
      <trkpt lat="43.79147" lon="7.25155">
        <ele>595</ele>
        <time>2018-05-11T16:43:59Z</time>
      </trkpt>
      <trkpt lat="43.79142" lon="7.25162">
        <ele>594</ele>
        <time>2018-05-11T16:44:59Z</time>
      </trkpt>
      <trkpt lat="43.7914" lon="7.25164">
        <ele>594</ele>
        <time>2018-05-11T16:45:59Z</time>
      </trkpt>
      <trkpt lat="43.79139" lon="7.25166">
        <ele>593</ele>
        <time>2018-05-11T16:46:59Z</time>
      </trkpt>
      <trkpt lat="43.79141" lon="7.25168">
        <ele>592</ele>
        <time>2018-05-11T16:47:59Z</time>
      </trkpt>
      <trkpt lat="43.79141" lon="7.25171">
        <ele>591</ele>
        <time>2018-05-11T16:48:59Z</time>
      </trkpt>
      <trkpt lat="43.79136" lon="7.2518">
        <ele>589</ele>
        <time>2018-05-11T16:49:59Z</time>
      </trkpt>
      <trkpt lat="43.79128" lon="7.25198">
        <ele>584</ele>
        <time>2018-05-11T16:50:59Z</time>
      </trkpt>
      <trkpt lat="43.79125" lon="7.25205">
        <ele>582</ele>
        <time>2018-05-11T16:51:59Z</time>
      </trkpt>
      <trkpt lat="43.79121" lon="7.2521">
        <ele>581</ele>
        <time>2018-05-11T16:52:59Z</time>
      </trkpt>
      <trkpt lat="43.79119" lon="7.2521">
        <ele>581</ele>
        <time>2018-05-11T16:53:59Z</time>
      </trkpt>
      <trkpt lat="43.79118" lon="7.25211">
        <ele>581</ele>
        <time>2018-05-11T16:54:59Z</time>
      </trkpt>
      <trkpt lat="43.79111" lon="7.2522">
        <ele>580</ele>
        <time>2018-05-11T16:55:59Z</time>
      </trkpt>
      <trkpt lat="43.79108" lon="7.25225">
        <ele>579</ele>
        <time>2018-05-11T16:56:59Z</time>
      </trkpt>
      <trkpt lat="43.79098" lon="7.25232">
        <ele>579</ele>
        <time>2018-05-11T16:57:59Z</time>
      </trkpt>
      <trkpt lat="43.79096" lon="7.25233">
        <ele>579</ele>
        <time>2018-05-11T16:58:59Z</time>
      </trkpt>
      <trkpt lat="43.79094" lon="7.25233">
        <ele>579</ele>
        <time>2018-05-11T16:59:59Z</time>
      </trkpt>
      <trkpt lat="43.79087" lon="7.25232">
        <ele>582</ele>
        <time>2018-05-11T17:00:59Z</time>
      </trkpt>
      <trkpt lat="43.79081" lon="7.2523">
        <ele>583</ele>
        <time>2018-05-11T17:01:59Z</time>
      </trkpt>
      <trkpt lat="43.79074" lon="7.2523">
        <ele>581</ele>
        <time>2018-05-11T17:02:59Z</time>
      </trkpt>
      <trkpt lat="43.79068" lon="7.25228">
        <ele>580</ele>
        <time>2018-05-11T17:03:59Z</time>
      </trkpt>
      <trkpt lat="43.79064" lon="7.25221">
        <ele>581</ele>
        <time>2018-05-11T17:04:59Z</time>
      </trkpt>
      <trkpt lat="43.79055" lon="7.25211">
        <ele>582</ele>
        <time>2018-05-11T17:05:59Z</time>
      </trkpt>
      <trkpt lat="43.79051" lon="7.25206">
        <ele>583</ele>
        <time>2018-05-11T17:06:59Z</time>
      </trkpt>
      <trkpt lat="43.79048" lon="7.25201">
        <ele>583</ele>
        <time>2018-05-11T17:07:59Z</time>
      </trkpt>
      <trkpt lat="43.79043" lon="7.25191">
        <ele>585</ele>
        <time>2018-05-11T17:08:59Z</time>
      </trkpt>
      <trkpt lat="43.7904" lon="7.25189">
        <ele>584</ele>
        <time>2018-05-11T17:09:59Z</time>
      </trkpt>
      <trkpt lat="43.79038" lon="7.25187">
        <ele>584</ele>
        <time>2018-05-11T17:10:59Z</time>
      </trkpt>
      <trkpt lat="43.79036" lon="7.25182">
        <ele>585</ele>
        <time>2018-05-11T17:11:59Z</time>
      </trkpt>
      <trkpt lat="43.79027" lon="7.25169">
        <ele>586</ele>
        <time>2018-05-11T17:12:59Z</time>
      </trkpt>
      <trkpt lat="43.7902" lon="7.25159">
        <ele>586</ele>
        <time>2018-05-11T17:13:59Z</time>
      </trkpt>
      <trkpt lat="43.79017" lon="7.25155">
        <ele>586</ele>
        <time>2018-05-11T17:14:59Z</time>
      </trkpt>
      <trkpt lat="43.79011" lon="7.25146">
        <ele>586</ele>
        <time>2018-05-11T17:15:59Z</time>
      </trkpt>
      <trkpt lat="43.78981" lon="7.25092">
        <ele>590</ele>
        <time>2018-05-11T17:16:59Z</time>
      </trkpt>
      <trkpt lat="43.78975" lon="7.25083">
        <ele>590</ele>
        <time>2018-05-11T17:17:59Z</time>
      </trkpt>
      <trkpt lat="43.7897" lon="7.2507">
        <ele>592</ele>
        <time>2018-05-11T17:18:59Z</time>
      </trkpt>
      <trkpt lat="43.78966" lon="7.25061">
        <ele>593</ele>
        <time>2018-05-11T17:19:59Z</time>
      </trkpt>
      <trkpt lat="43.78953" lon="7.2504">
        <ele>596</ele>
        <time>2018-05-11T17:20:59Z</time>
      </trkpt>
      <trkpt lat="43.78949" lon="7.25037">
        <ele>596</ele>
        <time>2018-05-11T17:21:59Z</time>
      </trkpt>
      <trkpt lat="43.78939" lon="7.25034">
        <ele>594</ele>
        <time>2018-05-11T17:22:59Z</time>
      </trkpt>
      <trkpt lat="43.78922" lon="7.25036">
        <ele>590</ele>
        <time>2018-05-11T17:23:59Z</time>
      </trkpt>
      <trkpt lat="43.78911" lon="7.25038">
        <ele>588</ele>
        <time>2018-05-11T17:24:59Z</time>
      </trkpt>
      <trkpt lat="43.78858" lon="7.2505">
        <ele>582</ele>
        <time>2018-05-11T17:25:59Z</time>
      </trkpt>
      <trkpt lat="43.78842" lon="7.25053">
        <ele>581</ele>
        <time>2018-05-11T17:26:59Z</time>
      </trkpt>
      <trkpt lat="43.78831" lon="7.25053">
        <ele>581</ele>
        <time>2018-05-11T17:27:59Z</time>
      </trkpt>
      <trkpt lat="43.78825" lon="7.25053">
        <ele>580</ele>
        <time>2018-05-11T17:28:59Z</time>
      </trkpt>
      <trkpt lat="43.788" lon="7.25049">
        <ele>578</ele>
        <time>2018-05-11T17:29:59Z</time>
      </trkpt>
      <trkpt lat="43.7877" lon="7.25041">
        <ele>575</ele>
        <time>2018-05-11T17:30:59Z</time>
      </trkpt>
      <trkpt lat="43.78761" lon="7.2504">
        <ele>574</ele>
        <time>2018-05-11T17:31:59Z</time>
      </trkpt>
      <trkpt lat="43.78752" lon="7.25042">
        <ele>572</ele>
        <time>2018-05-11T17:32:59Z</time>
      </trkpt>
      <trkpt lat="43.78732" lon="7.25047">
        <ele>571</ele>
        <time>2018-05-11T17:33:59Z</time>
      </trkpt>
      <trkpt lat="43.78694" lon="7.25061">
        <ele>570</ele>
        <time>2018-05-11T17:34:59Z</time>
      </trkpt>
      <trkpt lat="43.78685" lon="7.25065">
        <ele>570</ele>
        <time>2018-05-11T17:35:59Z</time>
      </trkpt>
      <trkpt lat="43.78658" lon="7.25071">
        <ele>570</ele>
        <time>2018-05-11T17:36:59Z</time>
      </trkpt>
      <trkpt lat="43.78636" lon="7.25077">
        <ele>571</ele>
        <time>2018-05-11T17:37:59Z</time>
      </trkpt>
      <trkpt lat="43.78578" lon="7.25095">
        <ele>571</ele>
        <time>2018-05-11T17:38:59Z</time>
      </trkpt>
      <trkpt lat="43.78562" lon="7.25101">
        <ele>570</ele>
        <time>2018-05-11T17:39:59Z</time>
      </trkpt>
      <trkpt lat="43.78558" lon="7.25099">
        <ele>570</ele>
        <time>2018-05-11T17:40:59Z</time>
      </trkpt>
      <trkpt lat="43.78551" lon="7.25094">
        <ele>571</ele>
        <time>2018-05-11T17:41:59Z</time>
      </trkpt>
      <trkpt lat="43.78544" lon="7.25093">
        <ele>571</ele>
        <time>2018-05-11T17:42:59Z</time>
      </trkpt>
      <trkpt lat="43.78532" lon="7.25095">
        <ele>571</ele>
        <time>2018-05-11T17:43:59Z</time>
      </trkpt>
      <trkpt lat="43.78528" lon="7.25096">
        <ele>571</ele>
        <time>2018-05-11T17:44:59Z</time>
      </trkpt>
      <trkpt lat="43.78524" lon="7.25099">
        <ele>570</ele>
        <time>2018-05-11T17:45:59Z</time>
      </trkpt>
      <trkpt lat="43.7852" lon="7.25101">
        <ele>570</ele>
        <time>2018-05-11T17:46:59Z</time>
      </trkpt>
      <trkpt lat="43.78515" lon="7.25104">
        <ele>570</ele>
        <time>2018-05-11T17:47:59Z</time>
      </trkpt>
      <trkpt lat="43.78512" lon="7.25109">
        <ele>569</ele>
        <time>2018-05-11T17:48:59Z</time>
      </trkpt>
      <trkpt lat="43.78508" lon="7.25112">
        <ele>569</ele>
        <time>2018-05-11T17:49:59Z</time>
      </trkpt>
      <trkpt lat="43.78498" lon="7.25117">
        <ele>568</ele>
        <time>2018-05-11T17:50:59Z</time>
      </trkpt>
      <trkpt lat="43.78486" lon="7.25123">
        <ele>566</ele>
        <time>2018-05-11T17:51:59Z</time>
      </trkpt>
      <trkpt lat="43.78463" lon="7.25141">
        <ele>562</ele>
        <time>2018-05-11T17:52:59Z</time>
      </trkpt>
      <trkpt lat="43.78457" lon="7.25146">
        <ele>562</ele>
        <time>2018-05-11T17:53:59Z</time>
      </trkpt>
      <trkpt lat="43.78438" lon="7.25164">
        <ele>561</ele>
        <time>2018-05-11T17:54:59Z</time>
      </trkpt>
      <trkpt lat="43.78424" lon="7.25176">
        <ele>559</ele>
        <time>2018-05-11T17:55:59Z</time>
      </trkpt>
      <trkpt lat="43.78395" lon="7.25205">
        <ele>552</ele>
        <time>2018-05-11T17:56:59Z</time>
      </trkpt>
      <trkpt lat="43.78391" lon="7.25208">
        <ele>551</ele>
        <time>2018-05-11T17:57:59Z</time>
      </trkpt>
      <trkpt lat="43.78379" lon="7.25208">
        <ele>550</ele>
        <time>2018-05-11T17:58:59Z</time>
      </trkpt>
      <trkpt lat="43.78372" lon="7.25209">
        <ele>549</ele>
        <time>2018-05-11T17:59:59Z</time>
      </trkpt>
      <trkpt lat="43.78365" lon="7.25204">
        <ele>549</ele>
        <time>2018-05-11T18:00:59Z</time>
      </trkpt>
      <trkpt lat="43.78357" lon="7.2519">
        <ele>548</ele>
        <time>2018-05-11T18:01:59Z</time>
      </trkpt>
      <trkpt lat="43.7836" lon="7.25179">
        <ele>548</ele>
        <time>2018-05-11T18:02:59Z</time>
      </trkpt>
      <trkpt lat="43.78371" lon="7.25162">
        <ele>550</ele>
        <time>2018-05-11T18:03:59Z</time>
      </trkpt>
      <trkpt lat="43.78378" lon="7.25155">
        <ele>550</ele>
        <time>2018-05-11T18:04:59Z</time>
      </trkpt>
      <trkpt lat="43.78378" lon="7.25151">
        <ele>550</ele>
        <time>2018-05-11T18:05:59Z</time>
      </trkpt>
      <trkpt lat="43.78376" lon="7.2515">
        <ele>549</ele>
        <time>2018-05-11T18:06:59Z</time>
      </trkpt>
      <trkpt lat="43.78374" lon="7.25151">
        <ele>549</ele>
        <time>2018-05-11T18:07:59Z</time>
      </trkpt>
      <trkpt lat="43.78281" lon="7.25208">
        <ele>540</ele>
        <time>2018-05-11T18:08:59Z</time>
      </trkpt>
      <trkpt lat="43.78296" lon="7.25159">
        <ele>536</ele>
        <time>2018-05-11T18:09:59Z</time>
      </trkpt>
      <trkpt lat="43.78281" lon="7.25148">
        <ele>533</ele>
        <time>2018-05-11T18:10:59Z</time>
      </trkpt>
      <trkpt lat="43.78213" lon="7.2526">
        <ele>538</ele>
        <time>2018-05-11T18:11:59Z</time>
      </trkpt>
      <trkpt lat="43.78206" lon="7.25267">
        <ele>537</ele>
        <time>2018-05-11T18:12:59Z</time>
      </trkpt>
      <trkpt lat="43.78201" lon="7.25274">
        <ele>536</ele>
        <time>2018-05-11T18:13:59Z</time>
      </trkpt>
      <trkpt lat="43.78198" lon="7.25281">
        <ele>535</ele>
        <time>2018-05-11T18:14:59Z</time>
      </trkpt>
      <trkpt lat="43.78192" lon="7.2529">
        <ele>534</ele>
        <time>2018-05-11T18:15:59Z</time>
      </trkpt>
      <trkpt lat="43.78189" lon="7.2529">
        <ele>533</ele>
        <time>2018-05-11T18:16:59Z</time>
      </trkpt>
      <trkpt lat="43.78178" lon="7.25278">
        <ele>532</ele>
        <time>2018-05-11T18:17:59Z</time>
      </trkpt>
      <trkpt lat="43.78169" lon="7.25268">
        <ele>532</ele>
        <time>2018-05-11T18:18:59Z</time>
      </trkpt>
      <trkpt lat="43.78157" lon="7.25254">
        <ele>536</ele>
        <time>2018-05-11T18:19:59Z</time>
      </trkpt>
      <trkpt lat="43.78154" lon="7.25239">
        <ele>540</ele>
        <time>2018-05-11T18:20:59Z</time>
      </trkpt>
      <trkpt lat="43.78156" lon="7.25231">
        <ele>541</ele>
        <time>2018-05-11T18:21:59Z</time>
      </trkpt>
      <trkpt lat="43.78162" lon="7.25218">
        <ele>540</ele>
        <time>2018-05-11T18:22:59Z</time>
      </trkpt>
      <trkpt lat="43.78181" lon="7.2519">
        <ele>541</ele>
        <time>2018-05-11T18:23:59Z</time>
      </trkpt>
      <trkpt lat="43.78214" lon="7.25133">
        <ele>539</ele>
        <time>2018-05-11T18:24:59Z</time>
      </trkpt>
      <trkpt lat="43.78218" lon="7.25124">
        <ele>538</ele>
        <time>2018-05-11T18:25:59Z</time>
      </trkpt>
      <trkpt lat="43.7822" lon="7.25115">
        <ele>537</ele>
        <time>2018-05-11T18:26:59Z</time>
      </trkpt>
      <trkpt lat="43.78223" lon="7.25107">
        <ele>537</ele>
        <time>2018-05-11T18:27:59Z</time>
      </trkpt>
      <trkpt lat="43.78224" lon="7.25099">
        <ele>536</ele>
        <time>2018-05-11T18:28:59Z</time>
      </trkpt>
      <trkpt lat="43.78225" lon="7.2509">
        <ele>536</ele>
        <time>2018-05-11T18:29:59Z</time>
      </trkpt>
      <trkpt lat="43.78224" lon="7.25088">
        <ele>537</ele>
        <time>2018-05-11T18:30:59Z</time>
      </trkpt>
      <trkpt lat="43.78224" lon="7.25084">
        <ele>537</ele>
        <time>2018-05-11T18:31:59Z</time>
      </trkpt>
      <trkpt lat="43.78224" lon="7.25076">
        <ele>537</ele>
        <time>2018-05-11T18:32:59Z</time>
      </trkpt>
      <trkpt lat="43.78225" lon="7.25071">
        <ele>537</ele>
        <time>2018-05-11T18:33:59Z</time>
      </trkpt>
      <trkpt lat="43.78224" lon="7.25066">
        <ele>537</ele>
        <time>2018-05-11T18:34:59Z</time>
      </trkpt>
      <trkpt lat="43.78224" lon="7.25059">
        <ele>537</ele>
        <time>2018-05-11T18:35:59Z</time>
      </trkpt>
      <trkpt lat="43.78225" lon="7.25056">
        <ele>537</ele>
        <time>2018-05-11T18:36:59Z</time>
      </trkpt>
      <trkpt lat="43.78224" lon="7.25053">
        <ele>537</ele>
        <time>2018-05-11T18:37:59Z</time>
      </trkpt>
      <trkpt lat="43.78224" lon="7.25047">
        <ele>538</ele>
        <time>2018-05-11T18:38:59Z</time>
      </trkpt>
      <trkpt lat="43.78224" lon="7.25036">
        <ele>538</ele>
        <time>2018-05-11T18:39:59Z</time>
      </trkpt>
      <trkpt lat="43.78223" lon="7.25029">
        <ele>539</ele>
        <time>2018-05-11T18:40:59Z</time>
      </trkpt>
      <trkpt lat="43.78221" lon="7.25013">
        <ele>540</ele>
        <time>2018-05-11T18:41:59Z</time>
      </trkpt>
      <trkpt lat="43.78221" lon="7.25005">
        <ele>540</ele>
        <time>2018-05-11T18:42:59Z</time>
      </trkpt>
      <trkpt lat="43.78219" lon="7.25">
        <ele>541</ele>
        <time>2018-05-11T18:43:59Z</time>
      </trkpt>
      <trkpt lat="43.78217" lon="7.24997">
        <ele>542</ele>
        <time>2018-05-11T18:44:59Z</time>
      </trkpt>
      <trkpt lat="43.78214" lon="7.24991">
        <ele>543</ele>
        <time>2018-05-11T18:45:59Z</time>
      </trkpt>
      <trkpt lat="43.78211" lon="7.24978">
        <ele>544</ele>
        <time>2018-05-11T18:46:59Z</time>
      </trkpt>
      <trkpt lat="43.78211" lon="7.2497">
        <ele>543</ele>
        <time>2018-05-11T18:47:59Z</time>
      </trkpt>
      <trkpt lat="43.78207" lon="7.24956">
        <ele>544</ele>
        <time>2018-05-11T18:48:59Z</time>
      </trkpt>
      <trkpt lat="43.78207" lon="7.24953">
        <ele>544</ele>
        <time>2018-05-11T18:49:59Z</time>
      </trkpt>
      <trkpt lat="43.78205" lon="7.24949">
        <ele>545</ele>
        <time>2018-05-11T18:50:59Z</time>
      </trkpt>
      <trkpt lat="43.78203" lon="7.24943">
        <ele>545</ele>
        <time>2018-05-11T18:51:59Z</time>
      </trkpt>
      <trkpt lat="43.78202" lon="7.2494">
        <ele>545</ele>
        <time>2018-05-11T18:52:59Z</time>
      </trkpt>
      <trkpt lat="43.782" lon="7.24938">
        <ele>546</ele>
        <time>2018-05-11T18:53:59Z</time>
      </trkpt>
      <trkpt lat="43.78194" lon="7.24934">
        <ele>548</ele>
        <time>2018-05-11T18:54:59Z</time>
      </trkpt>
      <trkpt lat="43.7819" lon="7.2493">
        <ele>550</ele>
        <time>2018-05-11T18:55:59Z</time>
      </trkpt>
      <trkpt lat="43.78186" lon="7.24923">
        <ele>551</ele>
        <time>2018-05-11T18:56:59Z</time>
      </trkpt>
      <trkpt lat="43.78184" lon="7.2492">
        <ele>551</ele>
        <time>2018-05-11T18:57:59Z</time>
      </trkpt>
      <trkpt lat="43.78171" lon="7.24908">
        <ele>554</ele>
        <time>2018-05-11T18:58:59Z</time>
      </trkpt>
      <trkpt lat="43.78169" lon="7.24906">
        <ele>555</ele>
        <time>2018-05-11T18:59:59Z</time>
      </trkpt>
      <trkpt lat="43.78149" lon="7.24893">
        <ele>559</ele>
        <time>2018-05-11T19:00:59Z</time>
      </trkpt>
      <trkpt lat="43.78145" lon="7.24891">
        <ele>559</ele>
        <time>2018-05-11T19:01:59Z</time>
      </trkpt>
      <trkpt lat="43.78139" lon="7.24887">
        <ele>560</ele>
        <time>2018-05-11T19:02:59Z</time>
      </trkpt>
      <trkpt lat="43.78129" lon="7.24882">
        <ele>563</ele>
        <time>2018-05-11T19:03:59Z</time>
      </trkpt>
      <trkpt lat="43.78124" lon="7.24881">
        <ele>564</ele>
        <time>2018-05-11T19:04:59Z</time>
      </trkpt>
      <trkpt lat="43.78123" lon="7.2488">
        <ele>564</ele>
        <time>2018-05-11T19:05:59Z</time>
      </trkpt>
      <trkpt lat="43.7811" lon="7.24879">
        <ele>568</ele>
        <time>2018-05-11T19:06:59Z</time>
      </trkpt>
      <trkpt lat="43.78107" lon="7.24879">
        <ele>569</ele>
        <time>2018-05-11T19:07:59Z</time>
      </trkpt>
      <trkpt lat="43.78106" lon="7.24879">
        <ele>569</ele>
        <time>2018-05-11T19:08:59Z</time>
      </trkpt>
      <trkpt lat="43.78105" lon="7.24879">
        <ele>570</ele>
        <time>2018-05-11T19:09:59Z</time>
      </trkpt>
      <trkpt lat="43.78101" lon="7.24881">
        <ele>571</ele>
        <time>2018-05-11T19:10:59Z</time>
      </trkpt>
      <trkpt lat="43.781" lon="7.24882">
        <ele>572</ele>
        <time>2018-05-11T19:11:59Z</time>
      </trkpt>
      <trkpt lat="43.78098" lon="7.2488">
        <ele>572</ele>
        <time>2018-05-11T19:12:59Z</time>
      </trkpt>
      <trkpt lat="43.78096" lon="7.24879">
        <ele>573</ele>
        <time>2018-05-11T19:13:59Z</time>
      </trkpt>
      <trkpt lat="43.7809" lon="7.24881">
        <ele>575</ele>
        <time>2018-05-11T19:14:59Z</time>
      </trkpt>
      <trkpt lat="43.78085" lon="7.24883">
        <ele>577</ele>
        <time>2018-05-11T19:15:59Z</time>
      </trkpt>
      <trkpt lat="43.78083" lon="7.24884">
        <ele>578</ele>
        <time>2018-05-11T19:16:59Z</time>
      </trkpt>
      <trkpt lat="43.78076" lon="7.24882">
        <ele>580</ele>
        <time>2018-05-11T19:17:59Z</time>
      </trkpt>
      <trkpt lat="43.78073" lon="7.24882">
        <ele>580</ele>
        <time>2018-05-11T19:18:59Z</time>
      </trkpt>
      <trkpt lat="43.7807" lon="7.24883">
        <ele>581</ele>
        <time>2018-05-11T19:19:59Z</time>
      </trkpt>
      <trkpt lat="43.78069" lon="7.24883">
        <ele>582</ele>
        <time>2018-05-11T19:20:59Z</time>
      </trkpt>
      <trkpt lat="43.78059" lon="7.24884">
        <ele>585</ele>
        <time>2018-05-11T19:21:59Z</time>
      </trkpt>
      <trkpt lat="43.78058" lon="7.24885">
        <ele>585</ele>
        <time>2018-05-11T19:22:59Z</time>
      </trkpt>
      <trkpt lat="43.78051" lon="7.24883">
        <ele>587</ele>
        <time>2018-05-11T19:23:59Z</time>
      </trkpt>
      <trkpt lat="43.78047" lon="7.24882">
        <ele>588</ele>
        <time>2018-05-11T19:24:59Z</time>
      </trkpt>
      <trkpt lat="43.78034" lon="7.24882">
        <ele>592</ele>
        <time>2018-05-11T19:25:59Z</time>
      </trkpt>
      <trkpt lat="43.78032" lon="7.24883">
        <ele>593</ele>
        <time>2018-05-11T19:26:59Z</time>
      </trkpt>
      <trkpt lat="43.78029" lon="7.24883">
        <ele>594</ele>
        <time>2018-05-11T19:27:59Z</time>
      </trkpt>
      <trkpt lat="43.78026" lon="7.24882">
        <ele>594</ele>
        <time>2018-05-11T19:28:59Z</time>
      </trkpt>
      <trkpt lat="43.78025" lon="7.24881">
        <ele>594</ele>
        <time>2018-05-11T19:29:59Z</time>
      </trkpt>
      <trkpt lat="43.78015" lon="7.24882">
        <ele>598</ele>
        <time>2018-05-11T19:30:59Z</time>
      </trkpt>
      <trkpt lat="43.78011" lon="7.24882">
        <ele>599</ele>
        <time>2018-05-11T19:31:59Z</time>
      </trkpt>
      <trkpt lat="43.78006" lon="7.24879">
        <ele>600</ele>
        <time>2018-05-11T19:32:59Z</time>
      </trkpt>
      <trkpt lat="43.78003" lon="7.24878">
        <ele>600</ele>
        <time>2018-05-11T19:33:59Z</time>
      </trkpt>
      <trkpt lat="43.77997" lon="7.24877">
        <ele>602</ele>
        <time>2018-05-11T19:34:59Z</time>
      </trkpt>
      <trkpt lat="43.77993" lon="7.24876">
        <ele>602</ele>
        <time>2018-05-11T19:35:59Z</time>
      </trkpt>
      <trkpt lat="43.77985" lon="7.2487">
        <ele>603</ele>
        <time>2018-05-11T19:36:59Z</time>
      </trkpt>
      <trkpt lat="43.77984" lon="7.24852">
        <ele>600</ele>
        <time>2018-05-11T19:37:59Z</time>
      </trkpt>
      <trkpt lat="43.77983" lon="7.24845">
        <ele>599</ele>
        <time>2018-05-11T19:38:59Z</time>
      </trkpt>
      <trkpt lat="43.7798" lon="7.2483">
        <ele>598</ele>
        <time>2018-05-11T19:39:59Z</time>
      </trkpt>
      <trkpt lat="43.77979" lon="7.24828">
        <ele>598</ele>
        <time>2018-05-11T19:40:59Z</time>
      </trkpt>
      <trkpt lat="43.77979" lon="7.24822">
        <ele>597</ele>
        <time>2018-05-11T19:41:59Z</time>
      </trkpt>
      <trkpt lat="43.7798" lon="7.2482">
        <ele>597</ele>
        <time>2018-05-11T19:42:59Z</time>
      </trkpt>
      <trkpt lat="43.77977" lon="7.24814">
        <ele>597</ele>
        <time>2018-05-11T19:43:59Z</time>
      </trkpt>
      <trkpt lat="43.77974" lon="7.24807">
        <ele>597</ele>
        <time>2018-05-11T19:44:59Z</time>
      </trkpt>
      <trkpt lat="43.77972" lon="7.24802">
        <ele>598</ele>
        <time>2018-05-11T19:45:59Z</time>
      </trkpt>
      <trkpt lat="43.7797" lon="7.24795">
        <ele>597</ele>
        <time>2018-05-11T19:46:59Z</time>
      </trkpt>
      <trkpt lat="43.77969" lon="7.24798">
        <ele>598</ele>
        <time>2018-05-11T19:47:59Z</time>
      </trkpt>
      <trkpt lat="43.77967" lon="7.24804">
        <ele>599</ele>
        <time>2018-05-11T19:48:59Z</time>
      </trkpt>
      <trkpt lat="43.77965" lon="7.24805">
        <ele>600</ele>
        <time>2018-05-11T19:49:59Z</time>
      </trkpt>
      <trkpt lat="43.77962" lon="7.24807">
        <ele>601</ele>
        <time>2018-05-11T19:50:59Z</time>
      </trkpt>
      <trkpt lat="43.77959" lon="7.24812">
        <ele>602</ele>
        <time>2018-05-11T19:51:59Z</time>
      </trkpt>
      <trkpt lat="43.77957" lon="7.24816">
        <ele>603</ele>
        <time>2018-05-11T19:52:59Z</time>
      </trkpt>
      <trkpt lat="43.77954" lon="7.2482">
        <ele>605</ele>
        <time>2018-05-11T19:53:59Z</time>
      </trkpt>
      <trkpt lat="43.77953" lon="7.24822">
        <ele>605</ele>
        <time>2018-05-11T19:54:59Z</time>
      </trkpt>
      <trkpt lat="43.77946" lon="7.2482">
        <ele>607</ele>
        <time>2018-05-11T19:55:59Z</time>
      </trkpt>
      <trkpt lat="43.77943" lon="7.2482">
        <ele>608</ele>
        <time>2018-05-11T19:56:59Z</time>
      </trkpt>
      <trkpt lat="43.77939" lon="7.24818">
        <ele>609</ele>
        <time>2018-05-11T19:57:59Z</time>
      </trkpt>
      <trkpt lat="43.77937" lon="7.24818">
        <ele>609</ele>
        <time>2018-05-11T19:58:59Z</time>
      </trkpt>
      <trkpt lat="43.77935" lon="7.24812">
        <ele>609</ele>
        <time>2018-05-11T19:59:59Z</time>
      </trkpt>
      <trkpt lat="43.77934" lon="7.24809">
        <ele>609</ele>
        <time>2018-05-11T20:00:59Z</time>
      </trkpt>
      <trkpt lat="43.77926" lon="7.2481">
        <ele>612</ele>
        <time>2018-05-11T20:01:59Z</time>
      </trkpt>
      <trkpt lat="43.77925" lon="7.2481">
        <ele>612</ele>
        <time>2018-05-11T20:02:59Z</time>
      </trkpt>
      <trkpt lat="43.77918" lon="7.24809">
        <ele>614</ele>
        <time>2018-05-11T20:03:59Z</time>
      </trkpt>
      <trkpt lat="43.77918" lon="7.24809">
        <ele>614</ele>
        <time>2018-05-11T20:04:59Z</time>
      </trkpt>
      <trkpt lat="43.77915" lon="7.24807">
        <ele>614</ele>
        <time>2018-05-11T20:05:59Z</time>
      </trkpt>
      <trkpt lat="43.77912" lon="7.24806">
        <ele>615</ele>
        <time>2018-05-11T20:06:59Z</time>
      </trkpt>
      <trkpt lat="43.7791" lon="7.24808">
        <ele>615</ele>
        <time>2018-05-11T20:07:59Z</time>
      </trkpt>
      <trkpt lat="43.77908" lon="7.2481">
        <ele>616</ele>
        <time>2018-05-11T20:08:59Z</time>
      </trkpt>
      <trkpt lat="43.77906" lon="7.24813">
        <ele>617</ele>
        <time>2018-05-11T20:09:59Z</time>
      </trkpt>
      <trkpt lat="43.77905" lon="7.24814">
        <ele>617</ele>
        <time>2018-05-11T20:10:59Z</time>
      </trkpt>
      <trkpt lat="43.77895" lon="7.24823">
        <ele>620</ele>
        <time>2018-05-11T20:11:59Z</time>
      </trkpt>
      <trkpt lat="43.7789" lon="7.24826">
        <ele>622</ele>
        <time>2018-05-11T20:12:59Z</time>
      </trkpt>
      <trkpt lat="43.77886" lon="7.24831">
        <ele>623</ele>
        <time>2018-05-11T20:13:59Z</time>
      </trkpt>
      <trkpt lat="43.77886" lon="7.24832">
        <ele>623</ele>
        <time>2018-05-11T20:14:59Z</time>
      </trkpt>
      <trkpt lat="43.77881" lon="7.24836">
        <ele>625</ele>
        <time>2018-05-11T20:15:59Z</time>
      </trkpt>
      <trkpt lat="43.77879" lon="7.24837">
        <ele>626</ele>
        <time>2018-05-11T20:16:59Z</time>
      </trkpt>
      <trkpt lat="43.77876" lon="7.24839">
        <ele>627</ele>
        <time>2018-05-11T20:17:59Z</time>
      </trkpt>
      <trkpt lat="43.77871" lon="7.2484">
        <ele>628</ele>
        <time>2018-05-11T20:18:59Z</time>
      </trkpt>
      <trkpt lat="43.77862" lon="7.24846">
        <ele>631</ele>
        <time>2018-05-11T20:19:59Z</time>
      </trkpt>
      <trkpt lat="43.77861" lon="7.24847">
        <ele>631</ele>
        <time>2018-05-11T20:20:59Z</time>
      </trkpt>
      <trkpt lat="43.77856" lon="7.24853">
        <ele>633</ele>
        <time>2018-05-11T20:21:59Z</time>
      </trkpt>
      <trkpt lat="43.77853" lon="7.24857">
        <ele>634</ele>
        <time>2018-05-11T20:22:59Z</time>
      </trkpt>
      <trkpt lat="43.7785" lon="7.2486">
        <ele>636</ele>
        <time>2018-05-11T20:23:59Z</time>
      </trkpt>
      <trkpt lat="43.77847" lon="7.24862">
        <ele>637</ele>
        <time>2018-05-11T20:24:59Z</time>
      </trkpt>
      <trkpt lat="43.77842" lon="7.24865">
        <ele>638</ele>
        <time>2018-05-11T20:25:59Z</time>
      </trkpt>
      <trkpt lat="43.7784" lon="7.24864">
        <ele>639</ele>
        <time>2018-05-11T20:26:59Z</time>
      </trkpt>
      <trkpt lat="43.77831" lon="7.2487">
        <ele>641</ele>
        <time>2018-05-11T20:27:59Z</time>
      </trkpt>
      <trkpt lat="43.7783" lon="7.24871">
        <ele>642</ele>
        <time>2018-05-11T20:28:59Z</time>
      </trkpt>
      <trkpt lat="43.77826" lon="7.24872">
        <ele>642</ele>
        <time>2018-05-11T20:29:59Z</time>
      </trkpt>
      <trkpt lat="43.77824" lon="7.24873">
        <ele>642</ele>
        <time>2018-05-11T20:30:59Z</time>
      </trkpt>
      <trkpt lat="43.77823" lon="7.24875">
        <ele>643</ele>
        <time>2018-05-11T20:31:59Z</time>
      </trkpt>
      <trkpt lat="43.77821" lon="7.24876">
        <ele>643</ele>
        <time>2018-05-11T20:32:59Z</time>
      </trkpt>
      <trkpt lat="43.77817" lon="7.24878">
        <ele>644</ele>
        <time>2018-05-11T20:33:59Z</time>
      </trkpt>
      <trkpt lat="43.77816" lon="7.24879">
        <ele>644</ele>
        <time>2018-05-11T20:34:59Z</time>
      </trkpt>
      <trkpt lat="43.77813" lon="7.24878">
        <ele>644</ele>
        <time>2018-05-11T20:35:59Z</time>
      </trkpt>
      <trkpt lat="43.77809" lon="7.24877">
        <ele>644</ele>
        <time>2018-05-11T20:36:59Z</time>
      </trkpt>
      <trkpt lat="43.77799" lon="7.24875">
        <ele>644</ele>
        <time>2018-05-11T20:37:59Z</time>
      </trkpt>
      <trkpt lat="43.77796" lon="7.24875">
        <ele>645</ele>
        <time>2018-05-11T20:38:59Z</time>
      </trkpt>
      <trkpt lat="43.77793" lon="7.24876">
        <ele>645</ele>
        <time>2018-05-11T20:39:59Z</time>
      </trkpt>
      <trkpt lat="43.77792" lon="7.24876">
        <ele>645</ele>
        <time>2018-05-11T20:40:59Z</time>
      </trkpt>
      <trkpt lat="43.77786" lon="7.24882">
        <ele>647</ele>
        <time>2018-05-11T20:41:59Z</time>
      </trkpt>
      <trkpt lat="43.77783" lon="7.24883">
        <ele>648</ele>
        <time>2018-05-11T20:42:59Z</time>
      </trkpt>
      <trkpt lat="43.77773" lon="7.24894">
        <ele>651</ele>
        <time>2018-05-11T20:43:59Z</time>
      </trkpt>
      <trkpt lat="43.7777" lon="7.24897">
        <ele>652</ele>
        <time>2018-05-11T20:44:59Z</time>
      </trkpt>
      <trkpt lat="43.77769" lon="7.24898">
        <ele>653</ele>
        <time>2018-05-11T20:45:59Z</time>
      </trkpt>
      <trkpt lat="43.7776" lon="7.24901">
        <ele>654</ele>
        <time>2018-05-11T20:46:59Z</time>
      </trkpt>
      <trkpt lat="43.77755" lon="7.24901">
        <ele>655</ele>
        <time>2018-05-11T20:47:59Z</time>
      </trkpt>
      <trkpt lat="43.77752" lon="7.24901">
        <ele>655</ele>
        <time>2018-05-11T20:48:59Z</time>
      </trkpt>
      <trkpt lat="43.77738" lon="7.24905">
        <ele>656</ele>
        <time>2018-05-11T20:49:59Z</time>
      </trkpt>
      <trkpt lat="43.77714" lon="7.24917">
        <ele>659</ele>
        <time>2018-05-11T20:50:59Z</time>
      </trkpt>
      <trkpt lat="43.77689" lon="7.2492">
        <ele>660</ele>
        <time>2018-05-11T20:51:59Z</time>
      </trkpt>
      <trkpt lat="43.77674" lon="7.24911">
        <ele>657</ele>
        <time>2018-05-11T20:52:59Z</time>
      </trkpt>
      <trkpt lat="43.7766" lon="7.24906">
        <ele>656</ele>
        <time>2018-05-11T20:53:59Z</time>
      </trkpt>
      <trkpt lat="43.77648" lon="7.24909">
        <ele>657</ele>
        <time>2018-05-11T20:54:59Z</time>
      </trkpt>
      <trkpt lat="43.77645" lon="7.24909">
        <ele>657</ele>
        <time>2018-05-11T20:55:59Z</time>
      </trkpt>
      <trkpt lat="43.77638" lon="7.2491">
        <ele>657</ele>
        <time>2018-05-11T20:56:59Z</time>
      </trkpt>
      <trkpt lat="43.77636" lon="7.24909">
        <ele>657</ele>
        <time>2018-05-11T20:57:59Z</time>
      </trkpt>
      <trkpt lat="43.77628" lon="7.2491">
        <ele>658</ele>
        <time>2018-05-11T20:58:59Z</time>
      </trkpt>
      <trkpt lat="43.77626" lon="7.24911">
        <ele>658</ele>
        <time>2018-05-11T20:59:59Z</time>
      </trkpt>
      <trkpt lat="43.77614" lon="7.2491">
        <ele>658</ele>
        <time>2018-05-11T21:00:59Z</time>
      </trkpt>
      <trkpt lat="43.77606" lon="7.24911">
        <ele>659</ele>
        <time>2018-05-11T21:01:59Z</time>
      </trkpt>
      <trkpt lat="43.77589" lon="7.24915">
        <ele>660</ele>
        <time>2018-05-11T21:02:59Z</time>
      </trkpt>
      <trkpt lat="43.77571" lon="7.2492">
        <ele>661</ele>
        <time>2018-05-11T21:03:59Z</time>
      </trkpt>
      <trkpt lat="43.77553" lon="7.24928">
        <ele>662</ele>
        <time>2018-05-11T21:04:59Z</time>
      </trkpt>
      <trkpt lat="43.77545" lon="7.2493">
        <ele>662</ele>
        <time>2018-05-11T21:05:59Z</time>
      </trkpt>
      <trkpt lat="43.77534" lon="7.24932">
        <ele>662</ele>
        <time>2018-05-11T21:06:59Z</time>
      </trkpt>
      <trkpt lat="43.77524" lon="7.24934">
        <ele>662</ele>
        <time>2018-05-11T21:07:59Z</time>
      </trkpt>
      <trkpt lat="43.7751" lon="7.24938">
        <ele>663</ele>
        <time>2018-05-11T21:08:59Z</time>
      </trkpt>
      <trkpt lat="43.7747" lon="7.24944">
        <ele>664</ele>
        <time>2018-05-11T21:09:59Z</time>
      </trkpt>
      <trkpt lat="43.77464" lon="7.24946">
        <ele>665</ele>
        <time>2018-05-11T21:10:59Z</time>
      </trkpt>
      <trkpt lat="43.77458" lon="7.24946">
        <ele>665</ele>
        <time>2018-05-11T21:11:59Z</time>
      </trkpt>
      <trkpt lat="43.77449" lon="7.24943">
        <ele>664</ele>
        <time>2018-05-11T21:12:59Z</time>
      </trkpt>
      <trkpt lat="43.77443" lon="7.24941">
        <ele>664</ele>
        <time>2018-05-11T21:13:59Z</time>
      </trkpt>
      <trkpt lat="43.77433" lon="7.24943">
        <ele>664</ele>
        <time>2018-05-11T21:14:59Z</time>
      </trkpt>
      <trkpt lat="43.77431" lon="7.24947">
        <ele>666</ele>
        <time>2018-05-11T21:15:59Z</time>
      </trkpt>
      <trkpt lat="43.77426" lon="7.24949">
        <ele>666</ele>
        <time>2018-05-11T21:16:59Z</time>
      </trkpt>
      <trkpt lat="43.77422" lon="7.2495">
        <ele>667</ele>
        <time>2018-05-11T21:17:59Z</time>
      </trkpt>
      <trkpt lat="43.7742" lon="7.24951">
        <ele>667</ele>
        <time>2018-05-11T21:18:59Z</time>
      </trkpt>
      <trkpt lat="43.77418" lon="7.24955">
        <ele>668</ele>
        <time>2018-05-11T21:19:59Z</time>
      </trkpt>
      <trkpt lat="43.77417" lon="7.24956">
        <ele>669</ele>
        <time>2018-05-11T21:20:59Z</time>
      </trkpt>
      <trkpt lat="43.77407" lon="7.24961">
        <ele>671</ele>
        <time>2018-05-11T21:21:59Z</time>
      </trkpt>
      <trkpt lat="43.77402" lon="7.24963">
        <ele>671</ele>
        <time>2018-05-11T21:22:59Z</time>
      </trkpt>
      <trkpt lat="43.77399" lon="7.24961">
        <ele>671</ele>
        <time>2018-05-11T21:23:59Z</time>
      </trkpt>
      <trkpt lat="43.77388" lon="7.24957">
        <ele>670</ele>
        <time>2018-05-11T21:24:59Z</time>
      </trkpt>
      <trkpt lat="43.77386" lon="7.24958">
        <ele>670</ele>
        <time>2018-05-11T21:25:59Z</time>
      </trkpt>
      <trkpt lat="43.77381" lon="7.2496">
        <ele>671</ele>
        <time>2018-05-11T21:26:59Z</time>
      </trkpt>
      <trkpt lat="43.77378" lon="7.24962">
        <ele>672</ele>
        <time>2018-05-11T21:27:59Z</time>
      </trkpt>
      <trkpt lat="43.77372" lon="7.24962">
        <ele>672</ele>
        <time>2018-05-11T21:28:59Z</time>
      </trkpt>
      <trkpt lat="43.77368" lon="7.24962">
        <ele>672</ele>
        <time>2018-05-11T21:29:59Z</time>
      </trkpt>
      <trkpt lat="43.77362" lon="7.24965">
        <ele>673</ele>
        <time>2018-05-11T21:30:59Z</time>
      </trkpt>
      <trkpt lat="43.7735" lon="7.24969">
        <ele>675</ele>
        <time>2018-05-11T21:31:59Z</time>
      </trkpt>
      <trkpt lat="43.77347" lon="7.2497">
        <ele>675</ele>
        <time>2018-05-11T21:32:59Z</time>
      </trkpt>
      <trkpt lat="43.77345" lon="7.24969">
        <ele>675</ele>
        <time>2018-05-11T21:33:59Z</time>
      </trkpt>
      <trkpt lat="43.77336" lon="7.24967">
        <ele>675</ele>
        <time>2018-05-11T21:34:59Z</time>
      </trkpt>
      <trkpt lat="43.77327" lon="7.24967">
        <ele>675</ele>
        <time>2018-05-11T21:35:59Z</time>
      </trkpt>
      <trkpt lat="43.77314" lon="7.24967">
        <ele>675</ele>
        <time>2018-05-11T21:36:59Z</time>
      </trkpt>
      <trkpt lat="43.77304" lon="7.24968">
        <ele>675</ele>
        <time>2018-05-11T21:37:59Z</time>
      </trkpt>
      <trkpt lat="43.77296" lon="7.2497">
        <ele>676</ele>
        <time>2018-05-11T21:38:59Z</time>
      </trkpt>
      <trkpt lat="43.77289" lon="7.24972">
        <ele>676</ele>
        <time>2018-05-11T21:39:59Z</time>
      </trkpt>
      <trkpt lat="43.7727" lon="7.24973">
        <ele>677</ele>
        <time>2018-05-11T21:40:59Z</time>
      </trkpt>
      <trkpt lat="43.7725" lon="7.24975">
        <ele>677</ele>
        <time>2018-05-11T21:41:59Z</time>
      </trkpt>
      <trkpt lat="43.77217" lon="7.24985">
        <ele>680</ele>
        <time>2018-05-11T21:42:59Z</time>
      </trkpt>
      <trkpt lat="43.77214" lon="7.24986">
        <ele>681</ele>
        <time>2018-05-11T21:43:59Z</time>
      </trkpt>
      <trkpt lat="43.77202" lon="7.24987">
        <ele>681</ele>
        <time>2018-05-11T21:44:59Z</time>
      </trkpt>
      <trkpt lat="43.77198" lon="7.24988">
        <ele>681</ele>
        <time>2018-05-11T21:45:59Z</time>
      </trkpt>
      <trkpt lat="43.77182" lon="7.24989">
        <ele>681</ele>
        <time>2018-05-11T21:46:59Z</time>
      </trkpt>
      <trkpt lat="43.77172" lon="7.24989">
        <ele>681</ele>
        <time>2018-05-11T21:47:59Z</time>
      </trkpt>
      <trkpt lat="43.77167" lon="7.24989">
        <ele>681</ele>
        <time>2018-05-11T21:48:59Z</time>
      </trkpt>
      <trkpt lat="43.77154" lon="7.24991">
        <ele>681</ele>
        <time>2018-05-11T21:49:59Z</time>
      </trkpt>
      <trkpt lat="43.7715" lon="7.24991">
        <ele>681</ele>
        <time>2018-05-11T21:50:59Z</time>
      </trkpt>
      <trkpt lat="43.77127" lon="7.24991">
        <ele>680</ele>
        <time>2018-05-11T21:51:59Z</time>
      </trkpt>
      <trkpt lat="43.77118" lon="7.2499">
        <ele>680</ele>
        <time>2018-05-11T21:52:59Z</time>
      </trkpt>
      <trkpt lat="43.77106" lon="7.24989">
        <ele>679</ele>
        <time>2018-05-11T21:53:59Z</time>
      </trkpt>
      <trkpt lat="43.77102" lon="7.2499">
        <ele>679</ele>
        <time>2018-05-11T21:54:59Z</time>
      </trkpt>
      <trkpt lat="43.77089" lon="7.24991">
        <ele>679</ele>
        <time>2018-05-11T21:55:59Z</time>
      </trkpt>
      <trkpt lat="43.77074" lon="7.24988">
        <ele>679</ele>
        <time>2018-05-11T21:56:59Z</time>
      </trkpt>
      <trkpt lat="43.77046" lon="7.24969">
        <ele>675</ele>
        <time>2018-05-11T21:57:59Z</time>
      </trkpt>
      <trkpt lat="43.77029" lon="7.24963">
        <ele>674</ele>
        <time>2018-05-11T21:58:59Z</time>
      </trkpt>
      <trkpt lat="43.77025" lon="7.24966">
        <ele>675</ele>
        <time>2018-05-11T21:59:59Z</time>
      </trkpt>
      <trkpt lat="43.7701" lon="7.24979">
        <ele>679</ele>
        <time>2018-05-11T22:00:59Z</time>
      </trkpt>
      <trkpt lat="43.76995" lon="7.24987">
        <ele>681</ele>
        <time>2018-05-11T22:01:59Z</time>
      </trkpt>
      <trkpt lat="43.76976" lon="7.24995">
        <ele>680</ele>
        <time>2018-05-11T22:02:59Z</time>
      </trkpt>
      <trkpt lat="43.76972" lon="7.24997">
        <ele>680</ele>
        <time>2018-05-11T22:03:59Z</time>
      </trkpt>
      <trkpt lat="43.7695" lon="7.25005">
        <ele>678</ele>
        <time>2018-05-11T22:04:59Z</time>
      </trkpt>
      <trkpt lat="43.76942" lon="7.25007">
        <ele>678</ele>
        <time>2018-05-11T22:05:59Z</time>
      </trkpt>
      <trkpt lat="43.76934" lon="7.2501">
        <ele>677</ele>
        <time>2018-05-11T22:06:59Z</time>
      </trkpt>
      <trkpt lat="43.7693" lon="7.25012">
        <ele>676</ele>
        <time>2018-05-11T22:07:59Z</time>
      </trkpt>
      <trkpt lat="43.76925" lon="7.25014">
        <ele>676</ele>
        <time>2018-05-11T22:08:59Z</time>
      </trkpt>
      <trkpt lat="43.76909" lon="7.25025">
        <ele>675</ele>
        <time>2018-05-11T22:09:59Z</time>
      </trkpt>
      <trkpt lat="43.769" lon="7.2503">
        <ele>674</ele>
        <time>2018-05-11T22:10:59Z</time>
      </trkpt>
      <trkpt lat="43.76883" lon="7.25034">
        <ele>672</ele>
        <time>2018-05-11T22:11:59Z</time>
      </trkpt>
      <trkpt lat="43.76862" lon="7.25036">
        <ele>669</ele>
        <time>2018-05-11T22:12:59Z</time>
      </trkpt>
      <trkpt lat="43.76847" lon="7.25038">
        <ele>667</ele>
        <time>2018-05-11T22:13:59Z</time>
      </trkpt>
      <trkpt lat="43.76833" lon="7.25044">
        <ele>665</ele>
        <time>2018-05-11T22:14:59Z</time>
      </trkpt>
      <trkpt lat="43.7682" lon="7.25049">
        <ele>663</ele>
        <time>2018-05-11T22:15:59Z</time>
      </trkpt>
      <trkpt lat="43.76814" lon="7.25048">
        <ele>663</ele>
        <time>2018-05-11T22:16:59Z</time>
      </trkpt>
      <trkpt lat="43.76796" lon="7.25034">
        <ele>662</ele>
        <time>2018-05-11T22:17:59Z</time>
      </trkpt>
      <trkpt lat="43.76791" lon="7.25032">
        <ele>662</ele>
        <time>2018-05-11T22:18:59Z</time>
      </trkpt>
      <trkpt lat="43.76782" lon="7.25035">
        <ele>661</ele>
        <time>2018-05-11T22:19:59Z</time>
      </trkpt>
      <trkpt lat="43.76734" lon="7.25054">
        <ele>654</ele>
        <time>2018-05-11T22:20:59Z</time>
      </trkpt>
      <trkpt lat="43.76731" lon="7.25055">
        <ele>654</ele>
        <time>2018-05-11T22:21:59Z</time>
      </trkpt>
      <trkpt lat="43.76724" lon="7.25054">
        <ele>653</ele>
        <time>2018-05-11T22:22:59Z</time>
      </trkpt>
      <trkpt lat="43.76706" lon="7.25054">
        <ele>650</ele>
        <time>2018-05-11T22:23:59Z</time>
      </trkpt>
      <trkpt lat="43.76701" lon="7.25053">
        <ele>650</ele>
        <time>2018-05-11T22:24:59Z</time>
      </trkpt>
      <trkpt lat="43.76692" lon="7.25049">
        <ele>648</ele>
        <time>2018-05-11T22:25:59Z</time>
      </trkpt>
      <trkpt lat="43.76684" lon="7.25051">
        <ele>647</ele>
        <time>2018-05-11T22:26:59Z</time>
      </trkpt>
      <trkpt lat="43.76673" lon="7.25073">
        <ele>646</ele>
        <time>2018-05-11T22:27:59Z</time>
      </trkpt>
      <trkpt lat="43.76667" lon="7.25088">
        <ele>645</ele>
        <time>2018-05-11T22:28:59Z</time>
      </trkpt>
      <trkpt lat="43.76653" lon="7.25093">
        <ele>643</ele>
        <time>2018-05-11T22:29:59Z</time>
      </trkpt>
      <trkpt lat="43.76647" lon="7.25094">
        <ele>643</ele>
        <time>2018-05-11T22:30:59Z</time>
      </trkpt>
      <trkpt lat="43.76631" lon="7.25095">
        <ele>641</ele>
        <time>2018-05-11T22:31:59Z</time>
      </trkpt>
      <trkpt lat="43.76621" lon="7.25096">
        <ele>640</ele>
        <time>2018-05-11T22:32:59Z</time>
      </trkpt>
      <trkpt lat="43.766" lon="7.25101">
        <ele>637</ele>
        <time>2018-05-11T22:33:59Z</time>
      </trkpt>
      <trkpt lat="43.76588" lon="7.25104">
        <ele>636</ele>
        <time>2018-05-11T22:34:59Z</time>
      </trkpt>
      <trkpt lat="43.76571" lon="7.25111">
        <ele>633</ele>
        <time>2018-05-11T22:35:59Z</time>
      </trkpt>
      <trkpt lat="43.76566" lon="7.25113">
        <ele>633</ele>
        <time>2018-05-11T22:36:59Z</time>
      </trkpt>
      <trkpt lat="43.76546" lon="7.25126">
        <ele>631</ele>
        <time>2018-05-11T22:37:59Z</time>
      </trkpt>
      <trkpt lat="43.76536" lon="7.25131">
        <ele>631</ele>
        <time>2018-05-11T22:38:59Z</time>
      </trkpt>
      <trkpt lat="43.7653" lon="7.25131">
        <ele>630</ele>
        <time>2018-05-11T22:39:59Z</time>
      </trkpt>
      <trkpt lat="43.76494" lon="7.25115">
        <ele>626</ele>
        <time>2018-05-11T22:40:59Z</time>
      </trkpt>
      <trkpt lat="43.76489" lon="7.25113">
        <ele>624</ele>
        <time>2018-05-11T22:41:59Z</time>
      </trkpt>
      <trkpt lat="43.76484" lon="7.25113">
        <ele>624</ele>
        <time>2018-05-11T22:42:59Z</time>
      </trkpt>
      <trkpt lat="43.76475" lon="7.25113">
        <ele>622</ele>
        <time>2018-05-11T22:43:59Z</time>
      </trkpt>
      <trkpt lat="43.76472" lon="7.25114">
        <ele>622</ele>
        <time>2018-05-11T22:44:59Z</time>
      </trkpt>
      <trkpt lat="43.76468" lon="7.25116">
        <ele>622</ele>
        <time>2018-05-11T22:45:59Z</time>
      </trkpt>
      <trkpt lat="43.76455" lon="7.25116">
        <ele>620</ele>
        <time>2018-05-11T22:46:59Z</time>
      </trkpt>
      <trkpt lat="43.76451" lon="7.25118">
        <ele>619</ele>
        <time>2018-05-11T22:47:59Z</time>
      </trkpt>
      <trkpt lat="43.76435" lon="7.25126">
        <ele>619</ele>
        <time>2018-05-11T22:48:59Z</time>
      </trkpt>
      <trkpt lat="43.76425" lon="7.25131">
        <ele>619</ele>
        <time>2018-05-11T22:49:59Z</time>
      </trkpt>
      <trkpt lat="43.76417" lon="7.25133">
        <ele>618</ele>
        <time>2018-05-11T22:50:59Z</time>
      </trkpt>
      <trkpt lat="43.7641" lon="7.25136">
        <ele>617</ele>
        <time>2018-05-11T22:51:59Z</time>
      </trkpt>
      <trkpt lat="43.76399" lon="7.25142">
        <ele>616</ele>
        <time>2018-05-11T22:52:59Z</time>
      </trkpt>
      <trkpt lat="43.7639" lon="7.25149">
        <ele>615</ele>
        <time>2018-05-11T22:53:59Z</time>
      </trkpt>
      <trkpt lat="43.76374" lon="7.25165">
        <ele>615</ele>
        <time>2018-05-11T22:54:59Z</time>
      </trkpt>
      <trkpt lat="43.76368" lon="7.25172">
        <ele>614</ele>
        <time>2018-05-11T22:55:59Z</time>
      </trkpt>
      <trkpt lat="43.7636" lon="7.25182">
        <ele>613</ele>
        <time>2018-05-11T22:56:59Z</time>
      </trkpt>
      <trkpt lat="43.76357" lon="7.25187">
        <ele>613</ele>
        <time>2018-05-11T22:57:59Z</time>
      </trkpt>
      <trkpt lat="43.76352" lon="7.25196">
        <ele>613</ele>
        <time>2018-05-11T22:58:59Z</time>
      </trkpt>
      <trkpt lat="43.76345" lon="7.25202">
        <ele>612</ele>
        <time>2018-05-11T22:59:59Z</time>
      </trkpt>
      <trkpt lat="43.76341" lon="7.25204">
        <ele>612</ele>
        <time>2018-05-11T23:00:59Z</time>
      </trkpt>
      <trkpt lat="43.76337" lon="7.25205">
        <ele>611</ele>
        <time>2018-05-11T23:01:59Z</time>
      </trkpt>
      <trkpt lat="43.76321" lon="7.25201">
        <ele>607</ele>
        <time>2018-05-11T23:02:59Z</time>
      </trkpt>
      <trkpt lat="43.76315" lon="7.25201">
        <ele>606</ele>
        <time>2018-05-11T23:03:59Z</time>
      </trkpt>
      <trkpt lat="43.76294" lon="7.25205">
        <ele>604</ele>
        <time>2018-05-11T23:04:59Z</time>
      </trkpt>
      <trkpt lat="43.76289" lon="7.25206">
        <ele>604</ele>
        <time>2018-05-11T23:05:59Z</time>
      </trkpt>
      <trkpt lat="43.76264" lon="7.25208">
        <ele>600</ele>
        <time>2018-05-11T23:06:59Z</time>
      </trkpt>
      <trkpt lat="43.76259" lon="7.25209">
        <ele>600</ele>
        <time>2018-05-11T23:07:59Z</time>
      </trkpt>
      <trkpt lat="43.76245" lon="7.25212">
        <ele>598</ele>
        <time>2018-05-11T23:08:59Z</time>
      </trkpt>
      <trkpt lat="43.7624" lon="7.25213">
        <ele>598</ele>
        <time>2018-05-11T23:09:59Z</time>
      </trkpt>
      <trkpt lat="43.76224" lon="7.25214">
        <ele>594</ele>
        <time>2018-05-11T23:10:59Z</time>
      </trkpt>
      <trkpt lat="43.76211" lon="7.25216">
        <ele>592</ele>
        <time>2018-05-11T23:11:59Z</time>
      </trkpt>
      <trkpt lat="43.76204" lon="7.2522">
        <ele>591</ele>
        <time>2018-05-11T23:12:59Z</time>
      </trkpt>
      <trkpt lat="43.76199" lon="7.25223">
        <ele>591</ele>
        <time>2018-05-11T23:13:59Z</time>
      </trkpt>
      <trkpt lat="43.76195" lon="7.25223">
        <ele>590</ele>
        <time>2018-05-11T23:14:59Z</time>
      </trkpt>
      <trkpt lat="43.76186" lon="7.25226">
        <ele>589</ele>
        <time>2018-05-11T23:15:59Z</time>
      </trkpt>
      <trkpt lat="43.76182" lon="7.2523">
        <ele>590</ele>
        <time>2018-05-11T23:16:59Z</time>
      </trkpt>
      <trkpt lat="43.76173" lon="7.25235">
        <ele>589</ele>
        <time>2018-05-11T23:17:59Z</time>
      </trkpt>
      <trkpt lat="43.76163" lon="7.25241">
        <ele>589</ele>
        <time>2018-05-11T23:18:59Z</time>
      </trkpt>
      <trkpt lat="43.7615" lon="7.25249">
        <ele>588</ele>
        <time>2018-05-11T23:19:59Z</time>
      </trkpt>
      <trkpt lat="43.76142" lon="7.25251">
        <ele>586</ele>
        <time>2018-05-11T23:20:59Z</time>
      </trkpt>
      <trkpt lat="43.76134" lon="7.25255">
        <ele>584</ele>
        <time>2018-05-11T23:21:59Z</time>
      </trkpt>
      <trkpt lat="43.76115" lon="7.25267">
        <ele>581</ele>
        <time>2018-05-11T23:22:59Z</time>
      </trkpt>
      <trkpt lat="43.76106" lon="7.25272">
        <ele>579</ele>
        <time>2018-05-11T23:23:59Z</time>
      </trkpt>
      <trkpt lat="43.76103" lon="7.25275">
        <ele>579</ele>
        <time>2018-05-11T23:24:59Z</time>
      </trkpt>
      <trkpt lat="43.76099" lon="7.25281">
        <ele>579</ele>
        <time>2018-05-11T23:25:59Z</time>
      </trkpt>
      <trkpt lat="43.76094" lon="7.25283">
        <ele>578</ele>
        <time>2018-05-11T23:26:59Z</time>
      </trkpt>
      <trkpt lat="43.76089" lon="7.25284">
        <ele>577</ele>
        <time>2018-05-11T23:27:59Z</time>
      </trkpt>
      <trkpt lat="43.76082" lon="7.25285">
        <ele>575</ele>
        <time>2018-05-11T23:28:59Z</time>
      </trkpt>
      <trkpt lat="43.76069" lon="7.25291">
        <ele>573</ele>
        <time>2018-05-11T23:29:59Z</time>
      </trkpt>
      <trkpt lat="43.76064" lon="7.25294">
        <ele>572</ele>
        <time>2018-05-11T23:30:59Z</time>
      </trkpt>
      <trkpt lat="43.7605" lon="7.25302">
        <ele>570</ele>
        <time>2018-05-11T23:31:59Z</time>
      </trkpt>
      <trkpt lat="43.76045" lon="7.25306">
        <ele>570</ele>
        <time>2018-05-11T23:32:59Z</time>
      </trkpt>
      <trkpt lat="43.76044" lon="7.25307">
        <ele>570</ele>
        <time>2018-05-11T23:33:59Z</time>
      </trkpt>
      <trkpt lat="43.76036" lon="7.2531">
        <ele>569</ele>
        <time>2018-05-11T23:34:59Z</time>
      </trkpt>
      <trkpt lat="43.76026" lon="7.25311">
        <ele>566</ele>
        <time>2018-05-11T23:35:59Z</time>
      </trkpt>
      <trkpt lat="43.76017" lon="7.25316">
        <ele>566</ele>
        <time>2018-05-11T23:36:59Z</time>
      </trkpt>
      <trkpt lat="43.76009" lon="7.2532">
        <ele>565</ele>
        <time>2018-05-11T23:37:59Z</time>
      </trkpt>
      <trkpt lat="43.76" lon="7.25328">
        <ele>565</ele>
        <time>2018-05-11T23:38:59Z</time>
      </trkpt>
      <trkpt lat="43.75989" lon="7.25335">
        <ele>564</ele>
        <time>2018-05-11T23:39:59Z</time>
      </trkpt>
      <trkpt lat="43.75986" lon="7.25338">
        <ele>564</ele>
        <time>2018-05-11T23:40:59Z</time>
      </trkpt>
      <trkpt lat="43.75958" lon="7.25353">
        <ele>560</ele>
        <time>2018-05-11T23:41:59Z</time>
      </trkpt>
      <trkpt lat="43.75953" lon="7.25356">
        <ele>560</ele>
        <time>2018-05-11T23:42:59Z</time>
      </trkpt>
      <trkpt lat="43.75931" lon="7.2537">
        <ele>558</ele>
        <time>2018-05-11T23:43:59Z</time>
      </trkpt>
      <trkpt lat="43.75926" lon="7.25374">
        <ele>558</ele>
        <time>2018-05-11T23:44:59Z</time>
      </trkpt>
      <trkpt lat="43.75918" lon="7.25381">
        <ele>558</ele>
        <time>2018-05-11T23:45:59Z</time>
      </trkpt>
      <trkpt lat="43.75905" lon="7.25391">
        <ele>558</ele>
        <time>2018-05-11T23:46:59Z</time>
      </trkpt>
      <trkpt lat="43.75902" lon="7.25393">
        <ele>558</ele>
        <time>2018-05-11T23:47:59Z</time>
      </trkpt>
      <trkpt lat="43.75874" lon="7.2542">
        <ele>558</ele>
        <time>2018-05-11T23:48:59Z</time>
      </trkpt>
      <trkpt lat="43.75871" lon="7.25423">
        <ele>557</ele>
        <time>2018-05-11T23:49:59Z</time>
      </trkpt>
      <trkpt lat="43.75863" lon="7.25428">
        <ele>556</ele>
        <time>2018-05-11T23:50:59Z</time>
      </trkpt>
      <trkpt lat="43.75838" lon="7.25436">
        <ele>552</ele>
        <time>2018-05-11T23:51:59Z</time>
      </trkpt>
      <trkpt lat="43.75834" lon="7.25438">
        <ele>552</ele>
        <time>2018-05-11T23:52:59Z</time>
      </trkpt>
      <trkpt lat="43.75825" lon="7.25445">
        <ele>550</ele>
        <time>2018-05-11T23:53:59Z</time>
      </trkpt>
      <trkpt lat="43.75821" lon="7.25448">
        <ele>550</ele>
        <time>2018-05-11T23:54:59Z</time>
      </trkpt>
      <trkpt lat="43.75806" lon="7.25455">
        <ele>547</ele>
        <time>2018-05-11T23:55:59Z</time>
      </trkpt>
      <trkpt lat="43.75801" lon="7.25459">
        <ele>546</ele>
        <time>2018-05-11T23:56:59Z</time>
      </trkpt>
      <trkpt lat="43.75784" lon="7.25471">
        <ele>544</ele>
        <time>2018-05-11T23:57:59Z</time>
      </trkpt>
      <trkpt lat="43.75781" lon="7.25473">
        <ele>543</ele>
        <time>2018-05-11T23:58:59Z</time>
      </trkpt>
      <trkpt lat="43.75774" lon="7.2548">
        <ele>543</ele>
        <time>2018-05-11T23:59:59Z</time>
      </trkpt>
      <trkpt lat="43.75771" lon="7.25483">
        <ele>543</ele>
        <time>2018-05-12T00:00:59Z</time>
      </trkpt>
      <trkpt lat="43.75758" lon="7.25492">
        <ele>541</ele>
        <time>2018-05-12T00:01:59Z</time>
      </trkpt>
      <trkpt lat="43.75754" lon="7.25495">
        <ele>541</ele>
        <time>2018-05-12T00:02:59Z</time>
      </trkpt>
      <trkpt lat="43.75746" lon="7.255">
        <ele>540</ele>
        <time>2018-05-12T00:03:59Z</time>
      </trkpt>
      <trkpt lat="43.75742" lon="7.255">
        <ele>539</ele>
        <time>2018-05-12T00:04:59Z</time>
      </trkpt>
      <trkpt lat="43.75739" lon="7.25501">
        <ele>539</ele>
        <time>2018-05-12T00:05:59Z</time>
      </trkpt>
      <trkpt lat="43.75713" lon="7.25513">
        <ele>535</ele>
        <time>2018-05-12T00:06:59Z</time>
      </trkpt>
      <trkpt lat="43.75702" lon="7.25519">
        <ele>534</ele>
        <time>2018-05-12T00:07:59Z</time>
      </trkpt>
      <trkpt lat="43.75698" lon="7.25519">
        <ele>533</ele>
        <time>2018-05-12T00:08:59Z</time>
      </trkpt>
      <trkpt lat="43.7569" lon="7.25522">
        <ele>532</ele>
        <time>2018-05-12T00:09:59Z</time>
      </trkpt>
      <trkpt lat="43.75677" lon="7.25532">
        <ele>531</ele>
        <time>2018-05-12T00:10:59Z</time>
      </trkpt>
      <trkpt lat="43.75668" lon="7.25537">
        <ele>531</ele>
        <time>2018-05-12T00:11:59Z</time>
      </trkpt>
      <trkpt lat="43.75654" lon="7.2554">
        <ele>528</ele>
        <time>2018-05-12T00:12:59Z</time>
      </trkpt>
      <trkpt lat="43.75647" lon="7.25543">
        <ele>527</ele>
        <time>2018-05-12T00:13:59Z</time>
      </trkpt>
      <trkpt lat="43.75644" lon="7.25546">
        <ele>527</ele>
        <time>2018-05-12T00:14:59Z</time>
      </trkpt>
      <trkpt lat="43.7563" lon="7.25556">
        <ele>526</ele>
        <time>2018-05-12T00:15:59Z</time>
      </trkpt>
      <trkpt lat="43.75613" lon="7.25566">
        <ele>524</ele>
        <time>2018-05-12T00:16:59Z</time>
      </trkpt>
      <trkpt lat="43.7561" lon="7.25568">
        <ele>523</ele>
        <time>2018-05-12T00:17:59Z</time>
      </trkpt>
      <trkpt lat="43.75596" lon="7.25571">
        <ele>520</ele>
        <time>2018-05-12T00:18:59Z</time>
      </trkpt>
      <trkpt lat="43.75593" lon="7.25573">
        <ele>520</ele>
        <time>2018-05-12T00:19:59Z</time>
      </trkpt>
      <trkpt lat="43.75583" lon="7.25576">
        <ele>518</ele>
        <time>2018-05-12T00:20:59Z</time>
      </trkpt>
      <trkpt lat="43.75578" lon="7.25578">
        <ele>517</ele>
        <time>2018-05-12T00:21:59Z</time>
      </trkpt>
      <trkpt lat="43.75569" lon="7.25584">
        <ele>516</ele>
        <time>2018-05-12T00:22:59Z</time>
      </trkpt>
      <trkpt lat="43.75561" lon="7.25588">
        <ele>514</ele>
        <time>2018-05-12T00:23:59Z</time>
      </trkpt>
      <trkpt lat="43.75554" lon="7.25594">
        <ele>512</ele>
        <time>2018-05-12T00:24:59Z</time>
      </trkpt>
      <trkpt lat="43.75551" lon="7.25598">
        <ele>511</ele>
        <time>2018-05-12T00:25:59Z</time>
      </trkpt>
      <trkpt lat="43.75549" lon="7.25603">
        <ele>511</ele>
        <time>2018-05-12T00:26:59Z</time>
      </trkpt>
      <trkpt lat="43.75543" lon="7.25611">
        <ele>510</ele>
        <time>2018-05-12T00:27:59Z</time>
      </trkpt>
      <trkpt lat="43.75536" lon="7.25626">
        <ele>509</ele>
        <time>2018-05-12T00:28:59Z</time>
      </trkpt>
      <trkpt lat="43.75534" lon="7.25632">
        <ele>508</ele>
        <time>2018-05-12T00:29:59Z</time>
      </trkpt>
      <trkpt lat="43.75531" lon="7.25642">
        <ele>508</ele>
        <time>2018-05-12T00:30:59Z</time>
      </trkpt>
      <trkpt lat="43.7553" lon="7.25647">
        <ele>508</ele>
        <time>2018-05-12T00:31:59Z</time>
      </trkpt>
      <trkpt lat="43.75529" lon="7.25674">
        <ele>509</ele>
        <time>2018-05-12T00:32:59Z</time>
      </trkpt>
      <trkpt lat="43.75528" lon="7.25694">
        <ele>508</ele>
        <time>2018-05-12T00:33:59Z</time>
      </trkpt>
      <trkpt lat="43.75525" lon="7.25705">
        <ele>507</ele>
        <time>2018-05-12T00:34:59Z</time>
      </trkpt>
      <trkpt lat="43.75523" lon="7.25708">
        <ele>506</ele>
        <time>2018-05-12T00:35:59Z</time>
      </trkpt>
      <trkpt lat="43.75519" lon="7.25712">
        <ele>505</ele>
        <time>2018-05-12T00:36:59Z</time>
      </trkpt>
      <trkpt lat="43.75517" lon="7.25714">
        <ele>505</ele>
        <time>2018-05-12T00:37:59Z</time>
      </trkpt>
      <trkpt lat="43.75507" lon="7.25721">
        <ele>503</ele>
        <time>2018-05-12T00:38:59Z</time>
      </trkpt>
      <trkpt lat="43.75496" lon="7.25735">
        <ele>501</ele>
        <time>2018-05-12T00:39:59Z</time>
      </trkpt>
      <trkpt lat="43.75493" lon="7.25743">
        <ele>500</ele>
        <time>2018-05-12T00:40:59Z</time>
      </trkpt>
      <trkpt lat="43.75487" lon="7.25771">
        <ele>499</ele>
        <time>2018-05-12T00:41:59Z</time>
      </trkpt>
      <trkpt lat="43.7548" lon="7.25784">
        <ele>499</ele>
        <time>2018-05-12T00:42:59Z</time>
      </trkpt>
      <trkpt lat="43.75471" lon="7.25787">
        <ele>498</ele>
        <time>2018-05-12T00:43:59Z</time>
      </trkpt>
      <trkpt lat="43.75466" lon="7.2579">
        <ele>498</ele>
        <time>2018-05-12T00:44:59Z</time>
      </trkpt>
      <trkpt lat="43.75458" lon="7.25797">
        <ele>498</ele>
        <time>2018-05-12T00:45:59Z</time>
      </trkpt>
      <trkpt lat="43.7545" lon="7.25802">
        <ele>498</ele>
        <time>2018-05-12T00:46:59Z</time>
      </trkpt>
      <trkpt lat="43.75446" lon="7.25803">
        <ele>498</ele>
        <time>2018-05-12T00:47:59Z</time>
      </trkpt>
      <trkpt lat="43.75441" lon="7.25804">
        <ele>497</ele>
        <time>2018-05-12T00:48:59Z</time>
      </trkpt>
      <trkpt lat="43.75433" lon="7.25804">
        <ele>497</ele>
        <time>2018-05-12T00:49:59Z</time>
      </trkpt>
      <trkpt lat="43.75425" lon="7.25804">
        <ele>497</ele>
        <time>2018-05-12T00:50:59Z</time>
      </trkpt>
      <trkpt lat="43.75418" lon="7.25806">
        <ele>497</ele>
        <time>2018-05-12T00:51:59Z</time>
      </trkpt>
      <trkpt lat="43.75405" lon="7.25808">
        <ele>496</ele>
        <time>2018-05-12T00:52:59Z</time>
      </trkpt>
      <trkpt lat="43.75393" lon="7.25801">
        <ele>496</ele>
        <time>2018-05-12T00:53:59Z</time>
      </trkpt>
      <trkpt lat="43.75388" lon="7.258">
        <ele>495</ele>
        <time>2018-05-12T00:54:59Z</time>
      </trkpt>
      <trkpt lat="43.75379" lon="7.25796">
        <ele>495</ele>
        <time>2018-05-12T00:55:59Z</time>
      </trkpt>
      <trkpt lat="43.7537" lon="7.25786">
        <ele>494</ele>
        <time>2018-05-12T00:56:59Z</time>
      </trkpt>
      <trkpt lat="43.75358" lon="7.25784">
        <ele>493</ele>
        <time>2018-05-12T00:57:59Z</time>
      </trkpt>
      <trkpt lat="43.75342" lon="7.2579">
        <ele>493</ele>
        <time>2018-05-12T00:58:59Z</time>
      </trkpt>
      <trkpt lat="43.75331" lon="7.25807">
        <ele>494</ele>
        <time>2018-05-12T00:59:59Z</time>
      </trkpt>
      <trkpt lat="43.75328" lon="7.25812">
        <ele>494</ele>
        <time>2018-05-12T01:00:59Z</time>
      </trkpt>
      <trkpt lat="43.7532" lon="7.25816">
        <ele>493</ele>
        <time>2018-05-12T01:01:59Z</time>
      </trkpt>
      <trkpt lat="43.75312" lon="7.25819">
        <ele>492</ele>
        <time>2018-05-12T01:02:59Z</time>
      </trkpt>
      <trkpt lat="43.75307" lon="7.25822">
        <ele>492</ele>
        <time>2018-05-12T01:03:59Z</time>
      </trkpt>
      <trkpt lat="43.75303" lon="7.25825">
        <ele>492</ele>
        <time>2018-05-12T01:04:59Z</time>
      </trkpt>
      <trkpt lat="43.75277" lon="7.25839">
        <ele>490</ele>
        <time>2018-05-12T01:05:59Z</time>
      </trkpt>
      <trkpt lat="43.75268" lon="7.25842">
        <ele>490</ele>
        <time>2018-05-12T01:06:59Z</time>
      </trkpt>
      <trkpt lat="43.75266" lon="7.25844">
        <ele>490</ele>
        <time>2018-05-12T01:07:59Z</time>
      </trkpt>
      <trkpt lat="43.7525" lon="7.25856">
        <ele>489</ele>
        <time>2018-05-12T01:08:59Z</time>
      </trkpt>
      <trkpt lat="43.75234" lon="7.25856">
        <ele>488</ele>
        <time>2018-05-12T01:09:59Z</time>
      </trkpt>
      <trkpt lat="43.75224" lon="7.25858">
        <ele>487</ele>
        <time>2018-05-12T01:10:59Z</time>
      </trkpt>
      <trkpt lat="43.75206" lon="7.25864">
        <ele>486</ele>
        <time>2018-05-12T01:11:59Z</time>
      </trkpt>
      <trkpt lat="43.75189" lon="7.2587">
        <ele>484</ele>
        <time>2018-05-12T01:12:59Z</time>
      </trkpt>
      <trkpt lat="43.75174" lon="7.25874">
        <ele>483</ele>
        <time>2018-05-12T01:13:59Z</time>
      </trkpt>
      <trkpt lat="43.75169" lon="7.25875">
        <ele>483</ele>
        <time>2018-05-12T01:14:59Z</time>
      </trkpt>
      <trkpt lat="43.75154" lon="7.25874">
        <ele>481</ele>
        <time>2018-05-12T01:15:59Z</time>
      </trkpt>
      <trkpt lat="43.75149" lon="7.25875">
        <ele>481</ele>
        <time>2018-05-12T01:16:59Z</time>
      </trkpt>
      <trkpt lat="43.75135" lon="7.25873">
        <ele>480</ele>
        <time>2018-05-12T01:17:59Z</time>
      </trkpt>
      <trkpt lat="43.7513" lon="7.25873">
        <ele>479</ele>
        <time>2018-05-12T01:18:59Z</time>
      </trkpt>
      <trkpt lat="43.7512" lon="7.25876">
        <ele>479</ele>
        <time>2018-05-12T01:19:59Z</time>
      </trkpt>
      <trkpt lat="43.75114" lon="7.25875">
        <ele>478</ele>
        <time>2018-05-12T01:20:59Z</time>
      </trkpt>
      <trkpt lat="43.75109" lon="7.25876">
        <ele>478</ele>
        <time>2018-05-12T01:21:59Z</time>
      </trkpt>
      <trkpt lat="43.75104" lon="7.25876">
        <ele>477</ele>
        <time>2018-05-12T01:22:59Z</time>
      </trkpt>
      <trkpt lat="43.75094" lon="7.25878">
        <ele>477</ele>
        <time>2018-05-12T01:23:59Z</time>
      </trkpt>
      <trkpt lat="43.75089" lon="7.25876">
        <ele>476</ele>
        <time>2018-05-12T01:24:59Z</time>
      </trkpt>
      <trkpt lat="43.75079" lon="7.25868">
        <ele>474</ele>
        <time>2018-05-12T01:25:59Z</time>
      </trkpt>
      <trkpt lat="43.75075" lon="7.25865">
        <ele>474</ele>
        <time>2018-05-12T01:26:59Z</time>
      </trkpt>
      <trkpt lat="43.75065" lon="7.25863">
        <ele>473</ele>
        <time>2018-05-12T01:27:59Z</time>
      </trkpt>
      <trkpt lat="43.7504" lon="7.2586">
        <ele>472</ele>
        <time>2018-05-12T01:28:59Z</time>
      </trkpt>
      <trkpt lat="43.7503" lon="7.25859">
        <ele>471</ele>
        <time>2018-05-12T01:29:59Z</time>
      </trkpt>
      <trkpt lat="43.75026" lon="7.25859">
        <ele>471</ele>
        <time>2018-05-12T01:30:59Z</time>
      </trkpt>
      <trkpt lat="43.75013" lon="7.25856">
        <ele>470</ele>
        <time>2018-05-12T01:31:59Z</time>
      </trkpt>
      <trkpt lat="43.75004" lon="7.25853">
        <ele>470</ele>
        <time>2018-05-12T01:32:59Z</time>
      </trkpt>
      <trkpt lat="43.74995" lon="7.25853">
        <ele>469</ele>
        <time>2018-05-12T01:33:59Z</time>
      </trkpt>
      <trkpt lat="43.7499" lon="7.25855">
        <ele>469</ele>
        <time>2018-05-12T01:34:59Z</time>
      </trkpt>
      <trkpt lat="43.74976" lon="7.25857">
        <ele>469</ele>
        <time>2018-05-12T01:35:59Z</time>
      </trkpt>
      <trkpt lat="43.74972" lon="7.25855">
        <ele>469</ele>
        <time>2018-05-12T01:36:59Z</time>
      </trkpt>
      <trkpt lat="43.7497" lon="7.25852">
        <ele>468</ele>
        <time>2018-05-12T01:37:59Z</time>
      </trkpt>
      <trkpt lat="43.74958" lon="7.25843">
        <ele>467</ele>
        <time>2018-05-12T01:38:59Z</time>
      </trkpt>
      <trkpt lat="43.74949" lon="7.25841">
        <ele>467</ele>
        <time>2018-05-12T01:39:59Z</time>
      </trkpt>
      <trkpt lat="43.74928" lon="7.25838">
        <ele>466</ele>
        <time>2018-05-12T01:40:59Z</time>
      </trkpt>
      <trkpt lat="43.74905" lon="7.25842">
        <ele>466</ele>
        <time>2018-05-12T01:41:59Z</time>
      </trkpt>
      <trkpt lat="43.74893" lon="7.25843">
        <ele>467</ele>
        <time>2018-05-12T01:42:59Z</time>
      </trkpt>
      <trkpt lat="43.74878" lon="7.25843">
        <ele>467</ele>
        <time>2018-05-12T01:43:59Z</time>
      </trkpt>
      <trkpt lat="43.74862" lon="7.25841">
        <ele>467</ele>
        <time>2018-05-12T01:44:59Z</time>
      </trkpt>
      <trkpt lat="43.74852" lon="7.25842">
        <ele>467</ele>
        <time>2018-05-12T01:45:59Z</time>
      </trkpt>
      <trkpt lat="43.74842" lon="7.25843">
        <ele>467</ele>
        <time>2018-05-12T01:46:59Z</time>
      </trkpt>
      <trkpt lat="43.74827" lon="7.25842">
        <ele>466</ele>
        <time>2018-05-12T01:47:59Z</time>
      </trkpt>
      <trkpt lat="43.74802" lon="7.25841">
        <ele>465</ele>
        <time>2018-05-12T01:48:59Z</time>
      </trkpt>
      <trkpt lat="43.74797" lon="7.25841">
        <ele>464</ele>
        <time>2018-05-12T01:49:59Z</time>
      </trkpt>
      <trkpt lat="43.74777" lon="7.25847">
        <ele>463</ele>
        <time>2018-05-12T01:50:59Z</time>
      </trkpt>
      <trkpt lat="43.74762" lon="7.25851">
        <ele>461</ele>
        <time>2018-05-12T01:51:59Z</time>
      </trkpt>
      <trkpt lat="43.74752" lon="7.25861">
        <ele>460</ele>
        <time>2018-05-12T01:52:59Z</time>
      </trkpt>
      <trkpt lat="43.74743" lon="7.25866">
        <ele>458</ele>
        <time>2018-05-12T01:53:59Z</time>
      </trkpt>
      <trkpt lat="43.74728" lon="7.25876">
        <ele>455</ele>
        <time>2018-05-12T01:54:59Z</time>
      </trkpt>
      <trkpt lat="43.74716" lon="7.25884">
        <ele>453</ele>
        <time>2018-05-12T01:55:59Z</time>
      </trkpt>
      <trkpt lat="43.74714" lon="7.25892">
        <ele>452</ele>
        <time>2018-05-12T01:56:59Z</time>
      </trkpt>
      <trkpt lat="43.74712" lon="7.25893">
        <ele>452</ele>
        <time>2018-05-12T01:57:59Z</time>
      </trkpt>
      <trkpt lat="43.74708" lon="7.25892">
        <ele>451</ele>
        <time>2018-05-12T01:58:59Z</time>
      </trkpt>
      <trkpt lat="43.74706" lon="7.25891">
        <ele>451</ele>
        <time>2018-05-12T01:59:59Z</time>
      </trkpt>
      <trkpt lat="43.747" lon="7.25888">
        <ele>450</ele>
        <time>2018-05-12T02:00:59Z</time>
      </trkpt>
      <trkpt lat="43.74699" lon="7.25887">
        <ele>449</ele>
        <time>2018-05-12T02:01:59Z</time>
      </trkpt>
      <trkpt lat="43.7469" lon="7.2589">
        <ele>448</ele>
        <time>2018-05-12T02:02:59Z</time>
      </trkpt>
      <trkpt lat="43.7469" lon="7.2589">
        <ele>448</ele>
        <time>2018-05-12T02:03:59Z</time>
      </trkpt>
      <trkpt lat="43.74687" lon="7.25893">
        <ele>447</ele>
        <time>2018-05-12T02:04:59Z</time>
      </trkpt>
      <trkpt lat="43.74687" lon="7.25894">
        <ele>447</ele>
        <time>2018-05-12T02:05:59Z</time>
      </trkpt>
      <trkpt lat="43.74685" lon="7.2589">
        <ele>447</ele>
        <time>2018-05-12T02:06:59Z</time>
      </trkpt>
      <trkpt lat="43.74684" lon="7.25888">
        <ele>447</ele>
        <time>2018-05-12T02:07:59Z</time>
      </trkpt>
      <trkpt lat="43.74687" lon="7.25878">
        <ele>447</ele>
        <time>2018-05-12T02:08:59Z</time>
      </trkpt>
      <trkpt lat="43.74686" lon="7.25875">
        <ele>447</ele>
        <time>2018-05-12T02:09:59Z</time>
      </trkpt>
      <trkpt lat="43.74664" lon="7.25853">
        <ele>443</ele>
        <time>2018-05-12T02:10:59Z</time>
      </trkpt>
      <trkpt lat="43.7466" lon="7.2585">
        <ele>443</ele>
        <time>2018-05-12T02:11:59Z</time>
      </trkpt>
      <trkpt lat="43.74657" lon="7.25849">
        <ele>442</ele>
        <time>2018-05-12T02:12:59Z</time>
      </trkpt>
      <trkpt lat="43.74652" lon="7.25852">
        <ele>442</ele>
        <time>2018-05-12T02:13:59Z</time>
      </trkpt>
      <trkpt lat="43.74633" lon="7.25861">
        <ele>439</ele>
        <time>2018-05-12T02:14:59Z</time>
      </trkpt>
      <trkpt lat="43.74628" lon="7.25863">
        <ele>438</ele>
        <time>2018-05-12T02:15:59Z</time>
      </trkpt>
      <trkpt lat="43.74621" lon="7.25868">
        <ele>437</ele>
        <time>2018-05-12T02:16:59Z</time>
      </trkpt>
      <trkpt lat="43.74615" lon="7.25871">
        <ele>436</ele>
        <time>2018-05-12T02:17:59Z</time>
      </trkpt>
      <trkpt lat="43.74608" lon="7.25874">
        <ele>435</ele>
        <time>2018-05-12T02:18:59Z</time>
      </trkpt>
      <trkpt lat="43.74597" lon="7.25874">
        <ele>433</ele>
        <time>2018-05-12T02:19:59Z</time>
      </trkpt>
      <trkpt lat="43.74585" lon="7.25872">
        <ele>431</ele>
        <time>2018-05-12T02:20:59Z</time>
      </trkpt>
      <trkpt lat="43.74581" lon="7.2587">
        <ele>430</ele>
        <time>2018-05-12T02:21:59Z</time>
      </trkpt>
      <trkpt lat="43.7458" lon="7.25868">
        <ele>430</ele>
        <time>2018-05-12T02:22:59Z</time>
      </trkpt>
      <trkpt lat="43.7458" lon="7.25865">
        <ele>430</ele>
        <time>2018-05-12T02:23:59Z</time>
      </trkpt>
      <trkpt lat="43.74577" lon="7.25847">
        <ele>430</ele>
        <time>2018-05-12T02:24:59Z</time>
      </trkpt>
      <trkpt lat="43.74577" lon="7.25847">
        <ele>430</ele>
        <time>2018-05-12T02:25:59Z</time>
      </trkpt>
      <trkpt lat="43.74577" lon="7.25847">
        <ele>430</ele>
        <time>2018-05-12T02:26:59Z</time>
      </trkpt>
      <trkpt lat="43.74578" lon="7.25849">
        <ele>430</ele>
        <time>2018-05-12T02:27:59Z</time>
      </trkpt>
      <trkpt lat="43.74579" lon="7.25858">
        <ele>430</ele>
        <time>2018-05-12T02:28:59Z</time>
      </trkpt>
      <trkpt lat="43.74579" lon="7.25867">
        <ele>430</ele>
        <time>2018-05-12T02:29:59Z</time>
      </trkpt>
      <trkpt lat="43.74579" lon="7.25868">
        <ele>430</ele>
        <time>2018-05-12T02:30:59Z</time>
      </trkpt>
      <trkpt lat="43.74576" lon="7.25872">
        <ele>429</ele>
        <time>2018-05-12T02:31:59Z</time>
      </trkpt>
      <trkpt lat="43.74557" lon="7.25866">
        <ele>424</ele>
        <time>2018-05-12T02:32:59Z</time>
      </trkpt>
      <trkpt lat="43.74551" lon="7.25873">
        <ele>422</ele>
        <time>2018-05-12T02:33:59Z</time>
      </trkpt>
      <trkpt lat="43.7455" lon="7.25882">
        <ele>421</ele>
        <time>2018-05-12T02:34:59Z</time>
      </trkpt>
      <trkpt lat="43.74549" lon="7.2589">
        <ele>421</ele>
        <time>2018-05-12T02:35:59Z</time>
      </trkpt>
      <trkpt lat="43.74549" lon="7.25898">
        <ele>420</ele>
        <time>2018-05-12T02:36:59Z</time>
      </trkpt>
      <trkpt lat="43.74552" lon="7.2591">
        <ele>421</ele>
        <time>2018-05-12T02:37:59Z</time>
      </trkpt>
      <trkpt lat="43.74553" lon="7.25916">
        <ele>421</ele>
        <time>2018-05-12T02:38:59Z</time>
      </trkpt>
      <trkpt lat="43.7455" lon="7.25919">
        <ele>419</ele>
        <time>2018-05-12T02:39:59Z</time>
      </trkpt>
      <trkpt lat="43.74549" lon="7.2592">
        <ele>419</ele>
        <time>2018-05-12T02:40:59Z</time>
      </trkpt>
      <trkpt lat="43.74548" lon="7.25925">
        <ele>418</ele>
        <time>2018-05-12T02:41:59Z</time>
      </trkpt>
      <trkpt lat="43.74547" lon="7.25927">
        <ele>417</ele>
        <time>2018-05-12T02:42:59Z</time>
      </trkpt>
      <trkpt lat="43.74535" lon="7.25935">
        <ele>412</ele>
        <time>2018-05-12T02:43:59Z</time>
      </trkpt>
      <trkpt lat="43.74533" lon="7.25937">
        <ele>411</ele>
        <time>2018-05-12T02:44:59Z</time>
      </trkpt>
      <trkpt lat="43.74531" lon="7.25944">
        <ele>409</ele>
        <time>2018-05-12T02:45:59Z</time>
      </trkpt>
      <trkpt lat="43.7453" lon="7.25945">
        <ele>408</ele>
        <time>2018-05-12T02:46:59Z</time>
      </trkpt>
      <trkpt lat="43.74526" lon="7.25947">
        <ele>407</ele>
        <time>2018-05-12T02:47:59Z</time>
      </trkpt>
      <trkpt lat="43.74523" lon="7.25948">
        <ele>405</ele>
        <time>2018-05-12T02:48:59Z</time>
      </trkpt>
      <trkpt lat="43.7452" lon="7.25948">
        <ele>405</ele>
        <time>2018-05-12T02:49:59Z</time>
      </trkpt>
      <trkpt lat="43.74512" lon="7.25949">
        <ele>402</ele>
        <time>2018-05-12T02:50:59Z</time>
      </trkpt>
      <trkpt lat="43.74508" lon="7.25952">
        <ele>400</ele>
        <time>2018-05-12T02:51:59Z</time>
      </trkpt>
      <trkpt lat="43.74506" lon="7.25953">
        <ele>400</ele>
        <time>2018-05-12T02:52:59Z</time>
      </trkpt>
      <trkpt lat="43.74504" lon="7.25953">
        <ele>399</ele>
        <time>2018-05-12T02:53:59Z</time>
      </trkpt>
      <trkpt lat="43.74502" lon="7.25954">
        <ele>398</ele>
        <time>2018-05-12T02:54:59Z</time>
      </trkpt>
      <trkpt lat="43.74492" lon="7.25954">
        <ele>395</ele>
        <time>2018-05-12T02:55:59Z</time>
      </trkpt>
      <trkpt lat="43.74491" lon="7.25954">
        <ele>395</ele>
        <time>2018-05-12T02:56:59Z</time>
      </trkpt>
      <trkpt lat="43.74488" lon="7.25956">
        <ele>394</ele>
        <time>2018-05-12T02:57:59Z</time>
      </trkpt>
      <trkpt lat="43.74484" lon="7.25958">
        <ele>392</ele>
        <time>2018-05-12T02:58:59Z</time>
      </trkpt>
      <trkpt lat="43.7448" lon="7.25959">
        <ele>391</ele>
        <time>2018-05-12T02:59:59Z</time>
      </trkpt>
      <trkpt lat="43.74478" lon="7.2596">
        <ele>390</ele>
        <time>2018-05-12T03:00:59Z</time>
      </trkpt>
      <trkpt lat="43.74469" lon="7.25966">
        <ele>387</ele>
        <time>2018-05-12T03:01:59Z</time>
      </trkpt>
      <trkpt lat="43.74465" lon="7.25968">
        <ele>385</ele>
        <time>2018-05-12T03:02:59Z</time>
      </trkpt>
      <trkpt lat="43.74463" lon="7.25968">
        <ele>385</ele>
        <time>2018-05-12T03:03:59Z</time>
      </trkpt>
      <trkpt lat="43.74457" lon="7.2597">
        <ele>383</ele>
        <time>2018-05-12T03:04:59Z</time>
      </trkpt>
      <trkpt lat="43.7445" lon="7.2597">
        <ele>381</ele>
        <time>2018-05-12T03:05:59Z</time>
      </trkpt>
      <trkpt lat="43.74445" lon="7.25969">
        <ele>380</ele>
        <time>2018-05-12T03:06:59Z</time>
      </trkpt>
      <trkpt lat="43.74444" lon="7.25971">
        <ele>379</ele>
        <time>2018-05-12T03:07:59Z</time>
      </trkpt>
      <trkpt lat="43.74444" lon="7.25973">
        <ele>379</ele>
        <time>2018-05-12T03:08:59Z</time>
      </trkpt>
      <trkpt lat="43.74445" lon="7.25976">
        <ele>379</ele>
        <time>2018-05-12T03:09:59Z</time>
      </trkpt>
      <trkpt lat="43.74456" lon="7.25989">
        <ele>380</ele>
        <time>2018-05-12T03:10:59Z</time>
      </trkpt>
      <trkpt lat="43.74461" lon="7.25996">
        <ele>380</ele>
        <time>2018-05-12T03:11:59Z</time>
      </trkpt>
      <trkpt lat="43.74464" lon="7.26006">
        <ele>379</ele>
        <time>2018-05-12T03:12:59Z</time>
      </trkpt>
      <trkpt lat="43.74469" lon="7.26017">
        <ele>378</ele>
        <time>2018-05-12T03:13:59Z</time>
      </trkpt>
      <trkpt lat="43.74474" lon="7.26029">
        <ele>376</ele>
        <time>2018-05-12T03:14:59Z</time>
      </trkpt>
      <trkpt lat="43.7448" lon="7.26041">
        <ele>375</ele>
        <time>2018-05-12T03:15:59Z</time>
      </trkpt>
      <trkpt lat="43.74492" lon="7.26063">
        <ele>373</ele>
        <time>2018-05-12T03:16:59Z</time>
      </trkpt>
      <trkpt lat="43.74495" lon="7.26068">
        <ele>372</ele>
        <time>2018-05-12T03:17:59Z</time>
      </trkpt>
      <trkpt lat="43.74503" lon="7.2608">
        <ele>370</ele>
        <time>2018-05-12T03:18:59Z</time>
      </trkpt>
      <trkpt lat="43.74515" lon="7.26095">
        <ele>369</ele>
        <time>2018-05-12T03:19:59Z</time>
      </trkpt>
      <trkpt lat="43.74528" lon="7.26111">
        <ele>367</ele>
        <time>2018-05-12T03:20:59Z</time>
      </trkpt>
      <trkpt lat="43.74548" lon="7.26133">
        <ele>363</ele>
        <time>2018-05-12T03:21:59Z</time>
      </trkpt>
      <trkpt lat="43.74559" lon="7.2615">
        <ele>359</ele>
        <time>2018-05-12T03:22:59Z</time>
      </trkpt>
      <trkpt lat="43.7456" lon="7.26153">
        <ele>358</ele>
        <time>2018-05-12T03:23:59Z</time>
      </trkpt>
      <trkpt lat="43.74563" lon="7.26157">
        <ele>357</ele>
        <time>2018-05-12T03:24:59Z</time>
      </trkpt>
      <trkpt lat="43.74567" lon="7.26163">
        <ele>355</ele>
        <time>2018-05-12T03:25:59Z</time>
      </trkpt>
      <trkpt lat="43.74569" lon="7.26166">
        <ele>354</ele>
        <time>2018-05-12T03:26:59Z</time>
      </trkpt>
      <trkpt lat="43.74568" lon="7.26172">
        <ele>353</ele>
        <time>2018-05-12T03:27:59Z</time>
      </trkpt>
      <trkpt lat="43.74567" lon="7.26173">
        <ele>352</ele>
        <time>2018-05-12T03:28:59Z</time>
      </trkpt>
      <trkpt lat="43.74568" lon="7.26176">
        <ele>352</ele>
        <time>2018-05-12T03:29:59Z</time>
      </trkpt>
      <trkpt lat="43.7457" lon="7.2618">
        <ele>351</ele>
        <time>2018-05-12T03:30:59Z</time>
      </trkpt>
      <trkpt lat="43.74568" lon="7.26182">
        <ele>351</ele>
        <time>2018-05-12T03:31:59Z</time>
      </trkpt>
      <trkpt lat="43.74564" lon="7.26191">
        <ele>349</ele>
        <time>2018-05-12T03:32:59Z</time>
      </trkpt>
      <trkpt lat="43.74562" lon="7.26193">
        <ele>348</ele>
        <time>2018-05-12T03:33:59Z</time>
      </trkpt>
      <trkpt lat="43.74556" lon="7.26201">
        <ele>346</ele>
        <time>2018-05-12T03:34:59Z</time>
      </trkpt>
      <trkpt lat="43.74549" lon="7.26207">
        <ele>345</ele>
        <time>2018-05-12T03:35:59Z</time>
      </trkpt>
      <trkpt lat="43.74548" lon="7.2621">
        <ele>344</ele>
        <time>2018-05-12T03:36:59Z</time>
      </trkpt>
      <trkpt lat="43.74547" lon="7.26214">
        <ele>343</ele>
        <time>2018-05-12T03:37:59Z</time>
      </trkpt>
      <trkpt lat="43.74548" lon="7.26222">
        <ele>341</ele>
        <time>2018-05-12T03:38:59Z</time>
      </trkpt>
      <trkpt lat="43.74551" lon="7.26229">
        <ele>340</ele>
        <time>2018-05-12T03:39:59Z</time>
      </trkpt>
      <trkpt lat="43.74556" lon="7.26235">
        <ele>339</ele>
        <time>2018-05-12T03:40:59Z</time>
      </trkpt>
      <trkpt lat="43.7456" lon="7.26239">
        <ele>338</ele>
        <time>2018-05-12T03:41:59Z</time>
      </trkpt>
      <trkpt lat="43.74575" lon="7.26249">
        <ele>337</ele>
        <time>2018-05-12T03:42:59Z</time>
      </trkpt>
      <trkpt lat="43.74583" lon="7.26257">
        <ele>335</ele>
        <time>2018-05-12T03:43:59Z</time>
      </trkpt>
      <trkpt lat="43.74583" lon="7.26268">
        <ele>332</ele>
        <time>2018-05-12T03:44:59Z</time>
      </trkpt>
      <trkpt lat="43.74584" lon="7.26276">
        <ele>330</ele>
        <time>2018-05-12T03:45:59Z</time>
      </trkpt>
      <trkpt lat="43.74595" lon="7.26289">
        <ele>326</ele>
        <time>2018-05-12T03:46:59Z</time>
      </trkpt>
      <trkpt lat="43.74608" lon="7.26292">
        <ele>326</ele>
        <time>2018-05-12T03:47:59Z</time>
      </trkpt>
      <trkpt lat="43.74615" lon="7.26291">
        <ele>326</ele>
        <time>2018-05-12T03:48:59Z</time>
      </trkpt>
      <trkpt lat="43.74622" lon="7.26291">
        <ele>326</ele>
        <time>2018-05-12T03:49:59Z</time>
      </trkpt>
      <trkpt lat="43.74643" lon="7.26289">
        <ele>327</ele>
        <time>2018-05-12T03:50:59Z</time>
      </trkpt>
      <trkpt lat="43.74648" lon="7.26291">
        <ele>327</ele>
        <time>2018-05-12T03:51:59Z</time>
      </trkpt>
      <trkpt lat="43.74649" lon="7.26296">
        <ele>326</ele>
        <time>2018-05-12T03:52:59Z</time>
      </trkpt>
      <trkpt lat="43.74648" lon="7.26302">
        <ele>324</ele>
        <time>2018-05-12T03:53:59Z</time>
      </trkpt>
      <trkpt lat="43.74639" lon="7.26309">
        <ele>322</ele>
        <time>2018-05-12T03:54:59Z</time>
      </trkpt>
      <trkpt lat="43.74628" lon="7.26315">
        <ele>320</ele>
        <time>2018-05-12T03:55:59Z</time>
      </trkpt>
      <trkpt lat="43.74626" lon="7.26322">
        <ele>318</ele>
        <time>2018-05-12T03:56:59Z</time>
      </trkpt>
      <trkpt lat="43.74634" lon="7.2633">
        <ele>316</ele>
        <time>2018-05-12T03:57:59Z</time>
      </trkpt>
      <trkpt lat="43.74651" lon="7.26332">
        <ele>317</ele>
        <time>2018-05-12T03:58:59Z</time>
      </trkpt>
      <trkpt lat="43.74652" lon="7.26335">
        <ele>316</ele>
        <time>2018-05-12T03:59:59Z</time>
      </trkpt>
      <trkpt lat="43.74648" lon="7.26342">
        <ele>314</ele>
        <time>2018-05-12T04:00:59Z</time>
      </trkpt>
      <trkpt lat="43.74644" lon="7.26347">
        <ele>313</ele>
        <time>2018-05-12T04:01:59Z</time>
      </trkpt>
      <trkpt lat="43.74639" lon="7.26358">
        <ele>310</ele>
        <time>2018-05-12T04:02:59Z</time>
      </trkpt>
      <trkpt lat="43.7464" lon="7.26362">
        <ele>309</ele>
        <time>2018-05-12T04:03:59Z</time>
      </trkpt>
      <trkpt lat="43.74644" lon="7.26368">
        <ele>308</ele>
        <time>2018-05-12T04:04:59Z</time>
      </trkpt>
      <trkpt lat="43.7465" lon="7.26373">
        <ele>307</ele>
        <time>2018-05-12T04:05:59Z</time>
      </trkpt>
      <trkpt lat="43.74653" lon="7.26377">
        <ele>306</ele>
        <time>2018-05-12T04:06:59Z</time>
      </trkpt>
      <trkpt lat="43.74654" lon="7.26384">
        <ele>305</ele>
        <time>2018-05-12T04:07:59Z</time>
      </trkpt>
      <trkpt lat="43.74652" lon="7.26399">
        <ele>301</ele>
        <time>2018-05-12T04:08:59Z</time>
      </trkpt>
      <trkpt lat="43.74651" lon="7.26406">
        <ele>300</ele>
        <time>2018-05-12T04:09:59Z</time>
      </trkpt>
      <trkpt lat="43.74647" lon="7.26416">
        <ele>297</ele>
        <time>2018-05-12T04:10:59Z</time>
      </trkpt>
      <trkpt lat="43.74637" lon="7.26417">
        <ele>296</ele>
        <time>2018-05-12T04:11:59Z</time>
      </trkpt>
      <trkpt lat="43.74631" lon="7.26418">
        <ele>296</ele>
        <time>2018-05-12T04:12:59Z</time>
      </trkpt>
      <trkpt lat="43.74625" lon="7.26421">
        <ele>294</ele>
        <time>2018-05-12T04:13:59Z</time>
      </trkpt>
      <trkpt lat="43.7462" lon="7.26424">
        <ele>294</ele>
        <time>2018-05-12T04:14:59Z</time>
      </trkpt>
      <trkpt lat="43.74617" lon="7.26428">
        <ele>292</ele>
        <time>2018-05-12T04:15:59Z</time>
      </trkpt>
      <trkpt lat="43.74615" lon="7.26432">
        <ele>291</ele>
        <time>2018-05-12T04:16:59Z</time>
      </trkpt>
      <trkpt lat="43.74618" lon="7.26434">
        <ele>291</ele>
        <time>2018-05-12T04:17:59Z</time>
      </trkpt>
      <trkpt lat="43.74621" lon="7.26434">
        <ele>291</ele>
        <time>2018-05-12T04:18:59Z</time>
      </trkpt>
      <trkpt lat="43.74625" lon="7.26434">
        <ele>291</ele>
        <time>2018-05-12T04:19:59Z</time>
      </trkpt>
      <trkpt lat="43.74631" lon="7.26437">
        <ele>291</ele>
        <time>2018-05-12T04:20:59Z</time>
      </trkpt>
      <trkpt lat="43.74636" lon="7.26439">
        <ele>291</ele>
        <time>2018-05-12T04:21:59Z</time>
      </trkpt>
      <trkpt lat="43.74642" lon="7.26449">
        <ele>288</ele>
        <time>2018-05-12T04:22:59Z</time>
      </trkpt>
      <trkpt lat="43.74644" lon="7.26455">
        <ele>287</ele>
        <time>2018-05-12T04:23:59Z</time>
      </trkpt>
      <trkpt lat="43.74649" lon="7.26465">
        <ele>284</ele>
        <time>2018-05-12T04:24:59Z</time>
      </trkpt>
      <trkpt lat="43.74668" lon="7.26479">
        <ele>281</ele>
        <time>2018-05-12T04:25:59Z</time>
      </trkpt>
      <trkpt lat="43.74672" lon="7.26483">
        <ele>280</ele>
        <time>2018-05-12T04:26:59Z</time>
      </trkpt>
      <trkpt lat="43.74676" lon="7.26489">
        <ele>278</ele>
        <time>2018-05-12T04:27:59Z</time>
      </trkpt>
      <trkpt lat="43.74688" lon="7.2651">
        <ele>272</ele>
        <time>2018-05-12T04:28:59Z</time>
      </trkpt>
      <trkpt lat="43.74692" lon="7.26516">
        <ele>271</ele>
        <time>2018-05-12T04:29:59Z</time>
      </trkpt>
      <trkpt lat="43.74704" lon="7.26519">
        <ele>270</ele>
        <time>2018-05-12T04:30:59Z</time>
      </trkpt>
      <trkpt lat="43.74708" lon="7.26524">
        <ele>268</ele>
        <time>2018-05-12T04:31:59Z</time>
      </trkpt>
      <trkpt lat="43.7471" lon="7.26526">
        <ele>267</ele>
        <time>2018-05-12T04:32:59Z</time>
      </trkpt>
      <trkpt lat="43.74712" lon="7.26527">
        <ele>267</ele>
        <time>2018-05-12T04:33:59Z</time>
      </trkpt>
      <trkpt lat="43.74718" lon="7.26529">
        <ele>266</ele>
        <time>2018-05-12T04:34:59Z</time>
      </trkpt>
      <trkpt lat="43.7472" lon="7.26531">
        <ele>266</ele>
        <time>2018-05-12T04:35:59Z</time>
      </trkpt>
      <trkpt lat="43.74725" lon="7.26538">
        <ele>263</ele>
        <time>2018-05-12T04:36:59Z</time>
      </trkpt>
      <trkpt lat="43.74725" lon="7.26539">
        <ele>263</ele>
        <time>2018-05-12T04:37:59Z</time>
      </trkpt>
      <trkpt lat="43.74724" lon="7.26539">
        <ele>263</ele>
        <time>2018-05-12T04:38:59Z</time>
      </trkpt>
      <trkpt lat="43.7472" lon="7.26545">
        <ele>261</ele>
        <time>2018-05-12T04:39:59Z</time>
      </trkpt>
      <trkpt lat="43.74719" lon="7.26546">
        <ele>260</ele>
        <time>2018-05-12T04:40:59Z</time>
      </trkpt>
      <trkpt lat="43.74712" lon="7.26545">
        <ele>261</ele>
        <time>2018-05-12T04:41:59Z</time>
      </trkpt>
      <trkpt lat="43.7471" lon="7.26544">
        <ele>261</ele>
        <time>2018-05-12T04:42:59Z</time>
      </trkpt>
      <trkpt lat="43.74709" lon="7.26547">
        <ele>260</ele>
        <time>2018-05-12T04:43:59Z</time>
      </trkpt>
      <trkpt lat="43.74709" lon="7.2655">
        <ele>259</ele>
        <time>2018-05-12T04:44:59Z</time>
      </trkpt>
      <trkpt lat="43.74715" lon="7.26556">
        <ele>257</ele>
        <time>2018-05-12T04:45:59Z</time>
      </trkpt>
      <trkpt lat="43.74716" lon="7.26558">
        <ele>256</ele>
        <time>2018-05-12T04:46:59Z</time>
      </trkpt>
      <trkpt lat="43.74716" lon="7.26561">
        <ele>255</ele>
        <time>2018-05-12T04:47:59Z</time>
      </trkpt>
      <trkpt lat="43.74715" lon="7.26563">
        <ele>255</ele>
        <time>2018-05-12T04:48:59Z</time>
      </trkpt>
      <trkpt lat="43.74716" lon="7.26567">
        <ele>253</ele>
        <time>2018-05-12T04:49:59Z</time>
      </trkpt>
      <trkpt lat="43.74719" lon="7.26572">
        <ele>252</ele>
        <time>2018-05-12T04:50:59Z</time>
      </trkpt>
      <trkpt lat="43.74718" lon="7.26574">
        <ele>251</ele>
        <time>2018-05-12T04:51:59Z</time>
      </trkpt>
      <trkpt lat="43.74718" lon="7.26577">
        <ele>250</ele>
        <time>2018-05-12T04:52:59Z</time>
      </trkpt>
      <trkpt lat="43.74719" lon="7.26581">
        <ele>248</ele>
        <time>2018-05-12T04:53:59Z</time>
      </trkpt>
      <trkpt lat="43.74721" lon="7.26584">
        <ele>247</ele>
        <time>2018-05-12T04:54:59Z</time>
      </trkpt>
      <trkpt lat="43.74723" lon="7.26584">
        <ele>247</ele>
        <time>2018-05-12T04:55:59Z</time>
      </trkpt>
      <trkpt lat="43.74725" lon="7.2659">
        <ele>246</ele>
        <time>2018-05-12T04:56:59Z</time>
      </trkpt>
      <trkpt lat="43.74725" lon="7.26592">
        <ele>245</ele>
        <time>2018-05-12T04:57:59Z</time>
      </trkpt>
      <trkpt lat="43.74728" lon="7.26596">
        <ele>244</ele>
        <time>2018-05-12T04:58:59Z</time>
      </trkpt>
      <trkpt lat="43.74729" lon="7.26597">
        <ele>244</ele>
        <time>2018-05-12T04:59:59Z</time>
      </trkpt>
      <trkpt lat="43.7473" lon="7.266">
        <ele>243</ele>
        <time>2018-05-12T05:00:59Z</time>
      </trkpt>
      <trkpt lat="43.74732" lon="7.26603">
        <ele>242</ele>
        <time>2018-05-12T05:01:59Z</time>
      </trkpt>
      <trkpt lat="43.74732" lon="7.26609">
        <ele>241</ele>
        <time>2018-05-12T05:02:59Z</time>
      </trkpt>
      <trkpt lat="43.74733" lon="7.26613">
        <ele>240</ele>
        <time>2018-05-12T05:03:59Z</time>
      </trkpt>
      <trkpt lat="43.74734" lon="7.26616">
        <ele>239</ele>
        <time>2018-05-12T05:04:59Z</time>
      </trkpt>
      <trkpt lat="43.74738" lon="7.26619">
        <ele>238</ele>
        <time>2018-05-12T05:05:59Z</time>
      </trkpt>
      <trkpt lat="43.74739" lon="7.26621">
        <ele>238</ele>
        <time>2018-05-12T05:06:59Z</time>
      </trkpt>
      <trkpt lat="43.74739" lon="7.26629">
        <ele>236</ele>
        <time>2018-05-12T05:07:59Z</time>
      </trkpt>
      <trkpt lat="43.7474" lon="7.26632">
        <ele>235</ele>
        <time>2018-05-12T05:08:59Z</time>
      </trkpt>
      <trkpt lat="43.74744" lon="7.26638">
        <ele>233</ele>
        <time>2018-05-12T05:09:59Z</time>
      </trkpt>
      <trkpt lat="43.74744" lon="7.26639">
        <ele>233</ele>
        <time>2018-05-12T05:10:59Z</time>
      </trkpt>
      <trkpt lat="43.74744" lon="7.26642">
        <ele>232</ele>
        <time>2018-05-12T05:11:59Z</time>
      </trkpt>
      <trkpt lat="43.74744" lon="7.26645">
        <ele>231</ele>
        <time>2018-05-12T05:12:59Z</time>
      </trkpt>
      <trkpt lat="43.74741" lon="7.26652">
        <ele>230</ele>
        <time>2018-05-12T05:13:59Z</time>
      </trkpt>
      <trkpt lat="43.74742" lon="7.26656">
        <ele>229</ele>
        <time>2018-05-12T05:14:59Z</time>
      </trkpt>
      <trkpt lat="43.74744" lon="7.26661">
        <ele>228</ele>
        <time>2018-05-12T05:15:59Z</time>
      </trkpt>
      <trkpt lat="43.74746" lon="7.26663">
        <ele>227</ele>
        <time>2018-05-12T05:16:59Z</time>
      </trkpt>
      <trkpt lat="43.74753" lon="7.26669">
        <ele>225</ele>
        <time>2018-05-12T05:17:59Z</time>
      </trkpt>
      <trkpt lat="43.74757" lon="7.26672">
        <ele>226</ele>
        <time>2018-05-12T05:18:59Z</time>
      </trkpt>
      <trkpt lat="43.74762" lon="7.26675">
        <ele>227</ele>
        <time>2018-05-12T05:19:59Z</time>
      </trkpt>
      <trkpt lat="43.74764" lon="7.26676">
        <ele>227</ele>
        <time>2018-05-12T05:20:59Z</time>
      </trkpt>
      <trkpt lat="43.74767" lon="7.26683">
        <ele>227</ele>
        <time>2018-05-12T05:21:59Z</time>
      </trkpt>
      <trkpt lat="43.74772" lon="7.26691">
        <ele>226</ele>
        <time>2018-05-12T05:22:59Z</time>
      </trkpt>
      <trkpt lat="43.74776" lon="7.26696">
        <ele>226</ele>
        <time>2018-05-12T05:23:59Z</time>
      </trkpt>
      <trkpt lat="43.74779" lon="7.26706">
        <ele>225</ele>
        <time>2018-05-12T05:24:59Z</time>
      </trkpt>
      <trkpt lat="43.74782" lon="7.26713">
        <ele>224</ele>
        <time>2018-05-12T05:25:59Z</time>
      </trkpt>
      <trkpt lat="43.74783" lon="7.26716">
        <ele>224</ele>
        <time>2018-05-12T05:26:59Z</time>
      </trkpt>
      <trkpt lat="43.74787" lon="7.2672">
        <ele>224</ele>
        <time>2018-05-12T05:27:59Z</time>
      </trkpt>
      <trkpt lat="43.74788" lon="7.26723">
        <ele>223</ele>
        <time>2018-05-12T05:28:59Z</time>
      </trkpt>
      <trkpt lat="43.74791" lon="7.26736">
        <ele>221</ele>
        <time>2018-05-12T05:29:59Z</time>
      </trkpt>
      <trkpt lat="43.74791" lon="7.26738">
        <ele>221</ele>
        <time>2018-05-12T05:30:59Z</time>
      </trkpt>
      <trkpt lat="43.74793" lon="7.26744">
        <ele>220</ele>
        <time>2018-05-12T05:31:59Z</time>
      </trkpt>
      <trkpt lat="43.74795" lon="7.26746">
        <ele>219</ele>
        <time>2018-05-12T05:32:59Z</time>
      </trkpt>
      <trkpt lat="43.74795" lon="7.26749">
        <ele>219</ele>
        <time>2018-05-12T05:33:59Z</time>
      </trkpt>
      <trkpt lat="43.74795" lon="7.26751">
        <ele>219</ele>
        <time>2018-05-12T05:34:59Z</time>
      </trkpt>
      <trkpt lat="43.748" lon="7.26766">
        <ele>216</ele>
        <time>2018-05-12T05:35:59Z</time>
      </trkpt>
      <trkpt lat="43.74801" lon="7.26771">
        <ele>215</ele>
        <time>2018-05-12T05:36:59Z</time>
      </trkpt>
      <trkpt lat="43.74817" lon="7.26791">
        <ele>211</ele>
        <time>2018-05-12T05:37:59Z</time>
      </trkpt>
      <trkpt lat="43.7483" lon="7.26805">
        <ele>207</ele>
        <time>2018-05-12T05:38:59Z</time>
      </trkpt>
      <trkpt lat="43.74836" lon="7.26811">
        <ele>205</ele>
        <time>2018-05-12T05:39:59Z</time>
      </trkpt>
      <trkpt lat="43.74843" lon="7.26816">
        <ele>206</ele>
        <time>2018-05-12T05:40:59Z</time>
      </trkpt>
      <trkpt lat="43.74856" lon="7.2683">
        <ele>205</ele>
        <time>2018-05-12T05:41:59Z</time>
      </trkpt>
      <trkpt lat="43.74861" lon="7.26834">
        <ele>205</ele>
        <time>2018-05-12T05:42:59Z</time>
      </trkpt>
      <trkpt lat="43.74862" lon="7.26837">
        <ele>205</ele>
        <time>2018-05-12T05:43:59Z</time>
      </trkpt>
      <trkpt lat="43.74864" lon="7.26844">
        <ele>204</ele>
        <time>2018-05-12T05:44:59Z</time>
      </trkpt>
      <trkpt lat="43.74864" lon="7.26857">
        <ele>203</ele>
        <time>2018-05-12T05:45:59Z</time>
      </trkpt>
      <trkpt lat="43.74862" lon="7.26899">
        <ele>199</ele>
        <time>2018-05-12T05:46:59Z</time>
      </trkpt>
      <trkpt lat="43.74863" lon="7.26914">
        <ele>198</ele>
        <time>2018-05-12T05:47:59Z</time>
      </trkpt>
      <trkpt lat="43.74862" lon="7.26918">
        <ele>198</ele>
        <time>2018-05-12T05:48:59Z</time>
      </trkpt>
      <trkpt lat="43.7486" lon="7.26944">
        <ele>198</ele>
        <time>2018-05-12T05:49:59Z</time>
      </trkpt>
      <trkpt lat="43.7486" lon="7.2695">
        <ele>199</ele>
        <time>2018-05-12T05:50:59Z</time>
      </trkpt>
      <trkpt lat="43.74856" lon="7.2697">
        <ele>198</ele>
        <time>2018-05-12T05:51:59Z</time>
      </trkpt>
      <trkpt lat="43.74854" lon="7.26981">
        <ele>199</ele>
        <time>2018-05-12T05:52:59Z</time>
      </trkpt>
      <trkpt lat="43.74851" lon="7.27012">
        <ele>199</ele>
        <time>2018-05-12T05:53:59Z</time>
      </trkpt>
      <trkpt lat="43.74848" lon="7.27033">
        <ele>199</ele>
        <time>2018-05-12T05:54:59Z</time>
      </trkpt>
      <trkpt lat="43.74843" lon="7.27085">
        <ele>199</ele>
        <time>2018-05-12T05:55:59Z</time>
      </trkpt>
      <trkpt lat="43.74842" lon="7.27093">
        <ele>198</ele>
        <time>2018-05-12T05:56:59Z</time>
      </trkpt>
      <trkpt lat="43.74842" lon="7.27105">
        <ele>196</ele>
        <time>2018-05-12T05:57:59Z</time>
      </trkpt>
      <trkpt lat="43.74842" lon="7.2712">
        <ele>195</ele>
        <time>2018-05-12T05:58:59Z</time>
      </trkpt>
      <trkpt lat="43.7484" lon="7.27137">
        <ele>192</ele>
        <time>2018-05-12T05:59:59Z</time>
      </trkpt>
      <trkpt lat="43.74828" lon="7.2717">
        <ele>188</ele>
        <time>2018-05-12T06:00:59Z</time>
      </trkpt>
      <trkpt lat="43.74827" lon="7.27174">
        <ele>189</ele>
        <time>2018-05-12T06:01:59Z</time>
      </trkpt>
      <trkpt lat="43.74818" lon="7.27198">
        <ele>189</ele>
        <time>2018-05-12T06:02:59Z</time>
      </trkpt>
      <trkpt lat="43.74809" lon="7.27213">
        <ele>190</ele>
        <time>2018-05-12T06:03:59Z</time>
      </trkpt>
      <trkpt lat="43.74808" lon="7.27217">
        <ele>190</ele>
        <time>2018-05-12T06:04:59Z</time>
      </trkpt>
      <trkpt lat="43.74804" lon="7.27217">
        <ele>191</ele>
        <time>2018-05-12T06:05:59Z</time>
      </trkpt>
      <trkpt lat="43.748" lon="7.27223">
        <ele>191</ele>
        <time>2018-05-12T06:06:59Z</time>
      </trkpt>
      <trkpt lat="43.74798" lon="7.27225">
        <ele>191</ele>
        <time>2018-05-12T06:07:59Z</time>
      </trkpt>
      <trkpt lat="43.74793" lon="7.27229">
        <ele>191</ele>
        <time>2018-05-12T06:08:59Z</time>
      </trkpt>
      <trkpt lat="43.74784" lon="7.27238">
        <ele>191</ele>
        <time>2018-05-12T06:09:59Z</time>
      </trkpt>
      <trkpt lat="43.74781" lon="7.27241">
        <ele>191</ele>
        <time>2018-05-12T06:10:59Z</time>
      </trkpt>
      <trkpt lat="43.74773" lon="7.27245">
        <ele>191</ele>
        <time>2018-05-12T06:11:59Z</time>
      </trkpt>
      <trkpt lat="43.7477" lon="7.27248">
        <ele>191</ele>
        <time>2018-05-12T06:12:59Z</time>
      </trkpt>
      <trkpt lat="43.74765" lon="7.27254">
        <ele>190</ele>
        <time>2018-05-12T06:13:59Z</time>
      </trkpt>
      <trkpt lat="43.74759" lon="7.27261">
        <ele>189</ele>
        <time>2018-05-12T06:14:59Z</time>
      </trkpt>
      <trkpt lat="43.74759" lon="7.27263">
        <ele>189</ele>
        <time>2018-05-12T06:15:59Z</time>
      </trkpt>
      <trkpt lat="43.74753" lon="7.27273">
        <ele>187</ele>
        <time>2018-05-12T06:16:59Z</time>
      </trkpt>
      <trkpt lat="43.74745" lon="7.27284">
        <ele>186</ele>
        <time>2018-05-12T06:17:59Z</time>
      </trkpt>
      <trkpt lat="43.7474" lon="7.27293">
        <ele>186</ele>
        <time>2018-05-12T06:18:59Z</time>
      </trkpt>
      <trkpt lat="43.74739" lon="7.27295">
        <ele>186</ele>
        <time>2018-05-12T06:19:59Z</time>
      </trkpt>
      <trkpt lat="43.74736" lon="7.27297">
        <ele>187</ele>
        <time>2018-05-12T06:20:59Z</time>
      </trkpt>
      <trkpt lat="43.74726" lon="7.273">
        <ele>190</ele>
        <time>2018-05-12T06:21:59Z</time>
      </trkpt>
      <trkpt lat="43.7472" lon="7.27302">
        <ele>192</ele>
        <time>2018-05-12T06:22:59Z</time>
      </trkpt>
      <trkpt lat="43.74716" lon="7.27304">
        <ele>193</ele>
        <time>2018-05-12T06:23:59Z</time>
      </trkpt>
      <trkpt lat="43.74714" lon="7.27308">
        <ele>193</ele>
        <time>2018-05-12T06:24:59Z</time>
      </trkpt>
      <trkpt lat="43.74712" lon="7.27313">
        <ele>193</ele>
        <time>2018-05-12T06:25:59Z</time>
      </trkpt>
      <trkpt lat="43.7471" lon="7.27319">
        <ele>192</ele>
        <time>2018-05-12T06:26:59Z</time>
      </trkpt>
      <trkpt lat="43.7471" lon="7.27328">
        <ele>190</ele>
        <time>2018-05-12T06:27:59Z</time>
      </trkpt>
      <trkpt lat="43.74716" lon="7.27342">
        <ele>186</ele>
        <time>2018-05-12T06:28:59Z</time>
      </trkpt>
      <trkpt lat="43.7472" lon="7.27361">
        <ele>183</ele>
        <time>2018-05-12T06:29:59Z</time>
      </trkpt>
      <trkpt lat="43.74716" lon="7.27376">
        <ele>183</ele>
        <time>2018-05-12T06:30:59Z</time>
      </trkpt>
      <trkpt lat="43.74714" lon="7.27383">
        <ele>184</ele>
        <time>2018-05-12T06:31:59Z</time>
      </trkpt>
      <trkpt lat="43.74713" lon="7.27384">
        <ele>184</ele>
        <time>2018-05-12T06:32:59Z</time>
      </trkpt>
      <trkpt lat="43.74708" lon="7.27387">
        <ele>185</ele>
        <time>2018-05-12T06:33:59Z</time>
      </trkpt>
      <trkpt lat="43.747" lon="7.27395">
        <ele>187</ele>
        <time>2018-05-12T06:34:59Z</time>
      </trkpt>
      <trkpt lat="43.74698" lon="7.27396">
        <ele>188</ele>
        <time>2018-05-12T06:35:59Z</time>
      </trkpt>
      <trkpt lat="43.74695" lon="7.27406">
        <ele>188</ele>
        <time>2018-05-12T06:36:59Z</time>
      </trkpt>
      <trkpt lat="43.74695" lon="7.27408">
        <ele>188</ele>
        <time>2018-05-12T06:37:59Z</time>
      </trkpt>
      <trkpt lat="43.74689" lon="7.27418">
        <ele>188</ele>
        <time>2018-05-12T06:38:59Z</time>
      </trkpt>
      <trkpt lat="43.74683" lon="7.27427">
        <ele>189</ele>
        <time>2018-05-12T06:39:59Z</time>
      </trkpt>
      <trkpt lat="43.74682" lon="7.27429">
        <ele>189</ele>
        <time>2018-05-12T06:40:59Z</time>
      </trkpt>
      <trkpt lat="43.74674" lon="7.27433">
        <ele>190</ele>
        <time>2018-05-12T06:41:59Z</time>
      </trkpt>
      <trkpt lat="43.74672" lon="7.27434">
        <ele>190</ele>
        <time>2018-05-12T06:42:59Z</time>
      </trkpt>
      <trkpt lat="43.74669" lon="7.27454">
        <ele>187</ele>
        <time>2018-05-12T06:43:59Z</time>
      </trkpt>
      <trkpt lat="43.74663" lon="7.27473">
        <ele>186</ele>
        <time>2018-05-12T06:44:59Z</time>
      </trkpt>
      <trkpt lat="43.74651" lon="7.27496">
        <ele>187</ele>
        <time>2018-05-12T06:45:59Z</time>
      </trkpt>
      <trkpt lat="43.7464" lon="7.27509">
        <ele>190</ele>
        <time>2018-05-12T06:46:59Z</time>
      </trkpt>
      <trkpt lat="43.74629" lon="7.27521">
        <ele>193</ele>
        <time>2018-05-12T06:47:59Z</time>
      </trkpt>
      <trkpt lat="43.7462" lon="7.27534">
        <ele>194</ele>
        <time>2018-05-12T06:48:59Z</time>
      </trkpt>
      <trkpt lat="43.74616" lon="7.27548">
        <ele>193</ele>
        <time>2018-05-12T06:49:59Z</time>
      </trkpt>
      <trkpt lat="43.74612" lon="7.27574">
        <ele>190</ele>
        <time>2018-05-12T06:50:59Z</time>
      </trkpt>
      <trkpt lat="43.74609" lon="7.27579">
        <ele>190</ele>
        <time>2018-05-12T06:51:59Z</time>
      </trkpt>
      <trkpt lat="43.74592" lon="7.276">
        <ele>193</ele>
        <time>2018-05-12T06:52:59Z</time>
      </trkpt>
      <trkpt lat="43.74577" lon="7.27616">
        <ele>193</ele>
        <time>2018-05-12T06:53:59Z</time>
      </trkpt>
      <trkpt lat="43.7456" lon="7.27629">
        <ele>194</ele>
        <time>2018-05-12T06:54:59Z</time>
      </trkpt>
      <trkpt lat="43.74557" lon="7.2763">
        <ele>194</ele>
        <time>2018-05-12T06:55:59Z</time>
      </trkpt>
      <trkpt lat="43.74555" lon="7.27631">
        <ele>194</ele>
        <time>2018-05-12T06:56:59Z</time>
      </trkpt>
      <trkpt lat="43.74536" lon="7.27622">
        <ele>202</ele>
        <time>2018-05-12T06:57:59Z</time>
      </trkpt>
      <trkpt lat="43.74531" lon="7.2762">
        <ele>203</ele>
        <time>2018-05-12T06:58:59Z</time>
      </trkpt>
      <trkpt lat="43.74521" lon="7.27625">
        <ele>204</ele>
        <time>2018-05-12T06:59:59Z</time>
      </trkpt>
      <trkpt lat="43.74509" lon="7.27634">
        <ele>205</ele>
        <time>2018-05-12T07:00:59Z</time>
      </trkpt>
      <trkpt lat="43.74507" lon="7.27635">
        <ele>205</ele>
        <time>2018-05-12T07:01:59Z</time>
      </trkpt>
      <trkpt lat="43.74491" lon="7.27639">
        <ele>208</ele>
        <time>2018-05-12T07:02:59Z</time>
      </trkpt>
      <trkpt lat="43.74485" lon="7.27647">
        <ele>207</ele>
        <time>2018-05-12T07:03:59Z</time>
      </trkpt>
      <trkpt lat="43.74484" lon="7.27651">
        <ele>206</ele>
        <time>2018-05-12T07:04:59Z</time>
      </trkpt>
      <trkpt lat="43.74483" lon="7.2766">
        <ele>204</ele>
        <time>2018-05-12T07:05:59Z</time>
      </trkpt>
      <trkpt lat="43.74483" lon="7.27672">
        <ele>201</ele>
        <time>2018-05-12T07:06:59Z</time>
      </trkpt>
      <trkpt lat="43.74484" lon="7.27677">
        <ele>200</ele>
        <time>2018-05-12T07:07:59Z</time>
      </trkpt>
      <trkpt lat="43.74484" lon="7.27682">
        <ele>199</ele>
        <time>2018-05-12T07:08:59Z</time>
      </trkpt>
      <trkpt lat="43.74482" lon="7.27688">
        <ele>198</ele>
        <time>2018-05-12T07:09:59Z</time>
      </trkpt>
      <trkpt lat="43.74481" lon="7.2769">
        <ele>198</ele>
        <time>2018-05-12T07:10:59Z</time>
      </trkpt>
      <trkpt lat="43.74475" lon="7.27699">
        <ele>198</ele>
        <time>2018-05-12T07:11:59Z</time>
      </trkpt>
      <trkpt lat="43.74474" lon="7.27703">
        <ele>198</ele>
        <time>2018-05-12T07:12:59Z</time>
      </trkpt>
      <trkpt lat="43.7446" lon="7.27723">
        <ele>197</ele>
        <time>2018-05-12T07:13:59Z</time>
      </trkpt>
      <trkpt lat="43.74453" lon="7.27727">
        <ele>198</ele>
        <time>2018-05-12T07:14:59Z</time>
      </trkpt>
      <trkpt lat="43.74449" lon="7.27729">
        <ele>198</ele>
        <time>2018-05-12T07:15:59Z</time>
      </trkpt>
      <trkpt lat="43.74444" lon="7.27729">
        <ele>199</ele>
        <time>2018-05-12T07:16:59Z</time>
      </trkpt>
      <trkpt lat="43.74443" lon="7.27728">
        <ele>200</ele>
        <time>2018-05-12T07:17:59Z</time>
      </trkpt>
      <trkpt lat="43.74423" lon="7.27782">
        <ele>192</ele>
        <time>2018-05-12T07:18:59Z</time>
      </trkpt>
      <trkpt lat="43.74424" lon="7.2782">
        <ele>184</ele>
        <time>2018-05-12T07:19:59Z</time>
      </trkpt>
      <trkpt lat="43.74404" lon="7.27858">
        <ele>178</ele>
        <time>2018-05-12T07:20:59Z</time>
      </trkpt>
      <trkpt lat="43.74406" lon="7.2789">
        <ele>172</ele>
        <time>2018-05-12T07:21:59Z</time>
      </trkpt>
      <trkpt lat="43.74379" lon="7.27913">
        <ele>170</ele>
        <time>2018-05-12T07:22:59Z</time>
      </trkpt>
      <trkpt lat="43.74375" lon="7.27969">
        <ele>161</ele>
        <time>2018-05-12T07:23:59Z</time>
      </trkpt>
      <trkpt lat="43.7433" lon="7.28033">
        <ele>156</ele>
        <time>2018-05-12T07:24:59Z</time>
      </trkpt>
      <trkpt lat="43.74324" lon="7.28076">
        <ele>150</ele>
        <time>2018-05-12T07:25:59Z</time>
      </trkpt>
      <trkpt lat="43.74304" lon="7.28119">
        <ele>140</ele>
        <time>2018-05-12T07:26:59Z</time>
      </trkpt>
      <trkpt lat="43.74282" lon="7.28174">
        <ele>130</ele>
        <time>2018-05-12T07:27:59Z</time>
      </trkpt>
      <trkpt lat="43.74254" lon="7.28226">
        <ele>132</ele>
        <time>2018-05-12T07:28:59Z</time>
      </trkpt>
      <trkpt lat="43.74225" lon="7.2829">
        <ele>126</ele>
        <time>2018-05-12T07:29:59Z</time>
      </trkpt>
      <trkpt lat="43.74217" lon="7.28314">
        <ele>124</ele>
        <time>2018-05-12T07:30:59Z</time>
      </trkpt>
      <trkpt lat="43.74168" lon="7.28369">
        <ele>122</ele>
        <time>2018-05-12T07:31:59Z</time>
      </trkpt>
      <trkpt lat="43.74171" lon="7.28402">
        <ele>118</ele>
        <time>2018-05-12T07:32:59Z</time>
      </trkpt>
      <trkpt lat="43.74146" lon="7.28463">
        <ele>107</ele>
        <time>2018-05-12T07:33:59Z</time>
      </trkpt>
      <trkpt lat="43.7411" lon="7.28533">
        <ele>93</ele>
        <time>2018-05-12T07:34:59Z</time>
      </trkpt>
      <trkpt lat="43.74063" lon="7.28552">
        <ele>85</ele>
        <time>2018-05-12T07:35:59Z</time>
      </trkpt>
      <trkpt lat="43.7407" lon="7.2857">
        <ele>83</ele>
        <time>2018-05-12T07:36:59Z</time>
      </trkpt>
      <trkpt lat="43.74057" lon="7.28588">
        <ele>79</ele>
        <time>2018-05-12T07:37:59Z</time>
      </trkpt>
      <trkpt lat="43.74067" lon="7.286">
        <ele>78</ele>
        <time>2018-05-12T07:38:59Z</time>
      </trkpt>
      <trkpt lat="43.74023" lon="7.28661">
        <ele>65</ele>
        <time>2018-05-12T07:39:59Z</time>
      </trkpt>
      <trkpt lat="43.7399" lon="7.28717">
        <ele>61</ele>
        <time>2018-05-12T07:40:59Z</time>
      </trkpt>
      <trkpt lat="43.73953" lon="7.28713">
        <ele>61</ele>
        <time>2018-05-12T07:41:59Z</time>
      </trkpt>
      <trkpt lat="43.73941" lon="7.28753">
        <ele>59</ele>
        <time>2018-05-12T07:42:59Z</time>
      </trkpt>
      <trkpt lat="43.73835" lon="7.28711">
        <ele>60</ele>
        <time>2018-05-12T07:43:59Z</time>
      </trkpt>
      <trkpt lat="43.73737" lon="7.28713">
        <ele>58</ele>
        <time>2018-05-12T07:44:59Z</time>
      </trkpt>
      <trkpt lat="43.73644" lon="7.28742">
        <ele>55</ele>
        <time>2018-05-12T07:45:59Z</time>
      </trkpt>
      <trkpt lat="43.73521" lon="7.2878">
        <ele>52</ele>
        <time>2018-05-12T07:46:59Z</time>
      </trkpt>
      <trkpt lat="43.73462" lon="7.28736">
        <ele>54</ele>
        <time>2018-05-12T07:47:59Z</time>
      </trkpt>
      <trkpt lat="43.73386" lon="7.28576">
        <ele>53</ele>
        <time>2018-05-12T07:48:59Z</time>
      </trkpt>
      <trkpt lat="43.73333" lon="7.28514">
        <ele>54</ele>
        <time>2018-05-12T07:49:59Z</time>
      </trkpt>
      <trkpt lat="43.73214" lon="7.28491">
        <ele>46</ele>
        <time>2018-05-12T07:50:59Z</time>
      </trkpt>
      <trkpt lat="43.73103" lon="7.28423">
        <ele>41</ele>
        <time>2018-05-12T07:51:59Z</time>
      </trkpt>
      <trkpt lat="43.72964" lon="7.28297">
        <ele>39</ele>
        <time>2018-05-12T07:52:59Z</time>
      </trkpt>
      <trkpt lat="43.72872" lon="7.28265">
        <ele>38</ele>
        <time>2018-05-12T07:53:59Z</time>
      </trkpt>
      <trkpt lat="43.72762" lon="7.28323">
        <ele>37</ele>
        <time>2018-05-12T07:54:59Z</time>
      </trkpt>
      <trkpt lat="43.72677" lon="7.28405">
        <ele>37</ele>
        <time>2018-05-12T07:55:59Z</time>
      </trkpt>
      <trkpt lat="43.72553" lon="7.28611">
        <ele>36</ele>
        <time>2018-05-12T07:56:59Z</time>
      </trkpt>
      <trkpt lat="43.72469" lon="7.28689">
        <ele>36</ele>
        <time>2018-05-12T07:57:59Z</time>
      </trkpt>
      <trkpt lat="43.72399" lon="7.28743">
        <ele>34</ele>
        <time>2018-05-12T07:58:59Z</time>
      </trkpt>
      <trkpt lat="43.72323" lon="7.28771">
        <ele>34</ele>
        <time>2018-05-12T07:59:59Z</time>
      </trkpt>
      <trkpt lat="43.72261" lon="7.28772">
        <ele>35</ele>
        <time>2018-05-12T08:00:59Z</time>
      </trkpt>
      <trkpt lat="43.7216" lon="7.28714">
        <ele>32</ele>
        <time>2018-05-12T08:01:59Z</time>
      </trkpt>
      <trkpt lat="43.72071" lon="7.28647">
        <ele>31</ele>
        <time>2018-05-12T08:02:59Z</time>
      </trkpt>
      <trkpt lat="43.71965" lon="7.28503">
        <ele>31</ele>
        <time>2018-05-12T08:03:59Z</time>
      </trkpt>
      <trkpt lat="43.71853" lon="7.28336">
        <ele>26</ele>
        <time>2018-05-12T08:04:59Z</time>
      </trkpt>
      <trkpt lat="43.71781" lon="7.28256">
        <ele>24</ele>
        <time>2018-05-12T08:05:59Z</time>
      </trkpt>
      <trkpt lat="43.71689" lon="7.28201">
        <ele>25</ele>
        <time>2018-05-12T08:06:59Z</time>
      </trkpt>
      <trkpt lat="43.7164" lon="7.28202">
        <ele>25</ele>
        <time>2018-05-12T08:07:59Z</time>
      </trkpt>
      <trkpt lat="43.71578" lon="7.28195">
        <ele>25</ele>
        <time>2018-05-12T08:08:59Z</time>
      </trkpt>
      <trkpt lat="43.71518" lon="7.28213">
        <ele>26</ele>
        <time>2018-05-12T08:09:59Z</time>
      </trkpt>
      <trkpt lat="43.71438" lon="7.28244">
        <ele>24</ele>
        <time>2018-05-12T08:10:59Z</time>
      </trkpt>
      <trkpt lat="43.71364" lon="7.28297">
        <ele>25</ele>
        <time>2018-05-12T08:11:59Z</time>
      </trkpt>
      <trkpt lat="43.71276" lon="7.28324">
        <ele>22</ele>
        <time>2018-05-12T08:12:59Z</time>
      </trkpt>
      <trkpt lat="43.712" lon="7.28357">
        <ele>21</ele>
        <time>2018-05-12T08:13:59Z</time>
      </trkpt>
      <trkpt lat="43.71138" lon="7.28358">
        <ele>20</ele>
        <time>2018-05-12T08:14:59Z</time>
      </trkpt>
      <trkpt lat="43.71042" lon="7.28337">
        <ele>18</ele>
        <time>2018-05-12T08:15:59Z</time>
      </trkpt>
      <trkpt lat="43.71006" lon="7.28281">
        <ele>20</ele>
        <time>2018-05-12T08:16:59Z</time>
      </trkpt>
      <trkpt lat="43.70802" lon="7.2822">
        <ele>22</ele>
        <time>2018-05-12T08:17:59Z</time>
      </trkpt>
      <trkpt lat="43.70646" lon="7.2816">
        <ele>19</ele>
        <time>2018-05-12T08:18:59Z</time>
      </trkpt>
      <trkpt lat="43.70626" lon="7.28157">
        <ele>19</ele>
        <time>2018-05-12T08:19:59Z</time>
      </trkpt>
      <trkpt lat="43.70315" lon="7.27973">
        <ele>23</ele>
        <time>2018-05-12T08:20:59Z</time>
      </trkpt>
      <trkpt lat="43.70037" lon="7.2779">
        <ele>18</ele>
        <time>2018-05-12T08:21:59Z</time>
      </trkpt>
      <trkpt lat="43.69892" lon="7.27664">
        <ele>17</ele>
        <time>2018-05-12T08:22:59Z</time>
      </trkpt>
      <trkpt lat="43.69847" lon="7.27559">
        <ele>17</ele>
        <time>2018-05-12T08:23:59Z</time>
      </trkpt>
      <trkpt lat="43.69758" lon="7.2729">
        <ele>13</ele>
        <time>2018-05-12T08:24:59Z</time>
      </trkpt>
      <trkpt lat="43.69698" lon="7.27053">
        <ele>12</ele>
        <time>2018-05-12T08:25:59Z</time>
      </trkpt>
      <trkpt lat="43.69608" lon="7.26848">
        <ele>12</ele>
        <time>2018-05-12T08:26:59Z</time>
      </trkpt>
      <trkpt lat="43.69468" lon="7.26857">
        <ele>4</ele>
        <time>2018-05-12T08:27:59Z</time>
      </trkpt>
      <trkpt lat="43.6946" lon="7.26791">
        <ele>4</ele>
        <time>2018-05-12T08:28:59Z</time>
      </trkpt>
    </trkseg>
  </trk>
</gpx>